<?xml version="1.0" encoding="UTF-8" standalone="no" ?>
<gpx xmlns="http://www.topografix.com/GPX/1/1" xmlns:xsi="http://www.w3.org/2001/XMLSchema-instance" xsi:schemaLocation="http://www.topografix.com/GPX/1/1 http://www.topografix.com/GPX/1/1/gpx.xsd" version="1.1" creator="VisuGPX - https://www.visugpx.com">
  <metadata>
    <name>Guillaumes LES PORTES DU MERCANTOUR</name>
    <desc><![CDATA[Magnifique balade qui emprunte les spéciales de l'enduro en enchaînant 3 boucles magnifiques.
Après une montée à Sauze par le sentier qui coupe la route, La première descente ludique sur  Villeneuve d'Entraune  avec un final en lacet dans le sous-bois, la seconde est lunaire à partir de Chateauneuf d'Entraunes dans les marnes grises puis on remonte vers Sauze avec une montée raide qui avec une bonne technique du VAE passe presque tout le long sur le vélo, et on termine par une superbe descente qui ramène à Guillaume avec le smile de la journée parfaite.]]></desc>
  </metadata>
  <trk>
    <name><![CDATA[Guillaumes Cyclisme]]></name>
    <trkseg>
      <trkpt lat="44.0888" lon="6.85419">
        <ele>794.59997558594</ele>
        <time>2020-09-05T08:09:08.000Z</time>
      </trkpt>
      <trkpt lat="44.08881" lon="6.85419">
        <ele>794.59997558594</ele>
        <time>2020-09-05T08:09:12.000Z</time>
      </trkpt>
      <trkpt lat="44.08882" lon="6.85421">
        <ele>794.59997558594</ele>
        <time>2020-09-05T08:09:21.000Z</time>
      </trkpt>
      <trkpt lat="44.08882" lon="6.85423">
        <ele>794.40002441406</ele>
        <time>2020-09-05T08:09:36.000Z</time>
      </trkpt>
      <trkpt lat="44.08883" lon="6.85423">
        <ele>794.40002441406</ele>
        <time>2020-09-05T08:09:56.000Z</time>
      </trkpt>
      <trkpt lat="44.08885" lon="6.85422">
        <ele>794.40002441406</ele>
        <time>2020-09-05T08:10:11.000Z</time>
      </trkpt>
      <trkpt lat="44.08885" lon="6.85421">
        <ele>794</ele>
        <time>2020-09-05T08:10:21.000Z</time>
      </trkpt>
      <trkpt lat="44.08885" lon="6.85423">
        <ele>793.79998779297</ele>
        <time>2020-09-05T08:10:27.000Z</time>
      </trkpt>
      <trkpt lat="44.08885" lon="6.85423">
        <ele>793.79998779297</ele>
        <time>2020-09-05T08:10:38.000Z</time>
      </trkpt>
      <trkpt lat="44.08886" lon="6.85423">
        <ele>793.79998779297</ele>
        <time>2020-09-05T08:10:43.000Z</time>
      </trkpt>
      <trkpt lat="44.08886" lon="6.85423">
        <ele>793.79998779297</ele>
        <time>2020-09-05T08:10:49.000Z</time>
      </trkpt>
      <trkpt lat="44.08886" lon="6.85423">
        <ele>794.40002441406</ele>
        <time>2020-09-05T08:10:58.000Z</time>
      </trkpt>
      <trkpt lat="44.08886" lon="6.85424">
        <ele>794.20001220703</ele>
        <time>2020-09-05T08:11:03.000Z</time>
      </trkpt>
      <trkpt lat="44.08884" lon="6.85422">
        <ele>794.40002441406</ele>
        <time>2020-09-05T08:11:10.000Z</time>
      </trkpt>
      <trkpt lat="44.08885" lon="6.85421">
        <ele>794.40002441406</ele>
        <time>2020-09-05T08:11:20.000Z</time>
      </trkpt>
      <trkpt lat="44.08885" lon="6.85421">
        <ele>794.40002441406</ele>
        <time>2020-09-05T08:11:29.000Z</time>
      </trkpt>
      <trkpt lat="44.08883" lon="6.85423">
        <ele>794.40002441406</ele>
        <time>2020-09-05T08:11:35.000Z</time>
      </trkpt>
      <trkpt lat="44.08883" lon="6.85424">
        <ele>794.40002441406</ele>
        <time>2020-09-05T08:11:36.000Z</time>
      </trkpt>
      <trkpt lat="44.08883" lon="6.85424">
        <ele>794.40002441406</ele>
        <time>2020-09-05T08:11:40.000Z</time>
      </trkpt>
      <trkpt lat="44.08883" lon="6.85422">
        <ele>794.59997558594</ele>
        <time>2020-09-05T08:11:45.000Z</time>
      </trkpt>
      <trkpt lat="44.08884" lon="6.85424">
        <ele>794.59997558594</ele>
        <time>2020-09-05T08:11:50.000Z</time>
      </trkpt>
      <trkpt lat="44.08887" lon="6.85428">
        <ele>794.59997558594</ele>
        <time>2020-09-05T08:11:54.000Z</time>
      </trkpt>
      <trkpt lat="44.08898" lon="6.85445">
        <ele>795.20001220703</ele>
        <time>2020-09-05T08:12:01.000Z</time>
      </trkpt>
      <trkpt lat="44.08908" lon="6.85461">
        <ele>795.59997558594</ele>
        <time>2020-09-05T08:12:07.000Z</time>
      </trkpt>
      <trkpt lat="44.08909" lon="6.85463">
        <ele>795.59997558594</ele>
        <time>2020-09-05T08:12:08.000Z</time>
      </trkpt>
      <trkpt lat="44.0891" lon="6.85465">
        <ele>795.79998779297</ele>
        <time>2020-09-05T08:12:10.000Z</time>
      </trkpt>
      <trkpt lat="44.0891" lon="6.85465">
        <ele>795.79998779297</ele>
        <time>2020-09-05T08:12:12.000Z</time>
      </trkpt>
      <trkpt lat="44.0891" lon="6.85465">
        <ele>795.59997558594</ele>
        <time>2020-09-05T08:12:20.000Z</time>
      </trkpt>
      <trkpt lat="44.0891" lon="6.85464">
        <ele>795.59997558594</ele>
        <time>2020-09-05T08:12:35.000Z</time>
      </trkpt>
      <trkpt lat="44.0891" lon="6.85465">
        <ele>795.59997558594</ele>
        <time>2020-09-05T08:12:41.000Z</time>
      </trkpt>
      <trkpt lat="44.08909" lon="6.85466">
        <ele>795.59997558594</ele>
        <time>2020-09-05T08:12:52.000Z</time>
      </trkpt>
      <trkpt lat="44.08909" lon="6.85466">
        <ele>795.20001220703</ele>
        <time>2020-09-05T08:13:06.000Z</time>
      </trkpt>
      <trkpt lat="44.08909" lon="6.85466">
        <ele>795.40002441406</ele>
        <time>2020-09-05T08:13:16.000Z</time>
      </trkpt>
      <trkpt lat="44.08906" lon="6.85471">
        <ele>795.20001220703</ele>
        <time>2020-09-05T08:13:35.000Z</time>
      </trkpt>
      <trkpt lat="44.08904" lon="6.85479">
        <ele>795.40002441406</ele>
        <time>2020-09-05T08:13:53.000Z</time>
      </trkpt>
      <trkpt lat="44.08903" lon="6.85481">
        <ele>795.20001220703</ele>
        <time>2020-09-05T08:14:08.000Z</time>
      </trkpt>
      <trkpt lat="44.08903" lon="6.85482">
        <ele>795.40002441406</ele>
        <time>2020-09-05T08:14:14.000Z</time>
      </trkpt>
      <trkpt lat="44.08903" lon="6.8548">
        <ele>795.59997558594</ele>
        <time>2020-09-05T08:14:22.000Z</time>
      </trkpt>
      <trkpt lat="44.08902" lon="6.85479">
        <ele>795.59997558594</ele>
        <time>2020-09-05T08:14:34.000Z</time>
      </trkpt>
      <trkpt lat="44.08903" lon="6.85479">
        <ele>795.59997558594</ele>
        <time>2020-09-05T08:14:44.000Z</time>
      </trkpt>
      <trkpt lat="44.08903" lon="6.85478">
        <ele>795.59997558594</ele>
        <time>2020-09-05T08:14:52.000Z</time>
      </trkpt>
      <trkpt lat="44.08904" lon="6.85475">
        <ele>795.79998779297</ele>
        <time>2020-09-05T08:15:02.000Z</time>
      </trkpt>
      <trkpt lat="44.08904" lon="6.85473">
        <ele>795.79998779297</ele>
        <time>2020-09-05T08:15:10.000Z</time>
      </trkpt>
      <trkpt lat="44.08905" lon="6.8547">
        <ele>795.79998779297</ele>
        <time>2020-09-05T08:15:35.000Z</time>
      </trkpt>
      <trkpt lat="44.08905" lon="6.85469">
        <ele>795.79998779297</ele>
        <time>2020-09-05T08:15:46.000Z</time>
      </trkpt>
      <trkpt lat="44.08905" lon="6.85468">
        <ele>796</ele>
        <time>2020-09-05T08:16:02.000Z</time>
      </trkpt>
      <trkpt lat="44.08905" lon="6.85468">
        <ele>795.79998779297</ele>
        <time>2020-09-05T08:16:22.000Z</time>
      </trkpt>
      <trkpt lat="44.08905" lon="6.85468">
        <ele>795.40002441406</ele>
        <time>2020-09-05T08:16:34.000Z</time>
      </trkpt>
      <trkpt lat="44.08906" lon="6.85468">
        <ele>795.40002441406</ele>
        <time>2020-09-05T08:16:39.000Z</time>
      </trkpt>
      <trkpt lat="44.08907" lon="6.85468">
        <ele>795.79998779297</ele>
        <time>2020-09-05T08:16:47.000Z</time>
      </trkpt>
      <trkpt lat="44.08907" lon="6.85467">
        <ele>795.79998779297</ele>
        <time>2020-09-05T08:17:01.000Z</time>
      </trkpt>
      <trkpt lat="44.08908" lon="6.85466">
        <ele>796</ele>
        <time>2020-09-05T08:17:11.000Z</time>
      </trkpt>
      <trkpt lat="44.08909" lon="6.85465">
        <ele>796</ele>
        <time>2020-09-05T08:17:20.000Z</time>
      </trkpt>
      <trkpt lat="44.0891" lon="6.85466">
        <ele>796</ele>
        <time>2020-09-05T08:17:26.000Z</time>
      </trkpt>
      <trkpt lat="44.08909" lon="6.85457">
        <ele>796.20001220703</ele>
        <time>2020-09-05T08:17:32.000Z</time>
      </trkpt>
      <trkpt lat="44.0891" lon="6.8544">
        <ele>796</ele>
        <time>2020-09-05T08:17:39.000Z</time>
      </trkpt>
      <trkpt lat="44.08908" lon="6.85432">
        <ele>796</ele>
        <time>2020-09-05T08:17:45.000Z</time>
      </trkpt>
      <trkpt lat="44.08901" lon="6.85423">
        <ele>795.59997558594</ele>
        <time>2020-09-05T08:17:52.000Z</time>
      </trkpt>
      <trkpt lat="44.08896" lon="6.8541">
        <ele>794.79998779297</ele>
        <time>2020-09-05T08:17:59.000Z</time>
      </trkpt>
      <trkpt lat="44.08894" lon="6.85395">
        <ele>794.40002441406</ele>
        <time>2020-09-05T08:18:04.000Z</time>
      </trkpt>
      <trkpt lat="44.08894" lon="6.85391">
        <ele>794.40002441406</ele>
        <time>2020-09-05T08:18:05.000Z</time>
      </trkpt>
      <trkpt lat="44.08898" lon="6.85377">
        <ele>793.59997558594</ele>
        <time>2020-09-05T08:18:10.000Z</time>
      </trkpt>
      <trkpt lat="44.089" lon="6.85376">
        <ele>793.40002441406</ele>
        <time>2020-09-05T08:18:11.000Z</time>
      </trkpt>
      <trkpt lat="44.08912" lon="6.85369">
        <ele>793</ele>
        <time>2020-09-05T08:18:15.000Z</time>
      </trkpt>
      <trkpt lat="44.08915" lon="6.85367">
        <ele>792.79998779297</ele>
        <time>2020-09-05T08:18:16.000Z</time>
      </trkpt>
      <trkpt lat="44.0893" lon="6.85364">
        <ele>792.40002441406</ele>
        <time>2020-09-05T08:18:20.000Z</time>
      </trkpt>
      <trkpt lat="44.08936" lon="6.85363">
        <ele>792</ele>
        <time>2020-09-05T08:18:22.000Z</time>
      </trkpt>
      <trkpt lat="44.08958" lon="6.8536">
        <ele>791.40002441406</ele>
        <time>2020-09-05T08:18:28.000Z</time>
      </trkpt>
      <trkpt lat="44.08966" lon="6.8536">
        <ele>791.20001220703</ele>
        <time>2020-09-05T08:18:30.000Z</time>
      </trkpt>
      <trkpt lat="44.08983" lon="6.85353">
        <ele>791</ele>
        <time>2020-09-05T08:18:35.000Z</time>
      </trkpt>
      <trkpt lat="44.09009" lon="6.85347">
        <ele>790.20001220703</ele>
        <time>2020-09-05T08:18:42.000Z</time>
      </trkpt>
      <trkpt lat="44.09033" lon="6.85338">
        <ele>790.20001220703</ele>
        <time>2020-09-05T08:18:49.000Z</time>
      </trkpt>
      <trkpt lat="44.09048" lon="6.85327">
        <ele>790.59997558594</ele>
        <time>2020-09-05T08:18:55.000Z</time>
      </trkpt>
      <trkpt lat="44.09064" lon="6.85318">
        <ele>791.40002441406</ele>
        <time>2020-09-05T08:19:01.000Z</time>
      </trkpt>
      <trkpt lat="44.0907" lon="6.85315">
        <ele>791.40002441406</ele>
        <time>2020-09-05T08:19:03.000Z</time>
      </trkpt>
      <trkpt lat="44.09098" lon="6.85301">
        <ele>792</ele>
        <time>2020-09-05T08:19:13.000Z</time>
      </trkpt>
      <trkpt lat="44.09114" lon="6.85292">
        <ele>792.40002441406</ele>
        <time>2020-09-05T08:19:20.000Z</time>
      </trkpt>
      <trkpt lat="44.09116" lon="6.85291">
        <ele>792.40002441406</ele>
        <time>2020-09-05T08:19:21.000Z</time>
      </trkpt>
      <trkpt lat="44.09126" lon="6.85286">
        <ele>792.59997558594</ele>
        <time>2020-09-05T08:19:27.000Z</time>
      </trkpt>
      <trkpt lat="44.09125" lon="6.85286">
        <ele>792.59997558594</ele>
        <time>2020-09-05T08:19:28.000Z</time>
      </trkpt>
      <trkpt lat="44.09126" lon="6.85286">
        <ele>792.79998779297</ele>
        <time>2020-09-05T08:19:34.000Z</time>
      </trkpt>
      <trkpt lat="44.09125" lon="6.85285">
        <ele>792.79998779297</ele>
        <time>2020-09-05T08:19:43.000Z</time>
      </trkpt>
      <trkpt lat="44.09126" lon="6.85284">
        <ele>792.79998779297</ele>
        <time>2020-09-05T08:19:45.000Z</time>
      </trkpt>
      <trkpt lat="44.09129" lon="6.85281">
        <ele>792.59997558594</ele>
        <time>2020-09-05T08:19:47.000Z</time>
      </trkpt>
      <trkpt lat="44.09142" lon="6.85274">
        <ele>793.20001220703</ele>
        <time>2020-09-05T08:19:52.000Z</time>
      </trkpt>
      <trkpt lat="44.09153" lon="6.85269">
        <ele>793.40002441406</ele>
        <time>2020-09-05T08:19:55.000Z</time>
      </trkpt>
      <trkpt lat="44.09163" lon="6.85263">
        <ele>793.59997558594</ele>
        <time>2020-09-05T08:19:58.000Z</time>
      </trkpt>
      <trkpt lat="44.09194" lon="6.85248">
        <ele>794.40002441406</ele>
        <time>2020-09-05T08:20:06.000Z</time>
      </trkpt>
      <trkpt lat="44.09228" lon="6.85231">
        <ele>795.59997558594</ele>
        <time>2020-09-05T08:20:15.000Z</time>
      </trkpt>
      <trkpt lat="44.09243" lon="6.85226">
        <ele>796.20001220703</ele>
        <time>2020-09-05T08:20:19.000Z</time>
      </trkpt>
      <trkpt lat="44.09253" lon="6.85224">
        <ele>796.59997558594</ele>
        <time>2020-09-05T08:20:22.000Z</time>
      </trkpt>
      <trkpt lat="44.09263" lon="6.85227">
        <ele>797.20001220703</ele>
        <time>2020-09-05T08:20:25.000Z</time>
      </trkpt>
      <trkpt lat="44.09269" lon="6.85229">
        <ele>797.79998779297</ele>
        <time>2020-09-05T08:20:27.000Z</time>
      </trkpt>
      <trkpt lat="44.09282" lon="6.85238">
        <ele>798.79998779297</ele>
        <time>2020-09-05T08:20:32.000Z</time>
      </trkpt>
      <trkpt lat="44.09301" lon="6.85248">
        <ele>799.79998779297</ele>
        <time>2020-09-05T08:20:38.000Z</time>
      </trkpt>
      <trkpt lat="44.0931" lon="6.85253">
        <ele>800.40002441406</ele>
        <time>2020-09-05T08:20:41.000Z</time>
      </trkpt>
      <trkpt lat="44.0932" lon="6.85256">
        <ele>800.79998779297</ele>
        <time>2020-09-05T08:20:44.000Z</time>
      </trkpt>
      <trkpt lat="44.0933" lon="6.85256">
        <ele>801.40002441406</ele>
        <time>2020-09-05T08:20:47.000Z</time>
      </trkpt>
      <trkpt lat="44.09341" lon="6.85254">
        <ele>802</ele>
        <time>2020-09-05T08:20:50.000Z</time>
      </trkpt>
      <trkpt lat="44.09357" lon="6.8525">
        <ele>803.20001220703</ele>
        <time>2020-09-05T08:20:55.000Z</time>
      </trkpt>
      <trkpt lat="44.09372" lon="6.85238">
        <ele>804.20001220703</ele>
        <time>2020-09-05T08:21:01.000Z</time>
      </trkpt>
      <trkpt lat="44.09376" lon="6.85219">
        <ele>804.59997558594</ele>
        <time>2020-09-05T08:21:05.000Z</time>
      </trkpt>
      <trkpt lat="44.09379" lon="6.85189">
        <ele>804.59997558594</ele>
        <time>2020-09-05T08:21:11.000Z</time>
      </trkpt>
      <trkpt lat="44.09386" lon="6.85167">
        <ele>805.20001220703</ele>
        <time>2020-09-05T08:21:16.000Z</time>
      </trkpt>
      <trkpt lat="44.09389" lon="6.85157">
        <ele>805.59997558594</ele>
        <time>2020-09-05T08:21:18.000Z</time>
      </trkpt>
      <trkpt lat="44.09395" lon="6.85142">
        <ele>806.40002441406</ele>
        <time>2020-09-05T08:21:22.000Z</time>
      </trkpt>
      <trkpt lat="44.09399" lon="6.85136">
        <ele>806.79998779297</ele>
        <time>2020-09-05T08:21:24.000Z</time>
      </trkpt>
      <trkpt lat="44.09409" lon="6.85127">
        <ele>807.59997558594</ele>
        <time>2020-09-05T08:21:28.000Z</time>
      </trkpt>
      <trkpt lat="44.09413" lon="6.85121">
        <ele>808</ele>
        <time>2020-09-05T08:21:30.000Z</time>
      </trkpt>
      <trkpt lat="44.0942" lon="6.85112">
        <ele>808.59997558594</ele>
        <time>2020-09-05T08:21:33.000Z</time>
      </trkpt>
      <trkpt lat="44.09429" lon="6.85098">
        <ele>809.40002441406</ele>
        <time>2020-09-05T08:21:37.000Z</time>
      </trkpt>
      <trkpt lat="44.09433" lon="6.85092">
        <ele>809.79998779297</ele>
        <time>2020-09-05T08:21:39.000Z</time>
      </trkpt>
      <trkpt lat="44.09445" lon="6.85072">
        <ele>811</ele>
        <time>2020-09-05T08:21:45.000Z</time>
      </trkpt>
      <trkpt lat="44.09449" lon="6.85066">
        <ele>811.40002441406</ele>
        <time>2020-09-05T08:21:47.000Z</time>
      </trkpt>
      <trkpt lat="44.09454" lon="6.85056">
        <ele>812</ele>
        <time>2020-09-05T08:21:50.000Z</time>
      </trkpt>
      <trkpt lat="44.09466" lon="6.85037">
        <ele>813.20001220703</ele>
        <time>2020-09-05T08:21:56.000Z</time>
      </trkpt>
      <trkpt lat="44.09479" lon="6.8502">
        <ele>814.20001220703</ele>
        <time>2020-09-05T08:22:02.000Z</time>
      </trkpt>
      <trkpt lat="44.09483" lon="6.85014">
        <ele>814.59997558594</ele>
        <time>2020-09-05T08:22:04.000Z</time>
      </trkpt>
      <trkpt lat="44.09484" lon="6.84999">
        <ele>815.40002441406</ele>
        <time>2020-09-05T08:22:08.000Z</time>
      </trkpt>
      <trkpt lat="44.09476" lon="6.84996">
        <ele>815.79998779297</ele>
        <time>2020-09-05T08:22:11.000Z</time>
      </trkpt>
      <trkpt lat="44.09471" lon="6.84999">
        <ele>816.20001220703</ele>
        <time>2020-09-05T08:22:13.000Z</time>
      </trkpt>
      <trkpt lat="44.09469" lon="6.85001">
        <ele>816.40002441406</ele>
        <time>2020-09-05T08:22:14.000Z</time>
      </trkpt>
      <trkpt lat="44.09465" lon="6.85003">
        <ele>816.79998779297</ele>
        <time>2020-09-05T08:22:16.000Z</time>
      </trkpt>
      <trkpt lat="44.09456" lon="6.85009">
        <ele>817.40002441406</ele>
        <time>2020-09-05T08:22:21.000Z</time>
      </trkpt>
      <trkpt lat="44.09449" lon="6.85012">
        <ele>817.79998779297</ele>
        <time>2020-09-05T08:22:24.000Z</time>
      </trkpt>
      <trkpt lat="44.09437" lon="6.85014">
        <ele>818.40002441406</ele>
        <time>2020-09-05T08:22:29.000Z</time>
      </trkpt>
      <trkpt lat="44.0943" lon="6.85014">
        <ele>819</ele>
        <time>2020-09-05T08:22:32.000Z</time>
      </trkpt>
      <trkpt lat="44.09422" lon="6.85012">
        <ele>819.59997558594</ele>
        <time>2020-09-05T08:22:35.000Z</time>
      </trkpt>
      <trkpt lat="44.09408" lon="6.85007">
        <ele>820.59997558594</ele>
        <time>2020-09-05T08:22:41.000Z</time>
      </trkpt>
      <trkpt lat="44.09406" lon="6.85005">
        <ele>820.79998779297</ele>
        <time>2020-09-05T08:22:42.000Z</time>
      </trkpt>
      <trkpt lat="44.094" lon="6.84999">
        <ele>821.40002441406</ele>
        <time>2020-09-05T08:22:47.000Z</time>
      </trkpt>
      <trkpt lat="44.09399" lon="6.84998">
        <ele>821.79998779297</ele>
        <time>2020-09-05T08:22:50.000Z</time>
      </trkpt>
      <trkpt lat="44.09396" lon="6.84999">
        <ele>822</ele>
        <time>2020-09-05T08:22:53.000Z</time>
      </trkpt>
      <trkpt lat="44.09393" lon="6.84998">
        <ele>822.20001220703</ele>
        <time>2020-09-05T08:23:00.000Z</time>
      </trkpt>
      <trkpt lat="44.09393" lon="6.84998">
        <ele>822.40002441406</ele>
        <time>2020-09-05T08:23:10.000Z</time>
      </trkpt>
      <trkpt lat="44.09393" lon="6.84997">
        <ele>822.40002441406</ele>
        <time>2020-09-05T08:23:14.000Z</time>
      </trkpt>
      <trkpt lat="44.09388" lon="6.84993">
        <ele>822.40002441406</ele>
        <time>2020-09-05T08:23:17.000Z</time>
      </trkpt>
      <trkpt lat="44.09378" lon="6.84988">
        <ele>822.79998779297</ele>
        <time>2020-09-05T08:23:20.000Z</time>
      </trkpt>
      <trkpt lat="44.09368" lon="6.84983">
        <ele>823.40002441406</ele>
        <time>2020-09-05T08:23:23.000Z</time>
      </trkpt>
      <trkpt lat="44.09362" lon="6.84979">
        <ele>823.79998779297</ele>
        <time>2020-09-05T08:23:25.000Z</time>
      </trkpt>
      <trkpt lat="44.09346" lon="6.84969">
        <ele>825.20001220703</ele>
        <time>2020-09-05T08:23:30.000Z</time>
      </trkpt>
      <trkpt lat="44.09344" lon="6.84968">
        <ele>825.20001220703</ele>
        <time>2020-09-05T08:23:31.000Z</time>
      </trkpt>
      <trkpt lat="44.09334" lon="6.84961">
        <ele>826.20001220703</ele>
        <time>2020-09-05T08:23:35.000Z</time>
      </trkpt>
      <trkpt lat="44.09325" lon="6.84956">
        <ele>826.79998779297</ele>
        <time>2020-09-05T08:23:38.000Z</time>
      </trkpt>
      <trkpt lat="44.09318" lon="6.8495">
        <ele>827.20001220703</ele>
        <time>2020-09-05T08:23:41.000Z</time>
      </trkpt>
      <trkpt lat="44.09308" lon="6.84943">
        <ele>828.20001220703</ele>
        <time>2020-09-05T08:23:45.000Z</time>
      </trkpt>
      <trkpt lat="44.09293" lon="6.84933">
        <ele>829.40002441406</ele>
        <time>2020-09-05T08:23:50.000Z</time>
      </trkpt>
      <trkpt lat="44.09288" lon="6.84929">
        <ele>829.79998779297</ele>
        <time>2020-09-05T08:23:52.000Z</time>
      </trkpt>
      <trkpt lat="44.09275" lon="6.84924">
        <ele>830.40002441406</ele>
        <time>2020-09-05T08:23:56.000Z</time>
      </trkpt>
      <trkpt lat="44.09251" lon="6.8492">
        <ele>831.59997558594</ele>
        <time>2020-09-05T08:24:03.000Z</time>
      </trkpt>
      <trkpt lat="44.09219" lon="6.84914">
        <ele>832.59997558594</ele>
        <time>2020-09-05T08:24:12.000Z</time>
      </trkpt>
      <trkpt lat="44.09194" lon="6.84915">
        <ele>833.79998779297</ele>
        <time>2020-09-05T08:24:19.000Z</time>
      </trkpt>
      <trkpt lat="44.09191" lon="6.84915">
        <ele>834</ele>
        <time>2020-09-05T08:24:20.000Z</time>
      </trkpt>
      <trkpt lat="44.0918" lon="6.84914">
        <ele>835</ele>
        <time>2020-09-05T08:24:25.000Z</time>
      </trkpt>
      <trkpt lat="44.09179" lon="6.84913">
        <ele>835.40002441406</ele>
        <time>2020-09-05T08:24:29.000Z</time>
      </trkpt>
      <trkpt lat="44.09179" lon="6.84913">
        <ele>835.20001220703</ele>
        <time>2020-09-05T08:24:42.000Z</time>
      </trkpt>
      <trkpt lat="44.0918" lon="6.84914">
        <ele>835.20001220703</ele>
        <time>2020-09-05T08:24:49.000Z</time>
      </trkpt>
      <trkpt lat="44.09179" lon="6.84915">
        <ele>835.40002441406</ele>
        <time>2020-09-05T08:24:59.000Z</time>
      </trkpt>
      <trkpt lat="44.09177" lon="6.84921">
        <ele>835.79998779297</ele>
        <time>2020-09-05T08:25:05.000Z</time>
      </trkpt>
      <trkpt lat="44.0918" lon="6.8492">
        <ele>835.79998779297</ele>
        <time>2020-09-05T08:25:09.000Z</time>
      </trkpt>
      <trkpt lat="44.09181" lon="6.84916">
        <ele>835.79998779297</ele>
        <time>2020-09-05T08:25:11.000Z</time>
      </trkpt>
      <trkpt lat="44.09175" lon="6.84912">
        <ele>835.59997558594</ele>
        <time>2020-09-05T08:25:14.000Z</time>
      </trkpt>
      <trkpt lat="44.09168" lon="6.84913">
        <ele>836.20001220703</ele>
        <time>2020-09-05T08:25:17.000Z</time>
      </trkpt>
      <trkpt lat="44.09166" lon="6.84913">
        <ele>836.59997558594</ele>
        <time>2020-09-05T08:25:18.000Z</time>
      </trkpt>
      <trkpt lat="44.09164" lon="6.84913">
        <ele>837</ele>
        <time>2020-09-05T08:25:19.000Z</time>
      </trkpt>
      <trkpt lat="44.09163" lon="6.84913">
        <ele>837.59997558594</ele>
        <time>2020-09-05T08:25:20.000Z</time>
      </trkpt>
      <trkpt lat="44.09161" lon="6.84913">
        <ele>838</ele>
        <time>2020-09-05T08:25:21.000Z</time>
      </trkpt>
      <trkpt lat="44.0916" lon="6.84915">
        <ele>838.59997558594</ele>
        <time>2020-09-05T08:25:22.000Z</time>
      </trkpt>
      <trkpt lat="44.09155" lon="6.84917">
        <ele>839.79998779297</ele>
        <time>2020-09-05T08:25:24.000Z</time>
      </trkpt>
      <trkpt lat="44.09149" lon="6.84915">
        <ele>841</ele>
        <time>2020-09-05T08:25:27.000Z</time>
      </trkpt>
      <trkpt lat="44.09145" lon="6.84916">
        <ele>841.59997558594</ele>
        <time>2020-09-05T08:25:29.000Z</time>
      </trkpt>
      <trkpt lat="44.09143" lon="6.84916">
        <ele>842.20001220703</ele>
        <time>2020-09-05T08:25:31.000Z</time>
      </trkpt>
      <trkpt lat="44.09135" lon="6.84921">
        <ele>843.40002441406</ele>
        <time>2020-09-05T08:25:36.000Z</time>
      </trkpt>
      <trkpt lat="44.09128" lon="6.84923">
        <ele>844.59997558594</ele>
        <time>2020-09-05T08:25:40.000Z</time>
      </trkpt>
      <trkpt lat="44.09127" lon="6.84923">
        <ele>844.79998779297</ele>
        <time>2020-09-05T08:25:41.000Z</time>
      </trkpt>
      <trkpt lat="44.09124" lon="6.84923">
        <ele>845.79998779297</ele>
        <time>2020-09-05T08:25:44.000Z</time>
      </trkpt>
      <trkpt lat="44.09119" lon="6.84924">
        <ele>846.59997558594</ele>
        <time>2020-09-05T08:25:47.000Z</time>
      </trkpt>
      <trkpt lat="44.09117" lon="6.84924">
        <ele>847</ele>
        <time>2020-09-05T08:25:48.000Z</time>
      </trkpt>
      <trkpt lat="44.09112" lon="6.84924">
        <ele>848.20001220703</ele>
        <time>2020-09-05T08:25:52.000Z</time>
      </trkpt>
      <trkpt lat="44.0911" lon="6.84923">
        <ele>848.59997558594</ele>
        <time>2020-09-05T08:25:53.000Z</time>
      </trkpt>
      <trkpt lat="44.09106" lon="6.84923">
        <ele>849.40002441406</ele>
        <time>2020-09-05T08:25:56.000Z</time>
      </trkpt>
      <trkpt lat="44.09104" lon="6.84924">
        <ele>850.20001220703</ele>
        <time>2020-09-05T08:25:58.000Z</time>
      </trkpt>
      <trkpt lat="44.09102" lon="6.84924">
        <ele>850.59997558594</ele>
        <time>2020-09-05T08:25:59.000Z</time>
      </trkpt>
      <trkpt lat="44.09097" lon="6.84924">
        <ele>851.40002441406</ele>
        <time>2020-09-05T08:26:02.000Z</time>
      </trkpt>
      <trkpt lat="44.09095" lon="6.84924">
        <ele>851.59997558594</ele>
        <time>2020-09-05T08:26:03.000Z</time>
      </trkpt>
      <trkpt lat="44.09094" lon="6.84926">
        <ele>851.79998779297</ele>
        <time>2020-09-05T08:26:04.000Z</time>
      </trkpt>
      <trkpt lat="44.09091" lon="6.84928">
        <ele>852.20001220703</ele>
        <time>2020-09-05T08:26:06.000Z</time>
      </trkpt>
      <trkpt lat="44.09087" lon="6.84929">
        <ele>852.59997558594</ele>
        <time>2020-09-05T08:26:08.000Z</time>
      </trkpt>
      <trkpt lat="44.09081" lon="6.8493">
        <ele>853</ele>
        <time>2020-09-05T08:26:11.000Z</time>
      </trkpt>
      <trkpt lat="44.09075" lon="6.84931">
        <ele>853.79998779297</ele>
        <time>2020-09-05T08:26:15.000Z</time>
      </trkpt>
      <trkpt lat="44.09073" lon="6.84932">
        <ele>854</ele>
        <time>2020-09-05T08:26:16.000Z</time>
      </trkpt>
      <trkpt lat="44.09067" lon="6.84932">
        <ele>854.79998779297</ele>
        <time>2020-09-05T08:26:19.000Z</time>
      </trkpt>
      <trkpt lat="44.09066" lon="6.84932">
        <ele>855</ele>
        <time>2020-09-05T08:26:20.000Z</time>
      </trkpt>
      <trkpt lat="44.09064" lon="6.84933">
        <ele>855.40002441406</ele>
        <time>2020-09-05T08:26:21.000Z</time>
      </trkpt>
      <trkpt lat="44.09059" lon="6.84933">
        <ele>856</ele>
        <time>2020-09-05T08:26:24.000Z</time>
      </trkpt>
      <trkpt lat="44.09056" lon="6.84935">
        <ele>856.59997558594</ele>
        <time>2020-09-05T08:26:26.000Z</time>
      </trkpt>
      <trkpt lat="44.09054" lon="6.84937">
        <ele>857</ele>
        <time>2020-09-05T08:26:28.000Z</time>
      </trkpt>
      <trkpt lat="44.09051" lon="6.84937">
        <ele>857.40002441406</ele>
        <time>2020-09-05T08:26:29.000Z</time>
      </trkpt>
      <trkpt lat="44.09047" lon="6.84938">
        <ele>858</ele>
        <time>2020-09-05T08:26:31.000Z</time>
      </trkpt>
      <trkpt lat="44.09043" lon="6.84941">
        <ele>858.59997558594</ele>
        <time>2020-09-05T08:26:33.000Z</time>
      </trkpt>
      <trkpt lat="44.0904" lon="6.84945">
        <ele>859.40002441406</ele>
        <time>2020-09-05T08:26:36.000Z</time>
      </trkpt>
      <trkpt lat="44.09038" lon="6.84947">
        <ele>859.59997558594</ele>
        <time>2020-09-05T08:26:37.000Z</time>
      </trkpt>
      <trkpt lat="44.09034" lon="6.8495">
        <ele>860.59997558594</ele>
        <time>2020-09-05T08:26:40.000Z</time>
      </trkpt>
      <trkpt lat="44.09032" lon="6.8495">
        <ele>860.79998779297</ele>
        <time>2020-09-05T08:26:41.000Z</time>
      </trkpt>
      <trkpt lat="44.09027" lon="6.8495">
        <ele>862</ele>
        <time>2020-09-05T08:26:44.000Z</time>
      </trkpt>
      <trkpt lat="44.09022" lon="6.84951">
        <ele>863.20001220703</ele>
        <time>2020-09-05T08:26:47.000Z</time>
      </trkpt>
      <trkpt lat="44.09017" lon="6.84954">
        <ele>864.40002441406</ele>
        <time>2020-09-05T08:26:50.000Z</time>
      </trkpt>
      <trkpt lat="44.09013" lon="6.84955">
        <ele>865.59997558594</ele>
        <time>2020-09-05T08:26:53.000Z</time>
      </trkpt>
      <trkpt lat="44.09009" lon="6.84955">
        <ele>866.59997558594</ele>
        <time>2020-09-05T08:26:56.000Z</time>
      </trkpt>
      <trkpt lat="44.09008" lon="6.84954">
        <ele>867</ele>
        <time>2020-09-05T08:26:57.000Z</time>
      </trkpt>
      <trkpt lat="44.09008" lon="6.84951">
        <ele>867.79998779297</ele>
        <time>2020-09-05T08:26:59.000Z</time>
      </trkpt>
      <trkpt lat="44.09009" lon="6.84951">
        <ele>868</ele>
        <time>2020-09-05T08:27:00.000Z</time>
      </trkpt>
      <trkpt lat="44.0901" lon="6.8495">
        <ele>868.20001220703</ele>
        <time>2020-09-05T08:27:01.000Z</time>
      </trkpt>
      <trkpt lat="44.09017" lon="6.84942">
        <ele>868.79998779297</ele>
        <time>2020-09-05T08:27:07.000Z</time>
      </trkpt>
      <trkpt lat="44.09023" lon="6.8493">
        <ele>869.59997558594</ele>
        <time>2020-09-05T08:27:14.000Z</time>
      </trkpt>
      <trkpt lat="44.09025" lon="6.84926">
        <ele>870</ele>
        <time>2020-09-05T08:27:16.000Z</time>
      </trkpt>
      <trkpt lat="44.09029" lon="6.84918">
        <ele>870.40002441406</ele>
        <time>2020-09-05T08:27:21.000Z</time>
      </trkpt>
      <trkpt lat="44.09032" lon="6.8491">
        <ele>871</ele>
        <time>2020-09-05T08:27:25.000Z</time>
      </trkpt>
      <trkpt lat="44.09034" lon="6.84908">
        <ele>871.40002441406</ele>
        <time>2020-09-05T08:27:27.000Z</time>
      </trkpt>
      <trkpt lat="44.09034" lon="6.84907">
        <ele>872.20001220703</ele>
        <time>2020-09-05T08:27:29.000Z</time>
      </trkpt>
      <trkpt lat="44.09034" lon="6.84906">
        <ele>873</ele>
        <time>2020-09-05T08:27:32.000Z</time>
      </trkpt>
      <trkpt lat="44.09034" lon="6.84906">
        <ele>873.20001220703</ele>
        <time>2020-09-05T08:27:34.000Z</time>
      </trkpt>
      <trkpt lat="44.09034" lon="6.84905">
        <ele>873.20001220703</ele>
        <time>2020-09-05T08:27:38.000Z</time>
      </trkpt>
      <trkpt lat="44.09037" lon="6.849">
        <ele>873.40002441406</ele>
        <time>2020-09-05T08:27:41.000Z</time>
      </trkpt>
      <trkpt lat="44.09039" lon="6.84898">
        <ele>874</ele>
        <time>2020-09-05T08:27:43.000Z</time>
      </trkpt>
      <trkpt lat="44.0904" lon="6.84897">
        <ele>874.59997558594</ele>
        <time>2020-09-05T08:27:44.000Z</time>
      </trkpt>
      <trkpt lat="44.09044" lon="6.84892">
        <ele>875.79998779297</ele>
        <time>2020-09-05T08:27:47.000Z</time>
      </trkpt>
      <trkpt lat="44.09048" lon="6.84888">
        <ele>877</ele>
        <time>2020-09-05T08:27:50.000Z</time>
      </trkpt>
      <trkpt lat="44.09049" lon="6.84886">
        <ele>877.40002441406</ele>
        <time>2020-09-05T08:27:51.000Z</time>
      </trkpt>
      <trkpt lat="44.09053" lon="6.84882">
        <ele>878.20001220703</ele>
        <time>2020-09-05T08:27:53.000Z</time>
      </trkpt>
      <trkpt lat="44.09059" lon="6.84877">
        <ele>879.40002441406</ele>
        <time>2020-09-05T08:27:57.000Z</time>
      </trkpt>
      <trkpt lat="44.09066" lon="6.84874">
        <ele>880.59997558594</ele>
        <time>2020-09-05T08:28:01.000Z</time>
      </trkpt>
      <trkpt lat="44.09071" lon="6.84871">
        <ele>881.59997558594</ele>
        <time>2020-09-05T08:28:05.000Z</time>
      </trkpt>
      <trkpt lat="44.09077" lon="6.84866">
        <ele>882.59997558594</ele>
        <time>2020-09-05T08:28:09.000Z</time>
      </trkpt>
      <trkpt lat="44.0908" lon="6.84863">
        <ele>883.40002441406</ele>
        <time>2020-09-05T08:28:11.000Z</time>
      </trkpt>
      <trkpt lat="44.09082" lon="6.8486">
        <ele>884</ele>
        <time>2020-09-05T08:28:13.000Z</time>
      </trkpt>
      <trkpt lat="44.09084" lon="6.84858">
        <ele>884.59997558594</ele>
        <time>2020-09-05T08:28:15.000Z</time>
      </trkpt>
      <trkpt lat="44.09085" lon="6.84857">
        <ele>885.20001220703</ele>
        <time>2020-09-05T08:28:17.000Z</time>
      </trkpt>
      <trkpt lat="44.09086" lon="6.84856">
        <ele>885.40002441406</ele>
        <time>2020-09-05T08:28:18.000Z</time>
      </trkpt>
      <trkpt lat="44.09084" lon="6.84853">
        <ele>886</ele>
        <time>2020-09-05T08:28:21.000Z</time>
      </trkpt>
      <trkpt lat="44.09082" lon="6.84852">
        <ele>886.40002441406</ele>
        <time>2020-09-05T08:28:23.000Z</time>
      </trkpt>
      <trkpt lat="44.09082" lon="6.84852">
        <ele>887.20001220703</ele>
        <time>2020-09-05T08:28:26.000Z</time>
      </trkpt>
      <trkpt lat="44.09081" lon="6.84853">
        <ele>887.59997558594</ele>
        <time>2020-09-05T08:28:28.000Z</time>
      </trkpt>
      <trkpt lat="44.09075" lon="6.84853">
        <ele>888</ele>
        <time>2020-09-05T08:28:31.000Z</time>
      </trkpt>
      <trkpt lat="44.09073" lon="6.84853">
        <ele>888.79998779297</ele>
        <time>2020-09-05T08:28:33.000Z</time>
      </trkpt>
      <trkpt lat="44.09069" lon="6.84852">
        <ele>890</ele>
        <time>2020-09-05T08:28:35.000Z</time>
      </trkpt>
      <trkpt lat="44.09068" lon="6.84852">
        <ele>890.59997558594</ele>
        <time>2020-09-05T08:28:36.000Z</time>
      </trkpt>
      <trkpt lat="44.09067" lon="6.84851">
        <ele>891</ele>
        <time>2020-09-05T08:28:37.000Z</time>
      </trkpt>
      <trkpt lat="44.09064" lon="6.8485">
        <ele>892.20001220703</ele>
        <time>2020-09-05T08:28:39.000Z</time>
      </trkpt>
      <trkpt lat="44.09062" lon="6.84851">
        <ele>893.40002441406</ele>
        <time>2020-09-05T08:28:41.000Z</time>
      </trkpt>
      <trkpt lat="44.09062" lon="6.8485">
        <ele>894.79998779297</ele>
        <time>2020-09-05T08:28:44.000Z</time>
      </trkpt>
      <trkpt lat="44.09061" lon="6.8485">
        <ele>895.20001220703</ele>
        <time>2020-09-05T08:28:47.000Z</time>
      </trkpt>
      <trkpt lat="44.0906" lon="6.84849">
        <ele>895.20001220703</ele>
        <time>2020-09-05T08:28:58.000Z</time>
      </trkpt>
      <trkpt lat="44.09058" lon="6.84847">
        <ele>895.79998779297</ele>
        <time>2020-09-05T08:29:05.000Z</time>
      </trkpt>
      <trkpt lat="44.09058" lon="6.84846">
        <ele>895.79998779297</ele>
        <time>2020-09-05T08:29:06.000Z</time>
      </trkpt>
      <trkpt lat="44.0906" lon="6.84843">
        <ele>896.79998779297</ele>
        <time>2020-09-05T08:29:11.000Z</time>
      </trkpt>
      <trkpt lat="44.0906" lon="6.84843">
        <ele>897.20001220703</ele>
        <time>2020-09-05T08:29:12.000Z</time>
      </trkpt>
      <trkpt lat="44.09061" lon="6.84841">
        <ele>898</ele>
        <time>2020-09-05T08:29:16.000Z</time>
      </trkpt>
      <trkpt lat="44.09061" lon="6.84841">
        <ele>898.20001220703</ele>
        <time>2020-09-05T08:29:19.000Z</time>
      </trkpt>
      <trkpt lat="44.09065" lon="6.84834">
        <ele>898.20001220703</ele>
        <time>2020-09-05T08:29:25.000Z</time>
      </trkpt>
      <trkpt lat="44.0907" lon="6.84827">
        <ele>899.20001220703</ele>
        <time>2020-09-05T08:29:30.000Z</time>
      </trkpt>
      <trkpt lat="44.09072" lon="6.84822">
        <ele>900.79998779297</ele>
        <time>2020-09-05T08:29:33.000Z</time>
      </trkpt>
      <trkpt lat="44.09071" lon="6.8482">
        <ele>901.59997558594</ele>
        <time>2020-09-05T08:29:35.000Z</time>
      </trkpt>
      <trkpt lat="44.09069" lon="6.8482">
        <ele>902</ele>
        <time>2020-09-05T08:29:36.000Z</time>
      </trkpt>
      <trkpt lat="44.09063" lon="6.84821">
        <ele>903.20001220703</ele>
        <time>2020-09-05T08:29:39.000Z</time>
      </trkpt>
      <trkpt lat="44.09062" lon="6.84822">
        <ele>904.40002441406</ele>
        <time>2020-09-05T08:29:41.000Z</time>
      </trkpt>
      <trkpt lat="44.09062" lon="6.84822">
        <ele>905.20001220703</ele>
        <time>2020-09-05T08:29:43.000Z</time>
      </trkpt>
      <trkpt lat="44.09062" lon="6.84822">
        <ele>905.59997558594</ele>
        <time>2020-09-05T08:29:45.000Z</time>
      </trkpt>
      <trkpt lat="44.09062" lon="6.84822">
        <ele>906</ele>
        <time>2020-09-05T08:29:49.000Z</time>
      </trkpt>
      <trkpt lat="44.0906" lon="6.84823">
        <ele>906.59997558594</ele>
        <time>2020-09-05T08:29:55.000Z</time>
      </trkpt>
      <trkpt lat="44.09059" lon="6.84824">
        <ele>906.79998779297</ele>
        <time>2020-09-05T08:29:56.000Z</time>
      </trkpt>
      <trkpt lat="44.09057" lon="6.84824">
        <ele>907.59997558594</ele>
        <time>2020-09-05T08:30:00.000Z</time>
      </trkpt>
      <trkpt lat="44.09057" lon="6.84824">
        <ele>907.79998779297</ele>
        <time>2020-09-05T08:30:01.000Z</time>
      </trkpt>
      <trkpt lat="44.09056" lon="6.84822">
        <ele>908</ele>
        <time>2020-09-05T08:30:03.000Z</time>
      </trkpt>
      <trkpt lat="44.09058" lon="6.84819">
        <ele>908</ele>
        <time>2020-09-05T08:30:05.000Z</time>
      </trkpt>
      <trkpt lat="44.09059" lon="6.84817">
        <ele>908.79998779297</ele>
        <time>2020-09-05T08:30:08.000Z</time>
      </trkpt>
      <trkpt lat="44.0906" lon="6.84816">
        <ele>909.20001220703</ele>
        <time>2020-09-05T08:30:09.000Z</time>
      </trkpt>
      <trkpt lat="44.0906" lon="6.84814">
        <ele>910</ele>
        <time>2020-09-05T08:30:11.000Z</time>
      </trkpt>
      <trkpt lat="44.0906" lon="6.84813">
        <ele>911</ele>
        <time>2020-09-05T08:30:14.000Z</time>
      </trkpt>
      <trkpt lat="44.0906" lon="6.84813">
        <ele>911.59997558594</ele>
        <time>2020-09-05T08:30:18.000Z</time>
      </trkpt>
      <trkpt lat="44.09059" lon="6.84813">
        <ele>911.40002441406</ele>
        <time>2020-09-05T08:30:30.000Z</time>
      </trkpt>
      <trkpt lat="44.09059" lon="6.84814">
        <ele>911.40002441406</ele>
        <time>2020-09-05T08:30:40.000Z</time>
      </trkpt>
      <trkpt lat="44.09061" lon="6.84812">
        <ele>911.40002441406</ele>
        <time>2020-09-05T08:30:55.000Z</time>
      </trkpt>
      <trkpt lat="44.09063" lon="6.8481">
        <ele>912</ele>
        <time>2020-09-05T08:30:58.000Z</time>
      </trkpt>
      <trkpt lat="44.09064" lon="6.84806">
        <ele>913.20001220703</ele>
        <time>2020-09-05T08:31:01.000Z</time>
      </trkpt>
      <trkpt lat="44.09063" lon="6.84804">
        <ele>913.79998779297</ele>
        <time>2020-09-05T08:31:03.000Z</time>
      </trkpt>
      <trkpt lat="44.09061" lon="6.84804">
        <ele>914.20001220703</ele>
        <time>2020-09-05T08:31:05.000Z</time>
      </trkpt>
      <trkpt lat="44.0906" lon="6.84804">
        <ele>914.40002441406</ele>
        <time>2020-09-05T08:31:06.000Z</time>
      </trkpt>
      <trkpt lat="44.09056" lon="6.84805">
        <ele>915.59997558594</ele>
        <time>2020-09-05T08:31:09.000Z</time>
      </trkpt>
      <trkpt lat="44.09053" lon="6.84806">
        <ele>917</ele>
        <time>2020-09-05T08:31:12.000Z</time>
      </trkpt>
      <trkpt lat="44.09052" lon="6.84806">
        <ele>918.40002441406</ele>
        <time>2020-09-05T08:31:15.000Z</time>
      </trkpt>
      <trkpt lat="44.09051" lon="6.84807">
        <ele>919.20001220703</ele>
        <time>2020-09-05T08:31:17.000Z</time>
      </trkpt>
      <trkpt lat="44.0905" lon="6.84806">
        <ele>919.40002441406</ele>
        <time>2020-09-05T08:31:19.000Z</time>
      </trkpt>
      <trkpt lat="44.09049" lon="6.84805">
        <ele>919.79998779297</ele>
        <time>2020-09-05T08:31:23.000Z</time>
      </trkpt>
      <trkpt lat="44.0905" lon="6.84803">
        <ele>920.20001220703</ele>
        <time>2020-09-05T08:31:29.000Z</time>
      </trkpt>
      <trkpt lat="44.09051" lon="6.84801">
        <ele>920.20001220703</ele>
        <time>2020-09-05T08:31:30.000Z</time>
      </trkpt>
      <trkpt lat="44.09054" lon="6.84795">
        <ele>920.59997558594</ele>
        <time>2020-09-05T08:31:33.000Z</time>
      </trkpt>
      <trkpt lat="44.09055" lon="6.84793">
        <ele>921</ele>
        <time>2020-09-05T08:31:34.000Z</time>
      </trkpt>
      <trkpt lat="44.09057" lon="6.84789">
        <ele>922</ele>
        <time>2020-09-05T08:31:36.000Z</time>
      </trkpt>
      <trkpt lat="44.09059" lon="6.84786">
        <ele>923.20001220703</ele>
        <time>2020-09-05T08:31:38.000Z</time>
      </trkpt>
      <trkpt lat="44.0906" lon="6.84782">
        <ele>924.40002441406</ele>
        <time>2020-09-05T08:31:40.000Z</time>
      </trkpt>
      <trkpt lat="44.09061" lon="6.84777">
        <ele>925.40002441406</ele>
        <time>2020-09-05T08:31:42.000Z</time>
      </trkpt>
      <trkpt lat="44.09062" lon="6.84771">
        <ele>926.40002441406</ele>
        <time>2020-09-05T08:31:44.000Z</time>
      </trkpt>
      <trkpt lat="44.09069" lon="6.84763">
        <ele>927.59997558594</ele>
        <time>2020-09-05T08:31:48.000Z</time>
      </trkpt>
      <trkpt lat="44.09082" lon="6.84757">
        <ele>928.59997558594</ele>
        <time>2020-09-05T08:31:54.000Z</time>
      </trkpt>
      <trkpt lat="44.09086" lon="6.84753">
        <ele>929</ele>
        <time>2020-09-05T08:31:56.000Z</time>
      </trkpt>
      <trkpt lat="44.09094" lon="6.84747">
        <ele>929.59997558594</ele>
        <time>2020-09-05T08:32:00.000Z</time>
      </trkpt>
      <trkpt lat="44.09097" lon="6.84744">
        <ele>930.40002441406</ele>
        <time>2020-09-05T08:32:04.000Z</time>
      </trkpt>
      <trkpt lat="44.09098" lon="6.84742">
        <ele>930.79998779297</ele>
        <time>2020-09-05T08:32:07.000Z</time>
      </trkpt>
      <trkpt lat="44.09099" lon="6.84739">
        <ele>930.79998779297</ele>
        <time>2020-09-05T08:32:10.000Z</time>
      </trkpt>
      <trkpt lat="44.09099" lon="6.8474">
        <ele>931</ele>
        <time>2020-09-05T08:32:16.000Z</time>
      </trkpt>
      <trkpt lat="44.09099" lon="6.84738">
        <ele>931.20001220703</ele>
        <time>2020-09-05T08:32:26.000Z</time>
      </trkpt>
      <trkpt lat="44.09101" lon="6.84738">
        <ele>931.20001220703</ele>
        <time>2020-09-05T08:32:27.000Z</time>
      </trkpt>
      <trkpt lat="44.09111" lon="6.84729">
        <ele>931.59997558594</ele>
        <time>2020-09-05T08:32:33.000Z</time>
      </trkpt>
      <trkpt lat="44.09113" lon="6.84727">
        <ele>931.79998779297</ele>
        <time>2020-09-05T08:32:34.000Z</time>
      </trkpt>
      <trkpt lat="44.09119" lon="6.84721">
        <ele>932.20001220703</ele>
        <time>2020-09-05T08:32:37.000Z</time>
      </trkpt>
      <trkpt lat="44.09124" lon="6.84717">
        <ele>932.79998779297</ele>
        <time>2020-09-05T08:32:39.000Z</time>
      </trkpt>
      <trkpt lat="44.09126" lon="6.84715">
        <ele>933</ele>
        <time>2020-09-05T08:32:40.000Z</time>
      </trkpt>
      <trkpt lat="44.09137" lon="6.84703">
        <ele>934</ele>
        <time>2020-09-05T08:32:45.000Z</time>
      </trkpt>
      <trkpt lat="44.0914" lon="6.84701">
        <ele>934.40002441406</ele>
        <time>2020-09-05T08:32:46.000Z</time>
      </trkpt>
      <trkpt lat="44.09148" lon="6.84689">
        <ele>935.20001220703</ele>
        <time>2020-09-05T08:32:50.000Z</time>
      </trkpt>
      <trkpt lat="44.09153" lon="6.84678">
        <ele>935.79998779297</ele>
        <time>2020-09-05T08:32:53.000Z</time>
      </trkpt>
      <trkpt lat="44.09156" lon="6.8467">
        <ele>936.20001220703</ele>
        <time>2020-09-05T08:32:55.000Z</time>
      </trkpt>
      <trkpt lat="44.09164" lon="6.84653">
        <ele>937.20001220703</ele>
        <time>2020-09-05T08:33:00.000Z</time>
      </trkpt>
      <trkpt lat="44.09166" lon="6.84651">
        <ele>937.40002441406</ele>
        <time>2020-09-05T08:33:01.000Z</time>
      </trkpt>
      <trkpt lat="44.09175" lon="6.84639">
        <ele>938.20001220703</ele>
        <time>2020-09-05T08:33:05.000Z</time>
      </trkpt>
      <trkpt lat="44.09177" lon="6.84637">
        <ele>938.59997558594</ele>
        <time>2020-09-05T08:33:06.000Z</time>
      </trkpt>
      <trkpt lat="44.09187" lon="6.84628">
        <ele>939.59997558594</ele>
        <time>2020-09-05T08:33:10.000Z</time>
      </trkpt>
      <trkpt lat="44.09189" lon="6.84625">
        <ele>939.79998779297</ele>
        <time>2020-09-05T08:33:11.000Z</time>
      </trkpt>
      <trkpt lat="44.09191" lon="6.84617">
        <ele>940.20001220703</ele>
        <time>2020-09-05T08:33:13.000Z</time>
      </trkpt>
      <trkpt lat="44.09189" lon="6.84613">
        <ele>940.59997558594</ele>
        <time>2020-09-05T08:33:14.000Z</time>
      </trkpt>
      <trkpt lat="44.09181" lon="6.84615">
        <ele>941.20001220703</ele>
        <time>2020-09-05T08:33:17.000Z</time>
      </trkpt>
      <trkpt lat="44.09176" lon="6.84622">
        <ele>941.79998779297</ele>
        <time>2020-09-05T08:33:19.000Z</time>
      </trkpt>
      <trkpt lat="44.0917" lon="6.84628">
        <ele>942.20001220703</ele>
        <time>2020-09-05T08:33:21.000Z</time>
      </trkpt>
      <trkpt lat="44.09167" lon="6.84631">
        <ele>942.40002441406</ele>
        <time>2020-09-05T08:33:22.000Z</time>
      </trkpt>
      <trkpt lat="44.09163" lon="6.84634">
        <ele>942.40002441406</ele>
        <time>2020-09-05T08:33:23.000Z</time>
      </trkpt>
      <trkpt lat="44.09154" lon="6.84643">
        <ele>942.79998779297</ele>
        <time>2020-09-05T08:33:26.000Z</time>
      </trkpt>
      <trkpt lat="44.09143" lon="6.84661">
        <ele>944</ele>
        <time>2020-09-05T08:33:31.000Z</time>
      </trkpt>
      <trkpt lat="44.0914" lon="6.84665">
        <ele>944.20001220703</ele>
        <time>2020-09-05T08:33:32.000Z</time>
      </trkpt>
      <trkpt lat="44.09131" lon="6.84679">
        <ele>945</ele>
        <time>2020-09-05T08:33:36.000Z</time>
      </trkpt>
      <trkpt lat="44.09123" lon="6.84687">
        <ele>945.79998779297</ele>
        <time>2020-09-05T08:33:39.000Z</time>
      </trkpt>
      <trkpt lat="44.09122" lon="6.84689">
        <ele>946.20001220703</ele>
        <time>2020-09-05T08:33:40.000Z</time>
      </trkpt>
      <trkpt lat="44.09111" lon="6.84696">
        <ele>947</ele>
        <time>2020-09-05T08:33:44.000Z</time>
      </trkpt>
      <trkpt lat="44.09108" lon="6.84698">
        <ele>947.20001220703</ele>
        <time>2020-09-05T08:33:45.000Z</time>
      </trkpt>
      <trkpt lat="44.09094" lon="6.84705">
        <ele>948.40002441406</ele>
        <time>2020-09-05T08:33:50.000Z</time>
      </trkpt>
      <trkpt lat="44.09083" lon="6.8471">
        <ele>949.40002441406</ele>
        <time>2020-09-05T08:33:54.000Z</time>
      </trkpt>
      <trkpt lat="44.09075" lon="6.84713">
        <ele>950.20001220703</ele>
        <time>2020-09-05T08:33:57.000Z</time>
      </trkpt>
      <trkpt lat="44.09073" lon="6.84714">
        <ele>950.40002441406</ele>
        <time>2020-09-05T08:33:58.000Z</time>
      </trkpt>
      <trkpt lat="44.09063" lon="6.84719">
        <ele>951.59997558594</ele>
        <time>2020-09-05T08:34:03.000Z</time>
      </trkpt>
      <trkpt lat="44.09062" lon="6.84718">
        <ele>951.79998779297</ele>
        <time>2020-09-05T08:34:04.000Z</time>
      </trkpt>
      <trkpt lat="44.09061" lon="6.8472">
        <ele>952.40002441406</ele>
        <time>2020-09-05T08:34:09.000Z</time>
      </trkpt>
      <trkpt lat="44.09066" lon="6.84718">
        <ele>952.59997558594</ele>
        <time>2020-09-05T08:34:11.000Z</time>
      </trkpt>
      <trkpt lat="44.09073" lon="6.84716">
        <ele>952.59997558594</ele>
        <time>2020-09-05T08:34:13.000Z</time>
      </trkpt>
      <trkpt lat="44.09077" lon="6.84715">
        <ele>952.59997558594</ele>
        <time>2020-09-05T08:34:14.000Z</time>
      </trkpt>
      <trkpt lat="44.09087" lon="6.84711">
        <ele>951.79998779297</ele>
        <time>2020-09-05T08:34:18.000Z</time>
      </trkpt>
      <trkpt lat="44.09088" lon="6.8471">
        <ele>951.59997558594</ele>
        <time>2020-09-05T08:34:19.000Z</time>
      </trkpt>
      <trkpt lat="44.09086" lon="6.84709">
        <ele>950.59997558594</ele>
        <time>2020-09-05T08:34:22.000Z</time>
      </trkpt>
      <trkpt lat="44.09085" lon="6.84709">
        <ele>950.40002441406</ele>
        <time>2020-09-05T08:34:23.000Z</time>
      </trkpt>
      <trkpt lat="44.09078" lon="6.8471">
        <ele>950.20001220703</ele>
        <time>2020-09-05T08:34:27.000Z</time>
      </trkpt>
      <trkpt lat="44.09077" lon="6.84709">
        <ele>951.20001220703</ele>
        <time>2020-09-05T08:34:31.000Z</time>
      </trkpt>
      <trkpt lat="44.09077" lon="6.84709">
        <ele>951.40002441406</ele>
        <time>2020-09-05T08:34:32.000Z</time>
      </trkpt>
      <trkpt lat="44.09073" lon="6.84711">
        <ele>952</ele>
        <time>2020-09-05T08:34:39.000Z</time>
      </trkpt>
      <trkpt lat="44.09068" lon="6.84712">
        <ele>952.59997558594</ele>
        <time>2020-09-05T08:34:42.000Z</time>
      </trkpt>
      <trkpt lat="44.09067" lon="6.84712">
        <ele>953</ele>
        <time>2020-09-05T08:34:43.000Z</time>
      </trkpt>
      <trkpt lat="44.09067" lon="6.84711">
        <ele>953.40002441406</ele>
        <time>2020-09-05T08:34:44.000Z</time>
      </trkpt>
      <trkpt lat="44.09066" lon="6.84711">
        <ele>953.79998779297</ele>
        <time>2020-09-05T08:34:45.000Z</time>
      </trkpt>
      <trkpt lat="44.09067" lon="6.8471">
        <ele>954.59997558594</ele>
        <time>2020-09-05T08:34:49.000Z</time>
      </trkpt>
      <trkpt lat="44.09068" lon="6.84708">
        <ele>954.79998779297</ele>
        <time>2020-09-05T08:34:53.000Z</time>
      </trkpt>
      <trkpt lat="44.09068" lon="6.84708">
        <ele>955.59997558594</ele>
        <time>2020-09-05T08:34:56.000Z</time>
      </trkpt>
      <trkpt lat="44.09068" lon="6.84708">
        <ele>956</ele>
        <time>2020-09-05T08:34:58.000Z</time>
      </trkpt>
      <trkpt lat="44.0907" lon="6.84708">
        <ele>956</ele>
        <time>2020-09-05T08:35:00.000Z</time>
      </trkpt>
      <trkpt lat="44.09071" lon="6.84707">
        <ele>956.20001220703</ele>
        <time>2020-09-05T08:35:01.000Z</time>
      </trkpt>
      <trkpt lat="44.09075" lon="6.847">
        <ele>957.20001220703</ele>
        <time>2020-09-05T08:35:06.000Z</time>
      </trkpt>
      <trkpt lat="44.09076" lon="6.84698">
        <ele>957.40002441406</ele>
        <time>2020-09-05T08:35:07.000Z</time>
      </trkpt>
      <trkpt lat="44.09077" lon="6.84697">
        <ele>958</ele>
        <time>2020-09-05T08:35:08.000Z</time>
      </trkpt>
      <trkpt lat="44.09078" lon="6.84696">
        <ele>958.40002441406</ele>
        <time>2020-09-05T08:35:09.000Z</time>
      </trkpt>
      <trkpt lat="44.09081" lon="6.84692">
        <ele>959.40002441406</ele>
        <time>2020-09-05T08:35:11.000Z</time>
      </trkpt>
      <trkpt lat="44.09082" lon="6.8469">
        <ele>960.20001220703</ele>
        <time>2020-09-05T08:35:12.000Z</time>
      </trkpt>
      <trkpt lat="44.09084" lon="6.84689">
        <ele>960.79998779297</ele>
        <time>2020-09-05T08:35:13.000Z</time>
      </trkpt>
      <trkpt lat="44.09086" lon="6.84686">
        <ele>961.79998779297</ele>
        <time>2020-09-05T08:35:15.000Z</time>
      </trkpt>
      <trkpt lat="44.09086" lon="6.84685">
        <ele>962.59997558594</ele>
        <time>2020-09-05T08:35:17.000Z</time>
      </trkpt>
      <trkpt lat="44.09085" lon="6.84684">
        <ele>963</ele>
        <time>2020-09-05T08:35:18.000Z</time>
      </trkpt>
      <trkpt lat="44.09079" lon="6.84688">
        <ele>964.20001220703</ele>
        <time>2020-09-05T08:35:21.000Z</time>
      </trkpt>
      <trkpt lat="44.09071" lon="6.84692">
        <ele>965.40002441406</ele>
        <time>2020-09-05T08:35:25.000Z</time>
      </trkpt>
      <trkpt lat="44.09066" lon="6.84693">
        <ele>966</ele>
        <time>2020-09-05T08:35:27.000Z</time>
      </trkpt>
      <trkpt lat="44.09061" lon="6.84695">
        <ele>966.59997558594</ele>
        <time>2020-09-05T08:35:29.000Z</time>
      </trkpt>
      <trkpt lat="44.0905" lon="6.84697">
        <ele>967.79998779297</ele>
        <time>2020-09-05T08:35:34.000Z</time>
      </trkpt>
      <trkpt lat="44.09048" lon="6.84697">
        <ele>968.20001220703</ele>
        <time>2020-09-05T08:35:35.000Z</time>
      </trkpt>
      <trkpt lat="44.09044" lon="6.84698">
        <ele>969</ele>
        <time>2020-09-05T08:35:37.000Z</time>
      </trkpt>
      <trkpt lat="44.09039" lon="6.84698">
        <ele>970</ele>
        <time>2020-09-05T08:35:40.000Z</time>
      </trkpt>
      <trkpt lat="44.0903" lon="6.84701">
        <ele>971.40002441406</ele>
        <time>2020-09-05T08:35:44.000Z</time>
      </trkpt>
      <trkpt lat="44.09026" lon="6.84703">
        <ele>972</ele>
        <time>2020-09-05T08:35:46.000Z</time>
      </trkpt>
      <trkpt lat="44.09025" lon="6.84704">
        <ele>972.40002441406</ele>
        <time>2020-09-05T08:35:47.000Z</time>
      </trkpt>
      <trkpt lat="44.09018" lon="6.84707">
        <ele>973.40002441406</ele>
        <time>2020-09-05T08:35:50.000Z</time>
      </trkpt>
      <trkpt lat="44.09016" lon="6.84708">
        <ele>973.79998779297</ele>
        <time>2020-09-05T08:35:51.000Z</time>
      </trkpt>
      <trkpt lat="44.09014" lon="6.8471">
        <ele>974.20001220703</ele>
        <time>2020-09-05T08:35:52.000Z</time>
      </trkpt>
      <trkpt lat="44.09011" lon="6.84711">
        <ele>974.59997558594</ele>
        <time>2020-09-05T08:35:53.000Z</time>
      </trkpt>
      <trkpt lat="44.09006" lon="6.84716">
        <ele>975.79998779297</ele>
        <time>2020-09-05T08:35:56.000Z</time>
      </trkpt>
      <trkpt lat="44.09005" lon="6.84718">
        <ele>976.20001220703</ele>
        <time>2020-09-05T08:35:57.000Z</time>
      </trkpt>
      <trkpt lat="44.09003" lon="6.84722">
        <ele>977</ele>
        <time>2020-09-05T08:35:59.000Z</time>
      </trkpt>
      <trkpt lat="44.09002" lon="6.84724">
        <ele>977.79998779297</ele>
        <time>2020-09-05T08:36:01.000Z</time>
      </trkpt>
      <trkpt lat="44.09001" lon="6.84724">
        <ele>978.20001220703</ele>
        <time>2020-09-05T08:36:02.000Z</time>
      </trkpt>
      <trkpt lat="44.09001" lon="6.84717">
        <ele>979.40002441406</ele>
        <time>2020-09-05T08:36:06.000Z</time>
      </trkpt>
      <trkpt lat="44.09001" lon="6.84715">
        <ele>979.59997558594</ele>
        <time>2020-09-05T08:36:07.000Z</time>
      </trkpt>
      <trkpt lat="44.09001" lon="6.84713">
        <ele>980</ele>
        <time>2020-09-05T08:36:08.000Z</time>
      </trkpt>
      <trkpt lat="44.09001" lon="6.84711">
        <ele>980.40002441406</ele>
        <time>2020-09-05T08:36:09.000Z</time>
      </trkpt>
      <trkpt lat="44.09002" lon="6.84706">
        <ele>981.79998779297</ele>
        <time>2020-09-05T08:36:12.000Z</time>
      </trkpt>
      <trkpt lat="44.09004" lon="6.84702">
        <ele>983</ele>
        <time>2020-09-05T08:36:15.000Z</time>
      </trkpt>
      <trkpt lat="44.09004" lon="6.84698">
        <ele>984</ele>
        <time>2020-09-05T08:36:18.000Z</time>
      </trkpt>
      <trkpt lat="44.09005" lon="6.84696">
        <ele>984.40002441406</ele>
        <time>2020-09-05T08:36:19.000Z</time>
      </trkpt>
      <trkpt lat="44.09007" lon="6.84692">
        <ele>985.20001220703</ele>
        <time>2020-09-05T08:36:21.000Z</time>
      </trkpt>
      <trkpt lat="44.09009" lon="6.84688">
        <ele>986.20001220703</ele>
        <time>2020-09-05T08:36:24.000Z</time>
      </trkpt>
      <trkpt lat="44.0901" lon="6.84687">
        <ele>986.40002441406</ele>
        <time>2020-09-05T08:36:25.000Z</time>
      </trkpt>
      <trkpt lat="44.09012" lon="6.84684">
        <ele>987.40002441406</ele>
        <time>2020-09-05T08:36:28.000Z</time>
      </trkpt>
      <trkpt lat="44.09014" lon="6.84682">
        <ele>988.20001220703</ele>
        <time>2020-09-05T08:36:30.000Z</time>
      </trkpt>
      <trkpt lat="44.09014" lon="6.8468">
        <ele>988.59997558594</ele>
        <time>2020-09-05T08:36:31.000Z</time>
      </trkpt>
      <trkpt lat="44.09016" lon="6.84679">
        <ele>988.79998779297</ele>
        <time>2020-09-05T08:36:32.000Z</time>
      </trkpt>
      <trkpt lat="44.09019" lon="6.84677">
        <ele>989.59997558594</ele>
        <time>2020-09-05T08:36:34.000Z</time>
      </trkpt>
      <trkpt lat="44.09021" lon="6.84676">
        <ele>990</ele>
        <time>2020-09-05T08:36:35.000Z</time>
      </trkpt>
      <trkpt lat="44.09026" lon="6.84672">
        <ele>990.79998779297</ele>
        <time>2020-09-05T08:36:38.000Z</time>
      </trkpt>
      <trkpt lat="44.09032" lon="6.84669">
        <ele>991.59997558594</ele>
        <time>2020-09-05T08:36:42.000Z</time>
      </trkpt>
      <trkpt lat="44.09034" lon="6.84668">
        <ele>992</ele>
        <time>2020-09-05T08:36:43.000Z</time>
      </trkpt>
      <trkpt lat="44.09039" lon="6.84664">
        <ele>993.20001220703</ele>
        <time>2020-09-05T08:36:47.000Z</time>
      </trkpt>
      <trkpt lat="44.09044" lon="6.84661">
        <ele>994.40002441406</ele>
        <time>2020-09-05T08:36:50.000Z</time>
      </trkpt>
      <trkpt lat="44.09051" lon="6.84656">
        <ele>995.59997558594</ele>
        <time>2020-09-05T08:36:54.000Z</time>
      </trkpt>
      <trkpt lat="44.09052" lon="6.84654">
        <ele>995.79998779297</ele>
        <time>2020-09-05T08:36:55.000Z</time>
      </trkpt>
      <trkpt lat="44.09057" lon="6.84653">
        <ele>996.79998779297</ele>
        <time>2020-09-05T08:36:58.000Z</time>
      </trkpt>
      <trkpt lat="44.09059" lon="6.84651">
        <ele>997.40002441406</ele>
        <time>2020-09-05T08:37:00.000Z</time>
      </trkpt>
      <trkpt lat="44.0906" lon="6.8465">
        <ele>997.79998779297</ele>
        <time>2020-09-05T08:37:02.000Z</time>
      </trkpt>
      <trkpt lat="44.09061" lon="6.84648">
        <ele>998.59997558594</ele>
        <time>2020-09-05T08:37:05.000Z</time>
      </trkpt>
      <trkpt lat="44.09062" lon="6.84646">
        <ele>999</ele>
        <time>2020-09-05T08:37:08.000Z</time>
      </trkpt>
      <trkpt lat="44.09063" lon="6.84646">
        <ele>999</ele>
        <time>2020-09-05T08:37:10.000Z</time>
      </trkpt>
      <trkpt lat="44.09067" lon="6.84638">
        <ele>999</ele>
        <time>2020-09-05T08:37:14.000Z</time>
      </trkpt>
      <trkpt lat="44.09071" lon="6.84629">
        <ele>1000.200012207</ele>
        <time>2020-09-05T08:37:18.000Z</time>
      </trkpt>
      <trkpt lat="44.09073" lon="6.84624">
        <ele>1001.200012207</ele>
        <time>2020-09-05T08:37:21.000Z</time>
      </trkpt>
      <trkpt lat="44.09077" lon="6.84618">
        <ele>1002.4000244141</ele>
        <time>2020-09-05T08:37:24.000Z</time>
      </trkpt>
      <trkpt lat="44.09079" lon="6.84615">
        <ele>1003</ele>
        <time>2020-09-05T08:37:26.000Z</time>
      </trkpt>
      <trkpt lat="44.0908" lon="6.84611">
        <ele>1003.5999755859</ele>
        <time>2020-09-05T08:37:28.000Z</time>
      </trkpt>
      <trkpt lat="44.09082" lon="6.84602">
        <ele>1004.5999755859</ele>
        <time>2020-09-05T08:37:32.000Z</time>
      </trkpt>
      <trkpt lat="44.09088" lon="6.84586">
        <ele>1005.5999755859</ele>
        <time>2020-09-05T08:37:39.000Z</time>
      </trkpt>
      <trkpt lat="44.09089" lon="6.84584">
        <ele>1005.5999755859</ele>
        <time>2020-09-05T08:37:40.000Z</time>
      </trkpt>
      <trkpt lat="44.09094" lon="6.84568">
        <ele>1006.200012207</ele>
        <time>2020-09-05T08:37:47.000Z</time>
      </trkpt>
      <trkpt lat="44.09088" lon="6.84567">
        <ele>1006.5999755859</ele>
        <time>2020-09-05T08:37:51.000Z</time>
      </trkpt>
      <trkpt lat="44.09086" lon="6.84569">
        <ele>1006.5999755859</ele>
        <time>2020-09-05T08:37:52.000Z</time>
      </trkpt>
      <trkpt lat="44.09084" lon="6.84575">
        <ele>1007</ele>
        <time>2020-09-05T08:37:55.000Z</time>
      </trkpt>
      <trkpt lat="44.09084" lon="6.84582">
        <ele>1007.799987793</ele>
        <time>2020-09-05T08:37:59.000Z</time>
      </trkpt>
      <trkpt lat="44.09083" lon="6.84583">
        <ele>1007.799987793</ele>
        <time>2020-09-05T08:38:01.000Z</time>
      </trkpt>
      <trkpt lat="44.09081" lon="6.84587">
        <ele>1008</ele>
        <time>2020-09-05T08:38:06.000Z</time>
      </trkpt>
      <trkpt lat="44.09084" lon="6.84586">
        <ele>1008.200012207</ele>
        <time>2020-09-05T08:38:10.000Z</time>
      </trkpt>
      <trkpt lat="44.09085" lon="6.84579">
        <ele>1008.200012207</ele>
        <time>2020-09-05T08:38:13.000Z</time>
      </trkpt>
      <trkpt lat="44.09085" lon="6.84575">
        <ele>1008.200012207</ele>
        <time>2020-09-05T08:38:15.000Z</time>
      </trkpt>
      <trkpt lat="44.09085" lon="6.84575">
        <ele>1008.200012207</ele>
        <time>2020-09-05T08:38:16.000Z</time>
      </trkpt>
      <trkpt lat="44.09085" lon="6.84576">
        <ele>1008</ele>
        <time>2020-09-05T08:38:17.000Z</time>
      </trkpt>
      <trkpt lat="44.09085" lon="6.84583">
        <ele>1007.799987793</ele>
        <time>2020-09-05T08:38:21.000Z</time>
      </trkpt>
      <trkpt lat="44.0908" lon="6.84588">
        <ele>1008.4000244141</ele>
        <time>2020-09-05T08:38:25.000Z</time>
      </trkpt>
      <trkpt lat="44.0908" lon="6.84589">
        <ele>1008.5999755859</ele>
        <time>2020-09-05T08:38:26.000Z</time>
      </trkpt>
      <trkpt lat="44.09079" lon="6.8459">
        <ele>1009</ele>
        <time>2020-09-05T08:38:27.000Z</time>
      </trkpt>
      <trkpt lat="44.09077" lon="6.84595">
        <ele>1009.799987793</ele>
        <time>2020-09-05T08:38:30.000Z</time>
      </trkpt>
      <trkpt lat="44.09075" lon="6.84596">
        <ele>1010</ele>
        <time>2020-09-05T08:38:31.000Z</time>
      </trkpt>
      <trkpt lat="44.09072" lon="6.84599">
        <ele>1011.200012207</ele>
        <time>2020-09-05T08:38:34.000Z</time>
      </trkpt>
      <trkpt lat="44.09069" lon="6.84601">
        <ele>1012.4000244141</ele>
        <time>2020-09-05T08:38:37.000Z</time>
      </trkpt>
      <trkpt lat="44.09067" lon="6.84604">
        <ele>1013.200012207</ele>
        <time>2020-09-05T08:38:39.000Z</time>
      </trkpt>
      <trkpt lat="44.09066" lon="6.84605">
        <ele>1013.799987793</ele>
        <time>2020-09-05T08:38:40.000Z</time>
      </trkpt>
      <trkpt lat="44.09066" lon="6.84605">
        <ele>1014.200012207</ele>
        <time>2020-09-05T08:38:41.000Z</time>
      </trkpt>
      <trkpt lat="44.09064" lon="6.84602">
        <ele>1014.799987793</ele>
        <time>2020-09-05T08:38:43.000Z</time>
      </trkpt>
      <trkpt lat="44.09064" lon="6.84597">
        <ele>1015.4000244141</ele>
        <time>2020-09-05T08:38:45.000Z</time>
      </trkpt>
      <trkpt lat="44.09063" lon="6.84592">
        <ele>1015.799987793</ele>
        <time>2020-09-05T08:38:47.000Z</time>
      </trkpt>
      <trkpt lat="44.09063" lon="6.8459">
        <ele>1016.200012207</ele>
        <time>2020-09-05T08:38:48.000Z</time>
      </trkpt>
      <trkpt lat="44.09062" lon="6.84585">
        <ele>1017</ele>
        <time>2020-09-05T08:38:50.000Z</time>
      </trkpt>
      <trkpt lat="44.09063" lon="6.84584">
        <ele>1018.200012207</ele>
        <time>2020-09-05T08:38:52.000Z</time>
      </trkpt>
      <trkpt lat="44.09063" lon="6.84584">
        <ele>1019.200012207</ele>
        <time>2020-09-05T08:38:56.000Z</time>
      </trkpt>
      <trkpt lat="44.09063" lon="6.84583">
        <ele>1019.200012207</ele>
        <time>2020-09-05T08:38:57.000Z</time>
      </trkpt>
      <trkpt lat="44.09063" lon="6.84578">
        <ele>1019.5999755859</ele>
        <time>2020-09-05T08:39:02.000Z</time>
      </trkpt>
      <trkpt lat="44.09062" lon="6.84569">
        <ele>1020.5999755859</ele>
        <time>2020-09-05T08:39:06.000Z</time>
      </trkpt>
      <trkpt lat="44.09062" lon="6.84567">
        <ele>1021.4000244141</ele>
        <time>2020-09-05T08:39:08.000Z</time>
      </trkpt>
      <trkpt lat="44.09061" lon="6.84565">
        <ele>1021.799987793</ele>
        <time>2020-09-05T08:39:09.000Z</time>
      </trkpt>
      <trkpt lat="44.0906" lon="6.84558">
        <ele>1023.200012207</ele>
        <time>2020-09-05T08:39:12.000Z</time>
      </trkpt>
      <trkpt lat="44.09058" lon="6.84552">
        <ele>1024.1999511719</ele>
        <time>2020-09-05T08:39:15.000Z</time>
      </trkpt>
      <trkpt lat="44.09058" lon="6.84548">
        <ele>1025</ele>
        <time>2020-09-05T08:39:17.000Z</time>
      </trkpt>
      <trkpt lat="44.09058" lon="6.84548">
        <ele>1025.4000244141</ele>
        <time>2020-09-05T08:39:18.000Z</time>
      </trkpt>
      <trkpt lat="44.09056" lon="6.84548">
        <ele>1025.8000488281</ele>
        <time>2020-09-05T08:39:19.000Z</time>
      </trkpt>
      <trkpt lat="44.09055" lon="6.8455">
        <ele>1026</ele>
        <time>2020-09-05T08:39:20.000Z</time>
      </trkpt>
      <trkpt lat="44.09054" lon="6.84553">
        <ele>1026.5999755859</ele>
        <time>2020-09-05T08:39:22.000Z</time>
      </trkpt>
      <trkpt lat="44.09053" lon="6.84557">
        <ele>1027.4000244141</ele>
        <time>2020-09-05T08:39:24.000Z</time>
      </trkpt>
      <trkpt lat="44.09052" lon="6.84559">
        <ele>1027.8000488281</ele>
        <time>2020-09-05T08:39:25.000Z</time>
      </trkpt>
      <trkpt lat="44.09048" lon="6.84565">
        <ele>1028.8000488281</ele>
        <time>2020-09-05T08:39:28.000Z</time>
      </trkpt>
      <trkpt lat="44.09043" lon="6.84572">
        <ele>1030.1999511719</ele>
        <time>2020-09-05T08:39:32.000Z</time>
      </trkpt>
      <trkpt lat="44.09042" lon="6.84574">
        <ele>1030.5999755859</ele>
        <time>2020-09-05T08:39:33.000Z</time>
      </trkpt>
      <trkpt lat="44.0904" lon="6.84578">
        <ele>1031.4000244141</ele>
        <time>2020-09-05T08:39:35.000Z</time>
      </trkpt>
      <trkpt lat="44.09037" lon="6.84582">
        <ele>1032.5999755859</ele>
        <time>2020-09-05T08:39:38.000Z</time>
      </trkpt>
      <trkpt lat="44.09035" lon="6.84584">
        <ele>1032.8000488281</ele>
        <time>2020-09-05T08:39:39.000Z</time>
      </trkpt>
      <trkpt lat="44.09032" lon="6.84587">
        <ele>1033.4000244141</ele>
        <time>2020-09-05T08:39:42.000Z</time>
      </trkpt>
      <trkpt lat="44.0903" lon="6.84586">
        <ele>1033.5999755859</ele>
        <time>2020-09-05T08:39:43.000Z</time>
      </trkpt>
      <trkpt lat="44.09029" lon="6.84586">
        <ele>1033.8000488281</ele>
        <time>2020-09-05T08:39:44.000Z</time>
      </trkpt>
      <trkpt lat="44.09025" lon="6.84587">
        <ele>1034.8000488281</ele>
        <time>2020-09-05T08:39:48.000Z</time>
      </trkpt>
      <trkpt lat="44.09023" lon="6.84588">
        <ele>1035.1999511719</ele>
        <time>2020-09-05T08:39:49.000Z</time>
      </trkpt>
      <trkpt lat="44.0902" lon="6.84589">
        <ele>1035.8000488281</ele>
        <time>2020-09-05T08:39:51.000Z</time>
      </trkpt>
      <trkpt lat="44.09019" lon="6.84588">
        <ele>1036.1999511719</ele>
        <time>2020-09-05T08:39:52.000Z</time>
      </trkpt>
      <trkpt lat="44.09017" lon="6.84588">
        <ele>1037</ele>
        <time>2020-09-05T08:39:54.000Z</time>
      </trkpt>
      <trkpt lat="44.09013" lon="6.84588">
        <ele>1038.4000244141</ele>
        <time>2020-09-05T08:39:57.000Z</time>
      </trkpt>
      <trkpt lat="44.09011" lon="6.84585">
        <ele>1039.4000244141</ele>
        <time>2020-09-05T08:40:00.000Z</time>
      </trkpt>
      <trkpt lat="44.09011" lon="6.84584">
        <ele>1039.8000488281</ele>
        <time>2020-09-05T08:40:01.000Z</time>
      </trkpt>
      <trkpt lat="44.09013" lon="6.84582">
        <ele>1040.5999755859</ele>
        <time>2020-09-05T08:40:04.000Z</time>
      </trkpt>
      <trkpt lat="44.09016" lon="6.84581">
        <ele>1040.8000488281</ele>
        <time>2020-09-05T08:40:07.000Z</time>
      </trkpt>
      <trkpt lat="44.0902" lon="6.84577">
        <ele>1041.1999511719</ele>
        <time>2020-09-05T08:40:12.000Z</time>
      </trkpt>
      <trkpt lat="44.09024" lon="6.84569">
        <ele>1041.5999755859</ele>
        <time>2020-09-05T08:40:18.000Z</time>
      </trkpt>
      <trkpt lat="44.09026" lon="6.84565">
        <ele>1041.8000488281</ele>
        <time>2020-09-05T08:40:21.000Z</time>
      </trkpt>
      <trkpt lat="44.09028" lon="6.84555">
        <ele>1042.4000244141</ele>
        <time>2020-09-05T08:40:27.000Z</time>
      </trkpt>
      <trkpt lat="44.09028" lon="6.84552">
        <ele>1042.5999755859</ele>
        <time>2020-09-05T08:40:29.000Z</time>
      </trkpt>
      <trkpt lat="44.09029" lon="6.84543">
        <ele>1043.1999511719</ele>
        <time>2020-09-05T08:40:35.000Z</time>
      </trkpt>
      <trkpt lat="44.0903" lon="6.84536">
        <ele>1043.5999755859</ele>
        <time>2020-09-05T08:40:39.000Z</time>
      </trkpt>
      <trkpt lat="44.0903" lon="6.84532">
        <ele>1043.8000488281</ele>
        <time>2020-09-05T08:40:41.000Z</time>
      </trkpt>
      <trkpt lat="44.0903" lon="6.84528">
        <ele>1044</ele>
        <time>2020-09-05T08:40:44.000Z</time>
      </trkpt>
      <trkpt lat="44.09031" lon="6.84525">
        <ele>1044.1999511719</ele>
        <time>2020-09-05T08:40:46.000Z</time>
      </trkpt>
      <trkpt lat="44.09031" lon="6.84523">
        <ele>1044.4000244141</ele>
        <time>2020-09-05T08:40:47.000Z</time>
      </trkpt>
      <trkpt lat="44.09031" lon="6.84519">
        <ele>1044.5999755859</ele>
        <time>2020-09-05T08:40:50.000Z</time>
      </trkpt>
      <trkpt lat="44.09032" lon="6.84512">
        <ele>1045</ele>
        <time>2020-09-05T08:40:54.000Z</time>
      </trkpt>
      <trkpt lat="44.09034" lon="6.84501">
        <ele>1045.8000488281</ele>
        <time>2020-09-05T08:41:00.000Z</time>
      </trkpt>
      <trkpt lat="44.0904" lon="6.84487">
        <ele>1046.5999755859</ele>
        <time>2020-09-05T08:41:07.000Z</time>
      </trkpt>
      <trkpt lat="44.09041" lon="6.84485">
        <ele>1046.8000488281</ele>
        <time>2020-09-05T08:41:08.000Z</time>
      </trkpt>
      <trkpt lat="44.09042" lon="6.84478">
        <ele>1047.1999511719</ele>
        <time>2020-09-05T08:41:11.000Z</time>
      </trkpt>
      <trkpt lat="44.09041" lon="6.84476">
        <ele>1047.1999511719</ele>
        <time>2020-09-05T08:41:12.000Z</time>
      </trkpt>
      <trkpt lat="44.09036" lon="6.84472">
        <ele>1047.5999755859</ele>
        <time>2020-09-05T08:41:16.000Z</time>
      </trkpt>
      <trkpt lat="44.09035" lon="6.84473">
        <ele>1047.8000488281</ele>
        <time>2020-09-05T08:41:17.000Z</time>
      </trkpt>
      <trkpt lat="44.09033" lon="6.84478">
        <ele>1048.1999511719</ele>
        <time>2020-09-05T08:41:19.000Z</time>
      </trkpt>
      <trkpt lat="44.09032" lon="6.84481">
        <ele>1048.4000244141</ele>
        <time>2020-09-05T08:41:20.000Z</time>
      </trkpt>
      <trkpt lat="44.09029" lon="6.84485">
        <ele>1048.5999755859</ele>
        <time>2020-09-05T08:41:22.000Z</time>
      </trkpt>
      <trkpt lat="44.09026" lon="6.8449">
        <ele>1048.8000488281</ele>
        <time>2020-09-05T08:41:24.000Z</time>
      </trkpt>
      <trkpt lat="44.09025" lon="6.84493">
        <ele>1049</ele>
        <time>2020-09-05T08:41:25.000Z</time>
      </trkpt>
      <trkpt lat="44.09024" lon="6.84495">
        <ele>1049</ele>
        <time>2020-09-05T08:41:26.000Z</time>
      </trkpt>
      <trkpt lat="44.09019" lon="6.84513">
        <ele>1049.5999755859</ele>
        <time>2020-09-05T08:41:32.000Z</time>
      </trkpt>
      <trkpt lat="44.09018" lon="6.84522">
        <ele>1049.8000488281</ele>
        <time>2020-09-05T08:41:35.000Z</time>
      </trkpt>
      <trkpt lat="44.09015" lon="6.84531">
        <ele>1050.1999511719</ele>
        <time>2020-09-05T08:41:38.000Z</time>
      </trkpt>
      <trkpt lat="44.09011" lon="6.84546">
        <ele>1051</ele>
        <time>2020-09-05T08:41:43.000Z</time>
      </trkpt>
      <trkpt lat="44.09006" lon="6.84553">
        <ele>1051.4000244141</ele>
        <time>2020-09-05T08:41:46.000Z</time>
      </trkpt>
      <trkpt lat="44.09005" lon="6.84555">
        <ele>1052</ele>
        <time>2020-09-05T08:41:49.000Z</time>
      </trkpt>
      <trkpt lat="44.09004" lon="6.84557">
        <ele>1052</ele>
        <time>2020-09-05T08:41:50.000Z</time>
      </trkpt>
      <trkpt lat="44.09005" lon="6.84558">
        <ele>1052.1999511719</ele>
        <time>2020-09-05T08:41:51.000Z</time>
      </trkpt>
      <trkpt lat="44.09007" lon="6.84556">
        <ele>1052.1999511719</ele>
        <time>2020-09-05T08:41:53.000Z</time>
      </trkpt>
      <trkpt lat="44.09012" lon="6.84546">
        <ele>1052.1999511719</ele>
        <time>2020-09-05T08:41:59.000Z</time>
      </trkpt>
      <trkpt lat="44.0901" lon="6.84551">
        <ele>1051.8000488281</ele>
        <time>2020-09-05T08:42:02.000Z</time>
      </trkpt>
      <trkpt lat="44.09002" lon="6.84555">
        <ele>1051.8000488281</ele>
        <time>2020-09-05T08:42:06.000Z</time>
      </trkpt>
      <trkpt lat="44.08995" lon="6.84559">
        <ele>1052.5999755859</ele>
        <time>2020-09-05T08:42:09.000Z</time>
      </trkpt>
      <trkpt lat="44.08994" lon="6.84556">
        <ele>1053.5999755859</ele>
        <time>2020-09-05T08:42:11.000Z</time>
      </trkpt>
      <trkpt lat="44.08993" lon="6.84554">
        <ele>1054.1999511719</ele>
        <time>2020-09-05T08:42:12.000Z</time>
      </trkpt>
      <trkpt lat="44.08994" lon="6.84551">
        <ele>1054.8000488281</ele>
        <time>2020-09-05T08:42:13.000Z</time>
      </trkpt>
      <trkpt lat="44.08995" lon="6.84544">
        <ele>1056</ele>
        <time>2020-09-05T08:42:16.000Z</time>
      </trkpt>
      <trkpt lat="44.08994" lon="6.84541">
        <ele>1056.4000244141</ele>
        <time>2020-09-05T08:42:17.000Z</time>
      </trkpt>
      <trkpt lat="44.08994" lon="6.84536">
        <ele>1057.4000244141</ele>
        <time>2020-09-05T08:42:19.000Z</time>
      </trkpt>
      <trkpt lat="44.08995" lon="6.8453">
        <ele>1058.4000244141</ele>
        <time>2020-09-05T08:42:21.000Z</time>
      </trkpt>
      <trkpt lat="44.08995" lon="6.84524">
        <ele>1059.4000244141</ele>
        <time>2020-09-05T08:42:23.000Z</time>
      </trkpt>
      <trkpt lat="44.08996" lon="6.84518">
        <ele>1060.8000488281</ele>
        <time>2020-09-05T08:42:25.000Z</time>
      </trkpt>
      <trkpt lat="44.08996" lon="6.84512">
        <ele>1061.5999755859</ele>
        <time>2020-09-05T08:42:27.000Z</time>
      </trkpt>
      <trkpt lat="44.08997" lon="6.8451">
        <ele>1062.1999511719</ele>
        <time>2020-09-05T08:42:28.000Z</time>
      </trkpt>
      <trkpt lat="44.08998" lon="6.84505">
        <ele>1063.4000244141</ele>
        <time>2020-09-05T08:42:30.000Z</time>
      </trkpt>
      <trkpt lat="44.08998" lon="6.84498">
        <ele>1064.4000244141</ele>
        <time>2020-09-05T08:42:33.000Z</time>
      </trkpt>
      <trkpt lat="44.08998" lon="6.84495">
        <ele>1064.8000488281</ele>
        <time>2020-09-05T08:42:34.000Z</time>
      </trkpt>
      <trkpt lat="44.08997" lon="6.8449">
        <ele>1065.5999755859</ele>
        <time>2020-09-05T08:42:36.000Z</time>
      </trkpt>
      <trkpt lat="44.08997" lon="6.84488">
        <ele>1065.8000488281</ele>
        <time>2020-09-05T08:42:37.000Z</time>
      </trkpt>
      <trkpt lat="44.08997" lon="6.84484">
        <ele>1066.5999755859</ele>
        <time>2020-09-05T08:42:39.000Z</time>
      </trkpt>
      <trkpt lat="44.08995" lon="6.8448">
        <ele>1067.8000488281</ele>
        <time>2020-09-05T08:42:42.000Z</time>
      </trkpt>
      <trkpt lat="44.08994" lon="6.84481">
        <ele>1068.1999511719</ele>
        <time>2020-09-05T08:42:43.000Z</time>
      </trkpt>
      <trkpt lat="44.08991" lon="6.84486">
        <ele>1069</ele>
        <time>2020-09-05T08:42:45.000Z</time>
      </trkpt>
      <trkpt lat="44.0899" lon="6.8449">
        <ele>1069.8000488281</ele>
        <time>2020-09-05T08:42:47.000Z</time>
      </trkpt>
      <trkpt lat="44.08989" lon="6.84492">
        <ele>1070.1999511719</ele>
        <time>2020-09-05T08:42:48.000Z</time>
      </trkpt>
      <trkpt lat="44.08987" lon="6.84496">
        <ele>1071</ele>
        <time>2020-09-05T08:42:50.000Z</time>
      </trkpt>
      <trkpt lat="44.08986" lon="6.84498">
        <ele>1071.4000244141</ele>
        <time>2020-09-05T08:42:51.000Z</time>
      </trkpt>
      <trkpt lat="44.08984" lon="6.84501">
        <ele>1072.4000244141</ele>
        <time>2020-09-05T08:42:53.000Z</time>
      </trkpt>
      <trkpt lat="44.08984" lon="6.84502">
        <ele>1072.8000488281</ele>
        <time>2020-09-05T08:42:54.000Z</time>
      </trkpt>
      <trkpt lat="44.08981" lon="6.84499">
        <ele>1073.8000488281</ele>
        <time>2020-09-05T08:42:57.000Z</time>
      </trkpt>
      <trkpt lat="44.0898" lon="6.8449">
        <ele>1074.8000488281</ele>
        <time>2020-09-05T08:43:00.000Z</time>
      </trkpt>
      <trkpt lat="44.0898" lon="6.84487">
        <ele>1075.4000244141</ele>
        <time>2020-09-05T08:43:01.000Z</time>
      </trkpt>
      <trkpt lat="44.0898" lon="6.84482">
        <ele>1076</ele>
        <time>2020-09-05T08:43:03.000Z</time>
      </trkpt>
      <trkpt lat="44.0898" lon="6.84479">
        <ele>1076.4000244141</ele>
        <time>2020-09-05T08:43:04.000Z</time>
      </trkpt>
      <trkpt lat="44.08979" lon="6.84473">
        <ele>1077</ele>
        <time>2020-09-05T08:43:06.000Z</time>
      </trkpt>
      <trkpt lat="44.08979" lon="6.8447">
        <ele>1077.1999511719</ele>
        <time>2020-09-05T08:43:07.000Z</time>
      </trkpt>
      <trkpt lat="44.08978" lon="6.84463">
        <ele>1078.4000244141</ele>
        <time>2020-09-05T08:43:10.000Z</time>
      </trkpt>
      <trkpt lat="44.08978" lon="6.84459">
        <ele>1079.1999511719</ele>
        <time>2020-09-05T08:43:12.000Z</time>
      </trkpt>
      <trkpt lat="44.08978" lon="6.84457">
        <ele>1079.4000244141</ele>
        <time>2020-09-05T08:43:13.000Z</time>
      </trkpt>
      <trkpt lat="44.08978" lon="6.84454">
        <ele>1080.1999511719</ele>
        <time>2020-09-05T08:43:15.000Z</time>
      </trkpt>
      <trkpt lat="44.08978" lon="6.8445">
        <ele>1080.5999755859</ele>
        <time>2020-09-05T08:43:17.000Z</time>
      </trkpt>
      <trkpt lat="44.08977" lon="6.84448">
        <ele>1081</ele>
        <time>2020-09-05T08:43:18.000Z</time>
      </trkpt>
      <trkpt lat="44.08978" lon="6.84444">
        <ele>1081.8000488281</ele>
        <time>2020-09-05T08:43:20.000Z</time>
      </trkpt>
      <trkpt lat="44.08978" lon="6.84439">
        <ele>1083.1999511719</ele>
        <time>2020-09-05T08:43:23.000Z</time>
      </trkpt>
      <trkpt lat="44.08978" lon="6.84437">
        <ele>1083.4000244141</ele>
        <time>2020-09-05T08:43:24.000Z</time>
      </trkpt>
      <trkpt lat="44.08978" lon="6.84435">
        <ele>1083.8000488281</ele>
        <time>2020-09-05T08:43:25.000Z</time>
      </trkpt>
      <trkpt lat="44.08977" lon="6.84432">
        <ele>1084.4000244141</ele>
        <time>2020-09-05T08:43:27.000Z</time>
      </trkpt>
      <trkpt lat="44.08976" lon="6.84431">
        <ele>1085</ele>
        <time>2020-09-05T08:43:29.000Z</time>
      </trkpt>
      <trkpt lat="44.08975" lon="6.84433">
        <ele>1085.5999755859</ele>
        <time>2020-09-05T08:43:31.000Z</time>
      </trkpt>
      <trkpt lat="44.08972" lon="6.84437">
        <ele>1086</ele>
        <time>2020-09-05T08:43:33.000Z</time>
      </trkpt>
      <trkpt lat="44.0897" lon="6.84438">
        <ele>1086.8000488281</ele>
        <time>2020-09-05T08:43:35.000Z</time>
      </trkpt>
      <trkpt lat="44.08969" lon="6.84439">
        <ele>1087.5999755859</ele>
        <time>2020-09-05T08:43:37.000Z</time>
      </trkpt>
      <trkpt lat="44.08968" lon="6.84438">
        <ele>1087.8000488281</ele>
        <time>2020-09-05T08:43:38.000Z</time>
      </trkpt>
      <trkpt lat="44.08961" lon="6.84439">
        <ele>1088.8000488281</ele>
        <time>2020-09-05T08:43:42.000Z</time>
      </trkpt>
      <trkpt lat="44.0896" lon="6.84439">
        <ele>1089</ele>
        <time>2020-09-05T08:43:43.000Z</time>
      </trkpt>
      <trkpt lat="44.0896" lon="6.84438">
        <ele>1090.1999511719</ele>
        <time>2020-09-05T08:43:46.000Z</time>
      </trkpt>
      <trkpt lat="44.08958" lon="6.84437">
        <ele>1091.1999511719</ele>
        <time>2020-09-05T08:43:50.000Z</time>
      </trkpt>
      <trkpt lat="44.08959" lon="6.84437">
        <ele>1091.1999511719</ele>
        <time>2020-09-05T08:43:51.000Z</time>
      </trkpt>
      <trkpt lat="44.08957" lon="6.84435">
        <ele>1091.5999755859</ele>
        <time>2020-09-05T08:43:58.000Z</time>
      </trkpt>
      <trkpt lat="44.08956" lon="6.84435">
        <ele>1091.8000488281</ele>
        <time>2020-09-05T08:44:01.000Z</time>
      </trkpt>
      <trkpt lat="44.08956" lon="6.84434">
        <ele>1091.8000488281</ele>
        <time>2020-09-05T08:44:02.000Z</time>
      </trkpt>
      <trkpt lat="44.08956" lon="6.84428">
        <ele>1092.1999511719</ele>
        <time>2020-09-05T08:44:06.000Z</time>
      </trkpt>
      <trkpt lat="44.08956" lon="6.84427">
        <ele>1092.4000244141</ele>
        <time>2020-09-05T08:44:07.000Z</time>
      </trkpt>
      <trkpt lat="44.08956" lon="6.8442">
        <ele>1093.1999511719</ele>
        <time>2020-09-05T08:44:10.000Z</time>
      </trkpt>
      <trkpt lat="44.08955" lon="6.84418">
        <ele>1093.4000244141</ele>
        <time>2020-09-05T08:44:11.000Z</time>
      </trkpt>
      <trkpt lat="44.08954" lon="6.84414">
        <ele>1094</ele>
        <time>2020-09-05T08:44:12.000Z</time>
      </trkpt>
      <trkpt lat="44.08952" lon="6.84412">
        <ele>1094.1999511719</ele>
        <time>2020-09-05T08:44:13.000Z</time>
      </trkpt>
      <trkpt lat="44.08951" lon="6.84409">
        <ele>1095.4000244141</ele>
        <time>2020-09-05T08:44:15.000Z</time>
      </trkpt>
      <trkpt lat="44.08949" lon="6.84404">
        <ele>1096.5999755859</ele>
        <time>2020-09-05T08:44:17.000Z</time>
      </trkpt>
      <trkpt lat="44.08948" lon="6.84401">
        <ele>1097.8000488281</ele>
        <time>2020-09-05T08:44:19.000Z</time>
      </trkpt>
      <trkpt lat="44.08947" lon="6.84396">
        <ele>1098.5999755859</ele>
        <time>2020-09-05T08:44:21.000Z</time>
      </trkpt>
      <trkpt lat="44.08947" lon="6.84395">
        <ele>1099</ele>
        <time>2020-09-05T08:44:22.000Z</time>
      </trkpt>
      <trkpt lat="44.08947" lon="6.84395">
        <ele>1099.5999755859</ele>
        <time>2020-09-05T08:44:23.000Z</time>
      </trkpt>
      <trkpt lat="44.08947" lon="6.84394">
        <ele>1100.4000244141</ele>
        <time>2020-09-05T08:44:25.000Z</time>
      </trkpt>
      <trkpt lat="44.08947" lon="6.84391">
        <ele>1101.1999511719</ele>
        <time>2020-09-05T08:44:28.000Z</time>
      </trkpt>
      <trkpt lat="44.08947" lon="6.84388">
        <ele>1101.1999511719</ele>
        <time>2020-09-05T08:44:29.000Z</time>
      </trkpt>
      <trkpt lat="44.08946" lon="6.84383">
        <ele>1101.4000244141</ele>
        <time>2020-09-05T08:44:31.000Z</time>
      </trkpt>
      <trkpt lat="44.08945" lon="6.84379">
        <ele>1102</ele>
        <time>2020-09-05T08:44:33.000Z</time>
      </trkpt>
      <trkpt lat="44.08944" lon="6.84377">
        <ele>1102.5999755859</ele>
        <time>2020-09-05T08:44:34.000Z</time>
      </trkpt>
      <trkpt lat="44.08944" lon="6.84373">
        <ele>1103.5999755859</ele>
        <time>2020-09-05T08:44:36.000Z</time>
      </trkpt>
      <trkpt lat="44.08944" lon="6.84368">
        <ele>1104.5999755859</ele>
        <time>2020-09-05T08:44:38.000Z</time>
      </trkpt>
      <trkpt lat="44.08944" lon="6.84366">
        <ele>1105.1999511719</ele>
        <time>2020-09-05T08:44:39.000Z</time>
      </trkpt>
      <trkpt lat="44.08944" lon="6.84364">
        <ele>1105.5999755859</ele>
        <time>2020-09-05T08:44:40.000Z</time>
      </trkpt>
      <trkpt lat="44.08945" lon="6.84362">
        <ele>1106.1999511719</ele>
        <time>2020-09-05T08:44:41.000Z</time>
      </trkpt>
      <trkpt lat="44.08947" lon="6.84357">
        <ele>1106.8000488281</ele>
        <time>2020-09-05T08:44:43.000Z</time>
      </trkpt>
      <trkpt lat="44.08948" lon="6.84352">
        <ele>1107.1999511719</ele>
        <time>2020-09-05T08:44:45.000Z</time>
      </trkpt>
      <trkpt lat="44.08954" lon="6.84345">
        <ele>1107</ele>
        <time>2020-09-05T08:44:49.000Z</time>
      </trkpt>
      <trkpt lat="44.08953" lon="6.84343">
        <ele>1106.4000244141</ele>
        <time>2020-09-05T08:44:52.000Z</time>
      </trkpt>
      <trkpt lat="44.08951" lon="6.84345">
        <ele>1106.1999511719</ele>
        <time>2020-09-05T08:44:53.000Z</time>
      </trkpt>
      <trkpt lat="44.08951" lon="6.84346">
        <ele>1106.1999511719</ele>
        <time>2020-09-05T08:44:54.000Z</time>
      </trkpt>
      <trkpt lat="44.08949" lon="6.84348">
        <ele>1106.4000244141</ele>
        <time>2020-09-05T08:44:59.000Z</time>
      </trkpt>
      <trkpt lat="44.08947" lon="6.84345">
        <ele>1106.4000244141</ele>
        <time>2020-09-05T08:45:16.000Z</time>
      </trkpt>
      <trkpt lat="44.08944" lon="6.84343">
        <ele>1106.4000244141</ele>
        <time>2020-09-05T08:45:26.000Z</time>
      </trkpt>
      <trkpt lat="44.08941" lon="6.84345">
        <ele>1107.1999511719</ele>
        <time>2020-09-05T08:45:30.000Z</time>
      </trkpt>
      <trkpt lat="44.08941" lon="6.84345">
        <ele>1107.4000244141</ele>
        <time>2020-09-05T08:45:31.000Z</time>
      </trkpt>
      <trkpt lat="44.0894" lon="6.84344">
        <ele>1107.4000244141</ele>
        <time>2020-09-05T08:45:35.000Z</time>
      </trkpt>
      <trkpt lat="44.08939" lon="6.84345">
        <ele>1107.8000488281</ele>
        <time>2020-09-05T08:45:41.000Z</time>
      </trkpt>
      <trkpt lat="44.08938" lon="6.84348">
        <ele>1108.4000244141</ele>
        <time>2020-09-05T08:45:45.000Z</time>
      </trkpt>
      <trkpt lat="44.08937" lon="6.84349">
        <ele>1108.5999755859</ele>
        <time>2020-09-05T08:45:46.000Z</time>
      </trkpt>
      <trkpt lat="44.08936" lon="6.84349">
        <ele>1109.5999755859</ele>
        <time>2020-09-05T08:45:49.000Z</time>
      </trkpt>
      <trkpt lat="44.08937" lon="6.84349">
        <ele>1110.1999511719</ele>
        <time>2020-09-05T08:45:52.000Z</time>
      </trkpt>
      <trkpt lat="44.08936" lon="6.8435">
        <ele>1110.5999755859</ele>
        <time>2020-09-05T08:45:59.000Z</time>
      </trkpt>
      <trkpt lat="44.08936" lon="6.8435">
        <ele>1111.1999511719</ele>
        <time>2020-09-05T08:46:05.000Z</time>
      </trkpt>
      <trkpt lat="44.08935" lon="6.84352">
        <ele>1111.4000244141</ele>
        <time>2020-09-05T08:46:08.000Z</time>
      </trkpt>
      <trkpt lat="44.0893" lon="6.84355">
        <ele>1111.5999755859</ele>
        <time>2020-09-05T08:46:11.000Z</time>
      </trkpt>
      <trkpt lat="44.08929" lon="6.84356">
        <ele>1112</ele>
        <time>2020-09-05T08:46:12.000Z</time>
      </trkpt>
      <trkpt lat="44.08929" lon="6.84356">
        <ele>1113</ele>
        <time>2020-09-05T08:46:14.000Z</time>
      </trkpt>
      <trkpt lat="44.08927" lon="6.84353">
        <ele>1114</ele>
        <time>2020-09-05T08:46:16.000Z</time>
      </trkpt>
      <trkpt lat="44.08928" lon="6.84351">
        <ele>1114.4000244141</ele>
        <time>2020-09-05T08:46:17.000Z</time>
      </trkpt>
      <trkpt lat="44.0893" lon="6.84348">
        <ele>1115</ele>
        <time>2020-09-05T08:46:20.000Z</time>
      </trkpt>
      <trkpt lat="44.08928" lon="6.84348">
        <ele>1115.4000244141</ele>
        <time>2020-09-05T08:46:23.000Z</time>
      </trkpt>
      <trkpt lat="44.08928" lon="6.8435">
        <ele>1115.4000244141</ele>
        <time>2020-09-05T08:46:24.000Z</time>
      </trkpt>
      <trkpt lat="44.08924" lon="6.84355">
        <ele>1115.4000244141</ele>
        <time>2020-09-05T08:46:30.000Z</time>
      </trkpt>
      <trkpt lat="44.08923" lon="6.84358">
        <ele>1115</ele>
        <time>2020-09-05T08:46:33.000Z</time>
      </trkpt>
      <trkpt lat="44.08924" lon="6.84357">
        <ele>1114.8000488281</ele>
        <time>2020-09-05T08:46:36.000Z</time>
      </trkpt>
      <trkpt lat="44.08925" lon="6.84356">
        <ele>1114.8000488281</ele>
        <time>2020-09-05T08:46:40.000Z</time>
      </trkpt>
      <trkpt lat="44.08925" lon="6.84353">
        <ele>1114.5999755859</ele>
        <time>2020-09-05T08:46:50.000Z</time>
      </trkpt>
      <trkpt lat="44.08927" lon="6.84351">
        <ele>1114.5999755859</ele>
        <time>2020-09-05T08:46:52.000Z</time>
      </trkpt>
      <trkpt lat="44.08927" lon="6.8435">
        <ele>1115</ele>
        <time>2020-09-05T08:46:55.000Z</time>
      </trkpt>
      <trkpt lat="44.08923" lon="6.84353">
        <ele>1115.4000244141</ele>
        <time>2020-09-05T08:47:00.000Z</time>
      </trkpt>
      <trkpt lat="44.08917" lon="6.8436">
        <ele>1115.4000244141</ele>
        <time>2020-09-05T08:47:05.000Z</time>
      </trkpt>
      <trkpt lat="44.08913" lon="6.84359">
        <ele>1116</ele>
        <time>2020-09-05T08:47:08.000Z</time>
      </trkpt>
      <trkpt lat="44.08914" lon="6.84356">
        <ele>1116.4000244141</ele>
        <time>2020-09-05T08:47:09.000Z</time>
      </trkpt>
      <trkpt lat="44.08914" lon="6.84355">
        <ele>1116.5999755859</ele>
        <time>2020-09-05T08:47:10.000Z</time>
      </trkpt>
      <trkpt lat="44.08916" lon="6.84351">
        <ele>1118</ele>
        <time>2020-09-05T08:47:13.000Z</time>
      </trkpt>
      <trkpt lat="44.08915" lon="6.8435">
        <ele>1118.4000244141</ele>
        <time>2020-09-05T08:47:14.000Z</time>
      </trkpt>
      <trkpt lat="44.08912" lon="6.84348">
        <ele>1119.1999511719</ele>
        <time>2020-09-05T08:47:17.000Z</time>
      </trkpt>
      <trkpt lat="44.08912" lon="6.84347">
        <ele>1120</ele>
        <time>2020-09-05T08:47:19.000Z</time>
      </trkpt>
      <trkpt lat="44.08912" lon="6.84347">
        <ele>1120.4000244141</ele>
        <time>2020-09-05T08:47:20.000Z</time>
      </trkpt>
      <trkpt lat="44.08912" lon="6.84347">
        <ele>1121.1999511719</ele>
        <time>2020-09-05T08:47:26.000Z</time>
      </trkpt>
      <trkpt lat="44.08909" lon="6.84347">
        <ele>1121.4000244141</ele>
        <time>2020-09-05T08:47:31.000Z</time>
      </trkpt>
      <trkpt lat="44.08909" lon="6.84346">
        <ele>1122.1999511719</ele>
        <time>2020-09-05T08:47:37.000Z</time>
      </trkpt>
      <trkpt lat="44.08907" lon="6.84346">
        <ele>1122.4000244141</ele>
        <time>2020-09-05T08:47:45.000Z</time>
      </trkpt>
      <trkpt lat="44.08907" lon="6.84345">
        <ele>1122.4000244141</ele>
        <time>2020-09-05T08:47:46.000Z</time>
      </trkpt>
      <trkpt lat="44.08904" lon="6.84345">
        <ele>1123.1999511719</ele>
        <time>2020-09-05T08:47:52.000Z</time>
      </trkpt>
      <trkpt lat="44.08902" lon="6.84345">
        <ele>1123.4000244141</ele>
        <time>2020-09-05T08:47:54.000Z</time>
      </trkpt>
      <trkpt lat="44.089" lon="6.84345">
        <ele>1123.5999755859</ele>
        <time>2020-09-05T08:47:56.000Z</time>
      </trkpt>
      <trkpt lat="44.08898" lon="6.84346">
        <ele>1124.5999755859</ele>
        <time>2020-09-05T08:48:00.000Z</time>
      </trkpt>
      <trkpt lat="44.08898" lon="6.84346">
        <ele>1124.5999755859</ele>
        <time>2020-09-05T08:48:01.000Z</time>
      </trkpt>
      <trkpt lat="44.08896" lon="6.84346">
        <ele>1125.5999755859</ele>
        <time>2020-09-05T08:48:06.000Z</time>
      </trkpt>
      <trkpt lat="44.08895" lon="6.84345">
        <ele>1125.8000488281</ele>
        <time>2020-09-05T08:48:07.000Z</time>
      </trkpt>
      <trkpt lat="44.08894" lon="6.84344">
        <ele>1126.4000244141</ele>
        <time>2020-09-05T08:48:12.000Z</time>
      </trkpt>
      <trkpt lat="44.08893" lon="6.84344">
        <ele>1126.8000488281</ele>
        <time>2020-09-05T08:48:15.000Z</time>
      </trkpt>
      <trkpt lat="44.08895" lon="6.84341">
        <ele>1127.5999755859</ele>
        <time>2020-09-05T08:48:19.000Z</time>
      </trkpt>
      <trkpt lat="44.08896" lon="6.84339">
        <ele>1128</ele>
        <time>2020-09-05T08:48:21.000Z</time>
      </trkpt>
      <trkpt lat="44.08894" lon="6.84336">
        <ele>1128.8000488281</ele>
        <time>2020-09-05T08:48:26.000Z</time>
      </trkpt>
      <trkpt lat="44.08893" lon="6.84337">
        <ele>1129</ele>
        <time>2020-09-05T08:48:28.000Z</time>
      </trkpt>
      <trkpt lat="44.08892" lon="6.84336">
        <ele>1129</ele>
        <time>2020-09-05T08:48:29.000Z</time>
      </trkpt>
      <trkpt lat="44.0889" lon="6.84337">
        <ele>1129</ele>
        <time>2020-09-05T08:48:30.000Z</time>
      </trkpt>
      <trkpt lat="44.08885" lon="6.84338">
        <ele>1129.4000244141</ele>
        <time>2020-09-05T08:48:34.000Z</time>
      </trkpt>
      <trkpt lat="44.08876" lon="6.84335">
        <ele>1130.1999511719</ele>
        <time>2020-09-05T08:48:39.000Z</time>
      </trkpt>
      <trkpt lat="44.08875" lon="6.84333">
        <ele>1130.4000244141</ele>
        <time>2020-09-05T08:48:40.000Z</time>
      </trkpt>
      <trkpt lat="44.08864" lon="6.84328">
        <ele>1131.1999511719</ele>
        <time>2020-09-05T08:48:46.000Z</time>
      </trkpt>
      <trkpt lat="44.08857" lon="6.84324">
        <ele>1132</ele>
        <time>2020-09-05T08:48:50.000Z</time>
      </trkpt>
      <trkpt lat="44.08853" lon="6.84321">
        <ele>1132.4000244141</ele>
        <time>2020-09-05T08:48:52.000Z</time>
      </trkpt>
      <trkpt lat="44.08842" lon="6.84314">
        <ele>1133.4000244141</ele>
        <time>2020-09-05T08:48:58.000Z</time>
      </trkpt>
      <trkpt lat="44.08829" lon="6.84303">
        <ele>1134.4000244141</ele>
        <time>2020-09-05T08:49:05.000Z</time>
      </trkpt>
      <trkpt lat="44.08828" lon="6.843">
        <ele>1134.5999755859</ele>
        <time>2020-09-05T08:49:06.000Z</time>
      </trkpt>
      <trkpt lat="44.08823" lon="6.8429">
        <ele>1135.4000244141</ele>
        <time>2020-09-05T08:49:10.000Z</time>
      </trkpt>
      <trkpt lat="44.08817" lon="6.84279">
        <ele>1136.1999511719</ele>
        <time>2020-09-05T08:49:14.000Z</time>
      </trkpt>
      <trkpt lat="44.08811" lon="6.8427">
        <ele>1136.5999755859</ele>
        <time>2020-09-05T08:49:18.000Z</time>
      </trkpt>
      <trkpt lat="44.08806" lon="6.84264">
        <ele>1137</ele>
        <time>2020-09-05T08:49:21.000Z</time>
      </trkpt>
      <trkpt lat="44.08806" lon="6.84254">
        <ele>1137.4000244141</ele>
        <time>2020-09-05T08:49:24.000Z</time>
      </trkpt>
      <trkpt lat="44.08809" lon="6.84254">
        <ele>1137.4000244141</ele>
        <time>2020-09-05T08:49:25.000Z</time>
      </trkpt>
      <trkpt lat="44.08813" lon="6.84259">
        <ele>1137.5999755859</ele>
        <time>2020-09-05T08:49:27.000Z</time>
      </trkpt>
      <trkpt lat="44.08815" lon="6.84262">
        <ele>1137.5999755859</ele>
        <time>2020-09-05T08:49:28.000Z</time>
      </trkpt>
      <trkpt lat="44.08818" lon="6.8427">
        <ele>1137.8000488281</ele>
        <time>2020-09-05T08:49:30.000Z</time>
      </trkpt>
      <trkpt lat="44.08832" lon="6.84291">
        <ele>1138.1999511719</ele>
        <time>2020-09-05T08:49:36.000Z</time>
      </trkpt>
      <trkpt lat="44.08842" lon="6.84298">
        <ele>1138.5999755859</ele>
        <time>2020-09-05T08:49:39.000Z</time>
      </trkpt>
      <trkpt lat="44.08851" lon="6.84302">
        <ele>1139.1999511719</ele>
        <time>2020-09-05T08:49:42.000Z</time>
      </trkpt>
      <trkpt lat="44.0886" lon="6.84303">
        <ele>1139.8000488281</ele>
        <time>2020-09-05T08:49:45.000Z</time>
      </trkpt>
      <trkpt lat="44.08865" lon="6.84302">
        <ele>1140.1999511719</ele>
        <time>2020-09-05T08:49:47.000Z</time>
      </trkpt>
      <trkpt lat="44.08871" lon="6.84299">
        <ele>1140.8000488281</ele>
        <time>2020-09-05T08:49:50.000Z</time>
      </trkpt>
      <trkpt lat="44.08878" lon="6.84292">
        <ele>1141.5999755859</ele>
        <time>2020-09-05T08:49:54.000Z</time>
      </trkpt>
      <trkpt lat="44.08883" lon="6.84289">
        <ele>1142</ele>
        <time>2020-09-05T08:49:56.000Z</time>
      </trkpt>
      <trkpt lat="44.08891" lon="6.8428">
        <ele>1142.8000488281</ele>
        <time>2020-09-05T08:50:00.000Z</time>
      </trkpt>
      <trkpt lat="44.08894" lon="6.84278">
        <ele>1143</ele>
        <time>2020-09-05T08:50:01.000Z</time>
      </trkpt>
      <trkpt lat="44.08904" lon="6.84266">
        <ele>1144</ele>
        <time>2020-09-05T08:50:06.000Z</time>
      </trkpt>
      <trkpt lat="44.08911" lon="6.84258">
        <ele>1144.5999755859</ele>
        <time>2020-09-05T08:50:09.000Z</time>
      </trkpt>
      <trkpt lat="44.08916" lon="6.84249">
        <ele>1145.4000244141</ele>
        <time>2020-09-05T08:50:12.000Z</time>
      </trkpt>
      <trkpt lat="44.08915" lon="6.84242">
        <ele>1145.8000488281</ele>
        <time>2020-09-05T08:50:14.000Z</time>
      </trkpt>
      <trkpt lat="44.08907" lon="6.8424">
        <ele>1146.4000244141</ele>
        <time>2020-09-05T08:50:17.000Z</time>
      </trkpt>
      <trkpt lat="44.08902" lon="6.8425">
        <ele>1147.1999511719</ele>
        <time>2020-09-05T08:50:20.000Z</time>
      </trkpt>
      <trkpt lat="44.089" lon="6.84252">
        <ele>1147.5999755859</ele>
        <time>2020-09-05T08:50:21.000Z</time>
      </trkpt>
      <trkpt lat="44.08888" lon="6.84258">
        <ele>1148.5999755859</ele>
        <time>2020-09-05T08:50:26.000Z</time>
      </trkpt>
      <trkpt lat="44.08877" lon="6.84257">
        <ele>1149.5999755859</ele>
        <time>2020-09-05T08:50:30.000Z</time>
      </trkpt>
      <trkpt lat="44.08866" lon="6.84255">
        <ele>1150.5999755859</ele>
        <time>2020-09-05T08:50:34.000Z</time>
      </trkpt>
      <trkpt lat="44.08855" lon="6.84251">
        <ele>1151.8000488281</ele>
        <time>2020-09-05T08:50:38.000Z</time>
      </trkpt>
      <trkpt lat="44.08848" lon="6.84246">
        <ele>1152.5999755859</ele>
        <time>2020-09-05T08:50:41.000Z</time>
      </trkpt>
      <trkpt lat="44.08846" lon="6.84244">
        <ele>1152.8000488281</ele>
        <time>2020-09-05T08:50:42.000Z</time>
      </trkpt>
      <trkpt lat="44.08831" lon="6.84234">
        <ele>1154</ele>
        <time>2020-09-05T08:50:48.000Z</time>
      </trkpt>
      <trkpt lat="44.08826" lon="6.84227">
        <ele>1154.5999755859</ele>
        <time>2020-09-05T08:50:51.000Z</time>
      </trkpt>
      <trkpt lat="44.08826" lon="6.84222">
        <ele>1154.5999755859</ele>
        <time>2020-09-05T08:50:52.000Z</time>
      </trkpt>
      <trkpt lat="44.0883" lon="6.84219">
        <ele>1155</ele>
        <time>2020-09-05T08:50:54.000Z</time>
      </trkpt>
      <trkpt lat="44.08833" lon="6.84221">
        <ele>1155.1999511719</ele>
        <time>2020-09-05T08:50:55.000Z</time>
      </trkpt>
      <trkpt lat="44.08837" lon="6.84225">
        <ele>1155.5999755859</ele>
        <time>2020-09-05T08:50:57.000Z</time>
      </trkpt>
      <trkpt lat="44.08839" lon="6.84227">
        <ele>1155.8000488281</ele>
        <time>2020-09-05T08:50:58.000Z</time>
      </trkpt>
      <trkpt lat="44.08843" lon="6.84231">
        <ele>1156.1999511719</ele>
        <time>2020-09-05T08:51:00.000Z</time>
      </trkpt>
      <trkpt lat="44.08854" lon="6.84237">
        <ele>1157</ele>
        <time>2020-09-05T08:51:05.000Z</time>
      </trkpt>
      <trkpt lat="44.08856" lon="6.84238">
        <ele>1157.1999511719</ele>
        <time>2020-09-05T08:51:06.000Z</time>
      </trkpt>
      <trkpt lat="44.08866" lon="6.84238">
        <ele>1158.1999511719</ele>
        <time>2020-09-05T08:51:10.000Z</time>
      </trkpt>
      <trkpt lat="44.08874" lon="6.84236">
        <ele>1158.8000488281</ele>
        <time>2020-09-05T08:51:13.000Z</time>
      </trkpt>
      <trkpt lat="44.08878" lon="6.84234">
        <ele>1159.4000244141</ele>
        <time>2020-09-05T08:51:15.000Z</time>
      </trkpt>
      <trkpt lat="44.0889" lon="6.84229">
        <ele>1160.4000244141</ele>
        <time>2020-09-05T08:51:20.000Z</time>
      </trkpt>
      <trkpt lat="44.08893" lon="6.84225">
        <ele>1160.8000488281</ele>
        <time>2020-09-05T08:51:22.000Z</time>
      </trkpt>
      <trkpt lat="44.08894" lon="6.84221">
        <ele>1161</ele>
        <time>2020-09-05T08:51:23.000Z</time>
      </trkpt>
      <trkpt lat="44.08894" lon="6.84215">
        <ele>1161.4000244141</ele>
        <time>2020-09-05T08:51:25.000Z</time>
      </trkpt>
      <trkpt lat="44.08894" lon="6.84213">
        <ele>1161.5999755859</ele>
        <time>2020-09-05T08:51:26.000Z</time>
      </trkpt>
      <trkpt lat="44.08886" lon="6.84213">
        <ele>1162.4000244141</ele>
        <time>2020-09-05T08:51:30.000Z</time>
      </trkpt>
      <trkpt lat="44.0888" lon="6.84218">
        <ele>1163</ele>
        <time>2020-09-05T08:51:33.000Z</time>
      </trkpt>
      <trkpt lat="44.08873" lon="6.84221">
        <ele>1163.5999755859</ele>
        <time>2020-09-05T08:51:36.000Z</time>
      </trkpt>
      <trkpt lat="44.08858" lon="6.84217">
        <ele>1164.8000488281</ele>
        <time>2020-09-05T08:51:42.000Z</time>
      </trkpt>
      <trkpt lat="44.08846" lon="6.84203">
        <ele>1166</ele>
        <time>2020-09-05T08:51:48.000Z</time>
      </trkpt>
      <trkpt lat="44.08842" lon="6.84197">
        <ele>1166.4000244141</ele>
        <time>2020-09-05T08:51:50.000Z</time>
      </trkpt>
      <trkpt lat="44.08839" lon="6.84187">
        <ele>1167</ele>
        <time>2020-09-05T08:51:53.000Z</time>
      </trkpt>
      <trkpt lat="44.08838" lon="6.84177">
        <ele>1167.8000488281</ele>
        <time>2020-09-05T08:51:56.000Z</time>
      </trkpt>
      <trkpt lat="44.08837" lon="6.84169">
        <ele>1168.1999511719</ele>
        <time>2020-09-05T08:51:58.000Z</time>
      </trkpt>
      <trkpt lat="44.08834" lon="6.84154">
        <ele>1169.1999511719</ele>
        <time>2020-09-05T08:52:02.000Z</time>
      </trkpt>
      <trkpt lat="44.08833" lon="6.84141">
        <ele>1170.1999511719</ele>
        <time>2020-09-05T08:52:06.000Z</time>
      </trkpt>
      <trkpt lat="44.08834" lon="6.84137">
        <ele>1170.4000244141</ele>
        <time>2020-09-05T08:52:07.000Z</time>
      </trkpt>
      <trkpt lat="44.08841" lon="6.84121">
        <ele>1171.4000244141</ele>
        <time>2020-09-05T08:52:12.000Z</time>
      </trkpt>
      <trkpt lat="44.08843" lon="6.84107">
        <ele>1172.5999755859</ele>
        <time>2020-09-05T08:52:16.000Z</time>
      </trkpt>
      <trkpt lat="44.08844" lon="6.84102">
        <ele>1172.8000488281</ele>
        <time>2020-09-05T08:52:17.000Z</time>
      </trkpt>
      <trkpt lat="44.08845" lon="6.84091">
        <ele>1173.5999755859</ele>
        <time>2020-09-05T08:52:20.000Z</time>
      </trkpt>
      <trkpt lat="44.08846" lon="6.84076">
        <ele>1174.8000488281</ele>
        <time>2020-09-05T08:52:24.000Z</time>
      </trkpt>
      <trkpt lat="44.08844" lon="6.84064">
        <ele>1175.4000244141</ele>
        <time>2020-09-05T08:52:27.000Z</time>
      </trkpt>
      <trkpt lat="44.08843" lon="6.84056">
        <ele>1176</ele>
        <time>2020-09-05T08:52:29.000Z</time>
      </trkpt>
      <trkpt lat="44.08836" lon="6.8404">
        <ele>1176.8000488281</ele>
        <time>2020-09-05T08:52:34.000Z</time>
      </trkpt>
      <trkpt lat="44.08831" lon="6.84034">
        <ele>1177</ele>
        <time>2020-09-05T08:52:36.000Z</time>
      </trkpt>
      <trkpt lat="44.08814" lon="6.84009">
        <ele>1177.5999755859</ele>
        <time>2020-09-05T08:52:44.000Z</time>
      </trkpt>
      <trkpt lat="44.08807" lon="6.83998">
        <ele>1178</ele>
        <time>2020-09-05T08:52:48.000Z</time>
      </trkpt>
      <trkpt lat="44.08799" lon="6.83991">
        <ele>1179.1999511719</ele>
        <time>2020-09-05T08:52:52.000Z</time>
      </trkpt>
      <trkpt lat="44.08788" lon="6.83988">
        <ele>1180.4000244141</ele>
        <time>2020-09-05T08:52:56.000Z</time>
      </trkpt>
      <trkpt lat="44.08785" lon="6.83982">
        <ele>1180.8000488281</ele>
        <time>2020-09-05T08:52:58.000Z</time>
      </trkpt>
      <trkpt lat="44.08787" lon="6.83973">
        <ele>1181.5999755859</ele>
        <time>2020-09-05T08:53:01.000Z</time>
      </trkpt>
      <trkpt lat="44.0879" lon="6.83972">
        <ele>1181.8000488281</ele>
        <time>2020-09-05T08:53:02.000Z</time>
      </trkpt>
      <trkpt lat="44.08801" lon="6.83974">
        <ele>1182.5999755859</ele>
        <time>2020-09-05T08:53:06.000Z</time>
      </trkpt>
      <trkpt lat="44.08808" lon="6.83976">
        <ele>1183.1999511719</ele>
        <time>2020-09-05T08:53:11.000Z</time>
      </trkpt>
      <trkpt lat="44.08805" lon="6.83975">
        <ele>1183.5999755859</ele>
        <time>2020-09-05T08:53:14.000Z</time>
      </trkpt>
      <trkpt lat="44.08804" lon="6.83973">
        <ele>1183.5999755859</ele>
        <time>2020-09-05T08:53:15.000Z</time>
      </trkpt>
      <trkpt lat="44.08803" lon="6.8397">
        <ele>1183.5999755859</ele>
        <time>2020-09-05T08:53:16.000Z</time>
      </trkpt>
      <trkpt lat="44.08801" lon="6.83964">
        <ele>1183.5999755859</ele>
        <time>2020-09-05T08:53:18.000Z</time>
      </trkpt>
      <trkpt lat="44.08798" lon="6.83961">
        <ele>1183.5999755859</ele>
        <time>2020-09-05T08:53:20.000Z</time>
      </trkpt>
      <trkpt lat="44.08795" lon="6.8396">
        <ele>1183.8000488281</ele>
        <time>2020-09-05T08:53:22.000Z</time>
      </trkpt>
      <trkpt lat="44.08789" lon="6.83956">
        <ele>1184.8000488281</ele>
        <time>2020-09-05T08:53:25.000Z</time>
      </trkpt>
      <trkpt lat="44.08786" lon="6.83954">
        <ele>1186.1999511719</ele>
        <time>2020-09-05T08:53:28.000Z</time>
      </trkpt>
      <trkpt lat="44.08783" lon="6.83954">
        <ele>1187.1999511719</ele>
        <time>2020-09-05T08:53:30.000Z</time>
      </trkpt>
      <trkpt lat="44.08779" lon="6.83956">
        <ele>1188.5999755859</ele>
        <time>2020-09-05T08:53:33.000Z</time>
      </trkpt>
      <trkpt lat="44.08774" lon="6.83954">
        <ele>1189.5999755859</ele>
        <time>2020-09-05T08:53:36.000Z</time>
      </trkpt>
      <trkpt lat="44.08772" lon="6.83954">
        <ele>1190</ele>
        <time>2020-09-05T08:53:37.000Z</time>
      </trkpt>
      <trkpt lat="44.08768" lon="6.8395">
        <ele>1191</ele>
        <time>2020-09-05T08:53:40.000Z</time>
      </trkpt>
      <trkpt lat="44.08769" lon="6.83948">
        <ele>1191.1999511719</ele>
        <time>2020-09-05T08:53:41.000Z</time>
      </trkpt>
      <trkpt lat="44.08776" lon="6.83947">
        <ele>1192</ele>
        <time>2020-09-05T08:53:44.000Z</time>
      </trkpt>
      <trkpt lat="44.08778" lon="6.83939">
        <ele>1193.1999511719</ele>
        <time>2020-09-05T08:53:48.000Z</time>
      </trkpt>
      <trkpt lat="44.08775" lon="6.83935">
        <ele>1194.4000244141</ele>
        <time>2020-09-05T08:53:51.000Z</time>
      </trkpt>
      <trkpt lat="44.08775" lon="6.83935">
        <ele>1195.1999511719</ele>
        <time>2020-09-05T08:53:53.000Z</time>
      </trkpt>
      <trkpt lat="44.08774" lon="6.83934">
        <ele>1195.4000244141</ele>
        <time>2020-09-05T08:53:54.000Z</time>
      </trkpt>
      <trkpt lat="44.08772" lon="6.83932">
        <ele>1196.4000244141</ele>
        <time>2020-09-05T08:54:00.000Z</time>
      </trkpt>
      <trkpt lat="44.08771" lon="6.83927">
        <ele>1197</ele>
        <time>2020-09-05T08:54:07.000Z</time>
      </trkpt>
      <trkpt lat="44.08767" lon="6.83923">
        <ele>1197.4000244141</ele>
        <time>2020-09-05T08:54:13.000Z</time>
      </trkpt>
      <trkpt lat="44.08759" lon="6.83909">
        <ele>1198.8000488281</ele>
        <time>2020-09-05T08:54:19.000Z</time>
      </trkpt>
      <trkpt lat="44.08758" lon="6.83908">
        <ele>1199</ele>
        <time>2020-09-05T08:54:20.000Z</time>
      </trkpt>
      <trkpt lat="44.08756" lon="6.83908">
        <ele>1200</ele>
        <time>2020-09-05T08:54:23.000Z</time>
      </trkpt>
      <trkpt lat="44.08757" lon="6.83908">
        <ele>1200.1999511719</ele>
        <time>2020-09-05T08:54:24.000Z</time>
      </trkpt>
      <trkpt lat="44.08756" lon="6.83903">
        <ele>1200.8000488281</ele>
        <time>2020-09-05T08:54:30.000Z</time>
      </trkpt>
      <trkpt lat="44.08757" lon="6.83901">
        <ele>1201</ele>
        <time>2020-09-05T08:54:33.000Z</time>
      </trkpt>
      <trkpt lat="44.08759" lon="6.83898">
        <ele>1201.5999755859</ele>
        <time>2020-09-05T08:54:37.000Z</time>
      </trkpt>
      <trkpt lat="44.0876" lon="6.83899">
        <ele>1202.1999511719</ele>
        <time>2020-09-05T08:54:41.000Z</time>
      </trkpt>
      <trkpt lat="44.08762" lon="6.83899">
        <ele>1202.4000244141</ele>
        <time>2020-09-05T08:54:42.000Z</time>
      </trkpt>
      <trkpt lat="44.0877" lon="6.83894">
        <ele>1203</ele>
        <time>2020-09-05T08:54:47.000Z</time>
      </trkpt>
      <trkpt lat="44.08773" lon="6.83893">
        <ele>1203.4000244141</ele>
        <time>2020-09-05T08:54:49.000Z</time>
      </trkpt>
      <trkpt lat="44.08783" lon="6.8389">
        <ele>1204.1999511719</ele>
        <time>2020-09-05T08:54:54.000Z</time>
      </trkpt>
      <trkpt lat="44.08784" lon="6.83889">
        <ele>1204.4000244141</ele>
        <time>2020-09-05T08:54:55.000Z</time>
      </trkpt>
      <trkpt lat="44.08784" lon="6.83887">
        <ele>1204.8000488281</ele>
        <time>2020-09-05T08:54:56.000Z</time>
      </trkpt>
      <trkpt lat="44.08782" lon="6.83883">
        <ele>1205.4000244141</ele>
        <time>2020-09-05T08:54:58.000Z</time>
      </trkpt>
      <trkpt lat="44.08779" lon="6.83883">
        <ele>1205.8000488281</ele>
        <time>2020-09-05T08:54:59.000Z</time>
      </trkpt>
      <trkpt lat="44.08776" lon="6.83884">
        <ele>1206.4000244141</ele>
        <time>2020-09-05T08:55:01.000Z</time>
      </trkpt>
      <trkpt lat="44.08773" lon="6.83884">
        <ele>1206.5999755859</ele>
        <time>2020-09-05T08:55:02.000Z</time>
      </trkpt>
      <trkpt lat="44.08769" lon="6.83883">
        <ele>1207</ele>
        <time>2020-09-05T08:55:04.000Z</time>
      </trkpt>
      <trkpt lat="44.08756" lon="6.83876">
        <ele>1207.8000488281</ele>
        <time>2020-09-05T08:55:11.000Z</time>
      </trkpt>
      <trkpt lat="44.08755" lon="6.83874">
        <ele>1208</ele>
        <time>2020-09-05T08:55:12.000Z</time>
      </trkpt>
      <trkpt lat="44.08751" lon="6.8386">
        <ele>1208.8000488281</ele>
        <time>2020-09-05T08:55:17.000Z</time>
      </trkpt>
      <trkpt lat="44.08751" lon="6.83858">
        <ele>1209</ele>
        <time>2020-09-05T08:55:18.000Z</time>
      </trkpt>
      <trkpt lat="44.08753" lon="6.83852">
        <ele>1209.4000244141</ele>
        <time>2020-09-05T08:55:20.000Z</time>
      </trkpt>
      <trkpt lat="44.08758" lon="6.83851">
        <ele>1209.5999755859</ele>
        <time>2020-09-05T08:55:22.000Z</time>
      </trkpt>
      <trkpt lat="44.08765" lon="6.83854">
        <ele>1210.1999511719</ele>
        <time>2020-09-05T08:55:25.000Z</time>
      </trkpt>
      <trkpt lat="44.08769" lon="6.83856">
        <ele>1210.8000488281</ele>
        <time>2020-09-05T08:55:27.000Z</time>
      </trkpt>
      <trkpt lat="44.08773" lon="6.83858">
        <ele>1211.4000244141</ele>
        <time>2020-09-05T08:55:29.000Z</time>
      </trkpt>
      <trkpt lat="44.0878" lon="6.83859">
        <ele>1211.8000488281</ele>
        <time>2020-09-05T08:55:33.000Z</time>
      </trkpt>
      <trkpt lat="44.08786" lon="6.8386">
        <ele>1212.5999755859</ele>
        <time>2020-09-05T08:55:37.000Z</time>
      </trkpt>
      <trkpt lat="44.08787" lon="6.83859">
        <ele>1212.5999755859</ele>
        <time>2020-09-05T08:55:38.000Z</time>
      </trkpt>
      <trkpt lat="44.08782" lon="6.83852">
        <ele>1213.1999511719</ele>
        <time>2020-09-05T08:55:41.000Z</time>
      </trkpt>
      <trkpt lat="44.08778" lon="6.83851">
        <ele>1213.5999755859</ele>
        <time>2020-09-05T08:55:43.000Z</time>
      </trkpt>
      <trkpt lat="44.08773" lon="6.83849">
        <ele>1214</ele>
        <time>2020-09-05T08:55:45.000Z</time>
      </trkpt>
      <trkpt lat="44.08765" lon="6.83842">
        <ele>1214.5999755859</ele>
        <time>2020-09-05T08:55:49.000Z</time>
      </trkpt>
      <trkpt lat="44.08762" lon="6.83838">
        <ele>1215.1999511719</ele>
        <time>2020-09-05T08:55:51.000Z</time>
      </trkpt>
      <trkpt lat="44.08757" lon="6.83833">
        <ele>1215.8000488281</ele>
        <time>2020-09-05T08:55:54.000Z</time>
      </trkpt>
      <trkpt lat="44.08752" lon="6.83826">
        <ele>1216.1999511719</ele>
        <time>2020-09-05T08:55:58.000Z</time>
      </trkpt>
      <trkpt lat="44.0875" lon="6.83812">
        <ele>1216</ele>
        <time>2020-09-05T08:56:03.000Z</time>
      </trkpt>
      <trkpt lat="44.08751" lon="6.83804">
        <ele>1216.5999755859</ele>
        <time>2020-09-05T08:56:07.000Z</time>
      </trkpt>
      <trkpt lat="44.0875" lon="6.83803">
        <ele>1217</ele>
        <time>2020-09-05T08:56:08.000Z</time>
      </trkpt>
      <trkpt lat="44.08751" lon="6.83805">
        <ele>1217.1999511719</ele>
        <time>2020-09-05T08:56:09.000Z</time>
      </trkpt>
      <trkpt lat="44.0875" lon="6.83803">
        <ele>1218</ele>
        <time>2020-09-05T08:56:11.000Z</time>
      </trkpt>
      <trkpt lat="44.08751" lon="6.83802">
        <ele>1219.1999511719</ele>
        <time>2020-09-05T08:56:14.000Z</time>
      </trkpt>
      <trkpt lat="44.08751" lon="6.83802">
        <ele>1219.1999511719</ele>
        <time>2020-09-05T08:56:15.000Z</time>
      </trkpt>
      <trkpt lat="44.08749" lon="6.83801">
        <ele>1219.4000244141</ele>
        <time>2020-09-05T08:56:21.000Z</time>
      </trkpt>
      <trkpt lat="44.08748" lon="6.83799">
        <ele>1219.5999755859</ele>
        <time>2020-09-05T08:56:22.000Z</time>
      </trkpt>
      <trkpt lat="44.08743" lon="6.83795">
        <ele>1220.1999511719</ele>
        <time>2020-09-05T08:56:27.000Z</time>
      </trkpt>
      <trkpt lat="44.0874" lon="6.83794">
        <ele>1221</ele>
        <time>2020-09-05T08:56:29.000Z</time>
      </trkpt>
      <trkpt lat="44.08739" lon="6.83794">
        <ele>1221.4000244141</ele>
        <time>2020-09-05T08:56:30.000Z</time>
      </trkpt>
      <trkpt lat="44.08734" lon="6.83794">
        <ele>1222.1999511719</ele>
        <time>2020-09-05T08:56:34.000Z</time>
      </trkpt>
      <trkpt lat="44.08731" lon="6.83794">
        <ele>1222.4000244141</ele>
        <time>2020-09-05T08:56:36.000Z</time>
      </trkpt>
      <trkpt lat="44.08725" lon="6.83795">
        <ele>1223.1999511719</ele>
        <time>2020-09-05T08:56:39.000Z</time>
      </trkpt>
      <trkpt lat="44.08723" lon="6.83794">
        <ele>1223.4000244141</ele>
        <time>2020-09-05T08:56:40.000Z</time>
      </trkpt>
      <trkpt lat="44.08719" lon="6.83791">
        <ele>1223.8000488281</ele>
        <time>2020-09-05T08:56:43.000Z</time>
      </trkpt>
      <trkpt lat="44.08717" lon="6.8379">
        <ele>1224.5999755859</ele>
        <time>2020-09-05T08:56:47.000Z</time>
      </trkpt>
      <trkpt lat="44.08716" lon="6.83789">
        <ele>1225</ele>
        <time>2020-09-05T08:56:49.000Z</time>
      </trkpt>
      <trkpt lat="44.08714" lon="6.83787">
        <ele>1225.1999511719</ele>
        <time>2020-09-05T08:56:57.000Z</time>
      </trkpt>
      <trkpt lat="44.08712" lon="6.83785">
        <ele>1225.1999511719</ele>
        <time>2020-09-05T08:57:04.000Z</time>
      </trkpt>
      <trkpt lat="44.08711" lon="6.83782">
        <ele>1225.5999755859</ele>
        <time>2020-09-05T08:57:10.000Z</time>
      </trkpt>
      <trkpt lat="44.0871" lon="6.83781">
        <ele>1225.8000488281</ele>
        <time>2020-09-05T08:57:12.000Z</time>
      </trkpt>
      <trkpt lat="44.08711" lon="6.8378">
        <ele>1226.5999755859</ele>
        <time>2020-09-05T08:57:19.000Z</time>
      </trkpt>
      <trkpt lat="44.08711" lon="6.8378">
        <ele>1226.8000488281</ele>
        <time>2020-09-05T08:57:21.000Z</time>
      </trkpt>
      <trkpt lat="44.08712" lon="6.8378">
        <ele>1227.1999511719</ele>
        <time>2020-09-05T08:57:25.000Z</time>
      </trkpt>
      <trkpt lat="44.08711" lon="6.83779">
        <ele>1227.4000244141</ele>
        <time>2020-09-05T08:57:32.000Z</time>
      </trkpt>
      <trkpt lat="44.08713" lon="6.83779">
        <ele>1227.4000244141</ele>
        <time>2020-09-05T08:57:33.000Z</time>
      </trkpt>
      <trkpt lat="44.08718" lon="6.83776">
        <ele>1227.5999755859</ele>
        <time>2020-09-05T08:57:37.000Z</time>
      </trkpt>
      <trkpt lat="44.08718" lon="6.83774">
        <ele>1227.5999755859</ele>
        <time>2020-09-05T08:57:38.000Z</time>
      </trkpt>
      <trkpt lat="44.08719" lon="6.83773">
        <ele>1227.8000488281</ele>
        <time>2020-09-05T08:57:39.000Z</time>
      </trkpt>
      <trkpt lat="44.08719" lon="6.83773">
        <ele>1228.8000488281</ele>
        <time>2020-09-05T08:57:42.000Z</time>
      </trkpt>
      <trkpt lat="44.08719" lon="6.83772">
        <ele>1229</ele>
        <time>2020-09-05T08:57:43.000Z</time>
      </trkpt>
      <trkpt lat="44.0872" lon="6.83771">
        <ele>1229</ele>
        <time>2020-09-05T08:57:50.000Z</time>
      </trkpt>
      <trkpt lat="44.08721" lon="6.8377">
        <ele>1230</ele>
        <time>2020-09-05T08:57:58.000Z</time>
      </trkpt>
      <trkpt lat="44.08721" lon="6.8377">
        <ele>1230</ele>
        <time>2020-09-05T08:57:59.000Z</time>
      </trkpt>
      <trkpt lat="44.08722" lon="6.83769">
        <ele>1230</ele>
        <time>2020-09-05T08:58:10.000Z</time>
      </trkpt>
      <trkpt lat="44.08723" lon="6.83768">
        <ele>1230.4000244141</ele>
        <time>2020-09-05T08:58:19.000Z</time>
      </trkpt>
      <trkpt lat="44.08726" lon="6.83767">
        <ele>1230.8000488281</ele>
        <time>2020-09-05T08:58:25.000Z</time>
      </trkpt>
      <trkpt lat="44.08727" lon="6.83766">
        <ele>1231</ele>
        <time>2020-09-05T08:58:28.000Z</time>
      </trkpt>
      <trkpt lat="44.08728" lon="6.83766">
        <ele>1231.4000244141</ele>
        <time>2020-09-05T08:58:32.000Z</time>
      </trkpt>
      <trkpt lat="44.08729" lon="6.83764">
        <ele>1232</ele>
        <time>2020-09-05T08:58:42.000Z</time>
      </trkpt>
      <trkpt lat="44.0873" lon="6.83764">
        <ele>1232</ele>
        <time>2020-09-05T08:58:45.000Z</time>
      </trkpt>
      <trkpt lat="44.08731" lon="6.83764">
        <ele>1232.4000244141</ele>
        <time>2020-09-05T08:58:48.000Z</time>
      </trkpt>
      <trkpt lat="44.08733" lon="6.83762">
        <ele>1233.1999511719</ele>
        <time>2020-09-05T08:58:55.000Z</time>
      </trkpt>
      <trkpt lat="44.08732" lon="6.83762">
        <ele>1233.5999755859</ele>
        <time>2020-09-05T08:59:04.000Z</time>
      </trkpt>
      <trkpt lat="44.08732" lon="6.83763">
        <ele>1233.5999755859</ele>
        <time>2020-09-05T08:59:13.000Z</time>
      </trkpt>
      <trkpt lat="44.08732" lon="6.83762">
        <ele>1233.8000488281</ele>
        <time>2020-09-05T08:59:23.000Z</time>
      </trkpt>
      <trkpt lat="44.08732" lon="6.83762">
        <ele>1233.8000488281</ele>
        <time>2020-09-05T08:59:32.000Z</time>
      </trkpt>
      <trkpt lat="44.08732" lon="6.83762">
        <ele>1233.8000488281</ele>
        <time>2020-09-05T08:59:43.000Z</time>
      </trkpt>
      <trkpt lat="44.08732" lon="6.83762">
        <ele>1233.8000488281</ele>
        <time>2020-09-05T08:59:56.000Z</time>
      </trkpt>
      <trkpt lat="44.08732" lon="6.83763">
        <ele>1233.8000488281</ele>
        <time>2020-09-05T09:00:00.000Z</time>
      </trkpt>
      <trkpt lat="44.08732" lon="6.83761">
        <ele>1233.5999755859</ele>
        <time>2020-09-05T09:00:01.000Z</time>
      </trkpt>
      <trkpt lat="44.08731" lon="6.83761">
        <ele>1233.5999755859</ele>
        <time>2020-09-05T09:00:03.000Z</time>
      </trkpt>
      <trkpt lat="44.08722" lon="6.8376">
        <ele>1233.8000488281</ele>
        <time>2020-09-05T09:00:07.000Z</time>
      </trkpt>
      <trkpt lat="44.08711" lon="6.83757">
        <ele>1234.1999511719</ele>
        <time>2020-09-05T09:00:11.000Z</time>
      </trkpt>
      <trkpt lat="44.08706" lon="6.83755">
        <ele>1234.1999511719</ele>
        <time>2020-09-05T09:00:13.000Z</time>
      </trkpt>
      <trkpt lat="44.08692" lon="6.83746">
        <ele>1235.1999511719</ele>
        <time>2020-09-05T09:00:20.000Z</time>
      </trkpt>
      <trkpt lat="44.08681" lon="6.83747">
        <ele>1236</ele>
        <time>2020-09-05T09:00:26.000Z</time>
      </trkpt>
      <trkpt lat="44.08676" lon="6.83748">
        <ele>1236.1999511719</ele>
        <time>2020-09-05T09:00:29.000Z</time>
      </trkpt>
      <trkpt lat="44.08676" lon="6.83746">
        <ele>1236.1999511719</ele>
        <time>2020-09-05T09:00:31.000Z</time>
      </trkpt>
      <trkpt lat="44.08683" lon="6.83739">
        <ele>1236.1999511719</ele>
        <time>2020-09-05T09:00:36.000Z</time>
      </trkpt>
      <trkpt lat="44.08683" lon="6.83738">
        <ele>1236.4000244141</ele>
        <time>2020-09-05T09:00:37.000Z</time>
      </trkpt>
      <trkpt lat="44.08682" lon="6.83739">
        <ele>1236.8000488281</ele>
        <time>2020-09-05T09:00:39.000Z</time>
      </trkpt>
      <trkpt lat="44.08683" lon="6.83739">
        <ele>1237.4000244141</ele>
        <time>2020-09-05T09:00:43.000Z</time>
      </trkpt>
      <trkpt lat="44.08684" lon="6.83737">
        <ele>1237.4000244141</ele>
        <time>2020-09-05T09:00:44.000Z</time>
      </trkpt>
      <trkpt lat="44.08693" lon="6.83734">
        <ele>1238.1999511719</ele>
        <time>2020-09-05T09:00:49.000Z</time>
      </trkpt>
      <trkpt lat="44.08694" lon="6.83732">
        <ele>1238.5999755859</ele>
        <time>2020-09-05T09:00:50.000Z</time>
      </trkpt>
      <trkpt lat="44.08699" lon="6.83731">
        <ele>1240</ele>
        <time>2020-09-05T09:00:53.000Z</time>
      </trkpt>
      <trkpt lat="44.08703" lon="6.8373">
        <ele>1241</ele>
        <time>2020-09-05T09:00:55.000Z</time>
      </trkpt>
      <trkpt lat="44.08709" lon="6.83731">
        <ele>1242.4000244141</ele>
        <time>2020-09-05T09:00:58.000Z</time>
      </trkpt>
      <trkpt lat="44.08714" lon="6.83732">
        <ele>1243.5999755859</ele>
        <time>2020-09-05T09:01:01.000Z</time>
      </trkpt>
      <trkpt lat="44.0872" lon="6.8373">
        <ele>1244.5999755859</ele>
        <time>2020-09-05T09:01:04.000Z</time>
      </trkpt>
      <trkpt lat="44.0872" lon="6.8373">
        <ele>1246</ele>
        <time>2020-09-05T09:01:07.000Z</time>
      </trkpt>
      <trkpt lat="44.08721" lon="6.83729">
        <ele>1247</ele>
        <time>2020-09-05T09:01:10.000Z</time>
      </trkpt>
      <trkpt lat="44.08721" lon="6.83729">
        <ele>1247.4000244141</ele>
        <time>2020-09-05T09:01:15.000Z</time>
      </trkpt>
      <trkpt lat="44.08724" lon="6.8373">
        <ele>1247.5999755859</ele>
        <time>2020-09-05T09:01:21.000Z</time>
      </trkpt>
      <trkpt lat="44.08726" lon="6.8373">
        <ele>1248.1999511719</ele>
        <time>2020-09-05T09:01:25.000Z</time>
      </trkpt>
      <trkpt lat="44.08726" lon="6.8373">
        <ele>1248.4000244141</ele>
        <time>2020-09-05T09:01:28.000Z</time>
      </trkpt>
      <trkpt lat="44.08724" lon="6.83726">
        <ele>1249</ele>
        <time>2020-09-05T09:01:34.000Z</time>
      </trkpt>
      <trkpt lat="44.08724" lon="6.83726">
        <ele>1249.1999511719</ele>
        <time>2020-09-05T09:01:36.000Z</time>
      </trkpt>
      <trkpt lat="44.08725" lon="6.83724">
        <ele>1249.4000244141</ele>
        <time>2020-09-05T09:01:38.000Z</time>
      </trkpt>
      <trkpt lat="44.08724" lon="6.83725">
        <ele>1249.5999755859</ele>
        <time>2020-09-05T09:01:40.000Z</time>
      </trkpt>
      <trkpt lat="44.08721" lon="6.83722">
        <ele>1250</ele>
        <time>2020-09-05T09:01:46.000Z</time>
      </trkpt>
      <trkpt lat="44.08716" lon="6.8372">
        <ele>1250.1999511719</ele>
        <time>2020-09-05T09:01:49.000Z</time>
      </trkpt>
      <trkpt lat="44.0871" lon="6.83716">
        <ele>1250.5999755859</ele>
        <time>2020-09-05T09:01:52.000Z</time>
      </trkpt>
      <trkpt lat="44.08704" lon="6.83714">
        <ele>1251.1999511719</ele>
        <time>2020-09-05T09:01:55.000Z</time>
      </trkpt>
      <trkpt lat="44.08699" lon="6.83711">
        <ele>1252</ele>
        <time>2020-09-05T09:01:58.000Z</time>
      </trkpt>
      <trkpt lat="44.08697" lon="6.83709">
        <ele>1252.4000244141</ele>
        <time>2020-09-05T09:02:00.000Z</time>
      </trkpt>
      <trkpt lat="44.08698" lon="6.83707">
        <ele>1252.5999755859</ele>
        <time>2020-09-05T09:02:01.000Z</time>
      </trkpt>
      <trkpt lat="44.087" lon="6.83707">
        <ele>1253</ele>
        <time>2020-09-05T09:02:02.000Z</time>
      </trkpt>
      <trkpt lat="44.08703" lon="6.83707">
        <ele>1253.5999755859</ele>
        <time>2020-09-05T09:02:04.000Z</time>
      </trkpt>
      <trkpt lat="44.08707" lon="6.83707">
        <ele>1254.1999511719</ele>
        <time>2020-09-05T09:02:06.000Z</time>
      </trkpt>
      <trkpt lat="44.08709" lon="6.83707">
        <ele>1254.5999755859</ele>
        <time>2020-09-05T09:02:07.000Z</time>
      </trkpt>
      <trkpt lat="44.0871" lon="6.83707">
        <ele>1255</ele>
        <time>2020-09-05T09:02:08.000Z</time>
      </trkpt>
      <trkpt lat="44.08718" lon="6.83705">
        <ele>1256.1999511719</ele>
        <time>2020-09-05T09:02:12.000Z</time>
      </trkpt>
      <trkpt lat="44.08723" lon="6.83705">
        <ele>1256.8000488281</ele>
        <time>2020-09-05T09:02:14.000Z</time>
      </trkpt>
      <trkpt lat="44.08726" lon="6.83706">
        <ele>1257.4000244141</ele>
        <time>2020-09-05T09:02:16.000Z</time>
      </trkpt>
      <trkpt lat="44.08733" lon="6.83709">
        <ele>1258.5999755859</ele>
        <time>2020-09-05T09:02:19.000Z</time>
      </trkpt>
      <trkpt lat="44.08734" lon="6.83709">
        <ele>1259</ele>
        <time>2020-09-05T09:02:20.000Z</time>
      </trkpt>
      <trkpt lat="44.08737" lon="6.83709">
        <ele>1259.8000488281</ele>
        <time>2020-09-05T09:02:22.000Z</time>
      </trkpt>
      <trkpt lat="44.08741" lon="6.8371">
        <ele>1260.8000488281</ele>
        <time>2020-09-05T09:02:24.000Z</time>
      </trkpt>
      <trkpt lat="44.08743" lon="6.83712">
        <ele>1261.8000488281</ele>
        <time>2020-09-05T09:02:26.000Z</time>
      </trkpt>
      <trkpt lat="44.08746" lon="6.83713">
        <ele>1263.1999511719</ele>
        <time>2020-09-05T09:02:29.000Z</time>
      </trkpt>
      <trkpt lat="44.08747" lon="6.83712">
        <ele>1263.5999755859</ele>
        <time>2020-09-05T09:02:30.000Z</time>
      </trkpt>
      <trkpt lat="44.08748" lon="6.8371">
        <ele>1264.1999511719</ele>
        <time>2020-09-05T09:02:32.000Z</time>
      </trkpt>
      <trkpt lat="44.08748" lon="6.83708">
        <ele>1264.4000244141</ele>
        <time>2020-09-05T09:02:33.000Z</time>
      </trkpt>
      <trkpt lat="44.08745" lon="6.83706">
        <ele>1265.1999511719</ele>
        <time>2020-09-05T09:02:37.000Z</time>
      </trkpt>
      <trkpt lat="44.08745" lon="6.83706">
        <ele>1265.5999755859</ele>
        <time>2020-09-05T09:02:38.000Z</time>
      </trkpt>
      <trkpt lat="44.08739" lon="6.83697">
        <ele>1266.5999755859</ele>
        <time>2020-09-05T09:02:43.000Z</time>
      </trkpt>
      <trkpt lat="44.08731" lon="6.83687">
        <ele>1267.8000488281</ele>
        <time>2020-09-05T09:02:48.000Z</time>
      </trkpt>
      <trkpt lat="44.08725" lon="6.83682">
        <ele>1268.8000488281</ele>
        <time>2020-09-05T09:02:51.000Z</time>
      </trkpt>
      <trkpt lat="44.08719" lon="6.83679">
        <ele>1270</ele>
        <time>2020-09-05T09:02:54.000Z</time>
      </trkpt>
      <trkpt lat="44.08713" lon="6.83677">
        <ele>1271.1999511719</ele>
        <time>2020-09-05T09:02:57.000Z</time>
      </trkpt>
      <trkpt lat="44.08706" lon="6.83674">
        <ele>1272.1999511719</ele>
        <time>2020-09-05T09:03:01.000Z</time>
      </trkpt>
      <trkpt lat="44.08698" lon="6.83668">
        <ele>1273.5999755859</ele>
        <time>2020-09-05T09:03:05.000Z</time>
      </trkpt>
      <trkpt lat="44.08693" lon="6.83663">
        <ele>1274.8000488281</ele>
        <time>2020-09-05T09:03:08.000Z</time>
      </trkpt>
      <trkpt lat="44.08688" lon="6.83659">
        <ele>1275.8000488281</ele>
        <time>2020-09-05T09:03:11.000Z</time>
      </trkpt>
      <trkpt lat="44.08684" lon="6.83654">
        <ele>1277</ele>
        <time>2020-09-05T09:03:14.000Z</time>
      </trkpt>
      <trkpt lat="44.08679" lon="6.83651">
        <ele>1277.8000488281</ele>
        <time>2020-09-05T09:03:17.000Z</time>
      </trkpt>
      <trkpt lat="44.08677" lon="6.83649">
        <ele>1278</ele>
        <time>2020-09-05T09:03:18.000Z</time>
      </trkpt>
      <trkpt lat="44.0867" lon="6.8364">
        <ele>1279.1999511719</ele>
        <time>2020-09-05T09:03:23.000Z</time>
      </trkpt>
      <trkpt lat="44.08669" lon="6.83638">
        <ele>1279.1999511719</ele>
        <time>2020-09-05T09:03:24.000Z</time>
      </trkpt>
      <trkpt lat="44.08662" lon="6.8363">
        <ele>1280.1999511719</ele>
        <time>2020-09-05T09:03:28.000Z</time>
      </trkpt>
      <trkpt lat="44.08657" lon="6.83619">
        <ele>1281.1999511719</ele>
        <time>2020-09-05T09:03:32.000Z</time>
      </trkpt>
      <trkpt lat="44.08656" lon="6.83618">
        <ele>1281.4000244141</ele>
        <time>2020-09-05T09:03:33.000Z</time>
      </trkpt>
      <trkpt lat="44.08651" lon="6.83611">
        <ele>1282.5999755859</ele>
        <time>2020-09-05T09:03:37.000Z</time>
      </trkpt>
      <trkpt lat="44.08649" lon="6.83609">
        <ele>1283.1999511719</ele>
        <time>2020-09-05T09:03:39.000Z</time>
      </trkpt>
      <trkpt lat="44.08649" lon="6.83607">
        <ele>1283.5999755859</ele>
        <time>2020-09-05T09:03:41.000Z</time>
      </trkpt>
      <trkpt lat="44.0865" lon="6.83605">
        <ele>1283.8000488281</ele>
        <time>2020-09-05T09:03:42.000Z</time>
      </trkpt>
      <trkpt lat="44.08652" lon="6.83606">
        <ele>1284.1999511719</ele>
        <time>2020-09-05T09:03:44.000Z</time>
      </trkpt>
      <trkpt lat="44.0866" lon="6.83606">
        <ele>1284.8000488281</ele>
        <time>2020-09-05T09:03:48.000Z</time>
      </trkpt>
      <trkpt lat="44.08661" lon="6.83607">
        <ele>1285.1999511719</ele>
        <time>2020-09-05T09:03:49.000Z</time>
      </trkpt>
      <trkpt lat="44.08665" lon="6.83609">
        <ele>1285.8000488281</ele>
        <time>2020-09-05T09:03:51.000Z</time>
      </trkpt>
      <trkpt lat="44.08669" lon="6.83612">
        <ele>1287.1999511719</ele>
        <time>2020-09-05T09:03:54.000Z</time>
      </trkpt>
      <trkpt lat="44.08672" lon="6.83612">
        <ele>1287.5999755859</ele>
        <time>2020-09-05T09:03:55.000Z</time>
      </trkpt>
      <trkpt lat="44.08675" lon="6.83611">
        <ele>1288.4000244141</ele>
        <time>2020-09-05T09:03:57.000Z</time>
      </trkpt>
      <trkpt lat="44.08679" lon="6.83609">
        <ele>1289.4000244141</ele>
        <time>2020-09-05T09:03:59.000Z</time>
      </trkpt>
      <trkpt lat="44.0868" lon="6.83608">
        <ele>1289.5999755859</ele>
        <time>2020-09-05T09:04:00.000Z</time>
      </trkpt>
      <trkpt lat="44.08681" lon="6.83606">
        <ele>1290.1999511719</ele>
        <time>2020-09-05T09:04:01.000Z</time>
      </trkpt>
      <trkpt lat="44.08683" lon="6.83604">
        <ele>1290.5999755859</ele>
        <time>2020-09-05T09:04:02.000Z</time>
      </trkpt>
      <trkpt lat="44.08687" lon="6.836">
        <ele>1291.8000488281</ele>
        <time>2020-09-05T09:04:05.000Z</time>
      </trkpt>
      <trkpt lat="44.08688" lon="6.83599">
        <ele>1292</ele>
        <time>2020-09-05T09:04:06.000Z</time>
      </trkpt>
      <trkpt lat="44.08689" lon="6.83598">
        <ele>1292.1999511719</ele>
        <time>2020-09-05T09:04:07.000Z</time>
      </trkpt>
      <trkpt lat="44.087" lon="6.83592">
        <ele>1292.8000488281</ele>
        <time>2020-09-05T09:04:13.000Z</time>
      </trkpt>
      <trkpt lat="44.08702" lon="6.83592">
        <ele>1293</ele>
        <time>2020-09-05T09:04:14.000Z</time>
      </trkpt>
      <trkpt lat="44.08714" lon="6.83583">
        <ele>1293.8000488281</ele>
        <time>2020-09-05T09:04:22.000Z</time>
      </trkpt>
      <trkpt lat="44.08715" lon="6.8358">
        <ele>1294</ele>
        <time>2020-09-05T09:04:23.000Z</time>
      </trkpt>
      <trkpt lat="44.08722" lon="6.83566">
        <ele>1294.8000488281</ele>
        <time>2020-09-05T09:04:30.000Z</time>
      </trkpt>
      <trkpt lat="44.08725" lon="6.83562">
        <ele>1295</ele>
        <time>2020-09-05T09:04:32.000Z</time>
      </trkpt>
      <trkpt lat="44.08729" lon="6.83552">
        <ele>1295.4000244141</ele>
        <time>2020-09-05T09:04:37.000Z</time>
      </trkpt>
      <trkpt lat="44.08736" lon="6.83541">
        <ele>1296</ele>
        <time>2020-09-05T09:04:43.000Z</time>
      </trkpt>
      <trkpt lat="44.08745" lon="6.8353">
        <ele>1297</ele>
        <time>2020-09-05T09:04:50.000Z</time>
      </trkpt>
      <trkpt lat="44.08746" lon="6.83528">
        <ele>1297</ele>
        <time>2020-09-05T09:04:51.000Z</time>
      </trkpt>
      <trkpt lat="44.08758" lon="6.83522">
        <ele>1297.8000488281</ele>
        <time>2020-09-05T09:04:58.000Z</time>
      </trkpt>
      <trkpt lat="44.08763" lon="6.83523">
        <ele>1298</ele>
        <time>2020-09-05T09:05:01.000Z</time>
      </trkpt>
      <trkpt lat="44.08767" lon="6.83525">
        <ele>1298.5999755859</ele>
        <time>2020-09-05T09:05:05.000Z</time>
      </trkpt>
      <trkpt lat="44.08768" lon="6.83525">
        <ele>1298.5999755859</ele>
        <time>2020-09-05T09:05:11.000Z</time>
      </trkpt>
      <trkpt lat="44.08768" lon="6.83523">
        <ele>1298.1999511719</ele>
        <time>2020-09-05T09:05:18.000Z</time>
      </trkpt>
      <trkpt lat="44.08769" lon="6.83525">
        <ele>1298.1999511719</ele>
        <time>2020-09-05T09:05:25.000Z</time>
      </trkpt>
      <trkpt lat="44.08769" lon="6.83526">
        <ele>1298.1999511719</ele>
        <time>2020-09-05T09:05:26.000Z</time>
      </trkpt>
      <trkpt lat="44.08769" lon="6.83527">
        <ele>1298</ele>
        <time>2020-09-05T09:05:31.000Z</time>
      </trkpt>
      <trkpt lat="44.08769" lon="6.83525">
        <ele>1297.5999755859</ele>
        <time>2020-09-05T09:05:45.000Z</time>
      </trkpt>
      <trkpt lat="44.08772" lon="6.83524">
        <ele>1297.4000244141</ele>
        <time>2020-09-05T09:05:58.000Z</time>
      </trkpt>
      <trkpt lat="44.08776" lon="6.83523">
        <ele>1297.4000244141</ele>
        <time>2020-09-05T09:06:18.000Z</time>
      </trkpt>
      <trkpt lat="44.08778" lon="6.83519">
        <ele>1297.5999755859</ele>
        <time>2020-09-05T09:06:40.000Z</time>
      </trkpt>
      <trkpt lat="44.0878" lon="6.83515">
        <ele>1297.5999755859</ele>
        <time>2020-09-05T09:06:59.000Z</time>
      </trkpt>
      <trkpt lat="44.08778" lon="6.83516">
        <ele>1297.8000488281</ele>
        <time>2020-09-05T09:07:02.000Z</time>
      </trkpt>
      <trkpt lat="44.08777" lon="6.83517">
        <ele>1297.5999755859</ele>
        <time>2020-09-05T09:07:03.000Z</time>
      </trkpt>
      <trkpt lat="44.08775" lon="6.83518">
        <ele>1297.8000488281</ele>
        <time>2020-09-05T09:07:08.000Z</time>
      </trkpt>
      <trkpt lat="44.08771" lon="6.83518">
        <ele>1298</ele>
        <time>2020-09-05T09:07:12.000Z</time>
      </trkpt>
      <trkpt lat="44.08771" lon="6.83519">
        <ele>1297.8000488281</ele>
        <time>2020-09-05T09:07:14.000Z</time>
      </trkpt>
      <trkpt lat="44.08771" lon="6.83518">
        <ele>1297.8000488281</ele>
        <time>2020-09-05T09:07:23.000Z</time>
      </trkpt>
      <trkpt lat="44.08771" lon="6.83518">
        <ele>1297.5999755859</ele>
        <time>2020-09-05T09:07:29.000Z</time>
      </trkpt>
      <trkpt lat="44.0877" lon="6.83519">
        <ele>1298</ele>
        <time>2020-09-05T09:07:40.000Z</time>
      </trkpt>
      <trkpt lat="44.0877" lon="6.8352">
        <ele>1298</ele>
        <time>2020-09-05T09:07:50.000Z</time>
      </trkpt>
      <trkpt lat="44.0877" lon="6.83519">
        <ele>1298</ele>
        <time>2020-09-05T09:08:01.000Z</time>
      </trkpt>
      <trkpt lat="44.08772" lon="6.83516">
        <ele>1298</ele>
        <time>2020-09-05T09:08:08.000Z</time>
      </trkpt>
      <trkpt lat="44.08773" lon="6.83519">
        <ele>1298</ele>
        <time>2020-09-05T09:08:11.000Z</time>
      </trkpt>
      <trkpt lat="44.08773" lon="6.83522">
        <ele>1298.1999511719</ele>
        <time>2020-09-05T09:08:15.000Z</time>
      </trkpt>
      <trkpt lat="44.08774" lon="6.83522">
        <ele>1298.1999511719</ele>
        <time>2020-09-05T09:08:22.000Z</time>
      </trkpt>
      <trkpt lat="44.08775" lon="6.83521">
        <ele>1298.1999511719</ele>
        <time>2020-09-05T09:08:32.000Z</time>
      </trkpt>
      <trkpt lat="44.08775" lon="6.83519">
        <ele>1298.4000244141</ele>
        <time>2020-09-05T09:08:39.000Z</time>
      </trkpt>
      <trkpt lat="44.08774" lon="6.83518">
        <ele>1298.1999511719</ele>
        <time>2020-09-05T09:08:45.000Z</time>
      </trkpt>
      <trkpt lat="44.08773" lon="6.8352">
        <ele>1298.1999511719</ele>
        <time>2020-09-05T09:08:52.000Z</time>
      </trkpt>
      <trkpt lat="44.08772" lon="6.83519">
        <ele>1298.1999511719</ele>
        <time>2020-09-05T09:09:08.000Z</time>
      </trkpt>
      <trkpt lat="44.08772" lon="6.83518">
        <ele>1298.4000244141</ele>
        <time>2020-09-05T09:09:25.000Z</time>
      </trkpt>
      <trkpt lat="44.08771" lon="6.83518">
        <ele>1298.4000244141</ele>
        <time>2020-09-05T09:09:32.000Z</time>
      </trkpt>
      <trkpt lat="44.08771" lon="6.83518">
        <ele>1298.4000244141</ele>
        <time>2020-09-05T09:09:47.000Z</time>
      </trkpt>
      <trkpt lat="44.0877" lon="6.83517">
        <ele>1298.1999511719</ele>
        <time>2020-09-05T09:09:59.000Z</time>
      </trkpt>
      <trkpt lat="44.0877" lon="6.83517">
        <ele>1298.4000244141</ele>
        <time>2020-09-05T09:10:05.000Z</time>
      </trkpt>
      <trkpt lat="44.0877" lon="6.83517">
        <ele>1298.4000244141</ele>
        <time>2020-09-05T09:10:11.000Z</time>
      </trkpt>
      <trkpt lat="44.08771" lon="6.83517">
        <ele>1298.4000244141</ele>
        <time>2020-09-05T09:10:23.000Z</time>
      </trkpt>
      <trkpt lat="44.0877" lon="6.83517">
        <ele>1298.4000244141</ele>
        <time>2020-09-05T09:10:35.000Z</time>
      </trkpt>
      <trkpt lat="44.0877" lon="6.83517">
        <ele>1298.5999755859</ele>
        <time>2020-09-05T09:10:42.000Z</time>
      </trkpt>
      <trkpt lat="44.0877" lon="6.83516">
        <ele>1298.4000244141</ele>
        <time>2020-09-05T09:11:02.000Z</time>
      </trkpt>
      <trkpt lat="44.08769" lon="6.83517">
        <ele>1298.1999511719</ele>
        <time>2020-09-05T09:11:17.000Z</time>
      </trkpt>
      <trkpt lat="44.08768" lon="6.83517">
        <ele>1298.1999511719</ele>
        <time>2020-09-05T09:11:27.000Z</time>
      </trkpt>
      <trkpt lat="44.08768" lon="6.83516">
        <ele>1298.4000244141</ele>
        <time>2020-09-05T09:11:33.000Z</time>
      </trkpt>
      <trkpt lat="44.08766" lon="6.83515">
        <ele>1298.4000244141</ele>
        <time>2020-09-05T09:11:44.000Z</time>
      </trkpt>
      <trkpt lat="44.08767" lon="6.83515">
        <ele>1298.8000488281</ele>
        <time>2020-09-05T09:11:57.000Z</time>
      </trkpt>
      <trkpt lat="44.08766" lon="6.83515">
        <ele>1298.4000244141</ele>
        <time>2020-09-05T09:12:04.000Z</time>
      </trkpt>
      <trkpt lat="44.08765" lon="6.83515">
        <ele>1298.4000244141</ele>
        <time>2020-09-05T09:12:15.000Z</time>
      </trkpt>
      <trkpt lat="44.08764" lon="6.83515">
        <ele>1298.5999755859</ele>
        <time>2020-09-05T09:12:40.000Z</time>
      </trkpt>
      <trkpt lat="44.08764" lon="6.83514">
        <ele>1298.5999755859</ele>
        <time>2020-09-05T09:12:55.000Z</time>
      </trkpt>
      <trkpt lat="44.08763" lon="6.83513">
        <ele>1298.5999755859</ele>
        <time>2020-09-05T09:13:11.000Z</time>
      </trkpt>
      <trkpt lat="44.08762" lon="6.83512">
        <ele>1298.8000488281</ele>
        <time>2020-09-05T09:13:30.000Z</time>
      </trkpt>
      <trkpt lat="44.08762" lon="6.83513">
        <ele>1298.5999755859</ele>
        <time>2020-09-05T09:13:38.000Z</time>
      </trkpt>
      <trkpt lat="44.08764" lon="6.83515">
        <ele>1298.8000488281</ele>
        <time>2020-09-05T09:13:48.000Z</time>
      </trkpt>
      <trkpt lat="44.08764" lon="6.83515">
        <ele>1299.1999511719</ele>
        <time>2020-09-05T09:13:50.000Z</time>
      </trkpt>
      <trkpt lat="44.08765" lon="6.83514">
        <ele>1299.1999511719</ele>
        <time>2020-09-05T09:13:54.000Z</time>
      </trkpt>
      <trkpt lat="44.08766" lon="6.83511">
        <ele>1299</ele>
        <time>2020-09-05T09:13:58.000Z</time>
      </trkpt>
      <trkpt lat="44.08766" lon="6.83509">
        <ele>1299.1999511719</ele>
        <time>2020-09-05T09:13:59.000Z</time>
      </trkpt>
      <trkpt lat="44.08766" lon="6.83507">
        <ele>1299.1999511719</ele>
        <time>2020-09-05T09:14:00.000Z</time>
      </trkpt>
      <trkpt lat="44.08768" lon="6.835">
        <ele>1299.5999755859</ele>
        <time>2020-09-05T09:14:05.000Z</time>
      </trkpt>
      <trkpt lat="44.08769" lon="6.83498">
        <ele>1299.8000488281</ele>
        <time>2020-09-05T09:14:11.000Z</time>
      </trkpt>
      <trkpt lat="44.0877" lon="6.83498">
        <ele>1299.5999755859</ele>
        <time>2020-09-05T09:14:41.000Z</time>
      </trkpt>
      <trkpt lat="44.08771" lon="6.83495">
        <ele>1299.5999755859</ele>
        <time>2020-09-05T09:14:49.000Z</time>
      </trkpt>
      <trkpt lat="44.08772" lon="6.83493">
        <ele>1299.8000488281</ele>
        <time>2020-09-05T09:14:51.000Z</time>
      </trkpt>
      <trkpt lat="44.08773" lon="6.83487">
        <ele>1300.1999511719</ele>
        <time>2020-09-05T09:14:55.000Z</time>
      </trkpt>
      <trkpt lat="44.08776" lon="6.83475">
        <ele>1301.1999511719</ele>
        <time>2020-09-05T09:15:01.000Z</time>
      </trkpt>
      <trkpt lat="44.08776" lon="6.83474">
        <ele>1301.1999511719</ele>
        <time>2020-09-05T09:15:02.000Z</time>
      </trkpt>
      <trkpt lat="44.08779" lon="6.83465">
        <ele>1301.5999755859</ele>
        <time>2020-09-05T09:15:07.000Z</time>
      </trkpt>
      <trkpt lat="44.08779" lon="6.83462">
        <ele>1302.4000244141</ele>
        <time>2020-09-05T09:15:11.000Z</time>
      </trkpt>
      <trkpt lat="44.08781" lon="6.8346">
        <ele>1303</ele>
        <time>2020-09-05T09:15:16.000Z</time>
      </trkpt>
      <trkpt lat="44.0879" lon="6.83464">
        <ele>1303.1999511719</ele>
        <time>2020-09-05T09:15:20.000Z</time>
      </trkpt>
      <trkpt lat="44.08792" lon="6.83465">
        <ele>1303.4000244141</ele>
        <time>2020-09-05T09:15:21.000Z</time>
      </trkpt>
      <trkpt lat="44.08803" lon="6.83463">
        <ele>1303.5999755859</ele>
        <time>2020-09-05T09:15:26.000Z</time>
      </trkpt>
      <trkpt lat="44.08813" lon="6.83457">
        <ele>1303.8000488281</ele>
        <time>2020-09-05T09:15:31.000Z</time>
      </trkpt>
      <trkpt lat="44.08822" lon="6.83441">
        <ele>1304.4000244141</ele>
        <time>2020-09-05T09:15:36.000Z</time>
      </trkpt>
      <trkpt lat="44.08824" lon="6.83427">
        <ele>1304.4000244141</ele>
        <time>2020-09-05T09:15:38.000Z</time>
      </trkpt>
      <trkpt lat="44.08826" lon="6.83415">
        <ele>1303.8000488281</ele>
        <time>2020-09-05T09:15:40.000Z</time>
      </trkpt>
      <trkpt lat="44.08827" lon="6.83407">
        <ele>1303.4000244141</ele>
        <time>2020-09-05T09:15:41.000Z</time>
      </trkpt>
      <trkpt lat="44.0883" lon="6.83389">
        <ele>1301.8000488281</ele>
        <time>2020-09-05T09:15:43.000Z</time>
      </trkpt>
      <trkpt lat="44.08832" lon="6.83383">
        <ele>1301</ele>
        <time>2020-09-05T09:15:44.000Z</time>
      </trkpt>
      <trkpt lat="44.08835" lon="6.83378">
        <ele>1300.1999511719</ele>
        <time>2020-09-05T09:15:45.000Z</time>
      </trkpt>
      <trkpt lat="44.08838" lon="6.83375">
        <ele>1299</ele>
        <time>2020-09-05T09:15:47.000Z</time>
      </trkpt>
      <trkpt lat="44.0884" lon="6.83374">
        <ele>1298.4000244141</ele>
        <time>2020-09-05T09:15:48.000Z</time>
      </trkpt>
      <trkpt lat="44.08844" lon="6.83372">
        <ele>1297.8000488281</ele>
        <time>2020-09-05T09:15:50.000Z</time>
      </trkpt>
      <trkpt lat="44.08845" lon="6.8337">
        <ele>1297.5999755859</ele>
        <time>2020-09-05T09:15:51.000Z</time>
      </trkpt>
      <trkpt lat="44.08847" lon="6.83368">
        <ele>1297.8000488281</ele>
        <time>2020-09-05T09:15:52.000Z</time>
      </trkpt>
      <trkpt lat="44.08857" lon="6.83359">
        <ele>1298.8000488281</ele>
        <time>2020-09-05T09:15:58.000Z</time>
      </trkpt>
      <trkpt lat="44.0886" lon="6.83358">
        <ele>1299.1999511719</ele>
        <time>2020-09-05T09:15:59.000Z</time>
      </trkpt>
      <trkpt lat="44.08865" lon="6.83356">
        <ele>1300</ele>
        <time>2020-09-05T09:16:01.000Z</time>
      </trkpt>
      <trkpt lat="44.08875" lon="6.83351">
        <ele>1301</ele>
        <time>2020-09-05T09:16:05.000Z</time>
      </trkpt>
      <trkpt lat="44.08877" lon="6.83349">
        <ele>1301.1999511719</ele>
        <time>2020-09-05T09:16:06.000Z</time>
      </trkpt>
      <trkpt lat="44.08885" lon="6.83337">
        <ele>1302</ele>
        <time>2020-09-05T09:16:11.000Z</time>
      </trkpt>
      <trkpt lat="44.08886" lon="6.83334">
        <ele>1302.1999511719</ele>
        <time>2020-09-05T09:16:12.000Z</time>
      </trkpt>
      <trkpt lat="44.08889" lon="6.83327">
        <ele>1303.1999511719</ele>
        <time>2020-09-05T09:16:15.000Z</time>
      </trkpt>
      <trkpt lat="44.08892" lon="6.83322">
        <ele>1304</ele>
        <time>2020-09-05T09:16:17.000Z</time>
      </trkpt>
      <trkpt lat="44.08894" lon="6.83319">
        <ele>1304.4000244141</ele>
        <time>2020-09-05T09:16:18.000Z</time>
      </trkpt>
      <trkpt lat="44.08897" lon="6.83315">
        <ele>1304.5999755859</ele>
        <time>2020-09-05T09:16:20.000Z</time>
      </trkpt>
      <trkpt lat="44.08902" lon="6.83313">
        <ele>1304.8000488281</ele>
        <time>2020-09-05T09:16:22.000Z</time>
      </trkpt>
      <trkpt lat="44.08909" lon="6.83309">
        <ele>1305.4000244141</ele>
        <time>2020-09-05T09:16:26.000Z</time>
      </trkpt>
      <trkpt lat="44.08913" lon="6.83308">
        <ele>1305.5999755859</ele>
        <time>2020-09-05T09:16:28.000Z</time>
      </trkpt>
      <trkpt lat="44.08918" lon="6.83305">
        <ele>1306.4000244141</ele>
        <time>2020-09-05T09:16:31.000Z</time>
      </trkpt>
      <trkpt lat="44.0892" lon="6.83304">
        <ele>1306.8000488281</ele>
        <time>2020-09-05T09:16:32.000Z</time>
      </trkpt>
      <trkpt lat="44.08922" lon="6.83304">
        <ele>1307.1999511719</ele>
        <time>2020-09-05T09:16:33.000Z</time>
      </trkpt>
      <trkpt lat="44.08924" lon="6.83304">
        <ele>1307.5999755859</ele>
        <time>2020-09-05T09:16:34.000Z</time>
      </trkpt>
      <trkpt lat="44.0893" lon="6.83299">
        <ele>1308.1999511719</ele>
        <time>2020-09-05T09:16:38.000Z</time>
      </trkpt>
      <trkpt lat="44.08935" lon="6.83294">
        <ele>1308.4000244141</ele>
        <time>2020-09-05T09:16:43.000Z</time>
      </trkpt>
      <trkpt lat="44.08937" lon="6.83288">
        <ele>1308.5999755859</ele>
        <time>2020-09-05T09:16:48.000Z</time>
      </trkpt>
      <trkpt lat="44.08938" lon="6.83286">
        <ele>1308.5999755859</ele>
        <time>2020-09-05T09:16:49.000Z</time>
      </trkpt>
      <trkpt lat="44.08939" lon="6.83284">
        <ele>1309.1999511719</ele>
        <time>2020-09-05T09:16:54.000Z</time>
      </trkpt>
      <trkpt lat="44.08941" lon="6.83285">
        <ele>1309.4000244141</ele>
        <time>2020-09-05T09:17:03.000Z</time>
      </trkpt>
      <trkpt lat="44.08942" lon="6.83283">
        <ele>1309.4000244141</ele>
        <time>2020-09-05T09:17:05.000Z</time>
      </trkpt>
      <trkpt lat="44.08943" lon="6.83283">
        <ele>1309.4000244141</ele>
        <time>2020-09-05T09:17:07.000Z</time>
      </trkpt>
      <trkpt lat="44.08943" lon="6.83282">
        <ele>1309.8000488281</ele>
        <time>2020-09-05T09:17:11.000Z</time>
      </trkpt>
      <trkpt lat="44.08944" lon="6.83279">
        <ele>1310</ele>
        <time>2020-09-05T09:17:14.000Z</time>
      </trkpt>
      <trkpt lat="44.08946" lon="6.83276">
        <ele>1310.4000244141</ele>
        <time>2020-09-05T09:17:18.000Z</time>
      </trkpt>
      <trkpt lat="44.08948" lon="6.83271">
        <ele>1310.8000488281</ele>
        <time>2020-09-05T09:17:20.000Z</time>
      </trkpt>
      <trkpt lat="44.08951" lon="6.83268">
        <ele>1311.1999511719</ele>
        <time>2020-09-05T09:17:22.000Z</time>
      </trkpt>
      <trkpt lat="44.08952" lon="6.83264">
        <ele>1312</ele>
        <time>2020-09-05T09:17:24.000Z</time>
      </trkpt>
      <trkpt lat="44.08954" lon="6.83262">
        <ele>1312.5999755859</ele>
        <time>2020-09-05T09:17:26.000Z</time>
      </trkpt>
      <trkpt lat="44.08954" lon="6.83258">
        <ele>1313.1999511719</ele>
        <time>2020-09-05T09:17:28.000Z</time>
      </trkpt>
      <trkpt lat="44.08953" lon="6.83248">
        <ele>1314.4000244141</ele>
        <time>2020-09-05T09:17:31.000Z</time>
      </trkpt>
      <trkpt lat="44.08955" lon="6.83241">
        <ele>1315.1999511719</ele>
        <time>2020-09-05T09:17:33.000Z</time>
      </trkpt>
      <trkpt lat="44.08955" lon="6.83239">
        <ele>1315.5999755859</ele>
        <time>2020-09-05T09:17:34.000Z</time>
      </trkpt>
      <trkpt lat="44.08958" lon="6.83234">
        <ele>1316.5999755859</ele>
        <time>2020-09-05T09:17:36.000Z</time>
      </trkpt>
      <trkpt lat="44.08961" lon="6.83231">
        <ele>1317.8000488281</ele>
        <time>2020-09-05T09:17:38.000Z</time>
      </trkpt>
      <trkpt lat="44.08963" lon="6.83226">
        <ele>1318.8000488281</ele>
        <time>2020-09-05T09:17:40.000Z</time>
      </trkpt>
      <trkpt lat="44.08967" lon="6.8322">
        <ele>1319.4000244141</ele>
        <time>2020-09-05T09:17:42.000Z</time>
      </trkpt>
      <trkpt lat="44.08969" lon="6.83214">
        <ele>1320.1999511719</ele>
        <time>2020-09-05T09:17:44.000Z</time>
      </trkpt>
      <trkpt lat="44.08972" lon="6.83209">
        <ele>1321</ele>
        <time>2020-09-05T09:17:46.000Z</time>
      </trkpt>
      <trkpt lat="44.08973" lon="6.83206">
        <ele>1321.8000488281</ele>
        <time>2020-09-05T09:17:47.000Z</time>
      </trkpt>
      <trkpt lat="44.08975" lon="6.832">
        <ele>1323.1999511719</ele>
        <time>2020-09-05T09:17:49.000Z</time>
      </trkpt>
      <trkpt lat="44.08978" lon="6.83195">
        <ele>1324.5999755859</ele>
        <time>2020-09-05T09:17:51.000Z</time>
      </trkpt>
      <trkpt lat="44.08981" lon="6.83191">
        <ele>1325.5999755859</ele>
        <time>2020-09-05T09:17:53.000Z</time>
      </trkpt>
      <trkpt lat="44.08984" lon="6.83188">
        <ele>1326.4000244141</ele>
        <time>2020-09-05T09:17:55.000Z</time>
      </trkpt>
      <trkpt lat="44.08985" lon="6.83187">
        <ele>1326.5999755859</ele>
        <time>2020-09-05T09:17:56.000Z</time>
      </trkpt>
      <trkpt lat="44.08991" lon="6.83181">
        <ele>1328</ele>
        <time>2020-09-05T09:18:00.000Z</time>
      </trkpt>
      <trkpt lat="44.08993" lon="6.83177">
        <ele>1328.5999755859</ele>
        <time>2020-09-05T09:18:02.000Z</time>
      </trkpt>
      <trkpt lat="44.08995" lon="6.83174">
        <ele>1329.1999511719</ele>
        <time>2020-09-05T09:18:04.000Z</time>
      </trkpt>
      <trkpt lat="44.09002" lon="6.83166">
        <ele>1330.4000244141</ele>
        <time>2020-09-05T09:18:09.000Z</time>
      </trkpt>
      <trkpt lat="44.09002" lon="6.83164">
        <ele>1330.5999755859</ele>
        <time>2020-09-05T09:18:10.000Z</time>
      </trkpt>
      <trkpt lat="44.09007" lon="6.83159">
        <ele>1331.5999755859</ele>
        <time>2020-09-05T09:18:14.000Z</time>
      </trkpt>
      <trkpt lat="44.09012" lon="6.83154">
        <ele>1332.5999755859</ele>
        <time>2020-09-05T09:18:18.000Z</time>
      </trkpt>
      <trkpt lat="44.09013" lon="6.83152">
        <ele>1332.8000488281</ele>
        <time>2020-09-05T09:18:19.000Z</time>
      </trkpt>
      <trkpt lat="44.09014" lon="6.83152">
        <ele>1333.1999511719</ele>
        <time>2020-09-05T09:18:20.000Z</time>
      </trkpt>
      <trkpt lat="44.09016" lon="6.83148">
        <ele>1333.8000488281</ele>
        <time>2020-09-05T09:18:22.000Z</time>
      </trkpt>
      <trkpt lat="44.09017" lon="6.83146">
        <ele>1334.1999511719</ele>
        <time>2020-09-05T09:18:23.000Z</time>
      </trkpt>
      <trkpt lat="44.09019" lon="6.83141">
        <ele>1335</ele>
        <time>2020-09-05T09:18:25.000Z</time>
      </trkpt>
      <trkpt lat="44.0902" lon="6.83136">
        <ele>1336</ele>
        <time>2020-09-05T09:18:28.000Z</time>
      </trkpt>
      <trkpt lat="44.09021" lon="6.83133">
        <ele>1336.4000244141</ele>
        <time>2020-09-05T09:18:29.000Z</time>
      </trkpt>
      <trkpt lat="44.09022" lon="6.83131">
        <ele>1336.8000488281</ele>
        <time>2020-09-05T09:18:30.000Z</time>
      </trkpt>
      <trkpt lat="44.09023" lon="6.83129">
        <ele>1337</ele>
        <time>2020-09-05T09:18:31.000Z</time>
      </trkpt>
      <trkpt lat="44.09025" lon="6.83125">
        <ele>1338</ele>
        <time>2020-09-05T09:18:33.000Z</time>
      </trkpt>
      <trkpt lat="44.09027" lon="6.83121">
        <ele>1338.8000488281</ele>
        <time>2020-09-05T09:18:35.000Z</time>
      </trkpt>
      <trkpt lat="44.09028" lon="6.83119">
        <ele>1339.1999511719</ele>
        <time>2020-09-05T09:18:36.000Z</time>
      </trkpt>
      <trkpt lat="44.0903" lon="6.83112">
        <ele>1340.4000244141</ele>
        <time>2020-09-05T09:18:39.000Z</time>
      </trkpt>
      <trkpt lat="44.09032" lon="6.83109">
        <ele>1341.1999511719</ele>
        <time>2020-09-05T09:18:41.000Z</time>
      </trkpt>
      <trkpt lat="44.09033" lon="6.83108">
        <ele>1341.5999755859</ele>
        <time>2020-09-05T09:18:42.000Z</time>
      </trkpt>
      <trkpt lat="44.09033" lon="6.83104">
        <ele>1342.5999755859</ele>
        <time>2020-09-05T09:18:44.000Z</time>
      </trkpt>
      <trkpt lat="44.09033" lon="6.83098">
        <ele>1343.8000488281</ele>
        <time>2020-09-05T09:18:47.000Z</time>
      </trkpt>
      <trkpt lat="44.09033" lon="6.83092">
        <ele>1344.8000488281</ele>
        <time>2020-09-05T09:18:50.000Z</time>
      </trkpt>
      <trkpt lat="44.09034" lon="6.83089">
        <ele>1345.4000244141</ele>
        <time>2020-09-05T09:18:52.000Z</time>
      </trkpt>
      <trkpt lat="44.09034" lon="6.83084">
        <ele>1346.1999511719</ele>
        <time>2020-09-05T09:18:54.000Z</time>
      </trkpt>
      <trkpt lat="44.09033" lon="6.83084">
        <ele>1346.5999755859</ele>
        <time>2020-09-05T09:18:55.000Z</time>
      </trkpt>
      <trkpt lat="44.09034" lon="6.83084">
        <ele>1347</ele>
        <time>2020-09-05T09:18:56.000Z</time>
      </trkpt>
      <trkpt lat="44.09034" lon="6.83084">
        <ele>1347.4000244141</ele>
        <time>2020-09-05T09:18:57.000Z</time>
      </trkpt>
      <trkpt lat="44.09035" lon="6.83084">
        <ele>1348</ele>
        <time>2020-09-05T09:19:01.000Z</time>
      </trkpt>
      <trkpt lat="44.09037" lon="6.83082">
        <ele>1348.1999511719</ele>
        <time>2020-09-05T09:19:14.000Z</time>
      </trkpt>
      <trkpt lat="44.0904" lon="6.8308">
        <ele>1348.4000244141</ele>
        <time>2020-09-05T09:19:31.000Z</time>
      </trkpt>
      <trkpt lat="44.09041" lon="6.83079">
        <ele>1348.1999511719</ele>
        <time>2020-09-05T09:19:48.000Z</time>
      </trkpt>
      <trkpt lat="44.09041" lon="6.83078">
        <ele>1347.8000488281</ele>
        <time>2020-09-05T09:19:55.000Z</time>
      </trkpt>
      <trkpt lat="44.09043" lon="6.83077">
        <ele>1347.5999755859</ele>
        <time>2020-09-05T09:20:10.000Z</time>
      </trkpt>
      <trkpt lat="44.09044" lon="6.83076">
        <ele>1348.1999511719</ele>
        <time>2020-09-05T09:20:16.000Z</time>
      </trkpt>
      <trkpt lat="44.09043" lon="6.83075">
        <ele>1348.1999511719</ele>
        <time>2020-09-05T09:20:17.000Z</time>
      </trkpt>
      <trkpt lat="44.09042" lon="6.83069">
        <ele>1348.4000244141</ele>
        <time>2020-09-05T09:20:20.000Z</time>
      </trkpt>
      <trkpt lat="44.09042" lon="6.83068">
        <ele>1348.5999755859</ele>
        <time>2020-09-05T09:20:21.000Z</time>
      </trkpt>
      <trkpt lat="44.09043" lon="6.83067">
        <ele>1349.5999755859</ele>
        <time>2020-09-05T09:20:24.000Z</time>
      </trkpt>
      <trkpt lat="44.09042" lon="6.83066">
        <ele>1350.1999511719</ele>
        <time>2020-09-05T09:20:29.000Z</time>
      </trkpt>
      <trkpt lat="44.09041" lon="6.83066">
        <ele>1350.8000488281</ele>
        <time>2020-09-05T09:20:33.000Z</time>
      </trkpt>
      <trkpt lat="44.09041" lon="6.83065">
        <ele>1350.8000488281</ele>
        <time>2020-09-05T09:20:34.000Z</time>
      </trkpt>
      <trkpt lat="44.09043" lon="6.83063">
        <ele>1351.4000244141</ele>
        <time>2020-09-05T09:20:39.000Z</time>
      </trkpt>
      <trkpt lat="44.09043" lon="6.83061">
        <ele>1351.4000244141</ele>
        <time>2020-09-05T09:20:40.000Z</time>
      </trkpt>
      <trkpt lat="44.09042" lon="6.83057">
        <ele>1351.5999755859</ele>
        <time>2020-09-05T09:20:42.000Z</time>
      </trkpt>
      <trkpt lat="44.09042" lon="6.83055">
        <ele>1351.8000488281</ele>
        <time>2020-09-05T09:20:43.000Z</time>
      </trkpt>
      <trkpt lat="44.09043" lon="6.83049">
        <ele>1353</ele>
        <time>2020-09-05T09:20:46.000Z</time>
      </trkpt>
      <trkpt lat="44.09044" lon="6.83047">
        <ele>1353.4000244141</ele>
        <time>2020-09-05T09:20:47.000Z</time>
      </trkpt>
      <trkpt lat="44.09043" lon="6.83045">
        <ele>1353.8000488281</ele>
        <time>2020-09-05T09:20:48.000Z</time>
      </trkpt>
      <trkpt lat="44.09043" lon="6.83042">
        <ele>1354.4000244141</ele>
        <time>2020-09-05T09:20:49.000Z</time>
      </trkpt>
      <trkpt lat="44.09043" lon="6.83036">
        <ele>1355.1999511719</ele>
        <time>2020-09-05T09:20:51.000Z</time>
      </trkpt>
      <trkpt lat="44.09043" lon="6.83034">
        <ele>1355.8000488281</ele>
        <time>2020-09-05T09:20:52.000Z</time>
      </trkpt>
      <trkpt lat="44.09045" lon="6.83032">
        <ele>1356.4000244141</ele>
        <time>2020-09-05T09:20:53.000Z</time>
      </trkpt>
      <trkpt lat="44.09046" lon="6.8303">
        <ele>1357</ele>
        <time>2020-09-05T09:20:54.000Z</time>
      </trkpt>
      <trkpt lat="44.09048" lon="6.83027">
        <ele>1358.4000244141</ele>
        <time>2020-09-05T09:20:56.000Z</time>
      </trkpt>
      <trkpt lat="44.09053" lon="6.83024">
        <ele>1359.5999755859</ele>
        <time>2020-09-05T09:20:59.000Z</time>
      </trkpt>
      <trkpt lat="44.09053" lon="6.83023">
        <ele>1360</ele>
        <time>2020-09-05T09:21:00.000Z</time>
      </trkpt>
      <trkpt lat="44.09054" lon="6.83018">
        <ele>1360.8000488281</ele>
        <time>2020-09-05T09:21:02.000Z</time>
      </trkpt>
      <trkpt lat="44.09056" lon="6.83013">
        <ele>1362</ele>
        <time>2020-09-05T09:21:05.000Z</time>
      </trkpt>
      <trkpt lat="44.09056" lon="6.83013">
        <ele>1363.1999511719</ele>
        <time>2020-09-05T09:21:07.000Z</time>
      </trkpt>
      <trkpt lat="44.09056" lon="6.83012">
        <ele>1364.1999511719</ele>
        <time>2020-09-05T09:21:09.000Z</time>
      </trkpt>
      <trkpt lat="44.09056" lon="6.83011">
        <ele>1364.5999755859</ele>
        <time>2020-09-05T09:21:10.000Z</time>
      </trkpt>
      <trkpt lat="44.09056" lon="6.83011">
        <ele>1365.1999511719</ele>
        <time>2020-09-05T09:21:13.000Z</time>
      </trkpt>
      <trkpt lat="44.09057" lon="6.83011">
        <ele>1365.1999511719</ele>
        <time>2020-09-05T09:21:15.000Z</time>
      </trkpt>
      <trkpt lat="44.09058" lon="6.83006">
        <ele>1365.1999511719</ele>
        <time>2020-09-05T09:21:22.000Z</time>
      </trkpt>
      <trkpt lat="44.09058" lon="6.83004">
        <ele>1366</ele>
        <time>2020-09-05T09:21:28.000Z</time>
      </trkpt>
      <trkpt lat="44.09059" lon="6.83001">
        <ele>1366.4000244141</ele>
        <time>2020-09-05T09:21:33.000Z</time>
      </trkpt>
      <trkpt lat="44.0906" lon="6.83001">
        <ele>1366.5999755859</ele>
        <time>2020-09-05T09:21:34.000Z</time>
      </trkpt>
      <trkpt lat="44.09062" lon="6.82998">
        <ele>1367.4000244141</ele>
        <time>2020-09-05T09:21:38.000Z</time>
      </trkpt>
      <trkpt lat="44.09062" lon="6.82997">
        <ele>1368.5999755859</ele>
        <time>2020-09-05T09:21:42.000Z</time>
      </trkpt>
      <trkpt lat="44.09063" lon="6.82997">
        <ele>1369.1999511719</ele>
        <time>2020-09-05T09:21:48.000Z</time>
      </trkpt>
      <trkpt lat="44.09067" lon="6.8299">
        <ele>1369.4000244141</ele>
        <time>2020-09-05T09:21:52.000Z</time>
      </trkpt>
      <trkpt lat="44.09068" lon="6.82987">
        <ele>1369.5999755859</ele>
        <time>2020-09-05T09:21:53.000Z</time>
      </trkpt>
      <trkpt lat="44.09069" lon="6.82987">
        <ele>1369.8000488281</ele>
        <time>2020-09-05T09:21:54.000Z</time>
      </trkpt>
      <trkpt lat="44.09071" lon="6.82985">
        <ele>1370.5999755859</ele>
        <time>2020-09-05T09:21:56.000Z</time>
      </trkpt>
      <trkpt lat="44.09071" lon="6.82982">
        <ele>1371</ele>
        <time>2020-09-05T09:21:57.000Z</time>
      </trkpt>
      <trkpt lat="44.09074" lon="6.82979">
        <ele>1371.8000488281</ele>
        <time>2020-09-05T09:21:59.000Z</time>
      </trkpt>
      <trkpt lat="44.09076" lon="6.82975">
        <ele>1372.4000244141</ele>
        <time>2020-09-05T09:22:01.000Z</time>
      </trkpt>
      <trkpt lat="44.09076" lon="6.82972">
        <ele>1373</ele>
        <time>2020-09-05T09:22:02.000Z</time>
      </trkpt>
      <trkpt lat="44.09076" lon="6.82968">
        <ele>1374</ele>
        <time>2020-09-05T09:22:04.000Z</time>
      </trkpt>
      <trkpt lat="44.09076" lon="6.82966">
        <ele>1374.5999755859</ele>
        <time>2020-09-05T09:22:05.000Z</time>
      </trkpt>
      <trkpt lat="44.09076" lon="6.82964">
        <ele>1375</ele>
        <time>2020-09-05T09:22:06.000Z</time>
      </trkpt>
      <trkpt lat="44.09076" lon="6.82958">
        <ele>1376.1999511719</ele>
        <time>2020-09-05T09:22:09.000Z</time>
      </trkpt>
      <trkpt lat="44.09076" lon="6.82956">
        <ele>1376.8000488281</ele>
        <time>2020-09-05T09:22:10.000Z</time>
      </trkpt>
      <trkpt lat="44.09077" lon="6.82954">
        <ele>1377.4000244141</ele>
        <time>2020-09-05T09:22:11.000Z</time>
      </trkpt>
      <trkpt lat="44.09078" lon="6.82949">
        <ele>1378.4000244141</ele>
        <time>2020-09-05T09:22:13.000Z</time>
      </trkpt>
      <trkpt lat="44.09078" lon="6.82945">
        <ele>1379.5999755859</ele>
        <time>2020-09-05T09:22:16.000Z</time>
      </trkpt>
      <trkpt lat="44.09079" lon="6.82945">
        <ele>1380.5999755859</ele>
        <time>2020-09-05T09:22:21.000Z</time>
      </trkpt>
      <trkpt lat="44.0908" lon="6.82944">
        <ele>1380.5999755859</ele>
        <time>2020-09-05T09:22:30.000Z</time>
      </trkpt>
      <trkpt lat="44.09081" lon="6.82943">
        <ele>1380.8000488281</ele>
        <time>2020-09-05T09:22:41.000Z</time>
      </trkpt>
      <trkpt lat="44.0908" lon="6.82941">
        <ele>1380.5999755859</ele>
        <time>2020-09-05T09:22:57.000Z</time>
      </trkpt>
      <trkpt lat="44.09081" lon="6.8294">
        <ele>1380.5999755859</ele>
        <time>2020-09-05T09:23:07.000Z</time>
      </trkpt>
      <trkpt lat="44.09082" lon="6.8294">
        <ele>1380.8000488281</ele>
        <time>2020-09-05T09:23:17.000Z</time>
      </trkpt>
      <trkpt lat="44.09082" lon="6.82939">
        <ele>1380.5999755859</ele>
        <time>2020-09-05T09:23:27.000Z</time>
      </trkpt>
      <trkpt lat="44.09083" lon="6.82939">
        <ele>1380.8000488281</ele>
        <time>2020-09-05T09:23:36.000Z</time>
      </trkpt>
      <trkpt lat="44.09085" lon="6.82934">
        <ele>1380.8000488281</ele>
        <time>2020-09-05T09:23:44.000Z</time>
      </trkpt>
      <trkpt lat="44.09086" lon="6.82933">
        <ele>1381.8000488281</ele>
        <time>2020-09-05T09:23:48.000Z</time>
      </trkpt>
      <trkpt lat="44.09087" lon="6.82931">
        <ele>1382.4000244141</ele>
        <time>2020-09-05T09:23:54.000Z</time>
      </trkpt>
      <trkpt lat="44.09087" lon="6.8293">
        <ele>1382.5999755859</ele>
        <time>2020-09-05T09:23:55.000Z</time>
      </trkpt>
      <trkpt lat="44.09086" lon="6.82928">
        <ele>1383</ele>
        <time>2020-09-05T09:23:58.000Z</time>
      </trkpt>
      <trkpt lat="44.09086" lon="6.82926">
        <ele>1384.1999511719</ele>
        <time>2020-09-05T09:24:02.000Z</time>
      </trkpt>
      <trkpt lat="44.09085" lon="6.82925">
        <ele>1385.1999511719</ele>
        <time>2020-09-05T09:24:09.000Z</time>
      </trkpt>
      <trkpt lat="44.09088" lon="6.8292">
        <ele>1385.5999755859</ele>
        <time>2020-09-05T09:24:15.000Z</time>
      </trkpt>
      <trkpt lat="44.09088" lon="6.82917">
        <ele>1385.8000488281</ele>
        <time>2020-09-05T09:24:17.000Z</time>
      </trkpt>
      <trkpt lat="44.09088" lon="6.82911">
        <ele>1386.1999511719</ele>
        <time>2020-09-05T09:24:19.000Z</time>
      </trkpt>
      <trkpt lat="44.09089" lon="6.82908">
        <ele>1386.8000488281</ele>
        <time>2020-09-05T09:24:20.000Z</time>
      </trkpt>
      <trkpt lat="44.09088" lon="6.82903">
        <ele>1387.5999755859</ele>
        <time>2020-09-05T09:24:22.000Z</time>
      </trkpt>
      <trkpt lat="44.09088" lon="6.82899">
        <ele>1388.8000488281</ele>
        <time>2020-09-05T09:24:24.000Z</time>
      </trkpt>
      <trkpt lat="44.09087" lon="6.82894">
        <ele>1390</ele>
        <time>2020-09-05T09:24:26.000Z</time>
      </trkpt>
      <trkpt lat="44.09089" lon="6.82888">
        <ele>1391.4000244141</ele>
        <time>2020-09-05T09:24:29.000Z</time>
      </trkpt>
      <trkpt lat="44.09089" lon="6.82882">
        <ele>1392.8000488281</ele>
        <time>2020-09-05T09:24:32.000Z</time>
      </trkpt>
      <trkpt lat="44.0909" lon="6.82881">
        <ele>1393.1999511719</ele>
        <time>2020-09-05T09:24:33.000Z</time>
      </trkpt>
      <trkpt lat="44.09091" lon="6.82876">
        <ele>1394.1999511719</ele>
        <time>2020-09-05T09:24:35.000Z</time>
      </trkpt>
      <trkpt lat="44.09093" lon="6.82871">
        <ele>1395</ele>
        <time>2020-09-05T09:24:37.000Z</time>
      </trkpt>
      <trkpt lat="44.09093" lon="6.82868">
        <ele>1395.4000244141</ele>
        <time>2020-09-05T09:24:38.000Z</time>
      </trkpt>
      <trkpt lat="44.09092" lon="6.82853">
        <ele>1396.4000244141</ele>
        <time>2020-09-05T09:24:43.000Z</time>
      </trkpt>
      <trkpt lat="44.09091" lon="6.82842">
        <ele>1398.1999511719</ele>
        <time>2020-09-05T09:24:47.000Z</time>
      </trkpt>
      <trkpt lat="44.09091" lon="6.8284">
        <ele>1398.8000488281</ele>
        <time>2020-09-05T09:24:48.000Z</time>
      </trkpt>
      <trkpt lat="44.09091" lon="6.82838">
        <ele>1399.4000244141</ele>
        <time>2020-09-05T09:24:49.000Z</time>
      </trkpt>
      <trkpt lat="44.09089" lon="6.82837">
        <ele>1400.4000244141</ele>
        <time>2020-09-05T09:24:51.000Z</time>
      </trkpt>
      <trkpt lat="44.09088" lon="6.8284">
        <ele>1401.4000244141</ele>
        <time>2020-09-05T09:24:53.000Z</time>
      </trkpt>
      <trkpt lat="44.09086" lon="6.82841">
        <ele>1401.8000488281</ele>
        <time>2020-09-05T09:24:54.000Z</time>
      </trkpt>
      <trkpt lat="44.09085" lon="6.82842">
        <ele>1402</ele>
        <time>2020-09-05T09:24:55.000Z</time>
      </trkpt>
      <trkpt lat="44.09082" lon="6.82844">
        <ele>1402.8000488281</ele>
        <time>2020-09-05T09:24:57.000Z</time>
      </trkpt>
      <trkpt lat="44.09077" lon="6.82846">
        <ele>1404.1999511719</ele>
        <time>2020-09-05T09:25:01.000Z</time>
      </trkpt>
      <trkpt lat="44.09076" lon="6.82846">
        <ele>1404.4000244141</ele>
        <time>2020-09-05T09:25:02.000Z</time>
      </trkpt>
      <trkpt lat="44.09073" lon="6.82845">
        <ele>1405.5999755859</ele>
        <time>2020-09-05T09:25:05.000Z</time>
      </trkpt>
      <trkpt lat="44.0907" lon="6.82845">
        <ele>1406.4000244141</ele>
        <time>2020-09-05T09:25:07.000Z</time>
      </trkpt>
      <trkpt lat="44.09068" lon="6.82846">
        <ele>1406.8000488281</ele>
        <time>2020-09-05T09:25:08.000Z</time>
      </trkpt>
      <trkpt lat="44.09063" lon="6.82848">
        <ele>1408.1999511719</ele>
        <time>2020-09-05T09:25:11.000Z</time>
      </trkpt>
      <trkpt lat="44.09062" lon="6.82848">
        <ele>1408.5999755859</ele>
        <time>2020-09-05T09:25:12.000Z</time>
      </trkpt>
      <trkpt lat="44.09059" lon="6.82849">
        <ele>1409.4000244141</ele>
        <time>2020-09-05T09:25:14.000Z</time>
      </trkpt>
      <trkpt lat="44.09053" lon="6.8285">
        <ele>1410.4000244141</ele>
        <time>2020-09-05T09:25:17.000Z</time>
      </trkpt>
      <trkpt lat="44.09052" lon="6.8285">
        <ele>1410.8000488281</ele>
        <time>2020-09-05T09:25:18.000Z</time>
      </trkpt>
      <trkpt lat="44.09049" lon="6.8285">
        <ele>1411.4000244141</ele>
        <time>2020-09-05T09:25:20.000Z</time>
      </trkpt>
      <trkpt lat="44.09045" lon="6.82849">
        <ele>1412.4000244141</ele>
        <time>2020-09-05T09:25:23.000Z</time>
      </trkpt>
      <trkpt lat="44.09043" lon="6.8285">
        <ele>1412.5999755859</ele>
        <time>2020-09-05T09:25:24.000Z</time>
      </trkpt>
      <trkpt lat="44.09038" lon="6.8285">
        <ele>1413.4000244141</ele>
        <time>2020-09-05T09:25:27.000Z</time>
      </trkpt>
      <trkpt lat="44.09036" lon="6.82851">
        <ele>1413.8000488281</ele>
        <time>2020-09-05T09:25:29.000Z</time>
      </trkpt>
      <trkpt lat="44.09032" lon="6.82853">
        <ele>1414.5999755859</ele>
        <time>2020-09-05T09:25:32.000Z</time>
      </trkpt>
      <trkpt lat="44.0903" lon="6.82852">
        <ele>1415</ele>
        <time>2020-09-05T09:25:33.000Z</time>
      </trkpt>
      <trkpt lat="44.09027" lon="6.82849">
        <ele>1416</ele>
        <time>2020-09-05T09:25:36.000Z</time>
      </trkpt>
      <trkpt lat="44.09022" lon="6.82845">
        <ele>1417.4000244141</ele>
        <time>2020-09-05T09:25:39.000Z</time>
      </trkpt>
      <trkpt lat="44.09021" lon="6.82843">
        <ele>1417.5999755859</ele>
        <time>2020-09-05T09:25:40.000Z</time>
      </trkpt>
      <trkpt lat="44.09021" lon="6.8284">
        <ele>1418</ele>
        <time>2020-09-05T09:25:41.000Z</time>
      </trkpt>
      <trkpt lat="44.09023" lon="6.82833">
        <ele>1418.5999755859</ele>
        <time>2020-09-05T09:25:44.000Z</time>
      </trkpt>
      <trkpt lat="44.09026" lon="6.82824">
        <ele>1419.8000488281</ele>
        <time>2020-09-05T09:25:48.000Z</time>
      </trkpt>
      <trkpt lat="44.09028" lon="6.8282">
        <ele>1420.1999511719</ele>
        <time>2020-09-05T09:25:50.000Z</time>
      </trkpt>
      <trkpt lat="44.09031" lon="6.82815">
        <ele>1421</ele>
        <time>2020-09-05T09:25:53.000Z</time>
      </trkpt>
      <trkpt lat="44.09033" lon="6.82813">
        <ele>1421.1999511719</ele>
        <time>2020-09-05T09:25:54.000Z</time>
      </trkpt>
      <trkpt lat="44.09037" lon="6.82807">
        <ele>1422.1999511719</ele>
        <time>2020-09-05T09:25:57.000Z</time>
      </trkpt>
      <trkpt lat="44.09039" lon="6.82804">
        <ele>1423</ele>
        <time>2020-09-05T09:25:59.000Z</time>
      </trkpt>
      <trkpt lat="44.0904" lon="6.82802">
        <ele>1423.5999755859</ele>
        <time>2020-09-05T09:26:00.000Z</time>
      </trkpt>
      <trkpt lat="44.09045" lon="6.82796">
        <ele>1424.8000488281</ele>
        <time>2020-09-05T09:26:04.000Z</time>
      </trkpt>
      <trkpt lat="44.09046" lon="6.82795">
        <ele>1425.1999511719</ele>
        <time>2020-09-05T09:26:05.000Z</time>
      </trkpt>
      <trkpt lat="44.09049" lon="6.82791">
        <ele>1425.8000488281</ele>
        <time>2020-09-05T09:26:07.000Z</time>
      </trkpt>
      <trkpt lat="44.09055" lon="6.82783">
        <ele>1427</ele>
        <time>2020-09-05T09:26:11.000Z</time>
      </trkpt>
      <trkpt lat="44.09057" lon="6.82781">
        <ele>1427.1999511719</ele>
        <time>2020-09-05T09:26:12.000Z</time>
      </trkpt>
      <trkpt lat="44.09064" lon="6.82771">
        <ele>1427.4000244141</ele>
        <time>2020-09-05T09:26:17.000Z</time>
      </trkpt>
      <trkpt lat="44.09068" lon="6.82767">
        <ele>1428</ele>
        <time>2020-09-05T09:26:19.000Z</time>
      </trkpt>
      <trkpt lat="44.09074" lon="6.82754">
        <ele>1429.1999511719</ele>
        <time>2020-09-05T09:26:24.000Z</time>
      </trkpt>
      <trkpt lat="44.09075" lon="6.82752">
        <ele>1429.1999511719</ele>
        <time>2020-09-05T09:26:25.000Z</time>
      </trkpt>
      <trkpt lat="44.09077" lon="6.82748">
        <ele>1430.1999511719</ele>
        <time>2020-09-05T09:26:28.000Z</time>
      </trkpt>
      <trkpt lat="44.09079" lon="6.82746">
        <ele>1430.5999755859</ele>
        <time>2020-09-05T09:26:29.000Z</time>
      </trkpt>
      <trkpt lat="44.09083" lon="6.82744">
        <ele>1431.4000244141</ele>
        <time>2020-09-05T09:26:31.000Z</time>
      </trkpt>
      <trkpt lat="44.09085" lon="6.8274">
        <ele>1431.8000488281</ele>
        <time>2020-09-05T09:26:33.000Z</time>
      </trkpt>
      <trkpt lat="44.09089" lon="6.82733">
        <ele>1432.5999755859</ele>
        <time>2020-09-05T09:26:36.000Z</time>
      </trkpt>
      <trkpt lat="44.09093" lon="6.82725">
        <ele>1433.5999755859</ele>
        <time>2020-09-05T09:26:39.000Z</time>
      </trkpt>
      <trkpt lat="44.09094" lon="6.82723">
        <ele>1434</ele>
        <time>2020-09-05T09:26:40.000Z</time>
      </trkpt>
      <trkpt lat="44.09098" lon="6.82714">
        <ele>1435</ele>
        <time>2020-09-05T09:26:43.000Z</time>
      </trkpt>
      <trkpt lat="44.09101" lon="6.8271">
        <ele>1436</ele>
        <time>2020-09-05T09:26:45.000Z</time>
      </trkpt>
      <trkpt lat="44.09101" lon="6.82709">
        <ele>1436.5999755859</ele>
        <time>2020-09-05T09:26:46.000Z</time>
      </trkpt>
      <trkpt lat="44.09102" lon="6.82707">
        <ele>1437</ele>
        <time>2020-09-05T09:26:47.000Z</time>
      </trkpt>
      <trkpt lat="44.09105" lon="6.827">
        <ele>1438.1999511719</ele>
        <time>2020-09-05T09:26:50.000Z</time>
      </trkpt>
      <trkpt lat="44.09106" lon="6.82699">
        <ele>1438.4000244141</ele>
        <time>2020-09-05T09:26:51.000Z</time>
      </trkpt>
      <trkpt lat="44.09108" lon="6.82698">
        <ele>1438.5999755859</ele>
        <time>2020-09-05T09:26:52.000Z</time>
      </trkpt>
      <trkpt lat="44.09111" lon="6.82695">
        <ele>1439.1999511719</ele>
        <time>2020-09-05T09:26:54.000Z</time>
      </trkpt>
      <trkpt lat="44.09115" lon="6.82689">
        <ele>1440.1999511719</ele>
        <time>2020-09-05T09:26:57.000Z</time>
      </trkpt>
      <trkpt lat="44.09116" lon="6.82687">
        <ele>1440.4000244141</ele>
        <time>2020-09-05T09:26:58.000Z</time>
      </trkpt>
      <trkpt lat="44.0912" lon="6.82678">
        <ele>1441.4000244141</ele>
        <time>2020-09-05T09:27:01.000Z</time>
      </trkpt>
      <trkpt lat="44.09121" lon="6.82675">
        <ele>1442</ele>
        <time>2020-09-05T09:27:02.000Z</time>
      </trkpt>
      <trkpt lat="44.09122" lon="6.82672">
        <ele>1442.5999755859</ele>
        <time>2020-09-05T09:27:03.000Z</time>
      </trkpt>
      <trkpt lat="44.09126" lon="6.82666">
        <ele>1443.8000488281</ele>
        <time>2020-09-05T09:27:06.000Z</time>
      </trkpt>
      <trkpt lat="44.09129" lon="6.82664">
        <ele>1444.8000488281</ele>
        <time>2020-09-05T09:27:08.000Z</time>
      </trkpt>
      <trkpt lat="44.0913" lon="6.82663">
        <ele>1445.4000244141</ele>
        <time>2020-09-05T09:27:09.000Z</time>
      </trkpt>
      <trkpt lat="44.09131" lon="6.82661">
        <ele>1446</ele>
        <time>2020-09-05T09:27:10.000Z</time>
      </trkpt>
      <trkpt lat="44.09132" lon="6.82659">
        <ele>1446.5999755859</ele>
        <time>2020-09-05T09:27:11.000Z</time>
      </trkpt>
      <trkpt lat="44.09134" lon="6.82656">
        <ele>1447</ele>
        <time>2020-09-05T09:27:13.000Z</time>
      </trkpt>
      <trkpt lat="44.09136" lon="6.82654">
        <ele>1447.4000244141</ele>
        <time>2020-09-05T09:27:14.000Z</time>
      </trkpt>
      <trkpt lat="44.09137" lon="6.82652">
        <ele>1447.5999755859</ele>
        <time>2020-09-05T09:27:15.000Z</time>
      </trkpt>
      <trkpt lat="44.0914" lon="6.82647">
        <ele>1448.5999755859</ele>
        <time>2020-09-05T09:27:18.000Z</time>
      </trkpt>
      <trkpt lat="44.09145" lon="6.82638">
        <ele>1449.5999755859</ele>
        <time>2020-09-05T09:27:23.000Z</time>
      </trkpt>
      <trkpt lat="44.09146" lon="6.82636">
        <ele>1450</ele>
        <time>2020-09-05T09:27:24.000Z</time>
      </trkpt>
      <trkpt lat="44.09147" lon="6.82636">
        <ele>1451</ele>
        <time>2020-09-05T09:27:26.000Z</time>
      </trkpt>
      <trkpt lat="44.09148" lon="6.82636">
        <ele>1451.5999755859</ele>
        <time>2020-09-05T09:27:28.000Z</time>
      </trkpt>
      <trkpt lat="44.09149" lon="6.82634">
        <ele>1451.8000488281</ele>
        <time>2020-09-05T09:27:35.000Z</time>
      </trkpt>
      <trkpt lat="44.0915" lon="6.82633">
        <ele>1452</ele>
        <time>2020-09-05T09:27:37.000Z</time>
      </trkpt>
      <trkpt lat="44.09151" lon="6.82632">
        <ele>1452.1999511719</ele>
        <time>2020-09-05T09:27:38.000Z</time>
      </trkpt>
      <trkpt lat="44.09151" lon="6.82632">
        <ele>1452.4000244141</ele>
        <time>2020-09-05T09:27:40.000Z</time>
      </trkpt>
      <trkpt lat="44.09152" lon="6.8263">
        <ele>1452.8000488281</ele>
        <time>2020-09-05T09:27:44.000Z</time>
      </trkpt>
      <trkpt lat="44.09154" lon="6.82628">
        <ele>1453</ele>
        <time>2020-09-05T09:27:46.000Z</time>
      </trkpt>
      <trkpt lat="44.09156" lon="6.82622">
        <ele>1453.1999511719</ele>
        <time>2020-09-05T09:27:48.000Z</time>
      </trkpt>
      <trkpt lat="44.09158" lon="6.82616">
        <ele>1453.8000488281</ele>
        <time>2020-09-05T09:27:50.000Z</time>
      </trkpt>
      <trkpt lat="44.0916" lon="6.82611">
        <ele>1454.5999755859</ele>
        <time>2020-09-05T09:27:52.000Z</time>
      </trkpt>
      <trkpt lat="44.09163" lon="6.82602">
        <ele>1455.8000488281</ele>
        <time>2020-09-05T09:27:55.000Z</time>
      </trkpt>
      <trkpt lat="44.09163" lon="6.82601">
        <ele>1456.1999511719</ele>
        <time>2020-09-05T09:27:56.000Z</time>
      </trkpt>
      <trkpt lat="44.09163" lon="6.826">
        <ele>1457</ele>
        <time>2020-09-05T09:27:58.000Z</time>
      </trkpt>
      <trkpt lat="44.09165" lon="6.82599">
        <ele>1457.5999755859</ele>
        <time>2020-09-05T09:28:00.000Z</time>
      </trkpt>
      <trkpt lat="44.09168" lon="6.82597">
        <ele>1458.1999511719</ele>
        <time>2020-09-05T09:28:02.000Z</time>
      </trkpt>
      <trkpt lat="44.09172" lon="6.82591">
        <ele>1458.5999755859</ele>
        <time>2020-09-05T09:28:05.000Z</time>
      </trkpt>
      <trkpt lat="44.09172" lon="6.82585">
        <ele>1459.1999511719</ele>
        <time>2020-09-05T09:28:07.000Z</time>
      </trkpt>
      <trkpt lat="44.09172" lon="6.82582">
        <ele>1459.5999755859</ele>
        <time>2020-09-05T09:28:08.000Z</time>
      </trkpt>
      <trkpt lat="44.09172" lon="6.82579">
        <ele>1460.1999511719</ele>
        <time>2020-09-05T09:28:09.000Z</time>
      </trkpt>
      <trkpt lat="44.09172" lon="6.82576">
        <ele>1460.8000488281</ele>
        <time>2020-09-05T09:28:10.000Z</time>
      </trkpt>
      <trkpt lat="44.09172" lon="6.82571">
        <ele>1461.5999755859</ele>
        <time>2020-09-05T09:28:12.000Z</time>
      </trkpt>
      <trkpt lat="44.09171" lon="6.82565">
        <ele>1462.4000244141</ele>
        <time>2020-09-05T09:28:14.000Z</time>
      </trkpt>
      <trkpt lat="44.09172" lon="6.8256">
        <ele>1462.8000488281</ele>
        <time>2020-09-05T09:28:16.000Z</time>
      </trkpt>
      <trkpt lat="44.09174" lon="6.8255">
        <ele>1463.8000488281</ele>
        <time>2020-09-05T09:28:20.000Z</time>
      </trkpt>
      <trkpt lat="44.09175" lon="6.82542">
        <ele>1465</ele>
        <time>2020-09-05T09:28:23.000Z</time>
      </trkpt>
      <trkpt lat="44.09174" lon="6.8254">
        <ele>1465.4000244141</ele>
        <time>2020-09-05T09:28:24.000Z</time>
      </trkpt>
      <trkpt lat="44.09175" lon="6.82536">
        <ele>1466.1999511719</ele>
        <time>2020-09-05T09:28:26.000Z</time>
      </trkpt>
      <trkpt lat="44.09177" lon="6.82531">
        <ele>1466.5999755859</ele>
        <time>2020-09-05T09:28:28.000Z</time>
      </trkpt>
      <trkpt lat="44.0918" lon="6.82525">
        <ele>1467.4000244141</ele>
        <time>2020-09-05T09:28:31.000Z</time>
      </trkpt>
      <trkpt lat="44.09182" lon="6.82517">
        <ele>1468</ele>
        <time>2020-09-05T09:28:34.000Z</time>
      </trkpt>
      <trkpt lat="44.09184" lon="6.82512">
        <ele>1468.4000244141</ele>
        <time>2020-09-05T09:28:36.000Z</time>
      </trkpt>
      <trkpt lat="44.09187" lon="6.82504">
        <ele>1469.8000488281</ele>
        <time>2020-09-05T09:28:40.000Z</time>
      </trkpt>
      <trkpt lat="44.09188" lon="6.82494">
        <ele>1471</ele>
        <time>2020-09-05T09:28:44.000Z</time>
      </trkpt>
      <trkpt lat="44.09187" lon="6.82492">
        <ele>1471.1999511719</ele>
        <time>2020-09-05T09:28:45.000Z</time>
      </trkpt>
      <trkpt lat="44.09187" lon="6.82489">
        <ele>1471.5999755859</ele>
        <time>2020-09-05T09:28:46.000Z</time>
      </trkpt>
      <trkpt lat="44.09186" lon="6.82484">
        <ele>1472</ele>
        <time>2020-09-05T09:28:48.000Z</time>
      </trkpt>
      <trkpt lat="44.09186" lon="6.82472">
        <ele>1473.1999511719</ele>
        <time>2020-09-05T09:28:52.000Z</time>
      </trkpt>
      <trkpt lat="44.09186" lon="6.82459">
        <ele>1474.4000244141</ele>
        <time>2020-09-05T09:28:57.000Z</time>
      </trkpt>
      <trkpt lat="44.09186" lon="6.82457">
        <ele>1474.5999755859</ele>
        <time>2020-09-05T09:28:58.000Z</time>
      </trkpt>
      <trkpt lat="44.09185" lon="6.82448">
        <ele>1475.4000244141</ele>
        <time>2020-09-05T09:29:01.000Z</time>
      </trkpt>
      <trkpt lat="44.09183" lon="6.82439">
        <ele>1476.4000244141</ele>
        <time>2020-09-05T09:29:04.000Z</time>
      </trkpt>
      <trkpt lat="44.09182" lon="6.82437">
        <ele>1476.8000488281</ele>
        <time>2020-09-05T09:29:05.000Z</time>
      </trkpt>
      <trkpt lat="44.09182" lon="6.82434">
        <ele>1477</ele>
        <time>2020-09-05T09:29:06.000Z</time>
      </trkpt>
      <trkpt lat="44.09183" lon="6.82428">
        <ele>1477.8000488281</ele>
        <time>2020-09-05T09:29:08.000Z</time>
      </trkpt>
      <trkpt lat="44.09183" lon="6.82424">
        <ele>1478.1999511719</ele>
        <time>2020-09-05T09:29:09.000Z</time>
      </trkpt>
      <trkpt lat="44.09184" lon="6.82421">
        <ele>1478.4000244141</ele>
        <time>2020-09-05T09:29:10.000Z</time>
      </trkpt>
      <trkpt lat="44.09185" lon="6.82411">
        <ele>1479</ele>
        <time>2020-09-05T09:29:13.000Z</time>
      </trkpt>
      <trkpt lat="44.09187" lon="6.82399">
        <ele>1479.5999755859</ele>
        <time>2020-09-05T09:29:17.000Z</time>
      </trkpt>
      <trkpt lat="44.09186" lon="6.82394">
        <ele>1480</ele>
        <time>2020-09-05T09:29:19.000Z</time>
      </trkpt>
      <trkpt lat="44.09185" lon="6.8238">
        <ele>1481.1999511719</ele>
        <time>2020-09-05T09:29:24.000Z</time>
      </trkpt>
      <trkpt lat="44.09182" lon="6.82378">
        <ele>1481.1999511719</ele>
        <time>2020-09-05T09:29:25.000Z</time>
      </trkpt>
      <trkpt lat="44.0918" lon="6.82372">
        <ele>1481.1999511719</ele>
        <time>2020-09-05T09:29:27.000Z</time>
      </trkpt>
      <trkpt lat="44.09178" lon="6.82365">
        <ele>1481.1999511719</ele>
        <time>2020-09-05T09:29:29.000Z</time>
      </trkpt>
      <trkpt lat="44.09178" lon="6.82349">
        <ele>1481.1999511719</ele>
        <time>2020-09-05T09:29:33.000Z</time>
      </trkpt>
      <trkpt lat="44.09179" lon="6.82341">
        <ele>1481.5999755859</ele>
        <time>2020-09-05T09:29:35.000Z</time>
      </trkpt>
      <trkpt lat="44.0918" lon="6.82334">
        <ele>1482.4000244141</ele>
        <time>2020-09-05T09:29:37.000Z</time>
      </trkpt>
      <trkpt lat="44.09181" lon="6.82328">
        <ele>1483.4000244141</ele>
        <time>2020-09-05T09:29:39.000Z</time>
      </trkpt>
      <trkpt lat="44.09182" lon="6.82325">
        <ele>1483.8000488281</ele>
        <time>2020-09-05T09:29:40.000Z</time>
      </trkpt>
      <trkpt lat="44.09185" lon="6.82317">
        <ele>1485</ele>
        <time>2020-09-05T09:29:43.000Z</time>
      </trkpt>
      <trkpt lat="44.0919" lon="6.82306">
        <ele>1486.1999511719</ele>
        <time>2020-09-05T09:29:47.000Z</time>
      </trkpt>
      <trkpt lat="44.09192" lon="6.82301">
        <ele>1486.8000488281</ele>
        <time>2020-09-05T09:29:49.000Z</time>
      </trkpt>
      <trkpt lat="44.09194" lon="6.823">
        <ele>1487.4000244141</ele>
        <time>2020-09-05T09:29:50.000Z</time>
      </trkpt>
      <trkpt lat="44.092" lon="6.8229">
        <ele>1488.5999755859</ele>
        <time>2020-09-05T09:29:54.000Z</time>
      </trkpt>
      <trkpt lat="44.09203" lon="6.82286">
        <ele>1489.4000244141</ele>
        <time>2020-09-05T09:29:56.000Z</time>
      </trkpt>
      <trkpt lat="44.09205" lon="6.82283">
        <ele>1489.8000488281</ele>
        <time>2020-09-05T09:29:57.000Z</time>
      </trkpt>
      <trkpt lat="44.09209" lon="6.82279">
        <ele>1490.5999755859</ele>
        <time>2020-09-05T09:30:00.000Z</time>
      </trkpt>
      <trkpt lat="44.0921" lon="6.82278">
        <ele>1490.8000488281</ele>
        <time>2020-09-05T09:30:01.000Z</time>
      </trkpt>
      <trkpt lat="44.09215" lon="6.82273">
        <ele>1492</ele>
        <time>2020-09-05T09:30:04.000Z</time>
      </trkpt>
      <trkpt lat="44.09219" lon="6.82269">
        <ele>1493</ele>
        <time>2020-09-05T09:30:07.000Z</time>
      </trkpt>
      <trkpt lat="44.09221" lon="6.82268">
        <ele>1493.4000244141</ele>
        <time>2020-09-05T09:30:08.000Z</time>
      </trkpt>
      <trkpt lat="44.09225" lon="6.82266">
        <ele>1493.8000488281</ele>
        <time>2020-09-05T09:30:10.000Z</time>
      </trkpt>
      <trkpt lat="44.09227" lon="6.82263">
        <ele>1494.1999511719</ele>
        <time>2020-09-05T09:30:12.000Z</time>
      </trkpt>
      <trkpt lat="44.09229" lon="6.82262">
        <ele>1494.4000244141</ele>
        <time>2020-09-05T09:30:13.000Z</time>
      </trkpt>
      <trkpt lat="44.0923" lon="6.8226">
        <ele>1494.8000488281</ele>
        <time>2020-09-05T09:30:14.000Z</time>
      </trkpt>
      <trkpt lat="44.09234" lon="6.82257">
        <ele>1495.5999755859</ele>
        <time>2020-09-05T09:30:16.000Z</time>
      </trkpt>
      <trkpt lat="44.09237" lon="6.82254">
        <ele>1496.4000244141</ele>
        <time>2020-09-05T09:30:18.000Z</time>
      </trkpt>
      <trkpt lat="44.09239" lon="6.82252">
        <ele>1496.5999755859</ele>
        <time>2020-09-05T09:30:19.000Z</time>
      </trkpt>
      <trkpt lat="44.09248" lon="6.82245">
        <ele>1497.8000488281</ele>
        <time>2020-09-05T09:30:24.000Z</time>
      </trkpt>
      <trkpt lat="44.09252" lon="6.82238">
        <ele>1499</ele>
        <time>2020-09-05T09:30:27.000Z</time>
      </trkpt>
      <trkpt lat="44.09257" lon="6.82231">
        <ele>1500.1999511719</ele>
        <time>2020-09-05T09:30:30.000Z</time>
      </trkpt>
      <trkpt lat="44.09264" lon="6.82224">
        <ele>1501.4000244141</ele>
        <time>2020-09-05T09:30:34.000Z</time>
      </trkpt>
      <trkpt lat="44.09269" lon="6.82218">
        <ele>1502.4000244141</ele>
        <time>2020-09-05T09:30:37.000Z</time>
      </trkpt>
      <trkpt lat="44.0927" lon="6.82217">
        <ele>1502.5999755859</ele>
        <time>2020-09-05T09:30:38.000Z</time>
      </trkpt>
      <trkpt lat="44.09275" lon="6.82212">
        <ele>1503.4000244141</ele>
        <time>2020-09-05T09:30:41.000Z</time>
      </trkpt>
      <trkpt lat="44.09276" lon="6.8221">
        <ele>1503.5999755859</ele>
        <time>2020-09-05T09:30:42.000Z</time>
      </trkpt>
      <trkpt lat="44.09278" lon="6.82208">
        <ele>1503.8000488281</ele>
        <time>2020-09-05T09:30:43.000Z</time>
      </trkpt>
      <trkpt lat="44.09285" lon="6.822">
        <ele>1504.8000488281</ele>
        <time>2020-09-05T09:30:47.000Z</time>
      </trkpt>
      <trkpt lat="44.09287" lon="6.82198">
        <ele>1505.1999511719</ele>
        <time>2020-09-05T09:30:48.000Z</time>
      </trkpt>
      <trkpt lat="44.09293" lon="6.8219">
        <ele>1505.8000488281</ele>
        <time>2020-09-05T09:30:52.000Z</time>
      </trkpt>
      <trkpt lat="44.09294" lon="6.82187">
        <ele>1506</ele>
        <time>2020-09-05T09:30:53.000Z</time>
      </trkpt>
      <trkpt lat="44.093" lon="6.82176">
        <ele>1506.8000488281</ele>
        <time>2020-09-05T09:30:57.000Z</time>
      </trkpt>
      <trkpt lat="44.09302" lon="6.82173">
        <ele>1507</ele>
        <time>2020-09-05T09:30:58.000Z</time>
      </trkpt>
      <trkpt lat="44.09305" lon="6.82168">
        <ele>1507.5999755859</ele>
        <time>2020-09-05T09:31:00.000Z</time>
      </trkpt>
      <trkpt lat="44.09309" lon="6.82163">
        <ele>1508.1999511719</ele>
        <time>2020-09-05T09:31:02.000Z</time>
      </trkpt>
      <trkpt lat="44.09314" lon="6.82156">
        <ele>1509.4000244141</ele>
        <time>2020-09-05T09:31:05.000Z</time>
      </trkpt>
      <trkpt lat="44.09319" lon="6.82149">
        <ele>1510.1999511719</ele>
        <time>2020-09-05T09:31:08.000Z</time>
      </trkpt>
      <trkpt lat="44.0932" lon="6.82147">
        <ele>1510.8000488281</ele>
        <time>2020-09-05T09:31:09.000Z</time>
      </trkpt>
      <trkpt lat="44.09322" lon="6.82145">
        <ele>1511.4000244141</ele>
        <time>2020-09-05T09:31:11.000Z</time>
      </trkpt>
      <trkpt lat="44.09324" lon="6.82141">
        <ele>1512.1999511719</ele>
        <time>2020-09-05T09:31:13.000Z</time>
      </trkpt>
      <trkpt lat="44.09325" lon="6.82138">
        <ele>1513.1999511719</ele>
        <time>2020-09-05T09:31:15.000Z</time>
      </trkpt>
      <trkpt lat="44.09326" lon="6.82132">
        <ele>1514.4000244141</ele>
        <time>2020-09-05T09:31:18.000Z</time>
      </trkpt>
      <trkpt lat="44.09326" lon="6.82129">
        <ele>1515.1999511719</ele>
        <time>2020-09-05T09:31:20.000Z</time>
      </trkpt>
      <trkpt lat="44.09327" lon="6.82128">
        <ele>1515.5999755859</ele>
        <time>2020-09-05T09:31:21.000Z</time>
      </trkpt>
      <trkpt lat="44.09327" lon="6.82127">
        <ele>1516</ele>
        <time>2020-09-05T09:31:22.000Z</time>
      </trkpt>
      <trkpt lat="44.09328" lon="6.82124">
        <ele>1516.5999755859</ele>
        <time>2020-09-05T09:31:24.000Z</time>
      </trkpt>
      <trkpt lat="44.09328" lon="6.82122">
        <ele>1517</ele>
        <time>2020-09-05T09:31:25.000Z</time>
      </trkpt>
      <trkpt lat="44.09329" lon="6.82119">
        <ele>1517.8000488281</ele>
        <time>2020-09-05T09:31:27.000Z</time>
      </trkpt>
      <trkpt lat="44.0933" lon="6.82116">
        <ele>1518.1999511719</ele>
        <time>2020-09-05T09:31:28.000Z</time>
      </trkpt>
      <trkpt lat="44.09331" lon="6.82112">
        <ele>1519</ele>
        <time>2020-09-05T09:31:30.000Z</time>
      </trkpt>
      <trkpt lat="44.09333" lon="6.82106">
        <ele>1520.4000244141</ele>
        <time>2020-09-05T09:31:33.000Z</time>
      </trkpt>
      <trkpt lat="44.09335" lon="6.82099">
        <ele>1521.8000488281</ele>
        <time>2020-09-05T09:31:36.000Z</time>
      </trkpt>
      <trkpt lat="44.09339" lon="6.8209">
        <ele>1523</ele>
        <time>2020-09-05T09:31:40.000Z</time>
      </trkpt>
      <trkpt lat="44.09342" lon="6.82085">
        <ele>1524</ele>
        <time>2020-09-05T09:31:43.000Z</time>
      </trkpt>
      <trkpt lat="44.09343" lon="6.82083">
        <ele>1524.5999755859</ele>
        <time>2020-09-05T09:31:44.000Z</time>
      </trkpt>
      <trkpt lat="44.09344" lon="6.82078">
        <ele>1525</ele>
        <time>2020-09-05T09:31:46.000Z</time>
      </trkpt>
      <trkpt lat="44.09344" lon="6.82076">
        <ele>1525.5999755859</ele>
        <time>2020-09-05T09:31:48.000Z</time>
      </trkpt>
      <trkpt lat="44.09344" lon="6.82075">
        <ele>1526.4000244141</ele>
        <time>2020-09-05T09:31:50.000Z</time>
      </trkpt>
      <trkpt lat="44.09346" lon="6.82073">
        <ele>1527.1999511719</ele>
        <time>2020-09-05T09:32:02.000Z</time>
      </trkpt>
      <trkpt lat="44.09347" lon="6.8207">
        <ele>1527.1999511719</ele>
        <time>2020-09-05T09:32:19.000Z</time>
      </trkpt>
      <trkpt lat="44.09349" lon="6.82066">
        <ele>1527.1999511719</ele>
        <time>2020-09-05T09:32:24.000Z</time>
      </trkpt>
      <trkpt lat="44.09349" lon="6.82064">
        <ele>1527.4000244141</ele>
        <time>2020-09-05T09:32:25.000Z</time>
      </trkpt>
      <trkpt lat="44.0935" lon="6.82059">
        <ele>1528.1999511719</ele>
        <time>2020-09-05T09:32:29.000Z</time>
      </trkpt>
      <trkpt lat="44.0935" lon="6.82059">
        <ele>1528.4000244141</ele>
        <time>2020-09-05T09:32:30.000Z</time>
      </trkpt>
      <trkpt lat="44.09352" lon="6.82052">
        <ele>1529</ele>
        <time>2020-09-05T09:32:34.000Z</time>
      </trkpt>
      <trkpt lat="44.09354" lon="6.82046">
        <ele>1529.8000488281</ele>
        <time>2020-09-05T09:32:37.000Z</time>
      </trkpt>
      <trkpt lat="44.09356" lon="6.82041">
        <ele>1530.1999511719</ele>
        <time>2020-09-05T09:32:39.000Z</time>
      </trkpt>
      <trkpt lat="44.09357" lon="6.82039">
        <ele>1530.8000488281</ele>
        <time>2020-09-05T09:32:40.000Z</time>
      </trkpt>
      <trkpt lat="44.0936" lon="6.8203">
        <ele>1531.8000488281</ele>
        <time>2020-09-05T09:32:43.000Z</time>
      </trkpt>
      <trkpt lat="44.09362" lon="6.82024">
        <ele>1532.5999755859</ele>
        <time>2020-09-05T09:32:45.000Z</time>
      </trkpt>
      <trkpt lat="44.09363" lon="6.82021">
        <ele>1533</ele>
        <time>2020-09-05T09:32:46.000Z</time>
      </trkpt>
      <trkpt lat="44.09366" lon="6.82014">
        <ele>1534</ele>
        <time>2020-09-05T09:32:49.000Z</time>
      </trkpt>
      <trkpt lat="44.09367" lon="6.82012">
        <ele>1534.4000244141</ele>
        <time>2020-09-05T09:32:50.000Z</time>
      </trkpt>
      <trkpt lat="44.09369" lon="6.82008">
        <ele>1535</ele>
        <time>2020-09-05T09:32:52.000Z</time>
      </trkpt>
      <trkpt lat="44.09373" lon="6.82001">
        <ele>1536.1999511719</ele>
        <time>2020-09-05T09:32:55.000Z</time>
      </trkpt>
      <trkpt lat="44.09376" lon="6.81994">
        <ele>1537.4000244141</ele>
        <time>2020-09-05T09:32:59.000Z</time>
      </trkpt>
      <trkpt lat="44.09377" lon="6.81992">
        <ele>1537.5999755859</ele>
        <time>2020-09-05T09:33:00.000Z</time>
      </trkpt>
      <trkpt lat="44.09379" lon="6.81988">
        <ele>1538.4000244141</ele>
        <time>2020-09-05T09:33:04.000Z</time>
      </trkpt>
      <trkpt lat="44.0938" lon="6.81987">
        <ele>1538.5999755859</ele>
        <time>2020-09-05T09:33:05.000Z</time>
      </trkpt>
      <trkpt lat="44.0938" lon="6.81985">
        <ele>1539</ele>
        <time>2020-09-05T09:33:10.000Z</time>
      </trkpt>
      <trkpt lat="44.09383" lon="6.81975">
        <ele>1539.4000244141</ele>
        <time>2020-09-05T09:33:15.000Z</time>
      </trkpt>
      <trkpt lat="44.09383" lon="6.81974">
        <ele>1539.5999755859</ele>
        <time>2020-09-05T09:33:16.000Z</time>
      </trkpt>
      <trkpt lat="44.09385" lon="6.81971">
        <ele>1540.1999511719</ele>
        <time>2020-09-05T09:33:19.000Z</time>
      </trkpt>
      <trkpt lat="44.09385" lon="6.81968">
        <ele>1540.4000244141</ele>
        <time>2020-09-05T09:33:21.000Z</time>
      </trkpt>
      <trkpt lat="44.09382" lon="6.81966">
        <ele>1540.8000488281</ele>
        <time>2020-09-05T09:33:23.000Z</time>
      </trkpt>
      <trkpt lat="44.09375" lon="6.81962">
        <ele>1542</ele>
        <time>2020-09-05T09:33:27.000Z</time>
      </trkpt>
      <trkpt lat="44.09374" lon="6.81961">
        <ele>1542.1999511719</ele>
        <time>2020-09-05T09:33:28.000Z</time>
      </trkpt>
      <trkpt lat="44.09371" lon="6.8196">
        <ele>1542.1999511719</ele>
        <time>2020-09-05T09:33:29.000Z</time>
      </trkpt>
      <trkpt lat="44.0937" lon="6.81958">
        <ele>1542.4000244141</ele>
        <time>2020-09-05T09:33:30.000Z</time>
      </trkpt>
      <trkpt lat="44.09366" lon="6.81949">
        <ele>1542.8000488281</ele>
        <time>2020-09-05T09:33:33.000Z</time>
      </trkpt>
      <trkpt lat="44.09365" lon="6.81947">
        <ele>1543</ele>
        <time>2020-09-05T09:33:34.000Z</time>
      </trkpt>
      <trkpt lat="44.09354" lon="6.81931">
        <ele>1543.8000488281</ele>
        <time>2020-09-05T09:33:41.000Z</time>
      </trkpt>
      <trkpt lat="44.09346" lon="6.81927">
        <ele>1543.5999755859</ele>
        <time>2020-09-05T09:33:45.000Z</time>
      </trkpt>
      <trkpt lat="44.09346" lon="6.81925">
        <ele>1542.8000488281</ele>
        <time>2020-09-05T09:33:49.000Z</time>
      </trkpt>
      <trkpt lat="44.09346" lon="6.81922">
        <ele>1542.1999511719</ele>
        <time>2020-09-05T09:33:54.000Z</time>
      </trkpt>
      <trkpt lat="44.09346" lon="6.81922">
        <ele>1542</ele>
        <time>2020-09-05T09:34:00.000Z</time>
      </trkpt>
      <trkpt lat="44.09347" lon="6.81922">
        <ele>1542</ele>
        <time>2020-09-05T09:34:08.000Z</time>
      </trkpt>
      <trkpt lat="44.09347" lon="6.81921">
        <ele>1542</ele>
        <time>2020-09-05T09:34:18.000Z</time>
      </trkpt>
      <trkpt lat="44.09348" lon="6.8192">
        <ele>1542</ele>
        <time>2020-09-05T09:34:26.000Z</time>
      </trkpt>
      <trkpt lat="44.09349" lon="6.8192">
        <ele>1542</ele>
        <time>2020-09-05T09:34:33.000Z</time>
      </trkpt>
      <trkpt lat="44.09351" lon="6.81918">
        <ele>1542</ele>
        <time>2020-09-05T09:34:40.000Z</time>
      </trkpt>
      <trkpt lat="44.09352" lon="6.81918">
        <ele>1542</ele>
        <time>2020-09-05T09:34:45.000Z</time>
      </trkpt>
      <trkpt lat="44.09355" lon="6.81915">
        <ele>1542</ele>
        <time>2020-09-05T09:35:03.000Z</time>
      </trkpt>
      <trkpt lat="44.09354" lon="6.81914">
        <ele>1542</ele>
        <time>2020-09-05T09:35:20.000Z</time>
      </trkpt>
      <trkpt lat="44.09353" lon="6.81915">
        <ele>1542</ele>
        <time>2020-09-05T09:35:29.000Z</time>
      </trkpt>
      <trkpt lat="44.09352" lon="6.81915">
        <ele>1542.1999511719</ele>
        <time>2020-09-05T09:35:38.000Z</time>
      </trkpt>
      <trkpt lat="44.09352" lon="6.81915">
        <ele>1541.8000488281</ele>
        <time>2020-09-05T09:35:44.000Z</time>
      </trkpt>
      <trkpt lat="44.09352" lon="6.81915">
        <ele>1542.5999755859</ele>
        <time>2020-09-05T09:35:55.000Z</time>
      </trkpt>
      <trkpt lat="44.09353" lon="6.81916">
        <ele>1542.4000244141</ele>
        <time>2020-09-05T09:35:57.000Z</time>
      </trkpt>
      <trkpt lat="44.09353" lon="6.81917">
        <ele>1542</ele>
        <time>2020-09-05T09:36:00.000Z</time>
      </trkpt>
      <trkpt lat="44.09353" lon="6.81918">
        <ele>1543</ele>
        <time>2020-09-05T09:36:05.000Z</time>
      </trkpt>
      <trkpt lat="44.09353" lon="6.81917">
        <ele>1543.1999511719</ele>
        <time>2020-09-05T09:36:06.000Z</time>
      </trkpt>
      <trkpt lat="44.09353" lon="6.81917">
        <ele>1542.5999755859</ele>
        <time>2020-09-05T09:36:14.000Z</time>
      </trkpt>
      <trkpt lat="44.09352" lon="6.81917">
        <ele>1542.5999755859</ele>
        <time>2020-09-05T09:36:30.000Z</time>
      </trkpt>
      <trkpt lat="44.09351" lon="6.81916">
        <ele>1542.4000244141</ele>
        <time>2020-09-05T09:36:35.000Z</time>
      </trkpt>
      <trkpt lat="44.0935" lon="6.81915">
        <ele>1542.5999755859</ele>
        <time>2020-09-05T09:36:41.000Z</time>
      </trkpt>
      <trkpt lat="44.09349" lon="6.81916">
        <ele>1542.1999511719</ele>
        <time>2020-09-05T09:36:49.000Z</time>
      </trkpt>
      <trkpt lat="44.09349" lon="6.81915">
        <ele>1542.4000244141</ele>
        <time>2020-09-05T09:36:57.000Z</time>
      </trkpt>
      <trkpt lat="44.09349" lon="6.81915">
        <ele>1542.4000244141</ele>
        <time>2020-09-05T09:37:05.000Z</time>
      </trkpt>
      <trkpt lat="44.0935" lon="6.81914">
        <ele>1542.4000244141</ele>
        <time>2020-09-05T09:37:22.000Z</time>
      </trkpt>
      <trkpt lat="44.0935" lon="6.81913">
        <ele>1542.1999511719</ele>
        <time>2020-09-05T09:37:31.000Z</time>
      </trkpt>
      <trkpt lat="44.0935" lon="6.81914">
        <ele>1542.4000244141</ele>
        <time>2020-09-05T09:37:39.000Z</time>
      </trkpt>
      <trkpt lat="44.0935" lon="6.81914">
        <ele>1542.4000244141</ele>
        <time>2020-09-05T09:37:57.000Z</time>
      </trkpt>
      <trkpt lat="44.0935" lon="6.81914">
        <ele>1542.4000244141</ele>
        <time>2020-09-05T09:38:18.000Z</time>
      </trkpt>
      <trkpt lat="44.0935" lon="6.81914">
        <ele>1542.4000244141</ele>
        <time>2020-09-05T09:38:45.000Z</time>
      </trkpt>
      <trkpt lat="44.0935" lon="6.81914">
        <ele>1542.1999511719</ele>
        <time>2020-09-05T09:38:52.000Z</time>
      </trkpt>
      <trkpt lat="44.09349" lon="6.81914">
        <ele>1542</ele>
        <time>2020-09-05T09:39:15.000Z</time>
      </trkpt>
      <trkpt lat="44.09349" lon="6.81914">
        <ele>1542.1999511719</ele>
        <time>2020-09-05T09:39:25.000Z</time>
      </trkpt>
      <trkpt lat="44.09349" lon="6.81914">
        <ele>1542.4000244141</ele>
        <time>2020-09-05T09:39:42.000Z</time>
      </trkpt>
      <trkpt lat="44.09349" lon="6.81915">
        <ele>1542.4000244141</ele>
        <time>2020-09-05T09:40:01.000Z</time>
      </trkpt>
      <trkpt lat="44.09349" lon="6.81915">
        <ele>1542.4000244141</ele>
        <time>2020-09-05T09:40:13.000Z</time>
      </trkpt>
      <trkpt lat="44.0935" lon="6.81915">
        <ele>1542.4000244141</ele>
        <time>2020-09-05T09:40:28.000Z</time>
      </trkpt>
      <trkpt lat="44.09351" lon="6.81916">
        <ele>1542.5999755859</ele>
        <time>2020-09-05T09:40:52.000Z</time>
      </trkpt>
      <trkpt lat="44.0935" lon="6.81916">
        <ele>1542.5999755859</ele>
        <time>2020-09-05T09:41:07.000Z</time>
      </trkpt>
      <trkpt lat="44.0935" lon="6.81916">
        <ele>1542.5999755859</ele>
        <time>2020-09-05T09:41:17.000Z</time>
      </trkpt>
      <trkpt lat="44.09352" lon="6.81918">
        <ele>1542.5999755859</ele>
        <time>2020-09-05T09:41:22.000Z</time>
      </trkpt>
      <trkpt lat="44.09352" lon="6.81917">
        <ele>1543.1999511719</ele>
        <time>2020-09-05T09:41:29.000Z</time>
      </trkpt>
      <trkpt lat="44.09351" lon="6.81917">
        <ele>1542.5999755859</ele>
        <time>2020-09-05T09:41:40.000Z</time>
      </trkpt>
      <trkpt lat="44.0935" lon="6.81916">
        <ele>1542.8000488281</ele>
        <time>2020-09-05T09:41:55.000Z</time>
      </trkpt>
      <trkpt lat="44.09349" lon="6.81916">
        <ele>1543</ele>
        <time>2020-09-05T09:42:03.000Z</time>
      </trkpt>
      <trkpt lat="44.09349" lon="6.81916">
        <ele>1542.8000488281</ele>
        <time>2020-09-05T09:42:14.000Z</time>
      </trkpt>
      <trkpt lat="44.09348" lon="6.81916">
        <ele>1542.5999755859</ele>
        <time>2020-09-05T09:42:27.000Z</time>
      </trkpt>
      <trkpt lat="44.09348" lon="6.81916">
        <ele>1542.5999755859</ele>
        <time>2020-09-05T09:42:40.000Z</time>
      </trkpt>
      <trkpt lat="44.09347" lon="6.81917">
        <ele>1542.8000488281</ele>
        <time>2020-09-05T09:42:46.000Z</time>
      </trkpt>
      <trkpt lat="44.09349" lon="6.81916">
        <ele>1542.5999755859</ele>
        <time>2020-09-05T09:42:51.000Z</time>
      </trkpt>
      <trkpt lat="44.0935" lon="6.81916">
        <ele>1542.8000488281</ele>
        <time>2020-09-05T09:42:58.000Z</time>
      </trkpt>
      <trkpt lat="44.09351" lon="6.81917">
        <ele>1542.5999755859</ele>
        <time>2020-09-05T09:43:10.000Z</time>
      </trkpt>
      <trkpt lat="44.09351" lon="6.81917">
        <ele>1542.5999755859</ele>
        <time>2020-09-05T09:43:21.000Z</time>
      </trkpt>
      <trkpt lat="44.09352" lon="6.81917">
        <ele>1542.5999755859</ele>
        <time>2020-09-05T09:43:23.000Z</time>
      </trkpt>
      <trkpt lat="44.09351" lon="6.81915">
        <ele>1542.5999755859</ele>
        <time>2020-09-05T09:43:25.000Z</time>
      </trkpt>
      <trkpt lat="44.0935" lon="6.81914">
        <ele>1542.5999755859</ele>
        <time>2020-09-05T09:43:29.000Z</time>
      </trkpt>
      <trkpt lat="44.0935" lon="6.81915">
        <ele>1542.5999755859</ele>
        <time>2020-09-05T09:43:38.000Z</time>
      </trkpt>
      <trkpt lat="44.09348" lon="6.81915">
        <ele>1542.5999755859</ele>
        <time>2020-09-05T09:43:49.000Z</time>
      </trkpt>
      <trkpt lat="44.09348" lon="6.81916">
        <ele>1542.5999755859</ele>
        <time>2020-09-05T09:44:01.000Z</time>
      </trkpt>
      <trkpt lat="44.09349" lon="6.81915">
        <ele>1542.5999755859</ele>
        <time>2020-09-05T09:44:07.000Z</time>
      </trkpt>
      <trkpt lat="44.09349" lon="6.81915">
        <ele>1543</ele>
        <time>2020-09-05T09:44:09.000Z</time>
      </trkpt>
      <trkpt lat="44.09349" lon="6.81914">
        <ele>1542.5999755859</ele>
        <time>2020-09-05T09:44:29.000Z</time>
      </trkpt>
      <trkpt lat="44.09348" lon="6.81915">
        <ele>1542.4000244141</ele>
        <time>2020-09-05T09:44:37.000Z</time>
      </trkpt>
      <trkpt lat="44.09348" lon="6.81915">
        <ele>1542.5999755859</ele>
        <time>2020-09-05T09:44:47.000Z</time>
      </trkpt>
      <trkpt lat="44.09349" lon="6.81918">
        <ele>1542.8000488281</ele>
        <time>2020-09-05T09:44:54.000Z</time>
      </trkpt>
      <trkpt lat="44.0935" lon="6.8192">
        <ele>1543.1999511719</ele>
        <time>2020-09-05T09:45:00.000Z</time>
      </trkpt>
      <trkpt lat="44.09351" lon="6.8192">
        <ele>1543</ele>
        <time>2020-09-05T09:45:10.000Z</time>
      </trkpt>
      <trkpt lat="44.0935" lon="6.81918">
        <ele>1543.1999511719</ele>
        <time>2020-09-05T09:45:23.000Z</time>
      </trkpt>
      <trkpt lat="44.09351" lon="6.81917">
        <ele>1543</ele>
        <time>2020-09-05T09:45:30.000Z</time>
      </trkpt>
      <trkpt lat="44.09352" lon="6.81919">
        <ele>1542.8000488281</ele>
        <time>2020-09-05T09:45:44.000Z</time>
      </trkpt>
      <trkpt lat="44.09352" lon="6.81919">
        <ele>1542.8000488281</ele>
        <time>2020-09-05T09:45:45.000Z</time>
      </trkpt>
      <trkpt lat="44.09353" lon="6.81918">
        <ele>1543</ele>
        <time>2020-09-05T09:45:49.000Z</time>
      </trkpt>
      <trkpt lat="44.09354" lon="6.81918">
        <ele>1543</ele>
        <time>2020-09-05T09:45:58.000Z</time>
      </trkpt>
      <trkpt lat="44.09351" lon="6.81916">
        <ele>1542.8000488281</ele>
        <time>2020-09-05T09:46:05.000Z</time>
      </trkpt>
      <trkpt lat="44.09351" lon="6.81916">
        <ele>1542.8000488281</ele>
        <time>2020-09-05T09:46:19.000Z</time>
      </trkpt>
      <trkpt lat="44.09349" lon="6.81914">
        <ele>1543</ele>
        <time>2020-09-05T09:46:31.000Z</time>
      </trkpt>
      <trkpt lat="44.09347" lon="6.81912">
        <ele>1542.8000488281</ele>
        <time>2020-09-05T09:46:34.000Z</time>
      </trkpt>
      <trkpt lat="44.09343" lon="6.81911">
        <ele>1542.8000488281</ele>
        <time>2020-09-05T09:46:37.000Z</time>
      </trkpt>
      <trkpt lat="44.09337" lon="6.81908">
        <ele>1543</ele>
        <time>2020-09-05T09:46:42.000Z</time>
      </trkpt>
      <trkpt lat="44.09336" lon="6.81907">
        <ele>1543</ele>
        <time>2020-09-05T09:46:43.000Z</time>
      </trkpt>
      <trkpt lat="44.09323" lon="6.81894">
        <ele>1542.8000488281</ele>
        <time>2020-09-05T09:46:51.000Z</time>
      </trkpt>
      <trkpt lat="44.09312" lon="6.8188">
        <ele>1542.8000488281</ele>
        <time>2020-09-05T09:46:57.000Z</time>
      </trkpt>
      <trkpt lat="44.09297" lon="6.81872">
        <ele>1542.5999755859</ele>
        <time>2020-09-05T09:47:02.000Z</time>
      </trkpt>
      <trkpt lat="44.09285" lon="6.81871">
        <ele>1542.4000244141</ele>
        <time>2020-09-05T09:47:05.000Z</time>
      </trkpt>
      <trkpt lat="44.09276" lon="6.81869">
        <ele>1542</ele>
        <time>2020-09-05T09:47:07.000Z</time>
      </trkpt>
      <trkpt lat="44.09269" lon="6.81867">
        <ele>1540.8000488281</ele>
        <time>2020-09-05T09:47:10.000Z</time>
      </trkpt>
      <trkpt lat="44.09259" lon="6.81865">
        <ele>1539.4000244141</ele>
        <time>2020-09-05T09:47:13.000Z</time>
      </trkpt>
      <trkpt lat="44.09255" lon="6.81864">
        <ele>1539</ele>
        <time>2020-09-05T09:47:14.000Z</time>
      </trkpt>
      <trkpt lat="44.09239" lon="6.81861">
        <ele>1538.4000244141</ele>
        <time>2020-09-05T09:47:17.000Z</time>
      </trkpt>
      <trkpt lat="44.09233" lon="6.81861">
        <ele>1538.1999511719</ele>
        <time>2020-09-05T09:47:18.000Z</time>
      </trkpt>
      <trkpt lat="44.09227" lon="6.81861">
        <ele>1538</ele>
        <time>2020-09-05T09:47:19.000Z</time>
      </trkpt>
      <trkpt lat="44.0921" lon="6.81856">
        <ele>1537.1999511719</ele>
        <time>2020-09-05T09:47:22.000Z</time>
      </trkpt>
      <trkpt lat="44.09205" lon="6.81853">
        <ele>1537</ele>
        <time>2020-09-05T09:47:23.000Z</time>
      </trkpt>
      <trkpt lat="44.092" lon="6.81852">
        <ele>1536.5999755859</ele>
        <time>2020-09-05T09:47:24.000Z</time>
      </trkpt>
      <trkpt lat="44.09195" lon="6.81851">
        <ele>1535.5999755859</ele>
        <time>2020-09-05T09:47:25.000Z</time>
      </trkpt>
      <trkpt lat="44.0919" lon="6.8185">
        <ele>1535</ele>
        <time>2020-09-05T09:47:26.000Z</time>
      </trkpt>
      <trkpt lat="44.09185" lon="6.81848">
        <ele>1534.1999511719</ele>
        <time>2020-09-05T09:47:27.000Z</time>
      </trkpt>
      <trkpt lat="44.09177" lon="6.81844">
        <ele>1532.8000488281</ele>
        <time>2020-09-05T09:47:29.000Z</time>
      </trkpt>
      <trkpt lat="44.09168" lon="6.81842">
        <ele>1532.1999511719</ele>
        <time>2020-09-05T09:47:31.000Z</time>
      </trkpt>
      <trkpt lat="44.09158" lon="6.81842">
        <ele>1531.4000244141</ele>
        <time>2020-09-05T09:47:33.000Z</time>
      </trkpt>
      <trkpt lat="44.09144" lon="6.81839">
        <ele>1530.5999755859</ele>
        <time>2020-09-05T09:47:36.000Z</time>
      </trkpt>
      <trkpt lat="44.09139" lon="6.8184">
        <ele>1530.4000244141</ele>
        <time>2020-09-05T09:47:37.000Z</time>
      </trkpt>
      <trkpt lat="44.09126" lon="6.81843">
        <ele>1529.5999755859</ele>
        <time>2020-09-05T09:47:40.000Z</time>
      </trkpt>
      <trkpt lat="44.09122" lon="6.81845">
        <ele>1529.1999511719</ele>
        <time>2020-09-05T09:47:41.000Z</time>
      </trkpt>
      <trkpt lat="44.09111" lon="6.81849">
        <ele>1528</ele>
        <time>2020-09-05T09:47:43.000Z</time>
      </trkpt>
      <trkpt lat="44.09099" lon="6.81855">
        <ele>1526.5999755859</ele>
        <time>2020-09-05T09:47:45.000Z</time>
      </trkpt>
      <trkpt lat="44.09094" lon="6.81858">
        <ele>1525.8000488281</ele>
        <time>2020-09-05T09:47:46.000Z</time>
      </trkpt>
      <trkpt lat="44.09088" lon="6.81859">
        <ele>1525</ele>
        <time>2020-09-05T09:47:47.000Z</time>
      </trkpt>
      <trkpt lat="44.09075" lon="6.81857">
        <ele>1523</ele>
        <time>2020-09-05T09:47:49.000Z</time>
      </trkpt>
      <trkpt lat="44.09064" lon="6.81854">
        <ele>1521.4000244141</ele>
        <time>2020-09-05T09:47:51.000Z</time>
      </trkpt>
      <trkpt lat="44.09051" lon="6.81853">
        <ele>1519.8000488281</ele>
        <time>2020-09-05T09:47:53.000Z</time>
      </trkpt>
      <trkpt lat="44.09046" lon="6.81854">
        <ele>1519.1999511719</ele>
        <time>2020-09-05T09:47:54.000Z</time>
      </trkpt>
      <trkpt lat="44.09041" lon="6.81856">
        <ele>1518.4000244141</ele>
        <time>2020-09-05T09:47:55.000Z</time>
      </trkpt>
      <trkpt lat="44.09033" lon="6.81862">
        <ele>1516.8000488281</ele>
        <time>2020-09-05T09:47:57.000Z</time>
      </trkpt>
      <trkpt lat="44.09024" lon="6.81866">
        <ele>1514.8000488281</ele>
        <time>2020-09-05T09:47:59.000Z</time>
      </trkpt>
      <trkpt lat="44.0902" lon="6.81865">
        <ele>1514</ele>
        <time>2020-09-05T09:48:00.000Z</time>
      </trkpt>
      <trkpt lat="44.09019" lon="6.81862">
        <ele>1513</ele>
        <time>2020-09-05T09:48:01.000Z</time>
      </trkpt>
      <trkpt lat="44.09018" lon="6.81858">
        <ele>1511.8000488281</ele>
        <time>2020-09-05T09:48:02.000Z</time>
      </trkpt>
      <trkpt lat="44.09017" lon="6.81855">
        <ele>1510.8000488281</ele>
        <time>2020-09-05T09:48:03.000Z</time>
      </trkpt>
      <trkpt lat="44.09016" lon="6.81852">
        <ele>1510.1999511719</ele>
        <time>2020-09-05T09:48:04.000Z</time>
      </trkpt>
      <trkpt lat="44.09014" lon="6.81846">
        <ele>1509</ele>
        <time>2020-09-05T09:48:06.000Z</time>
      </trkpt>
      <trkpt lat="44.09014" lon="6.81844">
        <ele>1508.8000488281</ele>
        <time>2020-09-05T09:48:07.000Z</time>
      </trkpt>
      <trkpt lat="44.09012" lon="6.81838">
        <ele>1508.4000244141</ele>
        <time>2020-09-05T09:48:09.000Z</time>
      </trkpt>
      <trkpt lat="44.0901" lon="6.81833">
        <ele>1507.8000488281</ele>
        <time>2020-09-05T09:48:11.000Z</time>
      </trkpt>
      <trkpt lat="44.09009" lon="6.81831">
        <ele>1507.5999755859</ele>
        <time>2020-09-05T09:48:12.000Z</time>
      </trkpt>
      <trkpt lat="44.09008" lon="6.81822">
        <ele>1508.1999511719</ele>
        <time>2020-09-05T09:48:15.000Z</time>
      </trkpt>
      <trkpt lat="44.09007" lon="6.8182">
        <ele>1508.4000244141</ele>
        <time>2020-09-05T09:48:16.000Z</time>
      </trkpt>
      <trkpt lat="44.09007" lon="6.81816">
        <ele>1508.8000488281</ele>
        <time>2020-09-05T09:48:18.000Z</time>
      </trkpt>
      <trkpt lat="44.09008" lon="6.81815">
        <ele>1508.8000488281</ele>
        <time>2020-09-05T09:48:19.000Z</time>
      </trkpt>
      <trkpt lat="44.09007" lon="6.81814">
        <ele>1508.8000488281</ele>
        <time>2020-09-05T09:48:21.000Z</time>
      </trkpt>
      <trkpt lat="44.09008" lon="6.81813">
        <ele>1508.8000488281</ele>
        <time>2020-09-05T09:48:26.000Z</time>
      </trkpt>
      <trkpt lat="44.09009" lon="6.8181">
        <ele>1509.1999511719</ele>
        <time>2020-09-05T09:48:32.000Z</time>
      </trkpt>
      <trkpt lat="44.09009" lon="6.8181">
        <ele>1509.8000488281</ele>
        <time>2020-09-05T09:48:35.000Z</time>
      </trkpt>
      <trkpt lat="44.0901" lon="6.8181">
        <ele>1510.1999511719</ele>
        <time>2020-09-05T09:48:37.000Z</time>
      </trkpt>
      <trkpt lat="44.09009" lon="6.8181">
        <ele>1510.5999755859</ele>
        <time>2020-09-05T09:48:43.000Z</time>
      </trkpt>
      <trkpt lat="44.09009" lon="6.81811">
        <ele>1510.5999755859</ele>
        <time>2020-09-05T09:48:44.000Z</time>
      </trkpt>
      <trkpt lat="44.09007" lon="6.81819">
        <ele>1510.4000244141</ele>
        <time>2020-09-05T09:48:47.000Z</time>
      </trkpt>
      <trkpt lat="44.0901" lon="6.81822">
        <ele>1509.4000244141</ele>
        <time>2020-09-05T09:48:51.000Z</time>
      </trkpt>
      <trkpt lat="44.09015" lon="6.81822">
        <ele>1508.8000488281</ele>
        <time>2020-09-05T09:48:53.000Z</time>
      </trkpt>
      <trkpt lat="44.09021" lon="6.8182">
        <ele>1508.5999755859</ele>
        <time>2020-09-05T09:48:55.000Z</time>
      </trkpt>
      <trkpt lat="44.09026" lon="6.81813">
        <ele>1507.8000488281</ele>
        <time>2020-09-05T09:48:57.000Z</time>
      </trkpt>
      <trkpt lat="44.09031" lon="6.81805">
        <ele>1506.4000244141</ele>
        <time>2020-09-05T09:48:59.000Z</time>
      </trkpt>
      <trkpt lat="44.09038" lon="6.81797">
        <ele>1505.1999511719</ele>
        <time>2020-09-05T09:49:01.000Z</time>
      </trkpt>
      <trkpt lat="44.09041" lon="6.81792">
        <ele>1505.1999511719</ele>
        <time>2020-09-05T09:49:02.000Z</time>
      </trkpt>
      <trkpt lat="44.09051" lon="6.8178">
        <ele>1505</ele>
        <time>2020-09-05T09:49:05.000Z</time>
      </trkpt>
      <trkpt lat="44.09063" lon="6.81767">
        <ele>1504.1999511719</ele>
        <time>2020-09-05T09:49:09.000Z</time>
      </trkpt>
      <trkpt lat="44.09066" lon="6.81762">
        <ele>1504</ele>
        <time>2020-09-05T09:49:10.000Z</time>
      </trkpt>
      <trkpt lat="44.0907" lon="6.8175">
        <ele>1503.4000244141</ele>
        <time>2020-09-05T09:49:13.000Z</time>
      </trkpt>
      <trkpt lat="44.09075" lon="6.81745">
        <ele>1503</ele>
        <time>2020-09-05T09:49:15.000Z</time>
      </trkpt>
      <trkpt lat="44.0908" lon="6.81739">
        <ele>1502.4000244141</ele>
        <time>2020-09-05T09:49:17.000Z</time>
      </trkpt>
      <trkpt lat="44.09085" lon="6.81731">
        <ele>1502</ele>
        <time>2020-09-05T09:49:19.000Z</time>
      </trkpt>
      <trkpt lat="44.09089" lon="6.81727">
        <ele>1501.5999755859</ele>
        <time>2020-09-05T09:49:20.000Z</time>
      </trkpt>
      <trkpt lat="44.09096" lon="6.8172">
        <ele>1501.1999511719</ele>
        <time>2020-09-05T09:49:22.000Z</time>
      </trkpt>
      <trkpt lat="44.09101" lon="6.81715">
        <ele>1501</ele>
        <time>2020-09-05T09:49:23.000Z</time>
      </trkpt>
      <trkpt lat="44.0911" lon="6.81701">
        <ele>1501</ele>
        <time>2020-09-05T09:49:26.000Z</time>
      </trkpt>
      <trkpt lat="44.09116" lon="6.81678">
        <ele>1500.4000244141</ele>
        <time>2020-09-05T09:49:30.000Z</time>
      </trkpt>
      <trkpt lat="44.09117" lon="6.81673">
        <ele>1499.4000244141</ele>
        <time>2020-09-05T09:49:31.000Z</time>
      </trkpt>
      <trkpt lat="44.09118" lon="6.81669">
        <ele>1498.4000244141</ele>
        <time>2020-09-05T09:49:32.000Z</time>
      </trkpt>
      <trkpt lat="44.09119" lon="6.81667">
        <ele>1497.4000244141</ele>
        <time>2020-09-05T09:49:33.000Z</time>
      </trkpt>
      <trkpt lat="44.0912" lon="6.81663">
        <ele>1496.5999755859</ele>
        <time>2020-09-05T09:49:34.000Z</time>
      </trkpt>
      <trkpt lat="44.09123" lon="6.81658">
        <ele>1495.8000488281</ele>
        <time>2020-09-05T09:49:35.000Z</time>
      </trkpt>
      <trkpt lat="44.09129" lon="6.81647">
        <ele>1494.5999755859</ele>
        <time>2020-09-05T09:49:37.000Z</time>
      </trkpt>
      <trkpt lat="44.09135" lon="6.81636">
        <ele>1493.5999755859</ele>
        <time>2020-09-05T09:49:40.000Z</time>
      </trkpt>
      <trkpt lat="44.09137" lon="6.81633">
        <ele>1493.1999511719</ele>
        <time>2020-09-05T09:49:41.000Z</time>
      </trkpt>
      <trkpt lat="44.0914" lon="6.81631">
        <ele>1492.8000488281</ele>
        <time>2020-09-05T09:49:42.000Z</time>
      </trkpt>
      <trkpt lat="44.09143" lon="6.8163">
        <ele>1492.1999511719</ele>
        <time>2020-09-05T09:49:43.000Z</time>
      </trkpt>
      <trkpt lat="44.0915" lon="6.81629">
        <ele>1491.5999755859</ele>
        <time>2020-09-05T09:49:45.000Z</time>
      </trkpt>
      <trkpt lat="44.09159" lon="6.81625">
        <ele>1491.1999511719</ele>
        <time>2020-09-05T09:49:47.000Z</time>
      </trkpt>
      <trkpt lat="44.09163" lon="6.81621">
        <ele>1491</ele>
        <time>2020-09-05T09:49:48.000Z</time>
      </trkpt>
      <trkpt lat="44.09172" lon="6.81614">
        <ele>1490.5999755859</ele>
        <time>2020-09-05T09:49:50.000Z</time>
      </trkpt>
      <trkpt lat="44.09176" lon="6.8161">
        <ele>1490.4000244141</ele>
        <time>2020-09-05T09:49:51.000Z</time>
      </trkpt>
      <trkpt lat="44.09184" lon="6.81605">
        <ele>1489.8000488281</ele>
        <time>2020-09-05T09:49:53.000Z</time>
      </trkpt>
      <trkpt lat="44.09194" lon="6.81602">
        <ele>1488.8000488281</ele>
        <time>2020-09-05T09:49:55.000Z</time>
      </trkpt>
      <trkpt lat="44.09199" lon="6.816">
        <ele>1488.4000244141</ele>
        <time>2020-09-05T09:49:56.000Z</time>
      </trkpt>
      <trkpt lat="44.09205" lon="6.81597">
        <ele>1488</ele>
        <time>2020-09-05T09:49:57.000Z</time>
      </trkpt>
      <trkpt lat="44.09208" lon="6.81594">
        <ele>1487.4000244141</ele>
        <time>2020-09-05T09:49:59.000Z</time>
      </trkpt>
      <trkpt lat="44.09209" lon="6.81591">
        <ele>1486.4000244141</ele>
        <time>2020-09-05T09:50:03.000Z</time>
      </trkpt>
      <trkpt lat="44.09215" lon="6.81584">
        <ele>1485.8000488281</ele>
        <time>2020-09-05T09:50:06.000Z</time>
      </trkpt>
      <trkpt lat="44.09223" lon="6.81579">
        <ele>1485.5999755859</ele>
        <time>2020-09-05T09:50:08.000Z</time>
      </trkpt>
      <trkpt lat="44.09231" lon="6.81571">
        <ele>1485.5999755859</ele>
        <time>2020-09-05T09:50:10.000Z</time>
      </trkpt>
      <trkpt lat="44.09233" lon="6.81567">
        <ele>1485.4000244141</ele>
        <time>2020-09-05T09:50:11.000Z</time>
      </trkpt>
      <trkpt lat="44.0924" lon="6.81553">
        <ele>1484.5999755859</ele>
        <time>2020-09-05T09:50:14.000Z</time>
      </trkpt>
      <trkpt lat="44.09242" lon="6.8155">
        <ele>1484.4000244141</ele>
        <time>2020-09-05T09:50:15.000Z</time>
      </trkpt>
      <trkpt lat="44.09248" lon="6.8155">
        <ele>1483.8000488281</ele>
        <time>2020-09-05T09:50:17.000Z</time>
      </trkpt>
      <trkpt lat="44.0925" lon="6.81548">
        <ele>1483.4000244141</ele>
        <time>2020-09-05T09:50:19.000Z</time>
      </trkpt>
      <trkpt lat="44.09254" lon="6.81544">
        <ele>1483.4000244141</ele>
        <time>2020-09-05T09:50:21.000Z</time>
      </trkpt>
      <trkpt lat="44.09256" lon="6.81541">
        <ele>1483.4000244141</ele>
        <time>2020-09-05T09:50:22.000Z</time>
      </trkpt>
      <trkpt lat="44.0926" lon="6.81537">
        <ele>1483.5999755859</ele>
        <time>2020-09-05T09:50:23.000Z</time>
      </trkpt>
      <trkpt lat="44.09264" lon="6.81533">
        <ele>1483.5999755859</ele>
        <time>2020-09-05T09:50:24.000Z</time>
      </trkpt>
      <trkpt lat="44.09275" lon="6.81515">
        <ele>1482</ele>
        <time>2020-09-05T09:50:28.000Z</time>
      </trkpt>
      <trkpt lat="44.09283" lon="6.81511">
        <ele>1481.1999511719</ele>
        <time>2020-09-05T09:50:30.000Z</time>
      </trkpt>
      <trkpt lat="44.09287" lon="6.8151">
        <ele>1480.8000488281</ele>
        <time>2020-09-05T09:50:31.000Z</time>
      </trkpt>
      <trkpt lat="44.09307" lon="6.815">
        <ele>1480.4000244141</ele>
        <time>2020-09-05T09:50:36.000Z</time>
      </trkpt>
      <trkpt lat="44.0931" lon="6.81497">
        <ele>1480.4000244141</ele>
        <time>2020-09-05T09:50:37.000Z</time>
      </trkpt>
      <trkpt lat="44.09323" lon="6.81485">
        <ele>1480.5999755859</ele>
        <time>2020-09-05T09:50:40.000Z</time>
      </trkpt>
      <trkpt lat="44.09339" lon="6.8147">
        <ele>1479.8000488281</ele>
        <time>2020-09-05T09:50:44.000Z</time>
      </trkpt>
      <trkpt lat="44.09342" lon="6.81459">
        <ele>1478.5999755859</ele>
        <time>2020-09-05T09:50:46.000Z</time>
      </trkpt>
      <trkpt lat="44.09344" lon="6.81454">
        <ele>1478</ele>
        <time>2020-09-05T09:50:47.000Z</time>
      </trkpt>
      <trkpt lat="44.09351" lon="6.8145">
        <ele>1477.8000488281</ele>
        <time>2020-09-05T09:50:48.000Z</time>
      </trkpt>
      <trkpt lat="44.09356" lon="6.81447">
        <ele>1477.4000244141</ele>
        <time>2020-09-05T09:50:49.000Z</time>
      </trkpt>
      <trkpt lat="44.09364" lon="6.81441">
        <ele>1477</ele>
        <time>2020-09-05T09:50:51.000Z</time>
      </trkpt>
      <trkpt lat="44.09378" lon="6.8143">
        <ele>1476.5999755859</ele>
        <time>2020-09-05T09:50:54.000Z</time>
      </trkpt>
      <trkpt lat="44.09386" lon="6.81425">
        <ele>1476.4000244141</ele>
        <time>2020-09-05T09:50:56.000Z</time>
      </trkpt>
      <trkpt lat="44.09399" lon="6.81416">
        <ele>1476</ele>
        <time>2020-09-05T09:50:59.000Z</time>
      </trkpt>
      <trkpt lat="44.09403" lon="6.81412">
        <ele>1475.8000488281</ele>
        <time>2020-09-05T09:51:00.000Z</time>
      </trkpt>
      <trkpt lat="44.0941" lon="6.81403">
        <ele>1475.1999511719</ele>
        <time>2020-09-05T09:51:02.000Z</time>
      </trkpt>
      <trkpt lat="44.09415" lon="6.814">
        <ele>1474.8000488281</ele>
        <time>2020-09-05T09:51:03.000Z</time>
      </trkpt>
      <trkpt lat="44.09424" lon="6.81398">
        <ele>1474</ele>
        <time>2020-09-05T09:51:05.000Z</time>
      </trkpt>
      <trkpt lat="44.09429" lon="6.81398">
        <ele>1473.8000488281</ele>
        <time>2020-09-05T09:51:06.000Z</time>
      </trkpt>
      <trkpt lat="44.09447" lon="6.81394">
        <ele>1473.4000244141</ele>
        <time>2020-09-05T09:51:10.000Z</time>
      </trkpt>
      <trkpt lat="44.09454" lon="6.8139">
        <ele>1473</ele>
        <time>2020-09-05T09:51:12.000Z</time>
      </trkpt>
      <trkpt lat="44.09456" lon="6.81387">
        <ele>1472.5999755859</ele>
        <time>2020-09-05T09:51:13.000Z</time>
      </trkpt>
      <trkpt lat="44.09458" lon="6.81383">
        <ele>1472.4000244141</ele>
        <time>2020-09-05T09:51:14.000Z</time>
      </trkpt>
      <trkpt lat="44.09463" lon="6.81376">
        <ele>1471.8000488281</ele>
        <time>2020-09-05T09:51:16.000Z</time>
      </trkpt>
      <trkpt lat="44.09467" lon="6.81371">
        <ele>1471.8000488281</ele>
        <time>2020-09-05T09:51:17.000Z</time>
      </trkpt>
      <trkpt lat="44.09484" lon="6.8135">
        <ele>1471.5999755859</ele>
        <time>2020-09-05T09:51:22.000Z</time>
      </trkpt>
      <trkpt lat="44.09502" lon="6.81335">
        <ele>1472.1999511719</ele>
        <time>2020-09-05T09:51:26.000Z</time>
      </trkpt>
      <trkpt lat="44.09507" lon="6.81328">
        <ele>1472.4000244141</ele>
        <time>2020-09-05T09:51:27.000Z</time>
      </trkpt>
      <trkpt lat="44.09516" lon="6.81321">
        <ele>1472</ele>
        <time>2020-09-05T09:51:29.000Z</time>
      </trkpt>
      <trkpt lat="44.09525" lon="6.81315">
        <ele>1471.5999755859</ele>
        <time>2020-09-05T09:51:31.000Z</time>
      </trkpt>
      <trkpt lat="44.09541" lon="6.81301">
        <ele>1471</ele>
        <time>2020-09-05T09:51:34.000Z</time>
      </trkpt>
      <trkpt lat="44.09552" lon="6.81292">
        <ele>1470.8000488281</ele>
        <time>2020-09-05T09:51:36.000Z</time>
      </trkpt>
      <trkpt lat="44.0957" lon="6.81272">
        <ele>1469.5999755859</ele>
        <time>2020-09-05T09:51:40.000Z</time>
      </trkpt>
      <trkpt lat="44.09594" lon="6.81237">
        <ele>1468.5999755859</ele>
        <time>2020-09-05T09:51:46.000Z</time>
      </trkpt>
      <trkpt lat="44.09615" lon="6.81201">
        <ele>1467.5999755859</ele>
        <time>2020-09-05T09:51:51.000Z</time>
      </trkpt>
      <trkpt lat="44.09624" lon="6.81186">
        <ele>1466.4000244141</ele>
        <time>2020-09-05T09:51:53.000Z</time>
      </trkpt>
      <trkpt lat="44.09633" lon="6.81176">
        <ele>1465.4000244141</ele>
        <time>2020-09-05T09:51:55.000Z</time>
      </trkpt>
      <trkpt lat="44.09639" lon="6.8117">
        <ele>1464.5999755859</ele>
        <time>2020-09-05T09:51:57.000Z</time>
      </trkpt>
      <trkpt lat="44.09642" lon="6.81166">
        <ele>1465.4000244141</ele>
        <time>2020-09-05T09:52:01.000Z</time>
      </trkpt>
      <trkpt lat="44.09642" lon="6.81162">
        <ele>1466</ele>
        <time>2020-09-05T09:52:05.000Z</time>
      </trkpt>
      <trkpt lat="44.09643" lon="6.81162">
        <ele>1466.4000244141</ele>
        <time>2020-09-05T09:52:08.000Z</time>
      </trkpt>
      <trkpt lat="44.09644" lon="6.81161">
        <ele>1466.4000244141</ele>
        <time>2020-09-05T09:52:09.000Z</time>
      </trkpt>
      <trkpt lat="44.09646" lon="6.8116">
        <ele>1466.5999755859</ele>
        <time>2020-09-05T09:52:10.000Z</time>
      </trkpt>
      <trkpt lat="44.09654" lon="6.81156">
        <ele>1467.1999511719</ele>
        <time>2020-09-05T09:52:14.000Z</time>
      </trkpt>
      <trkpt lat="44.09656" lon="6.81155">
        <ele>1467.4000244141</ele>
        <time>2020-09-05T09:52:15.000Z</time>
      </trkpt>
      <trkpt lat="44.09661" lon="6.81153">
        <ele>1468</ele>
        <time>2020-09-05T09:52:17.000Z</time>
      </trkpt>
      <trkpt lat="44.09664" lon="6.81147">
        <ele>1468.5999755859</ele>
        <time>2020-09-05T09:52:19.000Z</time>
      </trkpt>
      <trkpt lat="44.0967" lon="6.81129">
        <ele>1469.8000488281</ele>
        <time>2020-09-05T09:52:25.000Z</time>
      </trkpt>
      <trkpt lat="44.09675" lon="6.81117">
        <ele>1470.1999511719</ele>
        <time>2020-09-05T09:52:29.000Z</time>
      </trkpt>
      <trkpt lat="44.09679" lon="6.81106">
        <ele>1470.8000488281</ele>
        <time>2020-09-05T09:52:32.000Z</time>
      </trkpt>
      <trkpt lat="44.09681" lon="6.81104">
        <ele>1471.8000488281</ele>
        <time>2020-09-05T09:52:34.000Z</time>
      </trkpt>
      <trkpt lat="44.09683" lon="6.81102">
        <ele>1472.1999511719</ele>
        <time>2020-09-05T09:52:35.000Z</time>
      </trkpt>
      <trkpt lat="44.09688" lon="6.81094">
        <ele>1473</ele>
        <time>2020-09-05T09:52:38.000Z</time>
      </trkpt>
      <trkpt lat="44.09694" lon="6.81083">
        <ele>1472.8000488281</ele>
        <time>2020-09-05T09:52:41.000Z</time>
      </trkpt>
      <trkpt lat="44.097" lon="6.81069">
        <ele>1472.8000488281</ele>
        <time>2020-09-05T09:52:44.000Z</time>
      </trkpt>
      <trkpt lat="44.09705" lon="6.81045">
        <ele>1472.1999511719</ele>
        <time>2020-09-05T09:52:49.000Z</time>
      </trkpt>
      <trkpt lat="44.09702" lon="6.81033">
        <ele>1471.8000488281</ele>
        <time>2020-09-05T09:52:52.000Z</time>
      </trkpt>
      <trkpt lat="44.09702" lon="6.8103">
        <ele>1472.1999511719</ele>
        <time>2020-09-05T09:52:55.000Z</time>
      </trkpt>
      <trkpt lat="44.09706" lon="6.81025">
        <ele>1471.5999755859</ele>
        <time>2020-09-05T09:53:13.000Z</time>
      </trkpt>
      <trkpt lat="44.0971" lon="6.81021">
        <ele>1471.8000488281</ele>
        <time>2020-09-05T09:53:34.000Z</time>
      </trkpt>
      <trkpt lat="44.09713" lon="6.81021">
        <ele>1471.5999755859</ele>
        <time>2020-09-05T09:53:53.000Z</time>
      </trkpt>
      <trkpt lat="44.09715" lon="6.8102">
        <ele>1471.5999755859</ele>
        <time>2020-09-05T09:54:12.000Z</time>
      </trkpt>
      <trkpt lat="44.09715" lon="6.81021">
        <ele>1471.8000488281</ele>
        <time>2020-09-05T09:54:19.000Z</time>
      </trkpt>
      <trkpt lat="44.09715" lon="6.81021">
        <ele>1472</ele>
        <time>2020-09-05T09:54:29.000Z</time>
      </trkpt>
      <trkpt lat="44.09709" lon="6.81016">
        <ele>1472.1999511719</ele>
        <time>2020-09-05T09:54:34.000Z</time>
      </trkpt>
      <trkpt lat="44.09708" lon="6.81015">
        <ele>1471.8000488281</ele>
        <time>2020-09-05T09:54:39.000Z</time>
      </trkpt>
      <trkpt lat="44.09704" lon="6.81011">
        <ele>1471.8000488281</ele>
        <time>2020-09-05T09:54:49.000Z</time>
      </trkpt>
      <trkpt lat="44.0969" lon="6.80997">
        <ele>1471.5999755859</ele>
        <time>2020-09-05T09:54:53.000Z</time>
      </trkpt>
      <trkpt lat="44.09686" lon="6.80994">
        <ele>1471.1999511719</ele>
        <time>2020-09-05T09:54:54.000Z</time>
      </trkpt>
      <trkpt lat="44.09681" lon="6.80991">
        <ele>1470.5999755859</ele>
        <time>2020-09-05T09:54:55.000Z</time>
      </trkpt>
      <trkpt lat="44.09676" lon="6.80989">
        <ele>1469.8000488281</ele>
        <time>2020-09-05T09:54:56.000Z</time>
      </trkpt>
      <trkpt lat="44.09671" lon="6.80987">
        <ele>1468.8000488281</ele>
        <time>2020-09-05T09:54:57.000Z</time>
      </trkpt>
      <trkpt lat="44.09666" lon="6.80985">
        <ele>1467.8000488281</ele>
        <time>2020-09-05T09:54:58.000Z</time>
      </trkpt>
      <trkpt lat="44.09658" lon="6.8098">
        <ele>1466.1999511719</ele>
        <time>2020-09-05T09:55:00.000Z</time>
      </trkpt>
      <trkpt lat="44.09657" lon="6.80978">
        <ele>1465.5999755859</ele>
        <time>2020-09-05T09:55:01.000Z</time>
      </trkpt>
      <trkpt lat="44.09657" lon="6.80975">
        <ele>1465.1999511719</ele>
        <time>2020-09-05T09:55:02.000Z</time>
      </trkpt>
      <trkpt lat="44.09661" lon="6.80968">
        <ele>1464</ele>
        <time>2020-09-05T09:55:04.000Z</time>
      </trkpt>
      <trkpt lat="44.09665" lon="6.80961">
        <ele>1463.4000244141</ele>
        <time>2020-09-05T09:55:05.000Z</time>
      </trkpt>
      <trkpt lat="44.09669" lon="6.80955">
        <ele>1462.8000488281</ele>
        <time>2020-09-05T09:55:06.000Z</time>
      </trkpt>
      <trkpt lat="44.09674" lon="6.80949">
        <ele>1462</ele>
        <time>2020-09-05T09:55:07.000Z</time>
      </trkpt>
      <trkpt lat="44.09679" lon="6.80944">
        <ele>1461</ele>
        <time>2020-09-05T09:55:08.000Z</time>
      </trkpt>
      <trkpt lat="44.09685" lon="6.80938">
        <ele>1459.5999755859</ele>
        <time>2020-09-05T09:55:09.000Z</time>
      </trkpt>
      <trkpt lat="44.09689" lon="6.80934">
        <ele>1458.1999511719</ele>
        <time>2020-09-05T09:55:10.000Z</time>
      </trkpt>
      <trkpt lat="44.09693" lon="6.80927">
        <ele>1456.8000488281</ele>
        <time>2020-09-05T09:55:11.000Z</time>
      </trkpt>
      <trkpt lat="44.09698" lon="6.8092">
        <ele>1455.5999755859</ele>
        <time>2020-09-05T09:55:12.000Z</time>
      </trkpt>
      <trkpt lat="44.09702" lon="6.80912">
        <ele>1454.4000244141</ele>
        <time>2020-09-05T09:55:13.000Z</time>
      </trkpt>
      <trkpt lat="44.09706" lon="6.80904">
        <ele>1453.1999511719</ele>
        <time>2020-09-05T09:55:14.000Z</time>
      </trkpt>
      <trkpt lat="44.0971" lon="6.80897">
        <ele>1452</ele>
        <time>2020-09-05T09:55:15.000Z</time>
      </trkpt>
      <trkpt lat="44.09712" lon="6.80891">
        <ele>1451.1999511719</ele>
        <time>2020-09-05T09:55:16.000Z</time>
      </trkpt>
      <trkpt lat="44.09715" lon="6.80885">
        <ele>1450</ele>
        <time>2020-09-05T09:55:17.000Z</time>
      </trkpt>
      <trkpt lat="44.09718" lon="6.8088">
        <ele>1448.4000244141</ele>
        <time>2020-09-05T09:55:18.000Z</time>
      </trkpt>
      <trkpt lat="44.09719" lon="6.80874">
        <ele>1447</ele>
        <time>2020-09-05T09:55:19.000Z</time>
      </trkpt>
      <trkpt lat="44.09721" lon="6.80868">
        <ele>1445.8000488281</ele>
        <time>2020-09-05T09:55:20.000Z</time>
      </trkpt>
      <trkpt lat="44.09724" lon="6.80857">
        <ele>1444.1999511719</ele>
        <time>2020-09-05T09:55:22.000Z</time>
      </trkpt>
      <trkpt lat="44.09728" lon="6.80852">
        <ele>1442.8000488281</ele>
        <time>2020-09-05T09:55:24.000Z</time>
      </trkpt>
      <trkpt lat="44.09729" lon="6.80852">
        <ele>1440.5999755859</ele>
        <time>2020-09-05T09:55:26.000Z</time>
      </trkpt>
      <trkpt lat="44.09729" lon="6.80851">
        <ele>1439.1999511719</ele>
        <time>2020-09-05T09:55:27.000Z</time>
      </trkpt>
      <trkpt lat="44.09729" lon="6.80851">
        <ele>1437.8000488281</ele>
        <time>2020-09-05T09:55:28.000Z</time>
      </trkpt>
      <trkpt lat="44.09729" lon="6.80851">
        <ele>1436.5999755859</ele>
        <time>2020-09-05T09:55:29.000Z</time>
      </trkpt>
      <trkpt lat="44.09731" lon="6.8085">
        <ele>1435.5999755859</ele>
        <time>2020-09-05T09:55:31.000Z</time>
      </trkpt>
      <trkpt lat="44.09733" lon="6.80847">
        <ele>1435.4000244141</ele>
        <time>2020-09-05T09:55:32.000Z</time>
      </trkpt>
      <trkpt lat="44.09743" lon="6.80832">
        <ele>1435.4000244141</ele>
        <time>2020-09-05T09:55:35.000Z</time>
      </trkpt>
      <trkpt lat="44.09747" lon="6.80827">
        <ele>1435.4000244141</ele>
        <time>2020-09-05T09:55:36.000Z</time>
      </trkpt>
      <trkpt lat="44.09764" lon="6.80807">
        <ele>1433.5999755859</ele>
        <time>2020-09-05T09:55:39.000Z</time>
      </trkpt>
      <trkpt lat="44.09769" lon="6.80803">
        <ele>1432.8000488281</ele>
        <time>2020-09-05T09:55:40.000Z</time>
      </trkpt>
      <trkpt lat="44.09775" lon="6.80801">
        <ele>1432</ele>
        <time>2020-09-05T09:55:41.000Z</time>
      </trkpt>
      <trkpt lat="44.09787" lon="6.80794">
        <ele>1430</ele>
        <time>2020-09-05T09:55:43.000Z</time>
      </trkpt>
      <trkpt lat="44.09793" lon="6.8079">
        <ele>1429.1999511719</ele>
        <time>2020-09-05T09:55:44.000Z</time>
      </trkpt>
      <trkpt lat="44.09799" lon="6.80785">
        <ele>1428.5999755859</ele>
        <time>2020-09-05T09:55:45.000Z</time>
      </trkpt>
      <trkpt lat="44.09803" lon="6.80781">
        <ele>1428</ele>
        <time>2020-09-05T09:55:46.000Z</time>
      </trkpt>
      <trkpt lat="44.09807" lon="6.80776">
        <ele>1427.4000244141</ele>
        <time>2020-09-05T09:55:47.000Z</time>
      </trkpt>
      <trkpt lat="44.0981" lon="6.80773">
        <ele>1427.1999511719</ele>
        <time>2020-09-05T09:55:48.000Z</time>
      </trkpt>
      <trkpt lat="44.0981" lon="6.80771">
        <ele>1426.4000244141</ele>
        <time>2020-09-05T09:55:49.000Z</time>
      </trkpt>
      <trkpt lat="44.09811" lon="6.80771">
        <ele>1425.5999755859</ele>
        <time>2020-09-05T09:55:51.000Z</time>
      </trkpt>
      <trkpt lat="44.09811" lon="6.80771">
        <ele>1425.1999511719</ele>
        <time>2020-09-05T09:55:52.000Z</time>
      </trkpt>
      <trkpt lat="44.09811" lon="6.80771">
        <ele>1424</ele>
        <time>2020-09-05T09:55:55.000Z</time>
      </trkpt>
      <trkpt lat="44.0981" lon="6.80771">
        <ele>1423</ele>
        <time>2020-09-05T09:56:01.000Z</time>
      </trkpt>
      <trkpt lat="44.0981" lon="6.80771">
        <ele>1423</ele>
        <time>2020-09-05T09:56:04.000Z</time>
      </trkpt>
      <trkpt lat="44.0981" lon="6.80772">
        <ele>1423</ele>
        <time>2020-09-05T09:56:19.000Z</time>
      </trkpt>
      <trkpt lat="44.09811" lon="6.80771">
        <ele>1423.1999511719</ele>
        <time>2020-09-05T09:56:39.000Z</time>
      </trkpt>
      <trkpt lat="44.09813" lon="6.80767">
        <ele>1423.1999511719</ele>
        <time>2020-09-05T09:56:44.000Z</time>
      </trkpt>
      <trkpt lat="44.09814" lon="6.80766">
        <ele>1423</ele>
        <time>2020-09-05T09:56:50.000Z</time>
      </trkpt>
      <trkpt lat="44.09815" lon="6.80765">
        <ele>1422.5999755859</ele>
        <time>2020-09-05T09:56:59.000Z</time>
      </trkpt>
      <trkpt lat="44.09823" lon="6.80759">
        <ele>1423</ele>
        <time>2020-09-05T09:57:04.000Z</time>
      </trkpt>
      <trkpt lat="44.09837" lon="6.80748">
        <ele>1422.5999755859</ele>
        <time>2020-09-05T09:57:10.000Z</time>
      </trkpt>
      <trkpt lat="44.09853" lon="6.80733">
        <ele>1421.8000488281</ele>
        <time>2020-09-05T09:57:16.000Z</time>
      </trkpt>
      <trkpt lat="44.09872" lon="6.80715">
        <ele>1421.4000244141</ele>
        <time>2020-09-05T09:57:22.000Z</time>
      </trkpt>
      <trkpt lat="44.09892" lon="6.80696">
        <ele>1421</ele>
        <time>2020-09-05T09:57:27.000Z</time>
      </trkpt>
      <trkpt lat="44.09896" lon="6.80692">
        <ele>1421</ele>
        <time>2020-09-05T09:57:28.000Z</time>
      </trkpt>
      <trkpt lat="44.09902" lon="6.80681">
        <ele>1420.8000488281</ele>
        <time>2020-09-05T09:57:30.000Z</time>
      </trkpt>
      <trkpt lat="44.09905" lon="6.80676">
        <ele>1420.8000488281</ele>
        <time>2020-09-05T09:57:31.000Z</time>
      </trkpt>
      <trkpt lat="44.09911" lon="6.80665">
        <ele>1420.8000488281</ele>
        <time>2020-09-05T09:57:33.000Z</time>
      </trkpt>
      <trkpt lat="44.09918" lon="6.80656">
        <ele>1421.1999511719</ele>
        <time>2020-09-05T09:57:35.000Z</time>
      </trkpt>
      <trkpt lat="44.09929" lon="6.80643">
        <ele>1421.8000488281</ele>
        <time>2020-09-05T09:57:38.000Z</time>
      </trkpt>
      <trkpt lat="44.09933" lon="6.80639">
        <ele>1422</ele>
        <time>2020-09-05T09:57:39.000Z</time>
      </trkpt>
      <trkpt lat="44.09962" lon="6.80608">
        <ele>1422.5999755859</ele>
        <time>2020-09-05T09:57:46.000Z</time>
      </trkpt>
      <trkpt lat="44.09972" lon="6.80601">
        <ele>1422.5999755859</ele>
        <time>2020-09-05T09:57:48.000Z</time>
      </trkpt>
      <trkpt lat="44.09985" lon="6.8059">
        <ele>1422.5999755859</ele>
        <time>2020-09-05T09:57:52.000Z</time>
      </trkpt>
      <trkpt lat="44.09998" lon="6.80574">
        <ele>1421.8000488281</ele>
        <time>2020-09-05T09:57:56.000Z</time>
      </trkpt>
      <trkpt lat="44.09999" lon="6.80568">
        <ele>1421.8000488281</ele>
        <time>2020-09-05T09:57:57.000Z</time>
      </trkpt>
      <trkpt lat="44.10004" lon="6.8055">
        <ele>1422.5999755859</ele>
        <time>2020-09-05T09:58:00.000Z</time>
      </trkpt>
      <trkpt lat="44.10007" lon="6.80544">
        <ele>1422.5999755859</ele>
        <time>2020-09-05T09:58:01.000Z</time>
      </trkpt>
      <trkpt lat="44.10011" lon="6.80538">
        <ele>1423</ele>
        <time>2020-09-05T09:58:02.000Z</time>
      </trkpt>
      <trkpt lat="44.10024" lon="6.8052">
        <ele>1422.8000488281</ele>
        <time>2020-09-05T09:58:05.000Z</time>
      </trkpt>
      <trkpt lat="44.10029" lon="6.80515">
        <ele>1422.5999755859</ele>
        <time>2020-09-05T09:58:06.000Z</time>
      </trkpt>
      <trkpt lat="44.10044" lon="6.80496">
        <ele>1421.5999755859</ele>
        <time>2020-09-05T09:58:09.000Z</time>
      </trkpt>
      <trkpt lat="44.10048" lon="6.8049">
        <ele>1421</ele>
        <time>2020-09-05T09:58:10.000Z</time>
      </trkpt>
      <trkpt lat="44.10051" lon="6.80484">
        <ele>1420.4000244141</ele>
        <time>2020-09-05T09:58:11.000Z</time>
      </trkpt>
      <trkpt lat="44.10054" lon="6.80478">
        <ele>1419.8000488281</ele>
        <time>2020-09-05T09:58:12.000Z</time>
      </trkpt>
      <trkpt lat="44.10057" lon="6.80472">
        <ele>1419.1999511719</ele>
        <time>2020-09-05T09:58:13.000Z</time>
      </trkpt>
      <trkpt lat="44.10061" lon="6.80463">
        <ele>1418.1999511719</ele>
        <time>2020-09-05T09:58:15.000Z</time>
      </trkpt>
      <trkpt lat="44.10063" lon="6.80459">
        <ele>1417.8000488281</ele>
        <time>2020-09-05T09:58:16.000Z</time>
      </trkpt>
      <trkpt lat="44.10066" lon="6.8045">
        <ele>1416.5999755859</ele>
        <time>2020-09-05T09:58:19.000Z</time>
      </trkpt>
      <trkpt lat="44.10067" lon="6.80448">
        <ele>1416.4000244141</ele>
        <time>2020-09-05T09:58:20.000Z</time>
      </trkpt>
      <trkpt lat="44.10069" lon="6.80446">
        <ele>1415.8000488281</ele>
        <time>2020-09-05T09:58:24.000Z</time>
      </trkpt>
      <trkpt lat="44.10069" lon="6.80446">
        <ele>1415.5999755859</ele>
        <time>2020-09-05T09:58:25.000Z</time>
      </trkpt>
      <trkpt lat="44.1007" lon="6.80446">
        <ele>1415</ele>
        <time>2020-09-05T09:58:34.000Z</time>
      </trkpt>
      <trkpt lat="44.10075" lon="6.80434">
        <ele>1415.1999511719</ele>
        <time>2020-09-05T09:58:38.000Z</time>
      </trkpt>
      <trkpt lat="44.10086" lon="6.80408">
        <ele>1415.5999755859</ele>
        <time>2020-09-05T09:58:42.000Z</time>
      </trkpt>
      <trkpt lat="44.10089" lon="6.804">
        <ele>1415.4000244141</ele>
        <time>2020-09-05T09:58:43.000Z</time>
      </trkpt>
      <trkpt lat="44.10095" lon="6.80385">
        <ele>1414.8000488281</ele>
        <time>2020-09-05T09:58:45.000Z</time>
      </trkpt>
      <trkpt lat="44.10098" lon="6.80379">
        <ele>1414.4000244141</ele>
        <time>2020-09-05T09:58:46.000Z</time>
      </trkpt>
      <trkpt lat="44.10102" lon="6.80367">
        <ele>1413.8000488281</ele>
        <time>2020-09-05T09:58:48.000Z</time>
      </trkpt>
      <trkpt lat="44.10104" lon="6.8036">
        <ele>1413.1999511719</ele>
        <time>2020-09-05T09:58:49.000Z</time>
      </trkpt>
      <trkpt lat="44.10107" lon="6.80342">
        <ele>1412.1999511719</ele>
        <time>2020-09-05T09:58:52.000Z</time>
      </trkpt>
      <trkpt lat="44.10107" lon="6.8032">
        <ele>1412</ele>
        <time>2020-09-05T09:58:56.000Z</time>
      </trkpt>
      <trkpt lat="44.10097" lon="6.80307">
        <ele>1411.5999755859</ele>
        <time>2020-09-05T09:58:59.000Z</time>
      </trkpt>
      <trkpt lat="44.10093" lon="6.80302">
        <ele>1411.5999755859</ele>
        <time>2020-09-05T09:59:00.000Z</time>
      </trkpt>
      <trkpt lat="44.1009" lon="6.80287">
        <ele>1411</ele>
        <time>2020-09-05T09:59:02.000Z</time>
      </trkpt>
      <trkpt lat="44.10092" lon="6.80272">
        <ele>1409.8000488281</ele>
        <time>2020-09-05T09:59:04.000Z</time>
      </trkpt>
      <trkpt lat="44.10096" lon="6.80258">
        <ele>1408.5999755859</ele>
        <time>2020-09-05T09:59:06.000Z</time>
      </trkpt>
      <trkpt lat="44.10105" lon="6.80243">
        <ele>1407.8000488281</ele>
        <time>2020-09-05T09:59:09.000Z</time>
      </trkpt>
      <trkpt lat="44.10107" lon="6.80239">
        <ele>1407.5999755859</ele>
        <time>2020-09-05T09:59:10.000Z</time>
      </trkpt>
      <trkpt lat="44.10109" lon="6.80235">
        <ele>1407.5999755859</ele>
        <time>2020-09-05T09:59:11.000Z</time>
      </trkpt>
      <trkpt lat="44.10121" lon="6.80218">
        <ele>1408.1999511719</ele>
        <time>2020-09-05T09:59:16.000Z</time>
      </trkpt>
      <trkpt lat="44.10125" lon="6.80214">
        <ele>1408.4000244141</ele>
        <time>2020-09-05T09:59:17.000Z</time>
      </trkpt>
      <trkpt lat="44.10128" lon="6.8021">
        <ele>1408.5999755859</ele>
        <time>2020-09-05T09:59:18.000Z</time>
      </trkpt>
      <trkpt lat="44.10135" lon="6.80199">
        <ele>1409.4000244141</ele>
        <time>2020-09-05T09:59:21.000Z</time>
      </trkpt>
      <trkpt lat="44.10137" lon="6.80195">
        <ele>1409.8000488281</ele>
        <time>2020-09-05T09:59:22.000Z</time>
      </trkpt>
      <trkpt lat="44.10144" lon="6.80174">
        <ele>1410.4000244141</ele>
        <time>2020-09-05T09:59:28.000Z</time>
      </trkpt>
      <trkpt lat="44.10149" lon="6.80153">
        <ele>1409.8000488281</ele>
        <time>2020-09-05T09:59:34.000Z</time>
      </trkpt>
      <trkpt lat="44.10157" lon="6.8013">
        <ele>1409.5999755859</ele>
        <time>2020-09-05T09:59:41.000Z</time>
      </trkpt>
      <trkpt lat="44.10163" lon="6.80112">
        <ele>1410.1999511719</ele>
        <time>2020-09-05T09:59:46.000Z</time>
      </trkpt>
      <trkpt lat="44.1017" lon="6.80103">
        <ele>1411</ele>
        <time>2020-09-05T09:59:49.000Z</time>
      </trkpt>
      <trkpt lat="44.10175" lon="6.80097">
        <ele>1411.4000244141</ele>
        <time>2020-09-05T09:59:51.000Z</time>
      </trkpt>
      <trkpt lat="44.10182" lon="6.80088">
        <ele>1412</ele>
        <time>2020-09-05T09:59:54.000Z</time>
      </trkpt>
      <trkpt lat="44.10187" lon="6.80082">
        <ele>1412.8000488281</ele>
        <time>2020-09-05T09:59:57.000Z</time>
      </trkpt>
      <trkpt lat="44.10189" lon="6.80079">
        <ele>1412.5999755859</ele>
        <time>2020-09-05T10:00:01.000Z</time>
      </trkpt>
      <trkpt lat="44.1019" lon="6.80078">
        <ele>1412</ele>
        <time>2020-09-05T10:00:10.000Z</time>
      </trkpt>
      <trkpt lat="44.10189" lon="6.80079">
        <ele>1412.1999511719</ele>
        <time>2020-09-05T10:00:16.000Z</time>
      </trkpt>
      <trkpt lat="44.10189" lon="6.80079">
        <ele>1412.1999511719</ele>
        <time>2020-09-05T10:00:23.000Z</time>
      </trkpt>
      <trkpt lat="44.1019" lon="6.80078">
        <ele>1412.4000244141</ele>
        <time>2020-09-05T10:00:38.000Z</time>
      </trkpt>
      <trkpt lat="44.10191" lon="6.80077">
        <ele>1412.1999511719</ele>
        <time>2020-09-05T10:00:48.000Z</time>
      </trkpt>
      <trkpt lat="44.10192" lon="6.80077">
        <ele>1412</ele>
        <time>2020-09-05T10:00:57.000Z</time>
      </trkpt>
      <trkpt lat="44.10193" lon="6.80075">
        <ele>1412.1999511719</ele>
        <time>2020-09-05T10:01:18.000Z</time>
      </trkpt>
      <trkpt lat="44.10194" lon="6.80075">
        <ele>1412</ele>
        <time>2020-09-05T10:01:24.000Z</time>
      </trkpt>
      <trkpt lat="44.10195" lon="6.80073">
        <ele>1412</ele>
        <time>2020-09-05T10:01:27.000Z</time>
      </trkpt>
      <trkpt lat="44.10196" lon="6.80071">
        <ele>1412.1999511719</ele>
        <time>2020-09-05T10:01:28.000Z</time>
      </trkpt>
      <trkpt lat="44.10198" lon="6.80053">
        <ele>1412.1999511719</ele>
        <time>2020-09-05T10:01:32.000Z</time>
      </trkpt>
      <trkpt lat="44.1019" lon="6.80034">
        <ele>1411</ele>
        <time>2020-09-05T10:01:36.000Z</time>
      </trkpt>
      <trkpt lat="44.10187" lon="6.80029">
        <ele>1410.5999755859</ele>
        <time>2020-09-05T10:01:37.000Z</time>
      </trkpt>
      <trkpt lat="44.10182" lon="6.80019">
        <ele>1409.4000244141</ele>
        <time>2020-09-05T10:01:39.000Z</time>
      </trkpt>
      <trkpt lat="44.10178" lon="6.80005">
        <ele>1408</ele>
        <time>2020-09-05T10:01:41.000Z</time>
      </trkpt>
      <trkpt lat="44.10175" lon="6.79999">
        <ele>1406.8000488281</ele>
        <time>2020-09-05T10:01:42.000Z</time>
      </trkpt>
      <trkpt lat="44.1017" lon="6.79995">
        <ele>1405.5999755859</ele>
        <time>2020-09-05T10:01:43.000Z</time>
      </trkpt>
      <trkpt lat="44.10165" lon="6.79993">
        <ele>1404.4000244141</ele>
        <time>2020-09-05T10:01:44.000Z</time>
      </trkpt>
      <trkpt lat="44.1016" lon="6.79991">
        <ele>1403.1999511719</ele>
        <time>2020-09-05T10:01:45.000Z</time>
      </trkpt>
      <trkpt lat="44.10155" lon="6.79989">
        <ele>1402</ele>
        <time>2020-09-05T10:01:46.000Z</time>
      </trkpt>
      <trkpt lat="44.1015" lon="6.79986">
        <ele>1400.8000488281</ele>
        <time>2020-09-05T10:01:47.000Z</time>
      </trkpt>
      <trkpt lat="44.10147" lon="6.79984">
        <ele>1399.4000244141</ele>
        <time>2020-09-05T10:01:48.000Z</time>
      </trkpt>
      <trkpt lat="44.10145" lon="6.79981">
        <ele>1398</ele>
        <time>2020-09-05T10:01:49.000Z</time>
      </trkpt>
      <trkpt lat="44.10144" lon="6.79977">
        <ele>1396.5999755859</ele>
        <time>2020-09-05T10:01:50.000Z</time>
      </trkpt>
      <trkpt lat="44.10144" lon="6.79973">
        <ele>1395.4000244141</ele>
        <time>2020-09-05T10:01:51.000Z</time>
      </trkpt>
      <trkpt lat="44.10144" lon="6.7997">
        <ele>1394.1999511719</ele>
        <time>2020-09-05T10:01:52.000Z</time>
      </trkpt>
      <trkpt lat="44.10146" lon="6.79966">
        <ele>1393</ele>
        <time>2020-09-05T10:01:54.000Z</time>
      </trkpt>
      <trkpt lat="44.10146" lon="6.79966">
        <ele>1392.5999755859</ele>
        <time>2020-09-05T10:01:56.000Z</time>
      </trkpt>
      <trkpt lat="44.10145" lon="6.79966">
        <ele>1392.1999511719</ele>
        <time>2020-09-05T10:02:07.000Z</time>
      </trkpt>
      <trkpt lat="44.10145" lon="6.79965">
        <ele>1392.1999511719</ele>
        <time>2020-09-05T10:02:09.000Z</time>
      </trkpt>
      <trkpt lat="44.10149" lon="6.79957">
        <ele>1392.4000244141</ele>
        <time>2020-09-05T10:02:12.000Z</time>
      </trkpt>
      <trkpt lat="44.10151" lon="6.79953">
        <ele>1392.4000244141</ele>
        <time>2020-09-05T10:02:13.000Z</time>
      </trkpt>
      <trkpt lat="44.1016" lon="6.7994">
        <ele>1392.5999755859</ele>
        <time>2020-09-05T10:02:16.000Z</time>
      </trkpt>
      <trkpt lat="44.1017" lon="6.79928">
        <ele>1393</ele>
        <time>2020-09-05T10:02:20.000Z</time>
      </trkpt>
      <trkpt lat="44.1017" lon="6.79928">
        <ele>1392.5999755859</ele>
        <time>2020-09-05T10:02:24.000Z</time>
      </trkpt>
      <trkpt lat="44.1017" lon="6.79928">
        <ele>1392</ele>
        <time>2020-09-05T10:02:36.000Z</time>
      </trkpt>
      <trkpt lat="44.1017" lon="6.79928">
        <ele>1391.8000488281</ele>
        <time>2020-09-05T10:02:37.000Z</time>
      </trkpt>
      <trkpt lat="44.10171" lon="6.79925">
        <ele>1392.1999511719</ele>
        <time>2020-09-05T10:02:42.000Z</time>
      </trkpt>
      <trkpt lat="44.10173" lon="6.79923">
        <ele>1392.1999511719</ele>
        <time>2020-09-05T10:02:44.000Z</time>
      </trkpt>
      <trkpt lat="44.10177" lon="6.79924">
        <ele>1392.1999511719</ele>
        <time>2020-09-05T10:02:46.000Z</time>
      </trkpt>
      <trkpt lat="44.10179" lon="6.79927">
        <ele>1392</ele>
        <time>2020-09-05T10:02:47.000Z</time>
      </trkpt>
      <trkpt lat="44.10181" lon="6.79931">
        <ele>1391.8000488281</ele>
        <time>2020-09-05T10:02:48.000Z</time>
      </trkpt>
      <trkpt lat="44.1019" lon="6.79942">
        <ele>1390.5999755859</ele>
        <time>2020-09-05T10:02:52.000Z</time>
      </trkpt>
      <trkpt lat="44.10193" lon="6.79946">
        <ele>1390.1999511719</ele>
        <time>2020-09-05T10:02:53.000Z</time>
      </trkpt>
      <trkpt lat="44.10197" lon="6.79949">
        <ele>1389.5999755859</ele>
        <time>2020-09-05T10:02:54.000Z</time>
      </trkpt>
      <trkpt lat="44.10205" lon="6.79959">
        <ele>1388</ele>
        <time>2020-09-05T10:02:56.000Z</time>
      </trkpt>
      <trkpt lat="44.10209" lon="6.79964">
        <ele>1387</ele>
        <time>2020-09-05T10:02:57.000Z</time>
      </trkpt>
      <trkpt lat="44.10214" lon="6.79968">
        <ele>1385.8000488281</ele>
        <time>2020-09-05T10:02:58.000Z</time>
      </trkpt>
      <trkpt lat="44.10218" lon="6.79972">
        <ele>1384.5999755859</ele>
        <time>2020-09-05T10:02:59.000Z</time>
      </trkpt>
      <trkpt lat="44.10222" lon="6.79975">
        <ele>1383</ele>
        <time>2020-09-05T10:03:00.000Z</time>
      </trkpt>
      <trkpt lat="44.10225" lon="6.79979">
        <ele>1381.8000488281</ele>
        <time>2020-09-05T10:03:01.000Z</time>
      </trkpt>
      <trkpt lat="44.10228" lon="6.79986">
        <ele>1380.4000244141</ele>
        <time>2020-09-05T10:03:02.000Z</time>
      </trkpt>
      <trkpt lat="44.1023" lon="6.7999">
        <ele>1379</ele>
        <time>2020-09-05T10:03:03.000Z</time>
      </trkpt>
      <trkpt lat="44.10235" lon="6.79989">
        <ele>1378</ele>
        <time>2020-09-05T10:03:04.000Z</time>
      </trkpt>
      <trkpt lat="44.10241" lon="6.79989">
        <ele>1377.1999511719</ele>
        <time>2020-09-05T10:03:05.000Z</time>
      </trkpt>
      <trkpt lat="44.10247" lon="6.79989">
        <ele>1376.5999755859</ele>
        <time>2020-09-05T10:03:06.000Z</time>
      </trkpt>
      <trkpt lat="44.10258" lon="6.79992">
        <ele>1375.5999755859</ele>
        <time>2020-09-05T10:03:08.000Z</time>
      </trkpt>
      <trkpt lat="44.10264" lon="6.80003">
        <ele>1374.4000244141</ele>
        <time>2020-09-05T10:03:10.000Z</time>
      </trkpt>
      <trkpt lat="44.10266" lon="6.8001">
        <ele>1373.8000488281</ele>
        <time>2020-09-05T10:03:11.000Z</time>
      </trkpt>
      <trkpt lat="44.10269" lon="6.80018">
        <ele>1373.4000244141</ele>
        <time>2020-09-05T10:03:12.000Z</time>
      </trkpt>
      <trkpt lat="44.10271" lon="6.80039">
        <ele>1371.8000488281</ele>
        <time>2020-09-05T10:03:15.000Z</time>
      </trkpt>
      <trkpt lat="44.10274" lon="6.80046">
        <ele>1370.5999755859</ele>
        <time>2020-09-05T10:03:17.000Z</time>
      </trkpt>
      <trkpt lat="44.10275" lon="6.80048">
        <ele>1369.8000488281</ele>
        <time>2020-09-05T10:03:18.000Z</time>
      </trkpt>
      <trkpt lat="44.10276" lon="6.80048">
        <ele>1369.1999511719</ele>
        <time>2020-09-05T10:03:19.000Z</time>
      </trkpt>
      <trkpt lat="44.10277" lon="6.8005">
        <ele>1368.1999511719</ele>
        <time>2020-09-05T10:03:22.000Z</time>
      </trkpt>
      <trkpt lat="44.10277" lon="6.80051">
        <ele>1368</ele>
        <time>2020-09-05T10:03:25.000Z</time>
      </trkpt>
      <trkpt lat="44.10282" lon="6.80056">
        <ele>1367.8000488281</ele>
        <time>2020-09-05T10:03:32.000Z</time>
      </trkpt>
      <trkpt lat="44.10284" lon="6.80056">
        <ele>1367.8000488281</ele>
        <time>2020-09-05T10:03:33.000Z</time>
      </trkpt>
      <trkpt lat="44.10286" lon="6.80056">
        <ele>1366.5999755859</ele>
        <time>2020-09-05T10:03:35.000Z</time>
      </trkpt>
      <trkpt lat="44.10289" lon="6.80056">
        <ele>1366</ele>
        <time>2020-09-05T10:03:40.000Z</time>
      </trkpt>
      <trkpt lat="44.10291" lon="6.80058">
        <ele>1366.8000488281</ele>
        <time>2020-09-05T10:03:43.000Z</time>
      </trkpt>
      <trkpt lat="44.10293" lon="6.80059">
        <ele>1367.1999511719</ele>
        <time>2020-09-05T10:03:45.000Z</time>
      </trkpt>
      <trkpt lat="44.10294" lon="6.80059">
        <ele>1367.5999755859</ele>
        <time>2020-09-05T10:03:47.000Z</time>
      </trkpt>
      <trkpt lat="44.10294" lon="6.80059">
        <ele>1367.8000488281</ele>
        <time>2020-09-05T10:03:48.000Z</time>
      </trkpt>
      <trkpt lat="44.10295" lon="6.80059">
        <ele>1368</ele>
        <time>2020-09-05T10:03:49.000Z</time>
      </trkpt>
      <trkpt lat="44.10298" lon="6.80059">
        <ele>1368.1999511719</ele>
        <time>2020-09-05T10:03:53.000Z</time>
      </trkpt>
      <trkpt lat="44.10299" lon="6.80059">
        <ele>1368.4000244141</ele>
        <time>2020-09-05T10:03:54.000Z</time>
      </trkpt>
      <trkpt lat="44.10304" lon="6.80062">
        <ele>1368.4000244141</ele>
        <time>2020-09-05T10:03:57.000Z</time>
      </trkpt>
      <trkpt lat="44.10305" lon="6.80062">
        <ele>1368.5999755859</ele>
        <time>2020-09-05T10:03:58.000Z</time>
      </trkpt>
      <trkpt lat="44.10309" lon="6.80067">
        <ele>1368.8000488281</ele>
        <time>2020-09-05T10:04:01.000Z</time>
      </trkpt>
      <trkpt lat="44.10311" lon="6.8007">
        <ele>1368.8000488281</ele>
        <time>2020-09-05T10:04:03.000Z</time>
      </trkpt>
      <trkpt lat="44.10313" lon="6.80071">
        <ele>1368.8000488281</ele>
        <time>2020-09-05T10:04:04.000Z</time>
      </trkpt>
      <trkpt lat="44.10316" lon="6.80073">
        <ele>1368.5999755859</ele>
        <time>2020-09-05T10:04:09.000Z</time>
      </trkpt>
      <trkpt lat="44.10317" lon="6.80074">
        <ele>1368</ele>
        <time>2020-09-05T10:04:30.000Z</time>
      </trkpt>
      <trkpt lat="44.10322" lon="6.80077">
        <ele>1368.1999511719</ele>
        <time>2020-09-05T10:04:45.000Z</time>
      </trkpt>
      <trkpt lat="44.10329" lon="6.80078">
        <ele>1368</ele>
        <time>2020-09-05T10:04:49.000Z</time>
      </trkpt>
      <trkpt lat="44.10331" lon="6.80078">
        <ele>1367.5999755859</ele>
        <time>2020-09-05T10:04:50.000Z</time>
      </trkpt>
      <trkpt lat="44.10336" lon="6.80076">
        <ele>1366.5999755859</ele>
        <time>2020-09-05T10:04:53.000Z</time>
      </trkpt>
      <trkpt lat="44.10337" lon="6.80075">
        <ele>1366.1999511719</ele>
        <time>2020-09-05T10:04:54.000Z</time>
      </trkpt>
      <trkpt lat="44.10341" lon="6.80074">
        <ele>1365.5999755859</ele>
        <time>2020-09-05T10:04:56.000Z</time>
      </trkpt>
      <trkpt lat="44.1035" lon="6.80068">
        <ele>1364.4000244141</ele>
        <time>2020-09-05T10:04:59.000Z</time>
      </trkpt>
      <trkpt lat="44.10359" lon="6.80061">
        <ele>1363</ele>
        <time>2020-09-05T10:05:03.000Z</time>
      </trkpt>
      <trkpt lat="44.10369" lon="6.80056">
        <ele>1362.1999511719</ele>
        <time>2020-09-05T10:05:06.000Z</time>
      </trkpt>
      <trkpt lat="44.10373" lon="6.80052">
        <ele>1362.1999511719</ele>
        <time>2020-09-05T10:05:07.000Z</time>
      </trkpt>
      <trkpt lat="44.10388" lon="6.80027">
        <ele>1362.8000488281</ele>
        <time>2020-09-05T10:05:11.000Z</time>
      </trkpt>
      <trkpt lat="44.10399" lon="6.80012">
        <ele>1361.5999755859</ele>
        <time>2020-09-05T10:05:13.000Z</time>
      </trkpt>
      <trkpt lat="44.10409" lon="6.79996">
        <ele>1360.1999511719</ele>
        <time>2020-09-05T10:05:15.000Z</time>
      </trkpt>
      <trkpt lat="44.10414" lon="6.79989">
        <ele>1359.4000244141</ele>
        <time>2020-09-05T10:05:16.000Z</time>
      </trkpt>
      <trkpt lat="44.10421" lon="6.7998">
        <ele>1358.5999755859</ele>
        <time>2020-09-05T10:05:17.000Z</time>
      </trkpt>
      <trkpt lat="44.10433" lon="6.79967">
        <ele>1356.5999755859</ele>
        <time>2020-09-05T10:05:19.000Z</time>
      </trkpt>
      <trkpt lat="44.10439" lon="6.79963">
        <ele>1355.8000488281</ele>
        <time>2020-09-05T10:05:20.000Z</time>
      </trkpt>
      <trkpt lat="44.10443" lon="6.7996">
        <ele>1354.8000488281</ele>
        <time>2020-09-05T10:05:21.000Z</time>
      </trkpt>
      <trkpt lat="44.10454" lon="6.79955">
        <ele>1353.4000244141</ele>
        <time>2020-09-05T10:05:23.000Z</time>
      </trkpt>
      <trkpt lat="44.10466" lon="6.79942">
        <ele>1352.1999511719</ele>
        <time>2020-09-05T10:05:26.000Z</time>
      </trkpt>
      <trkpt lat="44.1047" lon="6.79935">
        <ele>1351.5999755859</ele>
        <time>2020-09-05T10:05:27.000Z</time>
      </trkpt>
      <trkpt lat="44.10475" lon="6.79929">
        <ele>1350.8000488281</ele>
        <time>2020-09-05T10:05:28.000Z</time>
      </trkpt>
      <trkpt lat="44.10481" lon="6.79922">
        <ele>1350</ele>
        <time>2020-09-05T10:05:29.000Z</time>
      </trkpt>
      <trkpt lat="44.10488" lon="6.79916">
        <ele>1348.8000488281</ele>
        <time>2020-09-05T10:05:30.000Z</time>
      </trkpt>
      <trkpt lat="44.10497" lon="6.79909">
        <ele>1346.8000488281</ele>
        <time>2020-09-05T10:05:32.000Z</time>
      </trkpt>
      <trkpt lat="44.10501" lon="6.79904">
        <ele>1345.8000488281</ele>
        <time>2020-09-05T10:05:33.000Z</time>
      </trkpt>
      <trkpt lat="44.10506" lon="6.79901">
        <ele>1344.4000244141</ele>
        <time>2020-09-05T10:05:34.000Z</time>
      </trkpt>
      <trkpt lat="44.1051" lon="6.79898">
        <ele>1343</ele>
        <time>2020-09-05T10:05:35.000Z</time>
      </trkpt>
      <trkpt lat="44.10515" lon="6.79897">
        <ele>1341.4000244141</ele>
        <time>2020-09-05T10:05:36.000Z</time>
      </trkpt>
      <trkpt lat="44.10522" lon="6.79896">
        <ele>1339.8000488281</ele>
        <time>2020-09-05T10:05:37.000Z</time>
      </trkpt>
      <trkpt lat="44.10528" lon="6.79896">
        <ele>1338.1999511719</ele>
        <time>2020-09-05T10:05:38.000Z</time>
      </trkpt>
      <trkpt lat="44.10535" lon="6.79898">
        <ele>1336.5999755859</ele>
        <time>2020-09-05T10:05:39.000Z</time>
      </trkpt>
      <trkpt lat="44.10541" lon="6.79899">
        <ele>1335.4000244141</ele>
        <time>2020-09-05T10:05:40.000Z</time>
      </trkpt>
      <trkpt lat="44.10547" lon="6.799">
        <ele>1334.4000244141</ele>
        <time>2020-09-05T10:05:41.000Z</time>
      </trkpt>
      <trkpt lat="44.10554" lon="6.799">
        <ele>1333.4000244141</ele>
        <time>2020-09-05T10:05:42.000Z</time>
      </trkpt>
      <trkpt lat="44.10561" lon="6.79899">
        <ele>1332.4000244141</ele>
        <time>2020-09-05T10:05:43.000Z</time>
      </trkpt>
      <trkpt lat="44.10569" lon="6.79896">
        <ele>1331.1999511719</ele>
        <time>2020-09-05T10:05:44.000Z</time>
      </trkpt>
      <trkpt lat="44.10575" lon="6.79893">
        <ele>1330</ele>
        <time>2020-09-05T10:05:45.000Z</time>
      </trkpt>
      <trkpt lat="44.10581" lon="6.79889">
        <ele>1328.8000488281</ele>
        <time>2020-09-05T10:05:46.000Z</time>
      </trkpt>
      <trkpt lat="44.10589" lon="6.79886">
        <ele>1327.5999755859</ele>
        <time>2020-09-05T10:05:47.000Z</time>
      </trkpt>
      <trkpt lat="44.10594" lon="6.79884">
        <ele>1328.1999511719</ele>
        <time>2020-09-05T10:05:48.000Z</time>
      </trkpt>
      <trkpt lat="44.10617" lon="6.79872">
        <ele>1325.8000488281</ele>
        <time>2020-09-05T10:05:52.000Z</time>
      </trkpt>
      <trkpt lat="44.10636" lon="6.79864">
        <ele>1323.8000488281</ele>
        <time>2020-09-05T10:05:55.000Z</time>
      </trkpt>
      <trkpt lat="44.10642" lon="6.79861">
        <ele>1322.1999511719</ele>
        <time>2020-09-05T10:05:56.000Z</time>
      </trkpt>
      <trkpt lat="44.10648" lon="6.79859">
        <ele>1320</ele>
        <time>2020-09-05T10:05:57.000Z</time>
      </trkpt>
      <trkpt lat="44.10653" lon="6.79856">
        <ele>1318.4000244141</ele>
        <time>2020-09-05T10:05:58.000Z</time>
      </trkpt>
      <trkpt lat="44.10659" lon="6.79853">
        <ele>1316.5999755859</ele>
        <time>2020-09-05T10:05:59.000Z</time>
      </trkpt>
      <trkpt lat="44.10665" lon="6.79852">
        <ele>1314.5999755859</ele>
        <time>2020-09-05T10:06:00.000Z</time>
      </trkpt>
      <trkpt lat="44.1067" lon="6.79851">
        <ele>1312</ele>
        <time>2020-09-05T10:06:01.000Z</time>
      </trkpt>
      <trkpt lat="44.10676" lon="6.79851">
        <ele>1309.8000488281</ele>
        <time>2020-09-05T10:06:02.000Z</time>
      </trkpt>
      <trkpt lat="44.10683" lon="6.7985">
        <ele>1307.8000488281</ele>
        <time>2020-09-05T10:06:03.000Z</time>
      </trkpt>
      <trkpt lat="44.10689" lon="6.7985">
        <ele>1305.1999511719</ele>
        <time>2020-09-05T10:06:04.000Z</time>
      </trkpt>
      <trkpt lat="44.10696" lon="6.79852">
        <ele>1302</ele>
        <time>2020-09-05T10:06:05.000Z</time>
      </trkpt>
      <trkpt lat="44.10701" lon="6.79855">
        <ele>1300.1999511719</ele>
        <time>2020-09-05T10:06:06.000Z</time>
      </trkpt>
      <trkpt lat="44.10706" lon="6.79858">
        <ele>1298.4000244141</ele>
        <time>2020-09-05T10:06:07.000Z</time>
      </trkpt>
      <trkpt lat="44.1071" lon="6.79862">
        <ele>1296.5999755859</ele>
        <time>2020-09-05T10:06:08.000Z</time>
      </trkpt>
      <trkpt lat="44.10715" lon="6.79868">
        <ele>1294.8000488281</ele>
        <time>2020-09-05T10:06:09.000Z</time>
      </trkpt>
      <trkpt lat="44.10719" lon="6.79873">
        <ele>1292.8000488281</ele>
        <time>2020-09-05T10:06:10.000Z</time>
      </trkpt>
      <trkpt lat="44.10722" lon="6.79879">
        <ele>1292</ele>
        <time>2020-09-05T10:06:11.000Z</time>
      </trkpt>
      <trkpt lat="44.10724" lon="6.79886">
        <ele>1290.8000488281</ele>
        <time>2020-09-05T10:06:12.000Z</time>
      </trkpt>
      <trkpt lat="44.10726" lon="6.79894">
        <ele>1290.4000244141</ele>
        <time>2020-09-05T10:06:13.000Z</time>
      </trkpt>
      <trkpt lat="44.10727" lon="6.79903">
        <ele>1289.5999755859</ele>
        <time>2020-09-05T10:06:14.000Z</time>
      </trkpt>
      <trkpt lat="44.10726" lon="6.7992">
        <ele>1287.5999755859</ele>
        <time>2020-09-05T10:06:16.000Z</time>
      </trkpt>
      <trkpt lat="44.10726" lon="6.79928">
        <ele>1286.5999755859</ele>
        <time>2020-09-05T10:06:17.000Z</time>
      </trkpt>
      <trkpt lat="44.10727" lon="6.79941">
        <ele>1285</ele>
        <time>2020-09-05T10:06:19.000Z</time>
      </trkpt>
      <trkpt lat="44.10727" lon="6.79959">
        <ele>1282.8000488281</ele>
        <time>2020-09-05T10:06:21.000Z</time>
      </trkpt>
      <trkpt lat="44.10728" lon="6.79966">
        <ele>1281.5999755859</ele>
        <time>2020-09-05T10:06:22.000Z</time>
      </trkpt>
      <trkpt lat="44.10728" lon="6.79969">
        <ele>1279.8000488281</ele>
        <time>2020-09-05T10:06:23.000Z</time>
      </trkpt>
      <trkpt lat="44.10728" lon="6.79971">
        <ele>1278.4000244141</ele>
        <time>2020-09-05T10:06:24.000Z</time>
      </trkpt>
      <trkpt lat="44.10728" lon="6.79971">
        <ele>1277.4000244141</ele>
        <time>2020-09-05T10:06:25.000Z</time>
      </trkpt>
      <trkpt lat="44.10728" lon="6.79972">
        <ele>1276.5999755859</ele>
        <time>2020-09-05T10:06:27.000Z</time>
      </trkpt>
      <trkpt lat="44.10728" lon="6.79972">
        <ele>1276.1999511719</ele>
        <time>2020-09-05T10:06:28.000Z</time>
      </trkpt>
      <trkpt lat="44.10728" lon="6.79972">
        <ele>1275</ele>
        <time>2020-09-05T10:06:33.000Z</time>
      </trkpt>
      <trkpt lat="44.10728" lon="6.79972">
        <ele>1274.1999511719</ele>
        <time>2020-09-05T10:06:35.000Z</time>
      </trkpt>
      <trkpt lat="44.10727" lon="6.79973">
        <ele>1273.8000488281</ele>
        <time>2020-09-05T10:06:36.000Z</time>
      </trkpt>
      <trkpt lat="44.10726" lon="6.79973">
        <ele>1272.8000488281</ele>
        <time>2020-09-05T10:06:42.000Z</time>
      </trkpt>
      <trkpt lat="44.10726" lon="6.79974">
        <ele>1271.8000488281</ele>
        <time>2020-09-05T10:06:46.000Z</time>
      </trkpt>
      <trkpt lat="44.10726" lon="6.79974">
        <ele>1271.5999755859</ele>
        <time>2020-09-05T10:06:48.000Z</time>
      </trkpt>
      <trkpt lat="44.10726" lon="6.79974">
        <ele>1271.5999755859</ele>
        <time>2020-09-05T10:06:57.000Z</time>
      </trkpt>
      <trkpt lat="44.10724" lon="6.79974">
        <ele>1272.8000488281</ele>
        <time>2020-09-05T10:07:05.000Z</time>
      </trkpt>
      <trkpt lat="44.10724" lon="6.79974">
        <ele>1273</ele>
        <time>2020-09-05T10:07:12.000Z</time>
      </trkpt>
      <trkpt lat="44.10724" lon="6.79975">
        <ele>1273</ele>
        <time>2020-09-05T10:07:30.000Z</time>
      </trkpt>
      <trkpt lat="44.10725" lon="6.79975">
        <ele>1273.1999511719</ele>
        <time>2020-09-05T10:07:50.000Z</time>
      </trkpt>
      <trkpt lat="44.10723" lon="6.79975">
        <ele>1273.1999511719</ele>
        <time>2020-09-05T10:08:11.000Z</time>
      </trkpt>
      <trkpt lat="44.10722" lon="6.79976">
        <ele>1273.4000244141</ele>
        <time>2020-09-05T10:08:28.000Z</time>
      </trkpt>
      <trkpt lat="44.10722" lon="6.79977">
        <ele>1273.4000244141</ele>
        <time>2020-09-05T10:08:44.000Z</time>
      </trkpt>
      <trkpt lat="44.10721" lon="6.79978">
        <ele>1273.5999755859</ele>
        <time>2020-09-05T10:09:02.000Z</time>
      </trkpt>
      <trkpt lat="44.10721" lon="6.79978">
        <ele>1273.8000488281</ele>
        <time>2020-09-05T10:09:04.000Z</time>
      </trkpt>
      <trkpt lat="44.10721" lon="6.79978">
        <ele>1274.1999511719</ele>
        <time>2020-09-05T10:09:12.000Z</time>
      </trkpt>
      <trkpt lat="44.10728" lon="6.79972">
        <ele>1274.1999511719</ele>
        <time>2020-09-05T10:09:17.000Z</time>
      </trkpt>
      <trkpt lat="44.10737" lon="6.79955">
        <ele>1273.1999511719</ele>
        <time>2020-09-05T10:09:21.000Z</time>
      </trkpt>
      <trkpt lat="44.10739" lon="6.79949">
        <ele>1272.8000488281</ele>
        <time>2020-09-05T10:09:22.000Z</time>
      </trkpt>
      <trkpt lat="44.10742" lon="6.79943">
        <ele>1272.1999511719</ele>
        <time>2020-09-05T10:09:23.000Z</time>
      </trkpt>
      <trkpt lat="44.10747" lon="6.79932">
        <ele>1270.8000488281</ele>
        <time>2020-09-05T10:09:25.000Z</time>
      </trkpt>
      <trkpt lat="44.10752" lon="6.79924">
        <ele>1269.5999755859</ele>
        <time>2020-09-05T10:09:27.000Z</time>
      </trkpt>
      <trkpt lat="44.10753" lon="6.79922">
        <ele>1269</ele>
        <time>2020-09-05T10:09:28.000Z</time>
      </trkpt>
      <trkpt lat="44.10753" lon="6.79918">
        <ele>1268.5999755859</ele>
        <time>2020-09-05T10:09:29.000Z</time>
      </trkpt>
      <trkpt lat="44.10755" lon="6.79911">
        <ele>1267.5999755859</ele>
        <time>2020-09-05T10:09:32.000Z</time>
      </trkpt>
      <trkpt lat="44.10756" lon="6.79908">
        <ele>1267.8000488281</ele>
        <time>2020-09-05T10:09:33.000Z</time>
      </trkpt>
      <trkpt lat="44.10763" lon="6.79902">
        <ele>1268.8000488281</ele>
        <time>2020-09-05T10:09:36.000Z</time>
      </trkpt>
      <trkpt lat="44.10774" lon="6.79904">
        <ele>1269</ele>
        <time>2020-09-05T10:09:38.000Z</time>
      </trkpt>
      <trkpt lat="44.1078" lon="6.79904">
        <ele>1268.8000488281</ele>
        <time>2020-09-05T10:09:39.000Z</time>
      </trkpt>
      <trkpt lat="44.10788" lon="6.7991">
        <ele>1267.1999511719</ele>
        <time>2020-09-05T10:09:42.000Z</time>
      </trkpt>
      <trkpt lat="44.10787" lon="6.79912">
        <ele>1265.5999755859</ele>
        <time>2020-09-05T10:09:43.000Z</time>
      </trkpt>
      <trkpt lat="44.10786" lon="6.79914">
        <ele>1264.1999511719</ele>
        <time>2020-09-05T10:09:44.000Z</time>
      </trkpt>
      <trkpt lat="44.10784" lon="6.79916">
        <ele>1262.5999755859</ele>
        <time>2020-09-05T10:09:45.000Z</time>
      </trkpt>
      <trkpt lat="44.10784" lon="6.79918">
        <ele>1261.4000244141</ele>
        <time>2020-09-05T10:09:46.000Z</time>
      </trkpt>
      <trkpt lat="44.10785" lon="6.7992">
        <ele>1260.1999511719</ele>
        <time>2020-09-05T10:09:47.000Z</time>
      </trkpt>
      <trkpt lat="44.10788" lon="6.79921">
        <ele>1259.1999511719</ele>
        <time>2020-09-05T10:09:48.000Z</time>
      </trkpt>
      <trkpt lat="44.10792" lon="6.79922">
        <ele>1258.4000244141</ele>
        <time>2020-09-05T10:09:49.000Z</time>
      </trkpt>
      <trkpt lat="44.10795" lon="6.79925">
        <ele>1257</ele>
        <time>2020-09-05T10:09:51.000Z</time>
      </trkpt>
      <trkpt lat="44.10796" lon="6.79928">
        <ele>1256.1999511719</ele>
        <time>2020-09-05T10:09:52.000Z</time>
      </trkpt>
      <trkpt lat="44.10796" lon="6.7993">
        <ele>1255.8000488281</ele>
        <time>2020-09-05T10:09:53.000Z</time>
      </trkpt>
      <trkpt lat="44.10794" lon="6.79936">
        <ele>1254</ele>
        <time>2020-09-05T10:09:55.000Z</time>
      </trkpt>
      <trkpt lat="44.10792" lon="6.79938">
        <ele>1252.4000244141</ele>
        <time>2020-09-05T10:09:57.000Z</time>
      </trkpt>
      <trkpt lat="44.10793" lon="6.79939">
        <ele>1251.8000488281</ele>
        <time>2020-09-05T10:09:58.000Z</time>
      </trkpt>
      <trkpt lat="44.10795" lon="6.7994">
        <ele>1250.8000488281</ele>
        <time>2020-09-05T10:09:59.000Z</time>
      </trkpt>
      <trkpt lat="44.10796" lon="6.79943">
        <ele>1248.8000488281</ele>
        <time>2020-09-05T10:10:01.000Z</time>
      </trkpt>
      <trkpt lat="44.10797" lon="6.79946">
        <ele>1248.1999511719</ele>
        <time>2020-09-05T10:10:02.000Z</time>
      </trkpt>
      <trkpt lat="44.10797" lon="6.79949">
        <ele>1247.4000244141</ele>
        <time>2020-09-05T10:10:03.000Z</time>
      </trkpt>
      <trkpt lat="44.10792" lon="6.79954">
        <ele>1245.8000488281</ele>
        <time>2020-09-05T10:10:05.000Z</time>
      </trkpt>
      <trkpt lat="44.10786" lon="6.79961">
        <ele>1244.4000244141</ele>
        <time>2020-09-05T10:10:07.000Z</time>
      </trkpt>
      <trkpt lat="44.10784" lon="6.79966">
        <ele>1243.8000488281</ele>
        <time>2020-09-05T10:10:08.000Z</time>
      </trkpt>
      <trkpt lat="44.10783" lon="6.79972">
        <ele>1242.8000488281</ele>
        <time>2020-09-05T10:10:09.000Z</time>
      </trkpt>
      <trkpt lat="44.10783" lon="6.79983">
        <ele>1241.1999511719</ele>
        <time>2020-09-05T10:10:11.000Z</time>
      </trkpt>
      <trkpt lat="44.10784" lon="6.79988">
        <ele>1240.1999511719</ele>
        <time>2020-09-05T10:10:12.000Z</time>
      </trkpt>
      <trkpt lat="44.10786" lon="6.7999">
        <ele>1239.4000244141</ele>
        <time>2020-09-05T10:10:13.000Z</time>
      </trkpt>
      <trkpt lat="44.10791" lon="6.79998">
        <ele>1237.5999755859</ele>
        <time>2020-09-05T10:10:15.000Z</time>
      </trkpt>
      <trkpt lat="44.10794" lon="6.80007">
        <ele>1235.8000488281</ele>
        <time>2020-09-05T10:10:17.000Z</time>
      </trkpt>
      <trkpt lat="44.10795" lon="6.8001">
        <ele>1234.5999755859</ele>
        <time>2020-09-05T10:10:18.000Z</time>
      </trkpt>
      <trkpt lat="44.10797" lon="6.80011">
        <ele>1233.1999511719</ele>
        <time>2020-09-05T10:10:19.000Z</time>
      </trkpt>
      <trkpt lat="44.10797" lon="6.8001">
        <ele>1232</ele>
        <time>2020-09-05T10:10:20.000Z</time>
      </trkpt>
      <trkpt lat="44.10798" lon="6.80009">
        <ele>1230.5999755859</ele>
        <time>2020-09-05T10:10:21.000Z</time>
      </trkpt>
      <trkpt lat="44.10799" lon="6.80008">
        <ele>1229.4000244141</ele>
        <time>2020-09-05T10:10:22.000Z</time>
      </trkpt>
      <trkpt lat="44.108" lon="6.80009">
        <ele>1228.5999755859</ele>
        <time>2020-09-05T10:10:23.000Z</time>
      </trkpt>
      <trkpt lat="44.108" lon="6.80011">
        <ele>1227.8000488281</ele>
        <time>2020-09-05T10:10:24.000Z</time>
      </trkpt>
      <trkpt lat="44.10802" lon="6.80014">
        <ele>1226.5999755859</ele>
        <time>2020-09-05T10:10:26.000Z</time>
      </trkpt>
      <trkpt lat="44.10804" lon="6.80011">
        <ele>1225.4000244141</ele>
        <time>2020-09-05T10:10:28.000Z</time>
      </trkpt>
      <trkpt lat="44.10806" lon="6.80007">
        <ele>1224.8000488281</ele>
        <time>2020-09-05T10:10:29.000Z</time>
      </trkpt>
      <trkpt lat="44.10809" lon="6.80004">
        <ele>1223.8000488281</ele>
        <time>2020-09-05T10:10:31.000Z</time>
      </trkpt>
      <trkpt lat="44.1081" lon="6.80004">
        <ele>1223.1999511719</ele>
        <time>2020-09-05T10:10:32.000Z</time>
      </trkpt>
      <trkpt lat="44.1081" lon="6.80004">
        <ele>1222.8000488281</ele>
        <time>2020-09-05T10:10:33.000Z</time>
      </trkpt>
      <trkpt lat="44.10812" lon="6.80008">
        <ele>1222.1999511719</ele>
        <time>2020-09-05T10:10:34.000Z</time>
      </trkpt>
      <trkpt lat="44.10813" lon="6.80015">
        <ele>1221.8000488281</ele>
        <time>2020-09-05T10:10:35.000Z</time>
      </trkpt>
      <trkpt lat="44.10815" lon="6.80023">
        <ele>1221</ele>
        <time>2020-09-05T10:10:36.000Z</time>
      </trkpt>
      <trkpt lat="44.10821" lon="6.80041">
        <ele>1219.8000488281</ele>
        <time>2020-09-05T10:10:38.000Z</time>
      </trkpt>
      <trkpt lat="44.10827" lon="6.80055">
        <ele>1218.1999511719</ele>
        <time>2020-09-05T10:10:40.000Z</time>
      </trkpt>
      <trkpt lat="44.10829" lon="6.8006">
        <ele>1217</ele>
        <time>2020-09-05T10:10:41.000Z</time>
      </trkpt>
      <trkpt lat="44.1083" lon="6.80066">
        <ele>1215.8000488281</ele>
        <time>2020-09-05T10:10:42.000Z</time>
      </trkpt>
      <trkpt lat="44.10829" lon="6.80073">
        <ele>1214.5999755859</ele>
        <time>2020-09-05T10:10:43.000Z</time>
      </trkpt>
      <trkpt lat="44.10828" lon="6.80088">
        <ele>1213</ele>
        <time>2020-09-05T10:10:45.000Z</time>
      </trkpt>
      <trkpt lat="44.10829" lon="6.80093">
        <ele>1212.1999511719</ele>
        <time>2020-09-05T10:10:46.000Z</time>
      </trkpt>
      <trkpt lat="44.10833" lon="6.80098">
        <ele>1211.5999755859</ele>
        <time>2020-09-05T10:10:47.000Z</time>
      </trkpt>
      <trkpt lat="44.1084" lon="6.80106">
        <ele>1209.5999755859</ele>
        <time>2020-09-05T10:10:49.000Z</time>
      </trkpt>
      <trkpt lat="44.10843" lon="6.80109">
        <ele>1208.4000244141</ele>
        <time>2020-09-05T10:10:50.000Z</time>
      </trkpt>
      <trkpt lat="44.10847" lon="6.8011">
        <ele>1207.1999511719</ele>
        <time>2020-09-05T10:10:51.000Z</time>
      </trkpt>
      <trkpt lat="44.10851" lon="6.8011">
        <ele>1206.4000244141</ele>
        <time>2020-09-05T10:10:52.000Z</time>
      </trkpt>
      <trkpt lat="44.10855" lon="6.80109">
        <ele>1205.1999511719</ele>
        <time>2020-09-05T10:10:53.000Z</time>
      </trkpt>
      <trkpt lat="44.10857" lon="6.80108">
        <ele>1204</ele>
        <time>2020-09-05T10:10:54.000Z</time>
      </trkpt>
      <trkpt lat="44.10859" lon="6.80108">
        <ele>1202.8000488281</ele>
        <time>2020-09-05T10:10:55.000Z</time>
      </trkpt>
      <trkpt lat="44.10859" lon="6.80106">
        <ele>1202</ele>
        <time>2020-09-05T10:10:56.000Z</time>
      </trkpt>
      <trkpt lat="44.10857" lon="6.80104">
        <ele>1201.4000244141</ele>
        <time>2020-09-05T10:10:57.000Z</time>
      </trkpt>
      <trkpt lat="44.10851" lon="6.80101">
        <ele>1199.8000488281</ele>
        <time>2020-09-05T10:10:59.000Z</time>
      </trkpt>
      <trkpt lat="44.10849" lon="6.80092">
        <ele>1198.8000488281</ele>
        <time>2020-09-05T10:11:01.000Z</time>
      </trkpt>
      <trkpt lat="44.10848" lon="6.80084">
        <ele>1198.1999511719</ele>
        <time>2020-09-05T10:11:02.000Z</time>
      </trkpt>
      <trkpt lat="44.10849" lon="6.80077">
        <ele>1197.5999755859</ele>
        <time>2020-09-05T10:11:03.000Z</time>
      </trkpt>
      <trkpt lat="44.10855" lon="6.80066">
        <ele>1196</ele>
        <time>2020-09-05T10:11:05.000Z</time>
      </trkpt>
      <trkpt lat="44.10861" lon="6.80058">
        <ele>1194</ele>
        <time>2020-09-05T10:11:07.000Z</time>
      </trkpt>
      <trkpt lat="44.10862" lon="6.80055">
        <ele>1193</ele>
        <time>2020-09-05T10:11:08.000Z</time>
      </trkpt>
      <trkpt lat="44.10862" lon="6.80053">
        <ele>1191.5999755859</ele>
        <time>2020-09-05T10:11:09.000Z</time>
      </trkpt>
      <trkpt lat="44.10864" lon="6.80052">
        <ele>1189.8000488281</ele>
        <time>2020-09-05T10:11:11.000Z</time>
      </trkpt>
      <trkpt lat="44.10866" lon="6.80053">
        <ele>1188.8000488281</ele>
        <time>2020-09-05T10:11:12.000Z</time>
      </trkpt>
      <trkpt lat="44.10868" lon="6.80053">
        <ele>1187.8000488281</ele>
        <time>2020-09-05T10:11:13.000Z</time>
      </trkpt>
      <trkpt lat="44.10869" lon="6.80052">
        <ele>1186.8000488281</ele>
        <time>2020-09-05T10:11:14.000Z</time>
      </trkpt>
      <trkpt lat="44.10868" lon="6.80048">
        <ele>1184.8000488281</ele>
        <time>2020-09-05T10:11:16.000Z</time>
      </trkpt>
      <trkpt lat="44.10869" lon="6.80043">
        <ele>1183.5999755859</ele>
        <time>2020-09-05T10:11:17.000Z</time>
      </trkpt>
      <trkpt lat="44.10875" lon="6.80036">
        <ele>1181.8000488281</ele>
        <time>2020-09-05T10:11:19.000Z</time>
      </trkpt>
      <trkpt lat="44.1088" lon="6.80027">
        <ele>1180.1999511719</ele>
        <time>2020-09-05T10:11:21.000Z</time>
      </trkpt>
      <trkpt lat="44.10886" lon="6.80019">
        <ele>1178.1999511719</ele>
        <time>2020-09-05T10:11:23.000Z</time>
      </trkpt>
      <trkpt lat="44.10889" lon="6.80014">
        <ele>1177</ele>
        <time>2020-09-05T10:11:24.000Z</time>
      </trkpt>
      <trkpt lat="44.10891" lon="6.80009">
        <ele>1175.8000488281</ele>
        <time>2020-09-05T10:11:25.000Z</time>
      </trkpt>
      <trkpt lat="44.10894" lon="6.80004">
        <ele>1175</ele>
        <time>2020-09-05T10:11:26.000Z</time>
      </trkpt>
      <trkpt lat="44.10896" lon="6.79998">
        <ele>1174</ele>
        <time>2020-09-05T10:11:27.000Z</time>
      </trkpt>
      <trkpt lat="44.10899" lon="6.79993">
        <ele>1172.8000488281</ele>
        <time>2020-09-05T10:11:28.000Z</time>
      </trkpt>
      <trkpt lat="44.10903" lon="6.79988">
        <ele>1171.4000244141</ele>
        <time>2020-09-05T10:11:29.000Z</time>
      </trkpt>
      <trkpt lat="44.10907" lon="6.79984">
        <ele>1169.8000488281</ele>
        <time>2020-09-05T10:11:30.000Z</time>
      </trkpt>
      <trkpt lat="44.10911" lon="6.7998">
        <ele>1168.4000244141</ele>
        <time>2020-09-05T10:11:31.000Z</time>
      </trkpt>
      <trkpt lat="44.10915" lon="6.79974">
        <ele>1166.4000244141</ele>
        <time>2020-09-05T10:11:32.000Z</time>
      </trkpt>
      <trkpt lat="44.10917" lon="6.79972">
        <ele>1164.5999755859</ele>
        <time>2020-09-05T10:11:33.000Z</time>
      </trkpt>
      <trkpt lat="44.10917" lon="6.7997">
        <ele>1162.5999755859</ele>
        <time>2020-09-05T10:11:34.000Z</time>
      </trkpt>
      <trkpt lat="44.10918" lon="6.79971">
        <ele>1160.8000488281</ele>
        <time>2020-09-05T10:11:35.000Z</time>
      </trkpt>
      <trkpt lat="44.10919" lon="6.79971">
        <ele>1159.1999511719</ele>
        <time>2020-09-05T10:11:36.000Z</time>
      </trkpt>
      <trkpt lat="44.10919" lon="6.79973">
        <ele>1158</ele>
        <time>2020-09-05T10:11:37.000Z</time>
      </trkpt>
      <trkpt lat="44.10919" lon="6.79977">
        <ele>1157</ele>
        <time>2020-09-05T10:11:38.000Z</time>
      </trkpt>
      <trkpt lat="44.10921" lon="6.79988">
        <ele>1155.5999755859</ele>
        <time>2020-09-05T10:11:40.000Z</time>
      </trkpt>
      <trkpt lat="44.10922" lon="6.79994">
        <ele>1155.1999511719</ele>
        <time>2020-09-05T10:11:41.000Z</time>
      </trkpt>
      <trkpt lat="44.10921" lon="6.80003">
        <ele>1154.1999511719</ele>
        <time>2020-09-05T10:11:43.000Z</time>
      </trkpt>
      <trkpt lat="44.10921" lon="6.80006">
        <ele>1153.4000244141</ele>
        <time>2020-09-05T10:11:44.000Z</time>
      </trkpt>
      <trkpt lat="44.10922" lon="6.80007">
        <ele>1152.5999755859</ele>
        <time>2020-09-05T10:11:45.000Z</time>
      </trkpt>
      <trkpt lat="44.10926" lon="6.80003">
        <ele>1150.8000488281</ele>
        <time>2020-09-05T10:11:47.000Z</time>
      </trkpt>
      <trkpt lat="44.1093" lon="6.79998">
        <ele>1149.4000244141</ele>
        <time>2020-09-05T10:11:49.000Z</time>
      </trkpt>
      <trkpt lat="44.10931" lon="6.79995">
        <ele>1148.5999755859</ele>
        <time>2020-09-05T10:11:50.000Z</time>
      </trkpt>
      <trkpt lat="44.10931" lon="6.79994">
        <ele>1147.8000488281</ele>
        <time>2020-09-05T10:11:51.000Z</time>
      </trkpt>
      <trkpt lat="44.10933" lon="6.79996">
        <ele>1146</ele>
        <time>2020-09-05T10:11:53.000Z</time>
      </trkpt>
      <trkpt lat="44.10934" lon="6.79993">
        <ele>1144.1999511719</ele>
        <time>2020-09-05T10:11:55.000Z</time>
      </trkpt>
      <trkpt lat="44.10936" lon="6.7999">
        <ele>1143</ele>
        <time>2020-09-05T10:11:57.000Z</time>
      </trkpt>
      <trkpt lat="44.10938" lon="6.79993">
        <ele>1141.8000488281</ele>
        <time>2020-09-05T10:11:59.000Z</time>
      </trkpt>
      <trkpt lat="44.10939" lon="6.79998">
        <ele>1140.5999755859</ele>
        <time>2020-09-05T10:12:01.000Z</time>
      </trkpt>
      <trkpt lat="44.10941" lon="6.79999">
        <ele>1139.4000244141</ele>
        <time>2020-09-05T10:12:03.000Z</time>
      </trkpt>
      <trkpt lat="44.10943" lon="6.79996">
        <ele>1138</ele>
        <time>2020-09-05T10:12:05.000Z</time>
      </trkpt>
      <trkpt lat="44.10945" lon="6.79998">
        <ele>1136.5999755859</ele>
        <time>2020-09-05T10:12:07.000Z</time>
      </trkpt>
      <trkpt lat="44.10946" lon="6.79998">
        <ele>1136</ele>
        <time>2020-09-05T10:12:08.000Z</time>
      </trkpt>
      <trkpt lat="44.10947" lon="6.79998">
        <ele>1135.4000244141</ele>
        <time>2020-09-05T10:12:09.000Z</time>
      </trkpt>
      <trkpt lat="44.10949" lon="6.79994">
        <ele>1134</ele>
        <time>2020-09-05T10:12:11.000Z</time>
      </trkpt>
      <trkpt lat="44.10952" lon="6.7999">
        <ele>1133</ele>
        <time>2020-09-05T10:12:13.000Z</time>
      </trkpt>
      <trkpt lat="44.10953" lon="6.79989">
        <ele>1132.5999755859</ele>
        <time>2020-09-05T10:12:14.000Z</time>
      </trkpt>
      <trkpt lat="44.10954" lon="6.79989">
        <ele>1132.1999511719</ele>
        <time>2020-09-05T10:12:15.000Z</time>
      </trkpt>
      <trkpt lat="44.10956" lon="6.79994">
        <ele>1131.1999511719</ele>
        <time>2020-09-05T10:12:17.000Z</time>
      </trkpt>
      <trkpt lat="44.10958" lon="6.79994">
        <ele>1130.5999755859</ele>
        <time>2020-09-05T10:12:18.000Z</time>
      </trkpt>
      <trkpt lat="44.10959" lon="6.79993">
        <ele>1129.8000488281</ele>
        <time>2020-09-05T10:12:19.000Z</time>
      </trkpt>
      <trkpt lat="44.10959" lon="6.79987">
        <ele>1129</ele>
        <time>2020-09-05T10:12:21.000Z</time>
      </trkpt>
      <trkpt lat="44.1096" lon="6.79984">
        <ele>1128.5999755859</ele>
        <time>2020-09-05T10:12:22.000Z</time>
      </trkpt>
      <trkpt lat="44.10964" lon="6.79977">
        <ele>1127.4000244141</ele>
        <time>2020-09-05T10:12:24.000Z</time>
      </trkpt>
      <trkpt lat="44.10966" lon="6.7997">
        <ele>1125.8000488281</ele>
        <time>2020-09-05T10:12:26.000Z</time>
      </trkpt>
      <trkpt lat="44.10966" lon="6.79967">
        <ele>1124.8000488281</ele>
        <time>2020-09-05T10:12:27.000Z</time>
      </trkpt>
      <trkpt lat="44.10966" lon="6.79964">
        <ele>1123.8000488281</ele>
        <time>2020-09-05T10:12:28.000Z</time>
      </trkpt>
      <trkpt lat="44.10967" lon="6.7996">
        <ele>1122.5999755859</ele>
        <time>2020-09-05T10:12:29.000Z</time>
      </trkpt>
      <trkpt lat="44.1097" lon="6.79956">
        <ele>1120.8000488281</ele>
        <time>2020-09-05T10:12:31.000Z</time>
      </trkpt>
      <trkpt lat="44.10972" lon="6.79954">
        <ele>1119.8000488281</ele>
        <time>2020-09-05T10:12:32.000Z</time>
      </trkpt>
      <trkpt lat="44.10974" lon="6.79951">
        <ele>1119</ele>
        <time>2020-09-05T10:12:33.000Z</time>
      </trkpt>
      <trkpt lat="44.10977" lon="6.79945">
        <ele>1117.1999511719</ele>
        <time>2020-09-05T10:12:35.000Z</time>
      </trkpt>
      <trkpt lat="44.10977" lon="6.7994">
        <ele>1116.1999511719</ele>
        <time>2020-09-05T10:12:36.000Z</time>
      </trkpt>
      <trkpt lat="44.10979" lon="6.79935">
        <ele>1115.4000244141</ele>
        <time>2020-09-05T10:12:37.000Z</time>
      </trkpt>
      <trkpt lat="44.1098" lon="6.7993">
        <ele>1114.1999511719</ele>
        <time>2020-09-05T10:12:38.000Z</time>
      </trkpt>
      <trkpt lat="44.10983" lon="6.79924">
        <ele>1113</ele>
        <time>2020-09-05T10:12:39.000Z</time>
      </trkpt>
      <trkpt lat="44.10987" lon="6.79918">
        <ele>1112</ele>
        <time>2020-09-05T10:12:40.000Z</time>
      </trkpt>
      <trkpt lat="44.10991" lon="6.79912">
        <ele>1110.5999755859</ele>
        <time>2020-09-05T10:12:41.000Z</time>
      </trkpt>
      <trkpt lat="44.10995" lon="6.79908">
        <ele>1109.4000244141</ele>
        <time>2020-09-05T10:12:42.000Z</time>
      </trkpt>
      <trkpt lat="44.10997" lon="6.79906">
        <ele>1108.1999511719</ele>
        <time>2020-09-05T10:12:43.000Z</time>
      </trkpt>
      <trkpt lat="44.11" lon="6.79905">
        <ele>1107.1999511719</ele>
        <time>2020-09-05T10:12:44.000Z</time>
      </trkpt>
      <trkpt lat="44.11004" lon="6.79902">
        <ele>1106</ele>
        <time>2020-09-05T10:12:46.000Z</time>
      </trkpt>
      <trkpt lat="44.11009" lon="6.79898">
        <ele>1105.8000488281</ele>
        <time>2020-09-05T10:12:48.000Z</time>
      </trkpt>
      <trkpt lat="44.11015" lon="6.79896">
        <ele>1107</ele>
        <time>2020-09-05T10:12:50.000Z</time>
      </trkpt>
      <trkpt lat="44.11021" lon="6.79894">
        <ele>1108</ele>
        <time>2020-09-05T10:12:52.000Z</time>
      </trkpt>
      <trkpt lat="44.11025" lon="6.79894">
        <ele>1108.8000488281</ele>
        <time>2020-09-05T10:12:55.000Z</time>
      </trkpt>
      <trkpt lat="44.11026" lon="6.79894">
        <ele>1108.4000244141</ele>
        <time>2020-09-05T10:13:04.000Z</time>
      </trkpt>
      <trkpt lat="44.11027" lon="6.79891">
        <ele>1108.5999755859</ele>
        <time>2020-09-05T10:13:14.000Z</time>
      </trkpt>
      <trkpt lat="44.11027" lon="6.7989">
        <ele>1108.4000244141</ele>
        <time>2020-09-05T10:13:24.000Z</time>
      </trkpt>
      <trkpt lat="44.11027" lon="6.79888">
        <ele>1108.4000244141</ele>
        <time>2020-09-05T10:13:43.000Z</time>
      </trkpt>
      <trkpt lat="44.11027" lon="6.79885">
        <ele>1108.4000244141</ele>
        <time>2020-09-05T10:14:03.000Z</time>
      </trkpt>
      <trkpt lat="44.11028" lon="6.7988">
        <ele>1108.4000244141</ele>
        <time>2020-09-05T10:14:18.000Z</time>
      </trkpt>
      <trkpt lat="44.11028" lon="6.79877">
        <ele>1108.4000244141</ele>
        <time>2020-09-05T10:14:34.000Z</time>
      </trkpt>
      <trkpt lat="44.11028" lon="6.79875">
        <ele>1108.4000244141</ele>
        <time>2020-09-05T10:14:52.000Z</time>
      </trkpt>
      <trkpt lat="44.11026" lon="6.79873">
        <ele>1108.5999755859</ele>
        <time>2020-09-05T10:15:10.000Z</time>
      </trkpt>
      <trkpt lat="44.11024" lon="6.79873">
        <ele>1108.5999755859</ele>
        <time>2020-09-05T10:15:28.000Z</time>
      </trkpt>
      <trkpt lat="44.11025" lon="6.79874">
        <ele>1109</ele>
        <time>2020-09-05T10:15:33.000Z</time>
      </trkpt>
      <trkpt lat="44.11026" lon="6.79874">
        <ele>1109</ele>
        <time>2020-09-05T10:15:34.000Z</time>
      </trkpt>
      <trkpt lat="44.11029" lon="6.79871">
        <ele>1109</ele>
        <time>2020-09-05T10:15:36.000Z</time>
      </trkpt>
      <trkpt lat="44.11033" lon="6.79869">
        <ele>1108.8000488281</ele>
        <time>2020-09-05T10:15:37.000Z</time>
      </trkpt>
      <trkpt lat="44.11047" lon="6.79862">
        <ele>1108.8000488281</ele>
        <time>2020-09-05T10:15:40.000Z</time>
      </trkpt>
      <trkpt lat="44.11052" lon="6.79857">
        <ele>1108.4000244141</ele>
        <time>2020-09-05T10:15:41.000Z</time>
      </trkpt>
      <trkpt lat="44.11065" lon="6.79848">
        <ele>1107.5999755859</ele>
        <time>2020-09-05T10:15:43.000Z</time>
      </trkpt>
      <trkpt lat="44.1107" lon="6.79845">
        <ele>1106.8000488281</ele>
        <time>2020-09-05T10:15:44.000Z</time>
      </trkpt>
      <trkpt lat="44.11076" lon="6.79845">
        <ele>1105.8000488281</ele>
        <time>2020-09-05T10:15:45.000Z</time>
      </trkpt>
      <trkpt lat="44.11085" lon="6.79837">
        <ele>1104.1999511719</ele>
        <time>2020-09-05T10:15:47.000Z</time>
      </trkpt>
      <trkpt lat="44.1109" lon="6.79834">
        <ele>1103</ele>
        <time>2020-09-05T10:15:48.000Z</time>
      </trkpt>
      <trkpt lat="44.11095" lon="6.79831">
        <ele>1102.1999511719</ele>
        <time>2020-09-05T10:15:49.000Z</time>
      </trkpt>
      <trkpt lat="44.11101" lon="6.79829">
        <ele>1101.4000244141</ele>
        <time>2020-09-05T10:15:50.000Z</time>
      </trkpt>
      <trkpt lat="44.11109" lon="6.79824">
        <ele>1100.5999755859</ele>
        <time>2020-09-05T10:15:52.000Z</time>
      </trkpt>
      <trkpt lat="44.11114" lon="6.79819">
        <ele>1100.5999755859</ele>
        <time>2020-09-05T10:15:53.000Z</time>
      </trkpt>
      <trkpt lat="44.11125" lon="6.79804">
        <ele>1100.4000244141</ele>
        <time>2020-09-05T10:15:56.000Z</time>
      </trkpt>
      <trkpt lat="44.11129" lon="6.79799">
        <ele>1100.5999755859</ele>
        <time>2020-09-05T10:15:57.000Z</time>
      </trkpt>
      <trkpt lat="44.11145" lon="6.79793">
        <ele>1101</ele>
        <time>2020-09-05T10:16:00.000Z</time>
      </trkpt>
      <trkpt lat="44.11149" lon="6.79791">
        <ele>1101.1999511719</ele>
        <time>2020-09-05T10:16:01.000Z</time>
      </trkpt>
      <trkpt lat="44.11154" lon="6.79788">
        <ele>1101</ele>
        <time>2020-09-05T10:16:02.000Z</time>
      </trkpt>
      <trkpt lat="44.11161" lon="6.79783">
        <ele>1099.8000488281</ele>
        <time>2020-09-05T10:16:04.000Z</time>
      </trkpt>
      <trkpt lat="44.11172" lon="6.7978">
        <ele>1098.4000244141</ele>
        <time>2020-09-05T10:16:06.000Z</time>
      </trkpt>
      <trkpt lat="44.11178" lon="6.79778">
        <ele>1097.8000488281</ele>
        <time>2020-09-05T10:16:07.000Z</time>
      </trkpt>
      <trkpt lat="44.11183" lon="6.79776">
        <ele>1097</ele>
        <time>2020-09-05T10:16:08.000Z</time>
      </trkpt>
      <trkpt lat="44.11195" lon="6.79772">
        <ele>1096</ele>
        <time>2020-09-05T10:16:10.000Z</time>
      </trkpt>
      <trkpt lat="44.112" lon="6.79769">
        <ele>1095.5999755859</ele>
        <time>2020-09-05T10:16:11.000Z</time>
      </trkpt>
      <trkpt lat="44.11203" lon="6.79767">
        <ele>1095</ele>
        <time>2020-09-05T10:16:12.000Z</time>
      </trkpt>
      <trkpt lat="44.11209" lon="6.79759">
        <ele>1093.1999511719</ele>
        <time>2020-09-05T10:16:14.000Z</time>
      </trkpt>
      <trkpt lat="44.11218" lon="6.79749">
        <ele>1091.4000244141</ele>
        <time>2020-09-05T10:16:16.000Z</time>
      </trkpt>
      <trkpt lat="44.11232" lon="6.79751">
        <ele>1089.4000244141</ele>
        <time>2020-09-05T10:16:18.000Z</time>
      </trkpt>
      <trkpt lat="44.11239" lon="6.79753">
        <ele>1088.1999511719</ele>
        <time>2020-09-05T10:16:19.000Z</time>
      </trkpt>
      <trkpt lat="44.11246" lon="6.79752">
        <ele>1087.1999511719</ele>
        <time>2020-09-05T10:16:20.000Z</time>
      </trkpt>
      <trkpt lat="44.11251" lon="6.79752">
        <ele>1086.1999511719</ele>
        <time>2020-09-05T10:16:21.000Z</time>
      </trkpt>
      <trkpt lat="44.11257" lon="6.79751">
        <ele>1085.4000244141</ele>
        <time>2020-09-05T10:16:22.000Z</time>
      </trkpt>
      <trkpt lat="44.11264" lon="6.79747">
        <ele>1083.8000488281</ele>
        <time>2020-09-05T10:16:23.000Z</time>
      </trkpt>
      <trkpt lat="44.11272" lon="6.79742">
        <ele>1082.1999511719</ele>
        <time>2020-09-05T10:16:24.000Z</time>
      </trkpt>
      <trkpt lat="44.11279" lon="6.79737">
        <ele>1081.1999511719</ele>
        <time>2020-09-05T10:16:25.000Z</time>
      </trkpt>
      <trkpt lat="44.11285" lon="6.79731">
        <ele>1082</ele>
        <time>2020-09-05T10:16:26.000Z</time>
      </trkpt>
      <trkpt lat="44.11299" lon="6.7972">
        <ele>1079.4000244141</ele>
        <time>2020-09-05T10:16:28.000Z</time>
      </trkpt>
      <trkpt lat="44.11306" lon="6.79712">
        <ele>1077.5999755859</ele>
        <time>2020-09-05T10:16:29.000Z</time>
      </trkpt>
      <trkpt lat="44.11312" lon="6.79702">
        <ele>1075.8000488281</ele>
        <time>2020-09-05T10:16:30.000Z</time>
      </trkpt>
      <trkpt lat="44.11315" lon="6.79693">
        <ele>1074.1999511719</ele>
        <time>2020-09-05T10:16:31.000Z</time>
      </trkpt>
      <trkpt lat="44.11319" lon="6.79682">
        <ele>1072.8000488281</ele>
        <time>2020-09-05T10:16:32.000Z</time>
      </trkpt>
      <trkpt lat="44.1132" lon="6.79671">
        <ele>1071.4000244141</ele>
        <time>2020-09-05T10:16:33.000Z</time>
      </trkpt>
      <trkpt lat="44.11323" lon="6.79663">
        <ele>1070</ele>
        <time>2020-09-05T10:16:34.000Z</time>
      </trkpt>
      <trkpt lat="44.11324" lon="6.79652">
        <ele>1068.5999755859</ele>
        <time>2020-09-05T10:16:35.000Z</time>
      </trkpt>
      <trkpt lat="44.11331" lon="6.79635">
        <ele>1066.8000488281</ele>
        <time>2020-09-05T10:16:37.000Z</time>
      </trkpt>
      <trkpt lat="44.11337" lon="6.79627">
        <ele>1066.4000244141</ele>
        <time>2020-09-05T10:16:38.000Z</time>
      </trkpt>
      <trkpt lat="44.1134" lon="6.79617">
        <ele>1064.5999755859</ele>
        <time>2020-09-05T10:16:39.000Z</time>
      </trkpt>
      <trkpt lat="44.11344" lon="6.79609">
        <ele>1064.4000244141</ele>
        <time>2020-09-05T10:16:40.000Z</time>
      </trkpt>
      <trkpt lat="44.11348" lon="6.79601">
        <ele>1064.1999511719</ele>
        <time>2020-09-05T10:16:41.000Z</time>
      </trkpt>
      <trkpt lat="44.11353" lon="6.79596">
        <ele>1063.5999755859</ele>
        <time>2020-09-05T10:16:42.000Z</time>
      </trkpt>
      <trkpt lat="44.11359" lon="6.79598">
        <ele>1062.8000488281</ele>
        <time>2020-09-05T10:16:43.000Z</time>
      </trkpt>
      <trkpt lat="44.11364" lon="6.79598">
        <ele>1062.1999511719</ele>
        <time>2020-09-05T10:16:44.000Z</time>
      </trkpt>
      <trkpt lat="44.11369" lon="6.79597">
        <ele>1061.8000488281</ele>
        <time>2020-09-05T10:16:45.000Z</time>
      </trkpt>
      <trkpt lat="44.11379" lon="6.7959">
        <ele>1061.1999511719</ele>
        <time>2020-09-05T10:16:47.000Z</time>
      </trkpt>
      <trkpt lat="44.11389" lon="6.79581">
        <ele>1060.4000244141</ele>
        <time>2020-09-05T10:16:49.000Z</time>
      </trkpt>
      <trkpt lat="44.11391" lon="6.79575">
        <ele>1060</ele>
        <time>2020-09-05T10:16:50.000Z</time>
      </trkpt>
      <trkpt lat="44.11394" lon="6.79569">
        <ele>1059.5999755859</ele>
        <time>2020-09-05T10:16:51.000Z</time>
      </trkpt>
      <trkpt lat="44.11402" lon="6.79554">
        <ele>1058.8000488281</ele>
        <time>2020-09-05T10:16:53.000Z</time>
      </trkpt>
      <trkpt lat="44.11405" lon="6.79537">
        <ele>1058.1999511719</ele>
        <time>2020-09-05T10:16:55.000Z</time>
      </trkpt>
      <trkpt lat="44.11406" lon="6.79531">
        <ele>1058.4000244141</ele>
        <time>2020-09-05T10:16:56.000Z</time>
      </trkpt>
      <trkpt lat="44.11407" lon="6.79523">
        <ele>1057.5999755859</ele>
        <time>2020-09-05T10:16:57.000Z</time>
      </trkpt>
      <trkpt lat="44.1141" lon="6.79503">
        <ele>1056.4000244141</ele>
        <time>2020-09-05T10:17:00.000Z</time>
      </trkpt>
      <trkpt lat="44.11414" lon="6.79484">
        <ele>1055.8000488281</ele>
        <time>2020-09-05T10:17:03.000Z</time>
      </trkpt>
      <trkpt lat="44.11413" lon="6.79472">
        <ele>1055.5999755859</ele>
        <time>2020-09-05T10:17:05.000Z</time>
      </trkpt>
      <trkpt lat="44.11409" lon="6.79469">
        <ele>1055</ele>
        <time>2020-09-05T10:17:06.000Z</time>
      </trkpt>
      <trkpt lat="44.11404" lon="6.79463">
        <ele>1054</ele>
        <time>2020-09-05T10:17:07.000Z</time>
      </trkpt>
      <trkpt lat="44.114" lon="6.79459">
        <ele>1053.1999511719</ele>
        <time>2020-09-05T10:17:08.000Z</time>
      </trkpt>
      <trkpt lat="44.11395" lon="6.79454">
        <ele>1052.5999755859</ele>
        <time>2020-09-05T10:17:09.000Z</time>
      </trkpt>
      <trkpt lat="44.1138" lon="6.79439">
        <ele>1052</ele>
        <time>2020-09-05T10:17:12.000Z</time>
      </trkpt>
      <trkpt lat="44.11373" lon="6.79427">
        <ele>1051.1999511719</ele>
        <time>2020-09-05T10:17:15.000Z</time>
      </trkpt>
      <trkpt lat="44.11384" lon="6.79412">
        <ele>1050</ele>
        <time>2020-09-05T10:17:18.000Z</time>
      </trkpt>
      <trkpt lat="44.11398" lon="6.79402">
        <ele>1049</ele>
        <time>2020-09-05T10:17:21.000Z</time>
      </trkpt>
      <trkpt lat="44.11408" lon="6.79384">
        <ele>1048</ele>
        <time>2020-09-05T10:17:25.000Z</time>
      </trkpt>
      <trkpt lat="44.114" lon="6.79365">
        <ele>1046.5999755859</ele>
        <time>2020-09-05T10:17:28.000Z</time>
      </trkpt>
      <trkpt lat="44.11388" lon="6.79349">
        <ele>1046</ele>
        <time>2020-09-05T10:17:31.000Z</time>
      </trkpt>
      <trkpt lat="44.11388" lon="6.79345">
        <ele>1045.8000488281</ele>
        <time>2020-09-05T10:17:32.000Z</time>
      </trkpt>
      <trkpt lat="44.1139" lon="6.79342">
        <ele>1045.5999755859</ele>
        <time>2020-09-05T10:17:33.000Z</time>
      </trkpt>
      <trkpt lat="44.11397" lon="6.79336">
        <ele>1044.8000488281</ele>
        <time>2020-09-05T10:17:35.000Z</time>
      </trkpt>
      <trkpt lat="44.11407" lon="6.79331">
        <ele>1044.4000244141</ele>
        <time>2020-09-05T10:17:37.000Z</time>
      </trkpt>
      <trkpt lat="44.11413" lon="6.79327">
        <ele>1044.1999511719</ele>
        <time>2020-09-05T10:17:38.000Z</time>
      </trkpt>
      <trkpt lat="44.11417" lon="6.79324">
        <ele>1044.1999511719</ele>
        <time>2020-09-05T10:17:39.000Z</time>
      </trkpt>
      <trkpt lat="44.11421" lon="6.7932">
        <ele>1044</ele>
        <time>2020-09-05T10:17:40.000Z</time>
      </trkpt>
      <trkpt lat="44.11432" lon="6.79307">
        <ele>1043.1999511719</ele>
        <time>2020-09-05T10:17:43.000Z</time>
      </trkpt>
      <trkpt lat="44.11441" lon="6.79292">
        <ele>1042</ele>
        <time>2020-09-05T10:17:46.000Z</time>
      </trkpt>
      <trkpt lat="44.11448" lon="6.79289">
        <ele>1041.5999755859</ele>
        <time>2020-09-05T10:17:47.000Z</time>
      </trkpt>
      <trkpt lat="44.11458" lon="6.79273">
        <ele>1040.8000488281</ele>
        <time>2020-09-05T10:17:50.000Z</time>
      </trkpt>
      <trkpt lat="44.11473" lon="6.7927">
        <ele>1039.8000488281</ele>
        <time>2020-09-05T10:17:53.000Z</time>
      </trkpt>
      <trkpt lat="44.11483" lon="6.79274">
        <ele>1038.4000244141</ele>
        <time>2020-09-05T10:17:56.000Z</time>
      </trkpt>
      <trkpt lat="44.11491" lon="6.79266">
        <ele>1037.4000244141</ele>
        <time>2020-09-05T10:17:58.000Z</time>
      </trkpt>
      <trkpt lat="44.11494" lon="6.7926">
        <ele>1036.8000488281</ele>
        <time>2020-09-05T10:17:59.000Z</time>
      </trkpt>
      <trkpt lat="44.11498" lon="6.79258">
        <ele>1036.1999511719</ele>
        <time>2020-09-05T10:18:00.000Z</time>
      </trkpt>
      <trkpt lat="44.11506" lon="6.79261">
        <ele>1035.5999755859</ele>
        <time>2020-09-05T10:18:02.000Z</time>
      </trkpt>
      <trkpt lat="44.1152" lon="6.7928">
        <ele>1034.8000488281</ele>
        <time>2020-09-05T10:18:05.000Z</time>
      </trkpt>
      <trkpt lat="44.11526" lon="6.79293">
        <ele>1034</ele>
        <time>2020-09-05T10:18:07.000Z</time>
      </trkpt>
      <trkpt lat="44.11527" lon="6.79299">
        <ele>1033.4000244141</ele>
        <time>2020-09-05T10:18:08.000Z</time>
      </trkpt>
      <trkpt lat="44.1153" lon="6.79304">
        <ele>1033</ele>
        <time>2020-09-05T10:18:09.000Z</time>
      </trkpt>
      <trkpt lat="44.11533" lon="6.7931">
        <ele>1032.1999511719</ele>
        <time>2020-09-05T10:18:10.000Z</time>
      </trkpt>
      <trkpt lat="44.11541" lon="6.79315">
        <ele>1031.1999511719</ele>
        <time>2020-09-05T10:18:12.000Z</time>
      </trkpt>
      <trkpt lat="44.11546" lon="6.79314">
        <ele>1030.1999511719</ele>
        <time>2020-09-05T10:18:13.000Z</time>
      </trkpt>
      <trkpt lat="44.11553" lon="6.79313">
        <ele>1029.5999755859</ele>
        <time>2020-09-05T10:18:14.000Z</time>
      </trkpt>
      <trkpt lat="44.11563" lon="6.79308">
        <ele>1028.8000488281</ele>
        <time>2020-09-05T10:18:17.000Z</time>
      </trkpt>
      <trkpt lat="44.11567" lon="6.79293">
        <ele>1029.1999511719</ele>
        <time>2020-09-05T10:18:20.000Z</time>
      </trkpt>
      <trkpt lat="44.11579" lon="6.79283">
        <ele>1030</ele>
        <time>2020-09-05T10:18:23.000Z</time>
      </trkpt>
      <trkpt lat="44.11589" lon="6.79287">
        <ele>1030.5999755859</ele>
        <time>2020-09-05T10:18:26.000Z</time>
      </trkpt>
      <trkpt lat="44.11597" lon="6.79281">
        <ele>1030.8000488281</ele>
        <time>2020-09-05T10:18:28.000Z</time>
      </trkpt>
      <trkpt lat="44.11601" lon="6.79265">
        <ele>1029.1999511719</ele>
        <time>2020-09-05T10:18:31.000Z</time>
      </trkpt>
      <trkpt lat="44.11601" lon="6.79257">
        <ele>1028.4000244141</ele>
        <time>2020-09-05T10:18:32.000Z</time>
      </trkpt>
      <trkpt lat="44.11603" lon="6.79249">
        <ele>1028</ele>
        <time>2020-09-05T10:18:33.000Z</time>
      </trkpt>
      <trkpt lat="44.11605" lon="6.79231">
        <ele>1027.8000488281</ele>
        <time>2020-09-05T10:18:35.000Z</time>
      </trkpt>
      <trkpt lat="44.11615" lon="6.79212">
        <ele>1027.1999511719</ele>
        <time>2020-09-05T10:18:38.000Z</time>
      </trkpt>
      <trkpt lat="44.11619" lon="6.79211">
        <ele>1026.5999755859</ele>
        <time>2020-09-05T10:18:39.000Z</time>
      </trkpt>
      <trkpt lat="44.11626" lon="6.79215">
        <ele>1025.8000488281</ele>
        <time>2020-09-05T10:18:40.000Z</time>
      </trkpt>
      <trkpt lat="44.11631" lon="6.79215">
        <ele>1025.4000244141</ele>
        <time>2020-09-05T10:18:41.000Z</time>
      </trkpt>
      <trkpt lat="44.11642" lon="6.79205">
        <ele>1024</ele>
        <time>2020-09-05T10:18:43.000Z</time>
      </trkpt>
      <trkpt lat="44.11649" lon="6.79189">
        <ele>1022.4000244141</ele>
        <time>2020-09-05T10:18:45.000Z</time>
      </trkpt>
      <trkpt lat="44.11653" lon="6.79182">
        <ele>1021.799987793</ele>
        <time>2020-09-05T10:18:46.000Z</time>
      </trkpt>
      <trkpt lat="44.11657" lon="6.79173">
        <ele>1021</ele>
        <time>2020-09-05T10:18:47.000Z</time>
      </trkpt>
      <trkpt lat="44.11665" lon="6.79164">
        <ele>1019.200012207</ele>
        <time>2020-09-05T10:18:49.000Z</time>
      </trkpt>
      <trkpt lat="44.11671" lon="6.79161">
        <ele>1018.200012207</ele>
        <time>2020-09-05T10:18:50.000Z</time>
      </trkpt>
      <trkpt lat="44.11675" lon="6.79158">
        <ele>1017.200012207</ele>
        <time>2020-09-05T10:18:51.000Z</time>
      </trkpt>
      <trkpt lat="44.11681" lon="6.79154">
        <ele>1016</ele>
        <time>2020-09-05T10:18:52.000Z</time>
      </trkpt>
      <trkpt lat="44.11689" lon="6.79151">
        <ele>1014.4000244141</ele>
        <time>2020-09-05T10:18:53.000Z</time>
      </trkpt>
      <trkpt lat="44.11693" lon="6.7915">
        <ele>1013</ele>
        <time>2020-09-05T10:18:54.000Z</time>
      </trkpt>
      <trkpt lat="44.11696" lon="6.79146">
        <ele>1011.5999755859</ele>
        <time>2020-09-05T10:18:55.000Z</time>
      </trkpt>
      <trkpt lat="44.117" lon="6.79141">
        <ele>1010</ele>
        <time>2020-09-05T10:18:56.000Z</time>
      </trkpt>
      <trkpt lat="44.11704" lon="6.79136">
        <ele>1008.4000244141</ele>
        <time>2020-09-05T10:18:57.000Z</time>
      </trkpt>
      <trkpt lat="44.11707" lon="6.79132">
        <ele>1007.200012207</ele>
        <time>2020-09-05T10:18:58.000Z</time>
      </trkpt>
      <trkpt lat="44.11712" lon="6.79121">
        <ele>1006.200012207</ele>
        <time>2020-09-05T10:19:00.000Z</time>
      </trkpt>
      <trkpt lat="44.11722" lon="6.79124">
        <ele>1007</ele>
        <time>2020-09-05T10:19:03.000Z</time>
      </trkpt>
      <trkpt lat="44.1173" lon="6.79136">
        <ele>1007.200012207</ele>
        <time>2020-09-05T10:19:05.000Z</time>
      </trkpt>
      <trkpt lat="44.11734" lon="6.7914">
        <ele>1007.200012207</ele>
        <time>2020-09-05T10:19:06.000Z</time>
      </trkpt>
      <trkpt lat="44.1175" lon="6.79139">
        <ele>1005.4000244141</ele>
        <time>2020-09-05T10:19:09.000Z</time>
      </trkpt>
      <trkpt lat="44.11755" lon="6.79138">
        <ele>1004.799987793</ele>
        <time>2020-09-05T10:19:10.000Z</time>
      </trkpt>
      <trkpt lat="44.11765" lon="6.79133">
        <ele>1003.799987793</ele>
        <time>2020-09-05T10:19:12.000Z</time>
      </trkpt>
      <trkpt lat="44.11766" lon="6.79129">
        <ele>1003.4000244141</ele>
        <time>2020-09-05T10:19:13.000Z</time>
      </trkpt>
      <trkpt lat="44.11769" lon="6.79129">
        <ele>1002.4000244141</ele>
        <time>2020-09-05T10:19:15.000Z</time>
      </trkpt>
      <trkpt lat="44.1177" lon="6.79133">
        <ele>1002</ele>
        <time>2020-09-05T10:19:16.000Z</time>
      </trkpt>
      <trkpt lat="44.11771" lon="6.79137">
        <ele>1001.4000244141</ele>
        <time>2020-09-05T10:19:17.000Z</time>
      </trkpt>
      <trkpt lat="44.11773" lon="6.79132">
        <ele>1000.4000244141</ele>
        <time>2020-09-05T10:19:19.000Z</time>
      </trkpt>
      <trkpt lat="44.11774" lon="6.7913">
        <ele>999.79998779297</ele>
        <time>2020-09-05T10:19:20.000Z</time>
      </trkpt>
      <trkpt lat="44.11778" lon="6.79134">
        <ele>999.20001220703</ele>
        <time>2020-09-05T10:19:22.000Z</time>
      </trkpt>
      <trkpt lat="44.11779" lon="6.7914">
        <ele>998.59997558594</ele>
        <time>2020-09-05T10:19:23.000Z</time>
      </trkpt>
      <trkpt lat="44.11778" lon="6.79147">
        <ele>997.40002441406</ele>
        <time>2020-09-05T10:19:25.000Z</time>
      </trkpt>
      <trkpt lat="44.11781" lon="6.79152">
        <ele>996</ele>
        <time>2020-09-05T10:19:27.000Z</time>
      </trkpt>
      <trkpt lat="44.11783" lon="6.79151">
        <ele>995.40002441406</ele>
        <time>2020-09-05T10:19:28.000Z</time>
      </trkpt>
      <trkpt lat="44.11784" lon="6.79148">
        <ele>994.59997558594</ele>
        <time>2020-09-05T10:19:29.000Z</time>
      </trkpt>
      <trkpt lat="44.11788" lon="6.79151">
        <ele>992.79998779297</ele>
        <time>2020-09-05T10:19:31.000Z</time>
      </trkpt>
      <trkpt lat="44.11788" lon="6.79161">
        <ele>991.40002441406</ele>
        <time>2020-09-05T10:19:33.000Z</time>
      </trkpt>
      <trkpt lat="44.11788" lon="6.79164">
        <ele>990.59997558594</ele>
        <time>2020-09-05T10:19:34.000Z</time>
      </trkpt>
      <trkpt lat="44.1179" lon="6.79164">
        <ele>990</ele>
        <time>2020-09-05T10:19:35.000Z</time>
      </trkpt>
      <trkpt lat="44.11793" lon="6.79161">
        <ele>989.40002441406</ele>
        <time>2020-09-05T10:19:36.000Z</time>
      </trkpt>
      <trkpt lat="44.11797" lon="6.79155">
        <ele>988.59997558594</ele>
        <time>2020-09-05T10:19:37.000Z</time>
      </trkpt>
      <trkpt lat="44.11801" lon="6.79138">
        <ele>986.59997558594</ele>
        <time>2020-09-05T10:19:39.000Z</time>
      </trkpt>
      <trkpt lat="44.11803" lon="6.79122">
        <ele>985.40002441406</ele>
        <time>2020-09-05T10:19:41.000Z</time>
      </trkpt>
      <trkpt lat="44.11807" lon="6.79113">
        <ele>984.59997558594</ele>
        <time>2020-09-05T10:19:42.000Z</time>
      </trkpt>
      <trkpt lat="44.11809" lon="6.79107">
        <ele>983.59997558594</ele>
        <time>2020-09-05T10:19:43.000Z</time>
      </trkpt>
      <trkpt lat="44.1181" lon="6.791">
        <ele>982.20001220703</ele>
        <time>2020-09-05T10:19:44.000Z</time>
      </trkpt>
      <trkpt lat="44.1181" lon="6.79095">
        <ele>980.79998779297</ele>
        <time>2020-09-05T10:19:45.000Z</time>
      </trkpt>
      <trkpt lat="44.11809" lon="6.79093">
        <ele>979.40002441406</ele>
        <time>2020-09-05T10:19:46.000Z</time>
      </trkpt>
      <trkpt lat="44.1181" lon="6.79092">
        <ele>978</ele>
        <time>2020-09-05T10:19:47.000Z</time>
      </trkpt>
      <trkpt lat="44.11812" lon="6.79092">
        <ele>976.79998779297</ele>
        <time>2020-09-05T10:19:48.000Z</time>
      </trkpt>
      <trkpt lat="44.11813" lon="6.79092">
        <ele>975.79998779297</ele>
        <time>2020-09-05T10:19:49.000Z</time>
      </trkpt>
      <trkpt lat="44.11813" lon="6.79091">
        <ele>975</ele>
        <time>2020-09-05T10:19:50.000Z</time>
      </trkpt>
      <trkpt lat="44.11814" lon="6.79087">
        <ele>973.79998779297</ele>
        <time>2020-09-05T10:19:52.000Z</time>
      </trkpt>
      <trkpt lat="44.11815" lon="6.79083">
        <ele>972.79998779297</ele>
        <time>2020-09-05T10:19:54.000Z</time>
      </trkpt>
      <trkpt lat="44.11815" lon="6.79083">
        <ele>971.59997558594</ele>
        <time>2020-09-05T10:19:57.000Z</time>
      </trkpt>
      <trkpt lat="44.11816" lon="6.79084">
        <ele>971.40002441406</ele>
        <time>2020-09-05T10:19:58.000Z</time>
      </trkpt>
      <trkpt lat="44.11818" lon="6.79083">
        <ele>970.59997558594</ele>
        <time>2020-09-05T10:20:16.000Z</time>
      </trkpt>
      <trkpt lat="44.11819" lon="6.7908">
        <ele>970.59997558594</ele>
        <time>2020-09-05T10:20:22.000Z</time>
      </trkpt>
      <trkpt lat="44.1182" lon="6.79076">
        <ele>970.59997558594</ele>
        <time>2020-09-05T10:20:23.000Z</time>
      </trkpt>
      <trkpt lat="44.1183" lon="6.79073">
        <ele>970.59997558594</ele>
        <time>2020-09-05T10:20:27.000Z</time>
      </trkpt>
      <trkpt lat="44.11833" lon="6.79076">
        <ele>970.59997558594</ele>
        <time>2020-09-05T10:20:28.000Z</time>
      </trkpt>
      <trkpt lat="44.11842" lon="6.7908">
        <ele>970</ele>
        <time>2020-09-05T10:20:30.000Z</time>
      </trkpt>
      <trkpt lat="44.11855" lon="6.79082">
        <ele>968.79998779297</ele>
        <time>2020-09-05T10:20:32.000Z</time>
      </trkpt>
      <trkpt lat="44.1186" lon="6.79083">
        <ele>967.20001220703</ele>
        <time>2020-09-05T10:20:33.000Z</time>
      </trkpt>
      <trkpt lat="44.11866" lon="6.79085">
        <ele>966.20001220703</ele>
        <time>2020-09-05T10:20:34.000Z</time>
      </trkpt>
      <trkpt lat="44.11874" lon="6.79089">
        <ele>967.40002441406</ele>
        <time>2020-09-05T10:20:35.000Z</time>
      </trkpt>
      <trkpt lat="44.1188" lon="6.7909">
        <ele>966.79998779297</ele>
        <time>2020-09-05T10:20:36.000Z</time>
      </trkpt>
      <trkpt lat="44.11888" lon="6.79088">
        <ele>965.40002441406</ele>
        <time>2020-09-05T10:20:37.000Z</time>
      </trkpt>
      <trkpt lat="44.11901" lon="6.79084">
        <ele>964</ele>
        <time>2020-09-05T10:20:39.000Z</time>
      </trkpt>
      <trkpt lat="44.1191" lon="6.7908">
        <ele>962.79998779297</ele>
        <time>2020-09-05T10:20:41.000Z</time>
      </trkpt>
      <trkpt lat="44.11917" lon="6.79081">
        <ele>962</ele>
        <time>2020-09-05T10:20:42.000Z</time>
      </trkpt>
      <trkpt lat="44.11921" lon="6.79082">
        <ele>961.20001220703</ele>
        <time>2020-09-05T10:20:43.000Z</time>
      </trkpt>
      <trkpt lat="44.11935" lon="6.79089">
        <ele>960.40002441406</ele>
        <time>2020-09-05T10:20:46.000Z</time>
      </trkpt>
      <trkpt lat="44.11941" lon="6.79089">
        <ele>960</ele>
        <time>2020-09-05T10:20:47.000Z</time>
      </trkpt>
      <trkpt lat="44.11953" lon="6.79088">
        <ele>958.79998779297</ele>
        <time>2020-09-05T10:20:49.000Z</time>
      </trkpt>
      <trkpt lat="44.11965" lon="6.79087">
        <ele>957.59997558594</ele>
        <time>2020-09-05T10:20:51.000Z</time>
      </trkpt>
      <trkpt lat="44.11983" lon="6.79086">
        <ele>956.20001220703</ele>
        <time>2020-09-05T10:20:54.000Z</time>
      </trkpt>
      <trkpt lat="44.12001" lon="6.79082">
        <ele>955</ele>
        <time>2020-09-05T10:20:57.000Z</time>
      </trkpt>
      <trkpt lat="44.1201" lon="6.7908">
        <ele>954.20001220703</ele>
        <time>2020-09-05T10:20:59.000Z</time>
      </trkpt>
      <trkpt lat="44.12015" lon="6.79079">
        <ele>953.20001220703</ele>
        <time>2020-09-05T10:21:00.000Z</time>
      </trkpt>
      <trkpt lat="44.12026" lon="6.79077">
        <ele>952.40002441406</ele>
        <time>2020-09-05T10:21:02.000Z</time>
      </trkpt>
      <trkpt lat="44.12033" lon="6.79078">
        <ele>952.20001220703</ele>
        <time>2020-09-05T10:21:03.000Z</time>
      </trkpt>
      <trkpt lat="44.12038" lon="6.79078">
        <ele>952</ele>
        <time>2020-09-05T10:21:04.000Z</time>
      </trkpt>
      <trkpt lat="44.12049" lon="6.7908">
        <ele>951.20001220703</ele>
        <time>2020-09-05T10:21:07.000Z</time>
      </trkpt>
      <trkpt lat="44.12051" lon="6.79077">
        <ele>951</ele>
        <time>2020-09-05T10:21:08.000Z</time>
      </trkpt>
      <trkpt lat="44.12056" lon="6.7907">
        <ele>950.59997558594</ele>
        <time>2020-09-05T10:21:10.000Z</time>
      </trkpt>
      <trkpt lat="44.12067" lon="6.79062">
        <ele>951</ele>
        <time>2020-09-05T10:21:13.000Z</time>
      </trkpt>
      <trkpt lat="44.12071" lon="6.7906">
        <ele>951</ele>
        <time>2020-09-05T10:21:14.000Z</time>
      </trkpt>
      <trkpt lat="44.12084" lon="6.79065">
        <ele>950.40002441406</ele>
        <time>2020-09-05T10:21:17.000Z</time>
      </trkpt>
      <trkpt lat="44.12094" lon="6.79059">
        <ele>949.79998779297</ele>
        <time>2020-09-05T10:21:20.000Z</time>
      </trkpt>
      <trkpt lat="44.12096" lon="6.79058">
        <ele>949.79998779297</ele>
        <time>2020-09-05T10:21:21.000Z</time>
      </trkpt>
      <trkpt lat="44.12108" lon="6.79053">
        <ele>949.40002441406</ele>
        <time>2020-09-05T10:21:25.000Z</time>
      </trkpt>
      <trkpt lat="44.12116" lon="6.79037">
        <ele>949.40002441406</ele>
        <time>2020-09-05T10:21:30.000Z</time>
      </trkpt>
      <trkpt lat="44.12116" lon="6.79023">
        <ele>949.40002441406</ele>
        <time>2020-09-05T10:21:35.000Z</time>
      </trkpt>
      <trkpt lat="44.12114" lon="6.79022">
        <ele>949.40002441406</ele>
        <time>2020-09-05T10:21:36.000Z</time>
      </trkpt>
      <trkpt lat="44.12107" lon="6.79017">
        <ele>949.59997558594</ele>
        <time>2020-09-05T10:21:42.000Z</time>
      </trkpt>
      <trkpt lat="44.12104" lon="6.79013">
        <ele>949.40002441406</ele>
        <time>2020-09-05T10:21:47.000Z</time>
      </trkpt>
      <trkpt lat="44.12104" lon="6.79012">
        <ele>949.59997558594</ele>
        <time>2020-09-05T10:21:53.000Z</time>
      </trkpt>
      <trkpt lat="44.12105" lon="6.79011">
        <ele>949.40002441406</ele>
        <time>2020-09-05T10:22:00.000Z</time>
      </trkpt>
      <trkpt lat="44.12105" lon="6.79008">
        <ele>949.20001220703</ele>
        <time>2020-09-05T10:22:14.000Z</time>
      </trkpt>
      <trkpt lat="44.12105" lon="6.79006">
        <ele>949.59997558594</ele>
        <time>2020-09-05T10:22:23.000Z</time>
      </trkpt>
      <trkpt lat="44.12105" lon="6.79006">
        <ele>949.20001220703</ele>
        <time>2020-09-05T10:22:31.000Z</time>
      </trkpt>
      <trkpt lat="44.12105" lon="6.79007">
        <ele>949.40002441406</ele>
        <time>2020-09-05T10:22:38.000Z</time>
      </trkpt>
      <trkpt lat="44.12105" lon="6.79007">
        <ele>949.20001220703</ele>
        <time>2020-09-05T10:22:54.000Z</time>
      </trkpt>
      <trkpt lat="44.12105" lon="6.79008">
        <ele>949.20001220703</ele>
        <time>2020-09-05T10:23:01.000Z</time>
      </trkpt>
      <trkpt lat="44.12105" lon="6.79007">
        <ele>949.40002441406</ele>
        <time>2020-09-05T10:23:08.000Z</time>
      </trkpt>
      <trkpt lat="44.12106" lon="6.79005">
        <ele>949.40002441406</ele>
        <time>2020-09-05T10:23:22.000Z</time>
      </trkpt>
      <trkpt lat="44.12107" lon="6.79005">
        <ele>948.79998779297</ele>
        <time>2020-09-05T10:23:26.000Z</time>
      </trkpt>
      <trkpt lat="44.12108" lon="6.79005">
        <ele>949</ele>
        <time>2020-09-05T10:23:34.000Z</time>
      </trkpt>
      <trkpt lat="44.12108" lon="6.79005">
        <ele>949.79998779297</ele>
        <time>2020-09-05T10:23:39.000Z</time>
      </trkpt>
      <trkpt lat="44.1211" lon="6.79002">
        <ele>949.79998779297</ele>
        <time>2020-09-05T10:23:45.000Z</time>
      </trkpt>
      <trkpt lat="44.12111" lon="6.79">
        <ele>949.79998779297</ele>
        <time>2020-09-05T10:23:47.000Z</time>
      </trkpt>
      <trkpt lat="44.12112" lon="6.78998">
        <ele>950</ele>
        <time>2020-09-05T10:23:48.000Z</time>
      </trkpt>
      <trkpt lat="44.12114" lon="6.78994">
        <ele>950</ele>
        <time>2020-09-05T10:23:50.000Z</time>
      </trkpt>
      <trkpt lat="44.12121" lon="6.78986">
        <ele>950.79998779297</ele>
        <time>2020-09-05T10:23:55.000Z</time>
      </trkpt>
      <trkpt lat="44.12122" lon="6.78984">
        <ele>951.20001220703</ele>
        <time>2020-09-05T10:23:56.000Z</time>
      </trkpt>
      <trkpt lat="44.12129" lon="6.78975">
        <ele>951.59997558594</ele>
        <time>2020-09-05T10:24:00.000Z</time>
      </trkpt>
      <trkpt lat="44.12141" lon="6.78973">
        <ele>950.79998779297</ele>
        <time>2020-09-05T10:24:06.000Z</time>
      </trkpt>
      <trkpt lat="44.12147" lon="6.78973">
        <ele>950</ele>
        <time>2020-09-05T10:24:10.000Z</time>
      </trkpt>
      <trkpt lat="44.12148" lon="6.78971">
        <ele>949.59997558594</ele>
        <time>2020-09-05T10:24:12.000Z</time>
      </trkpt>
      <trkpt lat="44.12149" lon="6.78973">
        <ele>949.20001220703</ele>
        <time>2020-09-05T10:24:17.000Z</time>
      </trkpt>
      <trkpt lat="44.12148" lon="6.78973">
        <ele>949</ele>
        <time>2020-09-05T10:24:19.000Z</time>
      </trkpt>
      <trkpt lat="44.12145" lon="6.78973">
        <ele>948.79998779297</ele>
        <time>2020-09-05T10:24:22.000Z</time>
      </trkpt>
      <trkpt lat="44.12144" lon="6.78974">
        <ele>948.79998779297</ele>
        <time>2020-09-05T10:24:23.000Z</time>
      </trkpt>
      <trkpt lat="44.12135" lon="6.78981">
        <ele>949.40002441406</ele>
        <time>2020-09-05T10:24:28.000Z</time>
      </trkpt>
      <trkpt lat="44.12132" lon="6.78981">
        <ele>948.79998779297</ele>
        <time>2020-09-05T10:24:32.000Z</time>
      </trkpt>
      <trkpt lat="44.12131" lon="6.7898">
        <ele>948.79998779297</ele>
        <time>2020-09-05T10:24:37.000Z</time>
      </trkpt>
      <trkpt lat="44.12131" lon="6.7898">
        <ele>948.59997558594</ele>
        <time>2020-09-05T10:24:45.000Z</time>
      </trkpt>
      <trkpt lat="44.12131" lon="6.7898">
        <ele>948.59997558594</ele>
        <time>2020-09-05T10:24:53.000Z</time>
      </trkpt>
      <trkpt lat="44.12129" lon="6.7898">
        <ele>948.40002441406</ele>
        <time>2020-09-05T10:25:00.000Z</time>
      </trkpt>
      <trkpt lat="44.1213" lon="6.78981">
        <ele>948.59997558594</ele>
        <time>2020-09-05T10:25:06.000Z</time>
      </trkpt>
      <trkpt lat="44.1213" lon="6.7898">
        <ele>948.59997558594</ele>
        <time>2020-09-05T10:25:14.000Z</time>
      </trkpt>
      <trkpt lat="44.12129" lon="6.7898">
        <ele>948.59997558594</ele>
        <time>2020-09-05T10:25:20.000Z</time>
      </trkpt>
      <trkpt lat="44.12129" lon="6.78979">
        <ele>948.59997558594</ele>
        <time>2020-09-05T10:25:31.000Z</time>
      </trkpt>
      <trkpt lat="44.12129" lon="6.78979">
        <ele>948.59997558594</ele>
        <time>2020-09-05T10:25:38.000Z</time>
      </trkpt>
      <trkpt lat="44.12129" lon="6.78979">
        <ele>948.59997558594</ele>
        <time>2020-09-05T10:25:48.000Z</time>
      </trkpt>
      <trkpt lat="44.12125" lon="6.78982">
        <ele>948.59997558594</ele>
        <time>2020-09-05T10:25:53.000Z</time>
      </trkpt>
      <trkpt lat="44.12125" lon="6.78982">
        <ele>948.59997558594</ele>
        <time>2020-09-05T10:25:54.000Z</time>
      </trkpt>
      <trkpt lat="44.12124" lon="6.78984">
        <ele>947.79998779297</ele>
        <time>2020-09-05T10:25:58.000Z</time>
      </trkpt>
      <trkpt lat="44.12124" lon="6.78985">
        <ele>947.59997558594</ele>
        <time>2020-09-05T10:25:59.000Z</time>
      </trkpt>
      <trkpt lat="44.12125" lon="6.78987">
        <ele>947.59997558594</ele>
        <time>2020-09-05T10:26:04.000Z</time>
      </trkpt>
      <trkpt lat="44.12125" lon="6.78991">
        <ele>947</ele>
        <time>2020-09-05T10:26:11.000Z</time>
      </trkpt>
      <trkpt lat="44.12125" lon="6.78994">
        <ele>946.79998779297</ele>
        <time>2020-09-05T10:26:18.000Z</time>
      </trkpt>
      <trkpt lat="44.12125" lon="6.78994">
        <ele>946.79998779297</ele>
        <time>2020-09-05T10:26:21.000Z</time>
      </trkpt>
      <trkpt lat="44.12125" lon="6.78994">
        <ele>946.40002441406</ele>
        <time>2020-09-05T10:26:24.000Z</time>
      </trkpt>
      <trkpt lat="44.12126" lon="6.78994">
        <ele>945.59997558594</ele>
        <time>2020-09-05T10:26:30.000Z</time>
      </trkpt>
      <trkpt lat="44.12128" lon="6.78996">
        <ele>945.79998779297</ele>
        <time>2020-09-05T10:26:48.000Z</time>
      </trkpt>
      <trkpt lat="44.12129" lon="6.78995">
        <ele>945.79998779297</ele>
        <time>2020-09-05T10:26:59.000Z</time>
      </trkpt>
      <trkpt lat="44.12128" lon="6.78994">
        <ele>946.20001220703</ele>
        <time>2020-09-05T10:27:04.000Z</time>
      </trkpt>
      <trkpt lat="44.12128" lon="6.78994">
        <ele>946.20001220703</ele>
        <time>2020-09-05T10:27:10.000Z</time>
      </trkpt>
      <trkpt lat="44.12128" lon="6.78995">
        <ele>946.59997558594</ele>
        <time>2020-09-05T10:27:14.000Z</time>
      </trkpt>
      <trkpt lat="44.12129" lon="6.78995">
        <ele>946.59997558594</ele>
        <time>2020-09-05T10:27:20.000Z</time>
      </trkpt>
      <trkpt lat="44.12129" lon="6.78995">
        <ele>945.79998779297</ele>
        <time>2020-09-05T10:27:28.000Z</time>
      </trkpt>
      <trkpt lat="44.12128" lon="6.78995">
        <ele>945.59997558594</ele>
        <time>2020-09-05T10:27:30.000Z</time>
      </trkpt>
      <trkpt lat="44.12128" lon="6.78995">
        <ele>945.59997558594</ele>
        <time>2020-09-05T10:27:36.000Z</time>
      </trkpt>
      <trkpt lat="44.12128" lon="6.78995">
        <ele>945.59997558594</ele>
        <time>2020-09-05T10:27:47.000Z</time>
      </trkpt>
      <trkpt lat="44.12129" lon="6.78996">
        <ele>945.79998779297</ele>
        <time>2020-09-05T10:27:58.000Z</time>
      </trkpt>
      <trkpt lat="44.12129" lon="6.78995">
        <ele>945.79998779297</ele>
        <time>2020-09-05T10:28:11.000Z</time>
      </trkpt>
      <trkpt lat="44.1213" lon="6.78995">
        <ele>945.79998779297</ele>
        <time>2020-09-05T10:28:23.000Z</time>
      </trkpt>
      <trkpt lat="44.1213" lon="6.78995">
        <ele>946</ele>
        <time>2020-09-05T10:28:32.000Z</time>
      </trkpt>
      <trkpt lat="44.12131" lon="6.78996">
        <ele>946</ele>
        <time>2020-09-05T10:28:49.000Z</time>
      </trkpt>
      <trkpt lat="44.12131" lon="6.78996">
        <ele>946.20001220703</ele>
        <time>2020-09-05T10:29:08.000Z</time>
      </trkpt>
      <trkpt lat="44.12131" lon="6.78995">
        <ele>946.40002441406</ele>
        <time>2020-09-05T10:29:28.000Z</time>
      </trkpt>
      <trkpt lat="44.12131" lon="6.78995">
        <ele>946.20001220703</ele>
        <time>2020-09-05T10:29:46.000Z</time>
      </trkpt>
      <trkpt lat="44.1213" lon="6.78995">
        <ele>946.40002441406</ele>
        <time>2020-09-05T10:30:04.000Z</time>
      </trkpt>
      <trkpt lat="44.1213" lon="6.78995">
        <ele>946.40002441406</ele>
        <time>2020-09-05T10:30:21.000Z</time>
      </trkpt>
      <trkpt lat="44.1213" lon="6.78995">
        <ele>946.40002441406</ele>
        <time>2020-09-05T10:30:39.000Z</time>
      </trkpt>
      <trkpt lat="44.12129" lon="6.78995">
        <ele>946.59997558594</ele>
        <time>2020-09-05T10:30:55.000Z</time>
      </trkpt>
      <trkpt lat="44.12129" lon="6.78995">
        <ele>946.40002441406</ele>
        <time>2020-09-05T10:31:14.000Z</time>
      </trkpt>
      <trkpt lat="44.12129" lon="6.78995">
        <ele>946.59997558594</ele>
        <time>2020-09-05T10:31:40.000Z</time>
      </trkpt>
      <trkpt lat="44.12129" lon="6.78995">
        <ele>946.59997558594</ele>
        <time>2020-09-05T10:31:45.000Z</time>
      </trkpt>
      <trkpt lat="44.12128" lon="6.78996">
        <ele>946.79998779297</ele>
        <time>2020-09-05T10:32:00.000Z</time>
      </trkpt>
      <trkpt lat="44.12128" lon="6.78996">
        <ele>946.59997558594</ele>
        <time>2020-09-05T10:32:21.000Z</time>
      </trkpt>
      <trkpt lat="44.12128" lon="6.78996">
        <ele>946.79998779297</ele>
        <time>2020-09-05T10:32:44.000Z</time>
      </trkpt>
      <trkpt lat="44.12127" lon="6.78996">
        <ele>946.59997558594</ele>
        <time>2020-09-05T10:33:03.000Z</time>
      </trkpt>
      <trkpt lat="44.12127" lon="6.78996">
        <ele>947</ele>
        <time>2020-09-05T10:33:21.000Z</time>
      </trkpt>
      <trkpt lat="44.12126" lon="6.78996">
        <ele>946.79998779297</ele>
        <time>2020-09-05T10:33:43.000Z</time>
      </trkpt>
      <trkpt lat="44.12126" lon="6.78997">
        <ele>947</ele>
        <time>2020-09-05T10:34:01.000Z</time>
      </trkpt>
      <trkpt lat="44.12126" lon="6.78997">
        <ele>947</ele>
        <time>2020-09-05T10:34:23.000Z</time>
      </trkpt>
      <trkpt lat="44.12126" lon="6.78997">
        <ele>947.20001220703</ele>
        <time>2020-09-05T10:34:41.000Z</time>
      </trkpt>
      <trkpt lat="44.12127" lon="6.78997">
        <ele>947.20001220703</ele>
        <time>2020-09-05T10:34:57.000Z</time>
      </trkpt>
      <trkpt lat="44.12127" lon="6.78997">
        <ele>947.20001220703</ele>
        <time>2020-09-05T10:35:15.000Z</time>
      </trkpt>
      <trkpt lat="44.12128" lon="6.78996">
        <ele>947.40002441406</ele>
        <time>2020-09-05T10:35:33.000Z</time>
      </trkpt>
      <trkpt lat="44.12128" lon="6.78996">
        <ele>947.40002441406</ele>
        <time>2020-09-05T10:35:46.000Z</time>
      </trkpt>
      <trkpt lat="44.12129" lon="6.78997">
        <ele>947.40002441406</ele>
        <time>2020-09-05T10:36:04.000Z</time>
      </trkpt>
      <trkpt lat="44.12129" lon="6.78999">
        <ele>947.40002441406</ele>
        <time>2020-09-05T10:36:24.000Z</time>
      </trkpt>
      <trkpt lat="44.12129" lon="6.79">
        <ele>947.59997558594</ele>
        <time>2020-09-05T10:36:38.000Z</time>
      </trkpt>
      <trkpt lat="44.12129" lon="6.79">
        <ele>947.59997558594</ele>
        <time>2020-09-05T10:36:51.000Z</time>
      </trkpt>
      <trkpt lat="44.12128" lon="6.79">
        <ele>947.79998779297</ele>
        <time>2020-09-05T10:37:18.000Z</time>
      </trkpt>
      <trkpt lat="44.12129" lon="6.79">
        <ele>947.59997558594</ele>
        <time>2020-09-05T10:37:41.000Z</time>
      </trkpt>
      <trkpt lat="44.1213" lon="6.79">
        <ele>947.59997558594</ele>
        <time>2020-09-05T10:38:02.000Z</time>
      </trkpt>
      <trkpt lat="44.12129" lon="6.79">
        <ele>947.59997558594</ele>
        <time>2020-09-05T10:38:23.000Z</time>
      </trkpt>
      <trkpt lat="44.12129" lon="6.79">
        <ele>947.79998779297</ele>
        <time>2020-09-05T10:38:49.000Z</time>
      </trkpt>
      <trkpt lat="44.12129" lon="6.79">
        <ele>947.79998779297</ele>
        <time>2020-09-05T10:39:15.000Z</time>
      </trkpt>
      <trkpt lat="44.12129" lon="6.79">
        <ele>948</ele>
        <time>2020-09-05T10:39:41.000Z</time>
      </trkpt>
      <trkpt lat="44.12129" lon="6.79">
        <ele>948</ele>
        <time>2020-09-05T10:39:59.000Z</time>
      </trkpt>
      <trkpt lat="44.12129" lon="6.79">
        <ele>947.79998779297</ele>
        <time>2020-09-05T10:40:20.000Z</time>
      </trkpt>
      <trkpt lat="44.12129" lon="6.79">
        <ele>948.20001220703</ele>
        <time>2020-09-05T10:40:40.000Z</time>
      </trkpt>
      <trkpt lat="44.12129" lon="6.79">
        <ele>948</ele>
        <time>2020-09-05T10:41:00.000Z</time>
      </trkpt>
      <trkpt lat="44.12128" lon="6.79">
        <ele>948</ele>
        <time>2020-09-05T10:41:25.000Z</time>
      </trkpt>
      <trkpt lat="44.12128" lon="6.79">
        <ele>948.20001220703</ele>
        <time>2020-09-05T10:41:47.000Z</time>
      </trkpt>
      <trkpt lat="44.12127" lon="6.79">
        <ele>948.20001220703</ele>
        <time>2020-09-05T10:42:05.000Z</time>
      </trkpt>
      <trkpt lat="44.12127" lon="6.78998">
        <ele>948.20001220703</ele>
        <time>2020-09-05T10:42:27.000Z</time>
      </trkpt>
      <trkpt lat="44.12127" lon="6.78997">
        <ele>948</ele>
        <time>2020-09-05T10:42:43.000Z</time>
      </trkpt>
      <trkpt lat="44.12128" lon="6.78997">
        <ele>948.20001220703</ele>
        <time>2020-09-05T10:43:01.000Z</time>
      </trkpt>
      <trkpt lat="44.12128" lon="6.78997">
        <ele>948.20001220703</ele>
        <time>2020-09-05T10:43:20.000Z</time>
      </trkpt>
      <trkpt lat="44.12128" lon="6.78997">
        <ele>948.20001220703</ele>
        <time>2020-09-05T10:43:40.000Z</time>
      </trkpt>
      <trkpt lat="44.12128" lon="6.78997">
        <ele>948.40002441406</ele>
        <time>2020-09-05T10:44:00.000Z</time>
      </trkpt>
      <trkpt lat="44.12128" lon="6.78997">
        <ele>948.20001220703</ele>
        <time>2020-09-05T10:44:21.000Z</time>
      </trkpt>
      <trkpt lat="44.12128" lon="6.78997">
        <ele>948.40002441406</ele>
        <time>2020-09-05T10:44:46.000Z</time>
      </trkpt>
      <trkpt lat="44.12128" lon="6.78997">
        <ele>948.20001220703</ele>
        <time>2020-09-05T10:45:06.000Z</time>
      </trkpt>
      <trkpt lat="44.12127" lon="6.78997">
        <ele>948</ele>
        <time>2020-09-05T10:45:26.000Z</time>
      </trkpt>
      <trkpt lat="44.12128" lon="6.78996">
        <ele>948</ele>
        <time>2020-09-05T10:45:40.000Z</time>
      </trkpt>
      <trkpt lat="44.12128" lon="6.78997">
        <ele>948.20001220703</ele>
        <time>2020-09-05T10:45:55.000Z</time>
      </trkpt>
      <trkpt lat="44.12128" lon="6.78998">
        <ele>948.20001220703</ele>
        <time>2020-09-05T10:46:09.000Z</time>
      </trkpt>
      <trkpt lat="44.12129" lon="6.78999">
        <ele>948.40002441406</ele>
        <time>2020-09-05T10:46:25.000Z</time>
      </trkpt>
      <trkpt lat="44.12129" lon="6.78999">
        <ele>948.40002441406</ele>
        <time>2020-09-05T10:46:42.000Z</time>
      </trkpt>
      <trkpt lat="44.12129" lon="6.78999">
        <ele>948.40002441406</ele>
        <time>2020-09-05T10:46:58.000Z</time>
      </trkpt>
      <trkpt lat="44.12128" lon="6.79">
        <ele>948.40002441406</ele>
        <time>2020-09-05T10:47:13.000Z</time>
      </trkpt>
      <trkpt lat="44.12129" lon="6.78999">
        <ele>948.40002441406</ele>
        <time>2020-09-05T10:47:29.000Z</time>
      </trkpt>
      <trkpt lat="44.12128" lon="6.79001">
        <ele>948.59997558594</ele>
        <time>2020-09-05T10:47:45.000Z</time>
      </trkpt>
      <trkpt lat="44.12128" lon="6.79001">
        <ele>948.40002441406</ele>
        <time>2020-09-05T10:48:01.000Z</time>
      </trkpt>
      <trkpt lat="44.12128" lon="6.79002">
        <ele>948.40002441406</ele>
        <time>2020-09-05T10:48:13.000Z</time>
      </trkpt>
      <trkpt lat="44.12127" lon="6.79002">
        <ele>948.40002441406</ele>
        <time>2020-09-05T10:48:26.000Z</time>
      </trkpt>
      <trkpt lat="44.12127" lon="6.79003">
        <ele>948.40002441406</ele>
        <time>2020-09-05T10:48:34.000Z</time>
      </trkpt>
      <trkpt lat="44.12128" lon="6.79002">
        <ele>948.40002441406</ele>
        <time>2020-09-05T10:48:41.000Z</time>
      </trkpt>
      <trkpt lat="44.12128" lon="6.79002">
        <ele>948.40002441406</ele>
        <time>2020-09-05T10:48:52.000Z</time>
      </trkpt>
      <trkpt lat="44.12128" lon="6.79002">
        <ele>948.59997558594</ele>
        <time>2020-09-05T10:49:00.000Z</time>
      </trkpt>
      <trkpt lat="44.12129" lon="6.79002">
        <ele>948.59997558594</ele>
        <time>2020-09-05T10:49:09.000Z</time>
      </trkpt>
      <trkpt lat="44.12128" lon="6.79003">
        <ele>948.59997558594</ele>
        <time>2020-09-05T10:49:22.000Z</time>
      </trkpt>
      <trkpt lat="44.12129" lon="6.79002">
        <ele>948.59997558594</ele>
        <time>2020-09-05T10:49:34.000Z</time>
      </trkpt>
      <trkpt lat="44.12129" lon="6.79001">
        <ele>948.59997558594</ele>
        <time>2020-09-05T10:49:36.000Z</time>
      </trkpt>
      <trkpt lat="44.1213" lon="6.79">
        <ele>948.59997558594</ele>
        <time>2020-09-05T10:49:47.000Z</time>
      </trkpt>
      <trkpt lat="44.1213" lon="6.79">
        <ele>948.59997558594</ele>
        <time>2020-09-05T10:50:01.000Z</time>
      </trkpt>
      <trkpt lat="44.12128" lon="6.79001">
        <ele>948.59997558594</ele>
        <time>2020-09-05T10:50:12.000Z</time>
      </trkpt>
      <trkpt lat="44.12128" lon="6.79001">
        <ele>948.79998779297</ele>
        <time>2020-09-05T10:50:25.000Z</time>
      </trkpt>
      <trkpt lat="44.12127" lon="6.79002">
        <ele>948.79998779297</ele>
        <time>2020-09-05T10:50:39.000Z</time>
      </trkpt>
      <trkpt lat="44.12129" lon="6.79002">
        <ele>948.59997558594</ele>
        <time>2020-09-05T10:50:54.000Z</time>
      </trkpt>
      <trkpt lat="44.12131" lon="6.79001">
        <ele>948.79998779297</ele>
        <time>2020-09-05T10:51:10.000Z</time>
      </trkpt>
      <trkpt lat="44.12131" lon="6.79">
        <ele>948.79998779297</ele>
        <time>2020-09-05T10:51:24.000Z</time>
      </trkpt>
      <trkpt lat="44.12132" lon="6.79">
        <ele>948.59997558594</ele>
        <time>2020-09-05T10:51:33.000Z</time>
      </trkpt>
      <trkpt lat="44.12132" lon="6.79">
        <ele>948.59997558594</ele>
        <time>2020-09-05T10:51:42.000Z</time>
      </trkpt>
      <trkpt lat="44.1213" lon="6.79001">
        <ele>948.59997558594</ele>
        <time>2020-09-05T10:51:57.000Z</time>
      </trkpt>
      <trkpt lat="44.1213" lon="6.79001">
        <ele>948.59997558594</ele>
        <time>2020-09-05T10:52:08.000Z</time>
      </trkpt>
      <trkpt lat="44.12131" lon="6.79001">
        <ele>948.40002441406</ele>
        <time>2020-09-05T10:52:17.000Z</time>
      </trkpt>
      <trkpt lat="44.12132" lon="6.79001">
        <ele>948.40002441406</ele>
        <time>2020-09-05T10:52:30.000Z</time>
      </trkpt>
      <trkpt lat="44.12133" lon="6.79">
        <ele>948.59997558594</ele>
        <time>2020-09-05T10:52:47.000Z</time>
      </trkpt>
      <trkpt lat="44.12132" lon="6.79">
        <ele>948.59997558594</ele>
        <time>2020-09-05T10:53:02.000Z</time>
      </trkpt>
      <trkpt lat="44.12131" lon="6.79001">
        <ele>948.20001220703</ele>
        <time>2020-09-05T10:53:19.000Z</time>
      </trkpt>
      <trkpt lat="44.12131" lon="6.79001">
        <ele>948.40002441406</ele>
        <time>2020-09-05T10:53:33.000Z</time>
      </trkpt>
      <trkpt lat="44.1213" lon="6.79">
        <ele>948.59997558594</ele>
        <time>2020-09-05T10:53:53.000Z</time>
      </trkpt>
      <trkpt lat="44.1213" lon="6.79">
        <ele>948.59997558594</ele>
        <time>2020-09-05T10:54:09.000Z</time>
      </trkpt>
      <trkpt lat="44.12131" lon="6.79">
        <ele>948.59997558594</ele>
        <time>2020-09-05T10:54:24.000Z</time>
      </trkpt>
      <trkpt lat="44.12131" lon="6.79">
        <ele>948.40002441406</ele>
        <time>2020-09-05T10:54:41.000Z</time>
      </trkpt>
      <trkpt lat="44.12131" lon="6.79001">
        <ele>948.59997558594</ele>
        <time>2020-09-05T10:54:58.000Z</time>
      </trkpt>
      <trkpt lat="44.12131" lon="6.79002">
        <ele>948.59997558594</ele>
        <time>2020-09-05T10:55:13.000Z</time>
      </trkpt>
      <trkpt lat="44.12131" lon="6.79003">
        <ele>948.59997558594</ele>
        <time>2020-09-05T10:55:28.000Z</time>
      </trkpt>
      <trkpt lat="44.12131" lon="6.79003">
        <ele>948.59997558594</ele>
        <time>2020-09-05T10:55:41.000Z</time>
      </trkpt>
      <trkpt lat="44.1213" lon="6.79004">
        <ele>948.59997558594</ele>
        <time>2020-09-05T10:55:56.000Z</time>
      </trkpt>
      <trkpt lat="44.12129" lon="6.79004">
        <ele>948.59997558594</ele>
        <time>2020-09-05T10:56:12.000Z</time>
      </trkpt>
      <trkpt lat="44.12129" lon="6.79004">
        <ele>948.79998779297</ele>
        <time>2020-09-05T10:56:29.000Z</time>
      </trkpt>
      <trkpt lat="44.12128" lon="6.79004">
        <ele>948.59997558594</ele>
        <time>2020-09-05T10:56:49.000Z</time>
      </trkpt>
      <trkpt lat="44.12128" lon="6.79005">
        <ele>949</ele>
        <time>2020-09-05T10:57:02.000Z</time>
      </trkpt>
      <trkpt lat="44.12129" lon="6.79005">
        <ele>948.79998779297</ele>
        <time>2020-09-05T10:57:17.000Z</time>
      </trkpt>
      <trkpt lat="44.1213" lon="6.79005">
        <ele>948.79998779297</ele>
        <time>2020-09-05T10:57:35.000Z</time>
      </trkpt>
      <trkpt lat="44.1213" lon="6.79006">
        <ele>948.79998779297</ele>
        <time>2020-09-05T10:57:51.000Z</time>
      </trkpt>
      <trkpt lat="44.1213" lon="6.79006">
        <ele>948.79998779297</ele>
        <time>2020-09-05T10:58:07.000Z</time>
      </trkpt>
      <trkpt lat="44.1213" lon="6.79006">
        <ele>949</ele>
        <time>2020-09-05T10:58:29.000Z</time>
      </trkpt>
      <trkpt lat="44.1213" lon="6.79007">
        <ele>949</ele>
        <time>2020-09-05T10:58:47.000Z</time>
      </trkpt>
      <trkpt lat="44.1213" lon="6.79008">
        <ele>949</ele>
        <time>2020-09-05T10:59:06.000Z</time>
      </trkpt>
      <trkpt lat="44.12129" lon="6.79008">
        <ele>949.20001220703</ele>
        <time>2020-09-05T10:59:21.000Z</time>
      </trkpt>
      <trkpt lat="44.12129" lon="6.79008">
        <ele>949.20001220703</ele>
        <time>2020-09-05T10:59:40.000Z</time>
      </trkpt>
      <trkpt lat="44.12129" lon="6.79008">
        <ele>949.20001220703</ele>
        <time>2020-09-05T10:59:56.000Z</time>
      </trkpt>
      <trkpt lat="44.12129" lon="6.79007">
        <ele>949.40002441406</ele>
        <time>2020-09-05T11:00:15.000Z</time>
      </trkpt>
      <trkpt lat="44.12129" lon="6.79007">
        <ele>949.40002441406</ele>
        <time>2020-09-05T11:00:34.000Z</time>
      </trkpt>
      <trkpt lat="44.12129" lon="6.79007">
        <ele>949.40002441406</ele>
        <time>2020-09-05T11:00:49.000Z</time>
      </trkpt>
      <trkpt lat="44.1213" lon="6.79006">
        <ele>949.40002441406</ele>
        <time>2020-09-05T11:01:07.000Z</time>
      </trkpt>
      <trkpt lat="44.1213" lon="6.79004">
        <ele>949.59997558594</ele>
        <time>2020-09-05T11:01:12.000Z</time>
      </trkpt>
      <trkpt lat="44.1213" lon="6.79004">
        <ele>949.79998779297</ele>
        <time>2020-09-05T11:01:13.000Z</time>
      </trkpt>
      <trkpt lat="44.12132" lon="6.79003">
        <ele>950</ele>
        <time>2020-09-05T11:01:16.000Z</time>
      </trkpt>
      <trkpt lat="44.12133" lon="6.79003">
        <ele>950.20001220703</ele>
        <time>2020-09-05T11:01:18.000Z</time>
      </trkpt>
      <trkpt lat="44.12133" lon="6.79002">
        <ele>949.40002441406</ele>
        <time>2020-09-05T11:01:26.000Z</time>
      </trkpt>
      <trkpt lat="44.12132" lon="6.79001">
        <ele>949.40002441406</ele>
        <time>2020-09-05T11:01:36.000Z</time>
      </trkpt>
      <trkpt lat="44.12131" lon="6.78999">
        <ele>949.40002441406</ele>
        <time>2020-09-05T11:01:44.000Z</time>
      </trkpt>
      <trkpt lat="44.1213" lon="6.78999">
        <ele>950</ele>
        <time>2020-09-05T11:01:49.000Z</time>
      </trkpt>
      <trkpt lat="44.1213" lon="6.78997">
        <ele>950.40002441406</ele>
        <time>2020-09-05T11:01:53.000Z</time>
      </trkpt>
      <trkpt lat="44.1213" lon="6.78997">
        <ele>950.79998779297</ele>
        <time>2020-09-05T11:02:02.000Z</time>
      </trkpt>
      <trkpt lat="44.1213" lon="6.78997">
        <ele>950.79998779297</ele>
        <time>2020-09-05T11:02:03.000Z</time>
      </trkpt>
      <trkpt lat="44.1213" lon="6.78998">
        <ele>950.59997558594</ele>
        <time>2020-09-05T11:02:16.000Z</time>
      </trkpt>
      <trkpt lat="44.1213" lon="6.78999">
        <ele>950.79998779297</ele>
        <time>2020-09-05T11:02:25.000Z</time>
      </trkpt>
      <trkpt lat="44.12128" lon="6.78998">
        <ele>950.79998779297</ele>
        <time>2020-09-05T11:02:38.000Z</time>
      </trkpt>
      <trkpt lat="44.1213" lon="6.78997">
        <ele>951.20001220703</ele>
        <time>2020-09-05T11:02:44.000Z</time>
      </trkpt>
      <trkpt lat="44.12127" lon="6.78994">
        <ele>951.20001220703</ele>
        <time>2020-09-05T11:02:50.000Z</time>
      </trkpt>
      <trkpt lat="44.12125" lon="6.7899">
        <ele>951.40002441406</ele>
        <time>2020-09-05T11:02:55.000Z</time>
      </trkpt>
      <trkpt lat="44.12128" lon="6.78986">
        <ele>951.79998779297</ele>
        <time>2020-09-05T11:03:02.000Z</time>
      </trkpt>
      <trkpt lat="44.12129" lon="6.78987">
        <ele>952.59997558594</ele>
        <time>2020-09-05T11:03:07.000Z</time>
      </trkpt>
      <trkpt lat="44.12131" lon="6.78986">
        <ele>952.59997558594</ele>
        <time>2020-09-05T11:03:13.000Z</time>
      </trkpt>
      <trkpt lat="44.12132" lon="6.78985">
        <ele>952.59997558594</ele>
        <time>2020-09-05T11:03:22.000Z</time>
      </trkpt>
      <trkpt lat="44.12131" lon="6.78985">
        <ele>952.40002441406</ele>
        <time>2020-09-05T11:03:30.000Z</time>
      </trkpt>
      <trkpt lat="44.12131" lon="6.78984">
        <ele>952</ele>
        <time>2020-09-05T11:03:37.000Z</time>
      </trkpt>
      <trkpt lat="44.12131" lon="6.78984">
        <ele>952.40002441406</ele>
        <time>2020-09-05T11:03:47.000Z</time>
      </trkpt>
      <trkpt lat="44.1213" lon="6.78985">
        <ele>952.40002441406</ele>
        <time>2020-09-05T11:03:58.000Z</time>
      </trkpt>
      <trkpt lat="44.12132" lon="6.78985">
        <ele>952.59997558594</ele>
        <time>2020-09-05T11:04:06.000Z</time>
      </trkpt>
      <trkpt lat="44.12131" lon="6.78985">
        <ele>952.59997558594</ele>
        <time>2020-09-05T11:04:16.000Z</time>
      </trkpt>
      <trkpt lat="44.1213" lon="6.78984">
        <ele>952.40002441406</ele>
        <time>2020-09-05T11:04:21.000Z</time>
      </trkpt>
      <trkpt lat="44.12132" lon="6.78984">
        <ele>952.59997558594</ele>
        <time>2020-09-05T11:04:26.000Z</time>
      </trkpt>
      <trkpt lat="44.12132" lon="6.78983">
        <ele>952.59997558594</ele>
        <time>2020-09-05T11:04:38.000Z</time>
      </trkpt>
      <trkpt lat="44.12132" lon="6.78983">
        <ele>952.79998779297</ele>
        <time>2020-09-05T11:04:51.000Z</time>
      </trkpt>
      <trkpt lat="44.12131" lon="6.78983">
        <ele>952.79998779297</ele>
        <time>2020-09-05T11:04:55.000Z</time>
      </trkpt>
      <trkpt lat="44.12131" lon="6.78983">
        <ele>952.79998779297</ele>
        <time>2020-09-05T11:04:57.000Z</time>
      </trkpt>
      <trkpt lat="44.12133" lon="6.78983">
        <ele>953</ele>
        <time>2020-09-05T11:05:04.000Z</time>
      </trkpt>
      <trkpt lat="44.12134" lon="6.7898">
        <ele>952.79998779297</ele>
        <time>2020-09-05T11:05:11.000Z</time>
      </trkpt>
      <trkpt lat="44.12134" lon="6.7898">
        <ele>952.79998779297</ele>
        <time>2020-09-05T11:05:24.000Z</time>
      </trkpt>
      <trkpt lat="44.12134" lon="6.7898">
        <ele>953.20001220703</ele>
        <time>2020-09-05T11:05:33.000Z</time>
      </trkpt>
      <trkpt lat="44.12134" lon="6.78979">
        <ele>953</ele>
        <time>2020-09-05T11:05:50.000Z</time>
      </trkpt>
      <trkpt lat="44.12134" lon="6.78979">
        <ele>953.40002441406</ele>
        <time>2020-09-05T11:06:06.000Z</time>
      </trkpt>
      <trkpt lat="44.12133" lon="6.78979">
        <ele>953</ele>
        <time>2020-09-05T11:06:12.000Z</time>
      </trkpt>
      <trkpt lat="44.12133" lon="6.78979">
        <ele>953.20001220703</ele>
        <time>2020-09-05T11:06:22.000Z</time>
      </trkpt>
      <trkpt lat="44.12133" lon="6.78981">
        <ele>953</ele>
        <time>2020-09-05T11:06:31.000Z</time>
      </trkpt>
      <trkpt lat="44.12133" lon="6.7898">
        <ele>953.20001220703</ele>
        <time>2020-09-05T11:06:44.000Z</time>
      </trkpt>
      <trkpt lat="44.12134" lon="6.7898">
        <ele>953.40002441406</ele>
        <time>2020-09-05T11:06:50.000Z</time>
      </trkpt>
      <trkpt lat="44.12135" lon="6.78979">
        <ele>953.40002441406</ele>
        <time>2020-09-05T11:07:06.000Z</time>
      </trkpt>
      <trkpt lat="44.12135" lon="6.78979">
        <ele>953.40002441406</ele>
        <time>2020-09-05T11:07:18.000Z</time>
      </trkpt>
      <trkpt lat="44.12134" lon="6.7898">
        <ele>953.20001220703</ele>
        <time>2020-09-05T11:07:29.000Z</time>
      </trkpt>
      <trkpt lat="44.12135" lon="6.7898">
        <ele>953</ele>
        <time>2020-09-05T11:07:41.000Z</time>
      </trkpt>
      <trkpt lat="44.12141" lon="6.78977">
        <ele>953.59997558594</ele>
        <time>2020-09-05T11:07:47.000Z</time>
      </trkpt>
      <trkpt lat="44.12144" lon="6.78975">
        <ele>953.79998779297</ele>
        <time>2020-09-05T11:07:50.000Z</time>
      </trkpt>
      <trkpt lat="44.12145" lon="6.78974">
        <ele>954</ele>
        <time>2020-09-05T11:07:51.000Z</time>
      </trkpt>
      <trkpt lat="44.12146" lon="6.78974">
        <ele>954</ele>
        <time>2020-09-05T11:07:52.000Z</time>
      </trkpt>
      <trkpt lat="44.12148" lon="6.78974">
        <ele>954.20001220703</ele>
        <time>2020-09-05T11:07:53.000Z</time>
      </trkpt>
      <trkpt lat="44.12162" lon="6.78975">
        <ele>953.59997558594</ele>
        <time>2020-09-05T11:07:59.000Z</time>
      </trkpt>
      <trkpt lat="44.1217" lon="6.78977">
        <ele>953</ele>
        <time>2020-09-05T11:08:02.000Z</time>
      </trkpt>
      <trkpt lat="44.12173" lon="6.78982">
        <ele>952.40002441406</ele>
        <time>2020-09-05T11:08:04.000Z</time>
      </trkpt>
      <trkpt lat="44.12173" lon="6.78985">
        <ele>952.40002441406</ele>
        <time>2020-09-05T11:08:05.000Z</time>
      </trkpt>
      <trkpt lat="44.12179" lon="6.79017">
        <ele>952</ele>
        <time>2020-09-05T11:08:13.000Z</time>
      </trkpt>
      <trkpt lat="44.12181" lon="6.79027">
        <ele>952</ele>
        <time>2020-09-05T11:08:15.000Z</time>
      </trkpt>
      <trkpt lat="44.1219" lon="6.79041">
        <ele>951.40002441406</ele>
        <time>2020-09-05T11:08:19.000Z</time>
      </trkpt>
      <trkpt lat="44.12206" lon="6.79057">
        <ele>951</ele>
        <time>2020-09-05T11:08:25.000Z</time>
      </trkpt>
      <trkpt lat="44.12213" lon="6.79064">
        <ele>951</ele>
        <time>2020-09-05T11:08:31.000Z</time>
      </trkpt>
      <trkpt lat="44.12213" lon="6.79065">
        <ele>950.79998779297</ele>
        <time>2020-09-05T11:08:33.000Z</time>
      </trkpt>
      <trkpt lat="44.12213" lon="6.79064">
        <ele>950.40002441406</ele>
        <time>2020-09-05T11:08:37.000Z</time>
      </trkpt>
      <trkpt lat="44.12212" lon="6.79063">
        <ele>950.40002441406</ele>
        <time>2020-09-05T11:08:39.000Z</time>
      </trkpt>
      <trkpt lat="44.1221" lon="6.79061">
        <ele>950.40002441406</ele>
        <time>2020-09-05T11:08:42.000Z</time>
      </trkpt>
      <trkpt lat="44.12211" lon="6.7906">
        <ele>950.40002441406</ele>
        <time>2020-09-05T11:08:47.000Z</time>
      </trkpt>
      <trkpt lat="44.1221" lon="6.79061">
        <ele>950.40002441406</ele>
        <time>2020-09-05T11:09:00.000Z</time>
      </trkpt>
      <trkpt lat="44.12209" lon="6.79064">
        <ele>950.20001220703</ele>
        <time>2020-09-05T11:09:14.000Z</time>
      </trkpt>
      <trkpt lat="44.12209" lon="6.79064">
        <ele>950.40002441406</ele>
        <time>2020-09-05T11:09:20.000Z</time>
      </trkpt>
      <trkpt lat="44.12213" lon="6.79068">
        <ele>950.79998779297</ele>
        <time>2020-09-05T11:09:26.000Z</time>
      </trkpt>
      <trkpt lat="44.1222" lon="6.79079">
        <ele>951</ele>
        <time>2020-09-05T11:09:31.000Z</time>
      </trkpt>
      <trkpt lat="44.12219" lon="6.79095">
        <ele>951.20001220703</ele>
        <time>2020-09-05T11:09:36.000Z</time>
      </trkpt>
      <trkpt lat="44.12207" lon="6.79112">
        <ele>951.40002441406</ele>
        <time>2020-09-05T11:09:42.000Z</time>
      </trkpt>
      <trkpt lat="44.12199" lon="6.79122">
        <ele>952</ele>
        <time>2020-09-05T11:09:46.000Z</time>
      </trkpt>
      <trkpt lat="44.12195" lon="6.79127">
        <ele>952.40002441406</ele>
        <time>2020-09-05T11:09:48.000Z</time>
      </trkpt>
      <trkpt lat="44.12187" lon="6.79139">
        <ele>953</ele>
        <time>2020-09-05T11:09:53.000Z</time>
      </trkpt>
      <trkpt lat="44.1218" lon="6.79149">
        <ele>953.59997558594</ele>
        <time>2020-09-05T11:09:57.000Z</time>
      </trkpt>
      <trkpt lat="44.12176" lon="6.79158">
        <ele>954</ele>
        <time>2020-09-05T11:10:00.000Z</time>
      </trkpt>
      <trkpt lat="44.12172" lon="6.79174">
        <ele>955.20001220703</ele>
        <time>2020-09-05T11:10:05.000Z</time>
      </trkpt>
      <trkpt lat="44.12171" lon="6.79194">
        <ele>956.20001220703</ele>
        <time>2020-09-05T11:10:11.000Z</time>
      </trkpt>
      <trkpt lat="44.12172" lon="6.79204">
        <ele>956.59997558594</ele>
        <time>2020-09-05T11:10:14.000Z</time>
      </trkpt>
      <trkpt lat="44.12173" lon="6.79221">
        <ele>957.20001220703</ele>
        <time>2020-09-05T11:10:19.000Z</time>
      </trkpt>
      <trkpt lat="44.12175" lon="6.79231">
        <ele>957.79998779297</ele>
        <time>2020-09-05T11:10:22.000Z</time>
      </trkpt>
      <trkpt lat="44.12178" lon="6.7924">
        <ele>958.40002441406</ele>
        <time>2020-09-05T11:10:25.000Z</time>
      </trkpt>
      <trkpt lat="44.12185" lon="6.79256">
        <ele>959</ele>
        <time>2020-09-05T11:10:30.000Z</time>
      </trkpt>
      <trkpt lat="44.12185" lon="6.79276">
        <ele>959.40002441406</ele>
        <time>2020-09-05T11:10:35.000Z</time>
      </trkpt>
      <trkpt lat="44.12177" lon="6.79295">
        <ele>960.20001220703</ele>
        <time>2020-09-05T11:10:41.000Z</time>
      </trkpt>
      <trkpt lat="44.12175" lon="6.79298">
        <ele>960.40002441406</ele>
        <time>2020-09-05T11:10:42.000Z</time>
      </trkpt>
      <trkpt lat="44.12162" lon="6.79313">
        <ele>961.40002441406</ele>
        <time>2020-09-05T11:10:48.000Z</time>
      </trkpt>
      <trkpt lat="44.1215" lon="6.79329">
        <ele>962.20001220703</ele>
        <time>2020-09-05T11:10:54.000Z</time>
      </trkpt>
      <trkpt lat="44.12147" lon="6.79334">
        <ele>962.59997558594</ele>
        <time>2020-09-05T11:10:56.000Z</time>
      </trkpt>
      <trkpt lat="44.12141" lon="6.79346">
        <ele>963</ele>
        <time>2020-09-05T11:11:00.000Z</time>
      </trkpt>
      <trkpt lat="44.12134" lon="6.79362">
        <ele>963.59997558594</ele>
        <time>2020-09-05T11:11:05.000Z</time>
      </trkpt>
      <trkpt lat="44.12129" lon="6.79372">
        <ele>964</ele>
        <time>2020-09-05T11:11:08.000Z</time>
      </trkpt>
      <trkpt lat="44.12112" lon="6.79404">
        <ele>964.59997558594</ele>
        <time>2020-09-05T11:11:17.000Z</time>
      </trkpt>
      <trkpt lat="44.12096" lon="6.79432">
        <ele>964.40002441406</ele>
        <time>2020-09-05T11:11:24.000Z</time>
      </trkpt>
      <trkpt lat="44.12075" lon="6.79469">
        <ele>964.20001220703</ele>
        <time>2020-09-05T11:11:34.000Z</time>
      </trkpt>
      <trkpt lat="44.12056" lon="6.79503">
        <ele>963.79998779297</ele>
        <time>2020-09-05T11:11:43.000Z</time>
      </trkpt>
      <trkpt lat="44.12053" lon="6.79516">
        <ele>963.59997558594</ele>
        <time>2020-09-05T11:11:48.000Z</time>
      </trkpt>
      <trkpt lat="44.12049" lon="6.79533">
        <ele>963.59997558594</ele>
        <time>2020-09-05T11:11:54.000Z</time>
      </trkpt>
      <trkpt lat="44.12044" lon="6.79562">
        <ele>964.40002441406</ele>
        <time>2020-09-05T11:12:03.000Z</time>
      </trkpt>
      <trkpt lat="44.12041" lon="6.79571">
        <ele>964.79998779297</ele>
        <time>2020-09-05T11:12:06.000Z</time>
      </trkpt>
      <trkpt lat="44.12037" lon="6.79585">
        <ele>965.20001220703</ele>
        <time>2020-09-05T11:12:12.000Z</time>
      </trkpt>
      <trkpt lat="44.12038" lon="6.79586">
        <ele>965.20001220703</ele>
        <time>2020-09-05T11:12:16.000Z</time>
      </trkpt>
      <trkpt lat="44.12038" lon="6.79583">
        <ele>964.20001220703</ele>
        <time>2020-09-05T11:12:22.000Z</time>
      </trkpt>
      <trkpt lat="44.12038" lon="6.79582">
        <ele>964.20001220703</ele>
        <time>2020-09-05T11:12:31.000Z</time>
      </trkpt>
      <trkpt lat="44.12039" lon="6.79581">
        <ele>963.59997558594</ele>
        <time>2020-09-05T11:12:41.000Z</time>
      </trkpt>
      <trkpt lat="44.12041" lon="6.79582">
        <ele>964.20001220703</ele>
        <time>2020-09-05T11:12:55.000Z</time>
      </trkpt>
      <trkpt lat="44.12043" lon="6.79582">
        <ele>964.20001220703</ele>
        <time>2020-09-05T11:13:12.000Z</time>
      </trkpt>
      <trkpt lat="44.12042" lon="6.79583">
        <ele>964</ele>
        <time>2020-09-05T11:13:22.000Z</time>
      </trkpt>
      <trkpt lat="44.12042" lon="6.79583">
        <ele>964</ele>
        <time>2020-09-05T11:13:29.000Z</time>
      </trkpt>
      <trkpt lat="44.12043" lon="6.79584">
        <ele>963.59997558594</ele>
        <time>2020-09-05T11:13:38.000Z</time>
      </trkpt>
      <trkpt lat="44.12044" lon="6.79584">
        <ele>964.59997558594</ele>
        <time>2020-09-05T11:13:43.000Z</time>
      </trkpt>
      <trkpt lat="44.12044" lon="6.79583">
        <ele>964.40002441406</ele>
        <time>2020-09-05T11:13:45.000Z</time>
      </trkpt>
      <trkpt lat="44.12045" lon="6.79584">
        <ele>964.40002441406</ele>
        <time>2020-09-05T11:13:49.000Z</time>
      </trkpt>
      <trkpt lat="44.12046" lon="6.79585">
        <ele>964.79998779297</ele>
        <time>2020-09-05T11:13:59.000Z</time>
      </trkpt>
      <trkpt lat="44.12045" lon="6.79586">
        <ele>964.79998779297</ele>
        <time>2020-09-05T11:14:08.000Z</time>
      </trkpt>
      <trkpt lat="44.12045" lon="6.79586">
        <ele>965.20001220703</ele>
        <time>2020-09-05T11:14:13.000Z</time>
      </trkpt>
      <trkpt lat="44.12045" lon="6.79587">
        <ele>965.20001220703</ele>
        <time>2020-09-05T11:14:26.000Z</time>
      </trkpt>
      <trkpt lat="44.12044" lon="6.79587">
        <ele>965.20001220703</ele>
        <time>2020-09-05T11:14:54.000Z</time>
      </trkpt>
      <trkpt lat="44.12044" lon="6.79589">
        <ele>965</ele>
        <time>2020-09-05T11:15:11.000Z</time>
      </trkpt>
      <trkpt lat="44.12043" lon="6.79594">
        <ele>965.20001220703</ele>
        <time>2020-09-05T11:15:14.000Z</time>
      </trkpt>
      <trkpt lat="44.1204" lon="6.79602">
        <ele>965.59997558594</ele>
        <time>2020-09-05T11:15:17.000Z</time>
      </trkpt>
      <trkpt lat="44.12038" lon="6.79608">
        <ele>965.59997558594</ele>
        <time>2020-09-05T11:15:19.000Z</time>
      </trkpt>
      <trkpt lat="44.12039" lon="6.79618">
        <ele>966</ele>
        <time>2020-09-05T11:15:22.000Z</time>
      </trkpt>
      <trkpt lat="44.12041" lon="6.79625">
        <ele>966.40002441406</ele>
        <time>2020-09-05T11:15:25.000Z</time>
      </trkpt>
      <trkpt lat="44.12042" lon="6.79627">
        <ele>966.79998779297</ele>
        <time>2020-09-05T11:15:27.000Z</time>
      </trkpt>
      <trkpt lat="44.12041" lon="6.79631">
        <ele>967</ele>
        <time>2020-09-05T11:15:29.000Z</time>
      </trkpt>
      <trkpt lat="44.12038" lon="6.79642">
        <ele>967.40002441406</ele>
        <time>2020-09-05T11:15:34.000Z</time>
      </trkpt>
      <trkpt lat="44.12032" lon="6.79666">
        <ele>967.79998779297</ele>
        <time>2020-09-05T11:15:42.000Z</time>
      </trkpt>
      <trkpt lat="44.12031" lon="6.79672">
        <ele>967.79998779297</ele>
        <time>2020-09-05T11:15:44.000Z</time>
      </trkpt>
      <trkpt lat="44.12026" lon="6.79694">
        <ele>968</ele>
        <time>2020-09-05T11:15:51.000Z</time>
      </trkpt>
      <trkpt lat="44.12025" lon="6.79718">
        <ele>968.20001220703</ele>
        <time>2020-09-05T11:15:58.000Z</time>
      </trkpt>
      <trkpt lat="44.12028" lon="6.79734">
        <ele>968.59997558594</ele>
        <time>2020-09-05T11:16:04.000Z</time>
      </trkpt>
      <trkpt lat="44.1203" lon="6.79737">
        <ele>968.79998779297</ele>
        <time>2020-09-05T11:16:06.000Z</time>
      </trkpt>
      <trkpt lat="44.12033" lon="6.79738">
        <ele>969</ele>
        <time>2020-09-05T11:16:09.000Z</time>
      </trkpt>
      <trkpt lat="44.12035" lon="6.79736">
        <ele>969</ele>
        <time>2020-09-05T11:16:13.000Z</time>
      </trkpt>
      <trkpt lat="44.12032" lon="6.79735">
        <ele>969.20001220703</ele>
        <time>2020-09-05T11:16:15.000Z</time>
      </trkpt>
      <trkpt lat="44.12029" lon="6.79737">
        <ele>969.20001220703</ele>
        <time>2020-09-05T11:16:17.000Z</time>
      </trkpt>
      <trkpt lat="44.12028" lon="6.79747">
        <ele>969.20001220703</ele>
        <time>2020-09-05T11:16:20.000Z</time>
      </trkpt>
      <trkpt lat="44.12028" lon="6.79751">
        <ele>969</ele>
        <time>2020-09-05T11:16:21.000Z</time>
      </trkpt>
      <trkpt lat="44.12024" lon="6.79767">
        <ele>968.79998779297</ele>
        <time>2020-09-05T11:16:26.000Z</time>
      </trkpt>
      <trkpt lat="44.12024" lon="6.79771">
        <ele>968.79998779297</ele>
        <time>2020-09-05T11:16:27.000Z</time>
      </trkpt>
      <trkpt lat="44.12028" lon="6.79772">
        <ele>968.59997558594</ele>
        <time>2020-09-05T11:16:29.000Z</time>
      </trkpt>
      <trkpt lat="44.12028" lon="6.79761">
        <ele>968.40002441406</ele>
        <time>2020-09-05T11:16:32.000Z</time>
      </trkpt>
      <trkpt lat="44.12028" lon="6.79741">
        <ele>968.79998779297</ele>
        <time>2020-09-05T11:16:37.000Z</time>
      </trkpt>
      <trkpt lat="44.1203" lon="6.7974">
        <ele>968.79998779297</ele>
        <time>2020-09-05T11:16:38.000Z</time>
      </trkpt>
      <trkpt lat="44.12039" lon="6.79747">
        <ele>969</ele>
        <time>2020-09-05T11:16:42.000Z</time>
      </trkpt>
      <trkpt lat="44.1205" lon="6.7976">
        <ele>969.79998779297</ele>
        <time>2020-09-05T11:16:48.000Z</time>
      </trkpt>
      <trkpt lat="44.12059" lon="6.79774">
        <ele>971</ele>
        <time>2020-09-05T11:16:54.000Z</time>
      </trkpt>
      <trkpt lat="44.1206" lon="6.79776">
        <ele>971.20001220703</ele>
        <time>2020-09-05T11:16:55.000Z</time>
      </trkpt>
      <trkpt lat="44.12061" lon="6.79784">
        <ele>972</ele>
        <time>2020-09-05T11:17:00.000Z</time>
      </trkpt>
      <trkpt lat="44.12061" lon="6.79785">
        <ele>972.20001220703</ele>
        <time>2020-09-05T11:17:01.000Z</time>
      </trkpt>
      <trkpt lat="44.1206" lon="6.79788">
        <ele>972.79998779297</ele>
        <time>2020-09-05T11:17:05.000Z</time>
      </trkpt>
      <trkpt lat="44.1206" lon="6.7979">
        <ele>973</ele>
        <time>2020-09-05T11:17:06.000Z</time>
      </trkpt>
      <trkpt lat="44.12059" lon="6.79792">
        <ele>973.20001220703</ele>
        <time>2020-09-05T11:17:07.000Z</time>
      </trkpt>
      <trkpt lat="44.12057" lon="6.798">
        <ele>973.59997558594</ele>
        <time>2020-09-05T11:17:12.000Z</time>
      </trkpt>
      <trkpt lat="44.12055" lon="6.79807">
        <ele>974.20001220703</ele>
        <time>2020-09-05T11:17:16.000Z</time>
      </trkpt>
      <trkpt lat="44.12053" lon="6.79814">
        <ele>974.59997558594</ele>
        <time>2020-09-05T11:17:20.000Z</time>
      </trkpt>
      <trkpt lat="44.1205" lon="6.79827">
        <ele>975</ele>
        <time>2020-09-05T11:17:27.000Z</time>
      </trkpt>
      <trkpt lat="44.12048" lon="6.79831">
        <ele>975.40002441406</ele>
        <time>2020-09-05T11:17:30.000Z</time>
      </trkpt>
      <trkpt lat="44.12048" lon="6.79833">
        <ele>975.79998779297</ele>
        <time>2020-09-05T11:17:32.000Z</time>
      </trkpt>
      <trkpt lat="44.12046" lon="6.79845">
        <ele>976.40002441406</ele>
        <time>2020-09-05T11:17:37.000Z</time>
      </trkpt>
      <trkpt lat="44.12046" lon="6.79846">
        <ele>976.59997558594</ele>
        <time>2020-09-05T11:17:38.000Z</time>
      </trkpt>
      <trkpt lat="44.12046" lon="6.79849">
        <ele>977.20001220703</ele>
        <time>2020-09-05T11:17:42.000Z</time>
      </trkpt>
      <trkpt lat="44.12047" lon="6.79849">
        <ele>977.20001220703</ele>
        <time>2020-09-05T11:17:43.000Z</time>
      </trkpt>
      <trkpt lat="44.12048" lon="6.79843">
        <ele>977.20001220703</ele>
        <time>2020-09-05T11:17:47.000Z</time>
      </trkpt>
      <trkpt lat="44.12049" lon="6.79843">
        <ele>976.59997558594</ele>
        <time>2020-09-05T11:17:53.000Z</time>
      </trkpt>
      <trkpt lat="44.12049" lon="6.79842">
        <ele>976.59997558594</ele>
        <time>2020-09-05T11:17:55.000Z</time>
      </trkpt>
      <trkpt lat="44.12047" lon="6.79843">
        <ele>976.59997558594</ele>
        <time>2020-09-05T11:17:57.000Z</time>
      </trkpt>
      <trkpt lat="44.12047" lon="6.79844">
        <ele>976.40002441406</ele>
        <time>2020-09-05T11:17:58.000Z</time>
      </trkpt>
      <trkpt lat="44.12046" lon="6.79846">
        <ele>976.40002441406</ele>
        <time>2020-09-05T11:17:59.000Z</time>
      </trkpt>
      <trkpt lat="44.12045" lon="6.79857">
        <ele>976.59997558594</ele>
        <time>2020-09-05T11:18:03.000Z</time>
      </trkpt>
      <trkpt lat="44.12042" lon="6.79871">
        <ele>977.79998779297</ele>
        <time>2020-09-05T11:18:07.000Z</time>
      </trkpt>
      <trkpt lat="44.12042" lon="6.79883">
        <ele>978.59997558594</ele>
        <time>2020-09-05T11:18:11.000Z</time>
      </trkpt>
      <trkpt lat="44.12043" lon="6.79894">
        <ele>978.79998779297</ele>
        <time>2020-09-05T11:18:14.000Z</time>
      </trkpt>
      <trkpt lat="44.12046" lon="6.79912">
        <ele>979.40002441406</ele>
        <time>2020-09-05T11:18:19.000Z</time>
      </trkpt>
      <trkpt lat="44.12048" lon="6.79922">
        <ele>980</ele>
        <time>2020-09-05T11:18:22.000Z</time>
      </trkpt>
      <trkpt lat="44.12053" lon="6.79939">
        <ele>981.20001220703</ele>
        <time>2020-09-05T11:18:27.000Z</time>
      </trkpt>
      <trkpt lat="44.12056" lon="6.79949">
        <ele>981.79998779297</ele>
        <time>2020-09-05T11:18:30.000Z</time>
      </trkpt>
      <trkpt lat="44.12061" lon="6.79961">
        <ele>982.20001220703</ele>
        <time>2020-09-05T11:18:34.000Z</time>
      </trkpt>
      <trkpt lat="44.12067" lon="6.79972">
        <ele>983</ele>
        <time>2020-09-05T11:18:38.000Z</time>
      </trkpt>
      <trkpt lat="44.1207" lon="6.79977">
        <ele>983.40002441406</ele>
        <time>2020-09-05T11:18:40.000Z</time>
      </trkpt>
      <trkpt lat="44.12077" lon="6.79991">
        <ele>984.59997558594</ele>
        <time>2020-09-05T11:18:45.000Z</time>
      </trkpt>
      <trkpt lat="44.12083" lon="6.80002">
        <ele>985.20001220703</ele>
        <time>2020-09-05T11:18:49.000Z</time>
      </trkpt>
      <trkpt lat="44.12085" lon="6.80007">
        <ele>985.79998779297</ele>
        <time>2020-09-05T11:18:51.000Z</time>
      </trkpt>
      <trkpt lat="44.12094" lon="6.80016">
        <ele>986.79998779297</ele>
        <time>2020-09-05T11:18:56.000Z</time>
      </trkpt>
      <trkpt lat="44.12097" lon="6.80016">
        <ele>987</ele>
        <time>2020-09-05T11:18:57.000Z</time>
      </trkpt>
      <trkpt lat="44.12101" lon="6.80008">
        <ele>987.79998779297</ele>
        <time>2020-09-05T11:19:00.000Z</time>
      </trkpt>
      <trkpt lat="44.12102" lon="6.79996">
        <ele>989</ele>
        <time>2020-09-05T11:19:04.000Z</time>
      </trkpt>
      <trkpt lat="44.121" lon="6.79989">
        <ele>989.40002441406</ele>
        <time>2020-09-05T11:19:06.000Z</time>
      </trkpt>
      <trkpt lat="44.12098" lon="6.79984">
        <ele>990</ele>
        <time>2020-09-05T11:19:08.000Z</time>
      </trkpt>
      <trkpt lat="44.12097" lon="6.79981">
        <ele>990</ele>
        <time>2020-09-05T11:19:09.000Z</time>
      </trkpt>
      <trkpt lat="44.12091" lon="6.79969">
        <ele>991.20001220703</ele>
        <time>2020-09-05T11:19:14.000Z</time>
      </trkpt>
      <trkpt lat="44.12088" lon="6.79955">
        <ele>992.20001220703</ele>
        <time>2020-09-05T11:19:19.000Z</time>
      </trkpt>
      <trkpt lat="44.12088" lon="6.79947">
        <ele>993</ele>
        <time>2020-09-05T11:19:22.000Z</time>
      </trkpt>
      <trkpt lat="44.12088" lon="6.79941">
        <ele>993.20001220703</ele>
        <time>2020-09-05T11:19:24.000Z</time>
      </trkpt>
      <trkpt lat="44.1209" lon="6.79921">
        <ele>994.40002441406</ele>
        <time>2020-09-05T11:19:31.000Z</time>
      </trkpt>
      <trkpt lat="44.12097" lon="6.7991">
        <ele>995.40002441406</ele>
        <time>2020-09-05T11:19:36.000Z</time>
      </trkpt>
      <trkpt lat="44.121" lon="6.79906">
        <ele>995.79998779297</ele>
        <time>2020-09-05T11:19:38.000Z</time>
      </trkpt>
      <trkpt lat="44.12105" lon="6.79904">
        <ele>996.40002441406</ele>
        <time>2020-09-05T11:19:41.000Z</time>
      </trkpt>
      <trkpt lat="44.12109" lon="6.79905">
        <ele>997</ele>
        <time>2020-09-05T11:19:43.000Z</time>
      </trkpt>
      <trkpt lat="44.12113" lon="6.79911">
        <ele>997.59997558594</ele>
        <time>2020-09-05T11:19:46.000Z</time>
      </trkpt>
      <trkpt lat="44.12117" lon="6.79917">
        <ele>998.20001220703</ele>
        <time>2020-09-05T11:19:49.000Z</time>
      </trkpt>
      <trkpt lat="44.1212" lon="6.79921">
        <ele>998.79998779297</ele>
        <time>2020-09-05T11:19:51.000Z</time>
      </trkpt>
      <trkpt lat="44.12128" lon="6.79928">
        <ele>1000</ele>
        <time>2020-09-05T11:19:56.000Z</time>
      </trkpt>
      <trkpt lat="44.12139" lon="6.79925">
        <ele>1000.799987793</ele>
        <time>2020-09-05T11:20:02.000Z</time>
      </trkpt>
      <trkpt lat="44.1214" lon="6.79924">
        <ele>1001</ele>
        <time>2020-09-05T11:20:03.000Z</time>
      </trkpt>
      <trkpt lat="44.12149" lon="6.79919">
        <ele>1002</ele>
        <time>2020-09-05T11:20:08.000Z</time>
      </trkpt>
      <trkpt lat="44.12159" lon="6.79918">
        <ele>1003.200012207</ele>
        <time>2020-09-05T11:20:13.000Z</time>
      </trkpt>
      <trkpt lat="44.12163" lon="6.79918">
        <ele>1003.5999755859</ele>
        <time>2020-09-05T11:20:15.000Z</time>
      </trkpt>
      <trkpt lat="44.12172" lon="6.79918">
        <ele>1004.4000244141</ele>
        <time>2020-09-05T11:20:19.000Z</time>
      </trkpt>
      <trkpt lat="44.12175" lon="6.7992">
        <ele>1004.799987793</ele>
        <time>2020-09-05T11:20:21.000Z</time>
      </trkpt>
      <trkpt lat="44.1218" lon="6.79925">
        <ele>1005.4000244141</ele>
        <time>2020-09-05T11:20:24.000Z</time>
      </trkpt>
      <trkpt lat="44.12184" lon="6.79932">
        <ele>1006.5999755859</ele>
        <time>2020-09-05T11:20:27.000Z</time>
      </trkpt>
      <trkpt lat="44.12185" lon="6.79934">
        <ele>1006.799987793</ele>
        <time>2020-09-05T11:20:28.000Z</time>
      </trkpt>
      <trkpt lat="44.1219" lon="6.79941">
        <ele>1007.5999755859</ele>
        <time>2020-09-05T11:20:31.000Z</time>
      </trkpt>
      <trkpt lat="44.12194" lon="6.79947">
        <ele>1008.200012207</ele>
        <time>2020-09-05T11:20:34.000Z</time>
      </trkpt>
      <trkpt lat="44.12199" lon="6.79952">
        <ele>1008.799987793</ele>
        <time>2020-09-05T11:20:37.000Z</time>
      </trkpt>
      <trkpt lat="44.12204" lon="6.79956">
        <ele>1009.5999755859</ele>
        <time>2020-09-05T11:20:40.000Z</time>
      </trkpt>
      <trkpt lat="44.12208" lon="6.79957">
        <ele>1010</ele>
        <time>2020-09-05T11:20:42.000Z</time>
      </trkpt>
      <trkpt lat="44.12218" lon="6.79957">
        <ele>1011</ele>
        <time>2020-09-05T11:20:47.000Z</time>
      </trkpt>
      <trkpt lat="44.12234" lon="6.79962">
        <ele>1012.200012207</ele>
        <time>2020-09-05T11:20:54.000Z</time>
      </trkpt>
      <trkpt lat="44.12247" lon="6.79973">
        <ele>1013.4000244141</ele>
        <time>2020-09-05T11:21:01.000Z</time>
      </trkpt>
      <trkpt lat="44.12249" lon="6.79976">
        <ele>1013.5999755859</ele>
        <time>2020-09-05T11:21:02.000Z</time>
      </trkpt>
      <trkpt lat="44.12253" lon="6.79987">
        <ele>1014.5999755859</ele>
        <time>2020-09-05T11:21:06.000Z</time>
      </trkpt>
      <trkpt lat="44.12257" lon="6.80002">
        <ele>1015.5999755859</ele>
        <time>2020-09-05T11:21:11.000Z</time>
      </trkpt>
      <trkpt lat="44.12256" lon="6.80017">
        <ele>1016.5999755859</ele>
        <time>2020-09-05T11:21:16.000Z</time>
      </trkpt>
      <trkpt lat="44.12256" lon="6.8002">
        <ele>1016.799987793</ele>
        <time>2020-09-05T11:21:17.000Z</time>
      </trkpt>
      <trkpt lat="44.12259" lon="6.80036">
        <ele>1017.5999755859</ele>
        <time>2020-09-05T11:21:22.000Z</time>
      </trkpt>
      <trkpt lat="44.1226" lon="6.80038">
        <ele>1018</ele>
        <time>2020-09-05T11:21:23.000Z</time>
      </trkpt>
      <trkpt lat="44.12269" lon="6.80045">
        <ele>1018.799987793</ele>
        <time>2020-09-05T11:21:28.000Z</time>
      </trkpt>
      <trkpt lat="44.12271" lon="6.80047">
        <ele>1019</ele>
        <time>2020-09-05T11:21:29.000Z</time>
      </trkpt>
      <trkpt lat="44.12279" lon="6.80058">
        <ele>1019.799987793</ele>
        <time>2020-09-05T11:21:34.000Z</time>
      </trkpt>
      <trkpt lat="44.12281" lon="6.80064">
        <ele>1020.200012207</ele>
        <time>2020-09-05T11:21:36.000Z</time>
      </trkpt>
      <trkpt lat="44.12282" lon="6.80077">
        <ele>1021</ele>
        <time>2020-09-05T11:21:40.000Z</time>
      </trkpt>
      <trkpt lat="44.12281" lon="6.80083">
        <ele>1021.4000244141</ele>
        <time>2020-09-05T11:21:42.000Z</time>
      </trkpt>
      <trkpt lat="44.12279" lon="6.80098">
        <ele>1022</ele>
        <time>2020-09-05T11:21:47.000Z</time>
      </trkpt>
      <trkpt lat="44.12276" lon="6.80103">
        <ele>1022.4000244141</ele>
        <time>2020-09-05T11:21:49.000Z</time>
      </trkpt>
      <trkpt lat="44.12274" lon="6.80104">
        <ele>1022.5999755859</ele>
        <time>2020-09-05T11:21:50.000Z</time>
      </trkpt>
      <trkpt lat="44.12271" lon="6.80103">
        <ele>1023.200012207</ele>
        <time>2020-09-05T11:21:52.000Z</time>
      </trkpt>
      <trkpt lat="44.12269" lon="6.801">
        <ele>1023.4000244141</ele>
        <time>2020-09-05T11:21:53.000Z</time>
      </trkpt>
      <trkpt lat="44.12268" lon="6.80095">
        <ele>1023.799987793</ele>
        <time>2020-09-05T11:21:55.000Z</time>
      </trkpt>
      <trkpt lat="44.12269" lon="6.80092">
        <ele>1024</ele>
        <time>2020-09-05T11:21:56.000Z</time>
      </trkpt>
      <trkpt lat="44.12269" lon="6.80089">
        <ele>1024.1999511719</ele>
        <time>2020-09-05T11:21:57.000Z</time>
      </trkpt>
      <trkpt lat="44.1227" lon="6.80087">
        <ele>1024.4000244141</ele>
        <time>2020-09-05T11:21:58.000Z</time>
      </trkpt>
      <trkpt lat="44.12273" lon="6.80071">
        <ele>1025</ele>
        <time>2020-09-05T11:22:04.000Z</time>
      </trkpt>
      <trkpt lat="44.12272" lon="6.80068">
        <ele>1025.1999511719</ele>
        <time>2020-09-05T11:22:05.000Z</time>
      </trkpt>
      <trkpt lat="44.12264" lon="6.80064">
        <ele>1025.8000488281</ele>
        <time>2020-09-05T11:22:09.000Z</time>
      </trkpt>
      <trkpt lat="44.1226" lon="6.80062">
        <ele>1026.1999511719</ele>
        <time>2020-09-05T11:22:11.000Z</time>
      </trkpt>
      <trkpt lat="44.12258" lon="6.80061">
        <ele>1026.4000244141</ele>
        <time>2020-09-05T11:22:12.000Z</time>
      </trkpt>
      <trkpt lat="44.12249" lon="6.80054">
        <ele>1027.4000244141</ele>
        <time>2020-09-05T11:22:17.000Z</time>
      </trkpt>
      <trkpt lat="44.12247" lon="6.80053">
        <ele>1027.5999755859</ele>
        <time>2020-09-05T11:22:18.000Z</time>
      </trkpt>
      <trkpt lat="44.12242" lon="6.8004">
        <ele>1028.5999755859</ele>
        <time>2020-09-05T11:22:23.000Z</time>
      </trkpt>
      <trkpt lat="44.12238" lon="6.80023">
        <ele>1029.8000488281</ele>
        <time>2020-09-05T11:22:29.000Z</time>
      </trkpt>
      <trkpt lat="44.12236" lon="6.80021">
        <ele>1029.8000488281</ele>
        <time>2020-09-05T11:22:30.000Z</time>
      </trkpt>
      <trkpt lat="44.12224" lon="6.8002">
        <ele>1030.5999755859</ele>
        <time>2020-09-05T11:22:35.000Z</time>
      </trkpt>
      <trkpt lat="44.12222" lon="6.80021">
        <ele>1030.8000488281</ele>
        <time>2020-09-05T11:22:36.000Z</time>
      </trkpt>
      <trkpt lat="44.12206" lon="6.80026">
        <ele>1031.8000488281</ele>
        <time>2020-09-05T11:22:43.000Z</time>
      </trkpt>
      <trkpt lat="44.12204" lon="6.80028">
        <ele>1032</ele>
        <time>2020-09-05T11:22:44.000Z</time>
      </trkpt>
      <trkpt lat="44.12203" lon="6.80031">
        <ele>1032</ele>
        <time>2020-09-05T11:22:45.000Z</time>
      </trkpt>
      <trkpt lat="44.12203" lon="6.80037">
        <ele>1032.4000244141</ele>
        <time>2020-09-05T11:22:47.000Z</time>
      </trkpt>
      <trkpt lat="44.12204" lon="6.80048">
        <ele>1033</ele>
        <time>2020-09-05T11:22:50.000Z</time>
      </trkpt>
      <trkpt lat="44.12204" lon="6.80068">
        <ele>1033.8000488281</ele>
        <time>2020-09-05T11:22:56.000Z</time>
      </trkpt>
      <trkpt lat="44.12205" lon="6.80075">
        <ele>1034</ele>
        <time>2020-09-05T11:22:58.000Z</time>
      </trkpt>
      <trkpt lat="44.12211" lon="6.80086">
        <ele>1034.5999755859</ele>
        <time>2020-09-05T11:23:02.000Z</time>
      </trkpt>
      <trkpt lat="44.12223" lon="6.80092">
        <ele>1035.1999511719</ele>
        <time>2020-09-05T11:23:06.000Z</time>
      </trkpt>
      <trkpt lat="44.12233" lon="6.80099">
        <ele>1035.5999755859</ele>
        <time>2020-09-05T11:23:09.000Z</time>
      </trkpt>
      <trkpt lat="44.1224" lon="6.80106">
        <ele>1036</ele>
        <time>2020-09-05T11:23:11.000Z</time>
      </trkpt>
      <trkpt lat="44.12244" lon="6.80116">
        <ele>1036.1999511719</ele>
        <time>2020-09-05T11:23:13.000Z</time>
      </trkpt>
      <trkpt lat="44.12247" lon="6.80127">
        <ele>1036.8000488281</ele>
        <time>2020-09-05T11:23:15.000Z</time>
      </trkpt>
      <trkpt lat="44.12252" lon="6.80144">
        <ele>1037</ele>
        <time>2020-09-05T11:23:18.000Z</time>
      </trkpt>
      <trkpt lat="44.12255" lon="6.80149">
        <ele>1037</ele>
        <time>2020-09-05T11:23:19.000Z</time>
      </trkpt>
      <trkpt lat="44.12264" lon="6.80161">
        <ele>1037.1999511719</ele>
        <time>2020-09-05T11:23:22.000Z</time>
      </trkpt>
      <trkpt lat="44.12268" lon="6.80165">
        <ele>1037.1999511719</ele>
        <time>2020-09-05T11:23:23.000Z</time>
      </trkpt>
      <trkpt lat="44.12272" lon="6.80168">
        <ele>1037.4000244141</ele>
        <time>2020-09-05T11:23:24.000Z</time>
      </trkpt>
      <trkpt lat="44.12293" lon="6.80185">
        <ele>1038.4000244141</ele>
        <time>2020-09-05T11:23:30.000Z</time>
      </trkpt>
      <trkpt lat="44.12296" lon="6.80188">
        <ele>1038.5999755859</ele>
        <time>2020-09-05T11:23:31.000Z</time>
      </trkpt>
      <trkpt lat="44.1231" lon="6.80208">
        <ele>1039.5999755859</ele>
        <time>2020-09-05T11:23:37.000Z</time>
      </trkpt>
      <trkpt lat="44.12313" lon="6.8021">
        <ele>1039.5999755859</ele>
        <time>2020-09-05T11:23:38.000Z</time>
      </trkpt>
      <trkpt lat="44.12329" lon="6.80222">
        <ele>1040.8000488281</ele>
        <time>2020-09-05T11:23:44.000Z</time>
      </trkpt>
      <trkpt lat="44.12332" lon="6.80224">
        <ele>1041</ele>
        <time>2020-09-05T11:23:45.000Z</time>
      </trkpt>
      <trkpt lat="44.12346" lon="6.80232">
        <ele>1041.8000488281</ele>
        <time>2020-09-05T11:23:50.000Z</time>
      </trkpt>
      <trkpt lat="44.12353" lon="6.80236">
        <ele>1042.4000244141</ele>
        <time>2020-09-05T11:23:53.000Z</time>
      </trkpt>
      <trkpt lat="44.12359" lon="6.80241">
        <ele>1042.8000488281</ele>
        <time>2020-09-05T11:23:56.000Z</time>
      </trkpt>
      <trkpt lat="44.12367" lon="6.80248">
        <ele>1044</ele>
        <time>2020-09-05T11:24:00.000Z</time>
      </trkpt>
      <trkpt lat="44.1237" lon="6.80253">
        <ele>1044.5999755859</ele>
        <time>2020-09-05T11:24:02.000Z</time>
      </trkpt>
      <trkpt lat="44.12374" lon="6.80256">
        <ele>1045</ele>
        <time>2020-09-05T11:24:04.000Z</time>
      </trkpt>
      <trkpt lat="44.12383" lon="6.8026">
        <ele>1046</ele>
        <time>2020-09-05T11:24:08.000Z</time>
      </trkpt>
      <trkpt lat="44.12385" lon="6.80261">
        <ele>1046.1999511719</ele>
        <time>2020-09-05T11:24:09.000Z</time>
      </trkpt>
      <trkpt lat="44.12394" lon="6.80258">
        <ele>1046.8000488281</ele>
        <time>2020-09-05T11:24:13.000Z</time>
      </trkpt>
      <trkpt lat="44.124" lon="6.80255">
        <ele>1047.4000244141</ele>
        <time>2020-09-05T11:24:16.000Z</time>
      </trkpt>
      <trkpt lat="44.12407" lon="6.80248">
        <ele>1048.4000244141</ele>
        <time>2020-09-05T11:24:19.000Z</time>
      </trkpt>
      <trkpt lat="44.12417" lon="6.80238">
        <ele>1049.5999755859</ele>
        <time>2020-09-05T11:24:24.000Z</time>
      </trkpt>
      <trkpt lat="44.12426" lon="6.80231">
        <ele>1050.4000244141</ele>
        <time>2020-09-05T11:24:28.000Z</time>
      </trkpt>
      <trkpt lat="44.12431" lon="6.8023">
        <ele>1050.8000488281</ele>
        <time>2020-09-05T11:24:30.000Z</time>
      </trkpt>
      <trkpt lat="44.1244" lon="6.8023">
        <ele>1051.4000244141</ele>
        <time>2020-09-05T11:24:34.000Z</time>
      </trkpt>
      <trkpt lat="44.12445" lon="6.80231">
        <ele>1052</ele>
        <time>2020-09-05T11:24:36.000Z</time>
      </trkpt>
      <trkpt lat="44.12456" lon="6.80232">
        <ele>1053.1999511719</ele>
        <time>2020-09-05T11:24:41.000Z</time>
      </trkpt>
      <trkpt lat="44.12459" lon="6.80231">
        <ele>1053.4000244141</ele>
        <time>2020-09-05T11:24:42.000Z</time>
      </trkpt>
      <trkpt lat="44.12471" lon="6.80228">
        <ele>1054.1999511719</ele>
        <time>2020-09-05T11:24:47.000Z</time>
      </trkpt>
      <trkpt lat="44.1248" lon="6.80227">
        <ele>1055.1999511719</ele>
        <time>2020-09-05T11:24:51.000Z</time>
      </trkpt>
      <trkpt lat="44.12482" lon="6.80227">
        <ele>1055.4000244141</ele>
        <time>2020-09-05T11:24:52.000Z</time>
      </trkpt>
      <trkpt lat="44.12489" lon="6.80233">
        <ele>1056.5999755859</ele>
        <time>2020-09-05T11:24:55.000Z</time>
      </trkpt>
      <trkpt lat="44.12492" lon="6.80251">
        <ele>1057.8000488281</ele>
        <time>2020-09-05T11:25:00.000Z</time>
      </trkpt>
      <trkpt lat="44.12492" lon="6.80253">
        <ele>1058</ele>
        <time>2020-09-05T11:25:01.000Z</time>
      </trkpt>
      <trkpt lat="44.12499" lon="6.80276">
        <ele>1058.5999755859</ele>
        <time>2020-09-05T11:25:07.000Z</time>
      </trkpt>
      <trkpt lat="44.12498" lon="6.80284">
        <ele>1059</ele>
        <time>2020-09-05T11:25:09.000Z</time>
      </trkpt>
      <trkpt lat="44.12495" lon="6.80294">
        <ele>1059.8000488281</ele>
        <time>2020-09-05T11:25:12.000Z</time>
      </trkpt>
      <trkpt lat="44.12494" lon="6.80297">
        <ele>1060.1999511719</ele>
        <time>2020-09-05T11:25:13.000Z</time>
      </trkpt>
      <trkpt lat="44.1249" lon="6.80312">
        <ele>1061.4000244141</ele>
        <time>2020-09-05T11:25:18.000Z</time>
      </trkpt>
      <trkpt lat="44.12488" lon="6.80321">
        <ele>1062</ele>
        <time>2020-09-05T11:25:21.000Z</time>
      </trkpt>
      <trkpt lat="44.12485" lon="6.80327">
        <ele>1062.5999755859</ele>
        <time>2020-09-05T11:25:23.000Z</time>
      </trkpt>
      <trkpt lat="44.1248" lon="6.80344">
        <ele>1063.5999755859</ele>
        <time>2020-09-05T11:25:29.000Z</time>
      </trkpt>
      <trkpt lat="44.12481" lon="6.80346">
        <ele>1063.8000488281</ele>
        <time>2020-09-05T11:25:30.000Z</time>
      </trkpt>
      <trkpt lat="44.12482" lon="6.80348">
        <ele>1064</ele>
        <time>2020-09-05T11:25:31.000Z</time>
      </trkpt>
      <trkpt lat="44.12486" lon="6.80347">
        <ele>1064.4000244141</ele>
        <time>2020-09-05T11:25:33.000Z</time>
      </trkpt>
      <trkpt lat="44.12487" lon="6.80346">
        <ele>1064.5999755859</ele>
        <time>2020-09-05T11:25:34.000Z</time>
      </trkpt>
      <trkpt lat="44.12489" lon="6.80343">
        <ele>1065</ele>
        <time>2020-09-05T11:25:35.000Z</time>
      </trkpt>
      <trkpt lat="44.12496" lon="6.80336">
        <ele>1065.8000488281</ele>
        <time>2020-09-05T11:25:39.000Z</time>
      </trkpt>
      <trkpt lat="44.12498" lon="6.80334">
        <ele>1066</ele>
        <time>2020-09-05T11:25:40.000Z</time>
      </trkpt>
      <trkpt lat="44.12511" lon="6.80332">
        <ele>1067</ele>
        <time>2020-09-05T11:25:46.000Z</time>
      </trkpt>
      <trkpt lat="44.12521" lon="6.80338">
        <ele>1068.1999511719</ele>
        <time>2020-09-05T11:25:51.000Z</time>
      </trkpt>
      <trkpt lat="44.12527" lon="6.80343">
        <ele>1069</ele>
        <time>2020-09-05T11:25:54.000Z</time>
      </trkpt>
      <trkpt lat="44.12529" lon="6.80345">
        <ele>1069.1999511719</ele>
        <time>2020-09-05T11:25:55.000Z</time>
      </trkpt>
      <trkpt lat="44.1254" lon="6.80353">
        <ele>1070.4000244141</ele>
        <time>2020-09-05T11:26:01.000Z</time>
      </trkpt>
      <trkpt lat="44.12549" lon="6.80357">
        <ele>1071.5999755859</ele>
        <time>2020-09-05T11:26:05.000Z</time>
      </trkpt>
      <trkpt lat="44.12556" lon="6.80356">
        <ele>1072.5999755859</ele>
        <time>2020-09-05T11:26:08.000Z</time>
      </trkpt>
      <trkpt lat="44.12558" lon="6.80355">
        <ele>1073</ele>
        <time>2020-09-05T11:26:09.000Z</time>
      </trkpt>
      <trkpt lat="44.12563" lon="6.80349">
        <ele>1073.8000488281</ele>
        <time>2020-09-05T11:26:12.000Z</time>
      </trkpt>
      <trkpt lat="44.12568" lon="6.80343">
        <ele>1074.5999755859</ele>
        <time>2020-09-05T11:26:15.000Z</time>
      </trkpt>
      <trkpt lat="44.1257" lon="6.80342">
        <ele>1074.8000488281</ele>
        <time>2020-09-05T11:26:16.000Z</time>
      </trkpt>
      <trkpt lat="44.12579" lon="6.80342">
        <ele>1075.8000488281</ele>
        <time>2020-09-05T11:26:20.000Z</time>
      </trkpt>
      <trkpt lat="44.12586" lon="6.80344">
        <ele>1076.8000488281</ele>
        <time>2020-09-05T11:26:23.000Z</time>
      </trkpt>
      <trkpt lat="44.12595" lon="6.80347">
        <ele>1078</ele>
        <time>2020-09-05T11:26:27.000Z</time>
      </trkpt>
      <trkpt lat="44.126" lon="6.8035">
        <ele>1078.4000244141</ele>
        <time>2020-09-05T11:26:29.000Z</time>
      </trkpt>
      <trkpt lat="44.12607" lon="6.80352">
        <ele>1079</ele>
        <time>2020-09-05T11:26:32.000Z</time>
      </trkpt>
      <trkpt lat="44.12619" lon="6.80363">
        <ele>1079.8000488281</ele>
        <time>2020-09-05T11:26:38.000Z</time>
      </trkpt>
      <trkpt lat="44.12621" lon="6.80369">
        <ele>1080.4000244141</ele>
        <time>2020-09-05T11:26:40.000Z</time>
      </trkpt>
      <trkpt lat="44.12624" lon="6.80381">
        <ele>1081.4000244141</ele>
        <time>2020-09-05T11:26:44.000Z</time>
      </trkpt>
      <trkpt lat="44.1263" lon="6.80392">
        <ele>1082.5999755859</ele>
        <time>2020-09-05T11:26:49.000Z</time>
      </trkpt>
      <trkpt lat="44.12633" lon="6.80396">
        <ele>1083</ele>
        <time>2020-09-05T11:26:51.000Z</time>
      </trkpt>
      <trkpt lat="44.12636" lon="6.80406">
        <ele>1083.8000488281</ele>
        <time>2020-09-05T11:26:55.000Z</time>
      </trkpt>
      <trkpt lat="44.12636" lon="6.80412">
        <ele>1084.4000244141</ele>
        <time>2020-09-05T11:26:57.000Z</time>
      </trkpt>
      <trkpt lat="44.12636" lon="6.80415">
        <ele>1084.8000488281</ele>
        <time>2020-09-05T11:26:58.000Z</time>
      </trkpt>
      <trkpt lat="44.12633" lon="6.80428">
        <ele>1085.8000488281</ele>
        <time>2020-09-05T11:27:02.000Z</time>
      </trkpt>
      <trkpt lat="44.1263" lon="6.80436">
        <ele>1086.5999755859</ele>
        <time>2020-09-05T11:27:05.000Z</time>
      </trkpt>
      <trkpt lat="44.12627" lon="6.80441">
        <ele>1087</ele>
        <time>2020-09-05T11:27:07.000Z</time>
      </trkpt>
      <trkpt lat="44.12617" lon="6.80458">
        <ele>1088</ele>
        <time>2020-09-05T11:27:13.000Z</time>
      </trkpt>
      <trkpt lat="44.12612" lon="6.80479">
        <ele>1088.8000488281</ele>
        <time>2020-09-05T11:27:19.000Z</time>
      </trkpt>
      <trkpt lat="44.12613" lon="6.80486">
        <ele>1089.1999511719</ele>
        <time>2020-09-05T11:27:21.000Z</time>
      </trkpt>
      <trkpt lat="44.12617" lon="6.80495">
        <ele>1089.8000488281</ele>
        <time>2020-09-05T11:27:24.000Z</time>
      </trkpt>
      <trkpt lat="44.1262" lon="6.805">
        <ele>1090.1999511719</ele>
        <time>2020-09-05T11:27:26.000Z</time>
      </trkpt>
      <trkpt lat="44.12622" lon="6.8051">
        <ele>1090.8000488281</ele>
        <time>2020-09-05T11:27:30.000Z</time>
      </trkpt>
      <trkpt lat="44.12619" lon="6.80518">
        <ele>1091.5999755859</ele>
        <time>2020-09-05T11:27:33.000Z</time>
      </trkpt>
      <trkpt lat="44.12614" lon="6.80524">
        <ele>1092.5999755859</ele>
        <time>2020-09-05T11:27:36.000Z</time>
      </trkpt>
      <trkpt lat="44.12605" lon="6.80532">
        <ele>1093.8000488281</ele>
        <time>2020-09-05T11:27:41.000Z</time>
      </trkpt>
      <trkpt lat="44.12595" lon="6.80538">
        <ele>1094.8000488281</ele>
        <time>2020-09-05T11:27:46.000Z</time>
      </trkpt>
      <trkpt lat="44.12582" lon="6.80541">
        <ele>1096</ele>
        <time>2020-09-05T11:27:52.000Z</time>
      </trkpt>
      <trkpt lat="44.12575" lon="6.80543">
        <ele>1096.5999755859</ele>
        <time>2020-09-05T11:27:55.000Z</time>
      </trkpt>
      <trkpt lat="44.12568" lon="6.80546">
        <ele>1097.1999511719</ele>
        <time>2020-09-05T11:27:58.000Z</time>
      </trkpt>
      <trkpt lat="44.12557" lon="6.80554">
        <ele>1097.8000488281</ele>
        <time>2020-09-05T11:28:03.000Z</time>
      </trkpt>
      <trkpt lat="44.12551" lon="6.80559">
        <ele>1098.1999511719</ele>
        <time>2020-09-05T11:28:06.000Z</time>
      </trkpt>
      <trkpt lat="44.12539" lon="6.80565">
        <ele>1099.1999511719</ele>
        <time>2020-09-05T11:28:11.000Z</time>
      </trkpt>
      <trkpt lat="44.12537" lon="6.80566">
        <ele>1099.1999511719</ele>
        <time>2020-09-05T11:28:12.000Z</time>
      </trkpt>
      <trkpt lat="44.12524" lon="6.8058">
        <ele>1100.5999755859</ele>
        <time>2020-09-05T11:28:19.000Z</time>
      </trkpt>
      <trkpt lat="44.12522" lon="6.80594">
        <ele>1101.1999511719</ele>
        <time>2020-09-05T11:28:24.000Z</time>
      </trkpt>
      <trkpt lat="44.12522" lon="6.80601">
        <ele>1101.5999755859</ele>
        <time>2020-09-05T11:28:26.000Z</time>
      </trkpt>
      <trkpt lat="44.12521" lon="6.80613">
        <ele>1102.8000488281</ele>
        <time>2020-09-05T11:28:30.000Z</time>
      </trkpt>
      <trkpt lat="44.12519" lon="6.80619">
        <ele>1103.1999511719</ele>
        <time>2020-09-05T11:28:32.000Z</time>
      </trkpt>
      <trkpt lat="44.12516" lon="6.80628">
        <ele>1103.8000488281</ele>
        <time>2020-09-05T11:28:35.000Z</time>
      </trkpt>
      <trkpt lat="44.12509" lon="6.8064">
        <ele>1104.5999755859</ele>
        <time>2020-09-05T11:28:40.000Z</time>
      </trkpt>
      <trkpt lat="44.12506" lon="6.80648">
        <ele>1105</ele>
        <time>2020-09-05T11:28:43.000Z</time>
      </trkpt>
      <trkpt lat="44.12505" lon="6.80657">
        <ele>1105.8000488281</ele>
        <time>2020-09-05T11:28:46.000Z</time>
      </trkpt>
      <trkpt lat="44.12505" lon="6.8066">
        <ele>1106</ele>
        <time>2020-09-05T11:28:47.000Z</time>
      </trkpt>
      <trkpt lat="44.12509" lon="6.8067">
        <ele>1107</ele>
        <time>2020-09-05T11:28:51.000Z</time>
      </trkpt>
      <trkpt lat="44.12509" lon="6.80673">
        <ele>1107.1999511719</ele>
        <time>2020-09-05T11:28:52.000Z</time>
      </trkpt>
      <trkpt lat="44.12512" lon="6.80678">
        <ele>1107.8000488281</ele>
        <time>2020-09-05T11:28:54.000Z</time>
      </trkpt>
      <trkpt lat="44.12525" lon="6.80697">
        <ele>1108.4000244141</ele>
        <time>2020-09-05T11:29:03.000Z</time>
      </trkpt>
      <trkpt lat="44.12536" lon="6.80716">
        <ele>1109.5999755859</ele>
        <time>2020-09-05T11:29:11.000Z</time>
      </trkpt>
      <trkpt lat="44.12537" lon="6.80722">
        <ele>1110.1999511719</ele>
        <time>2020-09-05T11:29:13.000Z</time>
      </trkpt>
      <trkpt lat="44.12539" lon="6.80731">
        <ele>1110.8000488281</ele>
        <time>2020-09-05T11:29:16.000Z</time>
      </trkpt>
      <trkpt lat="44.12543" lon="6.80743">
        <ele>1111.4000244141</ele>
        <time>2020-09-05T11:29:20.000Z</time>
      </trkpt>
      <trkpt lat="44.12545" lon="6.80748">
        <ele>1111.8000488281</ele>
        <time>2020-09-05T11:29:22.000Z</time>
      </trkpt>
      <trkpt lat="44.12551" lon="6.80765">
        <ele>1113</ele>
        <time>2020-09-05T11:29:28.000Z</time>
      </trkpt>
      <trkpt lat="44.12552" lon="6.80768">
        <ele>1113.1999511719</ele>
        <time>2020-09-05T11:29:29.000Z</time>
      </trkpt>
      <trkpt lat="44.12556" lon="6.80781">
        <ele>1114</ele>
        <time>2020-09-05T11:29:34.000Z</time>
      </trkpt>
      <trkpt lat="44.12562" lon="6.8079">
        <ele>1114.4000244141</ele>
        <time>2020-09-05T11:29:38.000Z</time>
      </trkpt>
      <trkpt lat="44.12568" lon="6.80799">
        <ele>1115</ele>
        <time>2020-09-05T11:29:42.000Z</time>
      </trkpt>
      <trkpt lat="44.12574" lon="6.80807">
        <ele>1115.4000244141</ele>
        <time>2020-09-05T11:29:46.000Z</time>
      </trkpt>
      <trkpt lat="44.12585" lon="6.80811">
        <ele>1116.1999511719</ele>
        <time>2020-09-05T11:29:51.000Z</time>
      </trkpt>
      <trkpt lat="44.12591" lon="6.80814">
        <ele>1116.5999755859</ele>
        <time>2020-09-05T11:29:54.000Z</time>
      </trkpt>
      <trkpt lat="44.126" lon="6.80816">
        <ele>1117.1999511719</ele>
        <time>2020-09-05T11:29:58.000Z</time>
      </trkpt>
      <trkpt lat="44.12607" lon="6.80819">
        <ele>1117.8000488281</ele>
        <time>2020-09-05T11:30:01.000Z</time>
      </trkpt>
      <trkpt lat="44.12617" lon="6.8082">
        <ele>1118.4000244141</ele>
        <time>2020-09-05T11:30:05.000Z</time>
      </trkpt>
      <trkpt lat="44.12624" lon="6.80818">
        <ele>1118.8000488281</ele>
        <time>2020-09-05T11:30:08.000Z</time>
      </trkpt>
      <trkpt lat="44.12631" lon="6.80812">
        <ele>1119.4000244141</ele>
        <time>2020-09-05T11:30:12.000Z</time>
      </trkpt>
      <trkpt lat="44.12635" lon="6.80809">
        <ele>1120</ele>
        <time>2020-09-05T11:30:14.000Z</time>
      </trkpt>
      <trkpt lat="44.12639" lon="6.80806">
        <ele>1120.5999755859</ele>
        <time>2020-09-05T11:30:16.000Z</time>
      </trkpt>
      <trkpt lat="44.1265" lon="6.80799">
        <ele>1121.5999755859</ele>
        <time>2020-09-05T11:30:21.000Z</time>
      </trkpt>
      <trkpt lat="44.12652" lon="6.80798">
        <ele>1122</ele>
        <time>2020-09-05T11:30:22.000Z</time>
      </trkpt>
      <trkpt lat="44.12662" lon="6.80799">
        <ele>1122.8000488281</ele>
        <time>2020-09-05T11:30:26.000Z</time>
      </trkpt>
      <trkpt lat="44.12665" lon="6.80801">
        <ele>1123</ele>
        <time>2020-09-05T11:30:27.000Z</time>
      </trkpt>
      <trkpt lat="44.12672" lon="6.80809">
        <ele>1123.8000488281</ele>
        <time>2020-09-05T11:30:31.000Z</time>
      </trkpt>
      <trkpt lat="44.12676" lon="6.80814">
        <ele>1124.4000244141</ele>
        <time>2020-09-05T11:30:33.000Z</time>
      </trkpt>
      <trkpt lat="44.12685" lon="6.8082">
        <ele>1125</ele>
        <time>2020-09-05T11:30:37.000Z</time>
      </trkpt>
      <trkpt lat="44.12691" lon="6.80825">
        <ele>1125.4000244141</ele>
        <time>2020-09-05T11:30:40.000Z</time>
      </trkpt>
      <trkpt lat="44.12698" lon="6.80835">
        <ele>1126</ele>
        <time>2020-09-05T11:30:44.000Z</time>
      </trkpt>
      <trkpt lat="44.12702" lon="6.8084">
        <ele>1126.1999511719</ele>
        <time>2020-09-05T11:30:46.000Z</time>
      </trkpt>
      <trkpt lat="44.12708" lon="6.80846">
        <ele>1127</ele>
        <time>2020-09-05T11:30:49.000Z</time>
      </trkpt>
      <trkpt lat="44.12715" lon="6.80849">
        <ele>1127.5999755859</ele>
        <time>2020-09-05T11:30:52.000Z</time>
      </trkpt>
      <trkpt lat="44.12725" lon="6.80855">
        <ele>1128.1999511719</ele>
        <time>2020-09-05T11:30:56.000Z</time>
      </trkpt>
      <trkpt lat="44.12735" lon="6.80863">
        <ele>1129</ele>
        <time>2020-09-05T11:31:01.000Z</time>
      </trkpt>
      <trkpt lat="44.12737" lon="6.80865">
        <ele>1129.1999511719</ele>
        <time>2020-09-05T11:31:02.000Z</time>
      </trkpt>
      <trkpt lat="44.12745" lon="6.8088">
        <ele>1130.4000244141</ele>
        <time>2020-09-05T11:31:07.000Z</time>
      </trkpt>
      <trkpt lat="44.12746" lon="6.80884">
        <ele>1130.5999755859</ele>
        <time>2020-09-05T11:31:08.000Z</time>
      </trkpt>
      <trkpt lat="44.12752" lon="6.80899">
        <ele>1131.5999755859</ele>
        <time>2020-09-05T11:31:13.000Z</time>
      </trkpt>
      <trkpt lat="44.12756" lon="6.80906">
        <ele>1132</ele>
        <time>2020-09-05T11:31:16.000Z</time>
      </trkpt>
      <trkpt lat="44.12764" lon="6.80915">
        <ele>1132.5999755859</ele>
        <time>2020-09-05T11:31:20.000Z</time>
      </trkpt>
      <trkpt lat="44.12773" lon="6.80929">
        <ele>1133.5999755859</ele>
        <time>2020-09-05T11:31:26.000Z</time>
      </trkpt>
      <trkpt lat="44.1278" lon="6.80944">
        <ele>1134.8000488281</ele>
        <time>2020-09-05T11:31:31.000Z</time>
      </trkpt>
      <trkpt lat="44.12785" lon="6.80956">
        <ele>1135.5999755859</ele>
        <time>2020-09-05T11:31:35.000Z</time>
      </trkpt>
      <trkpt lat="44.12788" lon="6.80962">
        <ele>1136</ele>
        <time>2020-09-05T11:31:37.000Z</time>
      </trkpt>
      <trkpt lat="44.12793" lon="6.8098">
        <ele>1137.1999511719</ele>
        <time>2020-09-05T11:31:43.000Z</time>
      </trkpt>
      <trkpt lat="44.12797" lon="6.80996">
        <ele>1138.4000244141</ele>
        <time>2020-09-05T11:31:48.000Z</time>
      </trkpt>
      <trkpt lat="44.12799" lon="6.81002">
        <ele>1138.8000488281</ele>
        <time>2020-09-05T11:31:50.000Z</time>
      </trkpt>
      <trkpt lat="44.12801" lon="6.81013">
        <ele>1139.4000244141</ele>
        <time>2020-09-05T11:31:53.000Z</time>
      </trkpt>
      <trkpt lat="44.12806" lon="6.81032">
        <ele>1140.4000244141</ele>
        <time>2020-09-05T11:31:59.000Z</time>
      </trkpt>
      <trkpt lat="44.12809" lon="6.81039">
        <ele>1140.8000488281</ele>
        <time>2020-09-05T11:32:01.000Z</time>
      </trkpt>
      <trkpt lat="44.12816" lon="6.81049">
        <ele>1141.5999755859</ele>
        <time>2020-09-05T11:32:05.000Z</time>
      </trkpt>
      <trkpt lat="44.12822" lon="6.81055">
        <ele>1142.1999511719</ele>
        <time>2020-09-05T11:32:08.000Z</time>
      </trkpt>
      <trkpt lat="44.12832" lon="6.81061">
        <ele>1142.8000488281</ele>
        <time>2020-09-05T11:32:12.000Z</time>
      </trkpt>
      <trkpt lat="44.12841" lon="6.81068">
        <ele>1143.4000244141</ele>
        <time>2020-09-05T11:32:16.000Z</time>
      </trkpt>
      <trkpt lat="44.12847" lon="6.81074">
        <ele>1144</ele>
        <time>2020-09-05T11:32:19.000Z</time>
      </trkpt>
      <trkpt lat="44.12854" lon="6.81083">
        <ele>1144.8000488281</ele>
        <time>2020-09-05T11:32:23.000Z</time>
      </trkpt>
      <trkpt lat="44.12857" lon="6.81089">
        <ele>1145</ele>
        <time>2020-09-05T11:32:25.000Z</time>
      </trkpt>
      <trkpt lat="44.12867" lon="6.81107">
        <ele>1145.8000488281</ele>
        <time>2020-09-05T11:32:31.000Z</time>
      </trkpt>
      <trkpt lat="44.12871" lon="6.81116">
        <ele>1146.1999511719</ele>
        <time>2020-09-05T11:32:34.000Z</time>
      </trkpt>
      <trkpt lat="44.12874" lon="6.81121">
        <ele>1146.5999755859</ele>
        <time>2020-09-05T11:32:36.000Z</time>
      </trkpt>
      <trkpt lat="44.12879" lon="6.81132">
        <ele>1147.1999511719</ele>
        <time>2020-09-05T11:32:40.000Z</time>
      </trkpt>
      <trkpt lat="44.12885" lon="6.81143">
        <ele>1147.8000488281</ele>
        <time>2020-09-05T11:32:44.000Z</time>
      </trkpt>
      <trkpt lat="44.1289" lon="6.81151">
        <ele>1148.1999511719</ele>
        <time>2020-09-05T11:32:47.000Z</time>
      </trkpt>
      <trkpt lat="44.12899" lon="6.81164">
        <ele>1149</ele>
        <time>2020-09-05T11:32:52.000Z</time>
      </trkpt>
      <trkpt lat="44.12903" lon="6.81168">
        <ele>1149.4000244141</ele>
        <time>2020-09-05T11:32:54.000Z</time>
      </trkpt>
      <trkpt lat="44.12915" lon="6.8118">
        <ele>1150.4000244141</ele>
        <time>2020-09-05T11:33:00.000Z</time>
      </trkpt>
      <trkpt lat="44.12919" lon="6.81184">
        <ele>1150.8000488281</ele>
        <time>2020-09-05T11:33:02.000Z</time>
      </trkpt>
      <trkpt lat="44.12932" lon="6.81195">
        <ele>1151.5999755859</ele>
        <time>2020-09-05T11:33:08.000Z</time>
      </trkpt>
      <trkpt lat="44.12935" lon="6.81199">
        <ele>1151.8000488281</ele>
        <time>2020-09-05T11:33:10.000Z</time>
      </trkpt>
      <trkpt lat="44.12943" lon="6.81207">
        <ele>1152.5999755859</ele>
        <time>2020-09-05T11:33:14.000Z</time>
      </trkpt>
      <trkpt lat="44.12948" lon="6.81215">
        <ele>1153</ele>
        <time>2020-09-05T11:33:17.000Z</time>
      </trkpt>
      <trkpt lat="44.12954" lon="6.81226">
        <ele>1153.5999755859</ele>
        <time>2020-09-05T11:33:21.000Z</time>
      </trkpt>
      <trkpt lat="44.12964" lon="6.81242">
        <ele>1154.5999755859</ele>
        <time>2020-09-05T11:33:27.000Z</time>
      </trkpt>
      <trkpt lat="44.12979" lon="6.8125">
        <ele>1155.5999755859</ele>
        <time>2020-09-05T11:33:33.000Z</time>
      </trkpt>
      <trkpt lat="44.12982" lon="6.8125">
        <ele>1155.8000488281</ele>
        <time>2020-09-05T11:33:34.000Z</time>
      </trkpt>
      <trkpt lat="44.13" lon="6.81254">
        <ele>1156.5999755859</ele>
        <time>2020-09-05T11:33:41.000Z</time>
      </trkpt>
      <trkpt lat="44.13009" lon="6.81265">
        <ele>1157.5999755859</ele>
        <time>2020-09-05T11:33:46.000Z</time>
      </trkpt>
      <trkpt lat="44.13011" lon="6.81268">
        <ele>1158</ele>
        <time>2020-09-05T11:33:47.000Z</time>
      </trkpt>
      <trkpt lat="44.13019" lon="6.81281">
        <ele>1159</ele>
        <time>2020-09-05T11:33:52.000Z</time>
      </trkpt>
      <trkpt lat="44.13025" lon="6.81288">
        <ele>1159.4000244141</ele>
        <time>2020-09-05T11:33:55.000Z</time>
      </trkpt>
      <trkpt lat="44.13032" lon="6.81296">
        <ele>1160</ele>
        <time>2020-09-05T11:33:59.000Z</time>
      </trkpt>
      <trkpt lat="44.13042" lon="6.81309">
        <ele>1161</ele>
        <time>2020-09-05T11:34:05.000Z</time>
      </trkpt>
      <trkpt lat="44.13044" lon="6.81311">
        <ele>1161.1999511719</ele>
        <time>2020-09-05T11:34:06.000Z</time>
      </trkpt>
      <trkpt lat="44.13053" lon="6.81327">
        <ele>1162.4000244141</ele>
        <time>2020-09-05T11:34:12.000Z</time>
      </trkpt>
      <trkpt lat="44.13057" lon="6.8135">
        <ele>1163.1999511719</ele>
        <time>2020-09-05T11:34:19.000Z</time>
      </trkpt>
      <trkpt lat="44.13058" lon="6.81356">
        <ele>1163.5999755859</ele>
        <time>2020-09-05T11:34:21.000Z</time>
      </trkpt>
      <trkpt lat="44.13057" lon="6.81373">
        <ele>1164.5999755859</ele>
        <time>2020-09-05T11:34:26.000Z</time>
      </trkpt>
      <trkpt lat="44.13056" lon="6.8138">
        <ele>1165</ele>
        <time>2020-09-05T11:34:28.000Z</time>
      </trkpt>
      <trkpt lat="44.13053" lon="6.81396">
        <ele>1165.8000488281</ele>
        <time>2020-09-05T11:34:33.000Z</time>
      </trkpt>
      <trkpt lat="44.13049" lon="6.81404">
        <ele>1166.1999511719</ele>
        <time>2020-09-05T11:34:36.000Z</time>
      </trkpt>
      <trkpt lat="44.13045" lon="6.81412">
        <ele>1166.8000488281</ele>
        <time>2020-09-05T11:34:39.000Z</time>
      </trkpt>
      <trkpt lat="44.13043" lon="6.81414">
        <ele>1167</ele>
        <time>2020-09-05T11:34:40.000Z</time>
      </trkpt>
      <trkpt lat="44.13039" lon="6.8142">
        <ele>1167.4000244141</ele>
        <time>2020-09-05T11:34:43.000Z</time>
      </trkpt>
      <trkpt lat="44.13039" lon="6.81433">
        <ele>1167.8000488281</ele>
        <time>2020-09-05T11:34:47.000Z</time>
      </trkpt>
      <trkpt lat="44.13048" lon="6.81445">
        <ele>1168.1999511719</ele>
        <time>2020-09-05T11:34:52.000Z</time>
      </trkpt>
      <trkpt lat="44.13061" lon="6.81448">
        <ele>1168.5999755859</ele>
        <time>2020-09-05T11:34:58.000Z</time>
      </trkpt>
      <trkpt lat="44.13067" lon="6.81445">
        <ele>1168.8000488281</ele>
        <time>2020-09-05T11:35:01.000Z</time>
      </trkpt>
      <trkpt lat="44.13077" lon="6.81441">
        <ele>1169.5999755859</ele>
        <time>2020-09-05T11:35:06.000Z</time>
      </trkpt>
      <trkpt lat="44.13081" lon="6.8144">
        <ele>1170</ele>
        <time>2020-09-05T11:35:11.000Z</time>
      </trkpt>
      <trkpt lat="44.13081" lon="6.8144">
        <ele>1169.8000488281</ele>
        <time>2020-09-05T11:35:22.000Z</time>
      </trkpt>
      <trkpt lat="44.13078" lon="6.81439">
        <ele>1170</ele>
        <time>2020-09-05T11:35:29.000Z</time>
      </trkpt>
      <trkpt lat="44.13071" lon="6.81442">
        <ele>1170</ele>
        <time>2020-09-05T11:35:32.000Z</time>
      </trkpt>
      <trkpt lat="44.13069" lon="6.81445">
        <ele>1170</ele>
        <time>2020-09-05T11:35:33.000Z</time>
      </trkpt>
      <trkpt lat="44.13067" lon="6.81455">
        <ele>1168.8000488281</ele>
        <time>2020-09-05T11:35:36.000Z</time>
      </trkpt>
      <trkpt lat="44.13066" lon="6.81459">
        <ele>1168.1999511719</ele>
        <time>2020-09-05T11:35:37.000Z</time>
      </trkpt>
      <trkpt lat="44.13064" lon="6.81462">
        <ele>1167.4000244141</ele>
        <time>2020-09-05T11:35:38.000Z</time>
      </trkpt>
      <trkpt lat="44.13061" lon="6.81465">
        <ele>1166.8000488281</ele>
        <time>2020-09-05T11:35:39.000Z</time>
      </trkpt>
      <trkpt lat="44.13056" lon="6.8147">
        <ele>1166</ele>
        <time>2020-09-05T11:35:40.000Z</time>
      </trkpt>
      <trkpt lat="44.13047" lon="6.8148">
        <ele>1164.1999511719</ele>
        <time>2020-09-05T11:35:42.000Z</time>
      </trkpt>
      <trkpt lat="44.13041" lon="6.81487">
        <ele>1162.4000244141</ele>
        <time>2020-09-05T11:35:44.000Z</time>
      </trkpt>
      <trkpt lat="44.13036" lon="6.81491">
        <ele>1160.4000244141</ele>
        <time>2020-09-05T11:35:46.000Z</time>
      </trkpt>
      <trkpt lat="44.1303" lon="6.81498">
        <ele>1159</ele>
        <time>2020-09-05T11:35:48.000Z</time>
      </trkpt>
      <trkpt lat="44.1303" lon="6.815">
        <ele>1158</ele>
        <time>2020-09-05T11:35:49.000Z</time>
      </trkpt>
      <trkpt lat="44.1303" lon="6.81501">
        <ele>1156.1999511719</ele>
        <time>2020-09-05T11:35:51.000Z</time>
      </trkpt>
      <trkpt lat="44.1303" lon="6.81501">
        <ele>1154.8000488281</ele>
        <time>2020-09-05T11:35:53.000Z</time>
      </trkpt>
      <trkpt lat="44.1303" lon="6.81501">
        <ele>1153.8000488281</ele>
        <time>2020-09-05T11:35:57.000Z</time>
      </trkpt>
      <trkpt lat="44.1303" lon="6.81501">
        <ele>1153.8000488281</ele>
        <time>2020-09-05T11:35:58.000Z</time>
      </trkpt>
      <trkpt lat="44.13036" lon="6.81507">
        <ele>1153.8000488281</ele>
        <time>2020-09-05T11:36:03.000Z</time>
      </trkpt>
      <trkpt lat="44.13046" lon="6.81512">
        <ele>1153.1999511719</ele>
        <time>2020-09-05T11:36:08.000Z</time>
      </trkpt>
      <trkpt lat="44.13048" lon="6.81514">
        <ele>1152.1999511719</ele>
        <time>2020-09-05T11:36:10.000Z</time>
      </trkpt>
      <trkpt lat="44.13053" lon="6.81518">
        <ele>1151.5999755859</ele>
        <time>2020-09-05T11:36:12.000Z</time>
      </trkpt>
      <trkpt lat="44.13062" lon="6.81528">
        <ele>1151.1999511719</ele>
        <time>2020-09-05T11:36:15.000Z</time>
      </trkpt>
      <trkpt lat="44.13071" lon="6.81536">
        <ele>1150.4000244141</ele>
        <time>2020-09-05T11:36:18.000Z</time>
      </trkpt>
      <trkpt lat="44.13075" lon="6.8154">
        <ele>1150</ele>
        <time>2020-09-05T11:36:20.000Z</time>
      </trkpt>
      <trkpt lat="44.13081" lon="6.81545">
        <ele>1149.8000488281</ele>
        <time>2020-09-05T11:36:22.000Z</time>
      </trkpt>
      <trkpt lat="44.13093" lon="6.81547">
        <ele>1149</ele>
        <time>2020-09-05T11:36:27.000Z</time>
      </trkpt>
      <trkpt lat="44.13101" lon="6.81547">
        <ele>1149.1999511719</ele>
        <time>2020-09-05T11:36:33.000Z</time>
      </trkpt>
      <trkpt lat="44.13101" lon="6.81548">
        <ele>1149.1999511719</ele>
        <time>2020-09-05T11:36:39.000Z</time>
      </trkpt>
      <trkpt lat="44.13101" lon="6.81548">
        <ele>1149</ele>
        <time>2020-09-05T11:36:45.000Z</time>
      </trkpt>
      <trkpt lat="44.13101" lon="6.81549">
        <ele>1149.1999511719</ele>
        <time>2020-09-05T11:36:52.000Z</time>
      </trkpt>
      <trkpt lat="44.13101" lon="6.81549">
        <ele>1149.1999511719</ele>
        <time>2020-09-05T11:37:01.000Z</time>
      </trkpt>
      <trkpt lat="44.13102" lon="6.8155">
        <ele>1149.1999511719</ele>
        <time>2020-09-05T11:37:09.000Z</time>
      </trkpt>
      <trkpt lat="44.13103" lon="6.81551">
        <ele>1149.1999511719</ele>
        <time>2020-09-05T11:37:17.000Z</time>
      </trkpt>
      <trkpt lat="44.13103" lon="6.81552">
        <ele>1148.1999511719</ele>
        <time>2020-09-05T11:37:23.000Z</time>
      </trkpt>
      <trkpt lat="44.13104" lon="6.81552">
        <ele>1148</ele>
        <time>2020-09-05T11:37:24.000Z</time>
      </trkpt>
      <trkpt lat="44.13104" lon="6.81553">
        <ele>1147.5999755859</ele>
        <time>2020-09-05T11:37:30.000Z</time>
      </trkpt>
      <trkpt lat="44.13103" lon="6.81554">
        <ele>1148</ele>
        <time>2020-09-05T11:37:38.000Z</time>
      </trkpt>
      <trkpt lat="44.13103" lon="6.81558">
        <ele>1147.5999755859</ele>
        <time>2020-09-05T11:37:50.000Z</time>
      </trkpt>
      <trkpt lat="44.13103" lon="6.81558">
        <ele>1147.5999755859</ele>
        <time>2020-09-05T11:38:00.000Z</time>
      </trkpt>
      <trkpt lat="44.13104" lon="6.81558">
        <ele>1147.8000488281</ele>
        <time>2020-09-05T11:38:09.000Z</time>
      </trkpt>
      <trkpt lat="44.13103" lon="6.81557">
        <ele>1148</ele>
        <time>2020-09-05T11:38:22.000Z</time>
      </trkpt>
      <trkpt lat="44.13102" lon="6.81556">
        <ele>1148.1999511719</ele>
        <time>2020-09-05T11:38:29.000Z</time>
      </trkpt>
      <trkpt lat="44.13102" lon="6.81556">
        <ele>1148.4000244141</ele>
        <time>2020-09-05T11:38:36.000Z</time>
      </trkpt>
      <trkpt lat="44.13102" lon="6.81555">
        <ele>1148.5999755859</ele>
        <time>2020-09-05T11:38:47.000Z</time>
      </trkpt>
      <trkpt lat="44.13102" lon="6.81555">
        <ele>1148.5999755859</ele>
        <time>2020-09-05T11:38:57.000Z</time>
      </trkpt>
      <trkpt lat="44.13103" lon="6.81556">
        <ele>1148.8000488281</ele>
        <time>2020-09-05T11:39:05.000Z</time>
      </trkpt>
      <trkpt lat="44.13103" lon="6.81556">
        <ele>1148.4000244141</ele>
        <time>2020-09-05T11:39:12.000Z</time>
      </trkpt>
      <trkpt lat="44.13103" lon="6.81556">
        <ele>1148.4000244141</ele>
        <time>2020-09-05T11:39:19.000Z</time>
      </trkpt>
      <trkpt lat="44.13102" lon="6.81556">
        <ele>1148.4000244141</ele>
        <time>2020-09-05T11:39:25.000Z</time>
      </trkpt>
      <trkpt lat="44.13102" lon="6.81558">
        <ele>1148.8000488281</ele>
        <time>2020-09-05T11:39:33.000Z</time>
      </trkpt>
      <trkpt lat="44.13102" lon="6.81558">
        <ele>1149</ele>
        <time>2020-09-05T11:39:34.000Z</time>
      </trkpt>
      <trkpt lat="44.13104" lon="6.8156">
        <ele>1149.8000488281</ele>
        <time>2020-09-05T11:39:40.000Z</time>
      </trkpt>
      <trkpt lat="44.13105" lon="6.81563">
        <ele>1150</ele>
        <time>2020-09-05T11:39:43.000Z</time>
      </trkpt>
      <trkpt lat="44.13106" lon="6.81562">
        <ele>1149.8000488281</ele>
        <time>2020-09-05T11:39:46.000Z</time>
      </trkpt>
      <trkpt lat="44.13106" lon="6.81564">
        <ele>1149.1999511719</ele>
        <time>2020-09-05T11:39:53.000Z</time>
      </trkpt>
      <trkpt lat="44.13106" lon="6.81567">
        <ele>1148.8000488281</ele>
        <time>2020-09-05T11:39:58.000Z</time>
      </trkpt>
      <trkpt lat="44.13106" lon="6.81567">
        <ele>1149</ele>
        <time>2020-09-05T11:39:59.000Z</time>
      </trkpt>
      <trkpt lat="44.13105" lon="6.81571">
        <ele>1149.1999511719</ele>
        <time>2020-09-05T11:40:03.000Z</time>
      </trkpt>
      <trkpt lat="44.13104" lon="6.81572">
        <ele>1149.4000244141</ele>
        <time>2020-09-05T11:40:05.000Z</time>
      </trkpt>
      <trkpt lat="44.13103" lon="6.81575">
        <ele>1150</ele>
        <time>2020-09-05T11:40:09.000Z</time>
      </trkpt>
      <trkpt lat="44.13103" lon="6.81575">
        <ele>1150.8000488281</ele>
        <time>2020-09-05T11:40:13.000Z</time>
      </trkpt>
      <trkpt lat="44.13097" lon="6.81578">
        <ele>1150.8000488281</ele>
        <time>2020-09-05T11:40:18.000Z</time>
      </trkpt>
      <trkpt lat="44.13091" lon="6.81587">
        <ele>1151.1999511719</ele>
        <time>2020-09-05T11:40:22.000Z</time>
      </trkpt>
      <trkpt lat="44.1309" lon="6.81588">
        <ele>1151.4000244141</ele>
        <time>2020-09-05T11:40:23.000Z</time>
      </trkpt>
      <trkpt lat="44.13088" lon="6.8159">
        <ele>1152.1999511719</ele>
        <time>2020-09-05T11:40:25.000Z</time>
      </trkpt>
      <trkpt lat="44.13088" lon="6.8159">
        <ele>1153.1999511719</ele>
        <time>2020-09-05T11:40:27.000Z</time>
      </trkpt>
      <trkpt lat="44.13088" lon="6.8159">
        <ele>1153.4000244141</ele>
        <time>2020-09-05T11:40:28.000Z</time>
      </trkpt>
      <trkpt lat="44.13089" lon="6.81592">
        <ele>1154.1999511719</ele>
        <time>2020-09-05T11:40:40.000Z</time>
      </trkpt>
      <trkpt lat="44.13087" lon="6.81591">
        <ele>1153.8000488281</ele>
        <time>2020-09-05T11:40:51.000Z</time>
      </trkpt>
      <trkpt lat="44.13087" lon="6.81592">
        <ele>1153.8000488281</ele>
        <time>2020-09-05T11:40:55.000Z</time>
      </trkpt>
      <trkpt lat="44.13083" lon="6.81594">
        <ele>1154</ele>
        <time>2020-09-05T11:40:58.000Z</time>
      </trkpt>
      <trkpt lat="44.13078" lon="6.816">
        <ele>1154.5999755859</ele>
        <time>2020-09-05T11:41:02.000Z</time>
      </trkpt>
      <trkpt lat="44.13076" lon="6.81604">
        <ele>1154.5999755859</ele>
        <time>2020-09-05T11:41:04.000Z</time>
      </trkpt>
      <trkpt lat="44.13072" lon="6.81624">
        <ele>1155.4000244141</ele>
        <time>2020-09-05T11:41:11.000Z</time>
      </trkpt>
      <trkpt lat="44.13072" lon="6.81627">
        <ele>1155.5999755859</ele>
        <time>2020-09-05T11:41:12.000Z</time>
      </trkpt>
      <trkpt lat="44.13071" lon="6.81643">
        <ele>1156.5999755859</ele>
        <time>2020-09-05T11:41:18.000Z</time>
      </trkpt>
      <trkpt lat="44.1307" lon="6.81646">
        <ele>1156.8000488281</ele>
        <time>2020-09-05T11:41:20.000Z</time>
      </trkpt>
      <trkpt lat="44.1307" lon="6.81651">
        <ele>1156.8000488281</ele>
        <time>2020-09-05T11:41:23.000Z</time>
      </trkpt>
      <trkpt lat="44.13068" lon="6.81661">
        <ele>1157.5999755859</ele>
        <time>2020-09-05T11:41:29.000Z</time>
      </trkpt>
      <trkpt lat="44.13067" lon="6.81664">
        <ele>1158</ele>
        <time>2020-09-05T11:41:30.000Z</time>
      </trkpt>
      <trkpt lat="44.13065" lon="6.81671">
        <ele>1158.8000488281</ele>
        <time>2020-09-05T11:41:33.000Z</time>
      </trkpt>
      <trkpt lat="44.13063" lon="6.81679">
        <ele>1159.1999511719</ele>
        <time>2020-09-05T11:41:36.000Z</time>
      </trkpt>
      <trkpt lat="44.13061" lon="6.81688">
        <ele>1159.8000488281</ele>
        <time>2020-09-05T11:41:39.000Z</time>
      </trkpt>
      <trkpt lat="44.13061" lon="6.81699">
        <ele>1160.1999511719</ele>
        <time>2020-09-05T11:41:43.000Z</time>
      </trkpt>
      <trkpt lat="44.13061" lon="6.8171">
        <ele>1161</ele>
        <time>2020-09-05T11:41:47.000Z</time>
      </trkpt>
      <trkpt lat="44.13062" lon="6.81714">
        <ele>1161.5999755859</ele>
        <time>2020-09-05T11:41:49.000Z</time>
      </trkpt>
      <trkpt lat="44.13062" lon="6.81719">
        <ele>1162</ele>
        <time>2020-09-05T11:41:51.000Z</time>
      </trkpt>
      <trkpt lat="44.13061" lon="6.81729">
        <ele>1162.8000488281</ele>
        <time>2020-09-05T11:41:55.000Z</time>
      </trkpt>
      <trkpt lat="44.1306" lon="6.81735">
        <ele>1163</ele>
        <time>2020-09-05T11:41:57.000Z</time>
      </trkpt>
      <trkpt lat="44.13059" lon="6.81747">
        <ele>1163.5999755859</ele>
        <time>2020-09-05T11:42:01.000Z</time>
      </trkpt>
      <trkpt lat="44.13057" lon="6.81756">
        <ele>1164</ele>
        <time>2020-09-05T11:42:04.000Z</time>
      </trkpt>
      <trkpt lat="44.13054" lon="6.8177">
        <ele>1165.1999511719</ele>
        <time>2020-09-05T11:42:09.000Z</time>
      </trkpt>
      <trkpt lat="44.13049" lon="6.81786">
        <ele>1166</ele>
        <time>2020-09-05T11:42:15.000Z</time>
      </trkpt>
      <trkpt lat="44.13048" lon="6.81791">
        <ele>1166.4000244141</ele>
        <time>2020-09-05T11:42:17.000Z</time>
      </trkpt>
      <trkpt lat="44.13046" lon="6.81802">
        <ele>1167.8000488281</ele>
        <time>2020-09-05T11:42:21.000Z</time>
      </trkpt>
      <trkpt lat="44.13045" lon="6.81805">
        <ele>1168</ele>
        <time>2020-09-05T11:42:22.000Z</time>
      </trkpt>
      <trkpt lat="44.13043" lon="6.81817">
        <ele>1168.8000488281</ele>
        <time>2020-09-05T11:42:26.000Z</time>
      </trkpt>
      <trkpt lat="44.1304" lon="6.81832">
        <ele>1170</ele>
        <time>2020-09-05T11:42:31.000Z</time>
      </trkpt>
      <trkpt lat="44.13039" lon="6.81857">
        <ele>1171</ele>
        <time>2020-09-05T11:42:39.000Z</time>
      </trkpt>
      <trkpt lat="44.1304" lon="6.8187">
        <ele>1172.1999511719</ele>
        <time>2020-09-05T11:42:43.000Z</time>
      </trkpt>
      <trkpt lat="44.13041" lon="6.81884">
        <ele>1173</ele>
        <time>2020-09-05T11:42:47.000Z</time>
      </trkpt>
      <trkpt lat="44.13043" lon="6.81894">
        <ele>1173.1999511719</ele>
        <time>2020-09-05T11:42:50.000Z</time>
      </trkpt>
      <trkpt lat="44.13043" lon="6.8191">
        <ele>1174.1999511719</ele>
        <time>2020-09-05T11:42:55.000Z</time>
      </trkpt>
      <trkpt lat="44.13043" lon="6.81913">
        <ele>1174.4000244141</ele>
        <time>2020-09-05T11:42:56.000Z</time>
      </trkpt>
      <trkpt lat="44.13047" lon="6.81926">
        <ele>1175.5999755859</ele>
        <time>2020-09-05T11:43:00.000Z</time>
      </trkpt>
      <trkpt lat="44.13049" lon="6.81929">
        <ele>1175.8000488281</ele>
        <time>2020-09-05T11:43:01.000Z</time>
      </trkpt>
      <trkpt lat="44.1305" lon="6.81947">
        <ele>1176.5999755859</ele>
        <time>2020-09-05T11:43:06.000Z</time>
      </trkpt>
      <trkpt lat="44.13051" lon="6.8195">
        <ele>1176.8000488281</ele>
        <time>2020-09-05T11:43:07.000Z</time>
      </trkpt>
      <trkpt lat="44.1305" lon="6.81964">
        <ele>1177.5999755859</ele>
        <time>2020-09-05T11:43:11.000Z</time>
      </trkpt>
      <trkpt lat="44.13054" lon="6.81984">
        <ele>1178.5999755859</ele>
        <time>2020-09-05T11:43:17.000Z</time>
      </trkpt>
      <trkpt lat="44.13057" lon="6.81993">
        <ele>1179.8000488281</ele>
        <time>2020-09-05T11:43:20.000Z</time>
      </trkpt>
      <trkpt lat="44.13059" lon="6.82008">
        <ele>1180.4000244141</ele>
        <time>2020-09-05T11:43:25.000Z</time>
      </trkpt>
      <trkpt lat="44.13061" lon="6.82016">
        <ele>1181</ele>
        <time>2020-09-05T11:43:28.000Z</time>
      </trkpt>
      <trkpt lat="44.13061" lon="6.82025">
        <ele>1182</ele>
        <time>2020-09-05T11:43:31.000Z</time>
      </trkpt>
      <trkpt lat="44.13062" lon="6.82039">
        <ele>1183.1999511719</ele>
        <time>2020-09-05T11:43:35.000Z</time>
      </trkpt>
      <trkpt lat="44.13062" lon="6.82045">
        <ele>1183.5999755859</ele>
        <time>2020-09-05T11:43:37.000Z</time>
      </trkpt>
      <trkpt lat="44.13064" lon="6.8206">
        <ele>1184</ele>
        <time>2020-09-05T11:43:42.000Z</time>
      </trkpt>
      <trkpt lat="44.13064" lon="6.82063">
        <ele>1184.4000244141</ele>
        <time>2020-09-05T11:43:43.000Z</time>
      </trkpt>
      <trkpt lat="44.13066" lon="6.82079">
        <ele>1185.1999511719</ele>
        <time>2020-09-05T11:43:48.000Z</time>
      </trkpt>
      <trkpt lat="44.13067" lon="6.82082">
        <ele>1185.4000244141</ele>
        <time>2020-09-05T11:43:49.000Z</time>
      </trkpt>
      <trkpt lat="44.13069" lon="6.82094">
        <ele>1187</ele>
        <time>2020-09-05T11:43:53.000Z</time>
      </trkpt>
      <trkpt lat="44.13071" lon="6.82099">
        <ele>1187.5999755859</ele>
        <time>2020-09-05T11:43:55.000Z</time>
      </trkpt>
      <trkpt lat="44.13072" lon="6.82102">
        <ele>1188</ele>
        <time>2020-09-05T11:43:56.000Z</time>
      </trkpt>
      <trkpt lat="44.13075" lon="6.82112">
        <ele>1189</ele>
        <time>2020-09-05T11:44:00.000Z</time>
      </trkpt>
      <trkpt lat="44.13077" lon="6.82114">
        <ele>1189</ele>
        <time>2020-09-05T11:44:01.000Z</time>
      </trkpt>
      <trkpt lat="44.13089" lon="6.8213">
        <ele>1189.8000488281</ele>
        <time>2020-09-05T11:44:08.000Z</time>
      </trkpt>
      <trkpt lat="44.1309" lon="6.82133">
        <ele>1190</ele>
        <time>2020-09-05T11:44:09.000Z</time>
      </trkpt>
      <trkpt lat="44.13098" lon="6.82145">
        <ele>1191</ele>
        <time>2020-09-05T11:44:14.000Z</time>
      </trkpt>
      <trkpt lat="44.13099" lon="6.82147">
        <ele>1191.4000244141</ele>
        <time>2020-09-05T11:44:15.000Z</time>
      </trkpt>
      <trkpt lat="44.13103" lon="6.82153">
        <ele>1192.1999511719</ele>
        <time>2020-09-05T11:44:18.000Z</time>
      </trkpt>
      <trkpt lat="44.13106" lon="6.82159">
        <ele>1192.8000488281</ele>
        <time>2020-09-05T11:44:21.000Z</time>
      </trkpt>
      <trkpt lat="44.13106" lon="6.82164">
        <ele>1193.1999511719</ele>
        <time>2020-09-05T11:44:23.000Z</time>
      </trkpt>
      <trkpt lat="44.13107" lon="6.82174">
        <ele>1194</ele>
        <time>2020-09-05T11:44:26.000Z</time>
      </trkpt>
      <trkpt lat="44.13106" lon="6.82177">
        <ele>1194.1999511719</ele>
        <time>2020-09-05T11:44:27.000Z</time>
      </trkpt>
      <trkpt lat="44.13106" lon="6.82184">
        <ele>1195</ele>
        <time>2020-09-05T11:44:29.000Z</time>
      </trkpt>
      <trkpt lat="44.13105" lon="6.8219">
        <ele>1195.5999755859</ele>
        <time>2020-09-05T11:44:31.000Z</time>
      </trkpt>
      <trkpt lat="44.13105" lon="6.82194">
        <ele>1195.8000488281</ele>
        <time>2020-09-05T11:44:32.000Z</time>
      </trkpt>
      <trkpt lat="44.13099" lon="6.82207">
        <ele>1196.5999755859</ele>
        <time>2020-09-05T11:44:37.000Z</time>
      </trkpt>
      <trkpt lat="44.13097" lon="6.82208">
        <ele>1196.8000488281</ele>
        <time>2020-09-05T11:44:38.000Z</time>
      </trkpt>
      <trkpt lat="44.13089" lon="6.82221">
        <ele>1198</ele>
        <time>2020-09-05T11:44:43.000Z</time>
      </trkpt>
      <trkpt lat="44.13086" lon="6.82237">
        <ele>1199.1999511719</ele>
        <time>2020-09-05T11:44:48.000Z</time>
      </trkpt>
      <trkpt lat="44.13086" lon="6.8224">
        <ele>1199.4000244141</ele>
        <time>2020-09-05T11:44:49.000Z</time>
      </trkpt>
      <trkpt lat="44.13086" lon="6.8225">
        <ele>1200.1999511719</ele>
        <time>2020-09-05T11:44:52.000Z</time>
      </trkpt>
      <trkpt lat="44.13083" lon="6.82263">
        <ele>1201</ele>
        <time>2020-09-05T11:44:56.000Z</time>
      </trkpt>
      <trkpt lat="44.13081" lon="6.82269">
        <ele>1201.1999511719</ele>
        <time>2020-09-05T11:44:58.000Z</time>
      </trkpt>
      <trkpt lat="44.13078" lon="6.82282">
        <ele>1201.8000488281</ele>
        <time>2020-09-05T11:45:02.000Z</time>
      </trkpt>
      <trkpt lat="44.13077" lon="6.82288">
        <ele>1202.4000244141</ele>
        <time>2020-09-05T11:45:04.000Z</time>
      </trkpt>
      <trkpt lat="44.13075" lon="6.82301">
        <ele>1203.5999755859</ele>
        <time>2020-09-05T11:45:08.000Z</time>
      </trkpt>
      <trkpt lat="44.13074" lon="6.82307">
        <ele>1204</ele>
        <time>2020-09-05T11:45:10.000Z</time>
      </trkpt>
      <trkpt lat="44.13073" lon="6.82317">
        <ele>1204.8000488281</ele>
        <time>2020-09-05T11:45:13.000Z</time>
      </trkpt>
      <trkpt lat="44.13075" lon="6.82329">
        <ele>1205.1999511719</ele>
        <time>2020-09-05T11:45:17.000Z</time>
      </trkpt>
      <trkpt lat="44.13076" lon="6.82342">
        <ele>1205.8000488281</ele>
        <time>2020-09-05T11:45:21.000Z</time>
      </trkpt>
      <trkpt lat="44.13077" lon="6.82352">
        <ele>1207</ele>
        <time>2020-09-05T11:45:24.000Z</time>
      </trkpt>
      <trkpt lat="44.13079" lon="6.82365">
        <ele>1208.1999511719</ele>
        <time>2020-09-05T11:45:28.000Z</time>
      </trkpt>
      <trkpt lat="44.13081" lon="6.82371">
        <ele>1208.5999755859</ele>
        <time>2020-09-05T11:45:30.000Z</time>
      </trkpt>
      <trkpt lat="44.13083" lon="6.82386">
        <ele>1209.1999511719</ele>
        <time>2020-09-05T11:45:35.000Z</time>
      </trkpt>
      <trkpt lat="44.13084" lon="6.82389">
        <ele>1209.5999755859</ele>
        <time>2020-09-05T11:45:36.000Z</time>
      </trkpt>
      <trkpt lat="44.13084" lon="6.82393">
        <ele>1209.8000488281</ele>
        <time>2020-09-05T11:45:37.000Z</time>
      </trkpt>
      <trkpt lat="44.13082" lon="6.82402">
        <ele>1210.4000244141</ele>
        <time>2020-09-05T11:45:40.000Z</time>
      </trkpt>
      <trkpt lat="44.13081" lon="6.82405">
        <ele>1210.4000244141</ele>
        <time>2020-09-05T11:45:41.000Z</time>
      </trkpt>
      <trkpt lat="44.13074" lon="6.82413">
        <ele>1211.1999511719</ele>
        <time>2020-09-05T11:45:46.000Z</time>
      </trkpt>
      <trkpt lat="44.13072" lon="6.82414">
        <ele>1211.5999755859</ele>
        <time>2020-09-05T11:45:47.000Z</time>
      </trkpt>
      <trkpt lat="44.13064" lon="6.8242">
        <ele>1212.4000244141</ele>
        <time>2020-09-05T11:45:51.000Z</time>
      </trkpt>
      <trkpt lat="44.13062" lon="6.82422">
        <ele>1212.8000488281</ele>
        <time>2020-09-05T11:45:52.000Z</time>
      </trkpt>
      <trkpt lat="44.13058" lon="6.8243">
        <ele>1213.8000488281</ele>
        <time>2020-09-05T11:45:55.000Z</time>
      </trkpt>
      <trkpt lat="44.13056" lon="6.82435">
        <ele>1214.5999755859</ele>
        <time>2020-09-05T11:45:57.000Z</time>
      </trkpt>
      <trkpt lat="44.13055" lon="6.82438">
        <ele>1214.8000488281</ele>
        <time>2020-09-05T11:45:58.000Z</time>
      </trkpt>
      <trkpt lat="44.13055" lon="6.82454">
        <ele>1215.8000488281</ele>
        <time>2020-09-05T11:46:03.000Z</time>
      </trkpt>
      <trkpt lat="44.13056" lon="6.82456">
        <ele>1216.1999511719</ele>
        <time>2020-09-05T11:46:04.000Z</time>
      </trkpt>
      <trkpt lat="44.13063" lon="6.82463">
        <ele>1216.5999755859</ele>
        <time>2020-09-05T11:46:08.000Z</time>
      </trkpt>
      <trkpt lat="44.13071" lon="6.8247">
        <ele>1217.4000244141</ele>
        <time>2020-09-05T11:46:13.000Z</time>
      </trkpt>
      <trkpt lat="44.13073" lon="6.82472">
        <ele>1218</ele>
        <time>2020-09-05T11:46:15.000Z</time>
      </trkpt>
      <trkpt lat="44.13077" lon="6.82474">
        <ele>1218.5999755859</ele>
        <time>2020-09-05T11:46:17.000Z</time>
      </trkpt>
      <trkpt lat="44.13083" lon="6.82478">
        <ele>1219.8000488281</ele>
        <time>2020-09-05T11:46:21.000Z</time>
      </trkpt>
      <trkpt lat="44.1309" lon="6.82487">
        <ele>1220.8000488281</ele>
        <time>2020-09-05T11:46:26.000Z</time>
      </trkpt>
      <trkpt lat="44.13091" lon="6.8249">
        <ele>1221</ele>
        <time>2020-09-05T11:46:27.000Z</time>
      </trkpt>
      <trkpt lat="44.13095" lon="6.82502">
        <ele>1222</ele>
        <time>2020-09-05T11:46:33.000Z</time>
      </trkpt>
      <trkpt lat="44.13096" lon="6.82505">
        <ele>1222.8000488281</ele>
        <time>2020-09-05T11:46:39.000Z</time>
      </trkpt>
      <trkpt lat="44.13097" lon="6.8251">
        <ele>1223</ele>
        <time>2020-09-05T11:46:46.000Z</time>
      </trkpt>
      <trkpt lat="44.13102" lon="6.82518">
        <ele>1224.1999511719</ele>
        <time>2020-09-05T11:46:55.000Z</time>
      </trkpt>
      <trkpt lat="44.13104" lon="6.82522">
        <ele>1224.4000244141</ele>
        <time>2020-09-05T11:47:01.000Z</time>
      </trkpt>
      <trkpt lat="44.13108" lon="6.82532">
        <ele>1224.4000244141</ele>
        <time>2020-09-05T11:47:05.000Z</time>
      </trkpt>
      <trkpt lat="44.13112" lon="6.82544">
        <ele>1224.8000488281</ele>
        <time>2020-09-05T11:47:10.000Z</time>
      </trkpt>
      <trkpt lat="44.13112" lon="6.82549">
        <ele>1225</ele>
        <time>2020-09-05T11:47:12.000Z</time>
      </trkpt>
      <trkpt lat="44.13112" lon="6.82551">
        <ele>1225.4000244141</ele>
        <time>2020-09-05T11:47:13.000Z</time>
      </trkpt>
      <trkpt lat="44.13113" lon="6.82552">
        <ele>1226</ele>
        <time>2020-09-05T11:47:15.000Z</time>
      </trkpt>
      <trkpt lat="44.13113" lon="6.82553">
        <ele>1226.4000244141</ele>
        <time>2020-09-05T11:47:17.000Z</time>
      </trkpt>
      <trkpt lat="44.13113" lon="6.82555">
        <ele>1226.8000488281</ele>
        <time>2020-09-05T11:47:22.000Z</time>
      </trkpt>
      <trkpt lat="44.13116" lon="6.82558">
        <ele>1226.8000488281</ele>
        <time>2020-09-05T11:47:31.000Z</time>
      </trkpt>
      <trkpt lat="44.13117" lon="6.82561">
        <ele>1227.4000244141</ele>
        <time>2020-09-05T11:47:36.000Z</time>
      </trkpt>
      <trkpt lat="44.13117" lon="6.82563">
        <ele>1227.5999755859</ele>
        <time>2020-09-05T11:47:39.000Z</time>
      </trkpt>
      <trkpt lat="44.13117" lon="6.82567">
        <ele>1228.4000244141</ele>
        <time>2020-09-05T11:47:43.000Z</time>
      </trkpt>
      <trkpt lat="44.13117" lon="6.82569">
        <ele>1228.5999755859</ele>
        <time>2020-09-05T11:47:47.000Z</time>
      </trkpt>
      <trkpt lat="44.13118" lon="6.82571">
        <ele>1228.8000488281</ele>
        <time>2020-09-05T11:47:53.000Z</time>
      </trkpt>
      <trkpt lat="44.13118" lon="6.82573">
        <ele>1228.8000488281</ele>
        <time>2020-09-05T11:47:55.000Z</time>
      </trkpt>
      <trkpt lat="44.13119" lon="6.82578">
        <ele>1228.8000488281</ele>
        <time>2020-09-05T11:47:58.000Z</time>
      </trkpt>
      <trkpt lat="44.1312" lon="6.82582">
        <ele>1229</ele>
        <time>2020-09-05T11:48:00.000Z</time>
      </trkpt>
      <trkpt lat="44.1312" lon="6.82584">
        <ele>1228.8000488281</ele>
        <time>2020-09-05T11:48:01.000Z</time>
      </trkpt>
      <trkpt lat="44.13122" lon="6.82586">
        <ele>1228.8000488281</ele>
        <time>2020-09-05T11:48:04.000Z</time>
      </trkpt>
      <trkpt lat="44.13123" lon="6.82589">
        <ele>1229.1999511719</ele>
        <time>2020-09-05T11:48:10.000Z</time>
      </trkpt>
      <trkpt lat="44.13125" lon="6.8259">
        <ele>1229</ele>
        <time>2020-09-05T11:48:18.000Z</time>
      </trkpt>
      <trkpt lat="44.13126" lon="6.8259">
        <ele>1229.4000244141</ele>
        <time>2020-09-05T11:48:24.000Z</time>
      </trkpt>
      <trkpt lat="44.13127" lon="6.8259">
        <ele>1230</ele>
        <time>2020-09-05T11:48:27.000Z</time>
      </trkpt>
      <trkpt lat="44.13129" lon="6.82589">
        <ele>1230.4000244141</ele>
        <time>2020-09-05T11:48:35.000Z</time>
      </trkpt>
      <trkpt lat="44.13129" lon="6.82589">
        <ele>1230.4000244141</ele>
        <time>2020-09-05T11:48:36.000Z</time>
      </trkpt>
      <trkpt lat="44.13129" lon="6.82591">
        <ele>1230.5999755859</ele>
        <time>2020-09-05T11:48:43.000Z</time>
      </trkpt>
      <trkpt lat="44.1313" lon="6.8259">
        <ele>1230.8000488281</ele>
        <time>2020-09-05T11:48:49.000Z</time>
      </trkpt>
      <trkpt lat="44.13131" lon="6.8259">
        <ele>1231.5999755859</ele>
        <time>2020-09-05T11:48:53.000Z</time>
      </trkpt>
      <trkpt lat="44.13131" lon="6.82589">
        <ele>1232.1999511719</ele>
        <time>2020-09-05T11:48:55.000Z</time>
      </trkpt>
      <trkpt lat="44.13132" lon="6.82589">
        <ele>1232.5999755859</ele>
        <time>2020-09-05T11:48:57.000Z</time>
      </trkpt>
      <trkpt lat="44.13134" lon="6.82588">
        <ele>1233.1999511719</ele>
        <time>2020-09-05T11:49:01.000Z</time>
      </trkpt>
      <trkpt lat="44.13136" lon="6.82588">
        <ele>1233.8000488281</ele>
        <time>2020-09-05T11:49:04.000Z</time>
      </trkpt>
      <trkpt lat="44.13137" lon="6.82588">
        <ele>1234.4000244141</ele>
        <time>2020-09-05T11:49:07.000Z</time>
      </trkpt>
      <trkpt lat="44.13138" lon="6.82589">
        <ele>1235</ele>
        <time>2020-09-05T11:49:10.000Z</time>
      </trkpt>
      <trkpt lat="44.13138" lon="6.82589">
        <ele>1235.4000244141</ele>
        <time>2020-09-05T11:49:15.000Z</time>
      </trkpt>
      <trkpt lat="44.13136" lon="6.82585">
        <ele>1236</ele>
        <time>2020-09-05T11:49:23.000Z</time>
      </trkpt>
      <trkpt lat="44.13134" lon="6.82584">
        <ele>1236.8000488281</ele>
        <time>2020-09-05T11:49:31.000Z</time>
      </trkpt>
      <trkpt lat="44.13134" lon="6.82585">
        <ele>1237</ele>
        <time>2020-09-05T11:49:37.000Z</time>
      </trkpt>
      <trkpt lat="44.13132" lon="6.82584">
        <ele>1237.1999511719</ele>
        <time>2020-09-05T11:49:41.000Z</time>
      </trkpt>
      <trkpt lat="44.13131" lon="6.82579">
        <ele>1237.4000244141</ele>
        <time>2020-09-05T11:49:44.000Z</time>
      </trkpt>
      <trkpt lat="44.13131" lon="6.82577">
        <ele>1237.5999755859</ele>
        <time>2020-09-05T11:49:45.000Z</time>
      </trkpt>
      <trkpt lat="44.13135" lon="6.82576">
        <ele>1238</ele>
        <time>2020-09-05T11:49:47.000Z</time>
      </trkpt>
      <trkpt lat="44.13136" lon="6.82576">
        <ele>1238.4000244141</ele>
        <time>2020-09-05T11:49:48.000Z</time>
      </trkpt>
      <trkpt lat="44.13137" lon="6.82576">
        <ele>1239</ele>
        <time>2020-09-05T11:49:49.000Z</time>
      </trkpt>
      <trkpt lat="44.13142" lon="6.82579">
        <ele>1240.4000244141</ele>
        <time>2020-09-05T11:49:52.000Z</time>
      </trkpt>
      <trkpt lat="44.13144" lon="6.82583">
        <ele>1240.8000488281</ele>
        <time>2020-09-05T11:49:54.000Z</time>
      </trkpt>
      <trkpt lat="44.13146" lon="6.82588">
        <ele>1241.1999511719</ele>
        <time>2020-09-05T11:49:57.000Z</time>
      </trkpt>
      <trkpt lat="44.13148" lon="6.82591">
        <ele>1241.4000244141</ele>
        <time>2020-09-05T11:49:59.000Z</time>
      </trkpt>
      <trkpt lat="44.13159" lon="6.82602">
        <ele>1242</ele>
        <time>2020-09-05T11:50:07.000Z</time>
      </trkpt>
      <trkpt lat="44.13164" lon="6.8261">
        <ele>1242.4000244141</ele>
        <time>2020-09-05T11:50:11.000Z</time>
      </trkpt>
      <trkpt lat="44.13165" lon="6.82617">
        <ele>1242.8000488281</ele>
        <time>2020-09-05T11:50:14.000Z</time>
      </trkpt>
      <trkpt lat="44.13173" lon="6.82631">
        <ele>1243.4000244141</ele>
        <time>2020-09-05T11:50:21.000Z</time>
      </trkpt>
      <trkpt lat="44.13174" lon="6.82633">
        <ele>1243.5999755859</ele>
        <time>2020-09-05T11:50:22.000Z</time>
      </trkpt>
      <trkpt lat="44.1318" lon="6.82644">
        <ele>1244.5999755859</ele>
        <time>2020-09-05T11:50:27.000Z</time>
      </trkpt>
      <trkpt lat="44.13182" lon="6.82651">
        <ele>1245</ele>
        <time>2020-09-05T11:50:30.000Z</time>
      </trkpt>
      <trkpt lat="44.1319" lon="6.82669">
        <ele>1245.4000244141</ele>
        <time>2020-09-05T11:50:38.000Z</time>
      </trkpt>
      <trkpt lat="44.13191" lon="6.82671">
        <ele>1245.5999755859</ele>
        <time>2020-09-05T11:50:39.000Z</time>
      </trkpt>
      <trkpt lat="44.13196" lon="6.82679">
        <ele>1246.8000488281</ele>
        <time>2020-09-05T11:50:43.000Z</time>
      </trkpt>
      <trkpt lat="44.13201" lon="6.82688">
        <ele>1247.8000488281</ele>
        <time>2020-09-05T11:50:47.000Z</time>
      </trkpt>
      <trkpt lat="44.13202" lon="6.82693">
        <ele>1248</ele>
        <time>2020-09-05T11:50:49.000Z</time>
      </trkpt>
      <trkpt lat="44.13209" lon="6.82702">
        <ele>1248.5999755859</ele>
        <time>2020-09-05T11:50:54.000Z</time>
      </trkpt>
      <trkpt lat="44.13215" lon="6.82705">
        <ele>1249</ele>
        <time>2020-09-05T11:50:57.000Z</time>
      </trkpt>
      <trkpt lat="44.13222" lon="6.8271">
        <ele>1249.5999755859</ele>
        <time>2020-09-05T11:51:01.000Z</time>
      </trkpt>
      <trkpt lat="44.13231" lon="6.82714">
        <ele>1250.1999511719</ele>
        <time>2020-09-05T11:51:05.000Z</time>
      </trkpt>
      <trkpt lat="44.13235" lon="6.82717">
        <ele>1250.4000244141</ele>
        <time>2020-09-05T11:51:07.000Z</time>
      </trkpt>
      <trkpt lat="44.13254" lon="6.82728">
        <ele>1251</ele>
        <time>2020-09-05T11:51:15.000Z</time>
      </trkpt>
      <trkpt lat="44.13256" lon="6.82729">
        <ele>1251.1999511719</ele>
        <time>2020-09-05T11:51:16.000Z</time>
      </trkpt>
      <trkpt lat="44.13269" lon="6.8274">
        <ele>1252</ele>
        <time>2020-09-05T11:51:22.000Z</time>
      </trkpt>
      <trkpt lat="44.13275" lon="6.82743">
        <ele>1252.4000244141</ele>
        <time>2020-09-05T11:51:24.000Z</time>
      </trkpt>
      <trkpt lat="44.13284" lon="6.82747">
        <ele>1253</ele>
        <time>2020-09-05T11:51:27.000Z</time>
      </trkpt>
      <trkpt lat="44.13293" lon="6.82751">
        <ele>1253.4000244141</ele>
        <time>2020-09-05T11:51:30.000Z</time>
      </trkpt>
      <trkpt lat="44.13308" lon="6.82762">
        <ele>1254.1999511719</ele>
        <time>2020-09-05T11:51:35.000Z</time>
      </trkpt>
      <trkpt lat="44.1331" lon="6.82765">
        <ele>1254.5999755859</ele>
        <time>2020-09-05T11:51:36.000Z</time>
      </trkpt>
      <trkpt lat="44.13326" lon="6.82779">
        <ele>1255.4000244141</ele>
        <time>2020-09-05T11:51:41.000Z</time>
      </trkpt>
      <trkpt lat="44.13328" lon="6.82782">
        <ele>1255.8000488281</ele>
        <time>2020-09-05T11:51:42.000Z</time>
      </trkpt>
      <trkpt lat="44.13341" lon="6.828">
        <ele>1256.4000244141</ele>
        <time>2020-09-05T11:51:47.000Z</time>
      </trkpt>
      <trkpt lat="44.13347" lon="6.82806">
        <ele>1257</ele>
        <time>2020-09-05T11:51:49.000Z</time>
      </trkpt>
      <trkpt lat="44.1335" lon="6.82813">
        <ele>1257.4000244141</ele>
        <time>2020-09-05T11:51:51.000Z</time>
      </trkpt>
      <trkpt lat="44.1335" lon="6.82817">
        <ele>1257.5999755859</ele>
        <time>2020-09-05T11:51:52.000Z</time>
      </trkpt>
      <trkpt lat="44.13348" lon="6.82824">
        <ele>1258.4000244141</ele>
        <time>2020-09-05T11:51:54.000Z</time>
      </trkpt>
      <trkpt lat="44.13345" lon="6.82827">
        <ele>1258.5999755859</ele>
        <time>2020-09-05T11:51:55.000Z</time>
      </trkpt>
      <trkpt lat="44.1334" lon="6.8283">
        <ele>1259.5999755859</ele>
        <time>2020-09-05T11:51:57.000Z</time>
      </trkpt>
      <trkpt lat="44.13331" lon="6.82833">
        <ele>1260.8000488281</ele>
        <time>2020-09-05T11:52:00.000Z</time>
      </trkpt>
      <trkpt lat="44.13328" lon="6.82833">
        <ele>1261</ele>
        <time>2020-09-05T11:52:01.000Z</time>
      </trkpt>
      <trkpt lat="44.13305" lon="6.82837">
        <ele>1261.8000488281</ele>
        <time>2020-09-05T11:52:08.000Z</time>
      </trkpt>
      <trkpt lat="44.13289" lon="6.82836">
        <ele>1263</ele>
        <time>2020-09-05T11:52:13.000Z</time>
      </trkpt>
      <trkpt lat="44.13282" lon="6.82848">
        <ele>1263.4000244141</ele>
        <time>2020-09-05T11:52:17.000Z</time>
      </trkpt>
      <trkpt lat="44.13281" lon="6.82852">
        <ele>1263.4000244141</ele>
        <time>2020-09-05T11:52:18.000Z</time>
      </trkpt>
      <trkpt lat="44.13278" lon="6.82864">
        <ele>1264</ele>
        <time>2020-09-05T11:52:21.000Z</time>
      </trkpt>
      <trkpt lat="44.13274" lon="6.82881">
        <ele>1264.5999755859</ele>
        <time>2020-09-05T11:52:25.000Z</time>
      </trkpt>
      <trkpt lat="44.13272" lon="6.8289">
        <ele>1265.1999511719</ele>
        <time>2020-09-05T11:52:27.000Z</time>
      </trkpt>
      <trkpt lat="44.1327" lon="6.82903">
        <ele>1266.4000244141</ele>
        <time>2020-09-05T11:52:30.000Z</time>
      </trkpt>
      <trkpt lat="44.13264" lon="6.82926">
        <ele>1267.5999755859</ele>
        <time>2020-09-05T11:52:35.000Z</time>
      </trkpt>
      <trkpt lat="44.13259" lon="6.82933">
        <ele>1268</ele>
        <time>2020-09-05T11:52:37.000Z</time>
      </trkpt>
      <trkpt lat="44.13248" lon="6.82939">
        <ele>1269</ele>
        <time>2020-09-05T11:52:40.000Z</time>
      </trkpt>
      <trkpt lat="44.13244" lon="6.82939">
        <ele>1269.1999511719</ele>
        <time>2020-09-05T11:52:41.000Z</time>
      </trkpt>
      <trkpt lat="44.13228" lon="6.82935">
        <ele>1270</ele>
        <time>2020-09-05T11:52:45.000Z</time>
      </trkpt>
      <trkpt lat="44.13224" lon="6.82934">
        <ele>1270</ele>
        <time>2020-09-05T11:52:46.000Z</time>
      </trkpt>
      <trkpt lat="44.13213" lon="6.82935">
        <ele>1270.1999511719</ele>
        <time>2020-09-05T11:52:49.000Z</time>
      </trkpt>
      <trkpt lat="44.13211" lon="6.82938">
        <ele>1270.4000244141</ele>
        <time>2020-09-05T11:52:50.000Z</time>
      </trkpt>
      <trkpt lat="44.13207" lon="6.82958">
        <ele>1271</ele>
        <time>2020-09-05T11:52:55.000Z</time>
      </trkpt>
      <trkpt lat="44.13207" lon="6.82963">
        <ele>1271.1999511719</ele>
        <time>2020-09-05T11:52:56.000Z</time>
      </trkpt>
      <trkpt lat="44.13201" lon="6.8298">
        <ele>1271.8000488281</ele>
        <time>2020-09-05T11:53:00.000Z</time>
      </trkpt>
      <trkpt lat="44.13184" lon="6.82998">
        <ele>1272.4000244141</ele>
        <time>2020-09-05T11:53:05.000Z</time>
      </trkpt>
      <trkpt lat="44.13181" lon="6.83001">
        <ele>1272.1999511719</ele>
        <time>2020-09-05T11:53:06.000Z</time>
      </trkpt>
      <trkpt lat="44.13175" lon="6.8301">
        <ele>1272.5999755859</ele>
        <time>2020-09-05T11:53:08.000Z</time>
      </trkpt>
      <trkpt lat="44.13163" lon="6.83016">
        <ele>1273.4000244141</ele>
        <time>2020-09-05T11:53:11.000Z</time>
      </trkpt>
      <trkpt lat="44.13148" lon="6.83013">
        <ele>1274.4000244141</ele>
        <time>2020-09-05T11:53:14.000Z</time>
      </trkpt>
      <trkpt lat="44.13144" lon="6.83013">
        <ele>1274.5999755859</ele>
        <time>2020-09-05T11:53:15.000Z</time>
      </trkpt>
      <trkpt lat="44.13132" lon="6.83019">
        <ele>1274.8000488281</ele>
        <time>2020-09-05T11:53:18.000Z</time>
      </trkpt>
      <trkpt lat="44.13129" lon="6.83022">
        <ele>1275</ele>
        <time>2020-09-05T11:53:19.000Z</time>
      </trkpt>
      <trkpt lat="44.13125" lon="6.83026">
        <ele>1275.1999511719</ele>
        <time>2020-09-05T11:53:20.000Z</time>
      </trkpt>
      <trkpt lat="44.13121" lon="6.83041">
        <ele>1275.4000244141</ele>
        <time>2020-09-05T11:53:23.000Z</time>
      </trkpt>
      <trkpt lat="44.1312" lon="6.83046">
        <ele>1275.5999755859</ele>
        <time>2020-09-05T11:53:24.000Z</time>
      </trkpt>
      <trkpt lat="44.13117" lon="6.83076">
        <ele>1276.1999511719</ele>
        <time>2020-09-05T11:53:29.000Z</time>
      </trkpt>
      <trkpt lat="44.13113" lon="6.8309">
        <ele>1276.5999755859</ele>
        <time>2020-09-05T11:53:32.000Z</time>
      </trkpt>
      <trkpt lat="44.13111" lon="6.83093">
        <ele>1276.8000488281</ele>
        <time>2020-09-05T11:53:33.000Z</time>
      </trkpt>
      <trkpt lat="44.13097" lon="6.83098">
        <ele>1277.1999511719</ele>
        <time>2020-09-05T11:53:37.000Z</time>
      </trkpt>
      <trkpt lat="44.13078" lon="6.83104">
        <ele>1277.8000488281</ele>
        <time>2020-09-05T11:53:44.000Z</time>
      </trkpt>
      <trkpt lat="44.13066" lon="6.83104">
        <ele>1278.4000244141</ele>
        <time>2020-09-05T11:53:50.000Z</time>
      </trkpt>
      <trkpt lat="44.13065" lon="6.83103">
        <ele>1278.4000244141</ele>
        <time>2020-09-05T11:53:51.000Z</time>
      </trkpt>
      <trkpt lat="44.1306" lon="6.83099">
        <ele>1278.5999755859</ele>
        <time>2020-09-05T11:53:54.000Z</time>
      </trkpt>
      <trkpt lat="44.13057" lon="6.83097">
        <ele>1278.8000488281</ele>
        <time>2020-09-05T11:53:56.000Z</time>
      </trkpt>
      <trkpt lat="44.13053" lon="6.83094">
        <ele>1279.8000488281</ele>
        <time>2020-09-05T11:54:00.000Z</time>
      </trkpt>
      <trkpt lat="44.13053" lon="6.83093">
        <ele>1280</ele>
        <time>2020-09-05T11:54:01.000Z</time>
      </trkpt>
      <trkpt lat="44.13053" lon="6.83093">
        <ele>1280</ele>
        <time>2020-09-05T11:54:05.000Z</time>
      </trkpt>
      <trkpt lat="44.13052" lon="6.83094">
        <ele>1280</ele>
        <time>2020-09-05T11:54:11.000Z</time>
      </trkpt>
      <trkpt lat="44.13052" lon="6.83094">
        <ele>1280</ele>
        <time>2020-09-05T11:54:20.000Z</time>
      </trkpt>
      <trkpt lat="44.13052" lon="6.83095">
        <ele>1280</ele>
        <time>2020-09-05T11:54:32.000Z</time>
      </trkpt>
      <trkpt lat="44.13053" lon="6.83094">
        <ele>1279.8000488281</ele>
        <time>2020-09-05T11:54:44.000Z</time>
      </trkpt>
      <trkpt lat="44.13054" lon="6.83094">
        <ele>1280</ele>
        <time>2020-09-05T11:54:59.000Z</time>
      </trkpt>
      <trkpt lat="44.13053" lon="6.83094">
        <ele>1280.1999511719</ele>
        <time>2020-09-05T11:55:13.000Z</time>
      </trkpt>
      <trkpt lat="44.13054" lon="6.83094">
        <ele>1280</ele>
        <time>2020-09-05T11:55:20.000Z</time>
      </trkpt>
      <trkpt lat="44.13055" lon="6.83093">
        <ele>1279.8000488281</ele>
        <time>2020-09-05T11:55:29.000Z</time>
      </trkpt>
      <trkpt lat="44.13056" lon="6.83093">
        <ele>1279.8000488281</ele>
        <time>2020-09-05T11:55:37.000Z</time>
      </trkpt>
      <trkpt lat="44.13055" lon="6.83094">
        <ele>1280.1999511719</ele>
        <time>2020-09-05T11:55:46.000Z</time>
      </trkpt>
      <trkpt lat="44.13055" lon="6.83094">
        <ele>1280.1999511719</ele>
        <time>2020-09-05T11:55:58.000Z</time>
      </trkpt>
      <trkpt lat="44.13054" lon="6.83096">
        <ele>1280</ele>
        <time>2020-09-05T11:56:13.000Z</time>
      </trkpt>
      <trkpt lat="44.13053" lon="6.83097">
        <ele>1280</ele>
        <time>2020-09-05T11:56:23.000Z</time>
      </trkpt>
      <trkpt lat="44.13054" lon="6.83097">
        <ele>1280</ele>
        <time>2020-09-05T11:56:38.000Z</time>
      </trkpt>
      <trkpt lat="44.13055" lon="6.83096">
        <ele>1280</ele>
        <time>2020-09-05T11:56:50.000Z</time>
      </trkpt>
      <trkpt lat="44.13056" lon="6.83096">
        <ele>1280</ele>
        <time>2020-09-05T11:57:01.000Z</time>
      </trkpt>
      <trkpt lat="44.13057" lon="6.83094">
        <ele>1280.1999511719</ele>
        <time>2020-09-05T11:57:08.000Z</time>
      </trkpt>
      <trkpt lat="44.13058" lon="6.83095">
        <ele>1280</ele>
        <time>2020-09-05T11:57:23.000Z</time>
      </trkpt>
      <trkpt lat="44.13057" lon="6.83096">
        <ele>1279.8000488281</ele>
        <time>2020-09-05T11:57:42.000Z</time>
      </trkpt>
      <trkpt lat="44.13058" lon="6.83095">
        <ele>1279.8000488281</ele>
        <time>2020-09-05T11:57:54.000Z</time>
      </trkpt>
      <trkpt lat="44.13057" lon="6.83096">
        <ele>1280</ele>
        <time>2020-09-05T11:58:04.000Z</time>
      </trkpt>
      <trkpt lat="44.13056" lon="6.83098">
        <ele>1280</ele>
        <time>2020-09-05T11:58:18.000Z</time>
      </trkpt>
      <trkpt lat="44.13055" lon="6.83099">
        <ele>1280</ele>
        <time>2020-09-05T11:58:27.000Z</time>
      </trkpt>
      <trkpt lat="44.13053" lon="6.831">
        <ele>1280.1999511719</ele>
        <time>2020-09-05T11:58:34.000Z</time>
      </trkpt>
      <trkpt lat="44.13053" lon="6.831">
        <ele>1280.4000244141</ele>
        <time>2020-09-05T11:58:40.000Z</time>
      </trkpt>
      <trkpt lat="44.13052" lon="6.83098">
        <ele>1280.4000244141</ele>
        <time>2020-09-05T11:58:43.000Z</time>
      </trkpt>
      <trkpt lat="44.13051" lon="6.83092">
        <ele>1280.5999755859</ele>
        <time>2020-09-05T11:58:46.000Z</time>
      </trkpt>
      <trkpt lat="44.1305" lon="6.8309">
        <ele>1280.8000488281</ele>
        <time>2020-09-05T11:58:47.000Z</time>
      </trkpt>
      <trkpt lat="44.13048" lon="6.83084">
        <ele>1281</ele>
        <time>2020-09-05T11:58:49.000Z</time>
      </trkpt>
      <trkpt lat="44.13044" lon="6.83069">
        <ele>1281.5999755859</ele>
        <time>2020-09-05T11:58:54.000Z</time>
      </trkpt>
      <trkpt lat="44.13041" lon="6.8306">
        <ele>1282</ele>
        <time>2020-09-05T11:58:57.000Z</time>
      </trkpt>
      <trkpt lat="44.13036" lon="6.83052">
        <ele>1282.5999755859</ele>
        <time>2020-09-05T11:59:00.000Z</time>
      </trkpt>
      <trkpt lat="44.13032" lon="6.83048">
        <ele>1283.1999511719</ele>
        <time>2020-09-05T11:59:02.000Z</time>
      </trkpt>
      <trkpt lat="44.1302" lon="6.83042">
        <ele>1284.1999511719</ele>
        <time>2020-09-05T11:59:07.000Z</time>
      </trkpt>
      <trkpt lat="44.13017" lon="6.83041">
        <ele>1284.5999755859</ele>
        <time>2020-09-05T11:59:08.000Z</time>
      </trkpt>
      <trkpt lat="44.13008" lon="6.83048">
        <ele>1285</ele>
        <time>2020-09-05T11:59:12.000Z</time>
      </trkpt>
      <trkpt lat="44.13004" lon="6.83053">
        <ele>1285.4000244141</ele>
        <time>2020-09-05T11:59:14.000Z</time>
      </trkpt>
      <trkpt lat="44.12995" lon="6.83061">
        <ele>1286.5999755859</ele>
        <time>2020-09-05T11:59:18.000Z</time>
      </trkpt>
      <trkpt lat="44.12991" lon="6.83065">
        <ele>1287.4000244141</ele>
        <time>2020-09-05T11:59:20.000Z</time>
      </trkpt>
      <trkpt lat="44.12989" lon="6.83067">
        <ele>1287.5999755859</ele>
        <time>2020-09-05T11:59:21.000Z</time>
      </trkpt>
      <trkpt lat="44.1298" lon="6.83071">
        <ele>1288.5999755859</ele>
        <time>2020-09-05T11:59:25.000Z</time>
      </trkpt>
      <trkpt lat="44.12977" lon="6.83073">
        <ele>1288.8000488281</ele>
        <time>2020-09-05T11:59:26.000Z</time>
      </trkpt>
      <trkpt lat="44.12965" lon="6.83077">
        <ele>1289.5999755859</ele>
        <time>2020-09-05T11:59:31.000Z</time>
      </trkpt>
      <trkpt lat="44.12954" lon="6.83083">
        <ele>1290.8000488281</ele>
        <time>2020-09-05T11:59:35.000Z</time>
      </trkpt>
      <trkpt lat="44.12952" lon="6.83084">
        <ele>1291.1999511719</ele>
        <time>2020-09-05T11:59:36.000Z</time>
      </trkpt>
      <trkpt lat="44.1294" lon="6.83096">
        <ele>1291.8000488281</ele>
        <time>2020-09-05T11:59:41.000Z</time>
      </trkpt>
      <trkpt lat="44.12935" lon="6.83102">
        <ele>1292.1999511719</ele>
        <time>2020-09-05T11:59:43.000Z</time>
      </trkpt>
      <trkpt lat="44.12918" lon="6.83124">
        <ele>1293</ele>
        <time>2020-09-05T11:59:51.000Z</time>
      </trkpt>
      <trkpt lat="44.12912" lon="6.83131">
        <ele>1293.4000244141</ele>
        <time>2020-09-05T11:59:54.000Z</time>
      </trkpt>
      <trkpt lat="44.12906" lon="6.83137">
        <ele>1293.8000488281</ele>
        <time>2020-09-05T11:59:59.000Z</time>
      </trkpt>
      <trkpt lat="44.12906" lon="6.83139">
        <ele>1293.8000488281</ele>
        <time>2020-09-05T12:00:05.000Z</time>
      </trkpt>
      <trkpt lat="44.12902" lon="6.83138">
        <ele>1293.8000488281</ele>
        <time>2020-09-05T12:00:10.000Z</time>
      </trkpt>
      <trkpt lat="44.12901" lon="6.83138">
        <ele>1294</ele>
        <time>2020-09-05T12:00:16.000Z</time>
      </trkpt>
      <trkpt lat="44.12902" lon="6.83137">
        <ele>1293.5999755859</ele>
        <time>2020-09-05T12:00:22.000Z</time>
      </trkpt>
      <trkpt lat="44.12905" lon="6.83135">
        <ele>1293.1999511719</ele>
        <time>2020-09-05T12:00:29.000Z</time>
      </trkpt>
      <trkpt lat="44.12906" lon="6.83136">
        <ele>1293.1999511719</ele>
        <time>2020-09-05T12:00:36.000Z</time>
      </trkpt>
      <trkpt lat="44.12906" lon="6.83136">
        <ele>1293.1999511719</ele>
        <time>2020-09-05T12:00:41.000Z</time>
      </trkpt>
      <trkpt lat="44.12907" lon="6.83137">
        <ele>1293.4000244141</ele>
        <time>2020-09-05T12:00:51.000Z</time>
      </trkpt>
      <trkpt lat="44.12907" lon="6.83135">
        <ele>1293.1999511719</ele>
        <time>2020-09-05T12:01:04.000Z</time>
      </trkpt>
      <trkpt lat="44.12908" lon="6.83134">
        <ele>1292</ele>
        <time>2020-09-05T12:01:13.000Z</time>
      </trkpt>
      <trkpt lat="44.12909" lon="6.83135">
        <ele>1291.8000488281</ele>
        <time>2020-09-05T12:01:18.000Z</time>
      </trkpt>
      <trkpt lat="44.12908" lon="6.83134">
        <ele>1293</ele>
        <time>2020-09-05T12:01:21.000Z</time>
      </trkpt>
      <trkpt lat="44.12908" lon="6.83134">
        <ele>1293.4000244141</ele>
        <time>2020-09-05T12:01:29.000Z</time>
      </trkpt>
      <trkpt lat="44.12908" lon="6.83134">
        <ele>1293.4000244141</ele>
        <time>2020-09-05T12:01:37.000Z</time>
      </trkpt>
      <trkpt lat="44.12908" lon="6.83134">
        <ele>1293.4000244141</ele>
        <time>2020-09-05T12:01:44.000Z</time>
      </trkpt>
      <trkpt lat="44.12906" lon="6.83135">
        <ele>1293.4000244141</ele>
        <time>2020-09-05T12:01:51.000Z</time>
      </trkpt>
      <trkpt lat="44.12903" lon="6.83135">
        <ele>1293.5999755859</ele>
        <time>2020-09-05T12:01:58.000Z</time>
      </trkpt>
      <trkpt lat="44.12903" lon="6.83137">
        <ele>1293.4000244141</ele>
        <time>2020-09-05T12:02:08.000Z</time>
      </trkpt>
      <trkpt lat="44.12901" lon="6.83137">
        <ele>1293.5999755859</ele>
        <time>2020-09-05T12:02:14.000Z</time>
      </trkpt>
      <trkpt lat="44.129" lon="6.83138">
        <ele>1293.8000488281</ele>
        <time>2020-09-05T12:02:21.000Z</time>
      </trkpt>
      <trkpt lat="44.12901" lon="6.83137">
        <ele>1293.5999755859</ele>
        <time>2020-09-05T12:02:28.000Z</time>
      </trkpt>
      <trkpt lat="44.12901" lon="6.83138">
        <ele>1293.4000244141</ele>
        <time>2020-09-05T12:02:35.000Z</time>
      </trkpt>
      <trkpt lat="44.129" lon="6.83136">
        <ele>1293.5999755859</ele>
        <time>2020-09-05T12:02:45.000Z</time>
      </trkpt>
      <trkpt lat="44.12898" lon="6.83138">
        <ele>1293.5999755859</ele>
        <time>2020-09-05T12:02:53.000Z</time>
      </trkpt>
      <trkpt lat="44.12899" lon="6.83139">
        <ele>1293.5999755859</ele>
        <time>2020-09-05T12:03:02.000Z</time>
      </trkpt>
      <trkpt lat="44.12902" lon="6.83138">
        <ele>1293.4000244141</ele>
        <time>2020-09-05T12:03:08.000Z</time>
      </trkpt>
      <trkpt lat="44.12902" lon="6.83137">
        <ele>1293.4000244141</ele>
        <time>2020-09-05T12:03:14.000Z</time>
      </trkpt>
      <trkpt lat="44.12902" lon="6.83136">
        <ele>1293</ele>
        <time>2020-09-05T12:03:31.000Z</time>
      </trkpt>
      <trkpt lat="44.12902" lon="6.83135">
        <ele>1293.1999511719</ele>
        <time>2020-09-05T12:03:45.000Z</time>
      </trkpt>
      <trkpt lat="44.12902" lon="6.83136">
        <ele>1293.5999755859</ele>
        <time>2020-09-05T12:04:02.000Z</time>
      </trkpt>
      <trkpt lat="44.12902" lon="6.83136">
        <ele>1293.5999755859</ele>
        <time>2020-09-05T12:04:10.000Z</time>
      </trkpt>
      <trkpt lat="44.12901" lon="6.83137">
        <ele>1293.5999755859</ele>
        <time>2020-09-05T12:04:15.000Z</time>
      </trkpt>
      <trkpt lat="44.129" lon="6.83138">
        <ele>1293.8000488281</ele>
        <time>2020-09-05T12:04:21.000Z</time>
      </trkpt>
      <trkpt lat="44.129" lon="6.83138">
        <ele>1293.8000488281</ele>
        <time>2020-09-05T12:04:29.000Z</time>
      </trkpt>
      <trkpt lat="44.129" lon="6.83139">
        <ele>1293.8000488281</ele>
        <time>2020-09-05T12:04:42.000Z</time>
      </trkpt>
      <trkpt lat="44.129" lon="6.83139">
        <ele>1293.8000488281</ele>
        <time>2020-09-05T12:04:51.000Z</time>
      </trkpt>
      <trkpt lat="44.129" lon="6.8314">
        <ele>1293.8000488281</ele>
        <time>2020-09-05T12:04:59.000Z</time>
      </trkpt>
      <trkpt lat="44.129" lon="6.83141">
        <ele>1293.8000488281</ele>
        <time>2020-09-05T12:05:06.000Z</time>
      </trkpt>
      <trkpt lat="44.129" lon="6.83139">
        <ele>1294</ele>
        <time>2020-09-05T12:05:15.000Z</time>
      </trkpt>
      <trkpt lat="44.129" lon="6.83138">
        <ele>1294</ele>
        <time>2020-09-05T12:05:17.000Z</time>
      </trkpt>
      <trkpt lat="44.12899" lon="6.83136">
        <ele>1294.4000244141</ele>
        <time>2020-09-05T12:05:22.000Z</time>
      </trkpt>
      <trkpt lat="44.12898" lon="6.83137">
        <ele>1293.8000488281</ele>
        <time>2020-09-05T12:05:32.000Z</time>
      </trkpt>
      <trkpt lat="44.12897" lon="6.83138">
        <ele>1293.8000488281</ele>
        <time>2020-09-05T12:05:40.000Z</time>
      </trkpt>
      <trkpt lat="44.12897" lon="6.83136">
        <ele>1293.8000488281</ele>
        <time>2020-09-05T12:05:49.000Z</time>
      </trkpt>
      <trkpt lat="44.12897" lon="6.83136">
        <ele>1293.5999755859</ele>
        <time>2020-09-05T12:05:56.000Z</time>
      </trkpt>
      <trkpt lat="44.12897" lon="6.83135">
        <ele>1293.8000488281</ele>
        <time>2020-09-05T12:06:03.000Z</time>
      </trkpt>
      <trkpt lat="44.12897" lon="6.83135">
        <ele>1294</ele>
        <time>2020-09-05T12:06:11.000Z</time>
      </trkpt>
      <trkpt lat="44.12897" lon="6.83138">
        <ele>1294</ele>
        <time>2020-09-05T12:06:19.000Z</time>
      </trkpt>
      <trkpt lat="44.12897" lon="6.83139">
        <ele>1294</ele>
        <time>2020-09-05T12:06:29.000Z</time>
      </trkpt>
      <trkpt lat="44.12898" lon="6.83141">
        <ele>1294.1999511719</ele>
        <time>2020-09-05T12:06:38.000Z</time>
      </trkpt>
      <trkpt lat="44.12898" lon="6.8314">
        <ele>1294.4000244141</ele>
        <time>2020-09-05T12:06:47.000Z</time>
      </trkpt>
      <trkpt lat="44.12898" lon="6.83139">
        <ele>1294.1999511719</ele>
        <time>2020-09-05T12:06:53.000Z</time>
      </trkpt>
      <trkpt lat="44.12898" lon="6.83138">
        <ele>1294.4000244141</ele>
        <time>2020-09-05T12:07:03.000Z</time>
      </trkpt>
      <trkpt lat="44.12898" lon="6.83142">
        <ele>1294.4000244141</ele>
        <time>2020-09-05T12:07:14.000Z</time>
      </trkpt>
      <trkpt lat="44.12898" lon="6.83142">
        <ele>1294.5999755859</ele>
        <time>2020-09-05T12:07:20.000Z</time>
      </trkpt>
      <trkpt lat="44.12898" lon="6.83141">
        <ele>1294.5999755859</ele>
        <time>2020-09-05T12:07:26.000Z</time>
      </trkpt>
      <trkpt lat="44.12898" lon="6.8314">
        <ele>1294.1999511719</ele>
        <time>2020-09-05T12:07:37.000Z</time>
      </trkpt>
      <trkpt lat="44.12896" lon="6.83142">
        <ele>1294.4000244141</ele>
        <time>2020-09-05T12:07:40.000Z</time>
      </trkpt>
      <trkpt lat="44.12895" lon="6.83143">
        <ele>1294.4000244141</ele>
        <time>2020-09-05T12:07:42.000Z</time>
      </trkpt>
      <trkpt lat="44.12889" lon="6.83147">
        <ele>1294.8000488281</ele>
        <time>2020-09-05T12:07:48.000Z</time>
      </trkpt>
      <trkpt lat="44.12887" lon="6.83146">
        <ele>1295</ele>
        <time>2020-09-05T12:07:51.000Z</time>
      </trkpt>
      <trkpt lat="44.12886" lon="6.83145">
        <ele>1295</ele>
        <time>2020-09-05T12:07:52.000Z</time>
      </trkpt>
      <trkpt lat="44.12886" lon="6.83142">
        <ele>1295</ele>
        <time>2020-09-05T12:07:53.000Z</time>
      </trkpt>
      <trkpt lat="44.12888" lon="6.8313">
        <ele>1293.5999755859</ele>
        <time>2020-09-05T12:07:58.000Z</time>
      </trkpt>
      <trkpt lat="44.1289" lon="6.83125">
        <ele>1292.1999511719</ele>
        <time>2020-09-05T12:08:00.000Z</time>
      </trkpt>
      <trkpt lat="44.12891" lon="6.83122">
        <ele>1291.8000488281</ele>
        <time>2020-09-05T12:08:01.000Z</time>
      </trkpt>
      <trkpt lat="44.12892" lon="6.8312">
        <ele>1291.1999511719</ele>
        <time>2020-09-05T12:08:02.000Z</time>
      </trkpt>
      <trkpt lat="44.12891" lon="6.83117">
        <ele>1290.5999755859</ele>
        <time>2020-09-05T12:08:03.000Z</time>
      </trkpt>
      <trkpt lat="44.12889" lon="6.83109">
        <ele>1289.8000488281</ele>
        <time>2020-09-05T12:08:05.000Z</time>
      </trkpt>
      <trkpt lat="44.12884" lon="6.83098">
        <ele>1288.5999755859</ele>
        <time>2020-09-05T12:08:08.000Z</time>
      </trkpt>
      <trkpt lat="44.1288" lon="6.83091">
        <ele>1286.5999755859</ele>
        <time>2020-09-05T12:08:10.000Z</time>
      </trkpt>
      <trkpt lat="44.12878" lon="6.83087">
        <ele>1285.4000244141</ele>
        <time>2020-09-05T12:08:11.000Z</time>
      </trkpt>
      <trkpt lat="44.12875" lon="6.83082">
        <ele>1284.1999511719</ele>
        <time>2020-09-05T12:08:12.000Z</time>
      </trkpt>
      <trkpt lat="44.12873" lon="6.83077">
        <ele>1282.4000244141</ele>
        <time>2020-09-05T12:08:13.000Z</time>
      </trkpt>
      <trkpt lat="44.12871" lon="6.83073">
        <ele>1281.1999511719</ele>
        <time>2020-09-05T12:08:14.000Z</time>
      </trkpt>
      <trkpt lat="44.12869" lon="6.83067">
        <ele>1280.1999511719</ele>
        <time>2020-09-05T12:08:15.000Z</time>
      </trkpt>
      <trkpt lat="44.12865" lon="6.83058">
        <ele>1278.5999755859</ele>
        <time>2020-09-05T12:08:17.000Z</time>
      </trkpt>
      <trkpt lat="44.12863" lon="6.83054">
        <ele>1277.5999755859</ele>
        <time>2020-09-05T12:08:18.000Z</time>
      </trkpt>
      <trkpt lat="44.12862" lon="6.8305">
        <ele>1276.5999755859</ele>
        <time>2020-09-05T12:08:19.000Z</time>
      </trkpt>
      <trkpt lat="44.12861" lon="6.83045">
        <ele>1275.4000244141</ele>
        <time>2020-09-05T12:08:20.000Z</time>
      </trkpt>
      <trkpt lat="44.12859" lon="6.83036">
        <ele>1274</ele>
        <time>2020-09-05T12:08:22.000Z</time>
      </trkpt>
      <trkpt lat="44.12857" lon="6.83032">
        <ele>1273.1999511719</ele>
        <time>2020-09-05T12:08:23.000Z</time>
      </trkpt>
      <trkpt lat="44.12855" lon="6.83027">
        <ele>1272.5999755859</ele>
        <time>2020-09-05T12:08:24.000Z</time>
      </trkpt>
      <trkpt lat="44.12853" lon="6.83021">
        <ele>1271</ele>
        <time>2020-09-05T12:08:26.000Z</time>
      </trkpt>
      <trkpt lat="44.12853" lon="6.83019">
        <ele>1269.8000488281</ele>
        <time>2020-09-05T12:08:27.000Z</time>
      </trkpt>
      <trkpt lat="44.12851" lon="6.83017">
        <ele>1268.4000244141</ele>
        <time>2020-09-05T12:08:28.000Z</time>
      </trkpt>
      <trkpt lat="44.12848" lon="6.83013">
        <ele>1267.1999511719</ele>
        <time>2020-09-05T12:08:29.000Z</time>
      </trkpt>
      <trkpt lat="44.12845" lon="6.83011">
        <ele>1266</ele>
        <time>2020-09-05T12:08:30.000Z</time>
      </trkpt>
      <trkpt lat="44.12843" lon="6.83008">
        <ele>1264.8000488281</ele>
        <time>2020-09-05T12:08:31.000Z</time>
      </trkpt>
      <trkpt lat="44.12839" lon="6.83001">
        <ele>1263.1999511719</ele>
        <time>2020-09-05T12:08:33.000Z</time>
      </trkpt>
      <trkpt lat="44.12837" lon="6.82996">
        <ele>1261.1999511719</ele>
        <time>2020-09-05T12:08:35.000Z</time>
      </trkpt>
      <trkpt lat="44.12833" lon="6.82994">
        <ele>1259.5999755859</ele>
        <time>2020-09-05T12:08:37.000Z</time>
      </trkpt>
      <trkpt lat="44.1283" lon="6.82987">
        <ele>1258</ele>
        <time>2020-09-05T12:08:39.000Z</time>
      </trkpt>
      <trkpt lat="44.12825" lon="6.82981">
        <ele>1256.8000488281</ele>
        <time>2020-09-05T12:08:41.000Z</time>
      </trkpt>
      <trkpt lat="44.12822" lon="6.82977">
        <ele>1256.1999511719</ele>
        <time>2020-09-05T12:08:42.000Z</time>
      </trkpt>
      <trkpt lat="44.1282" lon="6.82974">
        <ele>1255.8000488281</ele>
        <time>2020-09-05T12:08:43.000Z</time>
      </trkpt>
      <trkpt lat="44.12819" lon="6.82971">
        <ele>1254.8000488281</ele>
        <time>2020-09-05T12:08:44.000Z</time>
      </trkpt>
      <trkpt lat="44.12817" lon="6.82968">
        <ele>1253.8000488281</ele>
        <time>2020-09-05T12:08:45.000Z</time>
      </trkpt>
      <trkpt lat="44.12814" lon="6.82965">
        <ele>1252.5999755859</ele>
        <time>2020-09-05T12:08:46.000Z</time>
      </trkpt>
      <trkpt lat="44.12809" lon="6.8296">
        <ele>1251.4000244141</ele>
        <time>2020-09-05T12:08:47.000Z</time>
      </trkpt>
      <trkpt lat="44.12804" lon="6.82955">
        <ele>1250.1999511719</ele>
        <time>2020-09-05T12:08:48.000Z</time>
      </trkpt>
      <trkpt lat="44.12799" lon="6.82951">
        <ele>1248.5999755859</ele>
        <time>2020-09-05T12:08:49.000Z</time>
      </trkpt>
      <trkpt lat="44.12793" lon="6.8295">
        <ele>1247.5999755859</ele>
        <time>2020-09-05T12:08:50.000Z</time>
      </trkpt>
      <trkpt lat="44.12787" lon="6.8295">
        <ele>1246.5999755859</ele>
        <time>2020-09-05T12:08:51.000Z</time>
      </trkpt>
      <trkpt lat="44.1278" lon="6.82951">
        <ele>1245.5999755859</ele>
        <time>2020-09-05T12:08:52.000Z</time>
      </trkpt>
      <trkpt lat="44.12773" lon="6.82951">
        <ele>1244.4000244141</ele>
        <time>2020-09-05T12:08:53.000Z</time>
      </trkpt>
      <trkpt lat="44.12759" lon="6.82952">
        <ele>1242.8000488281</ele>
        <time>2020-09-05T12:08:55.000Z</time>
      </trkpt>
      <trkpt lat="44.12752" lon="6.82951">
        <ele>1242.4000244141</ele>
        <time>2020-09-05T12:08:56.000Z</time>
      </trkpt>
      <trkpt lat="44.12745" lon="6.8295">
        <ele>1242.1999511719</ele>
        <time>2020-09-05T12:08:57.000Z</time>
      </trkpt>
      <trkpt lat="44.12733" lon="6.82948">
        <ele>1241.5999755859</ele>
        <time>2020-09-05T12:08:59.000Z</time>
      </trkpt>
      <trkpt lat="44.12724" lon="6.82946">
        <ele>1241.1999511719</ele>
        <time>2020-09-05T12:09:01.000Z</time>
      </trkpt>
      <trkpt lat="44.12716" lon="6.82946">
        <ele>1240.4000244141</ele>
        <time>2020-09-05T12:09:03.000Z</time>
      </trkpt>
      <trkpt lat="44.1271" lon="6.82947">
        <ele>1240.1999511719</ele>
        <time>2020-09-05T12:09:05.000Z</time>
      </trkpt>
      <trkpt lat="44.12704" lon="6.82953">
        <ele>1241</ele>
        <time>2020-09-05T12:09:09.000Z</time>
      </trkpt>
      <trkpt lat="44.12703" lon="6.82953">
        <ele>1241.5999755859</ele>
        <time>2020-09-05T12:09:10.000Z</time>
      </trkpt>
      <trkpt lat="44.127" lon="6.82956">
        <ele>1242.5999755859</ele>
        <time>2020-09-05T12:09:15.000Z</time>
      </trkpt>
      <trkpt lat="44.12698" lon="6.82956">
        <ele>1242.8000488281</ele>
        <time>2020-09-05T12:09:17.000Z</time>
      </trkpt>
      <trkpt lat="44.12691" lon="6.82954">
        <ele>1243.1999511719</ele>
        <time>2020-09-05T12:09:20.000Z</time>
      </trkpt>
      <trkpt lat="44.12687" lon="6.82953">
        <ele>1243.5999755859</ele>
        <time>2020-09-05T12:09:22.000Z</time>
      </trkpt>
      <trkpt lat="44.12683" lon="6.82952">
        <ele>1243.8000488281</ele>
        <time>2020-09-05T12:09:24.000Z</time>
      </trkpt>
      <trkpt lat="44.12675" lon="6.82951">
        <ele>1243.8000488281</ele>
        <time>2020-09-05T12:09:27.000Z</time>
      </trkpt>
      <trkpt lat="44.12665" lon="6.82952">
        <ele>1244</ele>
        <time>2020-09-05T12:09:32.000Z</time>
      </trkpt>
      <trkpt lat="44.12657" lon="6.82961">
        <ele>1244.8000488281</ele>
        <time>2020-09-05T12:09:37.000Z</time>
      </trkpt>
      <trkpt lat="44.12655" lon="6.82962">
        <ele>1245</ele>
        <time>2020-09-05T12:09:38.000Z</time>
      </trkpt>
      <trkpt lat="44.12649" lon="6.82965">
        <ele>1246.1999511719</ele>
        <time>2020-09-05T12:09:41.000Z</time>
      </trkpt>
      <trkpt lat="44.12646" lon="6.82968">
        <ele>1247</ele>
        <time>2020-09-05T12:09:43.000Z</time>
      </trkpt>
      <trkpt lat="44.1264" lon="6.8297">
        <ele>1247</ele>
        <time>2020-09-05T12:09:49.000Z</time>
      </trkpt>
      <trkpt lat="44.12639" lon="6.8297">
        <ele>1246.1999511719</ele>
        <time>2020-09-05T12:09:56.000Z</time>
      </trkpt>
      <trkpt lat="44.1264" lon="6.8297">
        <ele>1246.1999511719</ele>
        <time>2020-09-05T12:10:02.000Z</time>
      </trkpt>
      <trkpt lat="44.12639" lon="6.82969">
        <ele>1246.1999511719</ele>
        <time>2020-09-05T12:10:12.000Z</time>
      </trkpt>
      <trkpt lat="44.12639" lon="6.8297">
        <ele>1246.4000244141</ele>
        <time>2020-09-05T12:10:18.000Z</time>
      </trkpt>
      <trkpt lat="44.12638" lon="6.82971">
        <ele>1246.1999511719</ele>
        <time>2020-09-05T12:10:26.000Z</time>
      </trkpt>
      <trkpt lat="44.12638" lon="6.82971">
        <ele>1246.4000244141</ele>
        <time>2020-09-05T12:10:36.000Z</time>
      </trkpt>
      <trkpt lat="44.12637" lon="6.82971">
        <ele>1246.1999511719</ele>
        <time>2020-09-05T12:10:48.000Z</time>
      </trkpt>
      <trkpt lat="44.12636" lon="6.82972">
        <ele>1246.1999511719</ele>
        <time>2020-09-05T12:11:02.000Z</time>
      </trkpt>
      <trkpt lat="44.12635" lon="6.82971">
        <ele>1246.1999511719</ele>
        <time>2020-09-05T12:11:17.000Z</time>
      </trkpt>
      <trkpt lat="44.12634" lon="6.82971">
        <ele>1246.1999511719</ele>
        <time>2020-09-05T12:11:29.000Z</time>
      </trkpt>
      <trkpt lat="44.12634" lon="6.82969">
        <ele>1246.1999511719</ele>
        <time>2020-09-05T12:11:33.000Z</time>
      </trkpt>
      <trkpt lat="44.12633" lon="6.82969">
        <ele>1246.4000244141</ele>
        <time>2020-09-05T12:11:34.000Z</time>
      </trkpt>
      <trkpt lat="44.12626" lon="6.82966">
        <ele>1246.4000244141</ele>
        <time>2020-09-05T12:11:38.000Z</time>
      </trkpt>
      <trkpt lat="44.12611" lon="6.8296">
        <ele>1246.5999755859</ele>
        <time>2020-09-05T12:11:43.000Z</time>
      </trkpt>
      <trkpt lat="44.12592" lon="6.82963">
        <ele>1247</ele>
        <time>2020-09-05T12:11:49.000Z</time>
      </trkpt>
      <trkpt lat="44.12589" lon="6.82966">
        <ele>1247</ele>
        <time>2020-09-05T12:11:50.000Z</time>
      </trkpt>
      <trkpt lat="44.12578" lon="6.82973">
        <ele>1246.8000488281</ele>
        <time>2020-09-05T12:11:53.000Z</time>
      </trkpt>
      <trkpt lat="44.12561" lon="6.82983">
        <ele>1246.4000244141</ele>
        <time>2020-09-05T12:11:57.000Z</time>
      </trkpt>
      <trkpt lat="44.12556" lon="6.82986">
        <ele>1246.1999511719</ele>
        <time>2020-09-05T12:11:58.000Z</time>
      </trkpt>
      <trkpt lat="44.12538" lon="6.82993">
        <ele>1245.4000244141</ele>
        <time>2020-09-05T12:12:01.000Z</time>
      </trkpt>
      <trkpt lat="44.12531" lon="6.82994">
        <ele>1244.8000488281</ele>
        <time>2020-09-05T12:12:02.000Z</time>
      </trkpt>
      <trkpt lat="44.12511" lon="6.82995">
        <ele>1243.4000244141</ele>
        <time>2020-09-05T12:12:05.000Z</time>
      </trkpt>
      <trkpt lat="44.12493" lon="6.82997">
        <ele>1241.8000488281</ele>
        <time>2020-09-05T12:12:08.000Z</time>
      </trkpt>
      <trkpt lat="44.12485" lon="6.82996">
        <ele>1240</ele>
        <time>2020-09-05T12:12:10.000Z</time>
      </trkpt>
      <trkpt lat="44.12481" lon="6.82997">
        <ele>1239.5999755859</ele>
        <time>2020-09-05T12:12:11.000Z</time>
      </trkpt>
      <trkpt lat="44.12475" lon="6.82999">
        <ele>1239</ele>
        <time>2020-09-05T12:12:12.000Z</time>
      </trkpt>
      <trkpt lat="44.1247" lon="6.83001">
        <ele>1238.5999755859</ele>
        <time>2020-09-05T12:12:13.000Z</time>
      </trkpt>
      <trkpt lat="44.12451" lon="6.83005">
        <ele>1237.4000244141</ele>
        <time>2020-09-05T12:12:16.000Z</time>
      </trkpt>
      <trkpt lat="44.12445" lon="6.83002">
        <ele>1236.5999755859</ele>
        <time>2020-09-05T12:12:17.000Z</time>
      </trkpt>
      <trkpt lat="44.12439" lon="6.82999">
        <ele>1235.8000488281</ele>
        <time>2020-09-05T12:12:18.000Z</time>
      </trkpt>
      <trkpt lat="44.12433" lon="6.82998">
        <ele>1234.8000488281</ele>
        <time>2020-09-05T12:12:19.000Z</time>
      </trkpt>
      <trkpt lat="44.12426" lon="6.82999">
        <ele>1234.1999511719</ele>
        <time>2020-09-05T12:12:20.000Z</time>
      </trkpt>
      <trkpt lat="44.12412" lon="6.83004">
        <ele>1233.1999511719</ele>
        <time>2020-09-05T12:12:22.000Z</time>
      </trkpt>
      <trkpt lat="44.12397" lon="6.83012">
        <ele>1231.8000488281</ele>
        <time>2020-09-05T12:12:24.000Z</time>
      </trkpt>
      <trkpt lat="44.1239" lon="6.83015">
        <ele>1230.8000488281</ele>
        <time>2020-09-05T12:12:25.000Z</time>
      </trkpt>
      <trkpt lat="44.12383" lon="6.83016">
        <ele>1230</ele>
        <time>2020-09-05T12:12:26.000Z</time>
      </trkpt>
      <trkpt lat="44.12375" lon="6.83018">
        <ele>1229.1999511719</ele>
        <time>2020-09-05T12:12:27.000Z</time>
      </trkpt>
      <trkpt lat="44.12369" lon="6.83018">
        <ele>1228.5999755859</ele>
        <time>2020-09-05T12:12:28.000Z</time>
      </trkpt>
      <trkpt lat="44.12364" lon="6.83018">
        <ele>1227.4000244141</ele>
        <time>2020-09-05T12:12:29.000Z</time>
      </trkpt>
      <trkpt lat="44.12359" lon="6.83018">
        <ele>1226.5999755859</ele>
        <time>2020-09-05T12:12:30.000Z</time>
      </trkpt>
      <trkpt lat="44.12354" lon="6.8302">
        <ele>1225.8000488281</ele>
        <time>2020-09-05T12:12:31.000Z</time>
      </trkpt>
      <trkpt lat="44.12343" lon="6.83023">
        <ele>1224</ele>
        <time>2020-09-05T12:12:33.000Z</time>
      </trkpt>
      <trkpt lat="44.12338" lon="6.83023">
        <ele>1222.8000488281</ele>
        <time>2020-09-05T12:12:34.000Z</time>
      </trkpt>
      <trkpt lat="44.12333" lon="6.83023">
        <ele>1221.1999511719</ele>
        <time>2020-09-05T12:12:35.000Z</time>
      </trkpt>
      <trkpt lat="44.12329" lon="6.83024">
        <ele>1219.5999755859</ele>
        <time>2020-09-05T12:12:36.000Z</time>
      </trkpt>
      <trkpt lat="44.12323" lon="6.83025">
        <ele>1218</ele>
        <time>2020-09-05T12:12:37.000Z</time>
      </trkpt>
      <trkpt lat="44.12318" lon="6.83027">
        <ele>1217</ele>
        <time>2020-09-05T12:12:38.000Z</time>
      </trkpt>
      <trkpt lat="44.12314" lon="6.83027">
        <ele>1215.5999755859</ele>
        <time>2020-09-05T12:12:39.000Z</time>
      </trkpt>
      <trkpt lat="44.1231" lon="6.83028">
        <ele>1214.1999511719</ele>
        <time>2020-09-05T12:12:40.000Z</time>
      </trkpt>
      <trkpt lat="44.12308" lon="6.8303">
        <ele>1212.5999755859</ele>
        <time>2020-09-05T12:12:41.000Z</time>
      </trkpt>
      <trkpt lat="44.12307" lon="6.83034">
        <ele>1211.4000244141</ele>
        <time>2020-09-05T12:12:42.000Z</time>
      </trkpt>
      <trkpt lat="44.12308" lon="6.83038">
        <ele>1210.1999511719</ele>
        <time>2020-09-05T12:12:43.000Z</time>
      </trkpt>
      <trkpt lat="44.1231" lon="6.83041">
        <ele>1208.8000488281</ele>
        <time>2020-09-05T12:12:44.000Z</time>
      </trkpt>
      <trkpt lat="44.12312" lon="6.83043">
        <ele>1208.1999511719</ele>
        <time>2020-09-05T12:12:45.000Z</time>
      </trkpt>
      <trkpt lat="44.12312" lon="6.83046">
        <ele>1207.8000488281</ele>
        <time>2020-09-05T12:12:46.000Z</time>
      </trkpt>
      <trkpt lat="44.12303" lon="6.83045">
        <ele>1206.5999755859</ele>
        <time>2020-09-05T12:12:48.000Z</time>
      </trkpt>
      <trkpt lat="44.12298" lon="6.83042">
        <ele>1205.8000488281</ele>
        <time>2020-09-05T12:12:49.000Z</time>
      </trkpt>
      <trkpt lat="44.12293" lon="6.83038">
        <ele>1204.8000488281</ele>
        <time>2020-09-05T12:12:50.000Z</time>
      </trkpt>
      <trkpt lat="44.12283" lon="6.8303">
        <ele>1203.1999511719</ele>
        <time>2020-09-05T12:12:52.000Z</time>
      </trkpt>
      <trkpt lat="44.12278" lon="6.83025">
        <ele>1202.4000244141</ele>
        <time>2020-09-05T12:12:53.000Z</time>
      </trkpt>
      <trkpt lat="44.12274" lon="6.83021">
        <ele>1201.8000488281</ele>
        <time>2020-09-05T12:12:54.000Z</time>
      </trkpt>
      <trkpt lat="44.12268" lon="6.83015">
        <ele>1200.8000488281</ele>
        <time>2020-09-05T12:12:56.000Z</time>
      </trkpt>
      <trkpt lat="44.12265" lon="6.83013">
        <ele>1200.1999511719</ele>
        <time>2020-09-05T12:12:57.000Z</time>
      </trkpt>
      <trkpt lat="44.12263" lon="6.83012">
        <ele>1199.4000244141</ele>
        <time>2020-09-05T12:12:58.000Z</time>
      </trkpt>
      <trkpt lat="44.12257" lon="6.83013">
        <ele>1198.1999511719</ele>
        <time>2020-09-05T12:13:00.000Z</time>
      </trkpt>
      <trkpt lat="44.1225" lon="6.83008">
        <ele>1196.4000244141</ele>
        <time>2020-09-05T12:13:02.000Z</time>
      </trkpt>
      <trkpt lat="44.12248" lon="6.83004">
        <ele>1195.4000244141</ele>
        <time>2020-09-05T12:13:03.000Z</time>
      </trkpt>
      <trkpt lat="44.12246" lon="6.83001">
        <ele>1194.8000488281</ele>
        <time>2020-09-05T12:13:04.000Z</time>
      </trkpt>
      <trkpt lat="44.12243" lon="6.82986">
        <ele>1193.1999511719</ele>
        <time>2020-09-05T12:13:07.000Z</time>
      </trkpt>
      <trkpt lat="44.12242" lon="6.82982">
        <ele>1192.5999755859</ele>
        <time>2020-09-05T12:13:08.000Z</time>
      </trkpt>
      <trkpt lat="44.1224" lon="6.82974">
        <ele>1192.1999511719</ele>
        <time>2020-09-05T12:13:10.000Z</time>
      </trkpt>
      <trkpt lat="44.12234" lon="6.82956">
        <ele>1192</ele>
        <time>2020-09-05T12:13:14.000Z</time>
      </trkpt>
      <trkpt lat="44.12219" lon="6.8293">
        <ele>1190.8000488281</ele>
        <time>2020-09-05T12:13:19.000Z</time>
      </trkpt>
      <trkpt lat="44.12216" lon="6.82924">
        <ele>1190.1999511719</ele>
        <time>2020-09-05T12:13:20.000Z</time>
      </trkpt>
      <trkpt lat="44.12213" lon="6.82919">
        <ele>1189.4000244141</ele>
        <time>2020-09-05T12:13:21.000Z</time>
      </trkpt>
      <trkpt lat="44.12209" lon="6.82915">
        <ele>1188.4000244141</ele>
        <time>2020-09-05T12:13:22.000Z</time>
      </trkpt>
      <trkpt lat="44.12205" lon="6.82914">
        <ele>1187.5999755859</ele>
        <time>2020-09-05T12:13:23.000Z</time>
      </trkpt>
      <trkpt lat="44.12198" lon="6.82911">
        <ele>1185.5999755859</ele>
        <time>2020-09-05T12:13:25.000Z</time>
      </trkpt>
      <trkpt lat="44.12194" lon="6.82908">
        <ele>1184.4000244141</ele>
        <time>2020-09-05T12:13:26.000Z</time>
      </trkpt>
      <trkpt lat="44.12191" lon="6.82904">
        <ele>1183</ele>
        <time>2020-09-05T12:13:27.000Z</time>
      </trkpt>
      <trkpt lat="44.12184" lon="6.82893">
        <ele>1181</ele>
        <time>2020-09-05T12:13:29.000Z</time>
      </trkpt>
      <trkpt lat="44.1218" lon="6.82888">
        <ele>1180.4000244141</ele>
        <time>2020-09-05T12:13:30.000Z</time>
      </trkpt>
      <trkpt lat="44.12176" lon="6.82884">
        <ele>1179.8000488281</ele>
        <time>2020-09-05T12:13:31.000Z</time>
      </trkpt>
      <trkpt lat="44.12171" lon="6.82881">
        <ele>1179.4000244141</ele>
        <time>2020-09-05T12:13:32.000Z</time>
      </trkpt>
      <trkpt lat="44.1216" lon="6.82876">
        <ele>1178.4000244141</ele>
        <time>2020-09-05T12:13:34.000Z</time>
      </trkpt>
      <trkpt lat="44.12154" lon="6.82874">
        <ele>1178</ele>
        <time>2020-09-05T12:13:35.000Z</time>
      </trkpt>
      <trkpt lat="44.12148" lon="6.82873">
        <ele>1177</ele>
        <time>2020-09-05T12:13:36.000Z</time>
      </trkpt>
      <trkpt lat="44.1214" lon="6.82874">
        <ele>1176</ele>
        <time>2020-09-05T12:13:37.000Z</time>
      </trkpt>
      <trkpt lat="44.12133" lon="6.82872">
        <ele>1174.5999755859</ele>
        <time>2020-09-05T12:13:38.000Z</time>
      </trkpt>
      <trkpt lat="44.12124" lon="6.82869">
        <ele>1173.1999511719</ele>
        <time>2020-09-05T12:13:39.000Z</time>
      </trkpt>
      <trkpt lat="44.12116" lon="6.82864">
        <ele>1172</ele>
        <time>2020-09-05T12:13:40.000Z</time>
      </trkpt>
      <trkpt lat="44.12107" lon="6.82859">
        <ele>1170.8000488281</ele>
        <time>2020-09-05T12:13:41.000Z</time>
      </trkpt>
      <trkpt lat="44.12098" lon="6.82853">
        <ele>1169.4000244141</ele>
        <time>2020-09-05T12:13:42.000Z</time>
      </trkpt>
      <trkpt lat="44.1209" lon="6.82848">
        <ele>1167.5999755859</ele>
        <time>2020-09-05T12:13:43.000Z</time>
      </trkpt>
      <trkpt lat="44.12083" lon="6.82844">
        <ele>1166</ele>
        <time>2020-09-05T12:13:44.000Z</time>
      </trkpt>
      <trkpt lat="44.12078" lon="6.82842">
        <ele>1164.4000244141</ele>
        <time>2020-09-05T12:13:45.000Z</time>
      </trkpt>
      <trkpt lat="44.12073" lon="6.82839">
        <ele>1163.8000488281</ele>
        <time>2020-09-05T12:13:46.000Z</time>
      </trkpt>
      <trkpt lat="44.12069" lon="6.82837">
        <ele>1162.1999511719</ele>
        <time>2020-09-05T12:13:47.000Z</time>
      </trkpt>
      <trkpt lat="44.12065" lon="6.82834">
        <ele>1160.4000244141</ele>
        <time>2020-09-05T12:13:49.000Z</time>
      </trkpt>
      <trkpt lat="44.12064" lon="6.82834">
        <ele>1158.5999755859</ele>
        <time>2020-09-05T12:13:51.000Z</time>
      </trkpt>
      <trkpt lat="44.12063" lon="6.82834">
        <ele>1157.4000244141</ele>
        <time>2020-09-05T12:13:52.000Z</time>
      </trkpt>
      <trkpt lat="44.12063" lon="6.82834">
        <ele>1156.5999755859</ele>
        <time>2020-09-05T12:13:53.000Z</time>
      </trkpt>
      <trkpt lat="44.12063" lon="6.82834">
        <ele>1155.5999755859</ele>
        <time>2020-09-05T12:13:54.000Z</time>
      </trkpt>
      <trkpt lat="44.12063" lon="6.82834">
        <ele>1154.4000244141</ele>
        <time>2020-09-05T12:13:56.000Z</time>
      </trkpt>
      <trkpt lat="44.12063" lon="6.82834">
        <ele>1154.1999511719</ele>
        <time>2020-09-05T12:14:06.000Z</time>
      </trkpt>
      <trkpt lat="44.12062" lon="6.82833">
        <ele>1154.4000244141</ele>
        <time>2020-09-05T12:14:13.000Z</time>
      </trkpt>
      <trkpt lat="44.1206" lon="6.82831">
        <ele>1154.4000244141</ele>
        <time>2020-09-05T12:14:15.000Z</time>
      </trkpt>
      <trkpt lat="44.12048" lon="6.82823">
        <ele>1154.4000244141</ele>
        <time>2020-09-05T12:14:19.000Z</time>
      </trkpt>
      <trkpt lat="44.12035" lon="6.82826">
        <ele>1153.5999755859</ele>
        <time>2020-09-05T12:14:22.000Z</time>
      </trkpt>
      <trkpt lat="44.1203" lon="6.82824">
        <ele>1153.1999511719</ele>
        <time>2020-09-05T12:14:23.000Z</time>
      </trkpt>
      <trkpt lat="44.12018" lon="6.82819">
        <ele>1152.4000244141</ele>
        <time>2020-09-05T12:14:25.000Z</time>
      </trkpt>
      <trkpt lat="44.12011" lon="6.82817">
        <ele>1151.8000488281</ele>
        <time>2020-09-05T12:14:26.000Z</time>
      </trkpt>
      <trkpt lat="44.11998" lon="6.82814">
        <ele>1150.4000244141</ele>
        <time>2020-09-05T12:14:28.000Z</time>
      </trkpt>
      <trkpt lat="44.11991" lon="6.82815">
        <ele>1149.4000244141</ele>
        <time>2020-09-05T12:14:29.000Z</time>
      </trkpt>
      <trkpt lat="44.11984" lon="6.82813">
        <ele>1148.1999511719</ele>
        <time>2020-09-05T12:14:30.000Z</time>
      </trkpt>
      <trkpt lat="44.11974" lon="6.82808">
        <ele>1146.5999755859</ele>
        <time>2020-09-05T12:14:32.000Z</time>
      </trkpt>
      <trkpt lat="44.11964" lon="6.82804">
        <ele>1145.5999755859</ele>
        <time>2020-09-05T12:14:34.000Z</time>
      </trkpt>
      <trkpt lat="44.1196" lon="6.82803">
        <ele>1145.5999755859</ele>
        <time>2020-09-05T12:14:35.000Z</time>
      </trkpt>
      <trkpt lat="44.11957" lon="6.82804">
        <ele>1145.5999755859</ele>
        <time>2020-09-05T12:14:36.000Z</time>
      </trkpt>
      <trkpt lat="44.11957" lon="6.82805">
        <ele>1145.8000488281</ele>
        <time>2020-09-05T12:14:40.000Z</time>
      </trkpt>
      <trkpt lat="44.11958" lon="6.82806">
        <ele>1145</ele>
        <time>2020-09-05T12:14:51.000Z</time>
      </trkpt>
      <trkpt lat="44.11959" lon="6.82807">
        <ele>1145</ele>
        <time>2020-09-05T12:15:06.000Z</time>
      </trkpt>
      <trkpt lat="44.1196" lon="6.82808">
        <ele>1145.1999511719</ele>
        <time>2020-09-05T12:15:22.000Z</time>
      </trkpt>
      <trkpt lat="44.11956" lon="6.82805">
        <ele>1145.5999755859</ele>
        <time>2020-09-05T12:15:33.000Z</time>
      </trkpt>
      <trkpt lat="44.11953" lon="6.82804">
        <ele>1145.5999755859</ele>
        <time>2020-09-05T12:15:34.000Z</time>
      </trkpt>
      <trkpt lat="44.11942" lon="6.82803">
        <ele>1145.5999755859</ele>
        <time>2020-09-05T12:15:36.000Z</time>
      </trkpt>
      <trkpt lat="44.1192" lon="6.82793">
        <ele>1145.1999511719</ele>
        <time>2020-09-05T12:15:39.000Z</time>
      </trkpt>
      <trkpt lat="44.11914" lon="6.82789">
        <ele>1144.5999755859</ele>
        <time>2020-09-05T12:15:40.000Z</time>
      </trkpt>
      <trkpt lat="44.11902" lon="6.82783">
        <ele>1142.5999755859</ele>
        <time>2020-09-05T12:15:42.000Z</time>
      </trkpt>
      <trkpt lat="44.11898" lon="6.82784">
        <ele>1141.4000244141</ele>
        <time>2020-09-05T12:15:43.000Z</time>
      </trkpt>
      <trkpt lat="44.11894" lon="6.82786">
        <ele>1140.1999511719</ele>
        <time>2020-09-05T12:15:44.000Z</time>
      </trkpt>
      <trkpt lat="44.1189" lon="6.82787">
        <ele>1139</ele>
        <time>2020-09-05T12:15:45.000Z</time>
      </trkpt>
      <trkpt lat="44.11887" lon="6.82787">
        <ele>1138.4000244141</ele>
        <time>2020-09-05T12:15:46.000Z</time>
      </trkpt>
      <trkpt lat="44.11881" lon="6.82783">
        <ele>1137</ele>
        <time>2020-09-05T12:15:47.000Z</time>
      </trkpt>
      <trkpt lat="44.11876" lon="6.82779">
        <ele>1135.5999755859</ele>
        <time>2020-09-05T12:15:48.000Z</time>
      </trkpt>
      <trkpt lat="44.11872" lon="6.82776">
        <ele>1134.5999755859</ele>
        <time>2020-09-05T12:15:49.000Z</time>
      </trkpt>
      <trkpt lat="44.11867" lon="6.82773">
        <ele>1133.5999755859</ele>
        <time>2020-09-05T12:15:50.000Z</time>
      </trkpt>
      <trkpt lat="44.11859" lon="6.82768">
        <ele>1132.5999755859</ele>
        <time>2020-09-05T12:15:52.000Z</time>
      </trkpt>
      <trkpt lat="44.11856" lon="6.82769">
        <ele>1132.1999511719</ele>
        <time>2020-09-05T12:15:53.000Z</time>
      </trkpt>
      <trkpt lat="44.11852" lon="6.82775">
        <ele>1131.1999511719</ele>
        <time>2020-09-05T12:15:55.000Z</time>
      </trkpt>
      <trkpt lat="44.11847" lon="6.82779">
        <ele>1130</ele>
        <time>2020-09-05T12:15:57.000Z</time>
      </trkpt>
      <trkpt lat="44.11844" lon="6.82782">
        <ele>1128.8000488281</ele>
        <time>2020-09-05T12:15:58.000Z</time>
      </trkpt>
      <trkpt lat="44.1184" lon="6.82785">
        <ele>1127.4000244141</ele>
        <time>2020-09-05T12:15:59.000Z</time>
      </trkpt>
      <trkpt lat="44.11836" lon="6.82788">
        <ele>1125.8000488281</ele>
        <time>2020-09-05T12:16:00.000Z</time>
      </trkpt>
      <trkpt lat="44.11832" lon="6.8279">
        <ele>1124.1999511719</ele>
        <time>2020-09-05T12:16:01.000Z</time>
      </trkpt>
      <trkpt lat="44.11827" lon="6.82789">
        <ele>1122.5999755859</ele>
        <time>2020-09-05T12:16:02.000Z</time>
      </trkpt>
      <trkpt lat="44.11821" lon="6.82786">
        <ele>1121</ele>
        <time>2020-09-05T12:16:03.000Z</time>
      </trkpt>
      <trkpt lat="44.11815" lon="6.82782">
        <ele>1119.5999755859</ele>
        <time>2020-09-05T12:16:04.000Z</time>
      </trkpt>
      <trkpt lat="44.11801" lon="6.82779">
        <ele>1117.5999755859</ele>
        <time>2020-09-05T12:16:06.000Z</time>
      </trkpt>
      <trkpt lat="44.11792" lon="6.8278">
        <ele>1116.5999755859</ele>
        <time>2020-09-05T12:16:07.000Z</time>
      </trkpt>
      <trkpt lat="44.11784" lon="6.82781">
        <ele>1116</ele>
        <time>2020-09-05T12:16:08.000Z</time>
      </trkpt>
      <trkpt lat="44.11765" lon="6.82784">
        <ele>1114.8000488281</ele>
        <time>2020-09-05T12:16:11.000Z</time>
      </trkpt>
      <trkpt lat="44.11756" lon="6.82787">
        <ele>1114</ele>
        <time>2020-09-05T12:16:13.000Z</time>
      </trkpt>
      <trkpt lat="44.11753" lon="6.82789">
        <ele>1113.5999755859</ele>
        <time>2020-09-05T12:16:14.000Z</time>
      </trkpt>
      <trkpt lat="44.11747" lon="6.82792">
        <ele>1111.4000244141</ele>
        <time>2020-09-05T12:16:17.000Z</time>
      </trkpt>
      <trkpt lat="44.11744" lon="6.82792">
        <ele>1110.4000244141</ele>
        <time>2020-09-05T12:16:18.000Z</time>
      </trkpt>
      <trkpt lat="44.11741" lon="6.82792">
        <ele>1109.4000244141</ele>
        <time>2020-09-05T12:16:19.000Z</time>
      </trkpt>
      <trkpt lat="44.11736" lon="6.82791">
        <ele>1108.1999511719</ele>
        <time>2020-09-05T12:16:21.000Z</time>
      </trkpt>
      <trkpt lat="44.11735" lon="6.8279">
        <ele>1107.5999755859</ele>
        <time>2020-09-05T12:16:22.000Z</time>
      </trkpt>
      <trkpt lat="44.11735" lon="6.82788">
        <ele>1106.8000488281</ele>
        <time>2020-09-05T12:16:24.000Z</time>
      </trkpt>
      <trkpt lat="44.11735" lon="6.82783">
        <ele>1106</ele>
        <time>2020-09-05T12:16:26.000Z</time>
      </trkpt>
      <trkpt lat="44.11735" lon="6.82779">
        <ele>1105.5999755859</ele>
        <time>2020-09-05T12:16:27.000Z</time>
      </trkpt>
      <trkpt lat="44.11735" lon="6.82775">
        <ele>1105.4000244141</ele>
        <time>2020-09-05T12:16:28.000Z</time>
      </trkpt>
      <trkpt lat="44.1173" lon="6.82768">
        <ele>1105</ele>
        <time>2020-09-05T12:16:30.000Z</time>
      </trkpt>
      <trkpt lat="44.11721" lon="6.82761">
        <ele>1104.5999755859</ele>
        <time>2020-09-05T12:16:32.000Z</time>
      </trkpt>
      <trkpt lat="44.1171" lon="6.82758">
        <ele>1103.8000488281</ele>
        <time>2020-09-05T12:16:34.000Z</time>
      </trkpt>
      <trkpt lat="44.11704" lon="6.82758">
        <ele>1103</ele>
        <time>2020-09-05T12:16:35.000Z</time>
      </trkpt>
      <trkpt lat="44.11699" lon="6.82756">
        <ele>1101.8000488281</ele>
        <time>2020-09-05T12:16:36.000Z</time>
      </trkpt>
      <trkpt lat="44.11693" lon="6.82754">
        <ele>1100.4000244141</ele>
        <time>2020-09-05T12:16:37.000Z</time>
      </trkpt>
      <trkpt lat="44.11687" lon="6.8275">
        <ele>1099</ele>
        <time>2020-09-05T12:16:38.000Z</time>
      </trkpt>
      <trkpt lat="44.1168" lon="6.82748">
        <ele>1097.8000488281</ele>
        <time>2020-09-05T12:16:39.000Z</time>
      </trkpt>
      <trkpt lat="44.11665" lon="6.82745">
        <ele>1096</ele>
        <time>2020-09-05T12:16:41.000Z</time>
      </trkpt>
      <trkpt lat="44.11647" lon="6.82743">
        <ele>1094.5999755859</ele>
        <time>2020-09-05T12:16:43.000Z</time>
      </trkpt>
      <trkpt lat="44.11632" lon="6.82743">
        <ele>1093.1999511719</ele>
        <time>2020-09-05T12:16:45.000Z</time>
      </trkpt>
      <trkpt lat="44.11624" lon="6.82743">
        <ele>1093</ele>
        <time>2020-09-05T12:16:46.000Z</time>
      </trkpt>
      <trkpt lat="44.11616" lon="6.82742">
        <ele>1092.1999511719</ele>
        <time>2020-09-05T12:16:47.000Z</time>
      </trkpt>
      <trkpt lat="44.11604" lon="6.82735">
        <ele>1091.1999511719</ele>
        <time>2020-09-05T12:16:49.000Z</time>
      </trkpt>
      <trkpt lat="44.11596" lon="6.82721">
        <ele>1089.8000488281</ele>
        <time>2020-09-05T12:16:51.000Z</time>
      </trkpt>
      <trkpt lat="44.11591" lon="6.82714">
        <ele>1088.8000488281</ele>
        <time>2020-09-05T12:16:52.000Z</time>
      </trkpt>
      <trkpt lat="44.11586" lon="6.82707">
        <ele>1087.5999755859</ele>
        <time>2020-09-05T12:16:53.000Z</time>
      </trkpt>
      <trkpt lat="44.1158" lon="6.82702">
        <ele>1086.1999511719</ele>
        <time>2020-09-05T12:16:54.000Z</time>
      </trkpt>
      <trkpt lat="44.11573" lon="6.82698">
        <ele>1085</ele>
        <time>2020-09-05T12:16:55.000Z</time>
      </trkpt>
      <trkpt lat="44.11566" lon="6.82694">
        <ele>1083.8000488281</ele>
        <time>2020-09-05T12:16:56.000Z</time>
      </trkpt>
      <trkpt lat="44.11559" lon="6.82688">
        <ele>1082.8000488281</ele>
        <time>2020-09-05T12:16:57.000Z</time>
      </trkpt>
      <trkpt lat="44.11553" lon="6.82683">
        <ele>1081.8000488281</ele>
        <time>2020-09-05T12:16:58.000Z</time>
      </trkpt>
      <trkpt lat="44.11547" lon="6.82676">
        <ele>1080.4000244141</ele>
        <time>2020-09-05T12:16:59.000Z</time>
      </trkpt>
      <trkpt lat="44.11542" lon="6.82671">
        <ele>1079</ele>
        <time>2020-09-05T12:17:00.000Z</time>
      </trkpt>
      <trkpt lat="44.11537" lon="6.82666">
        <ele>1078</ele>
        <time>2020-09-05T12:17:01.000Z</time>
      </trkpt>
      <trkpt lat="44.11531" lon="6.82663">
        <ele>1076.8000488281</ele>
        <time>2020-09-05T12:17:02.000Z</time>
      </trkpt>
      <trkpt lat="44.11526" lon="6.8266">
        <ele>1076.1999511719</ele>
        <time>2020-09-05T12:17:03.000Z</time>
      </trkpt>
      <trkpt lat="44.1152" lon="6.8266">
        <ele>1075.5999755859</ele>
        <time>2020-09-05T12:17:04.000Z</time>
      </trkpt>
      <trkpt lat="44.11513" lon="6.82662">
        <ele>1075</ele>
        <time>2020-09-05T12:17:05.000Z</time>
      </trkpt>
      <trkpt lat="44.11507" lon="6.82664">
        <ele>1074.5999755859</ele>
        <time>2020-09-05T12:17:06.000Z</time>
      </trkpt>
      <trkpt lat="44.11484" lon="6.82666">
        <ele>1073.1999511719</ele>
        <time>2020-09-05T12:17:09.000Z</time>
      </trkpt>
      <trkpt lat="44.11476" lon="6.82663">
        <ele>1072.5999755859</ele>
        <time>2020-09-05T12:17:10.000Z</time>
      </trkpt>
      <trkpt lat="44.11469" lon="6.82658">
        <ele>1071.5999755859</ele>
        <time>2020-09-05T12:17:11.000Z</time>
      </trkpt>
      <trkpt lat="44.11454" lon="6.82644">
        <ele>1069.5999755859</ele>
        <time>2020-09-05T12:17:13.000Z</time>
      </trkpt>
      <trkpt lat="44.11446" lon="6.82638">
        <ele>1068.5999755859</ele>
        <time>2020-09-05T12:17:14.000Z</time>
      </trkpt>
      <trkpt lat="44.11438" lon="6.82632">
        <ele>1067.4000244141</ele>
        <time>2020-09-05T12:17:15.000Z</time>
      </trkpt>
      <trkpt lat="44.11421" lon="6.82621">
        <ele>1065.4000244141</ele>
        <time>2020-09-05T12:17:17.000Z</time>
      </trkpt>
      <trkpt lat="44.11403" lon="6.82607">
        <ele>1063.5999755859</ele>
        <time>2020-09-05T12:17:19.000Z</time>
      </trkpt>
      <trkpt lat="44.11386" lon="6.82591">
        <ele>1062.4000244141</ele>
        <time>2020-09-05T12:17:21.000Z</time>
      </trkpt>
      <trkpt lat="44.11368" lon="6.82574">
        <ele>1061.1999511719</ele>
        <time>2020-09-05T12:17:23.000Z</time>
      </trkpt>
      <trkpt lat="44.1136" lon="6.82566">
        <ele>1060.4000244141</ele>
        <time>2020-09-05T12:17:24.000Z</time>
      </trkpt>
      <trkpt lat="44.11351" lon="6.82558">
        <ele>1060</ele>
        <time>2020-09-05T12:17:25.000Z</time>
      </trkpt>
      <trkpt lat="44.11336" lon="6.82543">
        <ele>1058.5999755859</ele>
        <time>2020-09-05T12:17:27.000Z</time>
      </trkpt>
      <trkpt lat="44.11329" lon="6.82536">
        <ele>1057.4000244141</ele>
        <time>2020-09-05T12:17:28.000Z</time>
      </trkpt>
      <trkpt lat="44.11315" lon="6.82522">
        <ele>1055.8000488281</ele>
        <time>2020-09-05T12:17:30.000Z</time>
      </trkpt>
      <trkpt lat="44.11302" lon="6.82509">
        <ele>1054.5999755859</ele>
        <time>2020-09-05T12:17:32.000Z</time>
      </trkpt>
      <trkpt lat="44.11295" lon="6.82505">
        <ele>1054.1999511719</ele>
        <time>2020-09-05T12:17:33.000Z</time>
      </trkpt>
      <trkpt lat="44.11282" lon="6.82496">
        <ele>1053.5999755859</ele>
        <time>2020-09-05T12:17:35.000Z</time>
      </trkpt>
      <trkpt lat="44.11269" lon="6.82491">
        <ele>1052.1999511719</ele>
        <time>2020-09-05T12:17:38.000Z</time>
      </trkpt>
      <trkpt lat="44.11261" lon="6.82488">
        <ele>1051.1999511719</ele>
        <time>2020-09-05T12:17:40.000Z</time>
      </trkpt>
      <trkpt lat="44.11253" lon="6.82486">
        <ele>1050</ele>
        <time>2020-09-05T12:17:42.000Z</time>
      </trkpt>
      <trkpt lat="44.11246" lon="6.82485">
        <ele>1049</ele>
        <time>2020-09-05T12:17:44.000Z</time>
      </trkpt>
      <trkpt lat="44.11239" lon="6.82485">
        <ele>1047.4000244141</ele>
        <time>2020-09-05T12:17:46.000Z</time>
      </trkpt>
      <trkpt lat="44.11237" lon="6.82482">
        <ele>1046</ele>
        <time>2020-09-05T12:17:47.000Z</time>
      </trkpt>
      <trkpt lat="44.11234" lon="6.82479">
        <ele>1044.8000488281</ele>
        <time>2020-09-05T12:17:48.000Z</time>
      </trkpt>
      <trkpt lat="44.1123" lon="6.82476">
        <ele>1043.5999755859</ele>
        <time>2020-09-05T12:17:49.000Z</time>
      </trkpt>
      <trkpt lat="44.11226" lon="6.82473">
        <ele>1042.5999755859</ele>
        <time>2020-09-05T12:17:50.000Z</time>
      </trkpt>
      <trkpt lat="44.11222" lon="6.82471">
        <ele>1041.4000244141</ele>
        <time>2020-09-05T12:17:51.000Z</time>
      </trkpt>
      <trkpt lat="44.11217" lon="6.82468">
        <ele>1040.4000244141</ele>
        <time>2020-09-05T12:17:52.000Z</time>
      </trkpt>
      <trkpt lat="44.11212" lon="6.82466">
        <ele>1038.8000488281</ele>
        <time>2020-09-05T12:17:53.000Z</time>
      </trkpt>
      <trkpt lat="44.11206" lon="6.82463">
        <ele>1037.5999755859</ele>
        <time>2020-09-05T12:17:54.000Z</time>
      </trkpt>
      <trkpt lat="44.11201" lon="6.8246">
        <ele>1036.5999755859</ele>
        <time>2020-09-05T12:17:55.000Z</time>
      </trkpt>
      <trkpt lat="44.11192" lon="6.82453">
        <ele>1035.1999511719</ele>
        <time>2020-09-05T12:17:57.000Z</time>
      </trkpt>
      <trkpt lat="44.11187" lon="6.8245">
        <ele>1034.4000244141</ele>
        <time>2020-09-05T12:17:58.000Z</time>
      </trkpt>
      <trkpt lat="44.11181" lon="6.82446">
        <ele>1033.5999755859</ele>
        <time>2020-09-05T12:17:59.000Z</time>
      </trkpt>
      <trkpt lat="44.11168" lon="6.82438">
        <ele>1031.8000488281</ele>
        <time>2020-09-05T12:18:01.000Z</time>
      </trkpt>
      <trkpt lat="44.11162" lon="6.82434">
        <ele>1030.1999511719</ele>
        <time>2020-09-05T12:18:02.000Z</time>
      </trkpt>
      <trkpt lat="44.11156" lon="6.82429">
        <ele>1028.4000244141</ele>
        <time>2020-09-05T12:18:03.000Z</time>
      </trkpt>
      <trkpt lat="44.11152" lon="6.82426">
        <ele>1026.8000488281</ele>
        <time>2020-09-05T12:18:04.000Z</time>
      </trkpt>
      <trkpt lat="44.11148" lon="6.82423">
        <ele>1025.4000244141</ele>
        <time>2020-09-05T12:18:05.000Z</time>
      </trkpt>
      <trkpt lat="44.11145" lon="6.8242">
        <ele>1024</ele>
        <time>2020-09-05T12:18:06.000Z</time>
      </trkpt>
      <trkpt lat="44.11141" lon="6.82417">
        <ele>1022.799987793</ele>
        <time>2020-09-05T12:18:07.000Z</time>
      </trkpt>
      <trkpt lat="44.11134" lon="6.82414">
        <ele>1021.4000244141</ele>
        <time>2020-09-05T12:18:09.000Z</time>
      </trkpt>
      <trkpt lat="44.11125" lon="6.82403">
        <ele>1020.4000244141</ele>
        <time>2020-09-05T12:18:12.000Z</time>
      </trkpt>
      <trkpt lat="44.1112" lon="6.82392">
        <ele>1019.4000244141</ele>
        <time>2020-09-05T12:18:15.000Z</time>
      </trkpt>
      <trkpt lat="44.11118" lon="6.82389">
        <ele>1019</ele>
        <time>2020-09-05T12:18:16.000Z</time>
      </trkpt>
      <trkpt lat="44.11117" lon="6.82384">
        <ele>1018.200012207</ele>
        <time>2020-09-05T12:18:18.000Z</time>
      </trkpt>
      <trkpt lat="44.11118" lon="6.8238">
        <ele>1017.799987793</ele>
        <time>2020-09-05T12:18:19.000Z</time>
      </trkpt>
      <trkpt lat="44.11121" lon="6.82374">
        <ele>1016.799987793</ele>
        <time>2020-09-05T12:18:21.000Z</time>
      </trkpt>
      <trkpt lat="44.11122" lon="6.82373">
        <ele>1016</ele>
        <time>2020-09-05T12:18:22.000Z</time>
      </trkpt>
      <trkpt lat="44.11124" lon="6.82369">
        <ele>1014.200012207</ele>
        <time>2020-09-05T12:18:24.000Z</time>
      </trkpt>
      <trkpt lat="44.11125" lon="6.82367">
        <ele>1013.4000244141</ele>
        <time>2020-09-05T12:18:25.000Z</time>
      </trkpt>
      <trkpt lat="44.11127" lon="6.82365">
        <ele>1012.5999755859</ele>
        <time>2020-09-05T12:18:26.000Z</time>
      </trkpt>
      <trkpt lat="44.1113" lon="6.8236">
        <ele>1010.4000244141</ele>
        <time>2020-09-05T12:18:28.000Z</time>
      </trkpt>
      <trkpt lat="44.11131" lon="6.82357">
        <ele>1008.799987793</ele>
        <time>2020-09-05T12:18:30.000Z</time>
      </trkpt>
      <trkpt lat="44.11131" lon="6.82356">
        <ele>1007.799987793</ele>
        <time>2020-09-05T12:18:31.000Z</time>
      </trkpt>
      <trkpt lat="44.11131" lon="6.82356">
        <ele>1007</ele>
        <time>2020-09-05T12:18:32.000Z</time>
      </trkpt>
      <trkpt lat="44.11131" lon="6.82353">
        <ele>1005.799987793</ele>
        <time>2020-09-05T12:18:34.000Z</time>
      </trkpt>
      <trkpt lat="44.11131" lon="6.82348">
        <ele>1005</ele>
        <time>2020-09-05T12:18:36.000Z</time>
      </trkpt>
      <trkpt lat="44.11129" lon="6.82345">
        <ele>1004.5999755859</ele>
        <time>2020-09-05T12:18:37.000Z</time>
      </trkpt>
      <trkpt lat="44.11125" lon="6.8234">
        <ele>1003.5999755859</ele>
        <time>2020-09-05T12:18:39.000Z</time>
      </trkpt>
      <trkpt lat="44.11124" lon="6.82338">
        <ele>1003</ele>
        <time>2020-09-05T12:18:40.000Z</time>
      </trkpt>
      <trkpt lat="44.11122" lon="6.82335">
        <ele>1001.5999755859</ele>
        <time>2020-09-05T12:18:42.000Z</time>
      </trkpt>
      <trkpt lat="44.11121" lon="6.82332">
        <ele>1000.799987793</ele>
        <time>2020-09-05T12:18:43.000Z</time>
      </trkpt>
      <trkpt lat="44.11122" lon="6.82329">
        <ele>1000</ele>
        <time>2020-09-05T12:18:44.000Z</time>
      </trkpt>
      <trkpt lat="44.11124" lon="6.82323">
        <ele>998</ele>
        <time>2020-09-05T12:18:46.000Z</time>
      </trkpt>
      <trkpt lat="44.11127" lon="6.82321">
        <ele>997.20001220703</ele>
        <time>2020-09-05T12:18:47.000Z</time>
      </trkpt>
      <trkpt lat="44.11131" lon="6.82319">
        <ele>996.20001220703</ele>
        <time>2020-09-05T12:18:48.000Z</time>
      </trkpt>
      <trkpt lat="44.11133" lon="6.82318">
        <ele>995.20001220703</ele>
        <time>2020-09-05T12:18:49.000Z</time>
      </trkpt>
      <trkpt lat="44.11136" lon="6.82318">
        <ele>994.40002441406</ele>
        <time>2020-09-05T12:18:50.000Z</time>
      </trkpt>
      <trkpt lat="44.11138" lon="6.82316">
        <ele>993.79998779297</ele>
        <time>2020-09-05T12:18:51.000Z</time>
      </trkpt>
      <trkpt lat="44.11141" lon="6.82314">
        <ele>993.20001220703</ele>
        <time>2020-09-05T12:18:52.000Z</time>
      </trkpt>
      <trkpt lat="44.11155" lon="6.82307">
        <ele>992</ele>
        <time>2020-09-05T12:18:55.000Z</time>
      </trkpt>
      <trkpt lat="44.11159" lon="6.82306">
        <ele>991.79998779297</ele>
        <time>2020-09-05T12:18:56.000Z</time>
      </trkpt>
      <trkpt lat="44.11169" lon="6.82301">
        <ele>990.40002441406</ele>
        <time>2020-09-05T12:18:58.000Z</time>
      </trkpt>
      <trkpt lat="44.1118" lon="6.82294">
        <ele>988.79998779297</ele>
        <time>2020-09-05T12:19:00.000Z</time>
      </trkpt>
      <trkpt lat="44.11185" lon="6.82292">
        <ele>987.59997558594</ele>
        <time>2020-09-05T12:19:01.000Z</time>
      </trkpt>
      <trkpt lat="44.11191" lon="6.82289">
        <ele>986.59997558594</ele>
        <time>2020-09-05T12:19:02.000Z</time>
      </trkpt>
      <trkpt lat="44.11196" lon="6.82286">
        <ele>985.79998779297</ele>
        <time>2020-09-05T12:19:03.000Z</time>
      </trkpt>
      <trkpt lat="44.112" lon="6.82282">
        <ele>984.79998779297</ele>
        <time>2020-09-05T12:19:04.000Z</time>
      </trkpt>
      <trkpt lat="44.11208" lon="6.82274">
        <ele>983.79998779297</ele>
        <time>2020-09-05T12:19:06.000Z</time>
      </trkpt>
      <trkpt lat="44.11208" lon="6.82274">
        <ele>982.59997558594</ele>
        <time>2020-09-05T12:19:07.000Z</time>
      </trkpt>
      <trkpt lat="44.11209" lon="6.82271">
        <ele>981.59997558594</ele>
        <time>2020-09-05T12:19:08.000Z</time>
      </trkpt>
      <trkpt lat="44.11208" lon="6.82268">
        <ele>980.59997558594</ele>
        <time>2020-09-05T12:19:09.000Z</time>
      </trkpt>
      <trkpt lat="44.11202" lon="6.82261">
        <ele>978.79998779297</ele>
        <time>2020-09-05T12:19:11.000Z</time>
      </trkpt>
      <trkpt lat="44.11192" lon="6.82256">
        <ele>977.40002441406</ele>
        <time>2020-09-05T12:19:13.000Z</time>
      </trkpt>
      <trkpt lat="44.11186" lon="6.82256">
        <ele>976.79998779297</ele>
        <time>2020-09-05T12:19:14.000Z</time>
      </trkpt>
      <trkpt lat="44.11181" lon="6.82257">
        <ele>976.20001220703</ele>
        <time>2020-09-05T12:19:15.000Z</time>
      </trkpt>
      <trkpt lat="44.11172" lon="6.82254">
        <ele>975</ele>
        <time>2020-09-05T12:19:17.000Z</time>
      </trkpt>
      <trkpt lat="44.11164" lon="6.82252">
        <ele>973.79998779297</ele>
        <time>2020-09-05T12:19:19.000Z</time>
      </trkpt>
      <trkpt lat="44.11157" lon="6.82252">
        <ele>972.79998779297</ele>
        <time>2020-09-05T12:19:21.000Z</time>
      </trkpt>
      <trkpt lat="44.11143" lon="6.82248">
        <ele>971.40002441406</ele>
        <time>2020-09-05T12:19:24.000Z</time>
      </trkpt>
      <trkpt lat="44.11139" lon="6.82248">
        <ele>971.20001220703</ele>
        <time>2020-09-05T12:19:25.000Z</time>
      </trkpt>
      <trkpt lat="44.11136" lon="6.82246">
        <ele>970.40002441406</ele>
        <time>2020-09-05T12:19:27.000Z</time>
      </trkpt>
      <trkpt lat="44.11135" lon="6.82244">
        <ele>969.79998779297</ele>
        <time>2020-09-05T12:19:28.000Z</time>
      </trkpt>
      <trkpt lat="44.1114" lon="6.82236">
        <ele>968.20001220703</ele>
        <time>2020-09-05T12:19:30.000Z</time>
      </trkpt>
      <trkpt lat="44.11143" lon="6.82233">
        <ele>967.79998779297</ele>
        <time>2020-09-05T12:19:31.000Z</time>
      </trkpt>
      <trkpt lat="44.11146" lon="6.8223">
        <ele>967.20001220703</ele>
        <time>2020-09-05T12:19:32.000Z</time>
      </trkpt>
      <trkpt lat="44.11147" lon="6.82226">
        <ele>966.40002441406</ele>
        <time>2020-09-05T12:19:34.000Z</time>
      </trkpt>
      <trkpt lat="44.11146" lon="6.82224">
        <ele>966</ele>
        <time>2020-09-05T12:19:35.000Z</time>
      </trkpt>
      <trkpt lat="44.11138" lon="6.82223">
        <ele>965</ele>
        <time>2020-09-05T12:19:37.000Z</time>
      </trkpt>
      <trkpt lat="44.11129" lon="6.82221">
        <ele>963.59997558594</ele>
        <time>2020-09-05T12:19:39.000Z</time>
      </trkpt>
      <trkpt lat="44.11125" lon="6.82219">
        <ele>962.40002441406</ele>
        <time>2020-09-05T12:19:41.000Z</time>
      </trkpt>
      <trkpt lat="44.11127" lon="6.82212">
        <ele>961</ele>
        <time>2020-09-05T12:19:43.000Z</time>
      </trkpt>
      <trkpt lat="44.11132" lon="6.82204">
        <ele>959.59997558594</ele>
        <time>2020-09-05T12:19:45.000Z</time>
      </trkpt>
      <trkpt lat="44.11134" lon="6.82197">
        <ele>958.59997558594</ele>
        <time>2020-09-05T12:19:47.000Z</time>
      </trkpt>
      <trkpt lat="44.11134" lon="6.82196">
        <ele>958.20001220703</ele>
        <time>2020-09-05T12:19:48.000Z</time>
      </trkpt>
      <trkpt lat="44.1113" lon="6.82194">
        <ele>956.79998779297</ele>
        <time>2020-09-05T12:19:50.000Z</time>
      </trkpt>
      <trkpt lat="44.11126" lon="6.82193">
        <ele>955.59997558594</ele>
        <time>2020-09-05T12:19:52.000Z</time>
      </trkpt>
      <trkpt lat="44.11125" lon="6.82188">
        <ele>954.40002441406</ele>
        <time>2020-09-05T12:19:54.000Z</time>
      </trkpt>
      <trkpt lat="44.11122" lon="6.82181">
        <ele>952.79998779297</ele>
        <time>2020-09-05T12:19:57.000Z</time>
      </trkpt>
      <trkpt lat="44.1112" lon="6.82181">
        <ele>952.20001220703</ele>
        <time>2020-09-05T12:19:58.000Z</time>
      </trkpt>
      <trkpt lat="44.11118" lon="6.82179">
        <ele>951.59997558594</ele>
        <time>2020-09-05T12:19:59.000Z</time>
      </trkpt>
      <trkpt lat="44.1112" lon="6.82171">
        <ele>950</ele>
        <time>2020-09-05T12:20:01.000Z</time>
      </trkpt>
      <trkpt lat="44.11123" lon="6.82164">
        <ele>948.59997558594</ele>
        <time>2020-09-05T12:20:03.000Z</time>
      </trkpt>
      <trkpt lat="44.11123" lon="6.82162">
        <ele>948</ele>
        <time>2020-09-05T12:20:04.000Z</time>
      </trkpt>
      <trkpt lat="44.11124" lon="6.82159">
        <ele>947.20001220703</ele>
        <time>2020-09-05T12:20:05.000Z</time>
      </trkpt>
      <trkpt lat="44.11125" lon="6.82157">
        <ele>946.79998779297</ele>
        <time>2020-09-05T12:20:06.000Z</time>
      </trkpt>
      <trkpt lat="44.11127" lon="6.82152">
        <ele>946.20001220703</ele>
        <time>2020-09-05T12:20:07.000Z</time>
      </trkpt>
      <trkpt lat="44.11129" lon="6.82142">
        <ele>944.59997558594</ele>
        <time>2020-09-05T12:20:09.000Z</time>
      </trkpt>
      <trkpt lat="44.11132" lon="6.82134">
        <ele>943</ele>
        <time>2020-09-05T12:20:11.000Z</time>
      </trkpt>
      <trkpt lat="44.11137" lon="6.82125">
        <ele>941.20001220703</ele>
        <time>2020-09-05T12:20:13.000Z</time>
      </trkpt>
      <trkpt lat="44.11143" lon="6.82118">
        <ele>939</ele>
        <time>2020-09-05T12:20:15.000Z</time>
      </trkpt>
      <trkpt lat="44.11144" lon="6.82115">
        <ele>938</ele>
        <time>2020-09-05T12:20:16.000Z</time>
      </trkpt>
      <trkpt lat="44.11143" lon="6.82112">
        <ele>937</ele>
        <time>2020-09-05T12:20:17.000Z</time>
      </trkpt>
      <trkpt lat="44.11141" lon="6.82111">
        <ele>936</ele>
        <time>2020-09-05T12:20:18.000Z</time>
      </trkpt>
      <trkpt lat="44.11138" lon="6.82111">
        <ele>935</ele>
        <time>2020-09-05T12:20:19.000Z</time>
      </trkpt>
      <trkpt lat="44.11134" lon="6.82111">
        <ele>934</ele>
        <time>2020-09-05T12:20:20.000Z</time>
      </trkpt>
      <trkpt lat="44.1113" lon="6.82111">
        <ele>933.40002441406</ele>
        <time>2020-09-05T12:20:21.000Z</time>
      </trkpt>
      <trkpt lat="44.11122" lon="6.82113">
        <ele>932.20001220703</ele>
        <time>2020-09-05T12:20:23.000Z</time>
      </trkpt>
      <trkpt lat="44.1112" lon="6.82113">
        <ele>931.40002441406</ele>
        <time>2020-09-05T12:20:24.000Z</time>
      </trkpt>
      <trkpt lat="44.11119" lon="6.82112">
        <ele>930.79998779297</ele>
        <time>2020-09-05T12:20:25.000Z</time>
      </trkpt>
      <trkpt lat="44.11122" lon="6.82106">
        <ele>929.59997558594</ele>
        <time>2020-09-05T12:20:27.000Z</time>
      </trkpt>
      <trkpt lat="44.11124" lon="6.82102">
        <ele>928.79998779297</ele>
        <time>2020-09-05T12:20:28.000Z</time>
      </trkpt>
      <trkpt lat="44.11127" lon="6.82098">
        <ele>928.40002441406</ele>
        <time>2020-09-05T12:20:29.000Z</time>
      </trkpt>
      <trkpt lat="44.1113" lon="6.82096">
        <ele>927.79998779297</ele>
        <time>2020-09-05T12:20:30.000Z</time>
      </trkpt>
      <trkpt lat="44.11133" lon="6.82094">
        <ele>927.20001220703</ele>
        <time>2020-09-05T12:20:31.000Z</time>
      </trkpt>
      <trkpt lat="44.11137" lon="6.8209">
        <ele>926.59997558594</ele>
        <time>2020-09-05T12:20:32.000Z</time>
      </trkpt>
      <trkpt lat="44.11141" lon="6.82087">
        <ele>925.79998779297</ele>
        <time>2020-09-05T12:20:33.000Z</time>
      </trkpt>
      <trkpt lat="44.11145" lon="6.82085">
        <ele>925.20001220703</ele>
        <time>2020-09-05T12:20:34.000Z</time>
      </trkpt>
      <trkpt lat="44.11148" lon="6.82083">
        <ele>924.40002441406</ele>
        <time>2020-09-05T12:20:35.000Z</time>
      </trkpt>
      <trkpt lat="44.11149" lon="6.82082">
        <ele>923.59997558594</ele>
        <time>2020-09-05T12:20:36.000Z</time>
      </trkpt>
      <trkpt lat="44.11149" lon="6.8208">
        <ele>922.59997558594</ele>
        <time>2020-09-05T12:20:37.000Z</time>
      </trkpt>
      <trkpt lat="44.11148" lon="6.82077">
        <ele>921.59997558594</ele>
        <time>2020-09-05T12:20:38.000Z</time>
      </trkpt>
      <trkpt lat="44.11145" lon="6.82072">
        <ele>920.59997558594</ele>
        <time>2020-09-05T12:20:39.000Z</time>
      </trkpt>
      <trkpt lat="44.11144" lon="6.82069">
        <ele>919.79998779297</ele>
        <time>2020-09-05T12:20:40.000Z</time>
      </trkpt>
      <trkpt lat="44.11142" lon="6.82066">
        <ele>919.20001220703</ele>
        <time>2020-09-05T12:20:41.000Z</time>
      </trkpt>
      <trkpt lat="44.11142" lon="6.82062">
        <ele>918</ele>
        <time>2020-09-05T12:20:43.000Z</time>
      </trkpt>
      <trkpt lat="44.11146" lon="6.82059">
        <ele>916.40002441406</ele>
        <time>2020-09-05T12:20:45.000Z</time>
      </trkpt>
      <trkpt lat="44.1115" lon="6.8206">
        <ele>914.79998779297</ele>
        <time>2020-09-05T12:20:47.000Z</time>
      </trkpt>
      <trkpt lat="44.11155" lon="6.82062">
        <ele>913.40002441406</ele>
        <time>2020-09-05T12:20:49.000Z</time>
      </trkpt>
      <trkpt lat="44.11156" lon="6.82059">
        <ele>911.79998779297</ele>
        <time>2020-09-05T12:20:51.000Z</time>
      </trkpt>
      <trkpt lat="44.11156" lon="6.82053">
        <ele>910</ele>
        <time>2020-09-05T12:20:53.000Z</time>
      </trkpt>
      <trkpt lat="44.11155" lon="6.82053">
        <ele>908.59997558594</ele>
        <time>2020-09-05T12:20:55.000Z</time>
      </trkpt>
      <trkpt lat="44.11155" lon="6.82052">
        <ele>907.40002441406</ele>
        <time>2020-09-05T12:20:58.000Z</time>
      </trkpt>
      <trkpt lat="44.11156" lon="6.82052">
        <ele>907</ele>
        <time>2020-09-05T12:21:07.000Z</time>
      </trkpt>
      <trkpt lat="44.11156" lon="6.82053">
        <ele>906.79998779297</ele>
        <time>2020-09-05T12:21:18.000Z</time>
      </trkpt>
      <trkpt lat="44.11157" lon="6.82055">
        <ele>906.79998779297</ele>
        <time>2020-09-05T12:21:29.000Z</time>
      </trkpt>
      <trkpt lat="44.1116" lon="6.82057">
        <ele>906.79998779297</ele>
        <time>2020-09-05T12:21:44.000Z</time>
      </trkpt>
      <trkpt lat="44.1116" lon="6.82055">
        <ele>907</ele>
        <time>2020-09-05T12:21:50.000Z</time>
      </trkpt>
      <trkpt lat="44.11161" lon="6.82054">
        <ele>906.79998779297</ele>
        <time>2020-09-05T12:22:00.000Z</time>
      </trkpt>
      <trkpt lat="44.11163" lon="6.82053">
        <ele>906.79998779297</ele>
        <time>2020-09-05T12:22:15.000Z</time>
      </trkpt>
      <trkpt lat="44.11164" lon="6.82052">
        <ele>907</ele>
        <time>2020-09-05T12:22:27.000Z</time>
      </trkpt>
      <trkpt lat="44.11166" lon="6.82048">
        <ele>907.20001220703</ele>
        <time>2020-09-05T12:22:41.000Z</time>
      </trkpt>
      <trkpt lat="44.11165" lon="6.82049">
        <ele>907.40002441406</ele>
        <time>2020-09-05T12:22:46.000Z</time>
      </trkpt>
      <trkpt lat="44.11164" lon="6.8205">
        <ele>907.20001220703</ele>
        <time>2020-09-05T12:22:56.000Z</time>
      </trkpt>
      <trkpt lat="44.11164" lon="6.8205">
        <ele>907.59997558594</ele>
        <time>2020-09-05T12:23:04.000Z</time>
      </trkpt>
      <trkpt lat="44.11163" lon="6.8205">
        <ele>907.59997558594</ele>
        <time>2020-09-05T12:23:12.000Z</time>
      </trkpt>
      <trkpt lat="44.11162" lon="6.82049">
        <ele>907.20001220703</ele>
        <time>2020-09-05T12:23:28.000Z</time>
      </trkpt>
      <trkpt lat="44.11161" lon="6.82049">
        <ele>907.20001220703</ele>
        <time>2020-09-05T12:23:45.000Z</time>
      </trkpt>
      <trkpt lat="44.11161" lon="6.82048">
        <ele>907.40002441406</ele>
        <time>2020-09-05T12:24:01.000Z</time>
      </trkpt>
      <trkpt lat="44.11161" lon="6.82048">
        <ele>907.40002441406</ele>
        <time>2020-09-05T12:24:19.000Z</time>
      </trkpt>
      <trkpt lat="44.11161" lon="6.82048">
        <ele>907.40002441406</ele>
        <time>2020-09-05T12:24:35.000Z</time>
      </trkpt>
      <trkpt lat="44.11162" lon="6.82048">
        <ele>907.40002441406</ele>
        <time>2020-09-05T12:24:46.000Z</time>
      </trkpt>
      <trkpt lat="44.11164" lon="6.82047">
        <ele>907.79998779297</ele>
        <time>2020-09-05T12:25:01.000Z</time>
      </trkpt>
      <trkpt lat="44.11164" lon="6.82047">
        <ele>907.59997558594</ele>
        <time>2020-09-05T12:25:15.000Z</time>
      </trkpt>
      <trkpt lat="44.11163" lon="6.82046">
        <ele>908</ele>
        <time>2020-09-05T12:25:29.000Z</time>
      </trkpt>
      <trkpt lat="44.11161" lon="6.82042">
        <ele>908.20001220703</ele>
        <time>2020-09-05T12:25:35.000Z</time>
      </trkpt>
      <trkpt lat="44.11158" lon="6.82036">
        <ele>908.59997558594</ele>
        <time>2020-09-05T12:25:38.000Z</time>
      </trkpt>
      <trkpt lat="44.11157" lon="6.82035">
        <ele>908.79998779297</ele>
        <time>2020-09-05T12:25:39.000Z</time>
      </trkpt>
      <trkpt lat="44.11154" lon="6.82034">
        <ele>908.79998779297</ele>
        <time>2020-09-05T12:25:40.000Z</time>
      </trkpt>
      <trkpt lat="44.11132" lon="6.82028">
        <ele>908.79998779297</ele>
        <time>2020-09-05T12:25:47.000Z</time>
      </trkpt>
      <trkpt lat="44.11116" lon="6.82029">
        <ele>908.40002441406</ele>
        <time>2020-09-05T12:25:50.000Z</time>
      </trkpt>
      <trkpt lat="44.11111" lon="6.82031">
        <ele>908.20001220703</ele>
        <time>2020-09-05T12:25:51.000Z</time>
      </trkpt>
      <trkpt lat="44.11097" lon="6.82036">
        <ele>906.59997558594</ele>
        <time>2020-09-05T12:25:53.000Z</time>
      </trkpt>
      <trkpt lat="44.11084" lon="6.8204">
        <ele>905.40002441406</ele>
        <time>2020-09-05T12:25:55.000Z</time>
      </trkpt>
      <trkpt lat="44.11079" lon="6.82042">
        <ele>904.59997558594</ele>
        <time>2020-09-05T12:25:56.000Z</time>
      </trkpt>
      <trkpt lat="44.11074" lon="6.82045">
        <ele>903.79998779297</ele>
        <time>2020-09-05T12:25:57.000Z</time>
      </trkpt>
      <trkpt lat="44.1107" lon="6.82049">
        <ele>903.20001220703</ele>
        <time>2020-09-05T12:25:58.000Z</time>
      </trkpt>
      <trkpt lat="44.11066" lon="6.82053">
        <ele>902.20001220703</ele>
        <time>2020-09-05T12:25:59.000Z</time>
      </trkpt>
      <trkpt lat="44.11061" lon="6.82055">
        <ele>901.20001220703</ele>
        <time>2020-09-05T12:26:00.000Z</time>
      </trkpt>
      <trkpt lat="44.11057" lon="6.82054">
        <ele>900.40002441406</ele>
        <time>2020-09-05T12:26:01.000Z</time>
      </trkpt>
      <trkpt lat="44.11051" lon="6.8205">
        <ele>899.20001220703</ele>
        <time>2020-09-05T12:26:02.000Z</time>
      </trkpt>
      <trkpt lat="44.11046" lon="6.82047">
        <ele>898.20001220703</ele>
        <time>2020-09-05T12:26:03.000Z</time>
      </trkpt>
      <trkpt lat="44.11035" lon="6.8204">
        <ele>896.20001220703</ele>
        <time>2020-09-05T12:26:05.000Z</time>
      </trkpt>
      <trkpt lat="44.11031" lon="6.82039">
        <ele>895.59997558594</ele>
        <time>2020-09-05T12:26:06.000Z</time>
      </trkpt>
      <trkpt lat="44.11028" lon="6.82039">
        <ele>895</ele>
        <time>2020-09-05T12:26:07.000Z</time>
      </trkpt>
      <trkpt lat="44.11023" lon="6.82042">
        <ele>893.79998779297</ele>
        <time>2020-09-05T12:26:10.000Z</time>
      </trkpt>
      <trkpt lat="44.11022" lon="6.82043">
        <ele>893.59997558594</ele>
        <time>2020-09-05T12:26:11.000Z</time>
      </trkpt>
      <trkpt lat="44.11021" lon="6.82044">
        <ele>893.20001220703</ele>
        <time>2020-09-05T12:26:16.000Z</time>
      </trkpt>
      <trkpt lat="44.11021" lon="6.82044">
        <ele>892.79998779297</ele>
        <time>2020-09-05T12:26:23.000Z</time>
      </trkpt>
      <trkpt lat="44.11021" lon="6.82044">
        <ele>892.59997558594</ele>
        <time>2020-09-05T12:26:24.000Z</time>
      </trkpt>
      <trkpt lat="44.11022" lon="6.82046">
        <ele>892.79998779297</ele>
        <time>2020-09-05T12:26:40.000Z</time>
      </trkpt>
      <trkpt lat="44.11022" lon="6.82048">
        <ele>893</ele>
        <time>2020-09-05T12:26:52.000Z</time>
      </trkpt>
      <trkpt lat="44.11022" lon="6.82049">
        <ele>892.59997558594</ele>
        <time>2020-09-05T12:27:04.000Z</time>
      </trkpt>
      <trkpt lat="44.11025" lon="6.82051">
        <ele>892.59997558594</ele>
        <time>2020-09-05T12:27:21.000Z</time>
      </trkpt>
      <trkpt lat="44.11027" lon="6.82053">
        <ele>893</ele>
        <time>2020-09-05T12:27:36.000Z</time>
      </trkpt>
      <trkpt lat="44.11029" lon="6.82055">
        <ele>892.79998779297</ele>
        <time>2020-09-05T12:27:54.000Z</time>
      </trkpt>
      <trkpt lat="44.1103" lon="6.82055">
        <ele>892.79998779297</ele>
        <time>2020-09-05T12:28:08.000Z</time>
      </trkpt>
      <trkpt lat="44.11029" lon="6.82058">
        <ele>893</ele>
        <time>2020-09-05T12:28:13.000Z</time>
      </trkpt>
      <trkpt lat="44.11032" lon="6.82053">
        <ele>893</ele>
        <time>2020-09-05T12:28:19.000Z</time>
      </trkpt>
      <trkpt lat="44.11031" lon="6.82051">
        <ele>893.20001220703</ele>
        <time>2020-09-05T12:28:29.000Z</time>
      </trkpt>
      <trkpt lat="44.1103" lon="6.82051">
        <ele>893.40002441406</ele>
        <time>2020-09-05T12:28:39.000Z</time>
      </trkpt>
      <trkpt lat="44.11029" lon="6.8205">
        <ele>893.20001220703</ele>
        <time>2020-09-05T12:28:44.000Z</time>
      </trkpt>
      <trkpt lat="44.11028" lon="6.82049">
        <ele>893</ele>
        <time>2020-09-05T12:28:51.000Z</time>
      </trkpt>
      <trkpt lat="44.11026" lon="6.8205">
        <ele>893</ele>
        <time>2020-09-05T12:29:01.000Z</time>
      </trkpt>
      <trkpt lat="44.11015" lon="6.8206">
        <ele>893.59997558594</ele>
        <time>2020-09-05T12:29:07.000Z</time>
      </trkpt>
      <trkpt lat="44.11009" lon="6.82065">
        <ele>893.79998779297</ele>
        <time>2020-09-05T12:29:09.000Z</time>
      </trkpt>
      <trkpt lat="44.11003" lon="6.82075">
        <ele>894</ele>
        <time>2020-09-05T12:29:12.000Z</time>
      </trkpt>
      <trkpt lat="44.10997" lon="6.82087">
        <ele>895.20001220703</ele>
        <time>2020-09-05T12:29:17.000Z</time>
      </trkpt>
      <trkpt lat="44.10996" lon="6.82087">
        <ele>895.59997558594</ele>
        <time>2020-09-05T12:29:18.000Z</time>
      </trkpt>
      <trkpt lat="44.10994" lon="6.82088">
        <ele>896.40002441406</ele>
        <time>2020-09-05T12:29:20.000Z</time>
      </trkpt>
      <trkpt lat="44.10992" lon="6.82087">
        <ele>897.20001220703</ele>
        <time>2020-09-05T12:29:24.000Z</time>
      </trkpt>
      <trkpt lat="44.1099" lon="6.82088">
        <ele>897.40002441406</ele>
        <time>2020-09-05T12:29:28.000Z</time>
      </trkpt>
      <trkpt lat="44.10988" lon="6.8209">
        <ele>897</ele>
        <time>2020-09-05T12:29:30.000Z</time>
      </trkpt>
      <trkpt lat="44.1098" lon="6.82092">
        <ele>896.79998779297</ele>
        <time>2020-09-05T12:29:34.000Z</time>
      </trkpt>
      <trkpt lat="44.10978" lon="6.82093">
        <ele>896.79998779297</ele>
        <time>2020-09-05T12:29:35.000Z</time>
      </trkpt>
      <trkpt lat="44.10976" lon="6.82094">
        <ele>896.40002441406</ele>
        <time>2020-09-05T12:29:39.000Z</time>
      </trkpt>
      <trkpt lat="44.10974" lon="6.82103">
        <ele>896.20001220703</ele>
        <time>2020-09-05T12:29:43.000Z</time>
      </trkpt>
      <trkpt lat="44.10977" lon="6.82115">
        <ele>896</ele>
        <time>2020-09-05T12:29:47.000Z</time>
      </trkpt>
      <trkpt lat="44.10979" lon="6.82118">
        <ele>896</ele>
        <time>2020-09-05T12:29:48.000Z</time>
      </trkpt>
      <trkpt lat="44.1098" lon="6.82128">
        <ele>896.79998779297</ele>
        <time>2020-09-05T12:29:51.000Z</time>
      </trkpt>
      <trkpt lat="44.10981" lon="6.8214">
        <ele>897.40002441406</ele>
        <time>2020-09-05T12:29:54.000Z</time>
      </trkpt>
      <trkpt lat="44.10984" lon="6.82152">
        <ele>898.20001220703</ele>
        <time>2020-09-05T12:29:57.000Z</time>
      </trkpt>
      <trkpt lat="44.10985" lon="6.8216">
        <ele>898.59997558594</ele>
        <time>2020-09-05T12:29:59.000Z</time>
      </trkpt>
      <trkpt lat="44.10985" lon="6.82177">
        <ele>899.20001220703</ele>
        <time>2020-09-05T12:30:03.000Z</time>
      </trkpt>
      <trkpt lat="44.10979" lon="6.82188">
        <ele>899.59997558594</ele>
        <time>2020-09-05T12:30:06.000Z</time>
      </trkpt>
      <trkpt lat="44.10976" lon="6.8219">
        <ele>899.59997558594</ele>
        <time>2020-09-05T12:30:07.000Z</time>
      </trkpt>
      <trkpt lat="44.10968" lon="6.82192">
        <ele>899.40002441406</ele>
        <time>2020-09-05T12:30:11.000Z</time>
      </trkpt>
      <trkpt lat="44.10966" lon="6.82189">
        <ele>900.79998779297</ele>
        <time>2020-09-05T12:30:15.000Z</time>
      </trkpt>
      <trkpt lat="44.10965" lon="6.8219">
        <ele>902.20001220703</ele>
        <time>2020-09-05T12:30:18.000Z</time>
      </trkpt>
      <trkpt lat="44.10963" lon="6.82191">
        <ele>902.40002441406</ele>
        <time>2020-09-05T12:30:22.000Z</time>
      </trkpt>
      <trkpt lat="44.10962" lon="6.8219">
        <ele>902.40002441406</ele>
        <time>2020-09-05T12:30:23.000Z</time>
      </trkpt>
      <trkpt lat="44.1096" lon="6.82189">
        <ele>902.59997558594</ele>
        <time>2020-09-05T12:30:25.000Z</time>
      </trkpt>
      <trkpt lat="44.10958" lon="6.82186">
        <ele>903</ele>
        <time>2020-09-05T12:30:28.000Z</time>
      </trkpt>
      <trkpt lat="44.10958" lon="6.82186">
        <ele>903.20001220703</ele>
        <time>2020-09-05T12:30:29.000Z</time>
      </trkpt>
      <trkpt lat="44.10956" lon="6.82184">
        <ele>903.40002441406</ele>
        <time>2020-09-05T12:30:33.000Z</time>
      </trkpt>
      <trkpt lat="44.10955" lon="6.82185">
        <ele>903.40002441406</ele>
        <time>2020-09-05T12:30:42.000Z</time>
      </trkpt>
      <trkpt lat="44.10956" lon="6.82184">
        <ele>903.40002441406</ele>
        <time>2020-09-05T12:30:48.000Z</time>
      </trkpt>
      <trkpt lat="44.10957" lon="6.82184">
        <ele>903.40002441406</ele>
        <time>2020-09-05T12:30:49.000Z</time>
      </trkpt>
      <trkpt lat="44.10962" lon="6.82183">
        <ele>903.79998779297</ele>
        <time>2020-09-05T12:30:53.000Z</time>
      </trkpt>
      <trkpt lat="44.10964" lon="6.82182">
        <ele>904.20001220703</ele>
        <time>2020-09-05T12:30:54.000Z</time>
      </trkpt>
      <trkpt lat="44.10965" lon="6.82181">
        <ele>904.40002441406</ele>
        <time>2020-09-05T12:30:55.000Z</time>
      </trkpt>
      <trkpt lat="44.10964" lon="6.82181">
        <ele>905.59997558594</ele>
        <time>2020-09-05T12:30:58.000Z</time>
      </trkpt>
      <trkpt lat="44.10966" lon="6.82179">
        <ele>906</ele>
        <time>2020-09-05T12:31:01.000Z</time>
      </trkpt>
      <trkpt lat="44.10967" lon="6.82178">
        <ele>906</ele>
        <time>2020-09-05T12:31:02.000Z</time>
      </trkpt>
      <trkpt lat="44.10967" lon="6.82172">
        <ele>906.40002441406</ele>
        <time>2020-09-05T12:31:05.000Z</time>
      </trkpt>
      <trkpt lat="44.10966" lon="6.82171">
        <ele>906.79998779297</ele>
        <time>2020-09-05T12:31:06.000Z</time>
      </trkpt>
      <trkpt lat="44.10964" lon="6.8217">
        <ele>907.79998779297</ele>
        <time>2020-09-05T12:31:08.000Z</time>
      </trkpt>
      <trkpt lat="44.10961" lon="6.82172">
        <ele>909</ele>
        <time>2020-09-05T12:31:10.000Z</time>
      </trkpt>
      <trkpt lat="44.10958" lon="6.82172">
        <ele>910</ele>
        <time>2020-09-05T12:31:12.000Z</time>
      </trkpt>
      <trkpt lat="44.10955" lon="6.8217">
        <ele>910.79998779297</ele>
        <time>2020-09-05T12:31:14.000Z</time>
      </trkpt>
      <trkpt lat="44.10953" lon="6.82166">
        <ele>911.40002441406</ele>
        <time>2020-09-05T12:31:16.000Z</time>
      </trkpt>
      <trkpt lat="44.1095" lon="6.82165">
        <ele>911.59997558594</ele>
        <time>2020-09-05T12:31:17.000Z</time>
      </trkpt>
      <trkpt lat="44.10949" lon="6.82163">
        <ele>912</ele>
        <time>2020-09-05T12:31:18.000Z</time>
      </trkpt>
      <trkpt lat="44.10948" lon="6.82162">
        <ele>912.40002441406</ele>
        <time>2020-09-05T12:31:19.000Z</time>
      </trkpt>
      <trkpt lat="44.10948" lon="6.8216">
        <ele>913.59997558594</ele>
        <time>2020-09-05T12:31:22.000Z</time>
      </trkpt>
      <trkpt lat="44.10947" lon="6.82159">
        <ele>914.79998779297</ele>
        <time>2020-09-05T12:31:25.000Z</time>
      </trkpt>
      <trkpt lat="44.10946" lon="6.82159">
        <ele>915.40002441406</ele>
        <time>2020-09-05T12:31:29.000Z</time>
      </trkpt>
      <trkpt lat="44.10945" lon="6.82158">
        <ele>915.20001220703</ele>
        <time>2020-09-05T12:31:34.000Z</time>
      </trkpt>
      <trkpt lat="44.10942" lon="6.82155">
        <ele>915.40002441406</ele>
        <time>2020-09-05T12:31:39.000Z</time>
      </trkpt>
      <trkpt lat="44.10941" lon="6.82154">
        <ele>915.40002441406</ele>
        <time>2020-09-05T12:31:40.000Z</time>
      </trkpt>
      <trkpt lat="44.10938" lon="6.82152">
        <ele>916.20001220703</ele>
        <time>2020-09-05T12:31:44.000Z</time>
      </trkpt>
      <trkpt lat="44.10938" lon="6.82152">
        <ele>916.79998779297</ele>
        <time>2020-09-05T12:31:45.000Z</time>
      </trkpt>
      <trkpt lat="44.10937" lon="6.82152">
        <ele>917.40002441406</ele>
        <time>2020-09-05T12:31:46.000Z</time>
      </trkpt>
      <trkpt lat="44.10937" lon="6.82151">
        <ele>917.79998779297</ele>
        <time>2020-09-05T12:31:47.000Z</time>
      </trkpt>
      <trkpt lat="44.10935" lon="6.82152">
        <ele>918.40002441406</ele>
        <time>2020-09-05T12:31:49.000Z</time>
      </trkpt>
      <trkpt lat="44.10933" lon="6.82153">
        <ele>918.59997558594</ele>
        <time>2020-09-05T12:31:50.000Z</time>
      </trkpt>
      <trkpt lat="44.10929" lon="6.82151">
        <ele>919.79998779297</ele>
        <time>2020-09-05T12:31:53.000Z</time>
      </trkpt>
      <trkpt lat="44.10927" lon="6.8215">
        <ele>920.20001220703</ele>
        <time>2020-09-05T12:31:54.000Z</time>
      </trkpt>
      <trkpt lat="44.10926" lon="6.82151">
        <ele>920.59997558594</ele>
        <time>2020-09-05T12:31:55.000Z</time>
      </trkpt>
      <trkpt lat="44.10924" lon="6.82151">
        <ele>921.20001220703</ele>
        <time>2020-09-05T12:31:56.000Z</time>
      </trkpt>
      <trkpt lat="44.10919" lon="6.8215">
        <ele>922.40002441406</ele>
        <time>2020-09-05T12:31:59.000Z</time>
      </trkpt>
      <trkpt lat="44.10918" lon="6.82149">
        <ele>922.59997558594</ele>
        <time>2020-09-05T12:32:00.000Z</time>
      </trkpt>
      <trkpt lat="44.10917" lon="6.82147">
        <ele>923.40002441406</ele>
        <time>2020-09-05T12:32:04.000Z</time>
      </trkpt>
      <trkpt lat="44.10916" lon="6.82143">
        <ele>924.79998779297</ele>
        <time>2020-09-05T12:32:10.000Z</time>
      </trkpt>
      <trkpt lat="44.10916" lon="6.82142">
        <ele>925.20001220703</ele>
        <time>2020-09-05T12:32:11.000Z</time>
      </trkpt>
      <trkpt lat="44.10916" lon="6.82139">
        <ele>925.59997558594</ele>
        <time>2020-09-05T12:32:13.000Z</time>
      </trkpt>
      <trkpt lat="44.10916" lon="6.82138">
        <ele>925.79998779297</ele>
        <time>2020-09-05T12:32:15.000Z</time>
      </trkpt>
      <trkpt lat="44.10915" lon="6.82137">
        <ele>925.79998779297</ele>
        <time>2020-09-05T12:32:16.000Z</time>
      </trkpt>
      <trkpt lat="44.10914" lon="6.82136">
        <ele>926</ele>
        <time>2020-09-05T12:32:20.000Z</time>
      </trkpt>
      <trkpt lat="44.10914" lon="6.82134">
        <ele>926</ele>
        <time>2020-09-05T12:32:22.000Z</time>
      </trkpt>
      <trkpt lat="44.10913" lon="6.82128">
        <ele>926.20001220703</ele>
        <time>2020-09-05T12:32:25.000Z</time>
      </trkpt>
      <trkpt lat="44.10909" lon="6.82117">
        <ele>927</ele>
        <time>2020-09-05T12:32:30.000Z</time>
      </trkpt>
      <trkpt lat="44.10908" lon="6.82115">
        <ele>927.20001220703</ele>
        <time>2020-09-05T12:32:31.000Z</time>
      </trkpt>
      <trkpt lat="44.10907" lon="6.82113">
        <ele>927.59997558594</ele>
        <time>2020-09-05T12:32:33.000Z</time>
      </trkpt>
      <trkpt lat="44.10906" lon="6.82113">
        <ele>928</ele>
        <time>2020-09-05T12:32:34.000Z</time>
      </trkpt>
      <trkpt lat="44.10906" lon="6.82114">
        <ele>928.59997558594</ele>
        <time>2020-09-05T12:32:36.000Z</time>
      </trkpt>
      <trkpt lat="44.10906" lon="6.82116">
        <ele>929.20001220703</ele>
        <time>2020-09-05T12:32:38.000Z</time>
      </trkpt>
      <trkpt lat="44.10907" lon="6.82116">
        <ele>930</ele>
        <time>2020-09-05T12:32:41.000Z</time>
      </trkpt>
      <trkpt lat="44.10906" lon="6.82116">
        <ele>930.20001220703</ele>
        <time>2020-09-05T12:32:42.000Z</time>
      </trkpt>
      <trkpt lat="44.10906" lon="6.82116">
        <ele>930.40002441406</ele>
        <time>2020-09-05T12:32:48.000Z</time>
      </trkpt>
      <trkpt lat="44.10907" lon="6.82115">
        <ele>930.20001220703</ele>
        <time>2020-09-05T12:32:55.000Z</time>
      </trkpt>
      <trkpt lat="44.10906" lon="6.82114">
        <ele>930.40002441406</ele>
        <time>2020-09-05T12:33:04.000Z</time>
      </trkpt>
      <trkpt lat="44.10907" lon="6.82115">
        <ele>930.20001220703</ele>
        <time>2020-09-05T12:33:11.000Z</time>
      </trkpt>
      <trkpt lat="44.10908" lon="6.82116">
        <ele>930.40002441406</ele>
        <time>2020-09-05T12:33:16.000Z</time>
      </trkpt>
      <trkpt lat="44.10908" lon="6.82117">
        <ele>930.79998779297</ele>
        <time>2020-09-05T12:33:23.000Z</time>
      </trkpt>
      <trkpt lat="44.10906" lon="6.82117">
        <ele>931</ele>
        <time>2020-09-05T12:33:29.000Z</time>
      </trkpt>
      <trkpt lat="44.10905" lon="6.82116">
        <ele>931.20001220703</ele>
        <time>2020-09-05T12:33:31.000Z</time>
      </trkpt>
      <trkpt lat="44.10903" lon="6.82115">
        <ele>932.40002441406</ele>
        <time>2020-09-05T12:33:36.000Z</time>
      </trkpt>
      <trkpt lat="44.10903" lon="6.82114">
        <ele>932.79998779297</ele>
        <time>2020-09-05T12:33:37.000Z</time>
      </trkpt>
      <trkpt lat="44.10902" lon="6.82112">
        <ele>933.59997558594</ele>
        <time>2020-09-05T12:33:40.000Z</time>
      </trkpt>
      <trkpt lat="44.10901" lon="6.82109">
        <ele>934.40002441406</ele>
        <time>2020-09-05T12:33:44.000Z</time>
      </trkpt>
      <trkpt lat="44.10899" lon="6.82108">
        <ele>934.59997558594</ele>
        <time>2020-09-05T12:33:46.000Z</time>
      </trkpt>
      <trkpt lat="44.10897" lon="6.82108">
        <ele>935.20001220703</ele>
        <time>2020-09-05T12:33:51.000Z</time>
      </trkpt>
      <trkpt lat="44.10898" lon="6.82111">
        <ele>935.79998779297</ele>
        <time>2020-09-05T12:33:56.000Z</time>
      </trkpt>
      <trkpt lat="44.10897" lon="6.82111">
        <ele>936.79998779297</ele>
        <time>2020-09-05T12:34:01.000Z</time>
      </trkpt>
      <trkpt lat="44.10897" lon="6.82112">
        <ele>937</ele>
        <time>2020-09-05T12:34:02.000Z</time>
      </trkpt>
      <trkpt lat="44.10896" lon="6.82117">
        <ele>937.20001220703</ele>
        <time>2020-09-05T12:34:05.000Z</time>
      </trkpt>
      <trkpt lat="44.10895" lon="6.82118">
        <ele>937.40002441406</ele>
        <time>2020-09-05T12:34:06.000Z</time>
      </trkpt>
      <trkpt lat="44.10893" lon="6.82118">
        <ele>937.79998779297</ele>
        <time>2020-09-05T12:34:08.000Z</time>
      </trkpt>
      <trkpt lat="44.10892" lon="6.82117">
        <ele>938.20001220703</ele>
        <time>2020-09-05T12:34:09.000Z</time>
      </trkpt>
      <trkpt lat="44.10892" lon="6.82115">
        <ele>939</ele>
        <time>2020-09-05T12:34:11.000Z</time>
      </trkpt>
      <trkpt lat="44.10891" lon="6.82115">
        <ele>939.40002441406</ele>
        <time>2020-09-05T12:34:12.000Z</time>
      </trkpt>
      <trkpt lat="44.10891" lon="6.82114">
        <ele>940.59997558594</ele>
        <time>2020-09-05T12:34:16.000Z</time>
      </trkpt>
      <trkpt lat="44.10891" lon="6.82114">
        <ele>940.59997558594</ele>
        <time>2020-09-05T12:34:17.000Z</time>
      </trkpt>
      <trkpt lat="44.1089" lon="6.82113">
        <ele>940.79998779297</ele>
        <time>2020-09-05T12:34:23.000Z</time>
      </trkpt>
      <trkpt lat="44.10888" lon="6.8211">
        <ele>940.79998779297</ele>
        <time>2020-09-05T12:34:26.000Z</time>
      </trkpt>
      <trkpt lat="44.10885" lon="6.8211">
        <ele>941.40002441406</ele>
        <time>2020-09-05T12:34:28.000Z</time>
      </trkpt>
      <trkpt lat="44.10883" lon="6.82111">
        <ele>941.79998779297</ele>
        <time>2020-09-05T12:34:29.000Z</time>
      </trkpt>
      <trkpt lat="44.10881" lon="6.82111">
        <ele>943.20001220703</ele>
        <time>2020-09-05T12:34:31.000Z</time>
      </trkpt>
      <trkpt lat="44.1088" lon="6.82111">
        <ele>944.40002441406</ele>
        <time>2020-09-05T12:34:33.000Z</time>
      </trkpt>
      <trkpt lat="44.10879" lon="6.82112">
        <ele>944.79998779297</ele>
        <time>2020-09-05T12:34:34.000Z</time>
      </trkpt>
      <trkpt lat="44.10875" lon="6.82114">
        <ele>945.59997558594</ele>
        <time>2020-09-05T12:34:37.000Z</time>
      </trkpt>
      <trkpt lat="44.10872" lon="6.82116">
        <ele>946.20001220703</ele>
        <time>2020-09-05T12:34:39.000Z</time>
      </trkpt>
      <trkpt lat="44.10871" lon="6.82117">
        <ele>946.59997558594</ele>
        <time>2020-09-05T12:34:40.000Z</time>
      </trkpt>
      <trkpt lat="44.1087" lon="6.82119">
        <ele>947</ele>
        <time>2020-09-05T12:34:41.000Z</time>
      </trkpt>
      <trkpt lat="44.10868" lon="6.82122">
        <ele>948.20001220703</ele>
        <time>2020-09-05T12:34:43.000Z</time>
      </trkpt>
      <trkpt lat="44.10864" lon="6.82124">
        <ele>949.59997558594</ele>
        <time>2020-09-05T12:34:46.000Z</time>
      </trkpt>
      <trkpt lat="44.10861" lon="6.82126">
        <ele>950.40002441406</ele>
        <time>2020-09-05T12:34:48.000Z</time>
      </trkpt>
      <trkpt lat="44.10859" lon="6.82126">
        <ele>950.79998779297</ele>
        <time>2020-09-05T12:34:49.000Z</time>
      </trkpt>
      <trkpt lat="44.10855" lon="6.82126">
        <ele>952</ele>
        <time>2020-09-05T12:34:52.000Z</time>
      </trkpt>
      <trkpt lat="44.10852" lon="6.82128">
        <ele>953</ele>
        <time>2020-09-05T12:34:55.000Z</time>
      </trkpt>
      <trkpt lat="44.1085" lon="6.8213">
        <ele>953.59997558594</ele>
        <time>2020-09-05T12:34:57.000Z</time>
      </trkpt>
      <trkpt lat="44.10846" lon="6.82133">
        <ele>954.40002441406</ele>
        <time>2020-09-05T12:35:00.000Z</time>
      </trkpt>
      <trkpt lat="44.10845" lon="6.82136">
        <ele>954.59997558594</ele>
        <time>2020-09-05T12:35:01.000Z</time>
      </trkpt>
      <trkpt lat="44.10844" lon="6.82142">
        <ele>955.40002441406</ele>
        <time>2020-09-05T12:35:05.000Z</time>
      </trkpt>
      <trkpt lat="44.10844" lon="6.82142">
        <ele>955.79998779297</ele>
        <time>2020-09-05T12:35:06.000Z</time>
      </trkpt>
      <trkpt lat="44.10842" lon="6.82143">
        <ele>956.59997558594</ele>
        <time>2020-09-05T12:35:09.000Z</time>
      </trkpt>
      <trkpt lat="44.1084" lon="6.82141">
        <ele>956.59997558594</ele>
        <time>2020-09-05T12:35:14.000Z</time>
      </trkpt>
      <trkpt lat="44.10838" lon="6.82139">
        <ele>957.59997558594</ele>
        <time>2020-09-05T12:35:21.000Z</time>
      </trkpt>
      <trkpt lat="44.10835" lon="6.82139">
        <ele>958.79998779297</ele>
        <time>2020-09-05T12:35:26.000Z</time>
      </trkpt>
      <trkpt lat="44.10833" lon="6.8214">
        <ele>959.79998779297</ele>
        <time>2020-09-05T12:35:30.000Z</time>
      </trkpt>
      <trkpt lat="44.1083" lon="6.82139">
        <ele>960.59997558594</ele>
        <time>2020-09-05T12:35:35.000Z</time>
      </trkpt>
      <trkpt lat="44.1083" lon="6.82138">
        <ele>960.79998779297</ele>
        <time>2020-09-05T12:35:38.000Z</time>
      </trkpt>
      <trkpt lat="44.10829" lon="6.82137">
        <ele>961</ele>
        <time>2020-09-05T12:35:39.000Z</time>
      </trkpt>
      <trkpt lat="44.10829" lon="6.82133">
        <ele>961</ele>
        <time>2020-09-05T12:35:41.000Z</time>
      </trkpt>
      <trkpt lat="44.10825" lon="6.82128">
        <ele>961.40002441406</ele>
        <time>2020-09-05T12:35:46.000Z</time>
      </trkpt>
      <trkpt lat="44.10824" lon="6.82128">
        <ele>962</ele>
        <time>2020-09-05T12:35:48.000Z</time>
      </trkpt>
      <trkpt lat="44.10823" lon="6.82128">
        <ele>963.20001220703</ele>
        <time>2020-09-05T12:35:50.000Z</time>
      </trkpt>
      <trkpt lat="44.10821" lon="6.82127">
        <ele>963.79998779297</ele>
        <time>2020-09-05T12:35:58.000Z</time>
      </trkpt>
      <trkpt lat="44.10819" lon="6.82127">
        <ele>964.20001220703</ele>
        <time>2020-09-05T12:36:06.000Z</time>
      </trkpt>
      <trkpt lat="44.10818" lon="6.82127">
        <ele>964.40002441406</ele>
        <time>2020-09-05T12:36:07.000Z</time>
      </trkpt>
      <trkpt lat="44.10816" lon="6.82128">
        <ele>965.40002441406</ele>
        <time>2020-09-05T12:36:12.000Z</time>
      </trkpt>
      <trkpt lat="44.10816" lon="6.82129">
        <ele>965.59997558594</ele>
        <time>2020-09-05T12:36:13.000Z</time>
      </trkpt>
      <trkpt lat="44.10816" lon="6.8213">
        <ele>966.59997558594</ele>
        <time>2020-09-05T12:36:17.000Z</time>
      </trkpt>
      <trkpt lat="44.10816" lon="6.8213">
        <ele>966.79998779297</ele>
        <time>2020-09-05T12:36:19.000Z</time>
      </trkpt>
      <trkpt lat="44.10816" lon="6.82133">
        <ele>967</ele>
        <time>2020-09-05T12:36:26.000Z</time>
      </trkpt>
      <trkpt lat="44.10815" lon="6.82139">
        <ele>967.40002441406</ele>
        <time>2020-09-05T12:36:30.000Z</time>
      </trkpt>
      <trkpt lat="44.10815" lon="6.82139">
        <ele>967.59997558594</ele>
        <time>2020-09-05T12:36:32.000Z</time>
      </trkpt>
      <trkpt lat="44.10815" lon="6.82139">
        <ele>967.59997558594</ele>
        <time>2020-09-05T12:36:33.000Z</time>
      </trkpt>
      <trkpt lat="44.10815" lon="6.8214">
        <ele>967.79998779297</ele>
        <time>2020-09-05T12:36:38.000Z</time>
      </trkpt>
      <trkpt lat="44.10816" lon="6.82141">
        <ele>968</ele>
        <time>2020-09-05T12:36:45.000Z</time>
      </trkpt>
      <trkpt lat="44.10815" lon="6.82138">
        <ele>968.40002441406</ele>
        <time>2020-09-05T12:36:52.000Z</time>
      </trkpt>
      <trkpt lat="44.10815" lon="6.82137">
        <ele>968.59997558594</ele>
        <time>2020-09-05T12:36:53.000Z</time>
      </trkpt>
      <trkpt lat="44.10812" lon="6.82134">
        <ele>969.79998779297</ele>
        <time>2020-09-05T12:36:59.000Z</time>
      </trkpt>
      <trkpt lat="44.1081" lon="6.82129">
        <ele>970.20001220703</ele>
        <time>2020-09-05T12:37:05.000Z</time>
      </trkpt>
      <trkpt lat="44.10806" lon="6.82119">
        <ele>970.40002441406</ele>
        <time>2020-09-05T12:37:10.000Z</time>
      </trkpt>
      <trkpt lat="44.10803" lon="6.82118">
        <ele>971</ele>
        <time>2020-09-05T12:37:12.000Z</time>
      </trkpt>
      <trkpt lat="44.10802" lon="6.82119">
        <ele>972</ele>
        <time>2020-09-05T12:37:14.000Z</time>
      </trkpt>
      <trkpt lat="44.10801" lon="6.82121">
        <ele>972.59997558594</ele>
        <time>2020-09-05T12:37:15.000Z</time>
      </trkpt>
      <trkpt lat="44.108" lon="6.82125">
        <ele>973.20001220703</ele>
        <time>2020-09-05T12:37:17.000Z</time>
      </trkpt>
      <trkpt lat="44.108" lon="6.82127">
        <ele>973.59997558594</ele>
        <time>2020-09-05T12:37:18.000Z</time>
      </trkpt>
      <trkpt lat="44.10798" lon="6.82136">
        <ele>974.59997558594</ele>
        <time>2020-09-05T12:37:22.000Z</time>
      </trkpt>
      <trkpt lat="44.10796" lon="6.82141">
        <ele>975.79998779297</ele>
        <time>2020-09-05T12:37:25.000Z</time>
      </trkpt>
      <trkpt lat="44.10794" lon="6.82144">
        <ele>976.79998779297</ele>
        <time>2020-09-05T12:37:27.000Z</time>
      </trkpt>
      <trkpt lat="44.10792" lon="6.82144">
        <ele>977.20001220703</ele>
        <time>2020-09-05T12:37:28.000Z</time>
      </trkpt>
      <trkpt lat="44.10789" lon="6.82141">
        <ele>978.20001220703</ele>
        <time>2020-09-05T12:37:30.000Z</time>
      </trkpt>
      <trkpt lat="44.10789" lon="6.8214">
        <ele>978.79998779297</ele>
        <time>2020-09-05T12:37:31.000Z</time>
      </trkpt>
      <trkpt lat="44.10789" lon="6.8214">
        <ele>979.40002441406</ele>
        <time>2020-09-05T12:37:32.000Z</time>
      </trkpt>
      <trkpt lat="44.10788" lon="6.8214">
        <ele>980.59997558594</ele>
        <time>2020-09-05T12:37:35.000Z</time>
      </trkpt>
      <trkpt lat="44.10788" lon="6.8214">
        <ele>980.59997558594</ele>
        <time>2020-09-05T12:37:36.000Z</time>
      </trkpt>
      <trkpt lat="44.10786" lon="6.82137">
        <ele>980.59997558594</ele>
        <time>2020-09-05T12:37:42.000Z</time>
      </trkpt>
      <trkpt lat="44.10785" lon="6.82136">
        <ele>981</ele>
        <time>2020-09-05T12:37:47.000Z</time>
      </trkpt>
      <trkpt lat="44.10785" lon="6.82137">
        <ele>980.79998779297</ele>
        <time>2020-09-05T12:37:55.000Z</time>
      </trkpt>
      <trkpt lat="44.10784" lon="6.82139">
        <ele>981.59997558594</ele>
        <time>2020-09-05T12:38:01.000Z</time>
      </trkpt>
      <trkpt lat="44.10783" lon="6.82141">
        <ele>982.40002441406</ele>
        <time>2020-09-05T12:38:04.000Z</time>
      </trkpt>
      <trkpt lat="44.10783" lon="6.82142">
        <ele>982.59997558594</ele>
        <time>2020-09-05T12:38:05.000Z</time>
      </trkpt>
      <trkpt lat="44.10781" lon="6.82145">
        <ele>983.59997558594</ele>
        <time>2020-09-05T12:38:09.000Z</time>
      </trkpt>
      <trkpt lat="44.1078" lon="6.82147">
        <ele>984.20001220703</ele>
        <time>2020-09-05T12:38:11.000Z</time>
      </trkpt>
      <trkpt lat="44.1078" lon="6.82148">
        <ele>984.59997558594</ele>
        <time>2020-09-05T12:38:12.000Z</time>
      </trkpt>
      <trkpt lat="44.10779" lon="6.82149">
        <ele>984.79998779297</ele>
        <time>2020-09-05T12:38:13.000Z</time>
      </trkpt>
      <trkpt lat="44.10778" lon="6.82151">
        <ele>985.59997558594</ele>
        <time>2020-09-05T12:38:17.000Z</time>
      </trkpt>
      <trkpt lat="44.10776" lon="6.8215">
        <ele>986</ele>
        <time>2020-09-05T12:38:19.000Z</time>
      </trkpt>
      <trkpt lat="44.10776" lon="6.82149">
        <ele>987.20001220703</ele>
        <time>2020-09-05T12:38:23.000Z</time>
      </trkpt>
      <trkpt lat="44.10775" lon="6.82147">
        <ele>988.20001220703</ele>
        <time>2020-09-05T12:38:28.000Z</time>
      </trkpt>
      <trkpt lat="44.10774" lon="6.82147">
        <ele>988.59997558594</ele>
        <time>2020-09-05T12:38:31.000Z</time>
      </trkpt>
      <trkpt lat="44.10774" lon="6.82147">
        <ele>989</ele>
        <time>2020-09-05T12:38:38.000Z</time>
      </trkpt>
      <trkpt lat="44.10773" lon="6.82147">
        <ele>989</ele>
        <time>2020-09-05T12:38:44.000Z</time>
      </trkpt>
      <trkpt lat="44.10772" lon="6.82149">
        <ele>989.40002441406</ele>
        <time>2020-09-05T12:38:49.000Z</time>
      </trkpt>
      <trkpt lat="44.10772" lon="6.8215">
        <ele>989.40002441406</ele>
        <time>2020-09-05T12:38:51.000Z</time>
      </trkpt>
      <trkpt lat="44.10769" lon="6.82153">
        <ele>990.20001220703</ele>
        <time>2020-09-05T12:38:57.000Z</time>
      </trkpt>
      <trkpt lat="44.10769" lon="6.82154">
        <ele>990.59997558594</ele>
        <time>2020-09-05T12:38:58.000Z</time>
      </trkpt>
      <trkpt lat="44.10769" lon="6.82155">
        <ele>991</ele>
        <time>2020-09-05T12:39:00.000Z</time>
      </trkpt>
      <trkpt lat="44.10767" lon="6.82158">
        <ele>991</ele>
        <time>2020-09-05T12:39:02.000Z</time>
      </trkpt>
      <trkpt lat="44.10767" lon="6.82169">
        <ele>991.79998779297</ele>
        <time>2020-09-05T12:39:07.000Z</time>
      </trkpt>
      <trkpt lat="44.10764" lon="6.82174">
        <ele>993.20001220703</ele>
        <time>2020-09-05T12:39:11.000Z</time>
      </trkpt>
      <trkpt lat="44.10763" lon="6.82175">
        <ele>993.79998779297</ele>
        <time>2020-09-05T12:39:12.000Z</time>
      </trkpt>
      <trkpt lat="44.10761" lon="6.82175">
        <ele>994.20001220703</ele>
        <time>2020-09-05T12:39:13.000Z</time>
      </trkpt>
      <trkpt lat="44.1076" lon="6.82177">
        <ele>995.59997558594</ele>
        <time>2020-09-05T12:39:16.000Z</time>
      </trkpt>
      <trkpt lat="44.1076" lon="6.82178">
        <ele>997</ele>
        <time>2020-09-05T12:39:19.000Z</time>
      </trkpt>
      <trkpt lat="44.1076" lon="6.82178">
        <ele>997.20001220703</ele>
        <time>2020-09-05T12:39:22.000Z</time>
      </trkpt>
      <trkpt lat="44.10759" lon="6.8218">
        <ele>997.79998779297</ele>
        <time>2020-09-05T12:39:29.000Z</time>
      </trkpt>
      <trkpt lat="44.10759" lon="6.82181">
        <ele>998</ele>
        <time>2020-09-05T12:39:31.000Z</time>
      </trkpt>
      <trkpt lat="44.10759" lon="6.82182">
        <ele>998.59997558594</ele>
        <time>2020-09-05T12:39:37.000Z</time>
      </trkpt>
      <trkpt lat="44.10759" lon="6.82189">
        <ele>998.59997558594</ele>
        <time>2020-09-05T12:39:42.000Z</time>
      </trkpt>
      <trkpt lat="44.10758" lon="6.8219">
        <ele>998.79998779297</ele>
        <time>2020-09-05T12:39:43.000Z</time>
      </trkpt>
      <trkpt lat="44.10757" lon="6.8219">
        <ele>999.20001220703</ele>
        <time>2020-09-05T12:39:45.000Z</time>
      </trkpt>
      <trkpt lat="44.10757" lon="6.8219">
        <ele>1000.200012207</ele>
        <time>2020-09-05T12:39:48.000Z</time>
      </trkpt>
      <trkpt lat="44.10755" lon="6.8219">
        <ele>1000.5999755859</ele>
        <time>2020-09-05T12:39:52.000Z</time>
      </trkpt>
      <trkpt lat="44.10754" lon="6.8219">
        <ele>1001.200012207</ele>
        <time>2020-09-05T12:39:57.000Z</time>
      </trkpt>
      <trkpt lat="44.10754" lon="6.8219">
        <ele>1001.4000244141</ele>
        <time>2020-09-05T12:39:59.000Z</time>
      </trkpt>
      <trkpt lat="44.10752" lon="6.8219">
        <ele>1001.5999755859</ele>
        <time>2020-09-05T12:40:06.000Z</time>
      </trkpt>
      <trkpt lat="44.10752" lon="6.8219">
        <ele>1002</ele>
        <time>2020-09-05T12:40:12.000Z</time>
      </trkpt>
      <trkpt lat="44.1075" lon="6.82189">
        <ele>1002.4000244141</ele>
        <time>2020-09-05T12:40:18.000Z</time>
      </trkpt>
      <trkpt lat="44.10749" lon="6.8219">
        <ele>1002.799987793</ele>
        <time>2020-09-05T12:40:24.000Z</time>
      </trkpt>
      <trkpt lat="44.10749" lon="6.82191">
        <ele>1003.4000244141</ele>
        <time>2020-09-05T12:40:28.000Z</time>
      </trkpt>
      <trkpt lat="44.10749" lon="6.82193">
        <ele>1003.5999755859</ele>
        <time>2020-09-05T12:40:30.000Z</time>
      </trkpt>
      <trkpt lat="44.10748" lon="6.82195">
        <ele>1003.799987793</ele>
        <time>2020-09-05T12:40:32.000Z</time>
      </trkpt>
      <trkpt lat="44.10748" lon="6.82198">
        <ele>1004.5999755859</ele>
        <time>2020-09-05T12:40:36.000Z</time>
      </trkpt>
      <trkpt lat="44.10748" lon="6.822">
        <ele>1004.5999755859</ele>
        <time>2020-09-05T12:40:37.000Z</time>
      </trkpt>
      <trkpt lat="44.10747" lon="6.82202">
        <ele>1005.5999755859</ele>
        <time>2020-09-05T12:40:42.000Z</time>
      </trkpt>
      <trkpt lat="44.10747" lon="6.82205">
        <ele>1005.799987793</ele>
        <time>2020-09-05T12:40:44.000Z</time>
      </trkpt>
      <trkpt lat="44.10746" lon="6.82208">
        <ele>1006.5999755859</ele>
        <time>2020-09-05T12:40:48.000Z</time>
      </trkpt>
      <trkpt lat="44.10746" lon="6.8221">
        <ele>1007.4000244141</ele>
        <time>2020-09-05T12:40:51.000Z</time>
      </trkpt>
      <trkpt lat="44.10746" lon="6.82212">
        <ele>1007.799987793</ele>
        <time>2020-09-05T12:40:53.000Z</time>
      </trkpt>
      <trkpt lat="44.10745" lon="6.82215">
        <ele>1009</ele>
        <time>2020-09-05T12:40:57.000Z</time>
      </trkpt>
      <trkpt lat="44.10745" lon="6.82215">
        <ele>1009.4000244141</ele>
        <time>2020-09-05T12:40:58.000Z</time>
      </trkpt>
      <trkpt lat="44.10744" lon="6.82219">
        <ele>1010.200012207</ele>
        <time>2020-09-05T12:41:01.000Z</time>
      </trkpt>
      <trkpt lat="44.10744" lon="6.8222">
        <ele>1011</ele>
        <time>2020-09-05T12:41:04.000Z</time>
      </trkpt>
      <trkpt lat="44.10744" lon="6.8222">
        <ele>1011.200012207</ele>
        <time>2020-09-05T12:41:05.000Z</time>
      </trkpt>
      <trkpt lat="44.10744" lon="6.82222">
        <ele>1011.5999755859</ele>
        <time>2020-09-05T12:41:14.000Z</time>
      </trkpt>
      <trkpt lat="44.10743" lon="6.82222">
        <ele>1011.5999755859</ele>
        <time>2020-09-05T12:41:19.000Z</time>
      </trkpt>
      <trkpt lat="44.10743" lon="6.82221">
        <ele>1011.5999755859</ele>
        <time>2020-09-05T12:41:25.000Z</time>
      </trkpt>
      <trkpt lat="44.10743" lon="6.82221">
        <ele>1011.799987793</ele>
        <time>2020-09-05T12:41:33.000Z</time>
      </trkpt>
      <trkpt lat="44.10741" lon="6.82229">
        <ele>1012</ele>
        <time>2020-09-05T12:41:39.000Z</time>
      </trkpt>
      <trkpt lat="44.1074" lon="6.82232">
        <ele>1012.200012207</ele>
        <time>2020-09-05T12:41:40.000Z</time>
      </trkpt>
      <trkpt lat="44.10736" lon="6.82241">
        <ele>1013.5999755859</ele>
        <time>2020-09-05T12:41:44.000Z</time>
      </trkpt>
      <trkpt lat="44.10734" lon="6.82242">
        <ele>1014</ele>
        <time>2020-09-05T12:41:45.000Z</time>
      </trkpt>
      <trkpt lat="44.10731" lon="6.82243">
        <ele>1014.799987793</ele>
        <time>2020-09-05T12:41:47.000Z</time>
      </trkpt>
      <trkpt lat="44.10727" lon="6.82241">
        <ele>1016</ele>
        <time>2020-09-05T12:41:50.000Z</time>
      </trkpt>
      <trkpt lat="44.10725" lon="6.82238">
        <ele>1017</ele>
        <time>2020-09-05T12:41:52.000Z</time>
      </trkpt>
      <trkpt lat="44.10724" lon="6.82229">
        <ele>1018.200012207</ele>
        <time>2020-09-05T12:41:55.000Z</time>
      </trkpt>
      <trkpt lat="44.10725" lon="6.82224">
        <ele>1018.799987793</ele>
        <time>2020-09-05T12:41:57.000Z</time>
      </trkpt>
      <trkpt lat="44.10724" lon="6.82219">
        <ele>1019.200012207</ele>
        <time>2020-09-05T12:41:59.000Z</time>
      </trkpt>
      <trkpt lat="44.10723" lon="6.82218">
        <ele>1019.4000244141</ele>
        <time>2020-09-05T12:42:00.000Z</time>
      </trkpt>
      <trkpt lat="44.10716" lon="6.82216">
        <ele>1020</ele>
        <time>2020-09-05T12:42:04.000Z</time>
      </trkpt>
      <trkpt lat="44.10716" lon="6.82217">
        <ele>1020.200012207</ele>
        <time>2020-09-05T12:42:05.000Z</time>
      </trkpt>
      <trkpt lat="44.10715" lon="6.82217">
        <ele>1020.4000244141</ele>
        <time>2020-09-05T12:42:06.000Z</time>
      </trkpt>
      <trkpt lat="44.10714" lon="6.82217">
        <ele>1021.200012207</ele>
        <time>2020-09-05T12:42:08.000Z</time>
      </trkpt>
      <trkpt lat="44.10714" lon="6.82217">
        <ele>1021.799987793</ele>
        <time>2020-09-05T12:42:09.000Z</time>
      </trkpt>
      <trkpt lat="44.10714" lon="6.82217">
        <ele>1022</ele>
        <time>2020-09-05T12:42:10.000Z</time>
      </trkpt>
      <trkpt lat="44.10709" lon="6.82219">
        <ele>1022.5999755859</ele>
        <time>2020-09-05T12:42:13.000Z</time>
      </trkpt>
      <trkpt lat="44.10708" lon="6.82218">
        <ele>1023</ele>
        <time>2020-09-05T12:42:14.000Z</time>
      </trkpt>
      <trkpt lat="44.10703" lon="6.82217">
        <ele>1024.5999755859</ele>
        <time>2020-09-05T12:42:17.000Z</time>
      </trkpt>
      <trkpt lat="44.10699" lon="6.82216">
        <ele>1025.8000488281</ele>
        <time>2020-09-05T12:42:19.000Z</time>
      </trkpt>
      <trkpt lat="44.10694" lon="6.82214">
        <ele>1026.8000488281</ele>
        <time>2020-09-05T12:42:22.000Z</time>
      </trkpt>
      <trkpt lat="44.1069" lon="6.82211">
        <ele>1028.1999511719</ele>
        <time>2020-09-05T12:42:25.000Z</time>
      </trkpt>
      <trkpt lat="44.10687" lon="6.82209">
        <ele>1029.4000244141</ele>
        <time>2020-09-05T12:42:27.000Z</time>
      </trkpt>
      <trkpt lat="44.10684" lon="6.8221">
        <ele>1030.5999755859</ele>
        <time>2020-09-05T12:42:29.000Z</time>
      </trkpt>
      <trkpt lat="44.10682" lon="6.8221">
        <ele>1030.8000488281</ele>
        <time>2020-09-05T12:42:30.000Z</time>
      </trkpt>
      <trkpt lat="44.10679" lon="6.82211">
        <ele>1031.4000244141</ele>
        <time>2020-09-05T12:42:32.000Z</time>
      </trkpt>
      <trkpt lat="44.10678" lon="6.82212">
        <ele>1031.5999755859</ele>
        <time>2020-09-05T12:42:33.000Z</time>
      </trkpt>
      <trkpt lat="44.10675" lon="6.82211">
        <ele>1032</ele>
        <time>2020-09-05T12:42:35.000Z</time>
      </trkpt>
      <trkpt lat="44.10673" lon="6.82211">
        <ele>1032.1999511719</ele>
        <time>2020-09-05T12:42:36.000Z</time>
      </trkpt>
      <trkpt lat="44.10669" lon="6.8221">
        <ele>1032.8000488281</ele>
        <time>2020-09-05T12:42:38.000Z</time>
      </trkpt>
      <trkpt lat="44.10668" lon="6.82209">
        <ele>1033.4000244141</ele>
        <time>2020-09-05T12:42:39.000Z</time>
      </trkpt>
      <trkpt lat="44.10667" lon="6.82209">
        <ele>1034</ele>
        <time>2020-09-05T12:42:40.000Z</time>
      </trkpt>
      <trkpt lat="44.10666" lon="6.82208">
        <ele>1034.4000244141</ele>
        <time>2020-09-05T12:42:41.000Z</time>
      </trkpt>
      <trkpt lat="44.10665" lon="6.82208">
        <ele>1035</ele>
        <time>2020-09-05T12:42:42.000Z</time>
      </trkpt>
      <trkpt lat="44.10662" lon="6.82206">
        <ele>1036</ele>
        <time>2020-09-05T12:42:44.000Z</time>
      </trkpt>
      <trkpt lat="44.10661" lon="6.82206">
        <ele>1036.5999755859</ele>
        <time>2020-09-05T12:42:45.000Z</time>
      </trkpt>
      <trkpt lat="44.10659" lon="6.82205">
        <ele>1037.1999511719</ele>
        <time>2020-09-05T12:42:46.000Z</time>
      </trkpt>
      <trkpt lat="44.10658" lon="6.82204">
        <ele>1037.5999755859</ele>
        <time>2020-09-05T12:42:47.000Z</time>
      </trkpt>
      <trkpt lat="44.10655" lon="6.82201">
        <ele>1038.5999755859</ele>
        <time>2020-09-05T12:42:49.000Z</time>
      </trkpt>
      <trkpt lat="44.10653" lon="6.822">
        <ele>1039</ele>
        <time>2020-09-05T12:42:50.000Z</time>
      </trkpt>
      <trkpt lat="44.1065" lon="6.82199">
        <ele>1040</ele>
        <time>2020-09-05T12:42:52.000Z</time>
      </trkpt>
      <trkpt lat="44.10644" lon="6.82197">
        <ele>1041.1999511719</ele>
        <time>2020-09-05T12:42:55.000Z</time>
      </trkpt>
      <trkpt lat="44.1064" lon="6.82198">
        <ele>1042.4000244141</ele>
        <time>2020-09-05T12:42:58.000Z</time>
      </trkpt>
      <trkpt lat="44.10636" lon="6.82197">
        <ele>1043</ele>
        <time>2020-09-05T12:43:00.000Z</time>
      </trkpt>
      <trkpt lat="44.10634" lon="6.82196">
        <ele>1043.5999755859</ele>
        <time>2020-09-05T12:43:01.000Z</time>
      </trkpt>
      <trkpt lat="44.10627" lon="6.82194">
        <ele>1044.8000488281</ele>
        <time>2020-09-05T12:43:05.000Z</time>
      </trkpt>
      <trkpt lat="44.10623" lon="6.82188">
        <ele>1045.8000488281</ele>
        <time>2020-09-05T12:43:08.000Z</time>
      </trkpt>
      <trkpt lat="44.10623" lon="6.82186">
        <ele>1046.4000244141</ele>
        <time>2020-09-05T12:43:09.000Z</time>
      </trkpt>
      <trkpt lat="44.10624" lon="6.82183">
        <ele>1047.4000244141</ele>
        <time>2020-09-05T12:43:11.000Z</time>
      </trkpt>
      <trkpt lat="44.10627" lon="6.8218">
        <ele>1048</ele>
        <time>2020-09-05T12:43:13.000Z</time>
      </trkpt>
      <trkpt lat="44.10631" lon="6.82169">
        <ele>1048.1999511719</ele>
        <time>2020-09-05T12:43:18.000Z</time>
      </trkpt>
      <trkpt lat="44.10633" lon="6.82165">
        <ele>1048.4000244141</ele>
        <time>2020-09-05T12:43:21.000Z</time>
      </trkpt>
      <trkpt lat="44.10633" lon="6.82163">
        <ele>1048.5999755859</ele>
        <time>2020-09-05T12:43:22.000Z</time>
      </trkpt>
      <trkpt lat="44.10634" lon="6.82162">
        <ele>1049</ele>
        <time>2020-09-05T12:43:23.000Z</time>
      </trkpt>
      <trkpt lat="44.10633" lon="6.82161">
        <ele>1049.8000488281</ele>
        <time>2020-09-05T12:43:25.000Z</time>
      </trkpt>
      <trkpt lat="44.10632" lon="6.8216">
        <ele>1050.5999755859</ele>
        <time>2020-09-05T12:43:27.000Z</time>
      </trkpt>
      <trkpt lat="44.10632" lon="6.8216">
        <ele>1051</ele>
        <time>2020-09-05T12:43:29.000Z</time>
      </trkpt>
      <trkpt lat="44.1063" lon="6.8216">
        <ele>1050.8000488281</ele>
        <time>2020-09-05T12:43:36.000Z</time>
      </trkpt>
      <trkpt lat="44.1063" lon="6.82157">
        <ele>1051</ele>
        <time>2020-09-05T12:43:46.000Z</time>
      </trkpt>
      <trkpt lat="44.1063" lon="6.82154">
        <ele>1051.5999755859</ele>
        <time>2020-09-05T12:43:54.000Z</time>
      </trkpt>
      <trkpt lat="44.1063" lon="6.82154">
        <ele>1052</ele>
        <time>2020-09-05T12:43:56.000Z</time>
      </trkpt>
      <trkpt lat="44.1063" lon="6.82152">
        <ele>1052.5999755859</ele>
        <time>2020-09-05T12:44:01.000Z</time>
      </trkpt>
      <trkpt lat="44.10631" lon="6.8215">
        <ele>1053</ele>
        <time>2020-09-05T12:44:04.000Z</time>
      </trkpt>
      <trkpt lat="44.10631" lon="6.82148">
        <ele>1053.8000488281</ele>
        <time>2020-09-05T12:44:08.000Z</time>
      </trkpt>
      <trkpt lat="44.10631" lon="6.82148">
        <ele>1054.1999511719</ele>
        <time>2020-09-05T12:44:10.000Z</time>
      </trkpt>
      <trkpt lat="44.10631" lon="6.82147">
        <ele>1054.5999755859</ele>
        <time>2020-09-05T12:44:16.000Z</time>
      </trkpt>
      <trkpt lat="44.10632" lon="6.82148">
        <ele>1055</ele>
        <time>2020-09-05T12:44:25.000Z</time>
      </trkpt>
      <trkpt lat="44.10632" lon="6.82147">
        <ele>1055</ele>
        <time>2020-09-05T12:44:28.000Z</time>
      </trkpt>
      <trkpt lat="44.10635" lon="6.82142">
        <ele>1055.1999511719</ele>
        <time>2020-09-05T12:44:31.000Z</time>
      </trkpt>
      <trkpt lat="44.10636" lon="6.8214">
        <ele>1055.4000244141</ele>
        <time>2020-09-05T12:44:32.000Z</time>
      </trkpt>
      <trkpt lat="44.10639" lon="6.82135">
        <ele>1056.5999755859</ele>
        <time>2020-09-05T12:44:35.000Z</time>
      </trkpt>
      <trkpt lat="44.10639" lon="6.82134">
        <ele>1057</ele>
        <time>2020-09-05T12:44:36.000Z</time>
      </trkpt>
      <trkpt lat="44.10639" lon="6.82134">
        <ele>1057.5999755859</ele>
        <time>2020-09-05T12:44:37.000Z</time>
      </trkpt>
      <trkpt lat="44.10639" lon="6.82133">
        <ele>1058.8000488281</ele>
        <time>2020-09-05T12:44:40.000Z</time>
      </trkpt>
      <trkpt lat="44.10639" lon="6.82131">
        <ele>1059</ele>
        <time>2020-09-05T12:44:42.000Z</time>
      </trkpt>
      <trkpt lat="44.10638" lon="6.82127">
        <ele>1059</ele>
        <time>2020-09-05T12:44:44.000Z</time>
      </trkpt>
      <trkpt lat="44.10637" lon="6.82126">
        <ele>1059.5999755859</ele>
        <time>2020-09-05T12:44:49.000Z</time>
      </trkpt>
      <trkpt lat="44.10638" lon="6.82126">
        <ele>1059.8000488281</ele>
        <time>2020-09-05T12:44:50.000Z</time>
      </trkpt>
      <trkpt lat="44.10638" lon="6.82126">
        <ele>1060.1999511719</ele>
        <time>2020-09-05T12:44:58.000Z</time>
      </trkpt>
      <trkpt lat="44.10637" lon="6.82129">
        <ele>1060.5999755859</ele>
        <time>2020-09-05T12:45:06.000Z</time>
      </trkpt>
      <trkpt lat="44.10637" lon="6.8213">
        <ele>1060.8000488281</ele>
        <time>2020-09-05T12:45:07.000Z</time>
      </trkpt>
      <trkpt lat="44.10636" lon="6.82127">
        <ele>1062</ele>
        <time>2020-09-05T12:45:13.000Z</time>
      </trkpt>
      <trkpt lat="44.10635" lon="6.82127">
        <ele>1063</ele>
        <time>2020-09-05T12:45:20.000Z</time>
      </trkpt>
      <trkpt lat="44.10635" lon="6.82127">
        <ele>1063</ele>
        <time>2020-09-05T12:45:21.000Z</time>
      </trkpt>
      <trkpt lat="44.10635" lon="6.82129">
        <ele>1063.4000244141</ele>
        <time>2020-09-05T12:45:26.000Z</time>
      </trkpt>
      <trkpt lat="44.10633" lon="6.82128">
        <ele>1064</ele>
        <time>2020-09-05T12:45:31.000Z</time>
      </trkpt>
      <trkpt lat="44.10632" lon="6.82128">
        <ele>1064.4000244141</ele>
        <time>2020-09-05T12:45:32.000Z</time>
      </trkpt>
      <trkpt lat="44.10633" lon="6.82128">
        <ele>1065.1999511719</ele>
        <time>2020-09-05T12:45:36.000Z</time>
      </trkpt>
      <trkpt lat="44.10633" lon="6.82128">
        <ele>1065.4000244141</ele>
        <time>2020-09-05T12:45:40.000Z</time>
      </trkpt>
      <trkpt lat="44.10633" lon="6.82127">
        <ele>1065.8000488281</ele>
        <time>2020-09-05T12:45:46.000Z</time>
      </trkpt>
      <trkpt lat="44.10632" lon="6.82127">
        <ele>1066.1999511719</ele>
        <time>2020-09-05T12:45:51.000Z</time>
      </trkpt>
      <trkpt lat="44.10631" lon="6.82129">
        <ele>1066.8000488281</ele>
        <time>2020-09-05T12:45:54.000Z</time>
      </trkpt>
      <trkpt lat="44.1063" lon="6.82129">
        <ele>1067.1999511719</ele>
        <time>2020-09-05T12:45:56.000Z</time>
      </trkpt>
      <trkpt lat="44.10628" lon="6.82128">
        <ele>1068</ele>
        <time>2020-09-05T12:46:00.000Z</time>
      </trkpt>
      <trkpt lat="44.10627" lon="6.82126">
        <ele>1068.4000244141</ele>
        <time>2020-09-05T12:46:02.000Z</time>
      </trkpt>
      <trkpt lat="44.10626" lon="6.82125">
        <ele>1069.4000244141</ele>
        <time>2020-09-05T12:46:06.000Z</time>
      </trkpt>
      <trkpt lat="44.10625" lon="6.82125">
        <ele>1069.5999755859</ele>
        <time>2020-09-05T12:46:07.000Z</time>
      </trkpt>
      <trkpt lat="44.10623" lon="6.82126">
        <ele>1070.1999511719</ele>
        <time>2020-09-05T12:46:10.000Z</time>
      </trkpt>
      <trkpt lat="44.10622" lon="6.82124">
        <ele>1070.5999755859</ele>
        <time>2020-09-05T12:46:12.000Z</time>
      </trkpt>
      <trkpt lat="44.10621" lon="6.82122">
        <ele>1071.5999755859</ele>
        <time>2020-09-05T12:46:16.000Z</time>
      </trkpt>
      <trkpt lat="44.10621" lon="6.82122">
        <ele>1071.5999755859</ele>
        <time>2020-09-05T12:46:17.000Z</time>
      </trkpt>
      <trkpt lat="44.1062" lon="6.82121">
        <ele>1072.4000244141</ele>
        <time>2020-09-05T12:46:24.000Z</time>
      </trkpt>
      <trkpt lat="44.10619" lon="6.82122">
        <ele>1072.4000244141</ele>
        <time>2020-09-05T12:46:32.000Z</time>
      </trkpt>
      <trkpt lat="44.10616" lon="6.82119">
        <ele>1072.4000244141</ele>
        <time>2020-09-05T12:46:41.000Z</time>
      </trkpt>
      <trkpt lat="44.10613" lon="6.82117">
        <ele>1072.8000488281</ele>
        <time>2020-09-05T12:46:44.000Z</time>
      </trkpt>
      <trkpt lat="44.10613" lon="6.82118">
        <ele>1073</ele>
        <time>2020-09-05T12:46:45.000Z</time>
      </trkpt>
      <trkpt lat="44.10613" lon="6.82117">
        <ele>1074</ele>
        <time>2020-09-05T12:46:48.000Z</time>
      </trkpt>
      <trkpt lat="44.10613" lon="6.82117">
        <ele>1074.5999755859</ele>
        <time>2020-09-05T12:46:51.000Z</time>
      </trkpt>
      <trkpt lat="44.10612" lon="6.82118">
        <ele>1075</ele>
        <time>2020-09-05T12:46:58.000Z</time>
      </trkpt>
      <trkpt lat="44.10611" lon="6.82119">
        <ele>1075.4000244141</ele>
        <time>2020-09-05T12:46:59.000Z</time>
      </trkpt>
      <trkpt lat="44.1061" lon="6.8212">
        <ele>1076</ele>
        <time>2020-09-05T12:47:03.000Z</time>
      </trkpt>
      <trkpt lat="44.1061" lon="6.8212">
        <ele>1076.4000244141</ele>
        <time>2020-09-05T12:47:07.000Z</time>
      </trkpt>
      <trkpt lat="44.10609" lon="6.82118">
        <ele>1076.4000244141</ele>
        <time>2020-09-05T12:47:12.000Z</time>
      </trkpt>
      <trkpt lat="44.10607" lon="6.82114">
        <ele>1076.5999755859</ele>
        <time>2020-09-05T12:47:15.000Z</time>
      </trkpt>
      <trkpt lat="44.10606" lon="6.82113">
        <ele>1076.8000488281</ele>
        <time>2020-09-05T12:47:16.000Z</time>
      </trkpt>
      <trkpt lat="44.10604" lon="6.82112">
        <ele>1077</ele>
        <time>2020-09-05T12:47:17.000Z</time>
      </trkpt>
      <trkpt lat="44.10601" lon="6.82112">
        <ele>1077.8000488281</ele>
        <time>2020-09-05T12:47:19.000Z</time>
      </trkpt>
      <trkpt lat="44.106" lon="6.82113">
        <ele>1078.4000244141</ele>
        <time>2020-09-05T12:47:20.000Z</time>
      </trkpt>
      <trkpt lat="44.10598" lon="6.82116">
        <ele>1079.8000488281</ele>
        <time>2020-09-05T12:47:23.000Z</time>
      </trkpt>
      <trkpt lat="44.10597" lon="6.82117">
        <ele>1080.4000244141</ele>
        <time>2020-09-05T12:47:24.000Z</time>
      </trkpt>
      <trkpt lat="44.10596" lon="6.82118">
        <ele>1080.8000488281</ele>
        <time>2020-09-05T12:47:25.000Z</time>
      </trkpt>
      <trkpt lat="44.10591" lon="6.82117">
        <ele>1081.8000488281</ele>
        <time>2020-09-05T12:47:28.000Z</time>
      </trkpt>
      <trkpt lat="44.1059" lon="6.82117">
        <ele>1082.4000244141</ele>
        <time>2020-09-05T12:47:29.000Z</time>
      </trkpt>
      <trkpt lat="44.10589" lon="6.82119">
        <ele>1083.4000244141</ele>
        <time>2020-09-05T12:47:31.000Z</time>
      </trkpt>
      <trkpt lat="44.10587" lon="6.82121">
        <ele>1084.8000488281</ele>
        <time>2020-09-05T12:47:33.000Z</time>
      </trkpt>
      <trkpt lat="44.10585" lon="6.82123">
        <ele>1085.8000488281</ele>
        <time>2020-09-05T12:47:35.000Z</time>
      </trkpt>
      <trkpt lat="44.10581" lon="6.82125">
        <ele>1087.1999511719</ele>
        <time>2020-09-05T12:47:38.000Z</time>
      </trkpt>
      <trkpt lat="44.10574" lon="6.82126">
        <ele>1088.4000244141</ele>
        <time>2020-09-05T12:47:42.000Z</time>
      </trkpt>
      <trkpt lat="44.10573" lon="6.82126">
        <ele>1088.8000488281</ele>
        <time>2020-09-05T12:47:43.000Z</time>
      </trkpt>
      <trkpt lat="44.10572" lon="6.82127">
        <ele>1089.8000488281</ele>
        <time>2020-09-05T12:47:45.000Z</time>
      </trkpt>
      <trkpt lat="44.10571" lon="6.82127">
        <ele>1090.8000488281</ele>
        <time>2020-09-05T12:47:47.000Z</time>
      </trkpt>
      <trkpt lat="44.10569" lon="6.82127">
        <ele>1091.8000488281</ele>
        <time>2020-09-05T12:47:51.000Z</time>
      </trkpt>
      <trkpt lat="44.10567" lon="6.82126">
        <ele>1092</ele>
        <time>2020-09-05T12:47:52.000Z</time>
      </trkpt>
      <trkpt lat="44.10561" lon="6.8212">
        <ele>1093.1999511719</ele>
        <time>2020-09-05T12:47:57.000Z</time>
      </trkpt>
      <trkpt lat="44.10559" lon="6.8212">
        <ele>1094</ele>
        <time>2020-09-05T12:47:59.000Z</time>
      </trkpt>
      <trkpt lat="44.10557" lon="6.82121">
        <ele>1094.4000244141</ele>
        <time>2020-09-05T12:48:00.000Z</time>
      </trkpt>
      <trkpt lat="44.10556" lon="6.82122">
        <ele>1094.8000488281</ele>
        <time>2020-09-05T12:48:01.000Z</time>
      </trkpt>
      <trkpt lat="44.10555" lon="6.82125">
        <ele>1095.4000244141</ele>
        <time>2020-09-05T12:48:03.000Z</time>
      </trkpt>
      <trkpt lat="44.10553" lon="6.82129">
        <ele>1096.5999755859</ele>
        <time>2020-09-05T12:48:05.000Z</time>
      </trkpt>
      <trkpt lat="44.10552" lon="6.8213">
        <ele>1097</ele>
        <time>2020-09-05T12:48:06.000Z</time>
      </trkpt>
      <trkpt lat="44.10551" lon="6.8213">
        <ele>1097.5999755859</ele>
        <time>2020-09-05T12:48:07.000Z</time>
      </trkpt>
      <trkpt lat="44.10548" lon="6.82129">
        <ele>1098.8000488281</ele>
        <time>2020-09-05T12:48:10.000Z</time>
      </trkpt>
      <trkpt lat="44.10547" lon="6.82129">
        <ele>1099</ele>
        <time>2020-09-05T12:48:11.000Z</time>
      </trkpt>
      <trkpt lat="44.10545" lon="6.82128">
        <ele>1099.8000488281</ele>
        <time>2020-09-05T12:48:13.000Z</time>
      </trkpt>
      <trkpt lat="44.10541" lon="6.82127">
        <ele>1100.8000488281</ele>
        <time>2020-09-05T12:48:16.000Z</time>
      </trkpt>
      <trkpt lat="44.10541" lon="6.82127">
        <ele>1101.1999511719</ele>
        <time>2020-09-05T12:48:17.000Z</time>
      </trkpt>
      <trkpt lat="44.10539" lon="6.82127">
        <ele>1102.1999511719</ele>
        <time>2020-09-05T12:48:19.000Z</time>
      </trkpt>
      <trkpt lat="44.10537" lon="6.82127">
        <ele>1103.1999511719</ele>
        <time>2020-09-05T12:48:23.000Z</time>
      </trkpt>
      <trkpt lat="44.10536" lon="6.82128">
        <ele>1103.4000244141</ele>
        <time>2020-09-05T12:48:27.000Z</time>
      </trkpt>
      <trkpt lat="44.10535" lon="6.8213">
        <ele>1103.4000244141</ele>
        <time>2020-09-05T12:48:28.000Z</time>
      </trkpt>
      <trkpt lat="44.10533" lon="6.82131">
        <ele>1104</ele>
        <time>2020-09-05T12:48:32.000Z</time>
      </trkpt>
      <trkpt lat="44.10532" lon="6.82131">
        <ele>1104.4000244141</ele>
        <time>2020-09-05T12:48:33.000Z</time>
      </trkpt>
      <trkpt lat="44.10529" lon="6.8213">
        <ele>1105</ele>
        <time>2020-09-05T12:48:37.000Z</time>
      </trkpt>
      <trkpt lat="44.10528" lon="6.82131">
        <ele>1105.1999511719</ele>
        <time>2020-09-05T12:48:38.000Z</time>
      </trkpt>
      <trkpt lat="44.10526" lon="6.82134">
        <ele>1105.5999755859</ele>
        <time>2020-09-05T12:48:40.000Z</time>
      </trkpt>
      <trkpt lat="44.10524" lon="6.82135">
        <ele>1106.4000244141</ele>
        <time>2020-09-05T12:48:42.000Z</time>
      </trkpt>
      <trkpt lat="44.10523" lon="6.82134">
        <ele>1106.8000488281</ele>
        <time>2020-09-05T12:48:43.000Z</time>
      </trkpt>
      <trkpt lat="44.10521" lon="6.82131">
        <ele>1108</ele>
        <time>2020-09-05T12:48:46.000Z</time>
      </trkpt>
      <trkpt lat="44.1052" lon="6.82131">
        <ele>1108.4000244141</ele>
        <time>2020-09-05T12:48:47.000Z</time>
      </trkpt>
      <trkpt lat="44.10518" lon="6.82134">
        <ele>1109</ele>
        <time>2020-09-05T12:48:49.000Z</time>
      </trkpt>
      <trkpt lat="44.10517" lon="6.82135">
        <ele>1109.4000244141</ele>
        <time>2020-09-05T12:48:50.000Z</time>
      </trkpt>
      <trkpt lat="44.10514" lon="6.82139">
        <ele>1110.5999755859</ele>
        <time>2020-09-05T12:48:54.000Z</time>
      </trkpt>
      <trkpt lat="44.10509" lon="6.82135">
        <ele>1111.5999755859</ele>
        <time>2020-09-05T12:48:58.000Z</time>
      </trkpt>
      <trkpt lat="44.10508" lon="6.82134">
        <ele>1112</ele>
        <time>2020-09-05T12:48:59.000Z</time>
      </trkpt>
      <trkpt lat="44.10506" lon="6.82138">
        <ele>1113</ele>
        <time>2020-09-05T12:49:02.000Z</time>
      </trkpt>
      <trkpt lat="44.10504" lon="6.82141">
        <ele>1114</ele>
        <time>2020-09-05T12:49:05.000Z</time>
      </trkpt>
      <trkpt lat="44.10501" lon="6.82141">
        <ele>1114.8000488281</ele>
        <time>2020-09-05T12:49:07.000Z</time>
      </trkpt>
      <trkpt lat="44.105" lon="6.8214">
        <ele>1115.1999511719</ele>
        <time>2020-09-05T12:49:08.000Z</time>
      </trkpt>
      <trkpt lat="44.10497" lon="6.82139">
        <ele>1115.8000488281</ele>
        <time>2020-09-05T12:49:10.000Z</time>
      </trkpt>
      <trkpt lat="44.10494" lon="6.8214">
        <ele>1116.4000244141</ele>
        <time>2020-09-05T12:49:12.000Z</time>
      </trkpt>
      <trkpt lat="44.10494" lon="6.82141">
        <ele>1117.5999755859</ele>
        <time>2020-09-05T12:49:15.000Z</time>
      </trkpt>
      <trkpt lat="44.10493" lon="6.82141">
        <ele>1117.8000488281</ele>
        <time>2020-09-05T12:49:16.000Z</time>
      </trkpt>
      <trkpt lat="44.10491" lon="6.82139">
        <ele>1118.5999755859</ele>
        <time>2020-09-05T12:49:25.000Z</time>
      </trkpt>
      <trkpt lat="44.10492" lon="6.8214">
        <ele>1118.5999755859</ele>
        <time>2020-09-05T12:49:32.000Z</time>
      </trkpt>
      <trkpt lat="44.10492" lon="6.82142">
        <ele>1118.5999755859</ele>
        <time>2020-09-05T12:49:40.000Z</time>
      </trkpt>
      <trkpt lat="44.10492" lon="6.82143">
        <ele>1118.8000488281</ele>
        <time>2020-09-05T12:49:41.000Z</time>
      </trkpt>
      <trkpt lat="44.10491" lon="6.82144">
        <ele>1119.5999755859</ele>
        <time>2020-09-05T12:49:47.000Z</time>
      </trkpt>
      <trkpt lat="44.10491" lon="6.82144">
        <ele>1119.5999755859</ele>
        <time>2020-09-05T12:49:48.000Z</time>
      </trkpt>
      <trkpt lat="44.10491" lon="6.82145">
        <ele>1119.8000488281</ele>
        <time>2020-09-05T12:49:56.000Z</time>
      </trkpt>
      <trkpt lat="44.10491" lon="6.82152">
        <ele>1120</ele>
        <time>2020-09-05T12:50:00.000Z</time>
      </trkpt>
      <trkpt lat="44.1049" lon="6.82153">
        <ele>1120.1999511719</ele>
        <time>2020-09-05T12:50:01.000Z</time>
      </trkpt>
      <trkpt lat="44.10488" lon="6.82153">
        <ele>1120.8000488281</ele>
        <time>2020-09-05T12:50:03.000Z</time>
      </trkpt>
      <trkpt lat="44.10486" lon="6.82152">
        <ele>1121.4000244141</ele>
        <time>2020-09-05T12:50:05.000Z</time>
      </trkpt>
      <trkpt lat="44.10485" lon="6.82151">
        <ele>1121.5999755859</ele>
        <time>2020-09-05T12:50:06.000Z</time>
      </trkpt>
      <trkpt lat="44.10484" lon="6.8215">
        <ele>1122</ele>
        <time>2020-09-05T12:50:07.000Z</time>
      </trkpt>
      <trkpt lat="44.10483" lon="6.82151">
        <ele>1122.1999511719</ele>
        <time>2020-09-05T12:50:08.000Z</time>
      </trkpt>
      <trkpt lat="44.10482" lon="6.82154">
        <ele>1123.1999511719</ele>
        <time>2020-09-05T12:50:10.000Z</time>
      </trkpt>
      <trkpt lat="44.10481" lon="6.8216">
        <ele>1124.5999755859</ele>
        <time>2020-09-05T12:50:13.000Z</time>
      </trkpt>
      <trkpt lat="44.10477" lon="6.82163">
        <ele>1126</ele>
        <time>2020-09-05T12:50:16.000Z</time>
      </trkpt>
      <trkpt lat="44.10475" lon="6.82164">
        <ele>1126.5999755859</ele>
        <time>2020-09-05T12:50:17.000Z</time>
      </trkpt>
      <trkpt lat="44.10472" lon="6.82163">
        <ele>1127.4000244141</ele>
        <time>2020-09-05T12:50:19.000Z</time>
      </trkpt>
      <trkpt lat="44.10469" lon="6.82163">
        <ele>1128.1999511719</ele>
        <time>2020-09-05T12:50:21.000Z</time>
      </trkpt>
      <trkpt lat="44.10467" lon="6.82164">
        <ele>1128.4000244141</ele>
        <time>2020-09-05T12:50:22.000Z</time>
      </trkpt>
      <trkpt lat="44.10465" lon="6.82166">
        <ele>1129.4000244141</ele>
        <time>2020-09-05T12:50:24.000Z</time>
      </trkpt>
      <trkpt lat="44.10464" lon="6.82167">
        <ele>1130</ele>
        <time>2020-09-05T12:50:25.000Z</time>
      </trkpt>
      <trkpt lat="44.10463" lon="6.82166">
        <ele>1130.5999755859</ele>
        <time>2020-09-05T12:50:26.000Z</time>
      </trkpt>
      <trkpt lat="44.10459" lon="6.82165">
        <ele>1131.4000244141</ele>
        <time>2020-09-05T12:50:28.000Z</time>
      </trkpt>
      <trkpt lat="44.10457" lon="6.82165">
        <ele>1131.8000488281</ele>
        <time>2020-09-05T12:50:29.000Z</time>
      </trkpt>
      <trkpt lat="44.10455" lon="6.82165">
        <ele>1132.4000244141</ele>
        <time>2020-09-05T12:50:31.000Z</time>
      </trkpt>
      <trkpt lat="44.10454" lon="6.82166">
        <ele>1133</ele>
        <time>2020-09-05T12:50:32.000Z</time>
      </trkpt>
      <trkpt lat="44.10454" lon="6.82167">
        <ele>1133.5999755859</ele>
        <time>2020-09-05T12:50:33.000Z</time>
      </trkpt>
      <trkpt lat="44.10454" lon="6.82167">
        <ele>1134</ele>
        <time>2020-09-05T12:50:34.000Z</time>
      </trkpt>
      <trkpt lat="44.10453" lon="6.82168">
        <ele>1135.1999511719</ele>
        <time>2020-09-05T12:50:38.000Z</time>
      </trkpt>
      <trkpt lat="44.10453" lon="6.82169">
        <ele>1135.1999511719</ele>
        <time>2020-09-05T12:50:44.000Z</time>
      </trkpt>
      <trkpt lat="44.10452" lon="6.82169">
        <ele>1135.5999755859</ele>
        <time>2020-09-05T12:50:50.000Z</time>
      </trkpt>
      <trkpt lat="44.10451" lon="6.82168">
        <ele>1135.8000488281</ele>
        <time>2020-09-05T12:50:52.000Z</time>
      </trkpt>
      <trkpt lat="44.10448" lon="6.82167">
        <ele>1135.5999755859</ele>
        <time>2020-09-05T12:50:55.000Z</time>
      </trkpt>
      <trkpt lat="44.10447" lon="6.82168">
        <ele>1136.4000244141</ele>
        <time>2020-09-05T12:50:58.000Z</time>
      </trkpt>
      <trkpt lat="44.10446" lon="6.82172">
        <ele>1137</ele>
        <time>2020-09-05T12:51:01.000Z</time>
      </trkpt>
      <trkpt lat="44.10447" lon="6.82173">
        <ele>1137.1999511719</ele>
        <time>2020-09-05T12:51:02.000Z</time>
      </trkpt>
      <trkpt lat="44.10447" lon="6.82176">
        <ele>1137.4000244141</ele>
        <time>2020-09-05T12:51:04.000Z</time>
      </trkpt>
      <trkpt lat="44.10444" lon="6.82175">
        <ele>1138</ele>
        <time>2020-09-05T12:51:06.000Z</time>
      </trkpt>
      <trkpt lat="44.10441" lon="6.82173">
        <ele>1138.4000244141</ele>
        <time>2020-09-05T12:51:08.000Z</time>
      </trkpt>
      <trkpt lat="44.10438" lon="6.82176">
        <ele>1139.5999755859</ele>
        <time>2020-09-05T12:51:11.000Z</time>
      </trkpt>
      <trkpt lat="44.10438" lon="6.82178">
        <ele>1140</ele>
        <time>2020-09-05T12:51:12.000Z</time>
      </trkpt>
      <trkpt lat="44.10437" lon="6.8218">
        <ele>1140.8000488281</ele>
        <time>2020-09-05T12:51:14.000Z</time>
      </trkpt>
      <trkpt lat="44.10436" lon="6.82179">
        <ele>1141.4000244141</ele>
        <time>2020-09-05T12:51:16.000Z</time>
      </trkpt>
      <trkpt lat="44.10433" lon="6.82177">
        <ele>1142</ele>
        <time>2020-09-05T12:51:18.000Z</time>
      </trkpt>
      <trkpt lat="44.10432" lon="6.82177">
        <ele>1142.4000244141</ele>
        <time>2020-09-05T12:51:19.000Z</time>
      </trkpt>
      <trkpt lat="44.10431" lon="6.8218">
        <ele>1143</ele>
        <time>2020-09-05T12:51:21.000Z</time>
      </trkpt>
      <trkpt lat="44.10429" lon="6.82182">
        <ele>1144.1999511719</ele>
        <time>2020-09-05T12:51:24.000Z</time>
      </trkpt>
      <trkpt lat="44.10428" lon="6.82181">
        <ele>1145.1999511719</ele>
        <time>2020-09-05T12:51:27.000Z</time>
      </trkpt>
      <trkpt lat="44.10428" lon="6.82181">
        <ele>1145.1999511719</ele>
        <time>2020-09-05T12:51:28.000Z</time>
      </trkpt>
      <trkpt lat="44.10426" lon="6.8218">
        <ele>1145.5999755859</ele>
        <time>2020-09-05T12:51:32.000Z</time>
      </trkpt>
      <trkpt lat="44.10424" lon="6.82179">
        <ele>1146</ele>
        <time>2020-09-05T12:51:39.000Z</time>
      </trkpt>
      <trkpt lat="44.10422" lon="6.82178">
        <ele>1146.4000244141</ele>
        <time>2020-09-05T12:51:44.000Z</time>
      </trkpt>
      <trkpt lat="44.10422" lon="6.82178">
        <ele>1146.4000244141</ele>
        <time>2020-09-05T12:51:46.000Z</time>
      </trkpt>
      <trkpt lat="44.1042" lon="6.82178">
        <ele>1147</ele>
        <time>2020-09-05T12:51:52.000Z</time>
      </trkpt>
      <trkpt lat="44.10419" lon="6.82179">
        <ele>1147.5999755859</ele>
        <time>2020-09-05T12:51:54.000Z</time>
      </trkpt>
      <trkpt lat="44.10418" lon="6.82178">
        <ele>1147.8000488281</ele>
        <time>2020-09-05T12:52:00.000Z</time>
      </trkpt>
      <trkpt lat="44.10415" lon="6.8218">
        <ele>1148.5999755859</ele>
        <time>2020-09-05T12:52:05.000Z</time>
      </trkpt>
      <trkpt lat="44.10414" lon="6.82181">
        <ele>1148.8000488281</ele>
        <time>2020-09-05T12:52:07.000Z</time>
      </trkpt>
      <trkpt lat="44.10412" lon="6.82182">
        <ele>1149.5999755859</ele>
        <time>2020-09-05T12:52:12.000Z</time>
      </trkpt>
      <trkpt lat="44.10412" lon="6.82182">
        <ele>1149.8000488281</ele>
        <time>2020-09-05T12:52:13.000Z</time>
      </trkpt>
      <trkpt lat="44.10411" lon="6.82183">
        <ele>1150.1999511719</ele>
        <time>2020-09-05T12:52:19.000Z</time>
      </trkpt>
      <trkpt lat="44.1041" lon="6.82182">
        <ele>1150.1999511719</ele>
        <time>2020-09-05T12:52:26.000Z</time>
      </trkpt>
      <trkpt lat="44.10408" lon="6.8218">
        <ele>1150.1999511719</ele>
        <time>2020-09-05T12:52:31.000Z</time>
      </trkpt>
      <trkpt lat="44.10408" lon="6.82179">
        <ele>1150.1999511719</ele>
        <time>2020-09-05T12:52:33.000Z</time>
      </trkpt>
      <trkpt lat="44.10407" lon="6.82178">
        <ele>1150.4000244141</ele>
        <time>2020-09-05T12:52:34.000Z</time>
      </trkpt>
      <trkpt lat="44.10406" lon="6.82179">
        <ele>1150.8000488281</ele>
        <time>2020-09-05T12:52:36.000Z</time>
      </trkpt>
      <trkpt lat="44.10406" lon="6.8218">
        <ele>1151</ele>
        <time>2020-09-05T12:52:37.000Z</time>
      </trkpt>
      <trkpt lat="44.10406" lon="6.82181">
        <ele>1151.8000488281</ele>
        <time>2020-09-05T12:52:41.000Z</time>
      </trkpt>
      <trkpt lat="44.10406" lon="6.82182">
        <ele>1152</ele>
        <time>2020-09-05T12:52:43.000Z</time>
      </trkpt>
      <trkpt lat="44.10406" lon="6.82184">
        <ele>1152.1999511719</ele>
        <time>2020-09-05T12:52:44.000Z</time>
      </trkpt>
      <trkpt lat="44.10404" lon="6.82184">
        <ele>1152.4000244141</ele>
        <time>2020-09-05T12:52:47.000Z</time>
      </trkpt>
      <trkpt lat="44.10402" lon="6.82184">
        <ele>1153</ele>
        <time>2020-09-05T12:52:49.000Z</time>
      </trkpt>
      <trkpt lat="44.104" lon="6.82187">
        <ele>1153.8000488281</ele>
        <time>2020-09-05T12:52:51.000Z</time>
      </trkpt>
      <trkpt lat="44.104" lon="6.82188">
        <ele>1154.4000244141</ele>
        <time>2020-09-05T12:52:52.000Z</time>
      </trkpt>
      <trkpt lat="44.10397" lon="6.82187">
        <ele>1155.4000244141</ele>
        <time>2020-09-05T12:52:55.000Z</time>
      </trkpt>
      <trkpt lat="44.10396" lon="6.82186">
        <ele>1155.8000488281</ele>
        <time>2020-09-05T12:52:56.000Z</time>
      </trkpt>
      <trkpt lat="44.10393" lon="6.82187">
        <ele>1156.5999755859</ele>
        <time>2020-09-05T12:52:58.000Z</time>
      </trkpt>
      <trkpt lat="44.10392" lon="6.82188">
        <ele>1157.8000488281</ele>
        <time>2020-09-05T12:53:00.000Z</time>
      </trkpt>
      <trkpt lat="44.10391" lon="6.82188">
        <ele>1158.8000488281</ele>
        <time>2020-09-05T12:53:03.000Z</time>
      </trkpt>
      <trkpt lat="44.10391" lon="6.82188">
        <ele>1159.1999511719</ele>
        <time>2020-09-05T12:53:07.000Z</time>
      </trkpt>
      <trkpt lat="44.10389" lon="6.82186">
        <ele>1159.1999511719</ele>
        <time>2020-09-05T12:53:11.000Z</time>
      </trkpt>
      <trkpt lat="44.10387" lon="6.82187">
        <ele>1159.4000244141</ele>
        <time>2020-09-05T12:53:13.000Z</time>
      </trkpt>
      <trkpt lat="44.10386" lon="6.82189">
        <ele>1159.8000488281</ele>
        <time>2020-09-05T12:53:15.000Z</time>
      </trkpt>
      <trkpt lat="44.10385" lon="6.82188">
        <ele>1160.5999755859</ele>
        <time>2020-09-05T12:53:17.000Z</time>
      </trkpt>
      <trkpt lat="44.10385" lon="6.82188">
        <ele>1161</ele>
        <time>2020-09-05T12:53:18.000Z</time>
      </trkpt>
      <trkpt lat="44.10385" lon="6.82188">
        <ele>1161.4000244141</ele>
        <time>2020-09-05T12:53:21.000Z</time>
      </trkpt>
      <trkpt lat="44.10383" lon="6.82188">
        <ele>1161.4000244141</ele>
        <time>2020-09-05T12:53:27.000Z</time>
      </trkpt>
      <trkpt lat="44.10381" lon="6.82186">
        <ele>1161.8000488281</ele>
        <time>2020-09-05T12:53:34.000Z</time>
      </trkpt>
      <trkpt lat="44.1038" lon="6.82186">
        <ele>1162.1999511719</ele>
        <time>2020-09-05T12:53:36.000Z</time>
      </trkpt>
      <trkpt lat="44.10381" lon="6.82187">
        <ele>1162.8000488281</ele>
        <time>2020-09-05T12:53:42.000Z</time>
      </trkpt>
      <trkpt lat="44.10381" lon="6.82187">
        <ele>1162.8000488281</ele>
        <time>2020-09-05T12:53:51.000Z</time>
      </trkpt>
      <trkpt lat="44.10381" lon="6.82187">
        <ele>1163.1999511719</ele>
        <time>2020-09-05T12:53:55.000Z</time>
      </trkpt>
      <trkpt lat="44.1038" lon="6.82186">
        <ele>1163.1999511719</ele>
        <time>2020-09-05T12:54:00.000Z</time>
      </trkpt>
      <trkpt lat="44.10378" lon="6.82187">
        <ele>1163.1999511719</ele>
        <time>2020-09-05T12:54:06.000Z</time>
      </trkpt>
      <trkpt lat="44.10377" lon="6.8219">
        <ele>1163.5999755859</ele>
        <time>2020-09-05T12:54:11.000Z</time>
      </trkpt>
      <trkpt lat="44.10377" lon="6.82191">
        <ele>1163.8000488281</ele>
        <time>2020-09-05T12:54:12.000Z</time>
      </trkpt>
      <trkpt lat="44.10374" lon="6.82188">
        <ele>1164</ele>
        <time>2020-09-05T12:54:15.000Z</time>
      </trkpt>
      <trkpt lat="44.10373" lon="6.82187">
        <ele>1164.1999511719</ele>
        <time>2020-09-05T12:54:16.000Z</time>
      </trkpt>
      <trkpt lat="44.10372" lon="6.82187">
        <ele>1164.4000244141</ele>
        <time>2020-09-05T12:54:17.000Z</time>
      </trkpt>
      <trkpt lat="44.10372" lon="6.82188">
        <ele>1164.8000488281</ele>
        <time>2020-09-05T12:54:18.000Z</time>
      </trkpt>
      <trkpt lat="44.1037" lon="6.82191">
        <ele>1165.5999755859</ele>
        <time>2020-09-05T12:54:20.000Z</time>
      </trkpt>
      <trkpt lat="44.10366" lon="6.82191">
        <ele>1166.8000488281</ele>
        <time>2020-09-05T12:54:23.000Z</time>
      </trkpt>
      <trkpt lat="44.10365" lon="6.8219">
        <ele>1167</ele>
        <time>2020-09-05T12:54:24.000Z</time>
      </trkpt>
      <trkpt lat="44.10364" lon="6.82188">
        <ele>1167.8000488281</ele>
        <time>2020-09-05T12:54:25.000Z</time>
      </trkpt>
      <trkpt lat="44.10362" lon="6.82186">
        <ele>1168.8000488281</ele>
        <time>2020-09-05T12:54:27.000Z</time>
      </trkpt>
      <trkpt lat="44.10361" lon="6.82186">
        <ele>1169.4000244141</ele>
        <time>2020-09-05T12:54:28.000Z</time>
      </trkpt>
      <trkpt lat="44.1036" lon="6.82188">
        <ele>1169.8000488281</ele>
        <time>2020-09-05T12:54:29.000Z</time>
      </trkpt>
      <trkpt lat="44.10358" lon="6.82192">
        <ele>1171</ele>
        <time>2020-09-05T12:54:32.000Z</time>
      </trkpt>
      <trkpt lat="44.10356" lon="6.82192">
        <ele>1171.4000244141</ele>
        <time>2020-09-05T12:54:33.000Z</time>
      </trkpt>
      <trkpt lat="44.10353" lon="6.82192">
        <ele>1172</ele>
        <time>2020-09-05T12:54:35.000Z</time>
      </trkpt>
      <trkpt lat="44.10352" lon="6.82191">
        <ele>1172.4000244141</ele>
        <time>2020-09-05T12:54:36.000Z</time>
      </trkpt>
      <trkpt lat="44.10347" lon="6.82192">
        <ele>1173.5999755859</ele>
        <time>2020-09-05T12:54:39.000Z</time>
      </trkpt>
      <trkpt lat="44.10346" lon="6.82193">
        <ele>1174.1999511719</ele>
        <time>2020-09-05T12:54:40.000Z</time>
      </trkpt>
      <trkpt lat="44.10345" lon="6.82194">
        <ele>1174.5999755859</ele>
        <time>2020-09-05T12:54:41.000Z</time>
      </trkpt>
      <trkpt lat="44.10344" lon="6.82198">
        <ele>1175.8000488281</ele>
        <time>2020-09-05T12:54:43.000Z</time>
      </trkpt>
      <trkpt lat="44.10346" lon="6.82205">
        <ele>1177</ele>
        <time>2020-09-05T12:54:47.000Z</time>
      </trkpt>
      <trkpt lat="44.10344" lon="6.82216">
        <ele>1178.1999511719</ele>
        <time>2020-09-05T12:54:52.000Z</time>
      </trkpt>
      <trkpt lat="44.10338" lon="6.82221">
        <ele>1179.1999511719</ele>
        <time>2020-09-05T12:54:56.000Z</time>
      </trkpt>
      <trkpt lat="44.10337" lon="6.82227">
        <ele>1180.5999755859</ele>
        <time>2020-09-05T12:54:59.000Z</time>
      </trkpt>
      <trkpt lat="44.10335" lon="6.82229">
        <ele>1181</ele>
        <time>2020-09-05T12:55:00.000Z</time>
      </trkpt>
      <trkpt lat="44.10334" lon="6.82232">
        <ele>1181.8000488281</ele>
        <time>2020-09-05T12:55:02.000Z</time>
      </trkpt>
      <trkpt lat="44.10331" lon="6.82238">
        <ele>1183</ele>
        <time>2020-09-05T12:55:05.000Z</time>
      </trkpt>
      <trkpt lat="44.1033" lon="6.82242">
        <ele>1183.5999755859</ele>
        <time>2020-09-05T12:55:07.000Z</time>
      </trkpt>
      <trkpt lat="44.10327" lon="6.82246">
        <ele>1184</ele>
        <time>2020-09-05T12:55:09.000Z</time>
      </trkpt>
      <trkpt lat="44.10323" lon="6.82253">
        <ele>1185</ele>
        <time>2020-09-05T12:55:13.000Z</time>
      </trkpt>
      <trkpt lat="44.10318" lon="6.82261">
        <ele>1186.4000244141</ele>
        <time>2020-09-05T12:55:17.000Z</time>
      </trkpt>
      <trkpt lat="44.10316" lon="6.82264">
        <ele>1186.8000488281</ele>
        <time>2020-09-05T12:55:19.000Z</time>
      </trkpt>
      <trkpt lat="44.10314" lon="6.82267">
        <ele>1187.4000244141</ele>
        <time>2020-09-05T12:55:21.000Z</time>
      </trkpt>
      <trkpt lat="44.10312" lon="6.82272">
        <ele>1188.1999511719</ele>
        <time>2020-09-05T12:55:24.000Z</time>
      </trkpt>
      <trkpt lat="44.10312" lon="6.82274">
        <ele>1188.5999755859</ele>
        <time>2020-09-05T12:55:25.000Z</time>
      </trkpt>
      <trkpt lat="44.10308" lon="6.8228">
        <ele>1189.5999755859</ele>
        <time>2020-09-05T12:55:29.000Z</time>
      </trkpt>
      <trkpt lat="44.10308" lon="6.82283">
        <ele>1189.8000488281</ele>
        <time>2020-09-05T12:55:30.000Z</time>
      </trkpt>
      <trkpt lat="44.10303" lon="6.8229">
        <ele>1190.5999755859</ele>
        <time>2020-09-05T12:55:34.000Z</time>
      </trkpt>
      <trkpt lat="44.10302" lon="6.82291">
        <ele>1190.8000488281</ele>
        <time>2020-09-05T12:55:35.000Z</time>
      </trkpt>
      <trkpt lat="44.10294" lon="6.82294">
        <ele>1192</ele>
        <time>2020-09-05T12:55:39.000Z</time>
      </trkpt>
      <trkpt lat="44.10288" lon="6.82291">
        <ele>1193.1999511719</ele>
        <time>2020-09-05T12:55:43.000Z</time>
      </trkpt>
      <trkpt lat="44.10286" lon="6.82287">
        <ele>1193.5999755859</ele>
        <time>2020-09-05T12:55:45.000Z</time>
      </trkpt>
      <trkpt lat="44.10281" lon="6.8228">
        <ele>1194</ele>
        <time>2020-09-05T12:55:49.000Z</time>
      </trkpt>
      <trkpt lat="44.10279" lon="6.82279">
        <ele>1194.1999511719</ele>
        <time>2020-09-05T12:55:50.000Z</time>
      </trkpt>
      <trkpt lat="44.10271" lon="6.82278">
        <ele>1195</ele>
        <time>2020-09-05T12:55:54.000Z</time>
      </trkpt>
      <trkpt lat="44.10269" lon="6.82278">
        <ele>1195.1999511719</ele>
        <time>2020-09-05T12:55:55.000Z</time>
      </trkpt>
      <trkpt lat="44.10262" lon="6.8228">
        <ele>1196</ele>
        <time>2020-09-05T12:55:59.000Z</time>
      </trkpt>
      <trkpt lat="44.10259" lon="6.82281">
        <ele>1196.1999511719</ele>
        <time>2020-09-05T12:56:01.000Z</time>
      </trkpt>
      <trkpt lat="44.10253" lon="6.82283">
        <ele>1196.5999755859</ele>
        <time>2020-09-05T12:56:04.000Z</time>
      </trkpt>
      <trkpt lat="44.10247" lon="6.82284">
        <ele>1197.1999511719</ele>
        <time>2020-09-05T12:56:07.000Z</time>
      </trkpt>
      <trkpt lat="44.10239" lon="6.82285">
        <ele>1198.4000244141</ele>
        <time>2020-09-05T12:56:11.000Z</time>
      </trkpt>
      <trkpt lat="44.10227" lon="6.82286">
        <ele>1199</ele>
        <time>2020-09-05T12:56:16.000Z</time>
      </trkpt>
      <trkpt lat="44.1021" lon="6.82289">
        <ele>1199.1999511719</ele>
        <time>2020-09-05T12:56:22.000Z</time>
      </trkpt>
      <trkpt lat="44.10199" lon="6.82299">
        <ele>1198.8000488281</ele>
        <time>2020-09-05T12:56:26.000Z</time>
      </trkpt>
      <trkpt lat="44.10195" lon="6.82303">
        <ele>1198.5999755859</ele>
        <time>2020-09-05T12:56:28.000Z</time>
      </trkpt>
      <trkpt lat="44.1019" lon="6.82308">
        <ele>1198.8000488281</ele>
        <time>2020-09-05T12:56:30.000Z</time>
      </trkpt>
      <trkpt lat="44.1018" lon="6.82314">
        <ele>1199.1999511719</ele>
        <time>2020-09-05T12:56:34.000Z</time>
      </trkpt>
      <trkpt lat="44.10177" lon="6.82316">
        <ele>1199.4000244141</ele>
        <time>2020-09-05T12:56:35.000Z</time>
      </trkpt>
      <trkpt lat="44.10166" lon="6.82324">
        <ele>1199.4000244141</ele>
        <time>2020-09-05T12:56:39.000Z</time>
      </trkpt>
      <trkpt lat="44.10162" lon="6.82328">
        <ele>1199.4000244141</ele>
        <time>2020-09-05T12:56:40.000Z</time>
      </trkpt>
      <trkpt lat="44.10153" lon="6.82348">
        <ele>1198.8000488281</ele>
        <time>2020-09-05T12:56:43.000Z</time>
      </trkpt>
      <trkpt lat="44.10151" lon="6.82355">
        <ele>1198.4000244141</ele>
        <time>2020-09-05T12:56:44.000Z</time>
      </trkpt>
      <trkpt lat="44.10149" lon="6.82362">
        <ele>1198.1999511719</ele>
        <time>2020-09-05T12:56:45.000Z</time>
      </trkpt>
      <trkpt lat="44.10149" lon="6.82367">
        <ele>1197.8000488281</ele>
        <time>2020-09-05T12:56:46.000Z</time>
      </trkpt>
      <trkpt lat="44.10148" lon="6.82373">
        <ele>1197.4000244141</ele>
        <time>2020-09-05T12:56:47.000Z</time>
      </trkpt>
      <trkpt lat="44.10148" lon="6.82384">
        <ele>1197.4000244141</ele>
        <time>2020-09-05T12:56:51.000Z</time>
      </trkpt>
      <trkpt lat="44.10148" lon="6.824">
        <ele>1198.8000488281</ele>
        <time>2020-09-05T12:56:58.000Z</time>
      </trkpt>
      <trkpt lat="44.10148" lon="6.82402">
        <ele>1199.1999511719</ele>
        <time>2020-09-05T12:56:59.000Z</time>
      </trkpt>
      <trkpt lat="44.10149" lon="6.82404">
        <ele>1199.5999755859</ele>
        <time>2020-09-05T12:57:00.000Z</time>
      </trkpt>
      <trkpt lat="44.10151" lon="6.82409">
        <ele>1200.1999511719</ele>
        <time>2020-09-05T12:57:02.000Z</time>
      </trkpt>
      <trkpt lat="44.10151" lon="6.82412">
        <ele>1200.4000244141</ele>
        <time>2020-09-05T12:57:03.000Z</time>
      </trkpt>
      <trkpt lat="44.10152" lon="6.82418">
        <ele>1200.5999755859</ele>
        <time>2020-09-05T12:57:05.000Z</time>
      </trkpt>
      <trkpt lat="44.10152" lon="6.82434">
        <ele>1201.1999511719</ele>
        <time>2020-09-05T12:57:10.000Z</time>
      </trkpt>
      <trkpt lat="44.10151" lon="6.82438">
        <ele>1201.1999511719</ele>
        <time>2020-09-05T12:57:11.000Z</time>
      </trkpt>
      <trkpt lat="44.1015" lon="6.82451">
        <ele>1202.1999511719</ele>
        <time>2020-09-05T12:57:15.000Z</time>
      </trkpt>
      <trkpt lat="44.10147" lon="6.82473">
        <ele>1202.4000244141</ele>
        <time>2020-09-05T12:57:21.000Z</time>
      </trkpt>
      <trkpt lat="44.10145" lon="6.82483">
        <ele>1201.8000488281</ele>
        <time>2020-09-05T12:57:26.000Z</time>
      </trkpt>
      <trkpt lat="44.10145" lon="6.82483">
        <ele>1201.1999511719</ele>
        <time>2020-09-05T12:57:33.000Z</time>
      </trkpt>
      <trkpt lat="44.10146" lon="6.82484">
        <ele>1201</ele>
        <time>2020-09-05T12:57:41.000Z</time>
      </trkpt>
      <trkpt lat="44.10146" lon="6.82484">
        <ele>1200.5999755859</ele>
        <time>2020-09-05T12:57:50.000Z</time>
      </trkpt>
      <trkpt lat="44.10146" lon="6.82484">
        <ele>1200.5999755859</ele>
        <time>2020-09-05T12:58:03.000Z</time>
      </trkpt>
      <trkpt lat="44.10147" lon="6.82487">
        <ele>1200.8000488281</ele>
        <time>2020-09-05T12:58:11.000Z</time>
      </trkpt>
      <trkpt lat="44.10146" lon="6.82486">
        <ele>1200.1999511719</ele>
        <time>2020-09-05T12:58:16.000Z</time>
      </trkpt>
      <trkpt lat="44.10145" lon="6.82487">
        <ele>1200</ele>
        <time>2020-09-05T12:58:23.000Z</time>
      </trkpt>
      <trkpt lat="44.10143" lon="6.82488">
        <ele>1199.5999755859</ele>
        <time>2020-09-05T12:58:38.000Z</time>
      </trkpt>
      <trkpt lat="44.10143" lon="6.82489">
        <ele>1198.8000488281</ele>
        <time>2020-09-05T12:58:44.000Z</time>
      </trkpt>
      <trkpt lat="44.10142" lon="6.82489">
        <ele>1198.4000244141</ele>
        <time>2020-09-05T12:58:47.000Z</time>
      </trkpt>
      <trkpt lat="44.1014" lon="6.82489">
        <ele>1199</ele>
        <time>2020-09-05T12:58:53.000Z</time>
      </trkpt>
      <trkpt lat="44.1014" lon="6.8249">
        <ele>1200</ele>
        <time>2020-09-05T12:58:55.000Z</time>
      </trkpt>
      <trkpt lat="44.10143" lon="6.82492">
        <ele>1200.5999755859</ele>
        <time>2020-09-05T12:59:03.000Z</time>
      </trkpt>
      <trkpt lat="44.10143" lon="6.82493">
        <ele>1200.8000488281</ele>
        <time>2020-09-05T12:59:18.000Z</time>
      </trkpt>
      <trkpt lat="44.10146" lon="6.82494">
        <ele>1200.1999511719</ele>
        <time>2020-09-05T12:59:36.000Z</time>
      </trkpt>
      <trkpt lat="44.10146" lon="6.82497">
        <ele>1199.8000488281</ele>
        <time>2020-09-05T12:59:58.000Z</time>
      </trkpt>
      <trkpt lat="44.10145" lon="6.82496">
        <ele>1200.1999511719</ele>
        <time>2020-09-05T13:00:10.000Z</time>
      </trkpt>
      <trkpt lat="44.10147" lon="6.82495">
        <ele>1200.1999511719</ele>
        <time>2020-09-05T13:00:24.000Z</time>
      </trkpt>
      <trkpt lat="44.1015" lon="6.82495">
        <ele>1200.5999755859</ele>
        <time>2020-09-05T13:00:31.000Z</time>
      </trkpt>
      <trkpt lat="44.10152" lon="6.82494">
        <ele>1200.1999511719</ele>
        <time>2020-09-05T13:00:43.000Z</time>
      </trkpt>
      <trkpt lat="44.10151" lon="6.82493">
        <ele>1200.4000244141</ele>
        <time>2020-09-05T13:00:53.000Z</time>
      </trkpt>
      <trkpt lat="44.10146" lon="6.82491">
        <ele>1200.5999755859</ele>
        <time>2020-09-05T13:01:13.000Z</time>
      </trkpt>
      <trkpt lat="44.10145" lon="6.82489">
        <ele>1200.5999755859</ele>
        <time>2020-09-05T13:01:32.000Z</time>
      </trkpt>
      <trkpt lat="44.10144" lon="6.82488">
        <ele>1201</ele>
        <time>2020-09-05T13:01:54.000Z</time>
      </trkpt>
      <trkpt lat="44.10144" lon="6.82488">
        <ele>1201</ele>
        <time>2020-09-05T13:01:55.000Z</time>
      </trkpt>
      <trkpt lat="44.10143" lon="6.82488">
        <ele>1201</ele>
        <time>2020-09-05T13:02:04.000Z</time>
      </trkpt>
      <trkpt lat="44.10143" lon="6.82488">
        <ele>1201.1999511719</ele>
        <time>2020-09-05T13:02:14.000Z</time>
      </trkpt>
      <trkpt lat="44.10142" lon="6.82488">
        <ele>1201</ele>
        <time>2020-09-05T13:02:21.000Z</time>
      </trkpt>
      <trkpt lat="44.1014" lon="6.82487">
        <ele>1201</ele>
        <time>2020-09-05T13:02:30.000Z</time>
      </trkpt>
      <trkpt lat="44.10141" lon="6.82487">
        <ele>1201.4000244141</ele>
        <time>2020-09-05T13:02:46.000Z</time>
      </trkpt>
      <trkpt lat="44.10143" lon="6.82488">
        <ele>1201.4000244141</ele>
        <time>2020-09-05T13:02:54.000Z</time>
      </trkpt>
      <trkpt lat="44.10145" lon="6.82489">
        <ele>1201.4000244141</ele>
        <time>2020-09-05T13:03:03.000Z</time>
      </trkpt>
      <trkpt lat="44.10146" lon="6.82489">
        <ele>1201.4000244141</ele>
        <time>2020-09-05T13:03:16.000Z</time>
      </trkpt>
      <trkpt lat="44.10146" lon="6.8249">
        <ele>1201</ele>
        <time>2020-09-05T13:03:34.000Z</time>
      </trkpt>
      <trkpt lat="44.10145" lon="6.8249">
        <ele>1201</ele>
        <time>2020-09-05T13:03:48.000Z</time>
      </trkpt>
      <trkpt lat="44.10145" lon="6.8249">
        <ele>1201</ele>
        <time>2020-09-05T13:04:04.000Z</time>
      </trkpt>
      <trkpt lat="44.10143" lon="6.8249">
        <ele>1200.8000488281</ele>
        <time>2020-09-05T13:04:12.000Z</time>
      </trkpt>
      <trkpt lat="44.10143" lon="6.8249">
        <ele>1200.8000488281</ele>
        <time>2020-09-05T13:04:21.000Z</time>
      </trkpt>
      <trkpt lat="44.10143" lon="6.8249">
        <ele>1201.4000244141</ele>
        <time>2020-09-05T13:04:30.000Z</time>
      </trkpt>
      <trkpt lat="44.10142" lon="6.8249">
        <ele>1201.1999511719</ele>
        <time>2020-09-05T13:04:38.000Z</time>
      </trkpt>
      <trkpt lat="44.10144" lon="6.8249">
        <ele>1201.1999511719</ele>
        <time>2020-09-05T13:04:43.000Z</time>
      </trkpt>
      <trkpt lat="44.10145" lon="6.8249">
        <ele>1201.4000244141</ele>
        <time>2020-09-05T13:04:52.000Z</time>
      </trkpt>
      <trkpt lat="44.10146" lon="6.82491">
        <ele>1201.4000244141</ele>
        <time>2020-09-05T13:05:01.000Z</time>
      </trkpt>
      <trkpt lat="44.10145" lon="6.82491">
        <ele>1201</ele>
        <time>2020-09-05T13:05:09.000Z</time>
      </trkpt>
      <trkpt lat="44.10147" lon="6.82491">
        <ele>1201</ele>
        <time>2020-09-05T13:05:17.000Z</time>
      </trkpt>
      <trkpt lat="44.10146" lon="6.82491">
        <ele>1200.8000488281</ele>
        <time>2020-09-05T13:05:28.000Z</time>
      </trkpt>
      <trkpt lat="44.10147" lon="6.82492">
        <ele>1201.1999511719</ele>
        <time>2020-09-05T13:05:38.000Z</time>
      </trkpt>
      <trkpt lat="44.10148" lon="6.82492">
        <ele>1201.1999511719</ele>
        <time>2020-09-05T13:05:50.000Z</time>
      </trkpt>
      <trkpt lat="44.1015" lon="6.82492">
        <ele>1201.5999755859</ele>
        <time>2020-09-05T13:05:58.000Z</time>
      </trkpt>
      <trkpt lat="44.10149" lon="6.82494">
        <ele>1201.5999755859</ele>
        <time>2020-09-05T13:06:05.000Z</time>
      </trkpt>
      <trkpt lat="44.10148" lon="6.82495">
        <ele>1201.5999755859</ele>
        <time>2020-09-05T13:06:11.000Z</time>
      </trkpt>
      <trkpt lat="44.10155" lon="6.82497">
        <ele>1201.5999755859</ele>
        <time>2020-09-05T13:06:21.000Z</time>
      </trkpt>
      <trkpt lat="44.10155" lon="6.82497">
        <ele>1201.1999511719</ele>
        <time>2020-09-05T13:06:29.000Z</time>
      </trkpt>
      <trkpt lat="44.10153" lon="6.82496">
        <ele>1201.5999755859</ele>
        <time>2020-09-05T13:06:41.000Z</time>
      </trkpt>
      <trkpt lat="44.10151" lon="6.82495">
        <ele>1202</ele>
        <time>2020-09-05T13:06:58.000Z</time>
      </trkpt>
      <trkpt lat="44.1015" lon="6.82495">
        <ele>1202</ele>
        <time>2020-09-05T13:07:13.000Z</time>
      </trkpt>
      <trkpt lat="44.10148" lon="6.82494">
        <ele>1201.8000488281</ele>
        <time>2020-09-05T13:07:21.000Z</time>
      </trkpt>
      <trkpt lat="44.10148" lon="6.82494">
        <ele>1201.8000488281</ele>
        <time>2020-09-05T13:07:32.000Z</time>
      </trkpt>
      <trkpt lat="44.10147" lon="6.82493">
        <ele>1201.8000488281</ele>
        <time>2020-09-05T13:07:42.000Z</time>
      </trkpt>
      <trkpt lat="44.10148" lon="6.82493">
        <ele>1201.4000244141</ele>
        <time>2020-09-05T13:07:51.000Z</time>
      </trkpt>
      <trkpt lat="44.10148" lon="6.82492">
        <ele>1201.5999755859</ele>
        <time>2020-09-05T13:08:02.000Z</time>
      </trkpt>
      <trkpt lat="44.10149" lon="6.82492">
        <ele>1201.5999755859</ele>
        <time>2020-09-05T13:08:10.000Z</time>
      </trkpt>
      <trkpt lat="44.10147" lon="6.82491">
        <ele>1201.5999755859</ele>
        <time>2020-09-05T13:08:18.000Z</time>
      </trkpt>
      <trkpt lat="44.10146" lon="6.8249">
        <ele>1201.4000244141</ele>
        <time>2020-09-05T13:08:29.000Z</time>
      </trkpt>
      <trkpt lat="44.10144" lon="6.8249">
        <ele>1201.5999755859</ele>
        <time>2020-09-05T13:08:38.000Z</time>
      </trkpt>
      <trkpt lat="44.10145" lon="6.8249">
        <ele>1201.4000244141</ele>
        <time>2020-09-05T13:08:46.000Z</time>
      </trkpt>
      <trkpt lat="44.10143" lon="6.8249">
        <ele>1201.4000244141</ele>
        <time>2020-09-05T13:08:55.000Z</time>
      </trkpt>
      <trkpt lat="44.10145" lon="6.8249">
        <ele>1201.8000488281</ele>
        <time>2020-09-05T13:09:06.000Z</time>
      </trkpt>
      <trkpt lat="44.10145" lon="6.8249">
        <ele>1201.8000488281</ele>
        <time>2020-09-05T13:09:13.000Z</time>
      </trkpt>
      <trkpt lat="44.10146" lon="6.8249">
        <ele>1202.1999511719</ele>
        <time>2020-09-05T13:09:22.000Z</time>
      </trkpt>
      <trkpt lat="44.10146" lon="6.8249">
        <ele>1201.8000488281</ele>
        <time>2020-09-05T13:09:39.000Z</time>
      </trkpt>
      <trkpt lat="44.10144" lon="6.82488">
        <ele>1202</ele>
        <time>2020-09-05T13:09:57.000Z</time>
      </trkpt>
      <trkpt lat="44.10142" lon="6.82487">
        <ele>1201.8000488281</ele>
        <time>2020-09-05T13:10:12.000Z</time>
      </trkpt>
      <trkpt lat="44.10144" lon="6.82487">
        <ele>1201.8000488281</ele>
        <time>2020-09-05T13:10:29.000Z</time>
      </trkpt>
      <trkpt lat="44.10146" lon="6.82488">
        <ele>1201.8000488281</ele>
        <time>2020-09-05T13:10:45.000Z</time>
      </trkpt>
      <trkpt lat="44.10148" lon="6.82489">
        <ele>1201.5999755859</ele>
        <time>2020-09-05T13:10:57.000Z</time>
      </trkpt>
      <trkpt lat="44.10147" lon="6.82489">
        <ele>1202.1999511719</ele>
        <time>2020-09-05T13:11:11.000Z</time>
      </trkpt>
      <trkpt lat="44.10147" lon="6.82489">
        <ele>1202.4000244141</ele>
        <time>2020-09-05T13:11:24.000Z</time>
      </trkpt>
      <trkpt lat="44.10147" lon="6.82489">
        <ele>1202.1999511719</ele>
        <time>2020-09-05T13:11:34.000Z</time>
      </trkpt>
      <trkpt lat="44.10147" lon="6.82489">
        <ele>1202.1999511719</ele>
        <time>2020-09-05T13:11:48.000Z</time>
      </trkpt>
      <trkpt lat="44.10148" lon="6.8249">
        <ele>1202.4000244141</ele>
        <time>2020-09-05T13:12:06.000Z</time>
      </trkpt>
      <trkpt lat="44.10146" lon="6.82488">
        <ele>1202.1999511719</ele>
        <time>2020-09-05T13:12:23.000Z</time>
      </trkpt>
      <trkpt lat="44.10144" lon="6.82487">
        <ele>1202.1999511719</ele>
        <time>2020-09-05T13:12:34.000Z</time>
      </trkpt>
      <trkpt lat="44.10144" lon="6.82487">
        <ele>1202.8000488281</ele>
        <time>2020-09-05T13:12:47.000Z</time>
      </trkpt>
      <trkpt lat="44.10143" lon="6.82487">
        <ele>1202</ele>
        <time>2020-09-05T13:12:58.000Z</time>
      </trkpt>
      <trkpt lat="44.10141" lon="6.82489">
        <ele>1202.4000244141</ele>
        <time>2020-09-05T13:13:07.000Z</time>
      </trkpt>
      <trkpt lat="44.1014" lon="6.8249">
        <ele>1202.1999511719</ele>
        <time>2020-09-05T13:13:18.000Z</time>
      </trkpt>
      <trkpt lat="44.1014" lon="6.8249">
        <ele>1202.1999511719</ele>
        <time>2020-09-05T13:13:23.000Z</time>
      </trkpt>
      <trkpt lat="44.10139" lon="6.8249">
        <ele>1203</ele>
        <time>2020-09-05T13:13:30.000Z</time>
      </trkpt>
      <trkpt lat="44.10139" lon="6.82489">
        <ele>1203</ele>
        <time>2020-09-05T13:13:40.000Z</time>
      </trkpt>
      <trkpt lat="44.10139" lon="6.82488">
        <ele>1202.8000488281</ele>
        <time>2020-09-05T13:13:58.000Z</time>
      </trkpt>
      <trkpt lat="44.10142" lon="6.82488">
        <ele>1202.8000488281</ele>
        <time>2020-09-05T13:14:10.000Z</time>
      </trkpt>
      <trkpt lat="44.10143" lon="6.82488">
        <ele>1202.5999755859</ele>
        <time>2020-09-05T13:14:17.000Z</time>
      </trkpt>
      <trkpt lat="44.10144" lon="6.82488">
        <ele>1202.8000488281</ele>
        <time>2020-09-05T13:14:26.000Z</time>
      </trkpt>
      <trkpt lat="44.10142" lon="6.82486">
        <ele>1202.8000488281</ele>
        <time>2020-09-05T13:14:34.000Z</time>
      </trkpt>
      <trkpt lat="44.10142" lon="6.82485">
        <ele>1203.1999511719</ele>
        <time>2020-09-05T13:14:39.000Z</time>
      </trkpt>
      <trkpt lat="44.10142" lon="6.82486">
        <ele>1203.1999511719</ele>
        <time>2020-09-05T13:14:49.000Z</time>
      </trkpt>
      <trkpt lat="44.10143" lon="6.82485">
        <ele>1203.4000244141</ele>
        <time>2020-09-05T13:15:06.000Z</time>
      </trkpt>
      <trkpt lat="44.10143" lon="6.82484">
        <ele>1203.8000488281</ele>
        <time>2020-09-05T13:15:21.000Z</time>
      </trkpt>
      <trkpt lat="44.10143" lon="6.82484">
        <ele>1203.8000488281</ele>
        <time>2020-09-05T13:15:31.000Z</time>
      </trkpt>
      <trkpt lat="44.10144" lon="6.82485">
        <ele>1203.5999755859</ele>
        <time>2020-09-05T13:15:40.000Z</time>
      </trkpt>
      <trkpt lat="44.10148" lon="6.82486">
        <ele>1203.5999755859</ele>
        <time>2020-09-05T13:15:53.000Z</time>
      </trkpt>
      <trkpt lat="44.10152" lon="6.82488">
        <ele>1203.5999755859</ele>
        <time>2020-09-05T13:16:11.000Z</time>
      </trkpt>
      <trkpt lat="44.10153" lon="6.82489">
        <ele>1203.5999755859</ele>
        <time>2020-09-05T13:16:22.000Z</time>
      </trkpt>
      <trkpt lat="44.10154" lon="6.82491">
        <ele>1203.4000244141</ele>
        <time>2020-09-05T13:16:31.000Z</time>
      </trkpt>
      <trkpt lat="44.10155" lon="6.82491">
        <ele>1203.4000244141</ele>
        <time>2020-09-05T13:16:32.000Z</time>
      </trkpt>
      <trkpt lat="44.10157" lon="6.82491">
        <ele>1203</ele>
        <time>2020-09-05T13:16:37.000Z</time>
      </trkpt>
      <trkpt lat="44.10156" lon="6.8249">
        <ele>1203</ele>
        <time>2020-09-05T13:16:48.000Z</time>
      </trkpt>
      <trkpt lat="44.10157" lon="6.8249">
        <ele>1203.4000244141</ele>
        <time>2020-09-05T13:16:56.000Z</time>
      </trkpt>
      <trkpt lat="44.10156" lon="6.8249">
        <ele>1203.4000244141</ele>
        <time>2020-09-05T13:17:04.000Z</time>
      </trkpt>
      <trkpt lat="44.10156" lon="6.82491">
        <ele>1203.5999755859</ele>
        <time>2020-09-05T13:17:10.000Z</time>
      </trkpt>
      <trkpt lat="44.1016" lon="6.82493">
        <ele>1203</ele>
        <time>2020-09-05T13:17:16.000Z</time>
      </trkpt>
      <trkpt lat="44.10161" lon="6.82496">
        <ele>1202</ele>
        <time>2020-09-05T13:17:22.000Z</time>
      </trkpt>
      <trkpt lat="44.1016" lon="6.82496">
        <ele>1202</ele>
        <time>2020-09-05T13:17:23.000Z</time>
      </trkpt>
      <trkpt lat="44.10161" lon="6.82497">
        <ele>1202</ele>
        <time>2020-09-05T13:17:29.000Z</time>
      </trkpt>
      <trkpt lat="44.10162" lon="6.82498">
        <ele>1201.8000488281</ele>
        <time>2020-09-05T13:17:37.000Z</time>
      </trkpt>
      <trkpt lat="44.10164" lon="6.82499">
        <ele>1202</ele>
        <time>2020-09-05T13:17:50.000Z</time>
      </trkpt>
      <trkpt lat="44.10164" lon="6.825">
        <ele>1202</ele>
        <time>2020-09-05T13:18:01.000Z</time>
      </trkpt>
      <trkpt lat="44.1017" lon="6.82502">
        <ele>1202.5999755859</ele>
        <time>2020-09-05T13:18:07.000Z</time>
      </trkpt>
      <trkpt lat="44.10171" lon="6.82503">
        <ele>1202</ele>
        <time>2020-09-05T13:18:12.000Z</time>
      </trkpt>
      <trkpt lat="44.1017" lon="6.82504">
        <ele>1201.4000244141</ele>
        <time>2020-09-05T13:18:26.000Z</time>
      </trkpt>
      <trkpt lat="44.10168" lon="6.82504">
        <ele>1201</ele>
        <time>2020-09-05T13:18:37.000Z</time>
      </trkpt>
      <trkpt lat="44.10166" lon="6.82502">
        <ele>1201.5999755859</ele>
        <time>2020-09-05T13:18:42.000Z</time>
      </trkpt>
      <trkpt lat="44.1016" lon="6.82501">
        <ele>1202.1999511719</ele>
        <time>2020-09-05T13:18:50.000Z</time>
      </trkpt>
      <trkpt lat="44.10159" lon="6.82499">
        <ele>1201.8000488281</ele>
        <time>2020-09-05T13:18:55.000Z</time>
      </trkpt>
      <trkpt lat="44.10157" lon="6.82499">
        <ele>1201.5999755859</ele>
        <time>2020-09-05T13:18:59.000Z</time>
      </trkpt>
      <trkpt lat="44.10153" lon="6.82499">
        <ele>1201.8000488281</ele>
        <time>2020-09-05T13:19:04.000Z</time>
      </trkpt>
      <trkpt lat="44.10153" lon="6.82499">
        <ele>1201.8000488281</ele>
        <time>2020-09-05T13:19:05.000Z</time>
      </trkpt>
      <trkpt lat="44.10148" lon="6.82497">
        <ele>1202.1999511719</ele>
        <time>2020-09-05T13:19:11.000Z</time>
      </trkpt>
      <trkpt lat="44.10147" lon="6.82496">
        <ele>1202.4000244141</ele>
        <time>2020-09-05T13:19:13.000Z</time>
      </trkpt>
      <trkpt lat="44.10145" lon="6.82494">
        <ele>1202.8000488281</ele>
        <time>2020-09-05T13:19:18.000Z</time>
      </trkpt>
      <trkpt lat="44.10145" lon="6.82493">
        <ele>1203</ele>
        <time>2020-09-05T13:19:28.000Z</time>
      </trkpt>
      <trkpt lat="44.10146" lon="6.82492">
        <ele>1203</ele>
        <time>2020-09-05T13:19:32.000Z</time>
      </trkpt>
      <trkpt lat="44.10145" lon="6.82491">
        <ele>1203.1999511719</ele>
        <time>2020-09-05T13:19:39.000Z</time>
      </trkpt>
      <trkpt lat="44.10145" lon="6.82491">
        <ele>1203.5999755859</ele>
        <time>2020-09-05T13:19:47.000Z</time>
      </trkpt>
      <trkpt lat="44.10144" lon="6.82494">
        <ele>1203.4000244141</ele>
        <time>2020-09-05T13:20:00.000Z</time>
      </trkpt>
      <trkpt lat="44.10142" lon="6.8251">
        <ele>1204</ele>
        <time>2020-09-05T13:20:06.000Z</time>
      </trkpt>
      <trkpt lat="44.10141" lon="6.82515">
        <ele>1204.4000244141</ele>
        <time>2020-09-05T13:20:08.000Z</time>
      </trkpt>
      <trkpt lat="44.1014" lon="6.82524">
        <ele>1205</ele>
        <time>2020-09-05T13:20:14.000Z</time>
      </trkpt>
      <trkpt lat="44.10139" lon="6.82525">
        <ele>1205</ele>
        <time>2020-09-05T13:20:15.000Z</time>
      </trkpt>
      <trkpt lat="44.10139" lon="6.82524">
        <ele>1204.8000488281</ele>
        <time>2020-09-05T13:20:21.000Z</time>
      </trkpt>
      <trkpt lat="44.10138" lon="6.82523">
        <ele>1204.5999755859</ele>
        <time>2020-09-05T13:20:39.000Z</time>
      </trkpt>
      <trkpt lat="44.10137" lon="6.82521">
        <ele>1204.5999755859</ele>
        <time>2020-09-05T13:21:00.000Z</time>
      </trkpt>
      <trkpt lat="44.10136" lon="6.82523">
        <ele>1204.1999511719</ele>
        <time>2020-09-05T13:21:14.000Z</time>
      </trkpt>
      <trkpt lat="44.10135" lon="6.82523">
        <ele>1204.4000244141</ele>
        <time>2020-09-05T13:21:19.000Z</time>
      </trkpt>
      <trkpt lat="44.10136" lon="6.82525">
        <ele>1204.4000244141</ele>
        <time>2020-09-05T13:21:28.000Z</time>
      </trkpt>
      <trkpt lat="44.10136" lon="6.82526">
        <ele>1204.4000244141</ele>
        <time>2020-09-05T13:21:40.000Z</time>
      </trkpt>
      <trkpt lat="44.10137" lon="6.82527">
        <ele>1204.4000244141</ele>
        <time>2020-09-05T13:21:53.000Z</time>
      </trkpt>
      <trkpt lat="44.10135" lon="6.82525">
        <ele>1204.5999755859</ele>
        <time>2020-09-05T13:22:00.000Z</time>
      </trkpt>
      <trkpt lat="44.10133" lon="6.82524">
        <ele>1204.5999755859</ele>
        <time>2020-09-05T13:22:01.000Z</time>
      </trkpt>
      <trkpt lat="44.10129" lon="6.82527">
        <ele>1205.1999511719</ele>
        <time>2020-09-05T13:22:05.000Z</time>
      </trkpt>
      <trkpt lat="44.10127" lon="6.82535">
        <ele>1206</ele>
        <time>2020-09-05T13:22:09.000Z</time>
      </trkpt>
      <trkpt lat="44.10126" lon="6.82537">
        <ele>1206.1999511719</ele>
        <time>2020-09-05T13:22:10.000Z</time>
      </trkpt>
      <trkpt lat="44.1012" lon="6.82543">
        <ele>1207.1999511719</ele>
        <time>2020-09-05T13:22:14.000Z</time>
      </trkpt>
      <trkpt lat="44.10119" lon="6.82544">
        <ele>1207.5999755859</ele>
        <time>2020-09-05T13:22:15.000Z</time>
      </trkpt>
      <trkpt lat="44.10118" lon="6.82547">
        <ele>1208.1999511719</ele>
        <time>2020-09-05T13:22:17.000Z</time>
      </trkpt>
      <trkpt lat="44.10116" lon="6.82548">
        <ele>1208.4000244141</ele>
        <time>2020-09-05T13:22:18.000Z</time>
      </trkpt>
      <trkpt lat="44.10114" lon="6.82552">
        <ele>1209</ele>
        <time>2020-09-05T13:22:20.000Z</time>
      </trkpt>
      <trkpt lat="44.10112" lon="6.82553">
        <ele>1209.5999755859</ele>
        <time>2020-09-05T13:22:21.000Z</time>
      </trkpt>
      <trkpt lat="44.10108" lon="6.82559">
        <ele>1210.8000488281</ele>
        <time>2020-09-05T13:22:24.000Z</time>
      </trkpt>
      <trkpt lat="44.10106" lon="6.8256">
        <ele>1211.1999511719</ele>
        <time>2020-09-05T13:22:25.000Z</time>
      </trkpt>
      <trkpt lat="44.10102" lon="6.82567">
        <ele>1212.1999511719</ele>
        <time>2020-09-05T13:22:29.000Z</time>
      </trkpt>
      <trkpt lat="44.10098" lon="6.82569">
        <ele>1212.8000488281</ele>
        <time>2020-09-05T13:22:31.000Z</time>
      </trkpt>
      <trkpt lat="44.10094" lon="6.82571">
        <ele>1213.4000244141</ele>
        <time>2020-09-05T13:22:33.000Z</time>
      </trkpt>
      <trkpt lat="44.10092" lon="6.82572">
        <ele>1213.5999755859</ele>
        <time>2020-09-05T13:22:35.000Z</time>
      </trkpt>
      <trkpt lat="44.10088" lon="6.82575">
        <ele>1214</ele>
        <time>2020-09-05T13:22:37.000Z</time>
      </trkpt>
      <trkpt lat="44.10085" lon="6.82578">
        <ele>1214.4000244141</ele>
        <time>2020-09-05T13:22:39.000Z</time>
      </trkpt>
      <trkpt lat="44.10081" lon="6.82583">
        <ele>1215.1999511719</ele>
        <time>2020-09-05T13:22:42.000Z</time>
      </trkpt>
      <trkpt lat="44.10079" lon="6.82584">
        <ele>1215.5999755859</ele>
        <time>2020-09-05T13:22:43.000Z</time>
      </trkpt>
      <trkpt lat="44.10079" lon="6.82586">
        <ele>1215.8000488281</ele>
        <time>2020-09-05T13:22:44.000Z</time>
      </trkpt>
      <trkpt lat="44.10075" lon="6.82593">
        <ele>1216.4000244141</ele>
        <time>2020-09-05T13:22:47.000Z</time>
      </trkpt>
      <trkpt lat="44.10071" lon="6.82597">
        <ele>1216.5999755859</ele>
        <time>2020-09-05T13:22:49.000Z</time>
      </trkpt>
      <trkpt lat="44.10067" lon="6.82602">
        <ele>1217.1999511719</ele>
        <time>2020-09-05T13:22:52.000Z</time>
      </trkpt>
      <trkpt lat="44.1006" lon="6.82604">
        <ele>1217.8000488281</ele>
        <time>2020-09-05T13:22:55.000Z</time>
      </trkpt>
      <trkpt lat="44.10056" lon="6.82606">
        <ele>1218.1999511719</ele>
        <time>2020-09-05T13:22:57.000Z</time>
      </trkpt>
      <trkpt lat="44.10049" lon="6.82608">
        <ele>1218.8000488281</ele>
        <time>2020-09-05T13:23:00.000Z</time>
      </trkpt>
      <trkpt lat="44.10038" lon="6.82609">
        <ele>1219.4000244141</ele>
        <time>2020-09-05T13:23:04.000Z</time>
      </trkpt>
      <trkpt lat="44.10016" lon="6.82609">
        <ele>1219.8000488281</ele>
        <time>2020-09-05T13:23:12.000Z</time>
      </trkpt>
      <trkpt lat="44.10003" lon="6.82609">
        <ele>1220.8000488281</ele>
        <time>2020-09-05T13:23:17.000Z</time>
      </trkpt>
      <trkpt lat="44.09984" lon="6.8261">
        <ele>1222</ele>
        <time>2020-09-05T13:23:24.000Z</time>
      </trkpt>
      <trkpt lat="44.09971" lon="6.82613">
        <ele>1223</ele>
        <time>2020-09-05T13:23:29.000Z</time>
      </trkpt>
      <trkpt lat="44.09968" lon="6.82613">
        <ele>1223.1999511719</ele>
        <time>2020-09-05T13:23:30.000Z</time>
      </trkpt>
      <trkpt lat="44.09958" lon="6.82615">
        <ele>1224.1999511719</ele>
        <time>2020-09-05T13:23:34.000Z</time>
      </trkpt>
      <trkpt lat="44.09947" lon="6.82617">
        <ele>1225.1999511719</ele>
        <time>2020-09-05T13:23:38.000Z</time>
      </trkpt>
      <trkpt lat="44.09936" lon="6.8262">
        <ele>1226.1999511719</ele>
        <time>2020-09-05T13:23:42.000Z</time>
      </trkpt>
      <trkpt lat="44.09934" lon="6.82621">
        <ele>1226.4000244141</ele>
        <time>2020-09-05T13:23:43.000Z</time>
      </trkpt>
      <trkpt lat="44.0992" lon="6.82622">
        <ele>1227</ele>
        <time>2020-09-05T13:23:48.000Z</time>
      </trkpt>
      <trkpt lat="44.09907" lon="6.8262">
        <ele>1227.4000244141</ele>
        <time>2020-09-05T13:23:52.000Z</time>
      </trkpt>
      <trkpt lat="44.09901" lon="6.82621">
        <ele>1227.4000244141</ele>
        <time>2020-09-05T13:23:54.000Z</time>
      </trkpt>
      <trkpt lat="44.09891" lon="6.82627">
        <ele>1227.4000244141</ele>
        <time>2020-09-05T13:23:58.000Z</time>
      </trkpt>
      <trkpt lat="44.0989" lon="6.82629">
        <ele>1227.4000244141</ele>
        <time>2020-09-05T13:23:59.000Z</time>
      </trkpt>
      <trkpt lat="44.09879" lon="6.82643">
        <ele>1228</ele>
        <time>2020-09-05T13:24:04.000Z</time>
      </trkpt>
      <trkpt lat="44.09877" lon="6.82647">
        <ele>1228.4000244141</ele>
        <time>2020-09-05T13:24:06.000Z</time>
      </trkpt>
      <trkpt lat="44.09874" lon="6.82653">
        <ele>1229</ele>
        <time>2020-09-05T13:24:08.000Z</time>
      </trkpt>
      <trkpt lat="44.09873" lon="6.82657">
        <ele>1229.5999755859</ele>
        <time>2020-09-05T13:24:10.000Z</time>
      </trkpt>
      <trkpt lat="44.09872" lon="6.82659">
        <ele>1229.8000488281</ele>
        <time>2020-09-05T13:24:11.000Z</time>
      </trkpt>
      <trkpt lat="44.09867" lon="6.82662">
        <ele>1230.1999511719</ele>
        <time>2020-09-05T13:24:13.000Z</time>
      </trkpt>
      <trkpt lat="44.09857" lon="6.82667">
        <ele>1230.5999755859</ele>
        <time>2020-09-05T13:24:17.000Z</time>
      </trkpt>
      <trkpt lat="44.09856" lon="6.82668">
        <ele>1230.8000488281</ele>
        <time>2020-09-05T13:24:18.000Z</time>
      </trkpt>
      <trkpt lat="44.09847" lon="6.82674">
        <ele>1231.4000244141</ele>
        <time>2020-09-05T13:24:21.000Z</time>
      </trkpt>
      <trkpt lat="44.09845" lon="6.82675">
        <ele>1231.5999755859</ele>
        <time>2020-09-05T13:24:22.000Z</time>
      </trkpt>
      <trkpt lat="44.09843" lon="6.82677">
        <ele>1231.8000488281</ele>
        <time>2020-09-05T13:24:23.000Z</time>
      </trkpt>
      <trkpt lat="44.09834" lon="6.8268">
        <ele>1232.1999511719</ele>
        <time>2020-09-05T13:24:26.000Z</time>
      </trkpt>
      <trkpt lat="44.09816" lon="6.82692">
        <ele>1232.5999755859</ele>
        <time>2020-09-05T13:24:32.000Z</time>
      </trkpt>
      <trkpt lat="44.09803" lon="6.82691">
        <ele>1232.1999511719</ele>
        <time>2020-09-05T13:24:36.000Z</time>
      </trkpt>
      <trkpt lat="44.09793" lon="6.82682">
        <ele>1231.5999755859</ele>
        <time>2020-09-05T13:24:40.000Z</time>
      </trkpt>
      <trkpt lat="44.09788" lon="6.82685">
        <ele>1231.1999511719</ele>
        <time>2020-09-05T13:24:42.000Z</time>
      </trkpt>
      <trkpt lat="44.09784" lon="6.82689">
        <ele>1231</ele>
        <time>2020-09-05T13:24:44.000Z</time>
      </trkpt>
      <trkpt lat="44.09782" lon="6.82697">
        <ele>1231.1999511719</ele>
        <time>2020-09-05T13:24:47.000Z</time>
      </trkpt>
      <trkpt lat="44.09781" lon="6.82703">
        <ele>1231.8000488281</ele>
        <time>2020-09-05T13:24:49.000Z</time>
      </trkpt>
      <trkpt lat="44.0978" lon="6.8271">
        <ele>1233</ele>
        <time>2020-09-05T13:24:51.000Z</time>
      </trkpt>
      <trkpt lat="44.09779" lon="6.82711">
        <ele>1233.5999755859</ele>
        <time>2020-09-05T13:24:52.000Z</time>
      </trkpt>
      <trkpt lat="44.09778" lon="6.82714">
        <ele>1234</ele>
        <time>2020-09-05T13:24:53.000Z</time>
      </trkpt>
      <trkpt lat="44.09779" lon="6.82723">
        <ele>1235.4000244141</ele>
        <time>2020-09-05T13:24:56.000Z</time>
      </trkpt>
      <trkpt lat="44.09779" lon="6.82727">
        <ele>1235.5999755859</ele>
        <time>2020-09-05T13:24:57.000Z</time>
      </trkpt>
      <trkpt lat="44.09779" lon="6.82733">
        <ele>1236.4000244141</ele>
        <time>2020-09-05T13:24:59.000Z</time>
      </trkpt>
      <trkpt lat="44.09779" lon="6.82738">
        <ele>1237.5999755859</ele>
        <time>2020-09-05T13:25:01.000Z</time>
      </trkpt>
      <trkpt lat="44.09779" lon="6.82742">
        <ele>1239</ele>
        <time>2020-09-05T13:25:03.000Z</time>
      </trkpt>
      <trkpt lat="44.09776" lon="6.82746">
        <ele>1240</ele>
        <time>2020-09-05T13:25:05.000Z</time>
      </trkpt>
      <trkpt lat="44.09775" lon="6.82747">
        <ele>1240.4000244141</ele>
        <time>2020-09-05T13:25:06.000Z</time>
      </trkpt>
      <trkpt lat="44.09774" lon="6.82748">
        <ele>1240.8000488281</ele>
        <time>2020-09-05T13:25:07.000Z</time>
      </trkpt>
      <trkpt lat="44.0977" lon="6.82748">
        <ele>1241.1999511719</ele>
        <time>2020-09-05T13:25:09.000Z</time>
      </trkpt>
      <trkpt lat="44.09767" lon="6.82751">
        <ele>1241.5999755859</ele>
        <time>2020-09-05T13:25:11.000Z</time>
      </trkpt>
      <trkpt lat="44.09766" lon="6.82752">
        <ele>1241.8000488281</ele>
        <time>2020-09-05T13:25:12.000Z</time>
      </trkpt>
      <trkpt lat="44.0976" lon="6.82755">
        <ele>1242.1999511719</ele>
        <time>2020-09-05T13:25:15.000Z</time>
      </trkpt>
      <trkpt lat="44.09756" lon="6.82758">
        <ele>1242.5999755859</ele>
        <time>2020-09-05T13:25:17.000Z</time>
      </trkpt>
      <trkpt lat="44.09752" lon="6.82765">
        <ele>1243.4000244141</ele>
        <time>2020-09-05T13:25:20.000Z</time>
      </trkpt>
      <trkpt lat="44.09749" lon="6.82768">
        <ele>1244.1999511719</ele>
        <time>2020-09-05T13:25:22.000Z</time>
      </trkpt>
      <trkpt lat="44.09749" lon="6.82769">
        <ele>1244.5999755859</ele>
        <time>2020-09-05T13:25:23.000Z</time>
      </trkpt>
      <trkpt lat="44.09747" lon="6.82769">
        <ele>1244.8000488281</ele>
        <time>2020-09-05T13:25:24.000Z</time>
      </trkpt>
      <trkpt lat="44.09745" lon="6.8277">
        <ele>1245.1999511719</ele>
        <time>2020-09-05T13:25:25.000Z</time>
      </trkpt>
      <trkpt lat="44.0974" lon="6.82772">
        <ele>1245.5999755859</ele>
        <time>2020-09-05T13:25:27.000Z</time>
      </trkpt>
      <trkpt lat="44.09734" lon="6.82775">
        <ele>1246.1999511719</ele>
        <time>2020-09-05T13:25:30.000Z</time>
      </trkpt>
      <trkpt lat="44.09727" lon="6.82779">
        <ele>1246.5999755859</ele>
        <time>2020-09-05T13:25:33.000Z</time>
      </trkpt>
      <trkpt lat="44.09722" lon="6.82782">
        <ele>1247</ele>
        <time>2020-09-05T13:25:35.000Z</time>
      </trkpt>
      <trkpt lat="44.09712" lon="6.82791">
        <ele>1247.5999755859</ele>
        <time>2020-09-05T13:25:40.000Z</time>
      </trkpt>
      <trkpt lat="44.0971" lon="6.82792">
        <ele>1247.8000488281</ele>
        <time>2020-09-05T13:25:41.000Z</time>
      </trkpt>
      <trkpt lat="44.09709" lon="6.82795">
        <ele>1248</ele>
        <time>2020-09-05T13:25:42.000Z</time>
      </trkpt>
      <trkpt lat="44.09701" lon="6.82802">
        <ele>1248.4000244141</ele>
        <time>2020-09-05T13:25:45.000Z</time>
      </trkpt>
      <trkpt lat="44.09698" lon="6.82804">
        <ele>1248.8000488281</ele>
        <time>2020-09-05T13:25:47.000Z</time>
      </trkpt>
      <trkpt lat="44.09694" lon="6.82809">
        <ele>1249</ele>
        <time>2020-09-05T13:25:49.000Z</time>
      </trkpt>
      <trkpt lat="44.09693" lon="6.82812">
        <ele>1249</ele>
        <time>2020-09-05T13:25:50.000Z</time>
      </trkpt>
      <trkpt lat="44.09688" lon="6.82819">
        <ele>1249.4000244141</ele>
        <time>2020-09-05T13:25:53.000Z</time>
      </trkpt>
      <trkpt lat="44.09685" lon="6.82824">
        <ele>1250</ele>
        <time>2020-09-05T13:25:55.000Z</time>
      </trkpt>
      <trkpt lat="44.09684" lon="6.82826">
        <ele>1250.4000244141</ele>
        <time>2020-09-05T13:25:56.000Z</time>
      </trkpt>
      <trkpt lat="44.09682" lon="6.8283">
        <ele>1250.8000488281</ele>
        <time>2020-09-05T13:25:57.000Z</time>
      </trkpt>
      <trkpt lat="44.0968" lon="6.82832">
        <ele>1251.1999511719</ele>
        <time>2020-09-05T13:25:58.000Z</time>
      </trkpt>
      <trkpt lat="44.09675" lon="6.8284">
        <ele>1252</ele>
        <time>2020-09-05T13:26:01.000Z</time>
      </trkpt>
      <trkpt lat="44.09672" lon="6.82844">
        <ele>1252.4000244141</ele>
        <time>2020-09-05T13:26:03.000Z</time>
      </trkpt>
      <trkpt lat="44.09666" lon="6.82848">
        <ele>1253</ele>
        <time>2020-09-05T13:26:05.000Z</time>
      </trkpt>
      <trkpt lat="44.09661" lon="6.82851">
        <ele>1253.5999755859</ele>
        <time>2020-09-05T13:26:07.000Z</time>
      </trkpt>
      <trkpt lat="44.09653" lon="6.82857">
        <ele>1254.4000244141</ele>
        <time>2020-09-05T13:26:10.000Z</time>
      </trkpt>
      <trkpt lat="44.0965" lon="6.82859">
        <ele>1254.8000488281</ele>
        <time>2020-09-05T13:26:11.000Z</time>
      </trkpt>
      <trkpt lat="44.09643" lon="6.82863">
        <ele>1255.8000488281</ele>
        <time>2020-09-05T13:26:14.000Z</time>
      </trkpt>
      <trkpt lat="44.09641" lon="6.82865">
        <ele>1256</ele>
        <time>2020-09-05T13:26:15.000Z</time>
      </trkpt>
      <trkpt lat="44.0963" lon="6.82871">
        <ele>1256.8000488281</ele>
        <time>2020-09-05T13:26:19.000Z</time>
      </trkpt>
      <trkpt lat="44.09628" lon="6.82873">
        <ele>1257</ele>
        <time>2020-09-05T13:26:20.000Z</time>
      </trkpt>
      <trkpt lat="44.09612" lon="6.82879">
        <ele>1257.4000244141</ele>
        <time>2020-09-05T13:26:25.000Z</time>
      </trkpt>
      <trkpt lat="44.096" lon="6.8289">
        <ele>1258</ele>
        <time>2020-09-05T13:26:30.000Z</time>
      </trkpt>
      <trkpt lat="44.09589" lon="6.82902">
        <ele>1259</ele>
        <time>2020-09-05T13:26:35.000Z</time>
      </trkpt>
      <trkpt lat="44.09584" lon="6.8291">
        <ele>1259.8000488281</ele>
        <time>2020-09-05T13:26:38.000Z</time>
      </trkpt>
      <trkpt lat="44.09583" lon="6.82914">
        <ele>1259.8000488281</ele>
        <time>2020-09-05T13:26:39.000Z</time>
      </trkpt>
      <trkpt lat="44.09581" lon="6.8292">
        <ele>1260.1999511719</ele>
        <time>2020-09-05T13:26:41.000Z</time>
      </trkpt>
      <trkpt lat="44.09576" lon="6.82922">
        <ele>1260.4000244141</ele>
        <time>2020-09-05T13:26:43.000Z</time>
      </trkpt>
      <trkpt lat="44.09564" lon="6.82927">
        <ele>1261.1999511719</ele>
        <time>2020-09-05T13:26:47.000Z</time>
      </trkpt>
      <trkpt lat="44.09558" lon="6.82942">
        <ele>1262</ele>
        <time>2020-09-05T13:26:51.000Z</time>
      </trkpt>
      <trkpt lat="44.09556" lon="6.82948">
        <ele>1262.4000244141</ele>
        <time>2020-09-05T13:26:53.000Z</time>
      </trkpt>
      <trkpt lat="44.09553" lon="6.82954">
        <ele>1263</ele>
        <time>2020-09-05T13:26:55.000Z</time>
      </trkpt>
      <trkpt lat="44.09551" lon="6.8296">
        <ele>1263.5999755859</ele>
        <time>2020-09-05T13:26:57.000Z</time>
      </trkpt>
      <trkpt lat="44.09548" lon="6.82964">
        <ele>1264</ele>
        <time>2020-09-05T13:26:58.000Z</time>
      </trkpt>
      <trkpt lat="44.09544" lon="6.82967">
        <ele>1264.1999511719</ele>
        <time>2020-09-05T13:26:59.000Z</time>
      </trkpt>
      <trkpt lat="44.09538" lon="6.82976">
        <ele>1264.8000488281</ele>
        <time>2020-09-05T13:27:03.000Z</time>
      </trkpt>
      <trkpt lat="44.09533" lon="6.82993">
        <ele>1265.4000244141</ele>
        <time>2020-09-05T13:27:08.000Z</time>
      </trkpt>
      <trkpt lat="44.09532" lon="6.82998">
        <ele>1265.5999755859</ele>
        <time>2020-09-05T13:27:09.000Z</time>
      </trkpt>
      <trkpt lat="44.09531" lon="6.83002">
        <ele>1266</ele>
        <time>2020-09-05T13:27:10.000Z</time>
      </trkpt>
      <trkpt lat="44.09527" lon="6.83011">
        <ele>1267.1999511719</ele>
        <time>2020-09-05T13:27:13.000Z</time>
      </trkpt>
      <trkpt lat="44.09518" lon="6.83025">
        <ele>1268.1999511719</ele>
        <time>2020-09-05T13:27:17.000Z</time>
      </trkpt>
      <trkpt lat="44.09517" lon="6.8303">
        <ele>1268.4000244141</ele>
        <time>2020-09-05T13:27:18.000Z</time>
      </trkpt>
      <trkpt lat="44.09515" lon="6.83031">
        <ele>1268.4000244141</ele>
        <time>2020-09-05T13:27:19.000Z</time>
      </trkpt>
      <trkpt lat="44.09508" lon="6.83041">
        <ele>1268.8000488281</ele>
        <time>2020-09-05T13:27:22.000Z</time>
      </trkpt>
      <trkpt lat="44.09502" lon="6.83045">
        <ele>1269</ele>
        <time>2020-09-05T13:27:24.000Z</time>
      </trkpt>
      <trkpt lat="44.09498" lon="6.83048">
        <ele>1269.4000244141</ele>
        <time>2020-09-05T13:27:25.000Z</time>
      </trkpt>
      <trkpt lat="44.09491" lon="6.83056">
        <ele>1270.4000244141</ele>
        <time>2020-09-05T13:27:28.000Z</time>
      </trkpt>
      <trkpt lat="44.09484" lon="6.83061">
        <ele>1271.8000488281</ele>
        <time>2020-09-05T13:27:31.000Z</time>
      </trkpt>
      <trkpt lat="44.09478" lon="6.83062">
        <ele>1272.5999755859</ele>
        <time>2020-09-05T13:27:33.000Z</time>
      </trkpt>
      <trkpt lat="44.09475" lon="6.83062">
        <ele>1273</ele>
        <time>2020-09-05T13:27:34.000Z</time>
      </trkpt>
      <trkpt lat="44.09464" lon="6.83069">
        <ele>1274.1999511719</ele>
        <time>2020-09-05T13:27:39.000Z</time>
      </trkpt>
      <trkpt lat="44.0946" lon="6.83078">
        <ele>1274.5999755859</ele>
        <time>2020-09-05T13:27:44.000Z</time>
      </trkpt>
      <trkpt lat="44.09462" lon="6.83081">
        <ele>1274.1999511719</ele>
        <time>2020-09-05T13:27:47.000Z</time>
      </trkpt>
      <trkpt lat="44.09464" lon="6.83082">
        <ele>1274.4000244141</ele>
        <time>2020-09-05T13:27:49.000Z</time>
      </trkpt>
      <trkpt lat="44.09468" lon="6.8309">
        <ele>1275.1999511719</ele>
        <time>2020-09-05T13:27:53.000Z</time>
      </trkpt>
      <trkpt lat="44.09469" lon="6.83093">
        <ele>1275.5999755859</ele>
        <time>2020-09-05T13:27:54.000Z</time>
      </trkpt>
      <trkpt lat="44.09473" lon="6.83098">
        <ele>1276.4000244141</ele>
        <time>2020-09-05T13:27:56.000Z</time>
      </trkpt>
      <trkpt lat="44.09478" lon="6.83106">
        <ele>1277.4000244141</ele>
        <time>2020-09-05T13:27:59.000Z</time>
      </trkpt>
      <trkpt lat="44.0948" lon="6.83109">
        <ele>1277.5999755859</ele>
        <time>2020-09-05T13:28:00.000Z</time>
      </trkpt>
      <trkpt lat="44.09488" lon="6.83114">
        <ele>1278.8000488281</ele>
        <time>2020-09-05T13:28:04.000Z</time>
      </trkpt>
      <trkpt lat="44.0949" lon="6.83116">
        <ele>1279</ele>
        <time>2020-09-05T13:28:05.000Z</time>
      </trkpt>
      <trkpt lat="44.09497" lon="6.83131">
        <ele>1279.5999755859</ele>
        <time>2020-09-05T13:28:10.000Z</time>
      </trkpt>
      <trkpt lat="44.09499" lon="6.83137">
        <ele>1279.8000488281</ele>
        <time>2020-09-05T13:28:12.000Z</time>
      </trkpt>
      <trkpt lat="44.09503" lon="6.83148">
        <ele>1280.4000244141</ele>
        <time>2020-09-05T13:28:15.000Z</time>
      </trkpt>
      <trkpt lat="44.09503" lon="6.83157">
        <ele>1281.1999511719</ele>
        <time>2020-09-05T13:28:18.000Z</time>
      </trkpt>
      <trkpt lat="44.09502" lon="6.83162">
        <ele>1281.5999755859</ele>
        <time>2020-09-05T13:28:19.000Z</time>
      </trkpt>
      <trkpt lat="44.09503" lon="6.83168">
        <ele>1282.8000488281</ele>
        <time>2020-09-05T13:28:21.000Z</time>
      </trkpt>
      <trkpt lat="44.09504" lon="6.83174">
        <ele>1283.5999755859</ele>
        <time>2020-09-05T13:28:23.000Z</time>
      </trkpt>
      <trkpt lat="44.09502" lon="6.83177">
        <ele>1284</ele>
        <time>2020-09-05T13:28:24.000Z</time>
      </trkpt>
      <trkpt lat="44.09503" lon="6.83187">
        <ele>1284.5999755859</ele>
        <time>2020-09-05T13:28:27.000Z</time>
      </trkpt>
      <trkpt lat="44.09505" lon="6.83194">
        <ele>1285</ele>
        <time>2020-09-05T13:28:29.000Z</time>
      </trkpt>
      <trkpt lat="44.09504" lon="6.83205">
        <ele>1285.5999755859</ele>
        <time>2020-09-05T13:28:32.000Z</time>
      </trkpt>
      <trkpt lat="44.09504" lon="6.83213">
        <ele>1286.1999511719</ele>
        <time>2020-09-05T13:28:34.000Z</time>
      </trkpt>
      <trkpt lat="44.09503" lon="6.83219">
        <ele>1286.8000488281</ele>
        <time>2020-09-05T13:28:36.000Z</time>
      </trkpt>
      <trkpt lat="44.09503" lon="6.83226">
        <ele>1287.4000244141</ele>
        <time>2020-09-05T13:28:38.000Z</time>
      </trkpt>
      <trkpt lat="44.09502" lon="6.83239">
        <ele>1288</ele>
        <time>2020-09-05T13:28:41.000Z</time>
      </trkpt>
      <trkpt lat="44.09498" lon="6.83249">
        <ele>1288.4000244141</ele>
        <time>2020-09-05T13:28:44.000Z</time>
      </trkpt>
      <trkpt lat="44.09495" lon="6.83255">
        <ele>1288.8000488281</ele>
        <time>2020-09-05T13:28:46.000Z</time>
      </trkpt>
      <trkpt lat="44.09488" lon="6.83264">
        <ele>1289</ele>
        <time>2020-09-05T13:28:50.000Z</time>
      </trkpt>
      <trkpt lat="44.09484" lon="6.83266">
        <ele>1289.1999511719</ele>
        <time>2020-09-05T13:28:51.000Z</time>
      </trkpt>
      <trkpt lat="44.09479" lon="6.8327">
        <ele>1289.5999755859</ele>
        <time>2020-09-05T13:28:53.000Z</time>
      </trkpt>
      <trkpt lat="44.09477" lon="6.83273">
        <ele>1289.5999755859</ele>
        <time>2020-09-05T13:28:54.000Z</time>
      </trkpt>
      <trkpt lat="44.09466" lon="6.83277">
        <ele>1290.1999511719</ele>
        <time>2020-09-05T13:28:58.000Z</time>
      </trkpt>
      <trkpt lat="44.09463" lon="6.83278">
        <ele>1290.4000244141</ele>
        <time>2020-09-05T13:28:59.000Z</time>
      </trkpt>
      <trkpt lat="44.09457" lon="6.83282">
        <ele>1290.5999755859</ele>
        <time>2020-09-05T13:29:01.000Z</time>
      </trkpt>
      <trkpt lat="44.09453" lon="6.83282">
        <ele>1290.8000488281</ele>
        <time>2020-09-05T13:29:03.000Z</time>
      </trkpt>
      <trkpt lat="44.09449" lon="6.83288">
        <ele>1290.8000488281</ele>
        <time>2020-09-05T13:29:07.000Z</time>
      </trkpt>
      <trkpt lat="44.0945" lon="6.83289">
        <ele>1290.8000488281</ele>
        <time>2020-09-05T13:29:08.000Z</time>
      </trkpt>
      <trkpt lat="44.09451" lon="6.8329">
        <ele>1290.1999511719</ele>
        <time>2020-09-05T13:29:11.000Z</time>
      </trkpt>
      <trkpt lat="44.09451" lon="6.83292">
        <ele>1289.5999755859</ele>
        <time>2020-09-05T13:29:16.000Z</time>
      </trkpt>
      <trkpt lat="44.09451" lon="6.83293">
        <ele>1289.4000244141</ele>
        <time>2020-09-05T13:29:18.000Z</time>
      </trkpt>
      <trkpt lat="44.09449" lon="6.83296">
        <ele>1289</ele>
        <time>2020-09-05T13:29:26.000Z</time>
      </trkpt>
      <trkpt lat="44.09447" lon="6.83303">
        <ele>1288.8000488281</ele>
        <time>2020-09-05T13:29:35.000Z</time>
      </trkpt>
      <trkpt lat="44.09442" lon="6.83308">
        <ele>1289</ele>
        <time>2020-09-05T13:29:46.000Z</time>
      </trkpt>
      <trkpt lat="44.09439" lon="6.83308">
        <ele>1289.1999511719</ele>
        <time>2020-09-05T13:29:54.000Z</time>
      </trkpt>
      <trkpt lat="44.0944" lon="6.83308">
        <ele>1289.1999511719</ele>
        <time>2020-09-05T13:30:00.000Z</time>
      </trkpt>
      <trkpt lat="44.0944" lon="6.83307">
        <ele>1289.1999511719</ele>
        <time>2020-09-05T13:30:02.000Z</time>
      </trkpt>
      <trkpt lat="44.09441" lon="6.83304">
        <ele>1289.8000488281</ele>
        <time>2020-09-05T13:30:09.000Z</time>
      </trkpt>
      <trkpt lat="44.09443" lon="6.83304">
        <ele>1289.4000244141</ele>
        <time>2020-09-05T13:30:16.000Z</time>
      </trkpt>
      <trkpt lat="44.09445" lon="6.83303">
        <ele>1289.1999511719</ele>
        <time>2020-09-05T13:30:26.000Z</time>
      </trkpt>
      <trkpt lat="44.09448" lon="6.83303">
        <ele>1289.1999511719</ele>
        <time>2020-09-05T13:30:40.000Z</time>
      </trkpt>
      <trkpt lat="44.09449" lon="6.83302">
        <ele>1289.1999511719</ele>
        <time>2020-09-05T13:30:51.000Z</time>
      </trkpt>
      <trkpt lat="44.09448" lon="6.83304">
        <ele>1289.5999755859</ele>
        <time>2020-09-05T13:30:58.000Z</time>
      </trkpt>
      <trkpt lat="44.09447" lon="6.83304">
        <ele>1289.5999755859</ele>
        <time>2020-09-05T13:31:07.000Z</time>
      </trkpt>
      <trkpt lat="44.09445" lon="6.83306">
        <ele>1289.8000488281</ele>
        <time>2020-09-05T13:31:16.000Z</time>
      </trkpt>
      <trkpt lat="44.09444" lon="6.83304">
        <ele>1289.4000244141</ele>
        <time>2020-09-05T13:31:25.000Z</time>
      </trkpt>
      <trkpt lat="44.09443" lon="6.83306">
        <ele>1289.4000244141</ele>
        <time>2020-09-05T13:31:32.000Z</time>
      </trkpt>
      <trkpt lat="44.09444" lon="6.83306">
        <ele>1289.8000488281</ele>
        <time>2020-09-05T13:31:40.000Z</time>
      </trkpt>
      <trkpt lat="44.09445" lon="6.83309">
        <ele>1289.8000488281</ele>
        <time>2020-09-05T13:31:51.000Z</time>
      </trkpt>
      <trkpt lat="44.09446" lon="6.8331">
        <ele>1289.5999755859</ele>
        <time>2020-09-05T13:32:00.000Z</time>
      </trkpt>
      <trkpt lat="44.09446" lon="6.83314">
        <ele>1289.4000244141</ele>
        <time>2020-09-05T13:32:10.000Z</time>
      </trkpt>
      <trkpt lat="44.09446" lon="6.83313">
        <ele>1289.8000488281</ele>
        <time>2020-09-05T13:32:17.000Z</time>
      </trkpt>
      <trkpt lat="44.09445" lon="6.83314">
        <ele>1290.4000244141</ele>
        <time>2020-09-05T13:32:26.000Z</time>
      </trkpt>
      <trkpt lat="44.09444" lon="6.83309">
        <ele>1290.1999511719</ele>
        <time>2020-09-05T13:32:35.000Z</time>
      </trkpt>
      <trkpt lat="44.09443" lon="6.83311">
        <ele>1289.8000488281</ele>
        <time>2020-09-05T13:32:42.000Z</time>
      </trkpt>
      <trkpt lat="44.09445" lon="6.83309">
        <ele>1289.8000488281</ele>
        <time>2020-09-05T13:32:50.000Z</time>
      </trkpt>
      <trkpt lat="44.09444" lon="6.83309">
        <ele>1289.8000488281</ele>
        <time>2020-09-05T13:32:57.000Z</time>
      </trkpt>
      <trkpt lat="44.09445" lon="6.83307">
        <ele>1289.8000488281</ele>
        <time>2020-09-05T13:33:04.000Z</time>
      </trkpt>
      <trkpt lat="44.09447" lon="6.83303">
        <ele>1289.5999755859</ele>
        <time>2020-09-05T13:33:18.000Z</time>
      </trkpt>
      <trkpt lat="44.09448" lon="6.83302">
        <ele>1289.8000488281</ele>
        <time>2020-09-05T13:33:28.000Z</time>
      </trkpt>
      <trkpt lat="44.09448" lon="6.83301">
        <ele>1289.5999755859</ele>
        <time>2020-09-05T13:33:34.000Z</time>
      </trkpt>
      <trkpt lat="44.09454" lon="6.833">
        <ele>1289.5999755859</ele>
        <time>2020-09-05T13:33:51.000Z</time>
      </trkpt>
      <trkpt lat="44.09455" lon="6.833">
        <ele>1289.8000488281</ele>
        <time>2020-09-05T13:34:00.000Z</time>
      </trkpt>
      <trkpt lat="44.09456" lon="6.83302">
        <ele>1290</ele>
        <time>2020-09-05T13:34:09.000Z</time>
      </trkpt>
      <trkpt lat="44.09457" lon="6.83302">
        <ele>1290</ele>
        <time>2020-09-05T13:34:16.000Z</time>
      </trkpt>
      <trkpt lat="44.09456" lon="6.83301">
        <ele>1290.1999511719</ele>
        <time>2020-09-05T13:34:24.000Z</time>
      </trkpt>
      <trkpt lat="44.09463" lon="6.83304">
        <ele>1290.1999511719</ele>
        <time>2020-09-05T13:34:28.000Z</time>
      </trkpt>
      <trkpt lat="44.09478" lon="6.83311">
        <ele>1289.5999755859</ele>
        <time>2020-09-05T13:34:33.000Z</time>
      </trkpt>
      <trkpt lat="44.0949" lon="6.8331">
        <ele>1288.5999755859</ele>
        <time>2020-09-05T13:34:36.000Z</time>
      </trkpt>
      <trkpt lat="44.09496" lon="6.83309">
        <ele>1288.1999511719</ele>
        <time>2020-09-05T13:34:37.000Z</time>
      </trkpt>
      <trkpt lat="44.0951" lon="6.83306">
        <ele>1287</ele>
        <time>2020-09-05T13:34:39.000Z</time>
      </trkpt>
      <trkpt lat="44.09525" lon="6.83301">
        <ele>1285.8000488281</ele>
        <time>2020-09-05T13:34:41.000Z</time>
      </trkpt>
      <trkpt lat="44.09535" lon="6.83298">
        <ele>1284.5999755859</ele>
        <time>2020-09-05T13:34:43.000Z</time>
      </trkpt>
      <trkpt lat="44.09537" lon="6.83297">
        <ele>1283.5999755859</ele>
        <time>2020-09-05T13:34:44.000Z</time>
      </trkpt>
      <trkpt lat="44.09537" lon="6.83297">
        <ele>1282.8000488281</ele>
        <time>2020-09-05T13:34:45.000Z</time>
      </trkpt>
      <trkpt lat="44.09537" lon="6.83296">
        <ele>1281.1999511719</ele>
        <time>2020-09-05T13:34:46.000Z</time>
      </trkpt>
      <trkpt lat="44.09537" lon="6.83297">
        <ele>1279.8000488281</ele>
        <time>2020-09-05T13:34:47.000Z</time>
      </trkpt>
      <trkpt lat="44.09537" lon="6.83297">
        <ele>1278.4000244141</ele>
        <time>2020-09-05T13:34:48.000Z</time>
      </trkpt>
      <trkpt lat="44.09537" lon="6.83297">
        <ele>1276.8000488281</ele>
        <time>2020-09-05T13:34:50.000Z</time>
      </trkpt>
      <trkpt lat="44.09539" lon="6.83298">
        <ele>1276.4000244141</ele>
        <time>2020-09-05T13:34:54.000Z</time>
      </trkpt>
      <trkpt lat="44.09538" lon="6.83297">
        <ele>1276.4000244141</ele>
        <time>2020-09-05T13:34:55.000Z</time>
      </trkpt>
      <trkpt lat="44.09542" lon="6.83299">
        <ele>1276.1999511719</ele>
        <time>2020-09-05T13:34:57.000Z</time>
      </trkpt>
      <trkpt lat="44.09549" lon="6.83298">
        <ele>1276.1999511719</ele>
        <time>2020-09-05T13:34:59.000Z</time>
      </trkpt>
      <trkpt lat="44.0956" lon="6.83289">
        <ele>1275.8000488281</ele>
        <time>2020-09-05T13:35:02.000Z</time>
      </trkpt>
      <trkpt lat="44.09567" lon="6.83285">
        <ele>1275</ele>
        <time>2020-09-05T13:35:04.000Z</time>
      </trkpt>
      <trkpt lat="44.0957" lon="6.83284">
        <ele>1274</ele>
        <time>2020-09-05T13:35:05.000Z</time>
      </trkpt>
      <trkpt lat="44.09573" lon="6.83283">
        <ele>1272.8000488281</ele>
        <time>2020-09-05T13:35:06.000Z</time>
      </trkpt>
      <trkpt lat="44.09575" lon="6.83281">
        <ele>1271.5999755859</ele>
        <time>2020-09-05T13:35:07.000Z</time>
      </trkpt>
      <trkpt lat="44.09577" lon="6.8328">
        <ele>1270.1999511719</ele>
        <time>2020-09-05T13:35:08.000Z</time>
      </trkpt>
      <trkpt lat="44.09576" lon="6.83281">
        <ele>1269</ele>
        <time>2020-09-05T13:35:09.000Z</time>
      </trkpt>
      <trkpt lat="44.09577" lon="6.8328">
        <ele>1268</ele>
        <time>2020-09-05T13:35:10.000Z</time>
      </trkpt>
      <trkpt lat="44.09577" lon="6.8328">
        <ele>1267.1999511719</ele>
        <time>2020-09-05T13:35:11.000Z</time>
      </trkpt>
      <trkpt lat="44.09577" lon="6.8328">
        <ele>1266.5999755859</ele>
        <time>2020-09-05T13:35:12.000Z</time>
      </trkpt>
      <trkpt lat="44.09576" lon="6.8328">
        <ele>1265.4000244141</ele>
        <time>2020-09-05T13:35:16.000Z</time>
      </trkpt>
      <trkpt lat="44.09576" lon="6.8328">
        <ele>1265.4000244141</ele>
        <time>2020-09-05T13:35:18.000Z</time>
      </trkpt>
      <trkpt lat="44.09583" lon="6.83278">
        <ele>1265.4000244141</ele>
        <time>2020-09-05T13:35:23.000Z</time>
      </trkpt>
      <trkpt lat="44.096" lon="6.83285">
        <ele>1264.5999755859</ele>
        <time>2020-09-05T13:35:27.000Z</time>
      </trkpt>
      <trkpt lat="44.09605" lon="6.83288">
        <ele>1264.1999511719</ele>
        <time>2020-09-05T13:35:28.000Z</time>
      </trkpt>
      <trkpt lat="44.09612" lon="6.83296">
        <ele>1263.1999511719</ele>
        <time>2020-09-05T13:35:30.000Z</time>
      </trkpt>
      <trkpt lat="44.09615" lon="6.83302">
        <ele>1262.5999755859</ele>
        <time>2020-09-05T13:35:31.000Z</time>
      </trkpt>
      <trkpt lat="44.09616" lon="6.83307">
        <ele>1261.8000488281</ele>
        <time>2020-09-05T13:35:32.000Z</time>
      </trkpt>
      <trkpt lat="44.09617" lon="6.8332">
        <ele>1260.4000244141</ele>
        <time>2020-09-05T13:35:34.000Z</time>
      </trkpt>
      <trkpt lat="44.09616" lon="6.83322">
        <ele>1260</ele>
        <time>2020-09-05T13:35:35.000Z</time>
      </trkpt>
      <trkpt lat="44.09614" lon="6.83329">
        <ele>1259.4000244141</ele>
        <time>2020-09-05T13:35:36.000Z</time>
      </trkpt>
      <trkpt lat="44.09612" lon="6.83335">
        <ele>1259</ele>
        <time>2020-09-05T13:35:37.000Z</time>
      </trkpt>
      <trkpt lat="44.09609" lon="6.83344">
        <ele>1258.4000244141</ele>
        <time>2020-09-05T13:35:38.000Z</time>
      </trkpt>
      <trkpt lat="44.09608" lon="6.83352">
        <ele>1257.5999755859</ele>
        <time>2020-09-05T13:35:39.000Z</time>
      </trkpt>
      <trkpt lat="44.09605" lon="6.83363">
        <ele>1256.1999511719</ele>
        <time>2020-09-05T13:35:41.000Z</time>
      </trkpt>
      <trkpt lat="44.09605" lon="6.83366">
        <ele>1255.4000244141</ele>
        <time>2020-09-05T13:35:42.000Z</time>
      </trkpt>
      <trkpt lat="44.09608" lon="6.83368">
        <ele>1254.4000244141</ele>
        <time>2020-09-05T13:35:43.000Z</time>
      </trkpt>
      <trkpt lat="44.09613" lon="6.83369">
        <ele>1253.4000244141</ele>
        <time>2020-09-05T13:35:44.000Z</time>
      </trkpt>
      <trkpt lat="44.09619" lon="6.83371">
        <ele>1252.5999755859</ele>
        <time>2020-09-05T13:35:45.000Z</time>
      </trkpt>
      <trkpt lat="44.0963" lon="6.83373">
        <ele>1251.4000244141</ele>
        <time>2020-09-05T13:35:47.000Z</time>
      </trkpt>
      <trkpt lat="44.09636" lon="6.83371">
        <ele>1250.5999755859</ele>
        <time>2020-09-05T13:35:48.000Z</time>
      </trkpt>
      <trkpt lat="44.09642" lon="6.83368">
        <ele>1249.8000488281</ele>
        <time>2020-09-05T13:35:49.000Z</time>
      </trkpt>
      <trkpt lat="44.0965" lon="6.83359">
        <ele>1248</ele>
        <time>2020-09-05T13:35:51.000Z</time>
      </trkpt>
      <trkpt lat="44.09653" lon="6.83353">
        <ele>1247.4000244141</ele>
        <time>2020-09-05T13:35:52.000Z</time>
      </trkpt>
      <trkpt lat="44.09655" lon="6.83346">
        <ele>1246.5999755859</ele>
        <time>2020-09-05T13:35:53.000Z</time>
      </trkpt>
      <trkpt lat="44.09662" lon="6.83332">
        <ele>1245.4000244141</ele>
        <time>2020-09-05T13:35:55.000Z</time>
      </trkpt>
      <trkpt lat="44.09663" lon="6.83322">
        <ele>1244.8000488281</ele>
        <time>2020-09-05T13:35:56.000Z</time>
      </trkpt>
      <trkpt lat="44.09664" lon="6.83313">
        <ele>1244</ele>
        <time>2020-09-05T13:35:57.000Z</time>
      </trkpt>
      <trkpt lat="44.09665" lon="6.83303">
        <ele>1243</ele>
        <time>2020-09-05T13:35:58.000Z</time>
      </trkpt>
      <trkpt lat="44.09666" lon="6.83295">
        <ele>1242</ele>
        <time>2020-09-05T13:35:59.000Z</time>
      </trkpt>
      <trkpt lat="44.09665" lon="6.83289">
        <ele>1240.5999755859</ele>
        <time>2020-09-05T13:36:00.000Z</time>
      </trkpt>
      <trkpt lat="44.09665" lon="6.83284">
        <ele>1239</ele>
        <time>2020-09-05T13:36:01.000Z</time>
      </trkpt>
      <trkpt lat="44.09665" lon="6.83281">
        <ele>1237.5999755859</ele>
        <time>2020-09-05T13:36:02.000Z</time>
      </trkpt>
      <trkpt lat="44.09665" lon="6.83278">
        <ele>1236.4000244141</ele>
        <time>2020-09-05T13:36:03.000Z</time>
      </trkpt>
      <trkpt lat="44.09667" lon="6.83279">
        <ele>1235.4000244141</ele>
        <time>2020-09-05T13:36:04.000Z</time>
      </trkpt>
      <trkpt lat="44.09672" lon="6.83286">
        <ele>1233.8000488281</ele>
        <time>2020-09-05T13:36:06.000Z</time>
      </trkpt>
      <trkpt lat="44.09681" lon="6.83296">
        <ele>1233.1999511719</ele>
        <time>2020-09-05T13:36:08.000Z</time>
      </trkpt>
      <trkpt lat="44.09685" lon="6.83301">
        <ele>1232.5999755859</ele>
        <time>2020-09-05T13:36:09.000Z</time>
      </trkpt>
      <trkpt lat="44.0969" lon="6.83307">
        <ele>1232.1999511719</ele>
        <time>2020-09-05T13:36:10.000Z</time>
      </trkpt>
      <trkpt lat="44.09697" lon="6.83315">
        <ele>1231.1999511719</ele>
        <time>2020-09-05T13:36:12.000Z</time>
      </trkpt>
      <trkpt lat="44.09699" lon="6.83316">
        <ele>1230.8000488281</ele>
        <time>2020-09-05T13:36:13.000Z</time>
      </trkpt>
      <trkpt lat="44.09701" lon="6.83313">
        <ele>1230.1999511719</ele>
        <time>2020-09-05T13:36:14.000Z</time>
      </trkpt>
      <trkpt lat="44.09704" lon="6.83305">
        <ele>1229</ele>
        <time>2020-09-05T13:36:15.000Z</time>
      </trkpt>
      <trkpt lat="44.09705" lon="6.83296">
        <ele>1227.8000488281</ele>
        <time>2020-09-05T13:36:16.000Z</time>
      </trkpt>
      <trkpt lat="44.09705" lon="6.83284">
        <ele>1225.8000488281</ele>
        <time>2020-09-05T13:36:18.000Z</time>
      </trkpt>
      <trkpt lat="44.09709" lon="6.83283">
        <ele>1224</ele>
        <time>2020-09-05T13:36:20.000Z</time>
      </trkpt>
      <trkpt lat="44.09711" lon="6.83289">
        <ele>1223</ele>
        <time>2020-09-05T13:36:21.000Z</time>
      </trkpt>
      <trkpt lat="44.09716" lon="6.83294">
        <ele>1222</ele>
        <time>2020-09-05T13:36:22.000Z</time>
      </trkpt>
      <trkpt lat="44.09725" lon="6.83305">
        <ele>1220.4000244141</ele>
        <time>2020-09-05T13:36:24.000Z</time>
      </trkpt>
      <trkpt lat="44.0973" lon="6.83318">
        <ele>1219</ele>
        <time>2020-09-05T13:36:27.000Z</time>
      </trkpt>
      <trkpt lat="44.09731" lon="6.83321">
        <ele>1218.1999511719</ele>
        <time>2020-09-05T13:36:28.000Z</time>
      </trkpt>
      <trkpt lat="44.09732" lon="6.8332">
        <ele>1217.5999755859</ele>
        <time>2020-09-05T13:36:29.000Z</time>
      </trkpt>
      <trkpt lat="44.09736" lon="6.83317">
        <ele>1216.5999755859</ele>
        <time>2020-09-05T13:36:30.000Z</time>
      </trkpt>
      <trkpt lat="44.09739" lon="6.83314">
        <ele>1216</ele>
        <time>2020-09-05T13:36:31.000Z</time>
      </trkpt>
      <trkpt lat="44.09745" lon="6.83301">
        <ele>1214.4000244141</ele>
        <time>2020-09-05T13:36:33.000Z</time>
      </trkpt>
      <trkpt lat="44.09749" lon="6.83294">
        <ele>1213.8000488281</ele>
        <time>2020-09-05T13:36:34.000Z</time>
      </trkpt>
      <trkpt lat="44.09751" lon="6.83288">
        <ele>1213</ele>
        <time>2020-09-05T13:36:35.000Z</time>
      </trkpt>
      <trkpt lat="44.09757" lon="6.83286">
        <ele>1211.5999755859</ele>
        <time>2020-09-05T13:36:37.000Z</time>
      </trkpt>
      <trkpt lat="44.09763" lon="6.83297">
        <ele>1209.8000488281</ele>
        <time>2020-09-05T13:36:39.000Z</time>
      </trkpt>
      <trkpt lat="44.09765" lon="6.83312">
        <ele>1208.4000244141</ele>
        <time>2020-09-05T13:36:41.000Z</time>
      </trkpt>
      <trkpt lat="44.09766" lon="6.83318">
        <ele>1208</ele>
        <time>2020-09-05T13:36:42.000Z</time>
      </trkpt>
      <trkpt lat="44.09763" lon="6.83321">
        <ele>1207.4000244141</ele>
        <time>2020-09-05T13:36:43.000Z</time>
      </trkpt>
      <trkpt lat="44.09758" lon="6.83329">
        <ele>1206</ele>
        <time>2020-09-05T13:36:45.000Z</time>
      </trkpt>
      <trkpt lat="44.0976" lon="6.83332">
        <ele>1204.8000488281</ele>
        <time>2020-09-05T13:36:47.000Z</time>
      </trkpt>
      <trkpt lat="44.09768" lon="6.83331">
        <ele>1203.5999755859</ele>
        <time>2020-09-05T13:36:49.000Z</time>
      </trkpt>
      <trkpt lat="44.09774" lon="6.8333">
        <ele>1203.1999511719</ele>
        <time>2020-09-05T13:36:50.000Z</time>
      </trkpt>
      <trkpt lat="44.09781" lon="6.83327">
        <ele>1202.5999755859</ele>
        <time>2020-09-05T13:36:51.000Z</time>
      </trkpt>
      <trkpt lat="44.09785" lon="6.83325">
        <ele>1202</ele>
        <time>2020-09-05T13:36:52.000Z</time>
      </trkpt>
      <trkpt lat="44.09796" lon="6.83321">
        <ele>1200.4000244141</ele>
        <time>2020-09-05T13:36:54.000Z</time>
      </trkpt>
      <trkpt lat="44.09801" lon="6.83318">
        <ele>1199.4000244141</ele>
        <time>2020-09-05T13:36:55.000Z</time>
      </trkpt>
      <trkpt lat="44.09804" lon="6.83313">
        <ele>1198.4000244141</ele>
        <time>2020-09-05T13:36:56.000Z</time>
      </trkpt>
      <trkpt lat="44.09804" lon="6.8331">
        <ele>1197.1999511719</ele>
        <time>2020-09-05T13:36:57.000Z</time>
      </trkpt>
      <trkpt lat="44.09803" lon="6.83303">
        <ele>1196</ele>
        <time>2020-09-05T13:36:58.000Z</time>
      </trkpt>
      <trkpt lat="44.09801" lon="6.83296">
        <ele>1194.8000488281</ele>
        <time>2020-09-05T13:36:59.000Z</time>
      </trkpt>
      <trkpt lat="44.09801" lon="6.8329">
        <ele>1193.8000488281</ele>
        <time>2020-09-05T13:37:00.000Z</time>
      </trkpt>
      <trkpt lat="44.09803" lon="6.83286">
        <ele>1193</ele>
        <time>2020-09-05T13:37:01.000Z</time>
      </trkpt>
      <trkpt lat="44.0981" lon="6.8329">
        <ele>1191.4000244141</ele>
        <time>2020-09-05T13:37:03.000Z</time>
      </trkpt>
      <trkpt lat="44.09815" lon="6.83293">
        <ele>1190.5999755859</ele>
        <time>2020-09-05T13:37:04.000Z</time>
      </trkpt>
      <trkpt lat="44.09821" lon="6.83296">
        <ele>1190</ele>
        <time>2020-09-05T13:37:05.000Z</time>
      </trkpt>
      <trkpt lat="44.09825" lon="6.83298">
        <ele>1189.4000244141</ele>
        <time>2020-09-05T13:37:06.000Z</time>
      </trkpt>
      <trkpt lat="44.09829" lon="6.83302">
        <ele>1188.8000488281</ele>
        <time>2020-09-05T13:37:07.000Z</time>
      </trkpt>
      <trkpt lat="44.09841" lon="6.83313">
        <ele>1186.8000488281</ele>
        <time>2020-09-05T13:37:09.000Z</time>
      </trkpt>
      <trkpt lat="44.09845" lon="6.8332">
        <ele>1185.1999511719</ele>
        <time>2020-09-05T13:37:10.000Z</time>
      </trkpt>
      <trkpt lat="44.09848" lon="6.83326">
        <ele>1183</ele>
        <time>2020-09-05T13:37:11.000Z</time>
      </trkpt>
      <trkpt lat="44.09851" lon="6.83331">
        <ele>1180.5999755859</ele>
        <time>2020-09-05T13:37:12.000Z</time>
      </trkpt>
      <trkpt lat="44.09853" lon="6.83333">
        <ele>1178.1999511719</ele>
        <time>2020-09-05T13:37:13.000Z</time>
      </trkpt>
      <trkpt lat="44.09855" lon="6.83333">
        <ele>1176.1999511719</ele>
        <time>2020-09-05T13:37:14.000Z</time>
      </trkpt>
      <trkpt lat="44.09856" lon="6.8333">
        <ele>1174.4000244141</ele>
        <time>2020-09-05T13:37:15.000Z</time>
      </trkpt>
      <trkpt lat="44.09858" lon="6.83326">
        <ele>1173.1999511719</ele>
        <time>2020-09-05T13:37:16.000Z</time>
      </trkpt>
      <trkpt lat="44.0986" lon="6.83321">
        <ele>1172.1999511719</ele>
        <time>2020-09-05T13:37:17.000Z</time>
      </trkpt>
      <trkpt lat="44.09861" lon="6.83314">
        <ele>1171.5999755859</ele>
        <time>2020-09-05T13:37:18.000Z</time>
      </trkpt>
      <trkpt lat="44.09866" lon="6.83297">
        <ele>1170.4000244141</ele>
        <time>2020-09-05T13:37:20.000Z</time>
      </trkpt>
      <trkpt lat="44.09871" lon="6.83295">
        <ele>1169.5999755859</ele>
        <time>2020-09-05T13:37:22.000Z</time>
      </trkpt>
      <trkpt lat="44.09874" lon="6.83298">
        <ele>1169</ele>
        <time>2020-09-05T13:37:23.000Z</time>
      </trkpt>
      <trkpt lat="44.0988" lon="6.83312">
        <ele>1167.8000488281</ele>
        <time>2020-09-05T13:37:25.000Z</time>
      </trkpt>
      <trkpt lat="44.09883" lon="6.8332">
        <ele>1167.1999511719</ele>
        <time>2020-09-05T13:37:26.000Z</time>
      </trkpt>
      <trkpt lat="44.09887" lon="6.83328">
        <ele>1166.4000244141</ele>
        <time>2020-09-05T13:37:27.000Z</time>
      </trkpt>
      <trkpt lat="44.09893" lon="6.83339">
        <ele>1165.1999511719</ele>
        <time>2020-09-05T13:37:28.000Z</time>
      </trkpt>
      <trkpt lat="44.09898" lon="6.83345">
        <ele>1164</ele>
        <time>2020-09-05T13:37:29.000Z</time>
      </trkpt>
      <trkpt lat="44.09904" lon="6.8335">
        <ele>1162.8000488281</ele>
        <time>2020-09-05T13:37:30.000Z</time>
      </trkpt>
      <trkpt lat="44.09908" lon="6.83358">
        <ele>1161.4000244141</ele>
        <time>2020-09-05T13:37:31.000Z</time>
      </trkpt>
      <trkpt lat="44.09912" lon="6.83362">
        <ele>1160</ele>
        <time>2020-09-05T13:37:32.000Z</time>
      </trkpt>
      <trkpt lat="44.0992" lon="6.83367">
        <ele>1159</ele>
        <time>2020-09-05T13:37:33.000Z</time>
      </trkpt>
      <trkpt lat="44.09928" lon="6.83371">
        <ele>1158</ele>
        <time>2020-09-05T13:37:34.000Z</time>
      </trkpt>
      <trkpt lat="44.09936" lon="6.83373">
        <ele>1157</ele>
        <time>2020-09-05T13:37:35.000Z</time>
      </trkpt>
      <trkpt lat="44.09944" lon="6.83374">
        <ele>1156</ele>
        <time>2020-09-05T13:37:36.000Z</time>
      </trkpt>
      <trkpt lat="44.09951" lon="6.83375">
        <ele>1155</ele>
        <time>2020-09-05T13:37:37.000Z</time>
      </trkpt>
      <trkpt lat="44.09958" lon="6.83377">
        <ele>1153.8000488281</ele>
        <time>2020-09-05T13:37:38.000Z</time>
      </trkpt>
      <trkpt lat="44.09963" lon="6.83378">
        <ele>1152.4000244141</ele>
        <time>2020-09-05T13:37:39.000Z</time>
      </trkpt>
      <trkpt lat="44.09967" lon="6.83382">
        <ele>1151</ele>
        <time>2020-09-05T13:37:40.000Z</time>
      </trkpt>
      <trkpt lat="44.09971" lon="6.83387">
        <ele>1149</ele>
        <time>2020-09-05T13:37:42.000Z</time>
      </trkpt>
      <trkpt lat="44.09973" lon="6.83384">
        <ele>1146.5999755859</ele>
        <time>2020-09-05T13:37:44.000Z</time>
      </trkpt>
      <trkpt lat="44.09972" lon="6.83381">
        <ele>1145.4000244141</ele>
        <time>2020-09-05T13:37:45.000Z</time>
      </trkpt>
      <trkpt lat="44.0997" lon="6.83375">
        <ele>1144.4000244141</ele>
        <time>2020-09-05T13:37:46.000Z</time>
      </trkpt>
      <trkpt lat="44.09965" lon="6.83365">
        <ele>1143</ele>
        <time>2020-09-05T13:37:48.000Z</time>
      </trkpt>
      <trkpt lat="44.09962" lon="6.8336">
        <ele>1142.8000488281</ele>
        <time>2020-09-05T13:37:49.000Z</time>
      </trkpt>
      <trkpt lat="44.09951" lon="6.83345">
        <ele>1142.5999755859</ele>
        <time>2020-09-05T13:37:53.000Z</time>
      </trkpt>
      <trkpt lat="44.09948" lon="6.83339">
        <ele>1142.5999755859</ele>
        <time>2020-09-05T13:37:54.000Z</time>
      </trkpt>
      <trkpt lat="44.09939" lon="6.83321">
        <ele>1142.5999755859</ele>
        <time>2020-09-05T13:37:58.000Z</time>
      </trkpt>
      <trkpt lat="44.0994" lon="6.83318">
        <ele>1142.5999755859</ele>
        <time>2020-09-05T13:37:59.000Z</time>
      </trkpt>
      <trkpt lat="44.09942" lon="6.83306">
        <ele>1142.8000488281</ele>
        <time>2020-09-05T13:38:01.000Z</time>
      </trkpt>
      <trkpt lat="44.09945" lon="6.83286">
        <ele>1142.1999511719</ele>
        <time>2020-09-05T13:38:04.000Z</time>
      </trkpt>
      <trkpt lat="44.09947" lon="6.83281">
        <ele>1142</ele>
        <time>2020-09-05T13:38:05.000Z</time>
      </trkpt>
      <trkpt lat="44.0995" lon="6.83265">
        <ele>1141.5999755859</ele>
        <time>2020-09-05T13:38:08.000Z</time>
      </trkpt>
      <trkpt lat="44.0995" lon="6.83259">
        <ele>1141.5999755859</ele>
        <time>2020-09-05T13:38:09.000Z</time>
      </trkpt>
      <trkpt lat="44.09946" lon="6.83237">
        <ele>1141.8000488281</ele>
        <time>2020-09-05T13:38:13.000Z</time>
      </trkpt>
      <trkpt lat="44.0994" lon="6.83224">
        <ele>1142.4000244141</ele>
        <time>2020-09-05T13:38:17.000Z</time>
      </trkpt>
      <trkpt lat="44.09932" lon="6.83216">
        <ele>1143</ele>
        <time>2020-09-05T13:38:20.000Z</time>
      </trkpt>
      <trkpt lat="44.09933" lon="6.83215">
        <ele>1143.4000244141</ele>
        <time>2020-09-05T13:38:21.000Z</time>
      </trkpt>
      <trkpt lat="44.09933" lon="6.83215">
        <ele>1144.1999511719</ele>
        <time>2020-09-05T13:38:24.000Z</time>
      </trkpt>
      <trkpt lat="44.09932" lon="6.83212">
        <ele>1144.4000244141</ele>
        <time>2020-09-05T13:38:26.000Z</time>
      </trkpt>
      <trkpt lat="44.09933" lon="6.8321">
        <ele>1144.4000244141</ele>
        <time>2020-09-05T13:38:27.000Z</time>
      </trkpt>
      <trkpt lat="44.0994" lon="6.83207">
        <ele>1144</ele>
        <time>2020-09-05T13:38:30.000Z</time>
      </trkpt>
      <trkpt lat="44.09945" lon="6.8321">
        <ele>1143.5999755859</ele>
        <time>2020-09-05T13:38:32.000Z</time>
      </trkpt>
      <trkpt lat="44.09949" lon="6.83209">
        <ele>1143.4000244141</ele>
        <time>2020-09-05T13:38:33.000Z</time>
      </trkpt>
      <trkpt lat="44.09952" lon="6.83209">
        <ele>1142.8000488281</ele>
        <time>2020-09-05T13:38:34.000Z</time>
      </trkpt>
      <trkpt lat="44.09958" lon="6.8321">
        <ele>1141.8000488281</ele>
        <time>2020-09-05T13:38:36.000Z</time>
      </trkpt>
      <trkpt lat="44.09961" lon="6.8321">
        <ele>1141.1999511719</ele>
        <time>2020-09-05T13:38:37.000Z</time>
      </trkpt>
      <trkpt lat="44.09964" lon="6.83208">
        <ele>1140.1999511719</ele>
        <time>2020-09-05T13:38:38.000Z</time>
      </trkpt>
      <trkpt lat="44.09967" lon="6.83209">
        <ele>1138.8000488281</ele>
        <time>2020-09-05T13:38:39.000Z</time>
      </trkpt>
      <trkpt lat="44.0997" lon="6.83212">
        <ele>1137.5999755859</ele>
        <time>2020-09-05T13:38:40.000Z</time>
      </trkpt>
      <trkpt lat="44.09972" lon="6.83216">
        <ele>1136.1999511719</ele>
        <time>2020-09-05T13:38:41.000Z</time>
      </trkpt>
      <trkpt lat="44.09973" lon="6.83221">
        <ele>1135</ele>
        <time>2020-09-05T13:38:42.000Z</time>
      </trkpt>
      <trkpt lat="44.09973" lon="6.83231">
        <ele>1133.1999511719</ele>
        <time>2020-09-05T13:38:44.000Z</time>
      </trkpt>
      <trkpt lat="44.09975" lon="6.83236">
        <ele>1132.8000488281</ele>
        <time>2020-09-05T13:38:45.000Z</time>
      </trkpt>
      <trkpt lat="44.09979" lon="6.83253">
        <ele>1132.5999755859</ele>
        <time>2020-09-05T13:38:48.000Z</time>
      </trkpt>
      <trkpt lat="44.0998" lon="6.83259">
        <ele>1132.4000244141</ele>
        <time>2020-09-05T13:38:49.000Z</time>
      </trkpt>
      <trkpt lat="44.09982" lon="6.83266">
        <ele>1132.1999511719</ele>
        <time>2020-09-05T13:38:50.000Z</time>
      </trkpt>
      <trkpt lat="44.09981" lon="6.83281">
        <ele>1131.5999755859</ele>
        <time>2020-09-05T13:38:53.000Z</time>
      </trkpt>
      <trkpt lat="44.0998" lon="6.83299">
        <ele>1130.5999755859</ele>
        <time>2020-09-05T13:38:55.000Z</time>
      </trkpt>
      <trkpt lat="44.09982" lon="6.83312">
        <ele>1128.5999755859</ele>
        <time>2020-09-05T13:38:57.000Z</time>
      </trkpt>
      <trkpt lat="44.09987" lon="6.83315">
        <ele>1127.4000244141</ele>
        <time>2020-09-05T13:38:58.000Z</time>
      </trkpt>
      <trkpt lat="44.09989" lon="6.8332">
        <ele>1126.4000244141</ele>
        <time>2020-09-05T13:38:59.000Z</time>
      </trkpt>
      <trkpt lat="44.09996" lon="6.83331">
        <ele>1124.8000488281</ele>
        <time>2020-09-05T13:39:01.000Z</time>
      </trkpt>
      <trkpt lat="44.1" lon="6.83337">
        <ele>1124.4000244141</ele>
        <time>2020-09-05T13:39:02.000Z</time>
      </trkpt>
      <trkpt lat="44.10004" lon="6.83343">
        <ele>1124.1999511719</ele>
        <time>2020-09-05T13:39:03.000Z</time>
      </trkpt>
      <trkpt lat="44.10013" lon="6.83364">
        <ele>1124</ele>
        <time>2020-09-05T13:39:07.000Z</time>
      </trkpt>
      <trkpt lat="44.10011" lon="6.83371">
        <ele>1123.8000488281</ele>
        <time>2020-09-05T13:39:08.000Z</time>
      </trkpt>
      <trkpt lat="44.10013" lon="6.83376">
        <ele>1123.5999755859</ele>
        <time>2020-09-05T13:39:09.000Z</time>
      </trkpt>
      <trkpt lat="44.10014" lon="6.83381">
        <ele>1123.4000244141</ele>
        <time>2020-09-05T13:39:10.000Z</time>
      </trkpt>
      <trkpt lat="44.10015" lon="6.83393">
        <ele>1123</ele>
        <time>2020-09-05T13:39:12.000Z</time>
      </trkpt>
      <trkpt lat="44.10013" lon="6.83412">
        <ele>1122.5999755859</ele>
        <time>2020-09-05T13:39:15.000Z</time>
      </trkpt>
      <trkpt lat="44.10007" lon="6.83427">
        <ele>1121.4000244141</ele>
        <time>2020-09-05T13:39:18.000Z</time>
      </trkpt>
      <trkpt lat="44.10003" lon="6.8343">
        <ele>1120.8000488281</ele>
        <time>2020-09-05T13:39:19.000Z</time>
      </trkpt>
      <trkpt lat="44.10004" lon="6.83433">
        <ele>1120.4000244141</ele>
        <time>2020-09-05T13:39:20.000Z</time>
      </trkpt>
      <trkpt lat="44.10005" lon="6.83435">
        <ele>1120.1999511719</ele>
        <time>2020-09-05T13:39:21.000Z</time>
      </trkpt>
      <trkpt lat="44.10014" lon="6.83441">
        <ele>1118.4000244141</ele>
        <time>2020-09-05T13:39:24.000Z</time>
      </trkpt>
      <trkpt lat="44.10023" lon="6.83445">
        <ele>1117</ele>
        <time>2020-09-05T13:39:26.000Z</time>
      </trkpt>
      <trkpt lat="44.10026" lon="6.83449">
        <ele>1116.5999755859</ele>
        <time>2020-09-05T13:39:27.000Z</time>
      </trkpt>
      <trkpt lat="44.10029" lon="6.83452">
        <ele>1116</ele>
        <time>2020-09-05T13:39:28.000Z</time>
      </trkpt>
      <trkpt lat="44.10038" lon="6.83462">
        <ele>1115.8000488281</ele>
        <time>2020-09-05T13:39:32.000Z</time>
      </trkpt>
      <trkpt lat="44.10046" lon="6.83467">
        <ele>1117.1999511719</ele>
        <time>2020-09-05T13:39:35.000Z</time>
      </trkpt>
      <trkpt lat="44.10051" lon="6.83471">
        <ele>1118.1999511719</ele>
        <time>2020-09-05T13:39:37.000Z</time>
      </trkpt>
      <trkpt lat="44.10057" lon="6.83477">
        <ele>1119.4000244141</ele>
        <time>2020-09-05T13:39:39.000Z</time>
      </trkpt>
      <trkpt lat="44.10062" lon="6.83487">
        <ele>1120.4000244141</ele>
        <time>2020-09-05T13:39:41.000Z</time>
      </trkpt>
      <trkpt lat="44.10065" lon="6.83493">
        <ele>1120.8000488281</ele>
        <time>2020-09-05T13:39:42.000Z</time>
      </trkpt>
      <trkpt lat="44.10074" lon="6.83515">
        <ele>1121.5999755859</ele>
        <time>2020-09-05T13:39:46.000Z</time>
      </trkpt>
      <trkpt lat="44.10082" lon="6.83534">
        <ele>1121.8000488281</ele>
        <time>2020-09-05T13:39:50.000Z</time>
      </trkpt>
      <trkpt lat="44.10084" lon="6.83539">
        <ele>1122</ele>
        <time>2020-09-05T13:39:51.000Z</time>
      </trkpt>
      <trkpt lat="44.10089" lon="6.83559">
        <ele>1122.8000488281</ele>
        <time>2020-09-05T13:39:55.000Z</time>
      </trkpt>
      <trkpt lat="44.10079" lon="6.83574">
        <ele>1122</ele>
        <time>2020-09-05T13:39:58.000Z</time>
      </trkpt>
      <trkpt lat="44.10072" lon="6.83584">
        <ele>1121</ele>
        <time>2020-09-05T13:40:00.000Z</time>
      </trkpt>
      <trkpt lat="44.10069" lon="6.83593">
        <ele>1119.5999755859</ele>
        <time>2020-09-05T13:40:02.000Z</time>
      </trkpt>
      <trkpt lat="44.10065" lon="6.83614">
        <ele>1117.5999755859</ele>
        <time>2020-09-05T13:40:04.000Z</time>
      </trkpt>
      <trkpt lat="44.10063" lon="6.83623">
        <ele>1117</ele>
        <time>2020-09-05T13:40:05.000Z</time>
      </trkpt>
      <trkpt lat="44.10063" lon="6.83632">
        <ele>1116.4000244141</ele>
        <time>2020-09-05T13:40:06.000Z</time>
      </trkpt>
      <trkpt lat="44.10063" lon="6.83638">
        <ele>1115.5999755859</ele>
        <time>2020-09-05T13:40:07.000Z</time>
      </trkpt>
      <trkpt lat="44.10065" lon="6.83645">
        <ele>1114.8000488281</ele>
        <time>2020-09-05T13:40:08.000Z</time>
      </trkpt>
      <trkpt lat="44.10063" lon="6.83661">
        <ele>1113.4000244141</ele>
        <time>2020-09-05T13:40:10.000Z</time>
      </trkpt>
      <trkpt lat="44.1006" lon="6.83669">
        <ele>1112.8000488281</ele>
        <time>2020-09-05T13:40:11.000Z</time>
      </trkpt>
      <trkpt lat="44.10059" lon="6.83677">
        <ele>1112.4000244141</ele>
        <time>2020-09-05T13:40:12.000Z</time>
      </trkpt>
      <trkpt lat="44.1005" lon="6.83701">
        <ele>1111</ele>
        <time>2020-09-05T13:40:15.000Z</time>
      </trkpt>
      <trkpt lat="44.10046" lon="6.83713">
        <ele>1110.4000244141</ele>
        <time>2020-09-05T13:40:17.000Z</time>
      </trkpt>
      <trkpt lat="44.10039" lon="6.8373">
        <ele>1109.8000488281</ele>
        <time>2020-09-05T13:40:19.000Z</time>
      </trkpt>
      <trkpt lat="44.10036" lon="6.83739">
        <ele>1109.4000244141</ele>
        <time>2020-09-05T13:40:20.000Z</time>
      </trkpt>
      <trkpt lat="44.10035" lon="6.83754">
        <ele>1108.4000244141</ele>
        <time>2020-09-05T13:40:22.000Z</time>
      </trkpt>
      <trkpt lat="44.10035" lon="6.83762">
        <ele>1108</ele>
        <time>2020-09-05T13:40:23.000Z</time>
      </trkpt>
      <trkpt lat="44.10034" lon="6.83771">
        <ele>1107</ele>
        <time>2020-09-05T13:40:24.000Z</time>
      </trkpt>
      <trkpt lat="44.1003" lon="6.83787">
        <ele>1105</ele>
        <time>2020-09-05T13:40:26.000Z</time>
      </trkpt>
      <trkpt lat="44.10028" lon="6.83792">
        <ele>1104</ele>
        <time>2020-09-05T13:40:27.000Z</time>
      </trkpt>
      <trkpt lat="44.10025" lon="6.83798">
        <ele>1102.8000488281</ele>
        <time>2020-09-05T13:40:28.000Z</time>
      </trkpt>
      <trkpt lat="44.10021" lon="6.83804">
        <ele>1101.5999755859</ele>
        <time>2020-09-05T13:40:29.000Z</time>
      </trkpt>
      <trkpt lat="44.10018" lon="6.8381">
        <ele>1100.4000244141</ele>
        <time>2020-09-05T13:40:30.000Z</time>
      </trkpt>
      <trkpt lat="44.10015" lon="6.83816">
        <ele>1099.1999511719</ele>
        <time>2020-09-05T13:40:31.000Z</time>
      </trkpt>
      <trkpt lat="44.10013" lon="6.83822">
        <ele>1098</ele>
        <time>2020-09-05T13:40:32.000Z</time>
      </trkpt>
      <trkpt lat="44.10011" lon="6.83831">
        <ele>1097</ele>
        <time>2020-09-05T13:40:33.000Z</time>
      </trkpt>
      <trkpt lat="44.10013" lon="6.8384">
        <ele>1096</ele>
        <time>2020-09-05T13:40:34.000Z</time>
      </trkpt>
      <trkpt lat="44.10011" lon="6.83858">
        <ele>1094.1999511719</ele>
        <time>2020-09-05T13:40:36.000Z</time>
      </trkpt>
      <trkpt lat="44.10012" lon="6.83867">
        <ele>1093.8000488281</ele>
        <time>2020-09-05T13:40:37.000Z</time>
      </trkpt>
      <trkpt lat="44.10012" lon="6.83877">
        <ele>1093</ele>
        <time>2020-09-05T13:40:38.000Z</time>
      </trkpt>
      <trkpt lat="44.10014" lon="6.83894">
        <ele>1092</ele>
        <time>2020-09-05T13:40:40.000Z</time>
      </trkpt>
      <trkpt lat="44.10015" lon="6.83908">
        <ele>1091.4000244141</ele>
        <time>2020-09-05T13:40:42.000Z</time>
      </trkpt>
      <trkpt lat="44.10012" lon="6.83917">
        <ele>1090.8000488281</ele>
        <time>2020-09-05T13:40:43.000Z</time>
      </trkpt>
      <trkpt lat="44.10004" lon="6.83929">
        <ele>1089.4000244141</ele>
        <time>2020-09-05T13:40:45.000Z</time>
      </trkpt>
      <trkpt lat="44.1" lon="6.83936">
        <ele>1088.8000488281</ele>
        <time>2020-09-05T13:40:46.000Z</time>
      </trkpt>
      <trkpt lat="44.09998" lon="6.8394">
        <ele>1088.4000244141</ele>
        <time>2020-09-05T13:40:47.000Z</time>
      </trkpt>
      <trkpt lat="44.09996" lon="6.8395">
        <ele>1087.5999755859</ele>
        <time>2020-09-05T13:40:49.000Z</time>
      </trkpt>
      <trkpt lat="44.09998" lon="6.83958">
        <ele>1087.1999511719</ele>
        <time>2020-09-05T13:40:50.000Z</time>
      </trkpt>
      <trkpt lat="44.10002" lon="6.83973">
        <ele>1086.1999511719</ele>
        <time>2020-09-05T13:40:52.000Z</time>
      </trkpt>
      <trkpt lat="44.10003" lon="6.83981">
        <ele>1085.8000488281</ele>
        <time>2020-09-05T13:40:53.000Z</time>
      </trkpt>
      <trkpt lat="44.10006" lon="6.84003">
        <ele>1085.4000244141</ele>
        <time>2020-09-05T13:40:57.000Z</time>
      </trkpt>
      <trkpt lat="44.10004" lon="6.84007">
        <ele>1085.4000244141</ele>
        <time>2020-09-05T13:40:58.000Z</time>
      </trkpt>
      <trkpt lat="44.10004" lon="6.84006">
        <ele>1085.5999755859</ele>
        <time>2020-09-05T13:41:00.000Z</time>
      </trkpt>
      <trkpt lat="44.10005" lon="6.84007">
        <ele>1084.5999755859</ele>
        <time>2020-09-05T13:41:04.000Z</time>
      </trkpt>
      <trkpt lat="44.10004" lon="6.84007">
        <ele>1084</ele>
        <time>2020-09-05T13:41:13.000Z</time>
      </trkpt>
      <trkpt lat="44.10003" lon="6.84007">
        <ele>1083.8000488281</ele>
        <time>2020-09-05T13:41:23.000Z</time>
      </trkpt>
      <trkpt lat="44.10001" lon="6.84008">
        <ele>1083.8000488281</ele>
        <time>2020-09-05T13:41:34.000Z</time>
      </trkpt>
      <trkpt lat="44.10003" lon="6.84009">
        <ele>1083.8000488281</ele>
        <time>2020-09-05T13:41:44.000Z</time>
      </trkpt>
      <trkpt lat="44.10005" lon="6.84009">
        <ele>1083.8000488281</ele>
        <time>2020-09-05T13:41:51.000Z</time>
      </trkpt>
      <trkpt lat="44.1001" lon="6.84009">
        <ele>1083.8000488281</ele>
        <time>2020-09-05T13:42:00.000Z</time>
      </trkpt>
      <trkpt lat="44.10012" lon="6.84009">
        <ele>1083.5999755859</ele>
        <time>2020-09-05T13:42:09.000Z</time>
      </trkpt>
      <trkpt lat="44.1001" lon="6.84009">
        <ele>1083.8000488281</ele>
        <time>2020-09-05T13:42:24.000Z</time>
      </trkpt>
      <trkpt lat="44.10005" lon="6.84011">
        <ele>1083.8000488281</ele>
        <time>2020-09-05T13:42:31.000Z</time>
      </trkpt>
      <trkpt lat="44.10004" lon="6.84013">
        <ele>1083.8000488281</ele>
        <time>2020-09-05T13:42:32.000Z</time>
      </trkpt>
      <trkpt lat="44.09998" lon="6.84029">
        <ele>1083.8000488281</ele>
        <time>2020-09-05T13:42:36.000Z</time>
      </trkpt>
      <trkpt lat="44.09994" lon="6.84041">
        <ele>1083.5999755859</ele>
        <time>2020-09-05T13:42:38.000Z</time>
      </trkpt>
      <trkpt lat="44.0999" lon="6.84047">
        <ele>1083.5999755859</ele>
        <time>2020-09-05T13:42:39.000Z</time>
      </trkpt>
      <trkpt lat="44.09986" lon="6.84051">
        <ele>1083.1999511719</ele>
        <time>2020-09-05T13:42:40.000Z</time>
      </trkpt>
      <trkpt lat="44.09976" lon="6.8406">
        <ele>1082</ele>
        <time>2020-09-05T13:42:43.000Z</time>
      </trkpt>
      <trkpt lat="44.09974" lon="6.84061">
        <ele>1081.4000244141</ele>
        <time>2020-09-05T13:42:44.000Z</time>
      </trkpt>
      <trkpt lat="44.09973" lon="6.84062">
        <ele>1080.4000244141</ele>
        <time>2020-09-05T13:42:45.000Z</time>
      </trkpt>
      <trkpt lat="44.0997" lon="6.84063">
        <ele>1079.1999511719</ele>
        <time>2020-09-05T13:42:46.000Z</time>
      </trkpt>
      <trkpt lat="44.09968" lon="6.84065">
        <ele>1077.8000488281</ele>
        <time>2020-09-05T13:42:47.000Z</time>
      </trkpt>
      <trkpt lat="44.09964" lon="6.84067">
        <ele>1076.8000488281</ele>
        <time>2020-09-05T13:42:48.000Z</time>
      </trkpt>
      <trkpt lat="44.09961" lon="6.8407">
        <ele>1075.8000488281</ele>
        <time>2020-09-05T13:42:49.000Z</time>
      </trkpt>
      <trkpt lat="44.09954" lon="6.84072">
        <ele>1074</ele>
        <time>2020-09-05T13:42:51.000Z</time>
      </trkpt>
      <trkpt lat="44.09953" lon="6.84074">
        <ele>1073.1999511719</ele>
        <time>2020-09-05T13:42:52.000Z</time>
      </trkpt>
      <trkpt lat="44.09953" lon="6.84075">
        <ele>1072.1999511719</ele>
        <time>2020-09-05T13:42:53.000Z</time>
      </trkpt>
      <trkpt lat="44.09955" lon="6.84076">
        <ele>1070.1999511719</ele>
        <time>2020-09-05T13:42:55.000Z</time>
      </trkpt>
      <trkpt lat="44.09953" lon="6.84081">
        <ele>1068.8000488281</ele>
        <time>2020-09-05T13:42:57.000Z</time>
      </trkpt>
      <trkpt lat="44.09949" lon="6.84083">
        <ele>1068.1999511719</ele>
        <time>2020-09-05T13:42:58.000Z</time>
      </trkpt>
      <trkpt lat="44.09939" lon="6.84086">
        <ele>1067.5999755859</ele>
        <time>2020-09-05T13:43:00.000Z</time>
      </trkpt>
      <trkpt lat="44.09935" lon="6.84088">
        <ele>1067</ele>
        <time>2020-09-05T13:43:01.000Z</time>
      </trkpt>
      <trkpt lat="44.09925" lon="6.84091">
        <ele>1066.1999511719</ele>
        <time>2020-09-05T13:43:03.000Z</time>
      </trkpt>
      <trkpt lat="44.09914" lon="6.84097">
        <ele>1064.4000244141</ele>
        <time>2020-09-05T13:43:05.000Z</time>
      </trkpt>
      <trkpt lat="44.09903" lon="6.84107">
        <ele>1062.8000488281</ele>
        <time>2020-09-05T13:43:07.000Z</time>
      </trkpt>
      <trkpt lat="44.09891" lon="6.8412">
        <ele>1061.1999511719</ele>
        <time>2020-09-05T13:43:09.000Z</time>
      </trkpt>
      <trkpt lat="44.09887" lon="6.84125">
        <ele>1060.4000244141</ele>
        <time>2020-09-05T13:43:10.000Z</time>
      </trkpt>
      <trkpt lat="44.09884" lon="6.84127">
        <ele>1059.8000488281</ele>
        <time>2020-09-05T13:43:11.000Z</time>
      </trkpt>
      <trkpt lat="44.0988" lon="6.84135">
        <ele>1059.1999511719</ele>
        <time>2020-09-05T13:43:14.000Z</time>
      </trkpt>
      <trkpt lat="44.0987" lon="6.84145">
        <ele>1060.1999511719</ele>
        <time>2020-09-05T13:43:17.000Z</time>
      </trkpt>
      <trkpt lat="44.09865" lon="6.84148">
        <ele>1060.4000244141</ele>
        <time>2020-09-05T13:43:18.000Z</time>
      </trkpt>
      <trkpt lat="44.09861" lon="6.84153">
        <ele>1060.8000488281</ele>
        <time>2020-09-05T13:43:20.000Z</time>
      </trkpt>
      <trkpt lat="44.0986" lon="6.84157">
        <ele>1060.8000488281</ele>
        <time>2020-09-05T13:43:21.000Z</time>
      </trkpt>
      <trkpt lat="44.09847" lon="6.8417">
        <ele>1060.1999511719</ele>
        <time>2020-09-05T13:43:25.000Z</time>
      </trkpt>
      <trkpt lat="44.09835" lon="6.84178">
        <ele>1060.4000244141</ele>
        <time>2020-09-05T13:43:29.000Z</time>
      </trkpt>
      <trkpt lat="44.09833" lon="6.84183">
        <ele>1060.1999511719</ele>
        <time>2020-09-05T13:43:30.000Z</time>
      </trkpt>
      <trkpt lat="44.09825" lon="6.84196">
        <ele>1059.8000488281</ele>
        <time>2020-09-05T13:43:32.000Z</time>
      </trkpt>
      <trkpt lat="44.09821" lon="6.84202">
        <ele>1059.5999755859</ele>
        <time>2020-09-05T13:43:33.000Z</time>
      </trkpt>
      <trkpt lat="44.09807" lon="6.8422">
        <ele>1058.4000244141</ele>
        <time>2020-09-05T13:43:36.000Z</time>
      </trkpt>
      <trkpt lat="44.09803" lon="6.84223">
        <ele>1057.8000488281</ele>
        <time>2020-09-05T13:43:37.000Z</time>
      </trkpt>
      <trkpt lat="44.09797" lon="6.84227">
        <ele>1057.1999511719</ele>
        <time>2020-09-05T13:43:38.000Z</time>
      </trkpt>
      <trkpt lat="44.09787" lon="6.84231">
        <ele>1055</ele>
        <time>2020-09-05T13:43:40.000Z</time>
      </trkpt>
      <trkpt lat="44.09781" lon="6.84234">
        <ele>1053.5999755859</ele>
        <time>2020-09-05T13:43:41.000Z</time>
      </trkpt>
      <trkpt lat="44.09776" lon="6.84238">
        <ele>1052.5999755859</ele>
        <time>2020-09-05T13:43:42.000Z</time>
      </trkpt>
      <trkpt lat="44.09772" lon="6.84247">
        <ele>1051.4000244141</ele>
        <time>2020-09-05T13:43:44.000Z</time>
      </trkpt>
      <trkpt lat="44.09767" lon="6.84254">
        <ele>1051</ele>
        <time>2020-09-05T13:43:46.000Z</time>
      </trkpt>
      <trkpt lat="44.09765" lon="6.8426">
        <ele>1051.1999511719</ele>
        <time>2020-09-05T13:43:47.000Z</time>
      </trkpt>
      <trkpt lat="44.09756" lon="6.84284">
        <ele>1051.4000244141</ele>
        <time>2020-09-05T13:43:50.000Z</time>
      </trkpt>
      <trkpt lat="44.09743" lon="6.84305">
        <ele>1051.8000488281</ele>
        <time>2020-09-05T13:43:54.000Z</time>
      </trkpt>
      <trkpt lat="44.0973" lon="6.8432">
        <ele>1052</ele>
        <time>2020-09-05T13:43:57.000Z</time>
      </trkpt>
      <trkpt lat="44.09726" lon="6.84326">
        <ele>1052.1999511719</ele>
        <time>2020-09-05T13:43:58.000Z</time>
      </trkpt>
      <trkpt lat="44.09715" lon="6.84337">
        <ele>1052.4000244141</ele>
        <time>2020-09-05T13:44:00.000Z</time>
      </trkpt>
      <trkpt lat="44.09711" lon="6.84341">
        <ele>1052.5999755859</ele>
        <time>2020-09-05T13:44:01.000Z</time>
      </trkpt>
      <trkpt lat="44.09697" lon="6.84349">
        <ele>1052.4000244141</ele>
        <time>2020-09-05T13:44:04.000Z</time>
      </trkpt>
      <trkpt lat="44.09692" lon="6.8435">
        <ele>1052</ele>
        <time>2020-09-05T13:44:05.000Z</time>
      </trkpt>
      <trkpt lat="44.09686" lon="6.84354">
        <ele>1051.4000244141</ele>
        <time>2020-09-05T13:44:06.000Z</time>
      </trkpt>
      <trkpt lat="44.09677" lon="6.84362">
        <ele>1050.1999511719</ele>
        <time>2020-09-05T13:44:08.000Z</time>
      </trkpt>
      <trkpt lat="44.09671" lon="6.84364">
        <ele>1049.5999755859</ele>
        <time>2020-09-05T13:44:09.000Z</time>
      </trkpt>
      <trkpt lat="44.09665" lon="6.84367">
        <ele>1049</ele>
        <time>2020-09-05T13:44:10.000Z</time>
      </trkpt>
      <trkpt lat="44.0966" lon="6.84372">
        <ele>1048.5999755859</ele>
        <time>2020-09-05T13:44:11.000Z</time>
      </trkpt>
      <trkpt lat="44.09651" lon="6.84386">
        <ele>1047.8000488281</ele>
        <time>2020-09-05T13:44:13.000Z</time>
      </trkpt>
      <trkpt lat="44.09641" lon="6.84406">
        <ele>1046</ele>
        <time>2020-09-05T13:44:16.000Z</time>
      </trkpt>
      <trkpt lat="44.0964" lon="6.84411">
        <ele>1045.1999511719</ele>
        <time>2020-09-05T13:44:17.000Z</time>
      </trkpt>
      <trkpt lat="44.09639" lon="6.84417">
        <ele>1044.4000244141</ele>
        <time>2020-09-05T13:44:18.000Z</time>
      </trkpt>
      <trkpt lat="44.09639" lon="6.84425">
        <ele>1042.5999755859</ele>
        <time>2020-09-05T13:44:20.000Z</time>
      </trkpt>
      <trkpt lat="44.09638" lon="6.8443">
        <ele>1041.8000488281</ele>
        <time>2020-09-05T13:44:21.000Z</time>
      </trkpt>
      <trkpt lat="44.09638" lon="6.84436">
        <ele>1041.1999511719</ele>
        <time>2020-09-05T13:44:22.000Z</time>
      </trkpt>
      <trkpt lat="44.09635" lon="6.84454">
        <ele>1039.8000488281</ele>
        <time>2020-09-05T13:44:25.000Z</time>
      </trkpt>
      <trkpt lat="44.09632" lon="6.84462">
        <ele>1039.4000244141</ele>
        <time>2020-09-05T13:44:26.000Z</time>
      </trkpt>
      <trkpt lat="44.09631" lon="6.84473">
        <ele>1038.5999755859</ele>
        <time>2020-09-05T13:44:28.000Z</time>
      </trkpt>
      <trkpt lat="44.09624" lon="6.84492">
        <ele>1038.4000244141</ele>
        <time>2020-09-05T13:44:32.000Z</time>
      </trkpt>
      <trkpt lat="44.09622" lon="6.84492">
        <ele>1038.5999755859</ele>
        <time>2020-09-05T13:44:33.000Z</time>
      </trkpt>
      <trkpt lat="44.09621" lon="6.84494">
        <ele>1040</ele>
        <time>2020-09-05T13:44:36.000Z</time>
      </trkpt>
      <trkpt lat="44.0962" lon="6.84495">
        <ele>1040.4000244141</ele>
        <time>2020-09-05T13:44:37.000Z</time>
      </trkpt>
      <trkpt lat="44.09618" lon="6.84496">
        <ele>1041</ele>
        <time>2020-09-05T13:44:39.000Z</time>
      </trkpt>
      <trkpt lat="44.09615" lon="6.84499">
        <ele>1041.8000488281</ele>
        <time>2020-09-05T13:44:44.000Z</time>
      </trkpt>
      <trkpt lat="44.09611" lon="6.84501">
        <ele>1042</ele>
        <time>2020-09-05T13:44:48.000Z</time>
      </trkpt>
      <trkpt lat="44.0961" lon="6.84502">
        <ele>1042</ele>
        <time>2020-09-05T13:44:51.000Z</time>
      </trkpt>
      <trkpt lat="44.09608" lon="6.84503">
        <ele>1041.8000488281</ele>
        <time>2020-09-05T13:44:53.000Z</time>
      </trkpt>
      <trkpt lat="44.09603" lon="6.84504">
        <ele>1041.8000488281</ele>
        <time>2020-09-05T13:44:55.000Z</time>
      </trkpt>
      <trkpt lat="44.09586" lon="6.84506">
        <ele>1041.4000244141</ele>
        <time>2020-09-05T13:44:59.000Z</time>
      </trkpt>
      <trkpt lat="44.09574" lon="6.84497">
        <ele>1041</ele>
        <time>2020-09-05T13:45:02.000Z</time>
      </trkpt>
      <trkpt lat="44.09558" lon="6.84499">
        <ele>1039.8000488281</ele>
        <time>2020-09-05T13:45:05.000Z</time>
      </trkpt>
      <trkpt lat="44.09552" lon="6.84503">
        <ele>1039</ele>
        <time>2020-09-05T13:45:07.000Z</time>
      </trkpt>
      <trkpt lat="44.09549" lon="6.84505">
        <ele>1038.1999511719</ele>
        <time>2020-09-05T13:45:08.000Z</time>
      </trkpt>
      <trkpt lat="44.09547" lon="6.84507">
        <ele>1036.8000488281</ele>
        <time>2020-09-05T13:45:10.000Z</time>
      </trkpt>
      <trkpt lat="44.09548" lon="6.84509">
        <ele>1035.8000488281</ele>
        <time>2020-09-05T13:45:11.000Z</time>
      </trkpt>
      <trkpt lat="44.0955" lon="6.8451">
        <ele>1035</ele>
        <time>2020-09-05T13:45:12.000Z</time>
      </trkpt>
      <trkpt lat="44.09554" lon="6.84512">
        <ele>1033.4000244141</ele>
        <time>2020-09-05T13:45:14.000Z</time>
      </trkpt>
      <trkpt lat="44.0955" lon="6.84515">
        <ele>1032</ele>
        <time>2020-09-05T13:45:16.000Z</time>
      </trkpt>
      <trkpt lat="44.09545" lon="6.84517">
        <ele>1031.5999755859</ele>
        <time>2020-09-05T13:45:17.000Z</time>
      </trkpt>
      <trkpt lat="44.09539" lon="6.84518">
        <ele>1031</ele>
        <time>2020-09-05T13:45:18.000Z</time>
      </trkpt>
      <trkpt lat="44.0953" lon="6.84521">
        <ele>1029.4000244141</ele>
        <time>2020-09-05T13:45:20.000Z</time>
      </trkpt>
      <trkpt lat="44.09527" lon="6.84525">
        <ele>1028</ele>
        <time>2020-09-05T13:45:22.000Z</time>
      </trkpt>
      <trkpt lat="44.09529" lon="6.84529">
        <ele>1026.8000488281</ele>
        <time>2020-09-05T13:45:24.000Z</time>
      </trkpt>
      <trkpt lat="44.09531" lon="6.84531">
        <ele>1026.1999511719</ele>
        <time>2020-09-05T13:45:25.000Z</time>
      </trkpt>
      <trkpt lat="44.0953" lon="6.84533">
        <ele>1025.4000244141</ele>
        <time>2020-09-05T13:45:26.000Z</time>
      </trkpt>
      <trkpt lat="44.09522" lon="6.84537">
        <ele>1023.5999755859</ele>
        <time>2020-09-05T13:45:28.000Z</time>
      </trkpt>
      <trkpt lat="44.09519" lon="6.84539">
        <ele>1022.799987793</ele>
        <time>2020-09-05T13:45:29.000Z</time>
      </trkpt>
      <trkpt lat="44.09515" lon="6.84541">
        <ele>1022</ele>
        <time>2020-09-05T13:45:30.000Z</time>
      </trkpt>
      <trkpt lat="44.09512" lon="6.84545">
        <ele>1020.4000244141</ele>
        <time>2020-09-05T13:45:32.000Z</time>
      </trkpt>
      <trkpt lat="44.09513" lon="6.84547">
        <ele>1019.5999755859</ele>
        <time>2020-09-05T13:45:33.000Z</time>
      </trkpt>
      <trkpt lat="44.09515" lon="6.84547">
        <ele>1019</ele>
        <time>2020-09-05T13:45:34.000Z</time>
      </trkpt>
      <trkpt lat="44.09523" lon="6.84549">
        <ele>1017.5999755859</ele>
        <time>2020-09-05T13:45:36.000Z</time>
      </trkpt>
      <trkpt lat="44.09525" lon="6.84549">
        <ele>1017.200012207</ele>
        <time>2020-09-05T13:45:37.000Z</time>
      </trkpt>
      <trkpt lat="44.09527" lon="6.84549">
        <ele>1016.5999755859</ele>
        <time>2020-09-05T13:45:38.000Z</time>
      </trkpt>
      <trkpt lat="44.09527" lon="6.84552">
        <ele>1016</ele>
        <time>2020-09-05T13:45:39.000Z</time>
      </trkpt>
      <trkpt lat="44.09526" lon="6.84555">
        <ele>1015.5999755859</ele>
        <time>2020-09-05T13:45:40.000Z</time>
      </trkpt>
      <trkpt lat="44.09519" lon="6.84559">
        <ele>1014.799987793</ele>
        <time>2020-09-05T13:45:42.000Z</time>
      </trkpt>
      <trkpt lat="44.09514" lon="6.84562">
        <ele>1014.4000244141</ele>
        <time>2020-09-05T13:45:43.000Z</time>
      </trkpt>
      <trkpt lat="44.09511" lon="6.84565">
        <ele>1014</ele>
        <time>2020-09-05T13:45:44.000Z</time>
      </trkpt>
      <trkpt lat="44.09512" lon="6.84571">
        <ele>1012.799987793</ele>
        <time>2020-09-05T13:45:46.000Z</time>
      </trkpt>
      <trkpt lat="44.09519" lon="6.84571">
        <ele>1011.200012207</ele>
        <time>2020-09-05T13:45:48.000Z</time>
      </trkpt>
      <trkpt lat="44.09521" lon="6.84573">
        <ele>1010.200012207</ele>
        <time>2020-09-05T13:45:49.000Z</time>
      </trkpt>
      <trkpt lat="44.09519" lon="6.84577">
        <ele>1009.4000244141</ele>
        <time>2020-09-05T13:45:50.000Z</time>
      </trkpt>
      <trkpt lat="44.09516" lon="6.84578">
        <ele>1008.5999755859</ele>
        <time>2020-09-05T13:45:51.000Z</time>
      </trkpt>
      <trkpt lat="44.09512" lon="6.84579">
        <ele>1008</ele>
        <time>2020-09-05T13:45:52.000Z</time>
      </trkpt>
      <trkpt lat="44.09506" lon="6.84584">
        <ele>1006.799987793</ele>
        <time>2020-09-05T13:45:54.000Z</time>
      </trkpt>
      <trkpt lat="44.09504" lon="6.84585">
        <ele>1006.200012207</ele>
        <time>2020-09-05T13:45:55.000Z</time>
      </trkpt>
      <trkpt lat="44.09504" lon="6.84587">
        <ele>1005.5999755859</ele>
        <time>2020-09-05T13:45:56.000Z</time>
      </trkpt>
      <trkpt lat="44.09506" lon="6.84588">
        <ele>1004.5999755859</ele>
        <time>2020-09-05T13:45:58.000Z</time>
      </trkpt>
      <trkpt lat="44.09516" lon="6.84589">
        <ele>1003</ele>
        <time>2020-09-05T13:46:01.000Z</time>
      </trkpt>
      <trkpt lat="44.09517" lon="6.84592">
        <ele>1002.4000244141</ele>
        <time>2020-09-05T13:46:03.000Z</time>
      </trkpt>
      <trkpt lat="44.09516" lon="6.84594">
        <ele>1001.799987793</ele>
        <time>2020-09-05T13:46:04.000Z</time>
      </trkpt>
      <trkpt lat="44.09508" lon="6.84598">
        <ele>1000.5999755859</ele>
        <time>2020-09-05T13:46:06.000Z</time>
      </trkpt>
      <trkpt lat="44.09505" lon="6.84601">
        <ele>1000</ele>
        <time>2020-09-05T13:46:07.000Z</time>
      </trkpt>
      <trkpt lat="44.09499" lon="6.84605">
        <ele>999.40002441406</ele>
        <time>2020-09-05T13:46:08.000Z</time>
      </trkpt>
      <trkpt lat="44.09493" lon="6.84611">
        <ele>998.59997558594</ele>
        <time>2020-09-05T13:46:10.000Z</time>
      </trkpt>
      <trkpt lat="44.09493" lon="6.84614">
        <ele>998.20001220703</ele>
        <time>2020-09-05T13:46:11.000Z</time>
      </trkpt>
      <trkpt lat="44.09501" lon="6.84615">
        <ele>996.59997558594</ele>
        <time>2020-09-05T13:46:13.000Z</time>
      </trkpt>
      <trkpt lat="44.09506" lon="6.84615">
        <ele>995.79998779297</ele>
        <time>2020-09-05T13:46:14.000Z</time>
      </trkpt>
      <trkpt lat="44.0951" lon="6.84616">
        <ele>995</ele>
        <time>2020-09-05T13:46:15.000Z</time>
      </trkpt>
      <trkpt lat="44.09511" lon="6.84619">
        <ele>993.79998779297</ele>
        <time>2020-09-05T13:46:17.000Z</time>
      </trkpt>
      <trkpt lat="44.09502" lon="6.84627">
        <ele>992.40002441406</ele>
        <time>2020-09-05T13:46:20.000Z</time>
      </trkpt>
      <trkpt lat="44.09498" lon="6.84632">
        <ele>991.79998779297</ele>
        <time>2020-09-05T13:46:21.000Z</time>
      </trkpt>
      <trkpt lat="44.09497" lon="6.84636">
        <ele>991.20001220703</ele>
        <time>2020-09-05T13:46:22.000Z</time>
      </trkpt>
      <trkpt lat="44.09496" lon="6.84639">
        <ele>989.59997558594</ele>
        <time>2020-09-05T13:46:24.000Z</time>
      </trkpt>
      <trkpt lat="44.095" lon="6.84641">
        <ele>988.20001220703</ele>
        <time>2020-09-05T13:46:26.000Z</time>
      </trkpt>
      <trkpt lat="44.09504" lon="6.84642">
        <ele>987.59997558594</ele>
        <time>2020-09-05T13:46:27.000Z</time>
      </trkpt>
      <trkpt lat="44.09509" lon="6.84645">
        <ele>987.20001220703</ele>
        <time>2020-09-05T13:46:28.000Z</time>
      </trkpt>
      <trkpt lat="44.09512" lon="6.84646">
        <ele>986.79998779297</ele>
        <time>2020-09-05T13:46:29.000Z</time>
      </trkpt>
      <trkpt lat="44.09518" lon="6.84648">
        <ele>986</ele>
        <time>2020-09-05T13:46:31.000Z</time>
      </trkpt>
      <trkpt lat="44.0952" lon="6.84646">
        <ele>985.40002441406</ele>
        <time>2020-09-05T13:46:32.000Z</time>
      </trkpt>
      <trkpt lat="44.09523" lon="6.84646">
        <ele>985</ele>
        <time>2020-09-05T13:46:33.000Z</time>
      </trkpt>
      <trkpt lat="44.09523" lon="6.84647">
        <ele>984.20001220703</ele>
        <time>2020-09-05T13:46:34.000Z</time>
      </trkpt>
      <trkpt lat="44.09522" lon="6.8465">
        <ele>983.79998779297</ele>
        <time>2020-09-05T13:46:35.000Z</time>
      </trkpt>
      <trkpt lat="44.09517" lon="6.84657">
        <ele>982.79998779297</ele>
        <time>2020-09-05T13:46:37.000Z</time>
      </trkpt>
      <trkpt lat="44.09514" lon="6.8466">
        <ele>982.20001220703</ele>
        <time>2020-09-05T13:46:38.000Z</time>
      </trkpt>
      <trkpt lat="44.0951" lon="6.84662">
        <ele>981.59997558594</ele>
        <time>2020-09-05T13:46:39.000Z</time>
      </trkpt>
      <trkpt lat="44.09506" lon="6.84666">
        <ele>980.79998779297</ele>
        <time>2020-09-05T13:46:40.000Z</time>
      </trkpt>
      <trkpt lat="44.09502" lon="6.84671">
        <ele>980.20001220703</ele>
        <time>2020-09-05T13:46:41.000Z</time>
      </trkpt>
      <trkpt lat="44.09497" lon="6.84677">
        <ele>979.59997558594</ele>
        <time>2020-09-05T13:46:42.000Z</time>
      </trkpt>
      <trkpt lat="44.09487" lon="6.84684">
        <ele>978.40002441406</ele>
        <time>2020-09-05T13:46:44.000Z</time>
      </trkpt>
      <trkpt lat="44.09483" lon="6.84688">
        <ele>977.79998779297</ele>
        <time>2020-09-05T13:46:45.000Z</time>
      </trkpt>
      <trkpt lat="44.09477" lon="6.84694">
        <ele>976.79998779297</ele>
        <time>2020-09-05T13:46:47.000Z</time>
      </trkpt>
      <trkpt lat="44.09477" lon="6.84697">
        <ele>976.20001220703</ele>
        <time>2020-09-05T13:46:48.000Z</time>
      </trkpt>
      <trkpt lat="44.09478" lon="6.84699">
        <ele>975.59997558594</ele>
        <time>2020-09-05T13:46:49.000Z</time>
      </trkpt>
      <trkpt lat="44.09485" lon="6.84699">
        <ele>973.79998779297</ele>
        <time>2020-09-05T13:46:51.000Z</time>
      </trkpt>
      <trkpt lat="44.09493" lon="6.84702">
        <ele>972.79998779297</ele>
        <time>2020-09-05T13:46:53.000Z</time>
      </trkpt>
      <trkpt lat="44.095" lon="6.847">
        <ele>971.79998779297</ele>
        <time>2020-09-05T13:46:55.000Z</time>
      </trkpt>
      <trkpt lat="44.09504" lon="6.84699">
        <ele>971.20001220703</ele>
        <time>2020-09-05T13:46:56.000Z</time>
      </trkpt>
      <trkpt lat="44.09512" lon="6.84699">
        <ele>970</ele>
        <time>2020-09-05T13:46:58.000Z</time>
      </trkpt>
      <trkpt lat="44.09515" lon="6.84699">
        <ele>969.20001220703</ele>
        <time>2020-09-05T13:46:59.000Z</time>
      </trkpt>
      <trkpt lat="44.0952" lon="6.84702">
        <ele>968.20001220703</ele>
        <time>2020-09-05T13:47:00.000Z</time>
      </trkpt>
      <trkpt lat="44.09528" lon="6.84703">
        <ele>966.40002441406</ele>
        <time>2020-09-05T13:47:02.000Z</time>
      </trkpt>
      <trkpt lat="44.09529" lon="6.84706">
        <ele>964.40002441406</ele>
        <time>2020-09-05T13:47:04.000Z</time>
      </trkpt>
      <trkpt lat="44.09527" lon="6.84708">
        <ele>964</ele>
        <time>2020-09-05T13:47:05.000Z</time>
      </trkpt>
      <trkpt lat="44.09527" lon="6.84709">
        <ele>963.20001220703</ele>
        <time>2020-09-05T13:47:06.000Z</time>
      </trkpt>
      <trkpt lat="44.09528" lon="6.8471">
        <ele>962.79998779297</ele>
        <time>2020-09-05T13:47:07.000Z</time>
      </trkpt>
      <trkpt lat="44.0953" lon="6.84711">
        <ele>962</ele>
        <time>2020-09-05T13:47:08.000Z</time>
      </trkpt>
      <trkpt lat="44.09532" lon="6.8471">
        <ele>961.59997558594</ele>
        <time>2020-09-05T13:47:09.000Z</time>
      </trkpt>
      <trkpt lat="44.09537" lon="6.84714">
        <ele>961</ele>
        <time>2020-09-05T13:47:11.000Z</time>
      </trkpt>
      <trkpt lat="44.09535" lon="6.84716">
        <ele>960.59997558594</ele>
        <time>2020-09-05T13:47:12.000Z</time>
      </trkpt>
      <trkpt lat="44.09532" lon="6.84718">
        <ele>959.79998779297</ele>
        <time>2020-09-05T13:47:13.000Z</time>
      </trkpt>
      <trkpt lat="44.09531" lon="6.84722">
        <ele>958.20001220703</ele>
        <time>2020-09-05T13:47:15.000Z</time>
      </trkpt>
      <trkpt lat="44.09536" lon="6.84724">
        <ele>956.20001220703</ele>
        <time>2020-09-05T13:47:17.000Z</time>
      </trkpt>
      <trkpt lat="44.09539" lon="6.84725">
        <ele>955.40002441406</ele>
        <time>2020-09-05T13:47:18.000Z</time>
      </trkpt>
      <trkpt lat="44.0954" lon="6.84726">
        <ele>954.59997558594</ele>
        <time>2020-09-05T13:47:19.000Z</time>
      </trkpt>
      <trkpt lat="44.09539" lon="6.8473">
        <ele>953.20001220703</ele>
        <time>2020-09-05T13:47:21.000Z</time>
      </trkpt>
      <trkpt lat="44.09536" lon="6.84735">
        <ele>951.59997558594</ele>
        <time>2020-09-05T13:47:24.000Z</time>
      </trkpt>
      <trkpt lat="44.09537" lon="6.84735">
        <ele>951</ele>
        <time>2020-09-05T13:47:25.000Z</time>
      </trkpt>
      <trkpt lat="44.09539" lon="6.84735">
        <ele>950.59997558594</ele>
        <time>2020-09-05T13:47:26.000Z</time>
      </trkpt>
      <trkpt lat="44.09541" lon="6.84739">
        <ele>949.40002441406</ele>
        <time>2020-09-05T13:47:29.000Z</time>
      </trkpt>
      <trkpt lat="44.09537" lon="6.84748">
        <ele>948.20001220703</ele>
        <time>2020-09-05T13:47:31.000Z</time>
      </trkpt>
      <trkpt lat="44.09536" lon="6.84753">
        <ele>947.40002441406</ele>
        <time>2020-09-05T13:47:32.000Z</time>
      </trkpt>
      <trkpt lat="44.09535" lon="6.84759">
        <ele>946.59997558594</ele>
        <time>2020-09-05T13:47:33.000Z</time>
      </trkpt>
      <trkpt lat="44.09534" lon="6.84768">
        <ele>944.79998779297</ele>
        <time>2020-09-05T13:47:35.000Z</time>
      </trkpt>
      <trkpt lat="44.09534" lon="6.84772">
        <ele>943.20001220703</ele>
        <time>2020-09-05T13:47:37.000Z</time>
      </trkpt>
      <trkpt lat="44.09537" lon="6.84773">
        <ele>941.40002441406</ele>
        <time>2020-09-05T13:47:39.000Z</time>
      </trkpt>
      <trkpt lat="44.09539" lon="6.84776">
        <ele>940</ele>
        <time>2020-09-05T13:47:41.000Z</time>
      </trkpt>
      <trkpt lat="44.09535" lon="6.84789">
        <ele>938.79998779297</ele>
        <time>2020-09-05T13:47:44.000Z</time>
      </trkpt>
      <trkpt lat="44.0954" lon="6.84797">
        <ele>937.79998779297</ele>
        <time>2020-09-05T13:47:47.000Z</time>
      </trkpt>
      <trkpt lat="44.09544" lon="6.848">
        <ele>936.40002441406</ele>
        <time>2020-09-05T13:47:49.000Z</time>
      </trkpt>
      <trkpt lat="44.09548" lon="6.84803">
        <ele>934.79998779297</ele>
        <time>2020-09-05T13:47:51.000Z</time>
      </trkpt>
      <trkpt lat="44.09548" lon="6.84807">
        <ele>934</ele>
        <time>2020-09-05T13:47:52.000Z</time>
      </trkpt>
      <trkpt lat="44.09548" lon="6.8481">
        <ele>933.20001220703</ele>
        <time>2020-09-05T13:47:53.000Z</time>
      </trkpt>
      <trkpt lat="44.0955" lon="6.84811">
        <ele>932.59997558594</ele>
        <time>2020-09-05T13:47:54.000Z</time>
      </trkpt>
      <trkpt lat="44.09554" lon="6.84811">
        <ele>932</ele>
        <time>2020-09-05T13:47:55.000Z</time>
      </trkpt>
      <trkpt lat="44.09556" lon="6.84813">
        <ele>931.59997558594</ele>
        <time>2020-09-05T13:47:56.000Z</time>
      </trkpt>
      <trkpt lat="44.09556" lon="6.84817">
        <ele>931</ele>
        <time>2020-09-05T13:47:57.000Z</time>
      </trkpt>
      <trkpt lat="44.09559" lon="6.84819">
        <ele>930</ele>
        <time>2020-09-05T13:47:59.000Z</time>
      </trkpt>
      <trkpt lat="44.09562" lon="6.8482">
        <ele>928.79998779297</ele>
        <time>2020-09-05T13:48:01.000Z</time>
      </trkpt>
      <trkpt lat="44.09562" lon="6.84827">
        <ele>927.79998779297</ele>
        <time>2020-09-05T13:48:03.000Z</time>
      </trkpt>
      <trkpt lat="44.09564" lon="6.84829">
        <ele>927.40002441406</ele>
        <time>2020-09-05T13:48:04.000Z</time>
      </trkpt>
      <trkpt lat="44.09569" lon="6.84829">
        <ele>926.79998779297</ele>
        <time>2020-09-05T13:48:06.000Z</time>
      </trkpt>
      <trkpt lat="44.09571" lon="6.8483">
        <ele>926.20001220703</ele>
        <time>2020-09-05T13:48:07.000Z</time>
      </trkpt>
      <trkpt lat="44.09572" lon="6.84832">
        <ele>925.20001220703</ele>
        <time>2020-09-05T13:48:09.000Z</time>
      </trkpt>
      <trkpt lat="44.09573" lon="6.8483">
        <ele>924.59997558594</ele>
        <time>2020-09-05T13:48:10.000Z</time>
      </trkpt>
      <trkpt lat="44.09572" lon="6.84828">
        <ele>924</ele>
        <time>2020-09-05T13:48:11.000Z</time>
      </trkpt>
      <trkpt lat="44.09572" lon="6.84826">
        <ele>923</ele>
        <time>2020-09-05T13:48:13.000Z</time>
      </trkpt>
      <trkpt lat="44.09572" lon="6.84827">
        <ele>922.40002441406</ele>
        <time>2020-09-05T13:48:14.000Z</time>
      </trkpt>
      <trkpt lat="44.09574" lon="6.84826">
        <ele>921.59997558594</ele>
        <time>2020-09-05T13:48:16.000Z</time>
      </trkpt>
      <trkpt lat="44.09575" lon="6.84823">
        <ele>921.20001220703</ele>
        <time>2020-09-05T13:48:18.000Z</time>
      </trkpt>
      <trkpt lat="44.09576" lon="6.8482">
        <ele>920.79998779297</ele>
        <time>2020-09-05T13:48:19.000Z</time>
      </trkpt>
      <trkpt lat="44.09577" lon="6.84819">
        <ele>920.59997558594</ele>
        <time>2020-09-05T13:48:20.000Z</time>
      </trkpt>
      <trkpt lat="44.09578" lon="6.84817">
        <ele>919.40002441406</ele>
        <time>2020-09-05T13:48:24.000Z</time>
      </trkpt>
      <trkpt lat="44.09578" lon="6.84817">
        <ele>918.20001220703</ele>
        <time>2020-09-05T13:48:28.000Z</time>
      </trkpt>
      <trkpt lat="44.09579" lon="6.84816">
        <ele>917.40002441406</ele>
        <time>2020-09-05T13:48:33.000Z</time>
      </trkpt>
      <trkpt lat="44.09577" lon="6.84815">
        <ele>917.20001220703</ele>
        <time>2020-09-05T13:48:42.000Z</time>
      </trkpt>
      <trkpt lat="44.09577" lon="6.84813">
        <ele>917.40002441406</ele>
        <time>2020-09-05T13:48:52.000Z</time>
      </trkpt>
      <trkpt lat="44.09579" lon="6.84814">
        <ele>917.40002441406</ele>
        <time>2020-09-05T13:49:02.000Z</time>
      </trkpt>
      <trkpt lat="44.0958" lon="6.84817">
        <ele>917.40002441406</ele>
        <time>2020-09-05T13:49:03.000Z</time>
      </trkpt>
      <trkpt lat="44.09581" lon="6.84827">
        <ele>917</ele>
        <time>2020-09-05T13:49:06.000Z</time>
      </trkpt>
      <trkpt lat="44.09583" lon="6.84837">
        <ele>916.20001220703</ele>
        <time>2020-09-05T13:49:09.000Z</time>
      </trkpt>
      <trkpt lat="44.09579" lon="6.84839">
        <ele>915.79998779297</ele>
        <time>2020-09-05T13:49:10.000Z</time>
      </trkpt>
      <trkpt lat="44.09568" lon="6.84851">
        <ele>915</ele>
        <time>2020-09-05T13:49:13.000Z</time>
      </trkpt>
      <trkpt lat="44.09562" lon="6.84854">
        <ele>914.40002441406</ele>
        <time>2020-09-05T13:49:14.000Z</time>
      </trkpt>
      <trkpt lat="44.09553" lon="6.84858">
        <ele>913</ele>
        <time>2020-09-05T13:49:16.000Z</time>
      </trkpt>
      <trkpt lat="44.09552" lon="6.84856">
        <ele>912.59997558594</ele>
        <time>2020-09-05T13:49:17.000Z</time>
      </trkpt>
      <trkpt lat="44.0955" lon="6.84857">
        <ele>911.79998779297</ele>
        <time>2020-09-05T13:49:18.000Z</time>
      </trkpt>
      <trkpt lat="44.09548" lon="6.84858">
        <ele>910.40002441406</ele>
        <time>2020-09-05T13:49:19.000Z</time>
      </trkpt>
      <trkpt lat="44.09547" lon="6.84862">
        <ele>908.59997558594</ele>
        <time>2020-09-05T13:49:21.000Z</time>
      </trkpt>
      <trkpt lat="44.09549" lon="6.84864">
        <ele>907.59997558594</ele>
        <time>2020-09-05T13:49:22.000Z</time>
      </trkpt>
      <trkpt lat="44.09551" lon="6.84865">
        <ele>907</ele>
        <time>2020-09-05T13:49:23.000Z</time>
      </trkpt>
      <trkpt lat="44.09552" lon="6.84869">
        <ele>905.79998779297</ele>
        <time>2020-09-05T13:49:25.000Z</time>
      </trkpt>
      <trkpt lat="44.09548" lon="6.84872">
        <ele>905.40002441406</ele>
        <time>2020-09-05T13:49:26.000Z</time>
      </trkpt>
      <trkpt lat="44.0954" lon="6.8487">
        <ele>904.40002441406</ele>
        <time>2020-09-05T13:49:28.000Z</time>
      </trkpt>
      <trkpt lat="44.09534" lon="6.84872">
        <ele>903.79998779297</ele>
        <time>2020-09-05T13:49:29.000Z</time>
      </trkpt>
      <trkpt lat="44.09528" lon="6.84872">
        <ele>903.40002441406</ele>
        <time>2020-09-05T13:49:30.000Z</time>
      </trkpt>
      <trkpt lat="44.09522" lon="6.84875">
        <ele>902.79998779297</ele>
        <time>2020-09-05T13:49:31.000Z</time>
      </trkpt>
      <trkpt lat="44.09517" lon="6.84877">
        <ele>902.20001220703</ele>
        <time>2020-09-05T13:49:32.000Z</time>
      </trkpt>
      <trkpt lat="44.09511" lon="6.84881">
        <ele>901.59997558594</ele>
        <time>2020-09-05T13:49:33.000Z</time>
      </trkpt>
      <trkpt lat="44.09507" lon="6.84885">
        <ele>900.40002441406</ele>
        <time>2020-09-05T13:49:34.000Z</time>
      </trkpt>
      <trkpt lat="44.095" lon="6.84885">
        <ele>897.79998779297</ele>
        <time>2020-09-05T13:49:36.000Z</time>
      </trkpt>
      <trkpt lat="44.09498" lon="6.84885">
        <ele>896.59997558594</ele>
        <time>2020-09-05T13:49:37.000Z</time>
      </trkpt>
      <trkpt lat="44.09497" lon="6.84886">
        <ele>895.40002441406</ele>
        <time>2020-09-05T13:49:38.000Z</time>
      </trkpt>
      <trkpt lat="44.09498" lon="6.84889">
        <ele>894.40002441406</ele>
        <time>2020-09-05T13:49:39.000Z</time>
      </trkpt>
      <trkpt lat="44.09505" lon="6.84892">
        <ele>893</ele>
        <time>2020-09-05T13:49:41.000Z</time>
      </trkpt>
      <trkpt lat="44.09508" lon="6.84894">
        <ele>892.40002441406</ele>
        <time>2020-09-05T13:49:42.000Z</time>
      </trkpt>
      <trkpt lat="44.09512" lon="6.84895">
        <ele>892</ele>
        <time>2020-09-05T13:49:43.000Z</time>
      </trkpt>
      <trkpt lat="44.09518" lon="6.849">
        <ele>890.79998779297</ele>
        <time>2020-09-05T13:49:45.000Z</time>
      </trkpt>
      <trkpt lat="44.09516" lon="6.84905">
        <ele>889.59997558594</ele>
        <time>2020-09-05T13:49:47.000Z</time>
      </trkpt>
      <trkpt lat="44.09505" lon="6.84911">
        <ele>888</ele>
        <time>2020-09-05T13:49:49.000Z</time>
      </trkpt>
      <trkpt lat="44.09502" lon="6.84911">
        <ele>887.40002441406</ele>
        <time>2020-09-05T13:49:50.000Z</time>
      </trkpt>
      <trkpt lat="44.095" lon="6.8491">
        <ele>886.79998779297</ele>
        <time>2020-09-05T13:49:51.000Z</time>
      </trkpt>
      <trkpt lat="44.09495" lon="6.84914">
        <ele>885.79998779297</ele>
        <time>2020-09-05T13:49:53.000Z</time>
      </trkpt>
      <trkpt lat="44.09492" lon="6.84914">
        <ele>885</ele>
        <time>2020-09-05T13:49:54.000Z</time>
      </trkpt>
      <trkpt lat="44.09492" lon="6.84918">
        <ele>883.40002441406</ele>
        <time>2020-09-05T13:49:56.000Z</time>
      </trkpt>
      <trkpt lat="44.09497" lon="6.84923">
        <ele>882</ele>
        <time>2020-09-05T13:49:58.000Z</time>
      </trkpt>
      <trkpt lat="44.095" lon="6.84925">
        <ele>881.40002441406</ele>
        <time>2020-09-05T13:49:59.000Z</time>
      </trkpt>
      <trkpt lat="44.09504" lon="6.84926">
        <ele>881</ele>
        <time>2020-09-05T13:50:00.000Z</time>
      </trkpt>
      <trkpt lat="44.09507" lon="6.84928">
        <ele>879.59997558594</ele>
        <time>2020-09-05T13:50:03.000Z</time>
      </trkpt>
      <trkpt lat="44.09501" lon="6.84929">
        <ele>878.20001220703</ele>
        <time>2020-09-05T13:50:05.000Z</time>
      </trkpt>
      <trkpt lat="44.09496" lon="6.84928">
        <ele>877.79998779297</ele>
        <time>2020-09-05T13:50:06.000Z</time>
      </trkpt>
      <trkpt lat="44.09487" lon="6.8493">
        <ele>877.20001220703</ele>
        <time>2020-09-05T13:50:08.000Z</time>
      </trkpt>
      <trkpt lat="44.0948" lon="6.84935">
        <ele>876.40002441406</ele>
        <time>2020-09-05T13:50:10.000Z</time>
      </trkpt>
      <trkpt lat="44.09476" lon="6.84936">
        <ele>876</ele>
        <time>2020-09-05T13:50:11.000Z</time>
      </trkpt>
      <trkpt lat="44.09468" lon="6.84941">
        <ele>874.20001220703</ele>
        <time>2020-09-05T13:50:13.000Z</time>
      </trkpt>
      <trkpt lat="44.09464" lon="6.84943">
        <ele>873.20001220703</ele>
        <time>2020-09-05T13:50:14.000Z</time>
      </trkpt>
      <trkpt lat="44.0946" lon="6.84947">
        <ele>872.40002441406</ele>
        <time>2020-09-05T13:50:15.000Z</time>
      </trkpt>
      <trkpt lat="44.09452" lon="6.84953">
        <ele>870.59997558594</ele>
        <time>2020-09-05T13:50:17.000Z</time>
      </trkpt>
      <trkpt lat="44.09441" lon="6.84959">
        <ele>869</ele>
        <time>2020-09-05T13:50:19.000Z</time>
      </trkpt>
      <trkpt lat="44.09431" lon="6.8496">
        <ele>867.20001220703</ele>
        <time>2020-09-05T13:50:21.000Z</time>
      </trkpt>
      <trkpt lat="44.09422" lon="6.84961">
        <ele>865.59997558594</ele>
        <time>2020-09-05T13:50:23.000Z</time>
      </trkpt>
      <trkpt lat="44.09412" lon="6.84966">
        <ele>864.20001220703</ele>
        <time>2020-09-05T13:50:25.000Z</time>
      </trkpt>
      <trkpt lat="44.09401" lon="6.8497">
        <ele>862.79998779297</ele>
        <time>2020-09-05T13:50:27.000Z</time>
      </trkpt>
      <trkpt lat="44.09395" lon="6.84974">
        <ele>862.20001220703</ele>
        <time>2020-09-05T13:50:28.000Z</time>
      </trkpt>
      <trkpt lat="44.09391" lon="6.84977">
        <ele>861.79998779297</ele>
        <time>2020-09-05T13:50:29.000Z</time>
      </trkpt>
      <trkpt lat="44.09391" lon="6.84979">
        <ele>861</ele>
        <time>2020-09-05T13:50:31.000Z</time>
      </trkpt>
      <trkpt lat="44.09391" lon="6.84982">
        <ele>860.59997558594</ele>
        <time>2020-09-05T13:50:32.000Z</time>
      </trkpt>
      <trkpt lat="44.09393" lon="6.8499">
        <ele>859.59997558594</ele>
        <time>2020-09-05T13:50:35.000Z</time>
      </trkpt>
      <trkpt lat="44.09394" lon="6.84991">
        <ele>859</ele>
        <time>2020-09-05T13:50:39.000Z</time>
      </trkpt>
      <trkpt lat="44.09395" lon="6.84989">
        <ele>858.59997558594</ele>
        <time>2020-09-05T13:50:43.000Z</time>
      </trkpt>
      <trkpt lat="44.09396" lon="6.84989">
        <ele>858.40002441406</ele>
        <time>2020-09-05T13:50:47.000Z</time>
      </trkpt>
      <trkpt lat="44.09397" lon="6.84989">
        <ele>858.20001220703</ele>
        <time>2020-09-05T13:50:55.000Z</time>
      </trkpt>
      <trkpt lat="44.09398" lon="6.8499">
        <ele>858.40002441406</ele>
        <time>2020-09-05T13:51:07.000Z</time>
      </trkpt>
      <trkpt lat="44.09398" lon="6.8499">
        <ele>858.40002441406</ele>
        <time>2020-09-05T13:51:11.000Z</time>
      </trkpt>
      <trkpt lat="44.09397" lon="6.8499">
        <ele>858.59997558594</ele>
        <time>2020-09-05T13:51:17.000Z</time>
      </trkpt>
      <trkpt lat="44.09397" lon="6.84991">
        <ele>858.20001220703</ele>
        <time>2020-09-05T13:51:25.000Z</time>
      </trkpt>
      <trkpt lat="44.09397" lon="6.84993">
        <ele>858.20001220703</ele>
        <time>2020-09-05T13:51:40.000Z</time>
      </trkpt>
      <trkpt lat="44.09397" lon="6.84995">
        <ele>858.20001220703</ele>
        <time>2020-09-05T13:51:55.000Z</time>
      </trkpt>
      <trkpt lat="44.09398" lon="6.84996">
        <ele>858.20001220703</ele>
        <time>2020-09-05T13:52:12.000Z</time>
      </trkpt>
      <trkpt lat="44.09399" lon="6.84996">
        <ele>858.40002441406</ele>
        <time>2020-09-05T13:52:19.000Z</time>
      </trkpt>
      <trkpt lat="44.09407" lon="6.85003">
        <ele>858.59997558594</ele>
        <time>2020-09-05T13:52:24.000Z</time>
      </trkpt>
      <trkpt lat="44.09424" lon="6.85007">
        <ele>858.40002441406</ele>
        <time>2020-09-05T13:52:28.000Z</time>
      </trkpt>
      <trkpt lat="44.09436" lon="6.85009">
        <ele>858.20001220703</ele>
        <time>2020-09-05T13:52:30.000Z</time>
      </trkpt>
      <trkpt lat="44.09448" lon="6.85006">
        <ele>858</ele>
        <time>2020-09-05T13:52:32.000Z</time>
      </trkpt>
      <trkpt lat="44.0946" lon="6.84999">
        <ele>857.59997558594</ele>
        <time>2020-09-05T13:52:34.000Z</time>
      </trkpt>
      <trkpt lat="44.09472" lon="6.84991">
        <ele>856.79998779297</ele>
        <time>2020-09-05T13:52:36.000Z</time>
      </trkpt>
      <trkpt lat="44.09477" lon="6.8499">
        <ele>856.40002441406</ele>
        <time>2020-09-05T13:52:37.000Z</time>
      </trkpt>
      <trkpt lat="44.09482" lon="6.84994">
        <ele>856</ele>
        <time>2020-09-05T13:52:38.000Z</time>
      </trkpt>
      <trkpt lat="44.09481" lon="6.85008">
        <ele>855.20001220703</ele>
        <time>2020-09-05T13:52:40.000Z</time>
      </trkpt>
      <trkpt lat="44.09472" lon="6.85021">
        <ele>854.59997558594</ele>
        <time>2020-09-05T13:52:42.000Z</time>
      </trkpt>
      <trkpt lat="44.09464" lon="6.85034">
        <ele>854.20001220703</ele>
        <time>2020-09-05T13:52:44.000Z</time>
      </trkpt>
      <trkpt lat="44.09446" lon="6.85063">
        <ele>852.79998779297</ele>
        <time>2020-09-05T13:52:48.000Z</time>
      </trkpt>
      <trkpt lat="44.09437" lon="6.85078">
        <ele>852.20001220703</ele>
        <time>2020-09-05T13:52:50.000Z</time>
      </trkpt>
      <trkpt lat="44.09427" lon="6.85094">
        <ele>851.40002441406</ele>
        <time>2020-09-05T13:52:52.000Z</time>
      </trkpt>
      <trkpt lat="44.0941" lon="6.85118">
        <ele>850.20001220703</ele>
        <time>2020-09-05T13:52:55.000Z</time>
      </trkpt>
      <trkpt lat="44.09404" lon="6.85125">
        <ele>849.79998779297</ele>
        <time>2020-09-05T13:52:56.000Z</time>
      </trkpt>
      <trkpt lat="44.09393" lon="6.85143">
        <ele>849</ele>
        <time>2020-09-05T13:52:58.000Z</time>
      </trkpt>
      <trkpt lat="44.09385" lon="6.85164">
        <ele>848.40002441406</ele>
        <time>2020-09-05T13:53:00.000Z</time>
      </trkpt>
      <trkpt lat="44.09382" lon="6.85174">
        <ele>848</ele>
        <time>2020-09-05T13:53:01.000Z</time>
      </trkpt>
      <trkpt lat="44.09377" lon="6.85198">
        <ele>846.79998779297</ele>
        <time>2020-09-05T13:53:03.000Z</time>
      </trkpt>
      <trkpt lat="44.09377" lon="6.85208">
        <ele>846</ele>
        <time>2020-09-05T13:53:04.000Z</time>
      </trkpt>
      <trkpt lat="44.09376" lon="6.8522">
        <ele>845.59997558594</ele>
        <time>2020-09-05T13:53:05.000Z</time>
      </trkpt>
      <trkpt lat="44.09376" lon="6.85227">
        <ele>845.40002441406</ele>
        <time>2020-09-05T13:53:06.000Z</time>
      </trkpt>
      <trkpt lat="44.09374" lon="6.85233">
        <ele>845.20001220703</ele>
        <time>2020-09-05T13:53:07.000Z</time>
      </trkpt>
      <trkpt lat="44.09365" lon="6.8524">
        <ele>844.59997558594</ele>
        <time>2020-09-05T13:53:10.000Z</time>
      </trkpt>
      <trkpt lat="44.09361" lon="6.8524">
        <ele>844</ele>
        <time>2020-09-05T13:53:11.000Z</time>
      </trkpt>
      <trkpt lat="44.09356" lon="6.85241">
        <ele>843.40002441406</ele>
        <time>2020-09-05T13:53:12.000Z</time>
      </trkpt>
      <trkpt lat="44.09339" lon="6.85245">
        <ele>842.40002441406</ele>
        <time>2020-09-05T13:53:15.000Z</time>
      </trkpt>
      <trkpt lat="44.09326" lon="6.85247">
        <ele>842.40002441406</ele>
        <time>2020-09-05T13:53:17.000Z</time>
      </trkpt>
      <trkpt lat="44.09319" lon="6.85246">
        <ele>842.20001220703</ele>
        <time>2020-09-05T13:53:18.000Z</time>
      </trkpt>
      <trkpt lat="44.09311" lon="6.85244">
        <ele>841.79998779297</ele>
        <time>2020-09-05T13:53:19.000Z</time>
      </trkpt>
      <trkpt lat="44.09297" lon="6.85237">
        <ele>841.20001220703</ele>
        <time>2020-09-05T13:53:21.000Z</time>
      </trkpt>
      <trkpt lat="44.09268" lon="6.8522">
        <ele>839.79998779297</ele>
        <time>2020-09-05T13:53:25.000Z</time>
      </trkpt>
      <trkpt lat="44.09261" lon="6.85218">
        <ele>839.59997558594</ele>
        <time>2020-09-05T13:53:26.000Z</time>
      </trkpt>
      <trkpt lat="44.09244" lon="6.85217">
        <ele>839</ele>
        <time>2020-09-05T13:53:28.000Z</time>
      </trkpt>
      <trkpt lat="44.09235" lon="6.8522">
        <ele>838.59997558594</ele>
        <time>2020-09-05T13:53:29.000Z</time>
      </trkpt>
      <trkpt lat="44.09227" lon="6.85224">
        <ele>838.20001220703</ele>
        <time>2020-09-05T13:53:30.000Z</time>
      </trkpt>
      <trkpt lat="44.09211" lon="6.85232">
        <ele>837.20001220703</ele>
        <time>2020-09-05T13:53:32.000Z</time>
      </trkpt>
      <trkpt lat="44.09187" lon="6.85244">
        <ele>836</ele>
        <time>2020-09-05T13:53:35.000Z</time>
      </trkpt>
      <trkpt lat="44.09158" lon="6.85257">
        <ele>834.79998779297</ele>
        <time>2020-09-05T13:53:39.000Z</time>
      </trkpt>
      <trkpt lat="44.09131" lon="6.8527">
        <ele>833.59997558594</ele>
        <time>2020-09-05T13:53:43.000Z</time>
      </trkpt>
      <trkpt lat="44.09112" lon="6.85279">
        <ele>833.20001220703</ele>
        <time>2020-09-05T13:53:46.000Z</time>
      </trkpt>
      <trkpt lat="44.09094" lon="6.85288">
        <ele>832.40002441406</ele>
        <time>2020-09-05T13:53:49.000Z</time>
      </trkpt>
      <trkpt lat="44.09083" lon="6.85294">
        <ele>831.79998779297</ele>
        <time>2020-09-05T13:53:51.000Z</time>
      </trkpt>
      <trkpt lat="44.09072" lon="6.85301">
        <ele>831.40002441406</ele>
        <time>2020-09-05T13:53:53.000Z</time>
      </trkpt>
      <trkpt lat="44.09049" lon="6.85312">
        <ele>830.59997558594</ele>
        <time>2020-09-05T13:53:57.000Z</time>
      </trkpt>
      <trkpt lat="44.09038" lon="6.8532">
        <ele>830.40002441406</ele>
        <time>2020-09-05T13:53:59.000Z</time>
      </trkpt>
      <trkpt lat="44.09027" lon="6.85326">
        <ele>830.20001220703</ele>
        <time>2020-09-05T13:54:01.000Z</time>
      </trkpt>
      <trkpt lat="44.0902" lon="6.85328">
        <ele>830.20001220703</ele>
        <time>2020-09-05T13:54:02.000Z</time>
      </trkpt>
      <trkpt lat="44.08993" lon="6.85334">
        <ele>829.20001220703</ele>
        <time>2020-09-05T13:54:07.000Z</time>
      </trkpt>
      <trkpt lat="44.08967" lon="6.85339">
        <ele>829.20001220703</ele>
        <time>2020-09-05T13:54:13.000Z</time>
      </trkpt>
      <trkpt lat="44.08947" lon="6.85345">
        <ele>829.40002441406</ele>
        <time>2020-09-05T13:54:19.000Z</time>
      </trkpt>
      <trkpt lat="44.08946" lon="6.85344">
        <ele>829.40002441406</ele>
        <time>2020-09-05T13:54:20.000Z</time>
      </trkpt>
      <trkpt lat="44.08945" lon="6.85343">
        <ele>829.20001220703</ele>
        <time>2020-09-05T13:54:23.000Z</time>
      </trkpt>
      <trkpt lat="44.08944" lon="6.85343">
        <ele>829</ele>
        <time>2020-09-05T13:54:29.000Z</time>
      </trkpt>
      <trkpt lat="44.08944" lon="6.85344">
        <ele>829</ele>
        <time>2020-09-05T13:54:36.000Z</time>
      </trkpt>
      <trkpt lat="44.08942" lon="6.85344">
        <ele>829</ele>
        <time>2020-09-05T13:54:46.000Z</time>
      </trkpt>
      <trkpt lat="44.08941" lon="6.85346">
        <ele>828.79998779297</ele>
        <time>2020-09-05T13:54:54.000Z</time>
      </trkpt>
      <trkpt lat="44.0894" lon="6.85347">
        <ele>829.20001220703</ele>
        <time>2020-09-05T13:55:01.000Z</time>
      </trkpt>
    </trkseg>
  </trk>
</gpx>